<?xml version="1.0" encoding="utf-8"?>
<gpx xmlns:xsi="http://www.w3.org/2001/XMLSchema-instance" xmlns:xsd="http://www.w3.org/2001/XMLSchema" version="1.1" creator="Shapelink.com" xmlns="http://www.topografix.com/GPX/1/1" xmlns:gpxtpx="http://www.garmin.com/xmlschemas/TrackPointExtension/v1">
  <metadata>
    <name>Längdskidåkning 3.66 km, 2016-01-23</name>
    <desc></desc>
    <author><name>Kim Kronberg</name></author> 
    <time>2016-01-23T10:45:52Z</time>
  </metadata>
  <trk>
    <name>Längdskidåkning 3.66 km, 2016-01-23</name>
    <trkseg>
      <trkpt lat="60.45333560454" lon="22.275563515575">
        <ele>6.8</ele>
        <time>2016-01-23T10:45:52Z</time>
      </trkpt>
      <trkpt lat="60.453344154078" lon="22.275568377077">
        <ele>6.8</ele>
        <time>2016-01-23T10:45:53Z</time>
      </trkpt>
      <trkpt lat="60.453352955073" lon="22.275571981294">
        <ele>6.8</ele>
        <time>2016-01-23T10:45:54Z</time>
      </trkpt>
      <trkpt lat="60.453366785208" lon="22.275585476153">
        <ele>5.2</ele>
        <time>2016-01-23T10:45:55Z</time>
      </trkpt>
      <trkpt lat="60.453381621171" lon="22.275592768406">
        <ele>5.2</ele>
        <time>2016-01-23T10:45:56Z</time>
      </trkpt>
      <trkpt lat="60.453402408283" lon="22.275614058432">
        <ele>5.2</ele>
        <time>2016-01-23T10:45:57Z</time>
      </trkpt>
      <trkpt lat="60.453421016101" lon="22.275622691789">
        <ele>5.2</ele>
        <time>2016-01-23T10:45:58Z</time>
      </trkpt>
      <trkpt lat="60.453439875376" lon="22.275635348458">
        <ele>5.2</ele>
        <time>2016-01-23T10:45:59Z</time>
      </trkpt>
      <trkpt lat="60.453467954741" lon="22.275652028439">
        <ele>5.2</ele>
        <time>2016-01-23T10:46:00Z</time>
      </trkpt>
      <trkpt lat="60.453485221455" lon="22.275649681507">
        <ele>5.2</ele>
        <time>2016-01-23T10:46:01Z</time>
      </trkpt>
      <trkpt lat="60.453509361327" lon="22.275668876058">
        <ele>5.2</ele>
        <time>2016-01-23T10:46:02Z</time>
      </trkpt>
      <trkpt lat="60.453536267226" lon="22.275679269614">
        <ele>5.2</ele>
        <time>2016-01-23T10:46:03Z</time>
      </trkpt>
      <trkpt lat="60.453560993831" lon="22.275690166084">
        <ele>5.2</ele>
        <time>2016-01-23T10:46:04Z</time>
      </trkpt>
      <trkpt lat="60.453580858934" lon="22.275703409486">
        <ele>5.2</ele>
        <time>2016-01-23T10:46:05Z</time>
      </trkpt>
      <trkpt lat="60.453603741521" lon="22.275706846065">
        <ele>5.2</ele>
        <time>2016-01-23T10:46:06Z</time>
      </trkpt>
      <trkpt lat="60.453631234153" lon="22.275725956797">
        <ele>5.2</ele>
        <time>2016-01-23T10:46:07Z</time>
      </trkpt>
      <trkpt lat="60.453652691817" lon="22.275744816072">
        <ele>5.2</ele>
        <time>2016-01-23T10:46:08Z</time>
      </trkpt>
      <trkpt lat="60.453674652395" lon="22.275758059474">
        <ele>5.2</ele>
        <time>2016-01-23T10:46:09Z</time>
      </trkpt>
      <trkpt lat="60.453693595489" lon="22.275771554333">
        <ele>5.2</ele>
        <time>2016-01-23T10:46:10Z</time>
      </trkpt>
      <trkpt lat="60.453712706221" lon="22.27578437864">
        <ele>5.2</ele>
        <time>2016-01-23T10:46:11Z</time>
      </trkpt>
      <trkpt lat="60.453724021786" lon="22.275788150495">
        <ele>5.2</ele>
        <time>2016-01-23T10:46:12Z</time>
      </trkpt>
      <trkpt lat="60.453732990419" lon="22.275800890983">
        <ele>5.2</ele>
        <time>2016-01-23T10:46:13Z</time>
      </trkpt>
      <trkpt lat="60.453726955451" lon="22.275794353101">
        <ele>5.2</ele>
        <time>2016-01-23T10:46:14Z</time>
      </trkpt>
      <trkpt lat="60.453735756446" lon="22.275804830476">
        <ele>5.2</ele>
        <time>2016-01-23T10:46:15Z</time>
      </trkpt>
      <trkpt lat="60.453738354835" lon="22.275799382241">
        <ele>5.2</ele>
        <time>2016-01-23T10:46:16Z</time>
      </trkpt>
      <trkpt lat="60.453743551613" lon="22.275796448576">
        <ele>5.2</ele>
        <time>2016-01-23T10:46:17Z</time>
      </trkpt>
      <trkpt lat="60.453741623776" lon="22.275797622042">
        <ele>5.2</ele>
        <time>2016-01-23T10:46:18Z</time>
      </trkpt>
      <trkpt lat="60.453747742563" lon="22.27579695149">
        <ele>5.2</ele>
        <time>2016-01-23T10:46:19Z</time>
      </trkpt>
      <trkpt lat="60.4537496704" lon="22.275795358929">
        <ele>5.2</ele>
        <time>2016-01-23T10:46:20Z</time>
      </trkpt>
      <trkpt lat="60.453749754219" lon="22.275796448576">
        <ele>5.2</ele>
        <time>2016-01-23T10:46:21Z</time>
      </trkpt>
      <trkpt lat="60.453748580753" lon="22.275798460232">
        <ele>5.2</ele>
        <time>2016-01-23T10:46:22Z</time>
      </trkpt>
      <trkpt lat="60.453748916029" lon="22.27579946606">
        <ele>5.2</ele>
        <time>2016-01-23T10:46:23Z</time>
      </trkpt>
      <trkpt lat="60.453748748391" lon="22.275801645354">
        <ele>5.2</ele>
        <time>2016-01-23T10:46:24Z</time>
      </trkpt>
      <trkpt lat="60.453749754219" lon="22.27580365701">
        <ele>5.2</ele>
        <time>2016-01-23T10:46:25Z</time>
      </trkpt>
      <trkpt lat="60.453751095323" lon="22.275806087761">
        <ele>5.2</ele>
        <time>2016-01-23T10:46:26Z</time>
      </trkpt>
      <trkpt lat="60.453752017332" lon="22.275808015598">
        <ele>5.2</ele>
        <time>2016-01-23T10:46:27Z</time>
      </trkpt>
      <trkpt lat="60.45375218497" lon="22.275809943435">
        <ele>5.2</ele>
        <time>2016-01-23T10:46:28Z</time>
      </trkpt>
      <trkpt lat="60.453752771703" lon="22.275812458005">
        <ele>5.2</ele>
        <time>2016-01-23T10:46:29Z</time>
      </trkpt>
      <trkpt lat="60.453753442255" lon="22.275814302023">
        <ele>5.2</ele>
        <time>2016-01-23T10:46:30Z</time>
      </trkpt>
      <trkpt lat="60.453753609893" lon="22.275816732774">
        <ele>5.2</ele>
        <time>2016-01-23T10:46:31Z</time>
      </trkpt>
      <trkpt lat="60.453753777531" lon="22.275820001715">
        <ele>5.2</ele>
        <time>2016-01-23T10:46:32Z</time>
      </trkpt>
      <trkpt lat="60.453754615721" lon="22.275822516285">
        <ele>5.2</ele>
        <time>2016-01-23T10:46:33Z</time>
      </trkpt>
      <trkpt lat="60.453756292101" lon="22.275825030855">
        <ele>5.2</ele>
        <time>2016-01-23T10:46:34Z</time>
      </trkpt>
      <trkpt lat="60.453757968481" lon="22.275827042511">
        <ele>5.2</ele>
        <time>2016-01-23T10:46:35Z</time>
      </trkpt>
      <trkpt lat="60.453759812499" lon="22.275828718891">
        <ele>5.2</ele>
        <time>2016-01-23T10:46:36Z</time>
      </trkpt>
      <trkpt lat="60.453761907974" lon="22.275830311452">
        <ele>5.2</ele>
        <time>2016-01-23T10:46:37Z</time>
      </trkpt>
      <trkpt lat="60.453763668173" lon="22.275832658384">
        <ele>5.2</ele>
        <time>2016-01-23T10:46:38Z</time>
      </trkpt>
      <trkpt lat="60.453765260734" lon="22.275834502402">
        <ele>5.2</ele>
        <time>2016-01-23T10:46:39Z</time>
      </trkpt>
      <trkpt lat="60.453766015105" lon="22.275835424411">
        <ele>5.2</ele>
        <time>2016-01-23T10:46:40Z</time>
      </trkpt>
      <trkpt lat="60.453766601838" lon="22.275836094963">
        <ele>5.2</ele>
        <time>2016-01-23T10:46:41Z</time>
      </trkpt>
      <trkpt lat="60.453767775304" lon="22.275836849334">
        <ele>5.2</ele>
        <time>2016-01-23T10:46:42Z</time>
      </trkpt>
      <trkpt lat="60.453768613494" lon="22.275836933153">
        <ele>5.2</ele>
        <time>2016-01-23T10:46:43Z</time>
      </trkpt>
      <trkpt lat="60.45376978696" lon="22.275837100791">
        <ele>5.2</ele>
        <time>2016-01-23T10:46:44Z</time>
      </trkpt>
      <trkpt lat="60.453771044245" lon="22.275839531542">
        <ele>5.2</ele>
        <time>2016-01-23T10:46:45Z</time>
      </trkpt>
      <trkpt lat="60.453771714797" lon="22.27584305194">
        <ele>5.2</ele>
        <time>2016-01-23T10:46:46Z</time>
      </trkpt>
      <trkpt lat="60.453771798616" lon="22.275846907614">
        <ele>5.2</ele>
        <time>2016-01-23T10:46:47Z</time>
      </trkpt>
      <trkpt lat="60.453771798616" lon="22.275851098564">
        <ele>5.2</ele>
        <time>2016-01-23T10:46:48Z</time>
      </trkpt>
      <trkpt lat="60.453771547159" lon="22.275855289514">
        <ele>5.2</ele>
        <time>2016-01-23T10:46:49Z</time>
      </trkpt>
      <trkpt lat="60.45377146334" lon="22.275859564283">
        <ele>5.2</ele>
        <time>2016-01-23T10:46:50Z</time>
      </trkpt>
      <trkpt lat="60.453771798616" lon="22.275864258147">
        <ele>5.2</ele>
        <time>2016-01-23T10:46:51Z</time>
      </trkpt>
      <trkpt lat="60.453772972082" lon="22.27586819764">
        <ele>5.2</ele>
        <time>2016-01-23T10:46:52Z</time>
      </trkpt>
      <trkpt lat="60.453773391177" lon="22.275871718038">
        <ele>5.2</ele>
        <time>2016-01-23T10:46:53Z</time>
      </trkpt>
      <trkpt lat="60.453772469168" lon="22.275874735522">
        <ele>5.2</ele>
        <time>2016-01-23T10:46:54Z</time>
      </trkpt>
      <trkpt lat="60.453770457512" lon="22.275875322255">
        <ele>5.2</ele>
        <time>2016-01-23T10:46:55Z</time>
      </trkpt>
      <trkpt lat="60.453769367865" lon="22.275875657531">
        <ele>5.2</ele>
        <time>2016-01-23T10:46:56Z</time>
      </trkpt>
      <trkpt lat="60.453769954598" lon="22.275878339739">
        <ele>5.2</ele>
        <time>2016-01-23T10:46:57Z</time>
      </trkpt>
      <trkpt lat="60.453769200227" lon="22.275879429386">
        <ele>5.2</ele>
        <time>2016-01-23T10:46:58Z</time>
      </trkpt>
      <trkpt lat="60.453768445856" lon="22.275881357223">
        <ele>5.2</ele>
        <time>2016-01-23T10:46:59Z</time>
      </trkpt>
      <trkpt lat="60.453767859123" lon="22.275883033603">
        <ele>5.2</ele>
        <time>2016-01-23T10:47:00Z</time>
      </trkpt>
      <trkpt lat="60.453767523847" lon="22.275884039431">
        <ele>5.2</ele>
        <time>2016-01-23T10:47:01Z</time>
      </trkpt>
      <trkpt lat="60.453767020933" lon="22.275884709983">
        <ele>5.2</ele>
        <time>2016-01-23T10:47:02Z</time>
      </trkpt>
      <trkpt lat="60.453766685657" lon="22.275885296716">
        <ele>5.2</ele>
        <time>2016-01-23T10:47:03Z</time>
      </trkpt>
      <trkpt lat="60.453766350381" lon="22.275886302544">
        <ele>5.2</ele>
        <time>2016-01-23T10:47:04Z</time>
      </trkpt>
      <trkpt lat="60.453766266562" lon="22.275887643648">
        <ele>5.2</ele>
        <time>2016-01-23T10:47:05Z</time>
      </trkpt>
      <trkpt lat="60.453766098924" lon="22.275888398019">
        <ele>5.2</ele>
        <time>2016-01-23T10:47:06Z</time>
      </trkpt>
      <trkpt lat="60.453766015105" lon="22.275889655304">
        <ele>5.2</ele>
        <time>2016-01-23T10:47:07Z</time>
      </trkpt>
      <trkpt lat="60.453766015105" lon="22.275891247865">
        <ele>5.2</ele>
        <time>2016-01-23T10:47:08Z</time>
      </trkpt>
      <trkpt lat="60.453766015105" lon="22.275892756607">
        <ele>5.2</ele>
        <time>2016-01-23T10:47:09Z</time>
      </trkpt>
      <trkpt lat="60.453766182743" lon="22.275894935901">
        <ele>5.2</ele>
        <time>2016-01-23T10:47:10Z</time>
      </trkpt>
      <trkpt lat="60.453766266562" lon="22.275895690272">
        <ele>5.2</ele>
        <time>2016-01-23T10:47:11Z</time>
      </trkpt>
      <trkpt lat="60.453767104752" lon="22.275896025548">
        <ele>5.2</ele>
        <time>2016-01-23T10:47:12Z</time>
      </trkpt>
      <trkpt lat="60.453769367865" lon="22.275896612281">
        <ele>5.2</ele>
        <time>2016-01-23T10:47:13Z</time>
      </trkpt>
      <trkpt lat="60.453769619322" lon="22.275895271177">
        <ele>5.2</ele>
        <time>2016-01-23T10:47:14Z</time>
      </trkpt>
      <trkpt lat="60.453769200227" lon="22.275896444643">
        <ele>5.2</ele>
        <time>2016-01-23T10:47:15Z</time>
      </trkpt>
      <trkpt lat="60.453768445856" lon="22.275897953385">
        <ele>5.2</ele>
        <time>2016-01-23T10:47:16Z</time>
      </trkpt>
      <trkpt lat="60.453767523847" lon="22.275898959213">
        <ele>5.2</ele>
        <time>2016-01-23T10:47:17Z</time>
      </trkpt>
      <trkpt lat="60.45376727239" lon="22.275899629765">
        <ele>5.2</ele>
        <time>2016-01-23T10:47:18Z</time>
      </trkpt>
      <trkpt lat="60.453767607666" lon="22.275899965041">
        <ele>5.2</ele>
        <time>2016-01-23T10:47:19Z</time>
      </trkpt>
      <trkpt lat="60.453767607666" lon="22.275899043032">
        <ele>5.2</ele>
        <time>2016-01-23T10:47:20Z</time>
      </trkpt>
      <trkpt lat="60.45376727239" lon="22.275898288661">
        <ele>5.2</ele>
        <time>2016-01-23T10:47:21Z</time>
      </trkpt>
      <trkpt lat="60.453767104752" lon="22.275899126851">
        <ele>5.2</ele>
        <time>2016-01-23T10:47:22Z</time>
      </trkpt>
      <trkpt lat="60.453767188571" lon="22.27590004886">
        <ele>5.2</ele>
        <time>2016-01-23T10:47:23Z</time>
      </trkpt>
      <trkpt lat="60.453767607666" lon="22.275902311973">
        <ele>5.2</ele>
        <time>2016-01-23T10:47:24Z</time>
      </trkpt>
      <trkpt lat="60.453767859123" lon="22.275904910362">
        <ele>5.2</ele>
        <time>2016-01-23T10:47:25Z</time>
      </trkpt>
      <trkpt lat="60.45376811058" lon="22.275907508751">
        <ele>5.2</ele>
        <time>2016-01-23T10:47:26Z</time>
      </trkpt>
      <trkpt lat="60.453768781132" lon="22.27591010714">
        <ele>5.2</ele>
        <time>2016-01-23T10:47:27Z</time>
      </trkpt>
      <trkpt lat="60.453767942942" lon="22.275910693873">
        <ele>5.2</ele>
        <time>2016-01-23T10:47:28Z</time>
      </trkpt>
      <trkpt lat="60.453767775304" lon="22.275911951158">
        <ele>5.2</ele>
        <time>2016-01-23T10:47:29Z</time>
      </trkpt>
      <trkpt lat="60.453768445856" lon="22.275912789348">
        <ele>5.2</ele>
        <time>2016-01-23T10:47:30Z</time>
      </trkpt>
      <trkpt lat="60.453768781132" lon="22.275912202615">
        <ele>5.2</ele>
        <time>2016-01-23T10:47:31Z</time>
      </trkpt>
      <trkpt lat="60.45376894877" lon="22.275911364425">
        <ele>5.2</ele>
        <time>2016-01-23T10:47:32Z</time>
      </trkpt>
      <trkpt lat="60.453768445856" lon="22.275907760208">
        <ele>5.2</ele>
        <time>2016-01-23T10:47:33Z</time>
      </trkpt>
      <trkpt lat="60.453767859123" lon="22.275906335285">
        <ele>5.2</ele>
        <time>2016-01-23T10:47:34Z</time>
      </trkpt>
      <trkpt lat="60.453768194399" lon="22.275907341113">
        <ele>5.2</ele>
        <time>2016-01-23T10:47:35Z</time>
      </trkpt>
      <trkpt lat="60.453773307358" lon="22.275909352769">
        <ele>5.2</ele>
        <time>2016-01-23T10:47:36Z</time>
      </trkpt>
      <trkpt lat="60.453770373693" lon="22.275907844027">
        <ele>5.2</ele>
        <time>2016-01-23T10:47:37Z</time>
      </trkpt>
      <trkpt lat="60.453770289874" lon="22.27590926895">
        <ele>5.2</ele>
        <time>2016-01-23T10:47:38Z</time>
      </trkpt>
      <trkpt lat="60.453769367865" lon="22.275909017493">
        <ele>5.2</ele>
        <time>2016-01-23T10:47:39Z</time>
      </trkpt>
      <trkpt lat="60.453769367865" lon="22.275911951158">
        <ele>5.2</ele>
        <time>2016-01-23T10:47:40Z</time>
      </trkpt>
      <trkpt lat="60.45376894877" lon="22.275912956986">
        <ele>5.2</ele>
        <time>2016-01-23T10:47:41Z</time>
      </trkpt>
      <trkpt lat="60.453768194399" lon="22.275911615882">
        <ele>5.2</ele>
        <time>2016-01-23T10:47:42Z</time>
      </trkpt>
      <trkpt lat="60.453768445856" lon="22.275910861511">
        <ele>5.2</ele>
        <time>2016-01-23T10:47:43Z</time>
      </trkpt>
      <trkpt lat="60.453768864951" lon="22.275910358597">
        <ele>5.2</ele>
        <time>2016-01-23T10:47:44Z</time>
      </trkpt>
      <trkpt lat="60.453769451684" lon="22.275909017493">
        <ele>5.2</ele>
        <time>2016-01-23T10:47:45Z</time>
      </trkpt>
      <trkpt lat="60.453769284046" lon="22.275908011665">
        <ele>5.2</ele>
        <time>2016-01-23T10:47:46Z</time>
      </trkpt>
      <trkpt lat="60.453769870779" lon="22.275910190959">
        <ele>5.2</ele>
        <time>2016-01-23T10:47:47Z</time>
      </trkpt>
      <trkpt lat="60.453771044245" lon="22.27591010714">
        <ele>5.2</ele>
        <time>2016-01-23T10:47:48Z</time>
      </trkpt>
      <trkpt lat="60.453770708969" lon="22.275907927846">
        <ele>5.2</ele>
        <time>2016-01-23T10:47:49Z</time>
      </trkpt>
      <trkpt lat="60.45377230153" lon="22.275906922018">
        <ele>5.2</ele>
        <time>2016-01-23T10:47:50Z</time>
      </trkpt>
      <trkpt lat="60.453773810272" lon="22.275906502923">
        <ele>5.2</ele>
        <time>2016-01-23T10:47:51Z</time>
      </trkpt>
      <trkpt lat="60.453774983738" lon="22.275905245638">
        <ele>5.2</ele>
        <time>2016-01-23T10:47:52Z</time>
      </trkpt>
      <trkpt lat="60.453776073385" lon="22.275904155991">
        <ele>5.2</ele>
        <time>2016-01-23T10:47:53Z</time>
      </trkpt>
      <trkpt lat="60.45377649248" lon="22.275903820715">
        <ele>5.2</ele>
        <time>2016-01-23T10:47:54Z</time>
      </trkpt>
      <trkpt lat="60.45377649248" lon="22.275903653077">
        <ele>5.2</ele>
        <time>2016-01-23T10:47:55Z</time>
      </trkpt>
      <trkpt lat="60.453776576299" lon="22.275902814887">
        <ele>5.2</ele>
        <time>2016-01-23T10:47:56Z</time>
      </trkpt>
      <trkpt lat="60.453776995394" lon="22.275901222326">
        <ele>5.2</ele>
        <time>2016-01-23T10:47:57Z</time>
      </trkpt>
      <trkpt lat="60.453777582127" lon="22.275898456299">
        <ele>5.2</ele>
        <time>2016-01-23T10:47:58Z</time>
      </trkpt>
      <trkpt lat="60.453778085041" lon="22.275895690272">
        <ele>5.2</ele>
        <time>2016-01-23T10:47:59Z</time>
      </trkpt>
      <trkpt lat="60.453778587955" lon="22.275893846254">
        <ele>5.2</ele>
        <time>2016-01-23T10:48:00Z</time>
      </trkpt>
      <trkpt lat="60.45377900705" lon="22.275892169874">
        <ele>5.2</ele>
        <time>2016-01-23T10:48:01Z</time>
      </trkpt>
      <trkpt lat="60.453779509964" lon="22.275890744951">
        <ele>5.2</ele>
        <time>2016-01-23T10:48:02Z</time>
      </trkpt>
      <trkpt lat="60.453780096697" lon="22.275889320028">
        <ele>5.2</ele>
        <time>2016-01-23T10:48:03Z</time>
      </trkpt>
      <trkpt lat="60.453780767249" lon="22.275888146562">
        <ele>5.2</ele>
        <time>2016-01-23T10:48:04Z</time>
      </trkpt>
      <trkpt lat="60.453781605439" lon="22.275886721639">
        <ele>5.2</ele>
        <time>2016-01-23T10:48:05Z</time>
      </trkpt>
      <trkpt lat="60.453782443629" lon="22.27588579963">
        <ele>5.2</ele>
        <time>2016-01-23T10:48:06Z</time>
      </trkpt>
      <trkpt lat="60.453783449457" lon="22.27588496144">
        <ele>5.2</ele>
        <time>2016-01-23T10:48:07Z</time>
      </trkpt>
      <trkpt lat="60.453784622923" lon="22.275884039431">
        <ele>5.2</ele>
        <time>2016-01-23T10:48:08Z</time>
      </trkpt>
      <trkpt lat="60.453785796389" lon="22.275883033603">
        <ele>5.2</ele>
        <time>2016-01-23T10:48:09Z</time>
      </trkpt>
      <trkpt lat="60.453786718398" lon="22.275881524861">
        <ele>5.2</ele>
        <time>2016-01-23T10:48:10Z</time>
      </trkpt>
      <trkpt lat="60.453787472769" lon="22.275880351395">
        <ele>5.2</ele>
        <time>2016-01-23T10:48:11Z</time>
      </trkpt>
      <trkpt lat="60.453788143321" lon="22.275879513205">
        <ele>5.2</ele>
        <time>2016-01-23T10:48:12Z</time>
      </trkpt>
      <trkpt lat="60.453788813873" lon="22.275878758834">
        <ele>5.2</ele>
        <time>2016-01-23T10:48:13Z</time>
      </trkpt>
      <trkpt lat="60.453789568244" lon="22.27587825592">
        <ele>5.2</ele>
        <time>2016-01-23T10:48:14Z</time>
      </trkpt>
      <trkpt lat="60.453790322615" lon="22.275878423558">
        <ele>5.2</ele>
        <time>2016-01-23T10:48:15Z</time>
      </trkpt>
      <trkpt lat="60.453790574072" lon="22.275879010291">
        <ele>5.2</ele>
        <time>2016-01-23T10:48:16Z</time>
      </trkpt>
      <trkpt lat="60.453790909348" lon="22.275879597024">
        <ele>5.2</ele>
        <time>2016-01-23T10:48:17Z</time>
      </trkpt>
      <trkpt lat="60.453791160805" lon="22.275880602852">
        <ele>5.2</ele>
        <time>2016-01-23T10:48:18Z</time>
      </trkpt>
      <trkpt lat="60.453791244624" lon="22.275881357223">
        <ele>5.2</ele>
        <time>2016-01-23T10:48:19Z</time>
      </trkpt>
      <trkpt lat="60.4537915799" lon="22.275881441042">
        <ele>5.2</ele>
        <time>2016-01-23T10:48:20Z</time>
      </trkpt>
      <trkpt lat="60.453791496081" lon="22.275881105766">
        <ele>5.2</ele>
        <time>2016-01-23T10:48:21Z</time>
      </trkpt>
      <trkpt lat="60.453791663719" lon="22.275881105766">
        <ele>5.2</ele>
        <time>2016-01-23T10:48:22Z</time>
      </trkpt>
      <trkpt lat="60.453792250452" lon="22.275881189585">
        <ele>5.2</ele>
        <time>2016-01-23T10:48:23Z</time>
      </trkpt>
      <trkpt lat="60.453792585728" lon="22.275883620336">
        <ele>5.2</ele>
        <time>2016-01-23T10:48:24Z</time>
      </trkpt>
      <trkpt lat="60.453793423918" lon="22.27588412325">
        <ele>5.2</ele>
        <time>2016-01-23T10:48:25Z</time>
      </trkpt>
      <trkpt lat="60.453795100298" lon="22.275883536517">
        <ele>5.2</ele>
        <time>2016-01-23T10:48:26Z</time>
      </trkpt>
      <trkpt lat="60.45379660904" lon="22.275883201241">
        <ele>5.2</ele>
        <time>2016-01-23T10:48:27Z</time>
      </trkpt>
      <trkpt lat="60.453798117782" lon="22.275881860137">
        <ele>5.2</ele>
        <time>2016-01-23T10:48:28Z</time>
      </trkpt>
      <trkpt lat="60.453799542705" lon="22.275881524861">
        <ele>5.2</ele>
        <time>2016-01-23T10:48:29Z</time>
      </trkpt>
      <trkpt lat="60.453800967628" lon="22.275882614508">
        <ele>5.2</ele>
        <time>2016-01-23T10:48:30Z</time>
      </trkpt>
      <trkpt lat="60.453802308732" lon="22.275883536517">
        <ele>5.2</ele>
        <time>2016-01-23T10:48:31Z</time>
      </trkpt>
      <trkpt lat="60.453803482198" lon="22.275883452698">
        <ele>5.2</ele>
        <time>2016-01-23T10:48:32Z</time>
      </trkpt>
      <trkpt lat="60.453804907121" lon="22.275884039431">
        <ele>5.2</ele>
        <time>2016-01-23T10:48:33Z</time>
      </trkpt>
      <trkpt lat="60.453806751139" lon="22.275885631992">
        <ele>5.2</ele>
        <time>2016-01-23T10:48:34Z</time>
      </trkpt>
      <trkpt lat="60.453807170234" lon="22.275886134906">
        <ele>5.2</ele>
        <time>2016-01-23T10:48:35Z</time>
      </trkpt>
      <trkpt lat="60.453807421691" lon="22.275886721639">
        <ele>5.2</ele>
        <time>2016-01-23T10:48:36Z</time>
      </trkpt>
      <trkpt lat="60.453808092243" lon="22.275887308372">
        <ele>5.2</ele>
        <time>2016-01-23T10:48:37Z</time>
      </trkpt>
      <trkpt lat="60.453808595157" lon="22.275883704155">
        <ele>5.2</ele>
        <time>2016-01-23T10:48:38Z</time>
      </trkpt>
      <trkpt lat="60.453808595157" lon="22.275881692499">
        <ele>5.2</ele>
        <time>2016-01-23T10:48:39Z</time>
      </trkpt>
      <trkpt lat="60.453810187718" lon="22.275885129078">
        <ele>5.2</ele>
        <time>2016-01-23T10:48:40Z</time>
      </trkpt>
      <trkpt lat="60.453810355356" lon="22.275887140734">
        <ele>5.2</ele>
        <time>2016-01-23T10:48:41Z</time>
      </trkpt>
      <trkpt lat="60.453810774451" lon="22.275887224553">
        <ele>5.2</ele>
        <time>2016-01-23T10:48:42Z</time>
      </trkpt>
      <trkpt lat="60.453811445003" lon="22.275884458526">
        <ele>5.2</ele>
        <time>2016-01-23T10:48:43Z</time>
      </trkpt>
      <trkpt lat="60.453810774451" lon="22.275882949784">
        <ele>5.2</ele>
        <time>2016-01-23T10:48:44Z</time>
      </trkpt>
      <trkpt lat="60.453810103899" lon="22.275884458526">
        <ele>5.2</ele>
        <time>2016-01-23T10:48:45Z</time>
      </trkpt>
      <trkpt lat="60.453810355356" lon="22.27588496144">
        <ele>5.2</ele>
        <time>2016-01-23T10:48:46Z</time>
      </trkpt>
      <trkpt lat="60.453809852442" lon="22.275884626164">
        <ele>5.2</ele>
        <time>2016-01-23T10:48:47Z</time>
      </trkpt>
      <trkpt lat="60.453809852442" lon="22.275883201241">
        <ele>5.2</ele>
        <time>2016-01-23T10:48:48Z</time>
      </trkpt>
      <trkpt lat="60.453810522994" lon="22.275880938128">
        <ele>5.2</ele>
        <time>2016-01-23T10:48:49Z</time>
      </trkpt>
      <trkpt lat="60.453811612641" lon="22.27588244687">
        <ele>5.2</ele>
        <time>2016-01-23T10:48:50Z</time>
      </trkpt>
      <trkpt lat="60.453812702288" lon="22.275884542345">
        <ele>5.2</ele>
        <time>2016-01-23T10:48:51Z</time>
      </trkpt>
      <trkpt lat="60.453812618469" lon="22.275886470182">
        <ele>5.2</ele>
        <time>2016-01-23T10:48:52Z</time>
      </trkpt>
      <trkpt lat="60.453812115555" lon="22.275888062743">
        <ele>5.2</ele>
        <time>2016-01-23T10:48:53Z</time>
      </trkpt>
      <trkpt lat="60.453812786107" lon="22.275886889277">
        <ele>5.2</ele>
        <time>2016-01-23T10:48:54Z</time>
      </trkpt>
      <trkpt lat="60.453812450831" lon="22.27588579963">
        <ele>5.2</ele>
        <time>2016-01-23T10:48:55Z</time>
      </trkpt>
      <trkpt lat="60.453811947917" lon="22.275883787974">
        <ele>5.2</ele>
        <time>2016-01-23T10:48:56Z</time>
      </trkpt>
      <trkpt lat="60.453811277365" lon="22.275882027775">
        <ele>5.2</ele>
        <time>2016-01-23T10:48:57Z</time>
      </trkpt>
      <trkpt lat="60.453810690632" lon="22.275880351395">
        <ele>5.2</ele>
        <time>2016-01-23T10:48:58Z</time>
      </trkpt>
      <trkpt lat="60.453811193546" lon="22.275880351395">
        <ele>5.2</ele>
        <time>2016-01-23T10:48:59Z</time>
      </trkpt>
      <trkpt lat="60.453811361184" lon="22.27588077049">
        <ele>5.2</ele>
        <time>2016-01-23T10:49:00Z</time>
      </trkpt>
      <trkpt lat="60.453811361184" lon="22.275880016119">
        <ele>5.2</ele>
        <time>2016-01-23T10:49:01Z</time>
      </trkpt>
      <trkpt lat="60.453810774451" lon="22.275880351395">
        <ele>5.2</ele>
        <time>2016-01-23T10:49:02Z</time>
      </trkpt>
      <trkpt lat="60.453810942089" lon="22.275878507377">
        <ele>5.2</ele>
        <time>2016-01-23T10:49:03Z</time>
      </trkpt>
      <trkpt lat="60.453816138867" lon="22.275880435214">
        <ele>5.2</ele>
        <time>2016-01-23T10:49:04Z</time>
      </trkpt>
      <trkpt lat="60.453816893238" lon="22.275888733295">
        <ele>5.2</ele>
        <time>2016-01-23T10:49:05Z</time>
      </trkpt>
      <trkpt lat="60.453830220459" lon="22.27589585791">
        <ele>5.2</ele>
        <time>2016-01-23T10:49:06Z</time>
      </trkpt>
      <trkpt lat="60.453843463861" lon="22.275900719412">
        <ele>5.2</ele>
        <time>2016-01-23T10:49:07Z</time>
      </trkpt>
      <trkpt lat="60.453870705036" lon="22.275916561203">
        <ele>5.2</ele>
        <time>2016-01-23T10:49:08Z</time>
      </trkpt>
      <trkpt lat="60.453898197668" lon="22.275933827917">
        <ele>5.2</ele>
        <time>2016-01-23T10:49:09Z</time>
      </trkpt>
      <trkpt lat="60.453920158246" lon="22.275933073546">
        <ele>5.2</ele>
        <time>2016-01-23T10:49:10Z</time>
      </trkpt>
      <trkpt lat="60.453935245666" lon="22.275941623084">
        <ele>5.2</ele>
        <time>2016-01-23T10:49:11Z</time>
      </trkpt>
      <trkpt lat="60.453968186533" lon="22.275966684965">
        <ele>5.2</ele>
        <time>2016-01-23T10:49:12Z</time>
      </trkpt>
      <trkpt lat="60.453995176251" lon="22.27598470605">
        <ele>5.2</ele>
        <time>2016-01-23T10:49:13Z</time>
      </trkpt>
      <trkpt lat="60.45401286206" lon="22.276005828438">
        <ele>5.2</ele>
        <time>2016-01-23T10:49:14Z</time>
      </trkpt>
      <trkpt lat="60.4540262731" lon="22.276019742392">
        <ele>5.2</ele>
        <time>2016-01-23T10:49:15Z</time>
      </trkpt>
      <trkpt lat="60.454035241733" lon="22.276015886718">
        <ele>5.2</ele>
        <time>2016-01-23T10:49:16Z</time>
      </trkpt>
      <trkpt lat="60.454036582837" lon="22.276015886718">
        <ele>5.2</ele>
        <time>2016-01-23T10:49:17Z</time>
      </trkpt>
      <trkpt lat="60.454047311669" lon="22.276015551442">
        <ele>5.2</ele>
        <time>2016-01-23T10:49:18Z</time>
      </trkpt>
      <trkpt lat="60.45405560975" lon="22.276013875062">
        <ele>5.2</ele>
        <time>2016-01-23T10:49:19Z</time>
      </trkpt>
      <trkpt lat="60.454065584211" lon="22.27601739546">
        <ele>5.2</ele>
        <time>2016-01-23T10:49:20Z</time>
      </trkpt>
      <trkpt lat="60.454070278075" lon="22.276018485107">
        <ele>5.2</ele>
        <time>2016-01-23T10:49:21Z</time>
      </trkpt>
      <trkpt lat="60.454078408518" lon="22.276025022989">
        <ele>5.2</ele>
        <time>2016-01-23T10:49:22Z</time>
      </trkpt>
      <trkpt lat="60.454087377151" lon="22.276030387405">
        <ele>5.2</ele>
        <time>2016-01-23T10:49:23Z</time>
      </trkpt>
      <trkpt lat="60.454096513422" lon="22.276038936943">
        <ele>5.2</ele>
        <time>2016-01-23T10:49:24Z</time>
      </trkpt>
      <trkpt lat="60.454105733512" lon="22.276041535332">
        <ele>5.2</ele>
        <time>2016-01-23T10:49:25Z</time>
      </trkpt>
      <trkpt lat="60.45411176848" lon="22.276043295531">
        <ele>5.2</ele>
        <time>2016-01-23T10:49:26Z</time>
      </trkpt>
      <trkpt lat="60.454115624154" lon="22.276048492309">
        <ele>5.2</ele>
        <time>2016-01-23T10:49:27Z</time>
      </trkpt>
      <trkpt lat="60.454116965258" lon="22.276056119838">
        <ele>5.2</ele>
        <time>2016-01-23T10:49:28Z</time>
      </trkpt>
      <trkpt lat="60.454115875611" lon="22.276050755422">
        <ele>5.2</ele>
        <time>2016-01-23T10:49:29Z</time>
      </trkpt>
      <trkpt lat="60.454120904751" lon="22.2760559522">
        <ele>5.2</ele>
        <time>2016-01-23T10:49:30Z</time>
      </trkpt>
      <trkpt lat="60.454127610271" lon="22.276056706571">
        <ele>5.2</ele>
        <time>2016-01-23T10:49:31Z</time>
      </trkpt>
      <trkpt lat="60.45413104685" lon="22.276059724055">
        <ele>5.2</ele>
        <time>2016-01-23T10:49:32Z</time>
      </trkpt>
      <trkpt lat="60.454137417094" lon="22.276061400435">
        <ele>5.2</ele>
        <time>2016-01-23T10:49:33Z</time>
      </trkpt>
      <trkpt lat="60.454141608044" lon="22.276065256109">
        <ele>5.2</ele>
        <time>2016-01-23T10:49:34Z</time>
      </trkpt>
      <trkpt lat="60.454146553365" lon="22.276065339928">
        <ele>5.2</ele>
        <time>2016-01-23T10:49:35Z</time>
      </trkpt>
      <trkpt lat="60.454152755971" lon="22.276068189774">
        <ele>5.2</ele>
        <time>2016-01-23T10:49:36Z</time>
      </trkpt>
      <trkpt lat="60.454160718776" lon="22.276068441231">
        <ele>5.2</ele>
        <time>2016-01-23T10:49:37Z</time>
      </trkpt>
      <trkpt lat="60.454172621074" lon="22.276077158407">
        <ele>5.2</ele>
        <time>2016-01-23T10:49:38Z</time>
      </trkpt>
      <trkpt lat="60.454191647987" lon="22.276091491456">
        <ele>5.2</ele>
        <time>2016-01-23T10:49:39Z</time>
      </trkpt>
      <trkpt lat="60.45420564576" lon="22.276100040994">
        <ele>5.2</ele>
        <time>2016-01-23T10:49:40Z</time>
      </trkpt>
      <trkpt lat="60.454214111479" lon="22.276107417066">
        <ele>5.2</ele>
        <time>2016-01-23T10:49:41Z</time>
      </trkpt>
      <trkpt lat="60.454237161704" lon="22.276125941065">
        <ele>5.2</ele>
        <time>2016-01-23T10:49:42Z</time>
      </trkpt>
      <trkpt lat="60.454248896364" lon="22.276135915526">
        <ele>5.2</ele>
        <time>2016-01-23T10:49:43Z</time>
      </trkpt>
      <trkpt lat="60.454265492526" lon="22.27614563853">
        <ele>5.2</ele>
        <time>2016-01-23T10:49:44Z</time>
      </trkpt>
      <trkpt lat="60.454280579946" lon="22.276156870276">
        <ele>5.2</ele>
        <time>2016-01-23T10:49:45Z</time>
      </trkpt>
      <trkpt lat="60.454302121429" lon="22.276173131162">
        <ele>5.2</ele>
        <time>2016-01-23T10:49:46Z</time>
      </trkpt>
      <trkpt lat="60.454309497501" lon="22.276171035687">
        <ele>5.2</ele>
        <time>2016-01-23T10:49:47Z</time>
      </trkpt>
      <trkpt lat="60.454337157771" lon="22.276191906618">
        <ele>5.2</ele>
        <time>2016-01-23T10:49:48Z</time>
      </trkpt>
      <trkpt lat="60.454357777245" lon="22.27620179726">
        <ele>5.2</ele>
        <time>2016-01-23T10:49:49Z</time>
      </trkpt>
      <trkpt lat="60.454369511905" lon="22.276211352626">
        <ele>5.2</ele>
        <time>2016-01-23T10:49:50Z</time>
      </trkpt>
      <trkpt lat="60.454384431687" lon="22.276225685675">
        <ele>5.2</ele>
        <time>2016-01-23T10:49:51Z</time>
      </trkpt>
      <trkpt lat="60.454396417804" lon="22.276232391195">
        <ele>5.2</ele>
        <time>2016-01-23T10:49:52Z</time>
      </trkpt>
      <trkpt lat="60.454405386437" lon="22.276233229385">
        <ele>5.2</ele>
        <time>2016-01-23T10:49:53Z</time>
      </trkpt>
      <trkpt lat="60.454409996482" lon="22.276236665964">
        <ele>5.2</ele>
        <time>2016-01-23T10:49:54Z</time>
      </trkpt>
      <trkpt lat="60.45440681136" lon="22.276234402851">
        <ele>5.2</ele>
        <time>2016-01-23T10:49:55Z</time>
      </trkpt>
      <trkpt lat="60.454409493568" lon="22.276236330688">
        <ele>5.2</ele>
        <time>2016-01-23T10:49:56Z</time>
      </trkpt>
      <trkpt lat="60.45441016412" lon="22.276239012896">
        <ele>5.2</ele>
        <time>2016-01-23T10:49:57Z</time>
      </trkpt>
      <trkpt lat="60.454411672862" lon="22.276242449475">
        <ele>5.2</ele>
        <time>2016-01-23T10:49:58Z</time>
      </trkpt>
      <trkpt lat="60.454412008138" lon="22.276243958217">
        <ele>5.2</ele>
        <time>2016-01-23T10:49:59Z</time>
      </trkpt>
      <trkpt lat="60.454412259595" lon="22.27624454495">
        <ele>5.2</ele>
        <time>2016-01-23T10:50:00Z</time>
      </trkpt>
      <trkpt lat="60.454413013966" lon="22.276245634597">
        <ele>5.2</ele>
        <time>2016-01-23T10:50:01Z</time>
      </trkpt>
      <trkpt lat="60.454413768337" lon="22.276246891882">
        <ele>5.2</ele>
        <time>2016-01-23T10:50:02Z</time>
      </trkpt>
      <trkpt lat="60.454414606527" lon="22.276245718416">
        <ele>5.2</ele>
        <time>2016-01-23T10:50:03Z</time>
      </trkpt>
      <trkpt lat="60.454415612355" lon="22.276244712588">
        <ele>5.2</ele>
        <time>2016-01-23T10:50:04Z</time>
      </trkpt>
      <trkpt lat="60.45441686964" lon="22.27624622133">
        <ele>5.2</ele>
        <time>2016-01-23T10:50:05Z</time>
      </trkpt>
      <trkpt lat="60.454417121097" lon="22.276246388968">
        <ele>5.2</ele>
        <time>2016-01-23T10:50:06Z</time>
      </trkpt>
      <trkpt lat="60.45441686964" lon="22.276245969873">
        <ele>5.2</ele>
        <time>2016-01-23T10:50:07Z</time>
      </trkpt>
      <trkpt lat="60.454417121097" lon="22.276246388968">
        <ele>5.2</ele>
        <time>2016-01-23T10:50:08Z</time>
      </trkpt>
      <trkpt lat="60.454418881296" lon="22.276247730072">
        <ele>5.2</ele>
        <time>2016-01-23T10:50:09Z</time>
      </trkpt>
      <trkpt lat="60.454420054762" lon="22.276248316805">
        <ele>5.2</ele>
        <time>2016-01-23T10:50:10Z</time>
      </trkpt>
      <trkpt lat="60.454420892952" lon="22.276249154995">
        <ele>5.2</ele>
        <time>2016-01-23T10:50:11Z</time>
      </trkpt>
      <trkpt lat="60.454422066418" lon="22.27625041228">
        <ele>5.2</ele>
        <time>2016-01-23T10:50:12Z</time>
      </trkpt>
      <trkpt lat="60.454422820789" lon="22.276251921022">
        <ele>5.2</ele>
        <time>2016-01-23T10:50:13Z</time>
      </trkpt>
      <trkpt lat="60.45442357516" lon="22.276254267954">
        <ele>5.2</ele>
        <time>2016-01-23T10:50:14Z</time>
      </trkpt>
      <trkpt lat="60.454423994255" lon="22.276255357601">
        <ele>5.2</ele>
        <time>2016-01-23T10:50:15Z</time>
      </trkpt>
      <trkpt lat="60.454424497169" lon="22.276255860515">
        <ele>5.2</ele>
        <time>2016-01-23T10:50:16Z</time>
      </trkpt>
      <trkpt lat="60.454425000083" lon="22.276256447248">
        <ele>5.2</ele>
        <time>2016-01-23T10:50:17Z</time>
      </trkpt>
      <trkpt lat="60.454425419178" lon="22.276256111972">
        <ele>5.2</ele>
        <time>2016-01-23T10:50:18Z</time>
      </trkpt>
      <trkpt lat="60.454426173549" lon="22.276256363429">
        <ele>5.2</ele>
        <time>2016-01-23T10:50:19Z</time>
      </trkpt>
      <trkpt lat="60.454423156065" lon="22.276263571863">
        <ele>5.2</ele>
        <time>2016-01-23T10:50:20Z</time>
      </trkpt>
      <trkpt lat="60.454425586816" lon="22.276259129456">
        <ele>5.2</ele>
        <time>2016-01-23T10:50:21Z</time>
      </trkpt>
      <trkpt lat="60.454418713658" lon="22.276266840804">
        <ele>5.2</ele>
        <time>2016-01-23T10:50:22Z</time>
      </trkpt>
      <trkpt lat="60.454420976771" lon="22.276262398397">
        <ele>5.2</ele>
        <time>2016-01-23T10:50:23Z</time>
      </trkpt>
      <trkpt lat="60.454418965115" lon="22.276264242415">
        <ele>5.2</ele>
        <time>2016-01-23T10:50:24Z</time>
      </trkpt>
      <trkpt lat="60.454418043106" lon="22.276263990958">
        <ele>5.2</ele>
        <time>2016-01-23T10:50:25Z</time>
      </trkpt>
      <trkpt lat="60.454416366726" lon="22.276265164424">
        <ele>5.2</ele>
        <time>2016-01-23T10:50:26Z</time>
      </trkpt>
      <trkpt lat="60.454414271251" lon="22.276264158596">
        <ele>5.2</ele>
        <time>2016-01-23T10:50:27Z</time>
      </trkpt>
      <trkpt lat="60.454412343414" lon="22.276262649854">
        <ele>5.2</ele>
        <time>2016-01-23T10:50:28Z</time>
      </trkpt>
      <trkpt lat="60.454412343414" lon="22.276263236587">
        <ele>5.2</ele>
        <time>2016-01-23T10:50:29Z</time>
      </trkpt>
      <trkpt lat="60.454413684518" lon="22.276262063121">
        <ele>5.2</ele>
        <time>2016-01-23T10:50:30Z</time>
      </trkpt>
      <trkpt lat="60.454413768337" lon="22.27626130875">
        <ele>5.2</ele>
        <time>2016-01-23T10:50:31Z</time>
      </trkpt>
      <trkpt lat="60.454414271251" lon="22.276260219103">
        <ele>5.2</ele>
        <time>2016-01-23T10:50:32Z</time>
      </trkpt>
      <trkpt lat="60.454415444717" lon="22.276259548551">
        <ele>5.2</ele>
        <time>2016-01-23T10:50:33Z</time>
      </trkpt>
      <trkpt lat="60.454418210744" lon="22.276260554379">
        <ele>5.2</ele>
        <time>2016-01-23T10:50:34Z</time>
      </trkpt>
      <trkpt lat="60.454425167721" lon="22.276266589347">
        <ele>5.2</ele>
        <time>2016-01-23T10:50:35Z</time>
      </trkpt>
      <trkpt lat="60.454422066418" lon="22.276263655682">
        <ele>5.2</ele>
        <time>2016-01-23T10:50:36Z</time>
      </trkpt>
      <trkpt lat="60.454427598472" lon="22.276266002614">
        <ele>5.2</ele>
        <time>2016-01-23T10:50:37Z</time>
      </trkpt>
      <trkpt lat="60.454429358671" lon="22.276266589347">
        <ele>5.2</ele>
        <time>2016-01-23T10:50:38Z</time>
      </trkpt>
      <trkpt lat="60.454429945404" lon="22.276266254071">
        <ele>5.2</ele>
        <time>2016-01-23T10:50:39Z</time>
      </trkpt>
      <trkpt lat="60.454430699775" lon="22.276266421709">
        <ele>5.2</ele>
        <time>2016-01-23T10:50:40Z</time>
      </trkpt>
      <trkpt lat="60.454432124698" lon="22.276267259899">
        <ele>5.2</ele>
        <time>2016-01-23T10:50:41Z</time>
      </trkpt>
      <trkpt lat="60.454433549621" lon="22.276268265727">
        <ele>5.2</ele>
        <time>2016-01-23T10:50:42Z</time>
      </trkpt>
      <trkpt lat="60.454435393639" lon="22.276268098089">
        <ele>5.2</ele>
        <time>2016-01-23T10:50:43Z</time>
      </trkpt>
      <trkpt lat="60.454441009512" lon="22.276270947935">
        <ele>5.2</ele>
        <time>2016-01-23T10:50:44Z</time>
      </trkpt>
      <trkpt lat="60.454445200462" lon="22.276270109745">
        <ele>5.2</ele>
        <time>2016-01-23T10:50:45Z</time>
      </trkpt>
      <trkpt lat="60.454452408896" lon="22.276281257672">
        <ele>5.2</ele>
        <time>2016-01-23T10:50:46Z</time>
      </trkpt>
      <trkpt lat="60.45445794095" lon="22.27627891074">
        <ele>5.2</ele>
        <time>2016-01-23T10:50:47Z</time>
      </trkpt>
      <trkpt lat="60.454465903755" lon="22.276288717563">
        <ele>5.2</ele>
        <time>2016-01-23T10:50:48Z</time>
      </trkpt>
      <trkpt lat="60.454472106361" lon="22.27628813083">
        <ele>5.2</ele>
        <time>2016-01-23T10:50:49Z</time>
      </trkpt>
      <trkpt lat="60.454484008659" lon="22.276298775843">
        <ele>5.2</ele>
        <time>2016-01-23T10:50:50Z</time>
      </trkpt>
      <trkpt lat="60.454490965636" lon="22.27630238006">
        <ele>5.2</ele>
        <time>2016-01-23T10:50:51Z</time>
      </trkpt>
      <trkpt lat="60.45450152683" lon="22.276306403372">
        <ele>5.2</ele>
        <time>2016-01-23T10:50:52Z</time>
      </trkpt>
      <trkpt lat="60.454512507119" lon="22.27631327653">
        <ele>5.2</ele>
        <time>2016-01-23T10:50:53Z</time>
      </trkpt>
      <trkpt lat="60.454518877363" lon="22.276315539643">
        <ele>5.2</ele>
        <time>2016-01-23T10:50:54Z</time>
      </trkpt>
      <trkpt lat="60.454535641163" lon="22.276329285959">
        <ele>5.2</ele>
        <time>2016-01-23T10:50:55Z</time>
      </trkpt>
      <trkpt lat="60.45454259814" lon="22.276333057814">
        <ele>5.2</ele>
        <time>2016-01-23T10:50:56Z</time>
      </trkpt>
      <trkpt lat="60.454551734411" lon="22.276336829669">
        <ele>5.2</ele>
        <time>2016-01-23T10:50:57Z</time>
      </trkpt>
      <trkpt lat="60.454560116311" lon="22.276342948456">
        <ele>5.2</ele>
        <time>2016-01-23T10:50:58Z</time>
      </trkpt>
      <trkpt lat="60.454565983641" lon="22.276344624836">
        <ele>5.2</ele>
        <time>2016-01-23T10:50:59Z</time>
      </trkpt>
      <trkpt lat="60.454561625053" lon="22.276342026447">
        <ele>5.2</ele>
        <time>2016-01-23T10:51:00Z</time>
      </trkpt>
      <trkpt lat="60.454568749668" lon="22.276345463026">
        <ele>5.2</ele>
        <time>2016-01-23T10:51:01Z</time>
      </trkpt>
      <trkpt lat="60.454570342229" lon="22.276345295388">
        <ele>5.2</ele>
        <time>2016-01-23T10:51:02Z</time>
      </trkpt>
      <trkpt lat="60.454571599514" lon="22.276345630664">
        <ele>5.2</ele>
        <time>2016-01-23T10:51:03Z</time>
      </trkpt>
      <trkpt lat="60.454572605342" lon="22.276346217397">
        <ele>5.2</ele>
        <time>2016-01-23T10:51:04Z</time>
      </trkpt>
      <trkpt lat="60.45457444936" lon="22.276346636492">
        <ele>5.2</ele>
        <time>2016-01-23T10:51:05Z</time>
      </trkpt>
      <trkpt lat="60.454577550663" lon="22.27634680413">
        <ele>5.2</ele>
        <time>2016-01-23T10:51:06Z</time>
      </trkpt>
      <trkpt lat="60.454579394681" lon="22.276347055587">
        <ele>5.2</ele>
        <time>2016-01-23T10:51:07Z</time>
      </trkpt>
      <trkpt lat="60.454579394681" lon="22.276345630664">
        <ele>5.2</ele>
        <time>2016-01-23T10:51:08Z</time>
      </trkpt>
      <trkpt lat="60.454579310862" lon="22.276343535189">
        <ele>5.2</ele>
        <time>2016-01-23T10:51:09Z</time>
      </trkpt>
      <trkpt lat="60.454579897595" lon="22.276344121922">
        <ele>5.2</ele>
        <time>2016-01-23T10:51:10Z</time>
      </trkpt>
      <trkpt lat="60.454580149052" lon="22.276344624836">
        <ele>4.8</ele>
        <time>2016-01-23T10:51:11Z</time>
      </trkpt>
      <trkpt lat="60.454579897595" lon="22.276343619008">
        <ele>5</ele>
        <time>2016-01-23T10:51:12Z</time>
      </trkpt>
      <trkpt lat="60.454579310862" lon="22.276342696999">
        <ele>5.6</ele>
        <time>2016-01-23T10:51:13Z</time>
      </trkpt>
      <trkpt lat="60.454579310862" lon="22.276342194085">
        <ele>5.4</ele>
        <time>2016-01-23T10:51:14Z</time>
      </trkpt>
      <trkpt lat="60.454580568147" lon="22.276342864637">
        <ele>5.4</ele>
        <time>2016-01-23T10:51:15Z</time>
      </trkpt>
      <trkpt lat="60.454581490156" lon="22.276343116094">
        <ele>5.2</ele>
        <time>2016-01-23T10:51:16Z</time>
      </trkpt>
      <trkpt lat="60.454582244527" lon="22.276344457198">
        <ele>5</ele>
        <time>2016-01-23T10:51:17Z</time>
      </trkpt>
      <trkpt lat="60.454583585631" lon="22.276346887949">
        <ele>5</ele>
        <time>2016-01-23T10:51:18Z</time>
      </trkpt>
      <trkpt lat="60.45458450764" lon="22.276347307044">
        <ele>5</ele>
        <time>2016-01-23T10:51:19Z</time>
      </trkpt>
      <trkpt lat="60.454586100201" lon="22.276346468854">
        <ele>5</ele>
        <time>2016-01-23T10:51:20Z</time>
      </trkpt>
      <trkpt lat="60.454588195676" lon="22.276346049759">
        <ele>5</ele>
        <time>2016-01-23T10:51:21Z</time>
      </trkpt>
      <trkpt lat="60.454590123513" lon="22.276347809958">
        <ele>5</ele>
        <time>2016-01-23T10:51:22Z</time>
      </trkpt>
      <trkpt lat="60.45459205135" lon="22.276349570157">
        <ele>5</ele>
        <time>2016-01-23T10:51:23Z</time>
      </trkpt>
      <trkpt lat="60.454594398282" lon="22.276348899605">
        <ele>5</ele>
        <time>2016-01-23T10:51:24Z</time>
      </trkpt>
      <trkpt lat="60.454596661395" lon="22.276348312872">
        <ele>5</ele>
        <time>2016-01-23T10:51:25Z</time>
      </trkpt>
      <trkpt lat="60.454598505413" lon="22.276348731967">
        <ele>5</ele>
        <time>2016-01-23T10:51:26Z</time>
      </trkpt>
      <trkpt lat="60.454600852345" lon="22.276349570157">
        <ele>5</ele>
        <time>2016-01-23T10:51:27Z</time>
      </trkpt>
      <trkpt lat="60.454602612544" lon="22.276351162718">
        <ele>5</ele>
        <time>2016-01-23T10:51:28Z</time>
      </trkpt>
      <trkpt lat="60.454604121286" lon="22.276353342012">
        <ele>5</ele>
        <time>2016-01-23T10:51:29Z</time>
      </trkpt>
      <trkpt lat="60.454606552037" lon="22.276355269849">
        <ele>5</ele>
        <time>2016-01-23T10:51:30Z</time>
      </trkpt>
      <trkpt lat="60.45460965334" lon="22.276356443315">
        <ele>5</ele>
        <time>2016-01-23T10:51:31Z</time>
      </trkpt>
      <trkpt lat="60.454612754643" lon="22.276357197686">
        <ele>5</ele>
        <time>2016-01-23T10:51:32Z</time>
      </trkpt>
      <trkpt lat="60.454614179566" lon="22.276357365324">
        <ele>5</ele>
        <time>2016-01-23T10:51:33Z</time>
      </trkpt>
      <trkpt lat="60.454614598661" lon="22.276356610953">
        <ele>5</ele>
        <time>2016-01-23T10:51:34Z</time>
      </trkpt>
      <trkpt lat="60.454615185394" lon="22.276355521306">
        <ele>5</ele>
        <time>2016-01-23T10:51:35Z</time>
      </trkpt>
      <trkpt lat="60.454615855946" lon="22.276354766935">
        <ele>5</ele>
        <time>2016-01-23T10:51:36Z</time>
      </trkpt>
      <trkpt lat="60.454617616145" lon="22.276354012564">
        <ele>5</ele>
        <time>2016-01-23T10:51:37Z</time>
      </trkpt>
      <trkpt lat="60.45461971162" lon="22.276354012564">
        <ele>5</ele>
        <time>2016-01-23T10:51:38Z</time>
      </trkpt>
      <trkpt lat="60.454621890914" lon="22.276350659804">
        <ele>5</ele>
        <time>2016-01-23T10:51:39Z</time>
      </trkpt>
      <trkpt lat="60.454624908398" lon="22.276347223225">
        <ele>5</ele>
        <time>2016-01-23T10:51:40Z</time>
      </trkpt>
      <trkpt lat="60.454630105176" lon="22.276356527134">
        <ele>5</ele>
        <time>2016-01-23T10:51:41Z</time>
      </trkpt>
      <trkpt lat="60.454635385773" lon="22.276358706428">
        <ele>5</ele>
        <time>2016-01-23T10:51:42Z</time>
      </trkpt>
      <trkpt lat="60.454642258931" lon="22.276364238482">
        <ele>5</ele>
        <time>2016-01-23T10:51:43Z</time>
      </trkpt>
      <trkpt lat="60.454647958623" lon="22.276365411948">
        <ele>5</ele>
        <time>2016-01-23T10:51:44Z</time>
      </trkpt>
      <trkpt lat="60.454643767673" lon="22.276363316473">
        <ele>5</ele>
        <time>2016-01-23T10:51:45Z</time>
      </trkpt>
      <trkpt lat="60.454651059926" lon="22.276365998681">
        <ele>5</ele>
        <time>2016-01-23T10:51:46Z</time>
      </trkpt>
      <trkpt lat="60.454651981935" lon="22.276365998681">
        <ele>5</ele>
        <time>2016-01-23T10:51:47Z</time>
      </trkpt>
      <trkpt lat="60.454653406858" lon="22.276366836871">
        <ele>5</ele>
        <time>2016-01-23T10:51:48Z</time>
      </trkpt>
      <trkpt lat="60.454655167057" lon="22.276367926518">
        <ele>5</ele>
        <time>2016-01-23T10:51:49Z</time>
      </trkpt>
      <trkpt lat="60.454657513989" lon="22.276369351441">
        <ele>5</ele>
        <time>2016-01-23T10:51:50Z</time>
      </trkpt>
      <trkpt lat="60.454657346351" lon="22.276370441088">
        <ele>5</ele>
        <time>2016-01-23T10:51:51Z</time>
      </trkpt>
      <trkpt lat="60.454656172885" lon="22.276370441088">
        <ele>5</ele>
        <time>2016-01-23T10:51:52Z</time>
      </trkpt>
      <trkpt lat="60.454656424342" lon="22.276369602898">
        <ele>5</ele>
        <time>2016-01-23T10:51:53Z</time>
      </trkpt>
      <trkpt lat="60.454657262532" lon="22.276368932346">
        <ele>5</ele>
        <time>2016-01-23T10:51:54Z</time>
      </trkpt>
      <trkpt lat="60.454658100722" lon="22.276367255966">
        <ele>5</ele>
        <time>2016-01-23T10:51:55Z</time>
      </trkpt>
      <trkpt lat="60.454657849265" lon="22.276366250138">
        <ele>5</ele>
        <time>2016-01-23T10:51:56Z</time>
      </trkpt>
      <trkpt lat="60.454657346351" lon="22.276365914862">
        <ele>5</ele>
        <time>2016-01-23T10:51:57Z</time>
      </trkpt>
      <trkpt lat="60.454656675799" lon="22.27636692069">
        <ele>5</ele>
        <time>2016-01-23T10:51:58Z</time>
      </trkpt>
      <trkpt lat="60.454656508161" lon="22.276366836871">
        <ele>5</ele>
        <time>2016-01-23T10:51:59Z</time>
      </trkpt>
      <trkpt lat="60.454657178713" lon="22.27636524431">
        <ele>5</ele>
        <time>2016-01-23T10:52:00Z</time>
      </trkpt>
      <trkpt lat="60.454657346351" lon="22.276363232654">
        <ele>5</ele>
        <time>2016-01-23T10:52:01Z</time>
      </trkpt>
      <trkpt lat="60.454657346351" lon="22.276362897378">
        <ele>5</ele>
        <time>2016-01-23T10:52:02Z</time>
      </trkpt>
      <trkpt lat="60.454657681627" lon="22.276363148835">
        <ele>5</ele>
        <time>2016-01-23T10:52:03Z</time>
      </trkpt>
      <trkpt lat="60.454657681627" lon="22.276363651749">
        <ele>5</ele>
        <time>2016-01-23T10:52:04Z</time>
      </trkpt>
      <trkpt lat="60.45465910655" lon="22.276365747224">
        <ele>5</ele>
        <time>2016-01-23T10:52:05Z</time>
      </trkpt>
      <trkpt lat="60.454660866749" lon="22.276366753052">
        <ele>5</ele>
        <time>2016-01-23T10:52:06Z</time>
      </trkpt>
      <trkpt lat="60.454661788758" lon="22.276366166319">
        <ele>5</ele>
        <time>2016-01-23T10:52:07Z</time>
      </trkpt>
      <trkpt lat="60.454663465138" lon="22.276365914862">
        <ele>5</ele>
        <time>2016-01-23T10:52:08Z</time>
      </trkpt>
      <trkpt lat="60.454665895889" lon="22.276366501595">
        <ele>5</ele>
        <time>2016-01-23T10:52:09Z</time>
      </trkpt>
      <trkpt lat="60.454671344124" lon="22.276372117468">
        <ele>5</ele>
        <time>2016-01-23T10:52:10Z</time>
      </trkpt>
      <trkpt lat="60.454668745735" lon="22.27636859707">
        <ele>5</ele>
        <time>2016-01-23T10:52:11Z</time>
      </trkpt>
      <trkpt lat="60.454674110151" lon="22.276372536563">
        <ele>5</ele>
        <time>2016-01-23T10:52:12Z</time>
      </trkpt>
      <trkpt lat="60.454675199798" lon="22.276374129124">
        <ele>5</ele>
        <time>2016-01-23T10:52:13Z</time>
      </trkpt>
      <trkpt lat="60.454674948341" lon="22.276375805504">
        <ele>5</ele>
        <time>2016-01-23T10:52:14Z</time>
      </trkpt>
      <trkpt lat="60.454674864522" lon="22.276375554047">
        <ele>5</ele>
        <time>2016-01-23T10:52:15Z</time>
      </trkpt>
      <trkpt lat="60.454675283617" lon="22.27637614078">
        <ele>5</ele>
        <time>2016-01-23T10:52:16Z</time>
      </trkpt>
      <trkpt lat="60.454675451255" lon="22.276377649522">
        <ele>5</ele>
        <time>2016-01-23T10:52:17Z</time>
      </trkpt>
      <trkpt lat="60.454675451255" lon="22.27637949354">
        <ele>5</ele>
        <time>2016-01-23T10:52:18Z</time>
      </trkpt>
      <trkpt lat="60.454681318585" lon="22.276380583187">
        <ele>5</ele>
        <time>2016-01-23T10:52:19Z</time>
      </trkpt>
      <trkpt lat="60.454686599182" lon="22.276385612327">
        <ele>5</ele>
        <time>2016-01-23T10:52:20Z</time>
      </trkpt>
      <trkpt lat="60.454682659689" lon="22.276382091929">
        <ele>5</ele>
        <time>2016-01-23T10:52:21Z</time>
      </trkpt>
      <trkpt lat="60.454688778476" lon="22.276386366698">
        <ele>5</ele>
        <time>2016-01-23T10:52:22Z</time>
      </trkpt>
      <trkpt lat="60.454689951942" lon="22.276387204888">
        <ele>5</ele>
        <time>2016-01-23T10:52:23Z</time>
      </trkpt>
      <trkpt lat="60.454691963598" lon="22.276387707802">
        <ele>5</ele>
        <time>2016-01-23T10:52:24Z</time>
      </trkpt>
      <trkpt lat="60.454701435145" lon="22.276396424978">
        <ele>5</ele>
        <time>2016-01-23T10:52:25Z</time>
      </trkpt>
      <trkpt lat="60.454705961371" lon="22.27640044829">
        <ele>5</ele>
        <time>2016-01-23T10:52:26Z</time>
      </trkpt>
      <trkpt lat="60.454715181461" lon="22.276409584561">
        <ele>5</ele>
        <time>2016-01-23T10:52:27Z</time>
      </trkpt>
      <trkpt lat="60.454730268881" lon="22.276411260941">
        <ele>5</ele>
        <time>2016-01-23T10:52:28Z</time>
      </trkpt>
      <trkpt lat="60.454753486744" lon="22.276426935094">
        <ele>5</ele>
        <time>2016-01-23T10:52:29Z</time>
      </trkpt>
      <trkpt lat="60.454771843105" lon="22.276431042225">
        <ele>5</ele>
        <time>2016-01-23T10:52:30Z</time>
      </trkpt>
      <trkpt lat="60.454795060968" lon="22.276444704722">
        <ele>5</ele>
        <time>2016-01-23T10:52:31Z</time>
      </trkpt>
      <trkpt lat="60.454818949383" lon="22.276452918984">
        <ele>5</ele>
        <time>2016-01-23T10:52:32Z</time>
      </trkpt>
      <trkpt lat="60.454835377907" lon="22.276451410242">
        <ele>5</ele>
        <time>2016-01-23T10:52:33Z</time>
      </trkpt>
      <trkpt lat="60.45486111034" lon="22.276465408015">
        <ele>5</ele>
        <time>2016-01-23T10:52:34Z</time>
      </trkpt>
      <trkpt lat="60.454875024294" lon="22.276475466295">
        <ele>5</ele>
        <time>2016-01-23T10:52:35Z</time>
      </trkpt>
      <trkpt lat="60.454898074519" lon="22.276487117136">
        <ele>5</ele>
        <time>2016-01-23T10:52:36Z</time>
      </trkpt>
      <trkpt lat="60.454921795296" lon="22.276512681931">
        <ele>5</ele>
        <time>2016-01-23T10:52:37Z</time>
      </trkpt>
      <trkpt lat="60.454941241304" lon="22.27652114765">
        <ele>5</ele>
        <time>2016-01-23T10:52:38Z</time>
      </trkpt>
      <trkpt lat="60.454969655945" lon="22.276534726328">
        <ele>5</ele>
        <time>2016-01-23T10:52:39Z</time>
      </trkpt>
      <trkpt lat="60.454995975111" lon="22.276537827631">
        <ele>5</ele>
        <time>2016-01-23T10:52:40Z</time>
      </trkpt>
      <trkpt lat="60.455007961228" lon="22.27653036774">
        <ele>5</ele>
        <time>2016-01-23T10:52:41Z</time>
      </trkpt>
      <trkpt lat="60.455039309534" lon="22.27654461697">
        <ele>5</ele>
        <time>2016-01-23T10:52:42Z</time>
      </trkpt>
      <trkpt lat="60.455062359759" lon="22.27654796973">
        <ele>5</ele>
        <time>2016-01-23T10:52:43Z</time>
      </trkpt>
      <trkpt lat="60.455082057224" lon="22.276557525096">
        <ele>5</ele>
        <time>2016-01-23T10:52:44Z</time>
      </trkpt>
      <trkpt lat="60.455097647558" lon="22.276561967503">
        <ele>5</ele>
        <time>2016-01-23T10:52:45Z</time>
      </trkpt>
      <trkpt lat="60.455110555684" lon="22.276566996643">
        <ele>5</ele>
        <time>2016-01-23T10:52:46Z</time>
      </trkpt>
      <trkpt lat="60.455116423014" lon="22.276568589204">
        <ele>5</ele>
        <time>2016-01-23T10:52:47Z</time>
      </trkpt>
      <trkpt lat="60.455123799086" lon="22.276570852317">
        <ele>5</ele>
        <time>2016-01-23T10:52:48Z</time>
      </trkpt>
      <trkpt lat="60.455119189041" lon="22.276569092118">
        <ele>5</ele>
        <time>2016-01-23T10:52:49Z</time>
      </trkpt>
      <trkpt lat="60.455126565113" lon="22.276572109602">
        <ele>5</ele>
        <time>2016-01-23T10:52:50Z</time>
      </trkpt>
      <trkpt lat="60.455127319484" lon="22.276573534525">
        <ele>5</ele>
        <time>2016-01-23T10:52:51Z</time>
      </trkpt>
      <trkpt lat="60.455128157674" lon="22.276574288896">
        <ele>5</ele>
        <time>2016-01-23T10:52:52Z</time>
      </trkpt>
      <trkpt lat="60.455128744407" lon="22.276574707991">
        <ele>5</ele>
        <time>2016-01-23T10:52:53Z</time>
      </trkpt>
      <trkpt lat="60.455129163502" lon="22.276574624172">
        <ele>5</ele>
        <time>2016-01-23T10:52:54Z</time>
      </trkpt>
      <trkpt lat="60.455129666416" lon="22.276574540353">
        <ele>5</ele>
        <time>2016-01-23T10:52:55Z</time>
      </trkpt>
      <trkpt lat="60.455130085511" lon="22.276575546181">
        <ele>5</ele>
        <time>2016-01-23T10:52:56Z</time>
      </trkpt>
      <trkpt lat="60.455130756063" lon="22.276576635828">
        <ele>5</ele>
        <time>2016-01-23T10:52:57Z</time>
      </trkpt>
      <trkpt lat="60.45513184571" lon="22.276576049095">
        <ele>5</ele>
        <time>2016-01-23T10:52:58Z</time>
      </trkpt>
      <trkpt lat="60.455132767719" lon="22.276575965276">
        <ele>5</ele>
        <time>2016-01-23T10:52:59Z</time>
      </trkpt>
      <trkpt lat="60.455133270633" lon="22.276577222561">
        <ele>5</ele>
        <time>2016-01-23T10:53:00Z</time>
      </trkpt>
      <trkpt lat="60.455134108823" lon="22.276577054923">
        <ele>5</ele>
        <time>2016-01-23T10:53:01Z</time>
      </trkpt>
      <trkpt lat="60.455134444099" lon="22.276575713819">
        <ele>5</ele>
        <time>2016-01-23T10:53:02Z</time>
      </trkpt>
      <trkpt lat="60.455134025004" lon="22.276572528697">
        <ele>5</ele>
        <time>2016-01-23T10:53:03Z</time>
      </trkpt>
      <trkpt lat="60.455133857366" lon="22.276570768498">
        <ele>5</ele>
        <time>2016-01-23T10:53:04Z</time>
      </trkpt>
      <trkpt lat="60.455134444099" lon="22.27656892448">
        <ele>5</ele>
        <time>2016-01-23T10:53:05Z</time>
      </trkpt>
      <trkpt lat="60.455136204298" lon="22.276567164281">
        <ele>5</ele>
        <time>2016-01-23T10:53:06Z</time>
      </trkpt>
      <trkpt lat="60.455138215954" lon="22.276566745186">
        <ele>5</ele>
        <time>2016-01-23T10:53:07Z</time>
      </trkpt>
      <trkpt lat="60.455139557058" lon="22.276567499557">
        <ele>5</ele>
        <time>2016-01-23T10:53:08Z</time>
      </trkpt>
      <trkpt lat="60.455140562886" lon="22.276567834833">
        <ele>5</ele>
        <time>2016-01-23T10:53:09Z</time>
      </trkpt>
      <trkpt lat="60.455141484895" lon="22.276566493729">
        <ele>5</ele>
        <time>2016-01-23T10:53:10Z</time>
      </trkpt>
      <trkpt lat="60.455142490723" lon="22.276564062978">
        <ele>5</ele>
        <time>2016-01-23T10:53:11Z</time>
      </trkpt>
      <trkpt lat="60.455145424388" lon="22.276561967503">
        <ele>5</ele>
        <time>2016-01-23T10:53:12Z</time>
      </trkpt>
      <trkpt lat="60.455152884279" lon="22.276561045494">
        <ele>5</ele>
        <time>2016-01-23T10:53:13Z</time>
      </trkpt>
      <trkpt lat="60.455160427989" lon="22.276568337747">
        <ele>5</ele>
        <time>2016-01-23T10:53:14Z</time>
      </trkpt>
      <trkpt lat="60.455166630595" lon="22.27657395362">
        <ele>5</ele>
        <time>2016-01-23T10:53:15Z</time>
      </trkpt>
      <trkpt lat="60.455162691102" lon="22.276569343575">
        <ele>5</ele>
        <time>2016-01-23T10:53:16Z</time>
      </trkpt>
      <trkpt lat="60.455170989183" lon="22.276569092118">
        <ele>5</ele>
        <time>2016-01-23T10:53:17Z</time>
      </trkpt>
      <trkpt lat="60.455173503753" lon="22.276569511213">
        <ele>5</ele>
        <time>2016-01-23T10:53:18Z</time>
      </trkpt>
      <trkpt lat="60.455176353599" lon="22.276570014127">
        <ele>5</ele>
        <time>2016-01-23T10:53:19Z</time>
      </trkpt>
      <trkpt lat="60.455178868169" lon="22.276569595032">
        <ele>5</ele>
        <time>2016-01-23T10:53:20Z</time>
      </trkpt>
      <trkpt lat="60.45518213711" lon="22.276583592805">
        <ele>5</ele>
        <time>2016-01-23T10:53:21Z</time>
      </trkpt>
      <trkpt lat="60.455181466558" lon="22.276604212279">
        <ele>5</ele>
        <time>2016-01-23T10:53:22Z</time>
      </trkpt>
      <trkpt lat="60.455181550377" lon="22.276592561438">
        <ele>5</ele>
        <time>2016-01-23T10:53:23Z</time>
      </trkpt>
      <trkpt lat="60.455177778522" lon="22.276613013274">
        <ele>5</ele>
        <time>2016-01-23T10:53:24Z</time>
      </trkpt>
      <trkpt lat="60.455175599228" lon="22.276614857292">
        <ele>5</ele>
        <time>2016-01-23T10:53:25Z</time>
      </trkpt>
      <trkpt lat="60.455174509581" lon="22.276616030758">
        <ele>5</ele>
        <time>2016-01-23T10:53:26Z</time>
      </trkpt>
      <trkpt lat="60.455175347771" lon="22.276618964423">
        <ele>5</ele>
        <time>2016-01-23T10:53:27Z</time>
      </trkpt>
      <trkpt lat="60.45517626978" lon="22.276623825925">
        <ele>5</ele>
        <time>2016-01-23T10:53:28Z</time>
      </trkpt>
      <trkpt lat="60.45517626978" lon="22.276627346323">
        <ele>5</ele>
        <time>2016-01-23T10:53:29Z</time>
      </trkpt>
      <trkpt lat="60.455176018323" lon="22.27662759778">
        <ele>5</ele>
        <time>2016-01-23T10:53:30Z</time>
      </trkpt>
      <trkpt lat="60.455175012495" lon="22.276628100694">
        <ele>5</ele>
        <time>2016-01-23T10:53:31Z</time>
      </trkpt>
      <trkpt lat="60.455174509581" lon="22.27663011235">
        <ele>5</ele>
        <time>2016-01-23T10:53:32Z</time>
      </trkpt>
      <trkpt lat="60.455174174305" lon="22.276633129834">
        <ele>5</ele>
        <time>2016-01-23T10:53:33Z</time>
      </trkpt>
      <trkpt lat="60.455174174305" lon="22.276635895861">
        <ele>5</ele>
        <time>2016-01-23T10:53:34Z</time>
      </trkpt>
      <trkpt lat="60.45517375521" lon="22.276636566413">
        <ele>5</ele>
        <time>2016-01-23T10:53:35Z</time>
      </trkpt>
      <trkpt lat="60.455173000839" lon="22.276638158974">
        <ele>5</ele>
        <time>2016-01-23T10:53:36Z</time>
      </trkpt>
      <trkpt lat="60.455172581744" lon="22.276640925001">
        <ele>5</ele>
        <time>2016-01-23T10:53:37Z</time>
      </trkpt>
      <trkpt lat="60.455172246468" lon="22.276643355752">
        <ele>5</ele>
        <time>2016-01-23T10:53:38Z</time>
      </trkpt>
      <trkpt lat="60.455171911192" lon="22.276645535046">
        <ele>5</ele>
        <time>2016-01-23T10:53:39Z</time>
      </trkpt>
      <trkpt lat="60.455171492097" lon="22.276646708512">
        <ele>5</ele>
        <time>2016-01-23T10:53:40Z</time>
      </trkpt>
      <trkpt lat="60.455171492097" lon="22.276646708512">
        <ele>5</ele>
        <time>2016-01-23T10:53:41Z</time>
      </trkpt>
      <trkpt lat="60.455171324459" lon="22.276649139263">
        <ele>5</ele>
        <time>2016-01-23T10:53:42Z</time>
      </trkpt>
      <trkpt lat="60.455170905364" lon="22.276650648005">
        <ele>5</ele>
        <time>2016-01-23T10:53:43Z</time>
      </trkpt>
      <trkpt lat="60.455170570088" lon="22.276652827299">
        <ele>5</ele>
        <time>2016-01-23T10:53:44Z</time>
      </trkpt>
      <trkpt lat="60.455170486269" lon="22.276654000765">
        <ele>5</ele>
        <time>2016-01-23T10:53:45Z</time>
      </trkpt>
      <trkpt lat="60.455170150993" lon="22.276654336041">
        <ele>5</ele>
        <time>2016-01-23T10:53:46Z</time>
      </trkpt>
      <trkpt lat="60.455169899536" lon="22.276655425688">
        <ele>5</ele>
        <time>2016-01-23T10:53:47Z</time>
      </trkpt>
      <trkpt lat="60.455170150993" lon="22.276657521163">
        <ele>5</ele>
        <time>2016-01-23T10:53:48Z</time>
      </trkpt>
      <trkpt lat="60.455170653907" lon="22.276659616638">
        <ele>5</ele>
        <time>2016-01-23T10:53:49Z</time>
      </trkpt>
      <trkpt lat="60.455170653907" lon="22.276660790104">
        <ele>5</ele>
        <time>2016-01-23T10:53:50Z</time>
      </trkpt>
      <trkpt lat="60.455170486269" lon="22.27666196357">
        <ele>5</ele>
        <time>2016-01-23T10:53:51Z</time>
      </trkpt>
      <trkpt lat="60.455170989183" lon="22.276662131208">
        <ele>5</ele>
        <time>2016-01-23T10:53:52Z</time>
      </trkpt>
      <trkpt lat="60.455171575916" lon="22.276662298846">
        <ele>5</ele>
        <time>2016-01-23T10:53:53Z</time>
      </trkpt>
      <trkpt lat="60.455171324459" lon="22.276663388493">
        <ele>5</ele>
        <time>2016-01-23T10:53:54Z</time>
      </trkpt>
      <trkpt lat="60.455171156821" lon="22.276664561959">
        <ele>5</ele>
        <time>2016-01-23T10:53:55Z</time>
      </trkpt>
      <trkpt lat="60.455171156821" lon="22.276666489796">
        <ele>5</ele>
        <time>2016-01-23T10:53:56Z</time>
      </trkpt>
      <trkpt lat="60.455170570088" lon="22.276666238339">
        <ele>5</ele>
        <time>2016-01-23T10:53:57Z</time>
      </trkpt>
      <trkpt lat="60.455169480441" lon="22.276665148692">
        <ele>5</ele>
        <time>2016-01-23T10:53:58Z</time>
      </trkpt>
      <trkpt lat="60.455168977527" lon="22.276666489796">
        <ele>5</ele>
        <time>2016-01-23T10:53:59Z</time>
      </trkpt>
      <trkpt lat="60.455169145165" lon="22.276667244167">
        <ele>5</ele>
        <time>2016-01-23T10:54:00Z</time>
      </trkpt>
      <trkpt lat="60.455169145165" lon="22.2766678309">
        <ele>5</ele>
        <time>2016-01-23T10:54:01Z</time>
      </trkpt>
      <trkpt lat="60.455168893708" lon="22.27666866909">
        <ele>5</ele>
        <time>2016-01-23T10:54:02Z</time>
      </trkpt>
      <trkpt lat="60.455168558432" lon="22.276669758737">
        <ele>5</ele>
        <time>2016-01-23T10:54:03Z</time>
      </trkpt>
      <trkpt lat="60.455168306975" lon="22.276670848384">
        <ele>5</ele>
        <time>2016-01-23T10:54:04Z</time>
      </trkpt>
      <trkpt lat="60.455168223156" lon="22.276673530592">
        <ele>5</ele>
        <time>2016-01-23T10:54:05Z</time>
      </trkpt>
      <trkpt lat="60.455168306975" lon="22.276675793705">
        <ele>5</ele>
        <time>2016-01-23T10:54:06Z</time>
      </trkpt>
      <trkpt lat="60.455168474613" lon="22.276677302447">
        <ele>5</ele>
        <time>2016-01-23T10:54:07Z</time>
      </trkpt>
      <trkpt lat="60.455168558432" lon="22.276679397922">
        <ele>5</ele>
        <time>2016-01-23T10:54:08Z</time>
      </trkpt>
      <trkpt lat="60.455168474613" lon="22.276682750682">
        <ele>5</ele>
        <time>2016-01-23T10:54:09Z</time>
      </trkpt>
      <trkpt lat="60.455168474613" lon="22.276686019623">
        <ele>5</ele>
        <time>2016-01-23T10:54:10Z</time>
      </trkpt>
      <trkpt lat="60.455168558432" lon="22.276688953288">
        <ele>5</ele>
        <time>2016-01-23T10:54:11Z</time>
      </trkpt>
      <trkpt lat="60.455168474613" lon="22.276690964944">
        <ele>5</ele>
        <time>2016-01-23T10:54:12Z</time>
      </trkpt>
      <trkpt lat="60.455167804061" lon="22.276691635496">
        <ele>5</ele>
        <time>2016-01-23T10:54:13Z</time>
      </trkpt>
      <trkpt lat="60.455166965871" lon="22.27669130022">
        <ele>5</ele>
        <time>2016-01-23T10:54:14Z</time>
      </trkpt>
      <trkpt lat="60.4551662115" lon="22.276691803134">
        <ele>5</ele>
        <time>2016-01-23T10:54:15Z</time>
      </trkpt>
      <trkpt lat="60.45516537331" lon="22.276693563333">
        <ele>5</ele>
        <time>2016-01-23T10:54:16Z</time>
      </trkpt>
      <trkpt lat="60.455165708586" lon="22.276694820618">
        <ele>5</ele>
        <time>2016-01-23T10:54:17Z</time>
      </trkpt>
      <trkpt lat="60.455165624767" lon="22.276696916093">
        <ele>5</ele>
        <time>2016-01-23T10:54:18Z</time>
      </trkpt>
      <trkpt lat="60.455165708586" lon="22.276697670464">
        <ele>5</ele>
        <time>2016-01-23T10:54:19Z</time>
      </trkpt>
      <trkpt lat="60.455165624767" lon="22.27669716755">
        <ele>5</ele>
        <time>2016-01-23T10:54:20Z</time>
      </trkpt>
      <trkpt lat="60.455164786577" lon="22.276697921921">
        <ele>5</ele>
        <time>2016-01-23T10:54:21Z</time>
      </trkpt>
      <trkpt lat="60.455164367482" lon="22.276699263025">
        <ele>5</ele>
        <time>2016-01-23T10:54:22Z</time>
      </trkpt>
      <trkpt lat="60.455164116025" lon="22.276700855586">
        <ele>5</ele>
        <time>2016-01-23T10:54:23Z</time>
      </trkpt>
      <trkpt lat="60.45516369693" lon="22.276702615785">
        <ele>5</ele>
        <time>2016-01-23T10:54:24Z</time>
      </trkpt>
      <trkpt lat="60.45516369693" lon="22.276704124527">
        <ele>5</ele>
        <time>2016-01-23T10:54:25Z</time>
      </trkpt>
      <trkpt lat="60.455163780749" lon="22.276705633269">
        <ele>5</ele>
        <time>2016-01-23T10:54:26Z</time>
      </trkpt>
      <trkpt lat="60.455164116025" lon="22.276707644925">
        <ele>5</ele>
        <time>2016-01-23T10:54:27Z</time>
      </trkpt>
      <trkpt lat="60.455164283663" lon="22.276709488943">
        <ele>5</ele>
        <time>2016-01-23T10:54:28Z</time>
      </trkpt>
      <trkpt lat="60.455164199844" lon="22.276711332961">
        <ele>5</ele>
        <time>2016-01-23T10:54:29Z</time>
      </trkpt>
      <trkpt lat="60.455164199844" lon="22.27671309316">
        <ele>5</ele>
        <time>2016-01-23T10:54:30Z</time>
      </trkpt>
      <trkpt lat="60.455164116025" lon="22.27671476954">
        <ele>5</ele>
        <time>2016-01-23T10:54:31Z</time>
      </trkpt>
      <trkpt lat="60.455163780749" lon="22.276715104816">
        <ele>5</ele>
        <time>2016-01-23T10:54:32Z</time>
      </trkpt>
      <trkpt lat="60.455163780749" lon="22.276716194463">
        <ele>5</ele>
        <time>2016-01-23T10:54:33Z</time>
      </trkpt>
      <trkpt lat="60.455163613111" lon="22.276717032653">
        <ele>5</ele>
        <time>2016-01-23T10:54:34Z</time>
      </trkpt>
      <trkpt lat="60.455163277835" lon="22.276718625214">
        <ele>5</ele>
        <time>2016-01-23T10:54:35Z</time>
      </trkpt>
      <trkpt lat="60.455162691102" lon="22.276720804508">
        <ele>5</ele>
        <time>2016-01-23T10:54:36Z</time>
      </trkpt>
      <trkpt lat="60.455162774921" lon="22.276723067621">
        <ele>5</ele>
        <time>2016-01-23T10:54:37Z</time>
      </trkpt>
      <trkpt lat="60.455163277835" lon="22.276724492544">
        <ele>5</ele>
        <time>2016-01-23T10:54:38Z</time>
      </trkpt>
      <trkpt lat="60.455163780749" lon="22.276724911639">
        <ele>5</ele>
        <time>2016-01-23T10:54:39Z</time>
      </trkpt>
      <trkpt lat="60.455164116025" lon="22.276725833648">
        <ele>5</ele>
        <time>2016-01-23T10:54:40Z</time>
      </trkpt>
      <trkpt lat="60.455164116025" lon="22.27672734239">
        <ele>5</ele>
        <time>2016-01-23T10:54:41Z</time>
      </trkpt>
      <trkpt lat="60.45516369693" lon="22.276727510028">
        <ele>5</ele>
        <time>2016-01-23T10:54:42Z</time>
      </trkpt>
      <trkpt lat="60.455163445473" lon="22.276727593847">
        <ele>5</ele>
        <time>2016-01-23T10:54:43Z</time>
      </trkpt>
      <trkpt lat="60.455164451301" lon="22.276728851132">
        <ele>5</ele>
        <time>2016-01-23T10:54:44Z</time>
      </trkpt>
      <trkpt lat="60.455165624767" lon="22.27673069515">
        <ele>5</ele>
        <time>2016-01-23T10:54:45Z</time>
      </trkpt>
      <trkpt lat="60.455165708586" lon="22.276730946607">
        <ele>5</ele>
        <time>2016-01-23T10:54:46Z</time>
      </trkpt>
      <trkpt lat="60.455164702758" lon="22.276730527512">
        <ele>5</ele>
        <time>2016-01-23T10:54:47Z</time>
      </trkpt>
      <trkpt lat="60.455163780749" lon="22.276731030426">
        <ele>5</ele>
        <time>2016-01-23T10:54:48Z</time>
      </trkpt>
      <trkpt lat="60.455163445473" lon="22.276732790625">
        <ele>5</ele>
        <time>2016-01-23T10:54:49Z</time>
      </trkpt>
      <trkpt lat="60.455163277835" lon="22.276734969919">
        <ele>5</ele>
        <time>2016-01-23T10:54:50Z</time>
      </trkpt>
      <trkpt lat="60.45516285874" lon="22.276736813937">
        <ele>5</ele>
        <time>2016-01-23T10:54:51Z</time>
      </trkpt>
      <trkpt lat="60.455162188188" lon="22.276736730118">
        <ele>5</ele>
        <time>2016-01-23T10:54:52Z</time>
      </trkpt>
      <trkpt lat="60.455161601455" lon="22.276736394842">
        <ele>5</ele>
        <time>2016-01-23T10:54:53Z</time>
      </trkpt>
      <trkpt lat="60.45516118236" lon="22.276737903584">
        <ele>5</ele>
        <time>2016-01-23T10:54:54Z</time>
      </trkpt>
      <trkpt lat="60.455160595627" lon="22.276739160869">
        <ele>5</ele>
        <time>2016-01-23T10:54:55Z</time>
      </trkpt>
      <trkpt lat="60.455160176532" lon="22.276739999059">
        <ele>5</ele>
        <time>2016-01-23T10:54:56Z</time>
      </trkpt>
      <trkpt lat="60.455159841256" lon="22.276741340163">
        <ele>5</ele>
        <time>2016-01-23T10:54:57Z</time>
      </trkpt>
      <trkpt lat="60.455159673618" lon="22.276742765086">
        <ele>5</ele>
        <time>2016-01-23T10:54:58Z</time>
      </trkpt>
      <trkpt lat="60.455159422161" lon="22.276743938552">
        <ele>5</ele>
        <time>2016-01-23T10:54:59Z</time>
      </trkpt>
      <trkpt lat="60.455159003066" lon="22.276745195837">
        <ele>5</ele>
        <time>2016-01-23T10:55:00Z</time>
      </trkpt>
      <trkpt lat="60.45515866779" lon="22.276746536941">
        <ele>5</ele>
        <time>2016-01-23T10:55:01Z</time>
      </trkpt>
      <trkpt lat="60.455158416333" lon="22.276747794226">
        <ele>5</ele>
        <time>2016-01-23T10:55:02Z</time>
      </trkpt>
      <trkpt lat="60.455158164876" lon="22.276749219149">
        <ele>5</ele>
        <time>2016-01-23T10:55:03Z</time>
      </trkpt>
      <trkpt lat="60.455157661962" lon="22.276751314624">
        <ele>5</ele>
        <time>2016-01-23T10:55:04Z</time>
      </trkpt>
      <trkpt lat="60.455157745781" lon="22.276752236633">
        <ele>5</ele>
        <time>2016-01-23T10:55:05Z</time>
      </trkpt>
      <trkpt lat="60.455157661962" lon="22.276752991004">
        <ele>5</ele>
        <time>2016-01-23T10:55:06Z</time>
      </trkpt>
      <trkpt lat="60.455157578143" lon="22.276753745375">
        <ele>5</ele>
        <time>2016-01-23T10:55:07Z</time>
      </trkpt>
      <trkpt lat="60.455157494324" lon="22.276755254117">
        <ele>5</ele>
        <time>2016-01-23T10:55:08Z</time>
      </trkpt>
      <trkpt lat="60.455157410505" lon="22.276756511402">
        <ele>5</ele>
        <time>2016-01-23T10:55:09Z</time>
      </trkpt>
      <trkpt lat="60.455157159048" lon="22.27675751723">
        <ele>5</ele>
        <time>2016-01-23T10:55:10Z</time>
      </trkpt>
      <trkpt lat="60.455157242867" lon="22.276757936325">
        <ele>5</ele>
        <time>2016-01-23T10:55:11Z</time>
      </trkpt>
      <trkpt lat="60.455157242867" lon="22.276758606877">
        <ele>5</ele>
        <time>2016-01-23T10:55:12Z</time>
      </trkpt>
      <trkpt lat="60.455157242867" lon="22.276759947981">
        <ele>5</ele>
        <time>2016-01-23T10:55:13Z</time>
      </trkpt>
      <trkpt lat="60.455157242867" lon="22.27676086999">
        <ele>5</ele>
        <time>2016-01-23T10:55:14Z</time>
      </trkpt>
      <trkpt lat="60.455157242867" lon="22.276761791999">
        <ele>5</ele>
        <time>2016-01-23T10:55:15Z</time>
      </trkpt>
      <trkpt lat="60.455157159048" lon="22.27676170818">
        <ele>5</ele>
        <time>2016-01-23T10:55:16Z</time>
      </trkpt>
      <trkpt lat="60.455157075229" lon="22.27676170818">
        <ele>5</ele>
        <time>2016-01-23T10:55:17Z</time>
      </trkpt>
      <trkpt lat="60.455157075229" lon="22.276761289085">
        <ele>5</ele>
        <time>2016-01-23T10:55:18Z</time>
      </trkpt>
      <trkpt lat="60.45515699141" lon="22.276761289085">
        <ele>5</ele>
        <time>2016-01-23T10:55:19Z</time>
      </trkpt>
      <trkpt lat="60.455157075229" lon="22.276761289085">
        <ele>5</ele>
        <time>2016-01-23T10:55:20Z</time>
      </trkpt>
      <trkpt lat="60.455157075229" lon="22.276760618533">
        <ele>5</ele>
        <time>2016-01-23T10:55:21Z</time>
      </trkpt>
      <trkpt lat="60.455157075229" lon="22.2767600318">
        <ele>5</ele>
        <time>2016-01-23T10:55:22Z</time>
      </trkpt>
      <trkpt lat="60.455157075229" lon="22.276759528886">
        <ele>5</ele>
        <time>2016-01-23T10:55:23Z</time>
      </trkpt>
      <trkpt lat="60.455157159048" lon="22.2767600318">
        <ele>5</ele>
        <time>2016-01-23T10:55:24Z</time>
      </trkpt>
      <trkpt lat="60.455157159048" lon="22.276760450895">
        <ele>5</ele>
        <time>2016-01-23T10:55:25Z</time>
      </trkpt>
      <trkpt lat="60.455157242867" lon="22.27676086999">
        <ele>5</ele>
        <time>2016-01-23T10:55:26Z</time>
      </trkpt>
      <trkpt lat="60.455157159048" lon="22.276761121447">
        <ele>5</ele>
        <time>2016-01-23T10:55:27Z</time>
      </trkpt>
      <trkpt lat="60.455157075229" lon="22.276760953809">
        <ele>5</ele>
        <time>2016-01-23T10:55:28Z</time>
      </trkpt>
      <trkpt lat="60.455156907591" lon="22.276761456723">
        <ele>5</ele>
        <time>2016-01-23T10:55:29Z</time>
      </trkpt>
      <trkpt lat="60.455156656134" lon="22.276761205266">
        <ele>5</ele>
        <time>2016-01-23T10:55:30Z</time>
      </trkpt>
      <trkpt lat="60.455156572315" lon="22.276760534714">
        <ele>5</ele>
        <time>2016-01-23T10:55:31Z</time>
      </trkpt>
      <trkpt lat="60.455156320858" lon="22.276761205266">
        <ele>5</ele>
        <time>2016-01-23T10:55:32Z</time>
      </trkpt>
      <trkpt lat="60.45515615322" lon="22.276762462551">
        <ele>5</ele>
        <time>2016-01-23T10:55:33Z</time>
      </trkpt>
      <trkpt lat="60.455156320858" lon="22.276762630189">
        <ele>5</ele>
        <time>2016-01-23T10:55:34Z</time>
      </trkpt>
      <trkpt lat="60.455156572315" lon="22.276762965465">
        <ele>5</ele>
        <time>2016-01-23T10:55:35Z</time>
      </trkpt>
      <trkpt lat="60.455156656134" lon="22.276763719836">
        <ele>5</ele>
        <time>2016-01-23T10:55:36Z</time>
      </trkpt>
      <trkpt lat="60.455156907591" lon="22.276764390388">
        <ele>5</ele>
        <time>2016-01-23T10:55:37Z</time>
      </trkpt>
      <trkpt lat="60.455156572315" lon="22.27676422275">
        <ele>5</ele>
        <time>2016-01-23T10:55:38Z</time>
      </trkpt>
      <trkpt lat="60.455156320858" lon="22.276763887474">
        <ele>5</ele>
        <time>2016-01-23T10:55:39Z</time>
      </trkpt>
      <trkpt lat="60.455155817944" lon="22.276762462551">
        <ele>5</ele>
        <time>2016-01-23T10:55:40Z</time>
      </trkpt>
      <trkpt lat="60.455155566487" lon="22.27676254637">
        <ele>5</ele>
        <time>2016-01-23T10:55:41Z</time>
      </trkpt>
      <trkpt lat="60.455156069401" lon="22.27676422275">
        <ele>5</ele>
        <time>2016-01-23T10:55:42Z</time>
      </trkpt>
      <trkpt lat="60.45515615322" lon="22.276764306569">
        <ele>5</ele>
        <time>2016-01-23T10:55:43Z</time>
      </trkpt>
      <trkpt lat="60.45515615322" lon="22.276764558026">
        <ele>5</ele>
        <time>2016-01-23T10:55:44Z</time>
      </trkpt>
      <trkpt lat="60.455156069401" lon="22.276763887474">
        <ele>5</ele>
        <time>2016-01-23T10:55:45Z</time>
      </trkpt>
      <trkpt lat="60.455155985582" lon="22.276764306569">
        <ele>5</ele>
        <time>2016-01-23T10:55:46Z</time>
      </trkpt>
      <trkpt lat="60.455155817944" lon="22.27676422275">
        <ele>5</ele>
        <time>2016-01-23T10:55:47Z</time>
      </trkpt>
      <trkpt lat="60.455155147392" lon="22.27676422275">
        <ele>5</ele>
        <time>2016-01-23T10:55:48Z</time>
      </trkpt>
      <trkpt lat="60.455154812116" lon="22.276764306569">
        <ele>5</ele>
        <time>2016-01-23T10:55:49Z</time>
      </trkpt>
      <trkpt lat="60.455154644478" lon="22.276764306569">
        <ele>5</ele>
        <time>2016-01-23T10:55:50Z</time>
      </trkpt>
      <trkpt lat="60.45515447684" lon="22.276764306569">
        <ele>5</ele>
        <time>2016-01-23T10:55:51Z</time>
      </trkpt>
      <trkpt lat="60.455154309202" lon="22.276764558026">
        <ele>5</ele>
        <time>2016-01-23T10:55:52Z</time>
      </trkpt>
      <trkpt lat="60.455154057745" lon="22.27676422275">
        <ele>5</ele>
        <time>2016-01-23T10:55:53Z</time>
      </trkpt>
      <trkpt lat="60.455153722469" lon="22.276764558026">
        <ele>5</ele>
        <time>2016-01-23T10:55:54Z</time>
      </trkpt>
      <trkpt lat="60.455153219555" lon="22.276763719836">
        <ele>5</ele>
        <time>2016-01-23T10:55:55Z</time>
      </trkpt>
      <trkpt lat="60.455152968098" lon="22.276762294913">
        <ele>5</ele>
        <time>2016-01-23T10:55:56Z</time>
      </trkpt>
      <trkpt lat="60.455152716641" lon="22.276764390388">
        <ele>5</ele>
        <time>2016-01-23T10:55:57Z</time>
      </trkpt>
      <trkpt lat="60.455152716641" lon="22.276766402044">
        <ele>5</ele>
        <time>2016-01-23T10:55:58Z</time>
      </trkpt>
      <trkpt lat="60.455151543175" lon="22.276767743148">
        <ele>5</ele>
        <time>2016-01-23T10:55:59Z</time>
      </trkpt>
      <trkpt lat="60.455149699157" lon="22.276764809483">
        <ele>5</ele>
        <time>2016-01-23T10:56:00Z</time>
      </trkpt>
      <trkpt lat="60.455148358053" lon="22.276760702352">
        <ele>5</ele>
        <time>2016-01-23T10:56:01Z</time>
      </trkpt>
      <trkpt lat="60.455148106596" lon="22.276761037628">
        <ele>5</ele>
        <time>2016-01-23T10:56:02Z</time>
      </trkpt>
      <trkpt lat="60.455148190415" lon="22.276761205266">
        <ele>5</ele>
        <time>2016-01-23T10:56:03Z</time>
      </trkpt>
      <trkpt lat="60.455148022777" lon="22.276759947981">
        <ele>5</ele>
        <time>2016-01-23T10:56:04Z</time>
      </trkpt>
      <trkpt lat="60.455148358053" lon="22.276760534714">
        <ele>5</ele>
        <time>2016-01-23T10:56:05Z</time>
      </trkpt>
      <trkpt lat="60.455148190415" lon="22.276761121447">
        <ele>5</ele>
        <time>2016-01-23T10:56:06Z</time>
      </trkpt>
      <trkpt lat="60.455148106596" lon="22.276761456723">
        <ele>5</ele>
        <time>2016-01-23T10:56:07Z</time>
      </trkpt>
      <trkpt lat="60.455148190415" lon="22.27676170818">
        <ele>5</ele>
        <time>2016-01-23T10:56:08Z</time>
      </trkpt>
      <trkpt lat="60.455148358053" lon="22.276761037628">
        <ele>5</ele>
        <time>2016-01-23T10:56:09Z</time>
      </trkpt>
      <trkpt lat="60.455148693329" lon="22.276759109791">
        <ele>5</ele>
        <time>2016-01-23T10:56:10Z</time>
      </trkpt>
      <trkpt lat="60.45514860951" lon="22.276759109791">
        <ele>5</ele>
        <time>2016-01-23T10:56:11Z</time>
      </trkpt>
      <trkpt lat="60.455148777148" lon="22.276762630189">
        <ele>5</ele>
        <time>2016-01-23T10:56:12Z</time>
      </trkpt>
      <trkpt lat="60.455149615338" lon="22.276765228578">
        <ele>5</ele>
        <time>2016-01-23T10:56:13Z</time>
      </trkpt>
      <trkpt lat="60.455149615338" lon="22.276765228578">
        <ele>5</ele>
        <time>2016-01-23T10:56:14Z</time>
      </trkpt>
      <trkpt lat="60.455149699157" lon="22.276765228578">
        <ele>5</ele>
        <time>2016-01-23T10:56:15Z</time>
      </trkpt>
      <trkpt lat="60.455149615338" lon="22.276765312397">
        <ele>5</ele>
        <time>2016-01-23T10:56:16Z</time>
      </trkpt>
      <trkpt lat="60.455149782976" lon="22.276765228578">
        <ele>5</ele>
        <time>2016-01-23T10:56:17Z</time>
      </trkpt>
      <trkpt lat="60.455149950614" lon="22.276765647673">
        <ele>5</ele>
        <time>2016-01-23T10:56:18Z</time>
      </trkpt>
      <trkpt lat="60.4551494477" lon="22.276767910786">
        <ele>5</ele>
        <time>2016-01-23T10:56:19Z</time>
      </trkpt>
      <trkpt lat="60.455148693329" lon="22.276769838623">
        <ele>5</ele>
        <time>2016-01-23T10:56:20Z</time>
      </trkpt>
      <trkpt lat="60.455149112424" lon="22.276771012089">
        <ele>5</ele>
        <time>2016-01-23T10:56:21Z</time>
      </trkpt>
      <trkpt lat="60.455149782976" lon="22.276771263546">
        <ele>5</ele>
        <time>2016-01-23T10:56:22Z</time>
      </trkpt>
      <trkpt lat="60.455150621166" lon="22.276771431184">
        <ele>5</ele>
        <time>2016-01-23T10:56:23Z</time>
      </trkpt>
      <trkpt lat="60.455151291718" lon="22.27677176646">
        <ele>5</ele>
        <time>2016-01-23T10:56:24Z</time>
      </trkpt>
      <trkpt lat="60.455151878451" lon="22.276772101736">
        <ele>5</ele>
        <time>2016-01-23T10:56:25Z</time>
      </trkpt>
      <trkpt lat="60.455151878451" lon="22.276773191383">
        <ele>5</ele>
        <time>2016-01-23T10:56:26Z</time>
      </trkpt>
      <trkpt lat="60.455151878451" lon="22.276774448668">
        <ele>5</ele>
        <time>2016-01-23T10:56:27Z</time>
      </trkpt>
      <trkpt lat="60.455152213727" lon="22.276775705953">
        <ele>5</ele>
        <time>2016-01-23T10:56:28Z</time>
      </trkpt>
      <trkpt lat="60.455152465184" lon="22.276776963238">
        <ele>5</ele>
        <time>2016-01-23T10:56:29Z</time>
      </trkpt>
      <trkpt lat="60.455152716641" lon="22.276777717609">
        <ele>5</ele>
        <time>2016-01-23T10:56:30Z</time>
      </trkpt>
      <trkpt lat="60.455152884279" lon="22.276778555799">
        <ele>5</ele>
        <time>2016-01-23T10:56:31Z</time>
      </trkpt>
      <trkpt lat="60.455152549003" lon="22.276779729265">
        <ele>5</ele>
        <time>2016-01-23T10:56:32Z</time>
      </trkpt>
      <trkpt lat="60.455151878451" lon="22.276780735093">
        <ele>5</ele>
        <time>2016-01-23T10:56:33Z</time>
      </trkpt>
      <trkpt lat="60.455151710813" lon="22.276780902731">
        <ele>5</ele>
        <time>2016-01-23T10:56:34Z</time>
      </trkpt>
      <trkpt lat="60.45515196227" lon="22.276781070369">
        <ele>5</ele>
        <time>2016-01-23T10:56:35Z</time>
      </trkpt>
      <trkpt lat="60.455152213727" lon="22.276781238007">
        <ele>5</ele>
        <time>2016-01-23T10:56:36Z</time>
      </trkpt>
      <trkpt lat="60.455152549003" lon="22.276782495292">
        <ele>5</ele>
        <time>2016-01-23T10:56:37Z</time>
      </trkpt>
      <trkpt lat="60.455152716641" lon="22.276781992378">
        <ele>5</ele>
        <time>2016-01-23T10:56:38Z</time>
      </trkpt>
      <trkpt lat="60.455152297546" lon="22.276780651274">
        <ele>5</ele>
        <time>2016-01-23T10:56:39Z</time>
      </trkpt>
      <trkpt lat="60.455152213727" lon="22.276782495292">
        <ele>5</ele>
        <time>2016-01-23T10:56:40Z</time>
      </trkpt>
      <trkpt lat="60.455152213727" lon="22.276784926043">
        <ele>5</ele>
        <time>2016-01-23T10:56:41Z</time>
      </trkpt>
      <trkpt lat="60.45515196227" lon="22.276784004034">
        <ele>5</ele>
        <time>2016-01-23T10:56:42Z</time>
      </trkpt>
      <trkpt lat="60.455151543175" lon="22.276782160016">
        <ele>5</ele>
        <time>2016-01-23T10:56:43Z</time>
      </trkpt>
      <trkpt lat="60.455151459356" lon="22.276780399817">
        <ele>5</ele>
        <time>2016-01-23T10:56:44Z</time>
      </trkpt>
      <trkpt lat="60.455151543175" lon="22.27677931017">
        <ele>5</ele>
        <time>2016-01-23T10:56:45Z</time>
      </trkpt>
      <trkpt lat="60.455151375537" lon="22.276778555799">
        <ele>5</ele>
        <time>2016-01-23T10:56:46Z</time>
      </trkpt>
      <trkpt lat="60.455150872623" lon="22.276777717609">
        <ele>5</ele>
        <time>2016-01-23T10:56:47Z</time>
      </trkpt>
      <trkpt lat="60.455150621166" lon="22.276777298514">
        <ele>5</ele>
        <time>2016-01-23T10:56:48Z</time>
      </trkpt>
      <trkpt lat="60.455150956442" lon="22.276774867763">
        <ele>5</ele>
        <time>2016-01-23T10:56:49Z</time>
      </trkpt>
      <trkpt lat="60.455151375537" lon="22.276771515003">
        <ele>5</ele>
        <time>2016-01-23T10:56:50Z</time>
      </trkpt>
      <trkpt lat="60.455151291718" lon="22.276769838623">
        <ele>5</ele>
        <time>2016-01-23T10:56:51Z</time>
      </trkpt>
      <trkpt lat="60.455150118252" lon="22.276771934098">
        <ele>5</ele>
        <time>2016-01-23T10:56:52Z</time>
      </trkpt>
      <trkpt lat="60.45514860951" lon="22.27677511922">
        <ele>5</ele>
        <time>2016-01-23T10:56:53Z</time>
      </trkpt>
      <trkpt lat="60.455148358053" lon="22.276776041229">
        <ele>5</ele>
        <time>2016-01-23T10:56:54Z</time>
      </trkpt>
      <trkpt lat="60.455148693329" lon="22.276777130876">
        <ele>5</ele>
        <time>2016-01-23T10:56:55Z</time>
      </trkpt>
      <trkpt lat="60.455148358053" lon="22.276777549971">
        <ele>5</ele>
        <time>2016-01-23T10:56:56Z</time>
      </trkpt>
      <trkpt lat="60.455148022777" lon="22.276778555799">
        <ele>5</ele>
        <time>2016-01-23T10:56:57Z</time>
      </trkpt>
      <trkpt lat="60.455148693329" lon="22.276779561627">
        <ele>5</ele>
        <time>2016-01-23T10:56:58Z</time>
      </trkpt>
      <trkpt lat="60.455149782976" lon="22.276780315998">
        <ele>5</ele>
        <time>2016-01-23T10:56:59Z</time>
      </trkpt>
      <trkpt lat="60.455150202071" lon="22.276780651274">
        <ele>5</ele>
        <time>2016-01-23T10:57:00Z</time>
      </trkpt>
      <trkpt lat="60.455150621166" lon="22.276780651274">
        <ele>5</ele>
        <time>2016-01-23T10:57:01Z</time>
      </trkpt>
      <trkpt lat="60.455151207899" lon="22.27678014836">
        <ele>5</ele>
        <time>2016-01-23T10:57:02Z</time>
      </trkpt>
      <trkpt lat="60.455151878451" lon="22.276779058713">
        <ele>5</ele>
        <time>2016-01-23T10:57:03Z</time>
      </trkpt>
      <trkpt lat="60.455152465184" lon="22.276778220523">
        <ele>5</ele>
        <time>2016-01-23T10:57:04Z</time>
      </trkpt>
      <trkpt lat="60.455153051917" lon="22.276777549971">
        <ele>5</ele>
        <time>2016-01-23T10:57:05Z</time>
      </trkpt>
      <trkpt lat="60.455153554831" lon="22.276776711781">
        <ele>5</ele>
        <time>2016-01-23T10:57:06Z</time>
      </trkpt>
      <trkpt lat="60.455154309202" lon="22.276776125048">
        <ele>5</ele>
        <time>2016-01-23T10:57:07Z</time>
      </trkpt>
      <trkpt lat="60.455154812116" lon="22.276775622134">
        <ele>5</ele>
        <time>2016-01-23T10:57:08Z</time>
      </trkpt>
      <trkpt lat="60.455155398849" lon="22.276774700125">
        <ele>5</ele>
        <time>2016-01-23T10:57:09Z</time>
      </trkpt>
      <trkpt lat="60.455156320858" lon="22.276773191383">
        <ele>5</ele>
        <time>2016-01-23T10:57:10Z</time>
      </trkpt>
      <trkpt lat="60.455156823772" lon="22.276772437012">
        <ele>5</ele>
        <time>2016-01-23T10:57:11Z</time>
      </trkpt>
      <trkpt lat="60.45515699141" lon="22.276771934098">
        <ele>5</ele>
        <time>2016-01-23T10:57:12Z</time>
      </trkpt>
      <trkpt lat="60.455157075229" lon="22.276772437012">
        <ele>5</ele>
        <time>2016-01-23T10:57:13Z</time>
      </trkpt>
      <trkpt lat="60.455157661962" lon="22.276772101736">
        <ele>5</ele>
        <time>2016-01-23T10:57:14Z</time>
      </trkpt>
      <trkpt lat="60.455157913419" lon="22.276772353193">
        <ele>5</ele>
        <time>2016-01-23T10:57:15Z</time>
      </trkpt>
      <trkpt lat="60.455157410505" lon="22.276772353193">
        <ele>5</ele>
        <time>2016-01-23T10:57:16Z</time>
      </trkpt>
      <trkpt lat="60.45515699141" lon="22.27677092827">
        <ele>5</ele>
        <time>2016-01-23T10:57:17Z</time>
      </trkpt>
      <trkpt lat="60.455156907591" lon="22.276757852506">
        <ele>5</ele>
        <time>2016-01-23T10:57:18Z</time>
      </trkpt>
      <trkpt lat="60.455160847084" lon="22.276753745375">
        <ele>5</ele>
        <time>2016-01-23T10:57:19Z</time>
      </trkpt>
      <trkpt lat="60.455158583971" lon="22.276756930497">
        <ele>5</ele>
        <time>2016-01-23T10:57:20Z</time>
      </trkpt>
      <trkpt lat="60.455163194016" lon="22.276745447294">
        <ele>5</ele>
        <time>2016-01-23T10:57:21Z</time>
      </trkpt>
      <trkpt lat="60.455165205672" lon="22.27674159162">
        <ele>5</ele>
        <time>2016-01-23T10:57:22Z</time>
      </trkpt>
      <trkpt lat="60.455166462957" lon="22.276741340163">
        <ele>5</ele>
        <time>2016-01-23T10:57:23Z</time>
      </trkpt>
      <trkpt lat="60.455167552604" lon="22.276743435638">
        <ele>5</ele>
        <time>2016-01-23T10:57:24Z</time>
      </trkpt>
      <trkpt lat="60.455168306975" lon="22.276742513629">
        <ele>5</ele>
        <time>2016-01-23T10:57:25Z</time>
      </trkpt>
      <trkpt lat="60.455168055518" lon="22.276740837249">
        <ele>5</ele>
        <time>2016-01-23T10:57:26Z</time>
      </trkpt>
      <trkpt lat="60.455167720242" lon="22.276739496145">
        <ele>5</ele>
        <time>2016-01-23T10:57:27Z</time>
      </trkpt>
      <trkpt lat="60.455167301147" lon="22.27673823886">
        <ele>5</ele>
        <time>2016-01-23T10:57:28Z</time>
      </trkpt>
      <trkpt lat="60.455166798233" lon="22.27673656248">
        <ele>5</ele>
        <time>2016-01-23T10:57:29Z</time>
      </trkpt>
      <trkpt lat="60.4551662115" lon="22.276734718462">
        <ele>5</ele>
        <time>2016-01-23T10:57:30Z</time>
      </trkpt>
      <trkpt lat="60.455165708586" lon="22.276732455349">
        <ele>5</ele>
        <time>2016-01-23T10:57:31Z</time>
      </trkpt>
      <trkpt lat="60.455164954215" lon="22.276730108417">
        <ele>5</ele>
        <time>2016-01-23T10:57:32Z</time>
      </trkpt>
      <trkpt lat="60.455164451301" lon="22.276728767313">
        <ele>5</ele>
        <time>2016-01-23T10:57:33Z</time>
      </trkpt>
      <trkpt lat="60.455164283663" lon="22.276727426209">
        <ele>5</ele>
        <time>2016-01-23T10:57:34Z</time>
      </trkpt>
      <trkpt lat="60.455164702758" lon="22.276726755657">
        <ele>5</ele>
        <time>2016-01-23T10:57:35Z</time>
      </trkpt>
      <trkpt lat="60.455165708586" lon="22.276726420381">
        <ele>5</ele>
        <time>2016-01-23T10:57:36Z</time>
      </trkpt>
      <trkpt lat="60.455166546776" lon="22.276725749829">
        <ele>5</ele>
        <time>2016-01-23T10:57:37Z</time>
      </trkpt>
      <trkpt lat="60.455166965871" lon="22.276724408725">
        <ele>5</ele>
        <time>2016-01-23T10:57:38Z</time>
      </trkpt>
      <trkpt lat="60.455166546776" lon="22.276721642698">
        <ele>5</ele>
        <time>2016-01-23T10:57:39Z</time>
      </trkpt>
      <trkpt lat="60.455165708586" lon="22.276718289938">
        <ele>5</ele>
        <time>2016-01-23T10:57:40Z</time>
      </trkpt>
      <trkpt lat="60.455164954215" lon="22.276715188635">
        <ele>5</ele>
        <time>2016-01-23T10:57:41Z</time>
      </trkpt>
      <trkpt lat="60.455165205672" lon="22.276712590246">
        <ele>5</ele>
        <time>2016-01-23T10:57:42Z</time>
      </trkpt>
      <trkpt lat="60.455165457129" lon="22.276710913866">
        <ele>5</ele>
        <time>2016-01-23T10:57:43Z</time>
      </trkpt>
      <trkpt lat="60.455165205672" lon="22.276709237486">
        <ele>5</ele>
        <time>2016-01-23T10:57:44Z</time>
      </trkpt>
      <trkpt lat="60.455165624767" lon="22.276707393468">
        <ele>5</ele>
        <time>2016-01-23T10:57:45Z</time>
      </trkpt>
      <trkpt lat="60.455166714414" lon="22.276706136183">
        <ele>5</ele>
        <time>2016-01-23T10:57:46Z</time>
      </trkpt>
      <trkpt lat="60.455166462957" lon="22.276704040708">
        <ele>5</ele>
        <time>2016-01-23T10:57:47Z</time>
      </trkpt>
      <trkpt lat="60.455171743554" lon="22.276700771767">
        <ele>5</ele>
        <time>2016-01-23T10:57:48Z</time>
      </trkpt>
      <trkpt lat="60.455168977527" lon="22.276700855586">
        <ele>5</ele>
        <time>2016-01-23T10:57:49Z</time>
      </trkpt>
      <trkpt lat="60.455181885653" lon="22.276698173378">
        <ele>5</ele>
        <time>2016-01-23T10:57:50Z</time>
      </trkpt>
      <trkpt lat="60.455191524838" lon="22.276695323532">
        <ele>5</ele>
        <time>2016-01-23T10:57:51Z</time>
      </trkpt>
      <trkpt lat="60.455201080204" lon="22.27669716755">
        <ele>5</ele>
        <time>2016-01-23T10:57:52Z</time>
      </trkpt>
      <trkpt lat="60.455215077977" lon="22.276699849758">
        <ele>5</ele>
        <time>2016-01-23T10:57:53Z</time>
      </trkpt>
      <trkpt lat="60.455231757958" lon="22.276701777595">
        <ele>5</ele>
        <time>2016-01-23T10:57:54Z</time>
      </trkpt>
      <trkpt lat="60.455251623061" lon="22.276711332961">
        <ele>5</ele>
        <time>2016-01-23T10:57:55Z</time>
      </trkpt>
      <trkpt lat="60.45527433801" lon="22.276717870843">
        <ele>5</ele>
        <time>2016-01-23T10:57:56Z</time>
      </trkpt>
      <trkpt lat="60.455291520905" lon="22.276715775368">
        <ele>5</ele>
        <time>2016-01-23T10:57:57Z</time>
      </trkpt>
      <trkpt lat="60.455319516451" lon="22.276724911639">
        <ele>5</ele>
        <time>2016-01-23T10:57:58Z</time>
      </trkpt>
      <trkpt lat="60.455340387382" lon="22.276730611331">
        <ele>5</ele>
        <time>2016-01-23T10:57:59Z</time>
      </trkpt>
      <trkpt lat="60.455361928865" lon="22.27673153334">
        <ele>5</ele>
        <time>2016-01-23T10:58:00Z</time>
      </trkpt>
      <trkpt lat="60.455385482004" lon="22.276739999059">
        <ele>5</ele>
        <time>2016-01-23T10:58:01Z</time>
      </trkpt>
      <trkpt lat="60.455400569424" lon="22.276742262172">
        <ele>5</ele>
        <time>2016-01-23T10:58:02Z</time>
      </trkpt>
      <trkpt lat="60.455416495034" lon="22.276747039855">
        <ele>5</ele>
        <time>2016-01-23T10:58:03Z</time>
      </trkpt>
      <trkpt lat="60.455426469495" lon="22.276747794226">
        <ele>5</ele>
        <time>2016-01-23T10:58:04Z</time>
      </trkpt>
      <trkpt lat="60.455433426472" lon="22.276748548597">
        <ele>5</ele>
        <time>2016-01-23T10:58:05Z</time>
      </trkpt>
      <trkpt lat="60.455439209983" lon="22.27674829714">
        <ele>5</ele>
        <time>2016-01-23T10:58:06Z</time>
      </trkpt>
      <trkpt lat="60.455444071485" lon="22.276744357647">
        <ele>5</ele>
        <time>2016-01-23T10:58:07Z</time>
      </trkpt>
      <trkpt lat="60.455451028462" lon="22.276745195837">
        <ele>5</ele>
        <time>2016-01-23T10:58:08Z</time>
      </trkpt>
      <trkpt lat="60.455458236896" lon="22.276742513629">
        <ele>5</ele>
        <time>2016-01-23T10:58:09Z</time>
      </trkpt>
      <trkpt lat="60.455473156678" lon="22.276746956036">
        <ele>5</ele>
        <time>2016-01-23T10:58:10Z</time>
      </trkpt>
      <trkpt lat="60.455482041492" lon="22.27674662076">
        <ele>5</ele>
        <time>2016-01-23T10:58:11Z</time>
      </trkpt>
      <trkpt lat="60.455493273238" lon="22.276751146986">
        <ele>5</ele>
        <time>2016-01-23T10:58:12Z</time>
      </trkpt>
      <trkpt lat="60.455502074233" lon="22.276753745375">
        <ele>5</ele>
        <time>2016-01-23T10:58:13Z</time>
      </trkpt>
      <trkpt lat="60.455508779753" lon="22.276750308796">
        <ele>5</ele>
        <time>2016-01-23T10:58:14Z</time>
      </trkpt>
      <trkpt lat="60.455518754214" lon="22.276756595221">
        <ele>5</ele>
        <time>2016-01-23T10:58:15Z</time>
      </trkpt>
      <trkpt lat="60.455524286268" lon="22.27675584085">
        <ele>5</ele>
        <time>2016-01-23T10:58:16Z</time>
      </trkpt>
      <trkpt lat="60.455536775299" lon="22.276764306569">
        <ele>5</ele>
        <time>2016-01-23T10:58:17Z</time>
      </trkpt>
      <trkpt lat="60.455548593778" lon="22.276764138931">
        <ele>5</ele>
        <time>2016-01-23T10:58:18Z</time>
      </trkpt>
      <trkpt lat="60.455558735877" lon="22.276767826967">
        <ele>5</ele>
        <time>2016-01-23T10:58:19Z</time>
      </trkpt>
      <trkpt lat="60.455567285415" lon="22.276769754804">
        <ele>5</ele>
        <time>2016-01-23T10:58:20Z</time>
      </trkpt>
      <trkpt lat="60.455572230736" lon="22.276770425356">
        <ele>5</ele>
        <time>2016-01-23T10:58:21Z</time>
      </trkpt>
      <trkpt lat="60.455568794157" lon="22.276768748976">
        <ele>5</ele>
        <time>2016-01-23T10:58:22Z</time>
      </trkpt>
      <trkpt lat="60.455576421686" lon="22.276769838623">
        <ele>5</ele>
        <time>2016-01-23T10:58:23Z</time>
      </trkpt>
      <trkpt lat="60.455578349523" lon="22.276769754804">
        <ele>5</ele>
        <time>2016-01-23T10:58:24Z</time>
      </trkpt>
      <trkpt lat="60.455579942084" lon="22.276769754804">
        <ele>5</ele>
        <time>2016-01-23T10:58:25Z</time>
      </trkpt>
      <trkpt lat="60.455582456654" lon="22.276769419528">
        <ele>5</ele>
        <time>2016-01-23T10:58:26Z</time>
      </trkpt>
      <trkpt lat="60.455583546301" lon="22.276769503347">
        <ele>5</ele>
        <time>2016-01-23T10:58:27Z</time>
      </trkpt>
      <trkpt lat="60.455583881577" lon="22.276768748976">
        <ele>5</ele>
        <time>2016-01-23T10:58:28Z</time>
      </trkpt>
      <trkpt lat="60.455590838554" lon="22.276769838623">
        <ele>5</ele>
        <time>2016-01-23T10:58:29Z</time>
      </trkpt>
      <trkpt lat="60.455598382264" lon="22.27677428103">
        <ele>5</ele>
        <time>2016-01-23T10:58:30Z</time>
      </trkpt>
      <trkpt lat="60.455607434716" lon="22.276776711781">
        <ele>5</ele>
        <time>2016-01-23T10:58:31Z</time>
      </trkpt>
      <trkpt lat="60.455621432489" lon="22.276782998206">
        <ele>5</ele>
        <time>2016-01-23T10:58:32Z</time>
      </trkpt>
      <trkpt lat="60.45563643609" lon="22.276787775889">
        <ele>5</ele>
        <time>2016-01-23T10:58:33Z</time>
      </trkpt>
      <trkpt lat="60.455648254569" lon="22.276789452269">
        <ele>5</ele>
        <time>2016-01-23T10:58:34Z</time>
      </trkpt>
      <trkpt lat="60.455657977573" lon="22.276794313771">
        <ele>5</ele>
        <time>2016-01-23T10:58:35Z</time>
      </trkpt>
      <trkpt lat="60.455669209319" lon="22.276798169445">
        <ele>5</ele>
        <time>2016-01-23T10:58:36Z</time>
      </trkpt>
      <trkpt lat="60.455676082477" lon="22.276799929644">
        <ele>5</ele>
        <time>2016-01-23T10:58:37Z</time>
      </trkpt>
      <trkpt lat="60.455682452721" lon="22.276800851653">
        <ele>5</ele>
        <time>2016-01-23T10:58:38Z</time>
      </trkpt>
      <trkpt lat="60.455687900956" lon="22.27680110311">
        <ele>5</ele>
        <time>2016-01-23T10:58:39Z</time>
      </trkpt>
      <trkpt lat="60.455697288684" lon="22.27680780863">
        <ele>5</ele>
        <time>2016-01-23T10:58:40Z</time>
      </trkpt>
      <trkpt lat="60.455704664756" lon="22.276803701499">
        <ele>5</ele>
        <time>2016-01-23T10:58:41Z</time>
      </trkpt>
      <trkpt lat="60.455719584538" lon="22.276812753951">
        <ele>5</ele>
        <time>2016-01-23T10:58:42Z</time>
      </trkpt>
      <trkpt lat="60.455731319198" lon="22.276811412847">
        <ele>5</ele>
        <time>2016-01-23T10:58:43Z</time>
      </trkpt>
      <trkpt lat="60.455746574256" lon="22.276821638765">
        <ele>5</ele>
        <time>2016-01-23T10:58:44Z</time>
      </trkpt>
      <trkpt lat="60.455756213441" lon="22.276820884394">
        <ele>5</ele>
        <time>2016-01-23T10:58:45Z</time>
      </trkpt>
      <trkpt lat="60.455775827087" lon="22.276833624882">
        <ele>5</ele>
        <time>2016-01-23T10:58:46Z</time>
      </trkpt>
      <trkpt lat="60.455786053005" lon="22.27683798347">
        <ele>5</ele>
        <time>2016-01-23T10:58:47Z</time>
      </trkpt>
      <trkpt lat="60.455800888968" lon="22.276843180248">
        <ele>5</ele>
        <time>2016-01-23T10:58:48Z</time>
      </trkpt>
      <trkpt lat="60.455814802922" lon="22.276848544664">
        <ele>5</ele>
        <time>2016-01-23T10:58:49Z</time>
      </trkpt>
      <trkpt lat="60.455828633057" lon="22.276853322347">
        <ele>5</ele>
        <time>2016-01-23T10:58:50Z</time>
      </trkpt>
      <trkpt lat="60.455840619174" lon="22.276857094202">
        <ele>5</ele>
        <time>2016-01-23T10:58:51Z</time>
      </trkpt>
      <trkpt lat="60.455853192024" lon="22.276862374799">
        <ele>5</ele>
        <time>2016-01-23T10:58:52Z</time>
      </trkpt>
      <trkpt lat="60.455860651915" lon="22.276864134998">
        <ele>5</ele>
        <time>2016-01-23T10:58:53Z</time>
      </trkpt>
      <trkpt lat="60.455872721851" lon="22.276869415595">
        <ele>5</ele>
        <time>2016-01-23T10:58:54Z</time>
      </trkpt>
      <trkpt lat="60.455883115407" lon="22.276873690364">
        <ele>5</ele>
        <time>2016-01-23T10:58:55Z</time>
      </trkpt>
      <trkpt lat="60.455894179515" lon="22.276876204934">
        <ele>5</ele>
        <time>2016-01-23T10:58:56Z</time>
      </trkpt>
      <trkpt lat="60.455904070157" lon="22.276878468047">
        <ele>5</ele>
        <time>2016-01-23T10:58:57Z</time>
      </trkpt>
      <trkpt lat="60.455911697686" lon="22.276881401712">
        <ele>5</ele>
        <time>2016-01-23T10:58:58Z</time>
      </trkpt>
      <trkpt lat="60.455906668546" lon="22.276878887142">
        <ele>5</ele>
        <time>2016-01-23T10:58:59Z</time>
      </trkpt>
      <trkpt lat="60.455914296075" lon="22.276881401712">
        <ele>5</ele>
        <time>2016-01-23T10:59:00Z</time>
      </trkpt>
      <trkpt lat="60.455914296075" lon="22.276880395884">
        <ele>5</ele>
        <time>2016-01-23T10:59:01Z</time>
      </trkpt>
      <trkpt lat="60.455914798989" lon="22.276877126943">
        <ele>5</ele>
        <time>2016-01-23T10:59:02Z</time>
      </trkpt>
      <trkpt lat="60.455915469541" lon="22.276874109459">
        <ele>5</ele>
        <time>2016-01-23T10:59:03Z</time>
      </trkpt>
      <trkpt lat="60.455915972455" lon="22.276871343432">
        <ele>5</ele>
        <time>2016-01-23T10:59:04Z</time>
      </trkpt>
      <trkpt lat="60.455915972455" lon="22.27686983469">
        <ele>5</ele>
        <time>2016-01-23T10:59:05Z</time>
      </trkpt>
      <trkpt lat="60.45591639155" lon="22.276868661224">
        <ele>5</ele>
        <time>2016-01-23T10:59:06Z</time>
      </trkpt>
      <trkpt lat="60.455917145921" lon="22.276867655396">
        <ele>5</ele>
        <time>2016-01-23T10:59:07Z</time>
      </trkpt>
      <trkpt lat="60.45591806793" lon="22.276866565749">
        <ele>5</ele>
        <time>2016-01-23T10:59:08Z</time>
      </trkpt>
      <trkpt lat="60.455918487025" lon="22.276864470274">
        <ele>5</ele>
        <time>2016-01-23T10:59:09Z</time>
      </trkpt>
      <trkpt lat="60.455918654663" lon="22.27686312917">
        <ele>5</ele>
        <time>2016-01-23T10:59:10Z</time>
      </trkpt>
      <trkpt lat="60.45591890612" lon="22.276863045351">
        <ele>5</ele>
        <time>2016-01-23T10:59:11Z</time>
      </trkpt>
      <trkpt lat="60.455918989939" lon="22.276863296808">
        <ele>5</ele>
        <time>2016-01-23T10:59:12Z</time>
      </trkpt>
      <trkpt lat="60.455919157577" lon="22.276863548265">
        <ele>5</ele>
        <time>2016-01-23T10:59:13Z</time>
      </trkpt>
      <trkpt lat="60.455919241396" lon="22.276863715903">
        <ele>5</ele>
        <time>2016-01-23T10:59:14Z</time>
      </trkpt>
      <trkpt lat="60.45591974431" lon="22.276863632084">
        <ele>5</ele>
        <time>2016-01-23T10:59:15Z</time>
      </trkpt>
      <trkpt lat="60.45591974431" lon="22.276863799722">
        <ele>5</ele>
        <time>2016-01-23T10:59:16Z</time>
      </trkpt>
      <trkpt lat="60.455919241396" lon="22.276862961532">
        <ele>5</ele>
        <time>2016-01-23T10:59:17Z</time>
      </trkpt>
      <trkpt lat="60.455919492853" lon="22.276862961532">
        <ele>5</ele>
        <time>2016-01-23T10:59:18Z</time>
      </trkpt>
      <trkpt lat="60.455919911948" lon="22.276863548265">
        <ele>5</ele>
        <time>2016-01-23T10:59:19Z</time>
      </trkpt>
      <trkpt lat="60.455919492853" lon="22.276861620428">
        <ele>5</ele>
        <time>2016-01-23T10:59:20Z</time>
      </trkpt>
      <trkpt lat="60.455919911948" lon="22.276857513297">
        <ele>5</ele>
        <time>2016-01-23T10:59:21Z</time>
      </trkpt>
      <trkpt lat="60.455920917776" lon="22.276854495813">
        <ele>5</ele>
        <time>2016-01-23T10:59:22Z</time>
      </trkpt>
      <trkpt lat="60.455921169233" lon="22.276851645967">
        <ele>5</ele>
        <time>2016-01-23T10:59:23Z</time>
      </trkpt>
      <trkpt lat="60.45592142069" lon="22.276848544664">
        <ele>5</ele>
        <time>2016-01-23T10:59:24Z</time>
      </trkpt>
      <trkpt lat="60.455921755966" lon="22.276846030094">
        <ele>5</ele>
        <time>2016-01-23T10:59:25Z</time>
      </trkpt>
      <trkpt lat="60.455922007423" lon="22.276844856628">
        <ele>5</ele>
        <time>2016-01-23T10:59:26Z</time>
      </trkpt>
      <trkpt lat="60.45592225888" lon="22.276843599343">
        <ele>5</ele>
        <time>2016-01-23T10:59:27Z</time>
      </trkpt>
      <trkpt lat="60.455922761794" lon="22.276841168592">
        <ele>5</ele>
        <time>2016-01-23T10:59:28Z</time>
      </trkpt>
      <trkpt lat="60.45592309707" lon="22.276839827488">
        <ele>5</ele>
        <time>2016-01-23T10:59:29Z</time>
      </trkpt>
      <trkpt lat="60.455923264708" lon="22.276838570203">
        <ele>5</ele>
        <time>2016-01-23T10:59:30Z</time>
      </trkpt>
      <trkpt lat="60.455923348527" lon="22.276838318746">
        <ele>5</ele>
        <time>2016-01-23T10:59:31Z</time>
      </trkpt>
      <trkpt lat="60.455923264708" lon="22.276838570203">
        <ele>5</ele>
        <time>2016-01-23T10:59:32Z</time>
      </trkpt>
      <trkpt lat="60.455923599984" lon="22.276837899651">
        <ele>5</ele>
        <time>2016-01-23T10:59:33Z</time>
      </trkpt>
      <trkpt lat="60.455923683803" lon="22.276837899651">
        <ele>5</ele>
        <time>2016-01-23T10:59:34Z</time>
      </trkpt>
      <trkpt lat="60.455923599984" lon="22.276838654022">
        <ele>5</ele>
        <time>2016-01-23T10:59:35Z</time>
      </trkpt>
      <trkpt lat="60.455923348527" lon="22.276839240755">
        <ele>5</ele>
        <time>2016-01-23T10:59:36Z</time>
      </trkpt>
      <trkpt lat="60.455923180889" lon="22.276838570203">
        <ele>5</ele>
        <time>2016-01-23T10:59:37Z</time>
      </trkpt>
      <trkpt lat="60.455922175061" lon="22.276836810004">
        <ele>5</ele>
        <time>2016-01-23T10:59:38Z</time>
      </trkpt>
      <trkpt lat="60.455922594156" lon="22.276834127796">
        <ele>5</ele>
        <time>2016-01-23T10:59:39Z</time>
      </trkpt>
      <trkpt lat="60.455923767622" lon="22.276831697045">
        <ele>5</ele>
        <time>2016-01-23T10:59:40Z</time>
      </trkpt>
      <trkpt lat="60.45592477345" lon="22.276832367597">
        <ele>5</ele>
        <time>2016-01-23T10:59:41Z</time>
      </trkpt>
      <trkpt lat="60.455924689631" lon="22.276833457244">
        <ele>5</ele>
        <time>2016-01-23T10:59:42Z</time>
      </trkpt>
      <trkpt lat="60.455923851441" lon="22.276835217443">
        <ele>5</ele>
        <time>2016-01-23T10:59:43Z</time>
      </trkpt>
      <trkpt lat="60.455923180889" lon="22.276836893823">
        <ele>5</ele>
        <time>2016-01-23T10:59:44Z</time>
      </trkpt>
      <trkpt lat="60.455922510337" lon="22.276838067289">
        <ele>5</ele>
        <time>2016-01-23T10:59:45Z</time>
      </trkpt>
      <trkpt lat="60.455922175061" lon="22.276839492212">
        <ele>5</ele>
        <time>2016-01-23T10:59:46Z</time>
      </trkpt>
      <trkpt lat="60.455922677975" lon="22.276839743669">
        <ele>5</ele>
        <time>2016-01-23T10:59:47Z</time>
      </trkpt>
      <trkpt lat="60.455924186717" lon="22.276839827488">
        <ele>5</ele>
        <time>2016-01-23T10:59:48Z</time>
      </trkpt>
      <trkpt lat="60.455923767622" lon="22.276841000954">
        <ele>5</ele>
        <time>2016-01-23T10:59:49Z</time>
      </trkpt>
      <trkpt lat="60.455922091242" lon="22.276842593515">
        <ele>4.8</ele>
        <time>2016-01-23T10:59:50Z</time>
      </trkpt>
      <trkpt lat="60.455920247224" lon="22.276843934619">
        <ele>4.4</ele>
        <time>2016-01-23T10:59:51Z</time>
      </trkpt>
      <trkpt lat="60.455919576672" lon="22.276844269895">
        <ele>3.8</ele>
        <time>2016-01-23T10:59:52Z</time>
      </trkpt>
      <trkpt lat="60.455920247224" lon="22.276844102257">
        <ele>3.6</ele>
        <time>2016-01-23T10:59:53Z</time>
      </trkpt>
      <trkpt lat="60.455920414862" lon="22.27684552718">
        <ele>3.2</ele>
        <time>2016-01-23T10:59:54Z</time>
      </trkpt>
      <trkpt lat="60.455920163405" lon="22.276845862456">
        <ele>2.6</ele>
        <time>2016-01-23T10:59:55Z</time>
      </trkpt>
      <trkpt lat="60.455919995767" lon="22.276846533008">
        <ele>2.6</ele>
        <time>2016-01-23T10:59:56Z</time>
      </trkpt>
      <trkpt lat="60.455919660491" lon="22.276848460845">
        <ele>2.6</ele>
        <time>2016-01-23T10:59:57Z</time>
      </trkpt>
      <trkpt lat="60.455919576672" lon="22.276849634311">
        <ele>2.6</ele>
        <time>2016-01-23T10:59:58Z</time>
      </trkpt>
      <trkpt lat="60.455919660491" lon="22.276850304863">
        <ele>2.6</ele>
        <time>2016-01-23T10:59:59Z</time>
      </trkpt>
      <trkpt lat="60.455920247224" lon="22.27685139451">
        <ele>2.6</ele>
        <time>2016-01-23T11:00:00Z</time>
      </trkpt>
      <trkpt lat="60.455920917776" lon="22.276852400338">
        <ele>2.6</ele>
        <time>2016-01-23T11:00:01Z</time>
      </trkpt>
      <trkpt lat="60.455920917776" lon="22.27685307089">
        <ele>2.6</ele>
        <time>2016-01-23T11:00:02Z</time>
      </trkpt>
      <trkpt lat="60.455920498681" lon="22.276853992899">
        <ele>2.6</ele>
        <time>2016-01-23T11:00:03Z</time>
      </trkpt>
      <trkpt lat="60.455920666319" lon="22.276856256012">
        <ele>2.6</ele>
        <time>2016-01-23T11:00:04Z</time>
      </trkpt>
      <trkpt lat="60.4559205825" lon="22.276860949876">
        <ele>2.6</ele>
        <time>2016-01-23T11:00:05Z</time>
      </trkpt>
      <trkpt lat="60.455920247224" lon="22.276865308464">
        <ele>2.6</ele>
        <time>2016-01-23T11:00:06Z</time>
      </trkpt>
      <trkpt lat="60.455919995767" lon="22.276866565749">
        <ele>2.6</ele>
        <time>2016-01-23T11:00:07Z</time>
      </trkpt>
      <trkpt lat="60.455920079586" lon="22.276866817206">
        <ele>2.6</ele>
        <time>2016-01-23T11:00:08Z</time>
      </trkpt>
      <trkpt lat="60.455920163405" lon="22.276867152482">
        <ele>2.6</ele>
        <time>2016-01-23T11:00:09Z</time>
      </trkpt>
      <trkpt lat="60.455920247224" lon="22.27686732012">
        <ele>2.6</ele>
        <time>2016-01-23T11:00:10Z</time>
      </trkpt>
      <trkpt lat="60.455920750138" lon="22.276866062835">
        <ele>2.6</ele>
        <time>2016-01-23T11:00:11Z</time>
      </trkpt>
      <trkpt lat="60.455919660491" lon="22.276864134998">
        <ele>2.6</ele>
        <time>2016-01-23T11:00:12Z</time>
      </trkpt>
      <trkpt lat="60.455919157577" lon="22.276864134998">
        <ele>2.6</ele>
        <time>2016-01-23T11:00:13Z</time>
      </trkpt>
      <trkpt lat="60.455919995767" lon="22.276864218817">
        <ele>2.6</ele>
        <time>2016-01-23T11:00:14Z</time>
      </trkpt>
      <trkpt lat="60.455920498681" lon="22.276864889369">
        <ele>2.6</ele>
        <time>2016-01-23T11:00:15Z</time>
      </trkpt>
      <trkpt lat="60.455920750138" lon="22.276864889369">
        <ele>2.6</ele>
        <time>2016-01-23T11:00:16Z</time>
      </trkpt>
      <trkpt lat="60.455921504509" lon="22.276864051179">
        <ele>2.6</ele>
        <time>2016-01-23T11:00:17Z</time>
      </trkpt>
      <trkpt lat="60.455922007423" lon="22.276864637912">
        <ele>2.6</ele>
        <time>2016-01-23T11:00:18Z</time>
      </trkpt>
      <trkpt lat="60.455921755966" lon="22.276866146654">
        <ele>2.6</ele>
        <time>2016-01-23T11:00:19Z</time>
      </trkpt>
      <trkpt lat="60.455922007423" lon="22.276866146654">
        <ele>2.6</ele>
        <time>2016-01-23T11:00:20Z</time>
      </trkpt>
      <trkpt lat="60.455921923604" lon="22.276866314292">
        <ele>2.6</ele>
        <time>2016-01-23T11:00:21Z</time>
      </trkpt>
      <trkpt lat="60.455921588328" lon="22.276866649568">
        <ele>2.6</ele>
        <time>2016-01-23T11:00:22Z</time>
      </trkpt>
      <trkpt lat="60.455921253052" lon="22.276866398111">
        <ele>2.6</ele>
        <time>2016-01-23T11:00:23Z</time>
      </trkpt>
      <trkpt lat="60.45592142069" lon="22.276867152482">
        <ele>2.6</ele>
        <time>2016-01-23T11:00:24Z</time>
      </trkpt>
      <trkpt lat="60.455921672147" lon="22.276866649568">
        <ele>2.6</ele>
        <time>2016-01-23T11:00:25Z</time>
      </trkpt>
      <trkpt lat="60.455921755966" lon="22.276866817206">
        <ele>2.6</ele>
        <time>2016-01-23T11:00:26Z</time>
      </trkpt>
      <trkpt lat="60.455922175061" lon="22.276866565749">
        <ele>2.6</ele>
        <time>2016-01-23T11:00:27Z</time>
      </trkpt>
      <trkpt lat="60.455922677975" lon="22.276866062835">
        <ele>2.6</ele>
        <time>2016-01-23T11:00:28Z</time>
      </trkpt>
      <trkpt lat="60.45592309707" lon="22.276864889369">
        <ele>2.6</ele>
        <time>2016-01-23T11:00:29Z</time>
      </trkpt>
      <trkpt lat="60.455923180889" lon="22.27686396736">
        <ele>2.6</ele>
        <time>2016-01-23T11:00:30Z</time>
      </trkpt>
      <trkpt lat="60.455922761794" lon="22.276863464446">
        <ele>2.6</ele>
        <time>2016-01-23T11:00:31Z</time>
      </trkpt>
      <trkpt lat="60.455922594156" lon="22.276862458618">
        <ele>3</ele>
        <time>2016-01-23T11:00:32Z</time>
      </trkpt>
      <trkpt lat="60.455922594156" lon="22.276862458618">
        <ele>3.2</ele>
        <time>2016-01-23T11:00:33Z</time>
      </trkpt>
      <trkpt lat="60.45592225888" lon="22.276861536609">
        <ele>3.6</ele>
        <time>2016-01-23T11:00:34Z</time>
      </trkpt>
      <trkpt lat="60.45592225888" lon="22.276861536609">
        <ele>3.6</ele>
        <time>2016-01-23T11:00:35Z</time>
      </trkpt>
      <trkpt lat="60.45592225888" lon="22.276861033695">
        <ele>3.6</ele>
        <time>2016-01-23T11:00:36Z</time>
      </trkpt>
      <trkpt lat="60.455922845613" lon="22.276862039523">
        <ele>3.8</ele>
        <time>2016-01-23T11:00:37Z</time>
      </trkpt>
      <trkpt lat="60.455924605812" lon="22.276862793894">
        <ele>4.2</ele>
        <time>2016-01-23T11:00:38Z</time>
      </trkpt>
      <trkpt lat="60.455928210029" lon="22.276863296808">
        <ele>4.2</ele>
        <time>2016-01-23T11:00:39Z</time>
      </trkpt>
      <trkpt lat="60.455929383495" lon="22.276863464446">
        <ele>4.2</ele>
        <time>2016-01-23T11:00:40Z</time>
      </trkpt>
      <trkpt lat="60.455929970228" lon="22.276863296808">
        <ele>4.2</ele>
        <time>2016-01-23T11:00:41Z</time>
      </trkpt>
      <trkpt lat="60.455930054047" lon="22.276862207161">
        <ele>4.2</ele>
        <time>2016-01-23T11:00:42Z</time>
      </trkpt>
      <trkpt lat="60.455930976056" lon="22.276864051179">
        <ele>4.2</ele>
        <time>2016-01-23T11:00:43Z</time>
      </trkpt>
      <trkpt lat="60.45593315535" lon="22.276865811378">
        <ele>4.2</ele>
        <time>2016-01-23T11:00:44Z</time>
      </trkpt>
      <trkpt lat="60.455935083187" lon="22.276865559921">
        <ele>4.2</ele>
        <time>2016-01-23T11:00:45Z</time>
      </trkpt>
      <trkpt lat="60.455937178662" lon="22.27686480555">
        <ele>4.2</ele>
        <time>2016-01-23T11:00:46Z</time>
      </trkpt>
      <trkpt lat="60.455939106499" lon="22.276864218817">
        <ele>4.2</ele>
        <time>2016-01-23T11:00:47Z</time>
      </trkpt>
      <trkpt lat="60.455940782879" lon="22.276862961532">
        <ele>4.2</ele>
        <time>2016-01-23T11:00:48Z</time>
      </trkpt>
      <trkpt lat="60.455942794535" lon="22.276861201333">
        <ele>4.2</ele>
        <time>2016-01-23T11:00:49Z</time>
      </trkpt>
      <trkpt lat="60.45594405182" lon="22.27686229098">
        <ele>4.2</ele>
        <time>2016-01-23T11:00:50Z</time>
      </trkpt>
      <trkpt lat="60.455945309105" lon="22.276863715903">
        <ele>4.2</ele>
        <time>2016-01-23T11:00:51Z</time>
      </trkpt>
      <trkpt lat="60.455945309105" lon="22.276863715903">
        <ele>4.2</ele>
        <time>2016-01-23T11:00:52Z</time>
      </trkpt>
      <trkpt lat="60.455946901666" lon="22.276864889369">
        <ele>4.2</ele>
        <time>2016-01-23T11:00:53Z</time>
      </trkpt>
      <trkpt lat="60.455949667693" lon="22.276868409767">
        <ele>4.2</ele>
        <time>2016-01-23T11:00:54Z</time>
      </trkpt>
      <trkpt lat="60.45595075734" lon="22.276867655396">
        <ele>4.2</ele>
        <time>2016-01-23T11:00:55Z</time>
      </trkpt>
      <trkpt lat="60.455952601358" lon="22.276865811378">
        <ele>4.2</ele>
        <time>2016-01-23T11:00:56Z</time>
      </trkpt>
      <trkpt lat="60.455954780652" lon="22.276867152482">
        <ele>4.2</ele>
        <time>2016-01-23T11:00:57Z</time>
      </trkpt>
      <trkpt lat="60.455958887783" lon="22.276869080319">
        <ele>4.2</ele>
        <time>2016-01-23T11:00:58Z</time>
      </trkpt>
      <trkpt lat="60.455958468688" lon="22.276868912681">
        <ele>4.2</ele>
        <time>2016-01-23T11:00:59Z</time>
      </trkpt>
      <trkpt lat="60.455963749285" lon="22.276876288753">
        <ele>4.2</ele>
        <time>2016-01-23T11:01:00Z</time>
      </trkpt>
      <trkpt lat="60.455965341846" lon="22.276878887142">
        <ele>4.2</ele>
        <time>2016-01-23T11:01:01Z</time>
      </trkpt>
      <trkpt lat="60.455966599131" lon="22.27688073116">
        <ele>4.2</ele>
        <time>2016-01-23T11:01:02Z</time>
      </trkpt>
      <trkpt lat="60.455967269683" lon="22.276884838291">
        <ele>4.2</ele>
        <time>2016-01-23T11:01:03Z</time>
      </trkpt>
      <trkpt lat="60.455970622443" lon="22.276887185223">
        <ele>4.2</ele>
        <time>2016-01-23T11:01:04Z</time>
      </trkpt>
      <trkpt lat="60.455970287167" lon="22.276887101404">
        <ele>4.2</ele>
        <time>2016-01-23T11:01:05Z</time>
      </trkpt>
      <trkpt lat="60.455976154497" lon="22.276889867431">
        <ele>4.2</ele>
        <time>2016-01-23T11:01:06Z</time>
      </trkpt>
      <trkpt lat="60.455977411782" lon="22.276891795268">
        <ele>4.2</ele>
        <time>2016-01-23T11:01:07Z</time>
      </trkpt>
      <trkpt lat="60.45597757942" lon="22.276891459992">
        <ele>4.2</ele>
        <time>2016-01-23T11:01:08Z</time>
      </trkpt>
      <trkpt lat="60.45597841761" lon="22.276892717277">
        <ele>4.2</ele>
        <time>2016-01-23T11:01:09Z</time>
      </trkpt>
      <trkpt lat="60.455981938008" lon="22.276894477476">
        <ele>4.2</ele>
        <time>2016-01-23T11:01:10Z</time>
      </trkpt>
      <trkpt lat="60.455987553881" lon="22.276894812752">
        <ele>4.2</ele>
        <time>2016-01-23T11:01:11Z</time>
      </trkpt>
      <trkpt lat="60.455993672668" lon="22.276897997874">
        <ele>4.2</ele>
        <time>2016-01-23T11:01:12Z</time>
      </trkpt>
      <trkpt lat="60.456000964921" lon="22.276901015358">
        <ele>4.2</ele>
        <time>2016-01-23T11:01:13Z</time>
      </trkpt>
      <trkpt lat="60.456012112848" lon="22.276905457765">
        <ele>4.2</ele>
        <time>2016-01-23T11:01:14Z</time>
      </trkpt>
      <trkpt lat="60.45602367987" lon="22.276908894344">
        <ele>4.2</ele>
        <time>2016-01-23T11:01:15Z</time>
      </trkpt>
      <trkpt lat="60.456034995435" lon="22.276913504389">
        <ele>4.2</ele>
        <time>2016-01-23T11:01:16Z</time>
      </trkpt>
      <trkpt lat="60.456049412303" lon="22.276921048099">
        <ele>4.2</ele>
        <time>2016-01-23T11:01:17Z</time>
      </trkpt>
      <trkpt lat="60.456063410076" lon="22.276926999248">
        <ele>4.2</ele>
        <time>2016-01-23T11:01:18Z</time>
      </trkpt>
      <trkpt lat="60.456075982926" lon="22.27693186075">
        <ele>4.2</ele>
        <time>2016-01-23T11:01:19Z</time>
      </trkpt>
      <trkpt lat="60.456087717586" lon="22.276938901546">
        <ele>4.2</ele>
        <time>2016-01-23T11:01:20Z</time>
      </trkpt>
      <trkpt lat="60.456096267124" lon="22.276943092496">
        <ele>4.2</ele>
        <time>2016-01-23T11:01:21Z</time>
      </trkpt>
      <trkpt lat="60.456104062291" lon="22.276944685057">
        <ele>4.2</ele>
        <time>2016-01-23T11:01:22Z</time>
      </trkpt>
      <trkpt lat="60.45611252801" lon="22.276951474396">
        <ele>4.2</ele>
        <time>2016-01-23T11:01:23Z</time>
      </trkpt>
      <trkpt lat="60.456122167195" lon="22.276956419717">
        <ele>4.2</ele>
        <time>2016-01-23T11:01:24Z</time>
      </trkpt>
      <trkpt lat="60.456121496643" lon="22.276956000622">
        <ele>4.2</ele>
        <time>2016-01-23T11:01:25Z</time>
      </trkpt>
      <trkpt lat="60.456125017041" lon="22.276956000622">
        <ele>4.4</ele>
        <time>2016-01-23T11:01:26Z</time>
      </trkpt>
      <trkpt lat="60.456125184679" lon="22.276953988966">
        <ele>4.4</ele>
        <time>2016-01-23T11:01:27Z</time>
      </trkpt>
      <trkpt lat="60.456125184679" lon="22.276953988966">
        <ele>4.4</ele>
        <time>2016-01-23T11:01:28Z</time>
      </trkpt>
      <trkpt lat="60.456126190507" lon="22.276953905147">
        <ele>4.4</ele>
        <time>2016-01-23T11:01:29Z</time>
      </trkpt>
      <trkpt lat="60.456126274326" lon="22.276954910975">
        <ele>4.4</ele>
        <time>2016-01-23T11:01:30Z</time>
      </trkpt>
      <trkpt lat="60.456126274326" lon="22.276956000622">
        <ele>4.4</ele>
        <time>2016-01-23T11:01:31Z</time>
      </trkpt>
      <trkpt lat="60.456126190507" lon="22.276957593183">
        <ele>4.4</ele>
        <time>2016-01-23T11:01:32Z</time>
      </trkpt>
      <trkpt lat="60.456126106688" lon="22.276959269563">
        <ele>4.4</ele>
        <time>2016-01-23T11:01:33Z</time>
      </trkpt>
      <trkpt lat="60.456126106688" lon="22.276959269563">
        <ele>4.4</ele>
        <time>2016-01-23T11:01:34Z</time>
      </trkpt>
      <trkpt lat="60.456126106688" lon="22.276960526848">
        <ele>4.4</ele>
        <time>2016-01-23T11:01:35Z</time>
      </trkpt>
      <trkpt lat="60.456125687593" lon="22.276961616495">
        <ele>4.4</ele>
        <time>2016-01-23T11:01:36Z</time>
      </trkpt>
      <trkpt lat="60.45612510086" lon="22.276962706142">
        <ele>4.4</ele>
        <time>2016-01-23T11:01:37Z</time>
      </trkpt>
      <trkpt lat="60.456124681765" lon="22.276964214884">
        <ele>4.4</ele>
        <time>2016-01-23T11:01:38Z</time>
      </trkpt>
      <trkpt lat="60.456124346489" lon="22.276965639807">
        <ele>4.4</ele>
        <time>2016-01-23T11:01:39Z</time>
      </trkpt>
      <trkpt lat="60.456124095032" lon="22.276966561816">
        <ele>4.4</ele>
        <time>2016-01-23T11:01:40Z</time>
      </trkpt>
      <trkpt lat="60.456123843575" lon="22.276967316187">
        <ele>4.4</ele>
        <time>2016-01-23T11:01:41Z</time>
      </trkpt>
      <trkpt lat="60.456123759756" lon="22.276968154377">
        <ele>4.4</ele>
        <time>2016-01-23T11:01:42Z</time>
      </trkpt>
      <trkpt lat="60.456123592118" lon="22.276969411662">
        <ele>4.4</ele>
        <time>2016-01-23T11:01:43Z</time>
      </trkpt>
      <trkpt lat="60.456123256842" lon="22.276970836585">
        <ele>4.4</ele>
        <time>2016-01-23T11:01:44Z</time>
      </trkpt>
      <trkpt lat="60.456123173023" lon="22.276972261508">
        <ele>4.4</ele>
        <time>2016-01-23T11:01:45Z</time>
      </trkpt>
      <trkpt lat="60.456123256842" lon="22.276973099698">
        <ele>4.4</ele>
        <time>2016-01-23T11:01:46Z</time>
      </trkpt>
      <trkpt lat="60.456123843575" lon="22.276972429146">
        <ele>4.4</ele>
        <time>2016-01-23T11:01:47Z</time>
      </trkpt>
      <trkpt lat="60.456124849403" lon="22.276972512965">
        <ele>4.4</ele>
        <time>2016-01-23T11:01:48Z</time>
      </trkpt>
      <trkpt lat="60.45612677724" lon="22.276974021707">
        <ele>4.4</ele>
        <time>2016-01-23T11:01:49Z</time>
      </trkpt>
      <trkpt lat="60.456128956534" lon="22.276974524621">
        <ele>4.4</ele>
        <time>2016-01-23T11:01:50Z</time>
      </trkpt>
      <trkpt lat="60.45613180638" lon="22.276975111354">
        <ele>4.4</ele>
        <time>2016-01-23T11:01:51Z</time>
      </trkpt>
      <trkpt lat="60.456135075321" lon="22.276974189345">
        <ele>4.4</ele>
        <time>2016-01-23T11:01:52Z</time>
      </trkpt>
      <trkpt lat="60.456136416425" lon="22.276971842413">
        <ele>4.4</ele>
        <time>2016-01-23T11:01:53Z</time>
      </trkpt>
      <trkpt lat="60.456136919339" lon="22.276968992567">
        <ele>4.4</ele>
        <time>2016-01-23T11:01:54Z</time>
      </trkpt>
      <trkpt lat="60.456138008986" lon="22.276966729454">
        <ele>4.4</ele>
        <time>2016-01-23T11:01:55Z</time>
      </trkpt>
      <trkpt lat="60.456139601547" lon="22.27696455016">
        <ele>4.4</ele>
        <time>2016-01-23T11:01:56Z</time>
      </trkpt>
      <trkpt lat="60.456141780841" lon="22.276962789961">
        <ele>4.4</ele>
        <time>2016-01-23T11:01:57Z</time>
      </trkpt>
      <trkpt lat="60.456145552696" lon="22.276963209056">
        <ele>4.4</ele>
        <time>2016-01-23T11:01:58Z</time>
      </trkpt>
      <trkpt lat="60.456145049782" lon="22.276963041418">
        <ele>4.4</ele>
        <time>2016-01-23T11:01:59Z</time>
      </trkpt>
      <trkpt lat="60.456145049782" lon="22.276963041418">
        <ele>4.4</ele>
        <time>2016-01-23T11:02:00Z</time>
      </trkpt>
      <trkpt lat="60.456155946252" lon="22.276968238196">
        <ele>4.4</ele>
        <time>2016-01-23T11:02:01Z</time>
      </trkpt>
      <trkpt lat="60.456161478306" lon="22.276968908748">
        <ele>4.4</ele>
        <time>2016-01-23T11:02:02Z</time>
      </trkpt>
      <trkpt lat="60.456165669256" lon="22.27697209387">
        <ele>4.4</ele>
        <time>2016-01-23T11:02:03Z</time>
      </trkpt>
      <trkpt lat="60.456170111663" lon="22.276970836585">
        <ele>4.4</ele>
        <time>2016-01-23T11:02:04Z</time>
      </trkpt>
      <trkpt lat="60.456185618178" lon="22.276975698087">
        <ele>4.4</ele>
        <time>2016-01-23T11:02:05Z</time>
      </trkpt>
      <trkpt lat="60.456191569327" lon="22.276978715571">
        <ele>4.4</ele>
        <time>2016-01-23T11:02:06Z</time>
      </trkpt>
      <trkpt lat="60.456191150232" lon="22.276978296476">
        <ele>4.4</ele>
        <time>2016-01-23T11:02:07Z</time>
      </trkpt>
      <trkpt lat="60.45620137615" lon="22.276980056675">
        <ele>4.4</ele>
        <time>2016-01-23T11:02:08Z</time>
      </trkpt>
      <trkpt lat="60.456208416946" lon="22.276980391951">
        <ele>4.4</ele>
        <time>2016-01-23T11:02:09Z</time>
      </trkpt>
      <trkpt lat="60.456215122466" lon="22.276981062503">
        <ele>4.4</ele>
        <time>2016-01-23T11:02:10Z</time>
      </trkpt>
      <trkpt lat="60.456223923461" lon="22.276984163806">
        <ele>4.4</ele>
        <time>2016-01-23T11:02:11Z</time>
      </trkpt>
      <trkpt lat="60.456232808275" lon="22.276986259281">
        <ele>4.4</ele>
        <time>2016-01-23T11:02:12Z</time>
      </trkpt>
      <trkpt lat="60.456242615098" lon="22.276989192946">
        <ele>4.4</ele>
        <time>2016-01-23T11:02:13Z</time>
      </trkpt>
      <trkpt lat="60.456250913179" lon="22.27699137224">
        <ele>4.4</ele>
        <time>2016-01-23T11:02:14Z</time>
      </trkpt>
      <trkpt lat="60.456262731658" lon="22.27699388681">
        <ele>4.4</ele>
        <time>2016-01-23T11:02:15Z</time>
      </trkpt>
      <trkpt lat="60.456272035567" lon="22.276997658665">
        <ele>4.4</ele>
        <time>2016-01-23T11:02:16Z</time>
      </trkpt>
      <trkpt lat="60.456280249829" lon="22.276999502683">
        <ele>4.4</ele>
        <time>2016-01-23T11:02:17Z</time>
      </trkpt>
      <trkpt lat="60.456291565394" lon="22.277005034737">
        <ele>4.4</ele>
        <time>2016-01-23T11:02:18Z</time>
      </trkpt>
      <trkpt lat="60.456301539855" lon="22.277007549307">
        <ele>4.4</ele>
        <time>2016-01-23T11:02:19Z</time>
      </trkpt>
      <trkpt lat="60.456310508488" lon="22.27700897423">
        <ele>4.4</ele>
        <time>2016-01-23T11:02:20Z</time>
      </trkpt>
      <trkpt lat="60.456318638931" lon="22.277013668094">
        <ele>4.4</ele>
        <time>2016-01-23T11:02:21Z</time>
      </trkpt>
      <trkpt lat="60.456323332795" lon="22.277010482972">
        <ele>4.4</ele>
        <time>2016-01-23T11:02:22Z</time>
      </trkpt>
      <trkpt lat="60.456330373591" lon="22.277011991714">
        <ele>4.4</ele>
        <time>2016-01-23T11:02:23Z</time>
      </trkpt>
      <trkpt lat="60.456337414387" lon="22.277014506284">
        <ele>4.4</ele>
        <time>2016-01-23T11:02:24Z</time>
      </trkpt>
      <trkpt lat="60.456347556486" lon="22.277015763569">
        <ele>4.4</ele>
        <time>2016-01-23T11:02:25Z</time>
      </trkpt>
      <trkpt lat="60.456355351653" lon="22.27701735613">
        <ele>4.4</ele>
        <time>2016-01-23T11:02:26Z</time>
      </trkpt>
      <trkpt lat="60.456368343598" lon="22.277021966175">
        <ele>4.4</ele>
        <time>2016-01-23T11:02:27Z</time>
      </trkpt>
      <trkpt lat="60.456379491525" lon="22.277025402754">
        <ele>4.4</ele>
        <time>2016-01-23T11:02:28Z</time>
      </trkpt>
      <trkpt lat="60.456390555633" lon="22.27702909079">
        <ele>4.4</ele>
        <time>2016-01-23T11:02:29Z</time>
      </trkpt>
      <trkpt lat="60.456401284465" lon="22.277033030283">
        <ele>4.4</ele>
        <time>2016-01-23T11:02:30Z</time>
      </trkpt>
      <trkpt lat="60.456409331089" lon="22.277033868473">
        <ele>4.4</ele>
        <time>2016-01-23T11:02:31Z</time>
      </trkpt>
      <trkpt lat="60.456408744356" lon="22.277033700835">
        <ele>4.4</ele>
        <time>2016-01-23T11:02:32Z</time>
      </trkpt>
      <trkpt lat="60.45641427641" lon="22.277037053595">
        <ele>4.4</ele>
        <time>2016-01-23T11:02:33Z</time>
      </trkpt>
      <trkpt lat="60.45641427641" lon="22.277037724147">
        <ele>4.4</ele>
        <time>2016-01-23T11:02:34Z</time>
      </trkpt>
      <trkpt lat="60.456413857315" lon="22.277039065251">
        <ele>4.4</ele>
        <time>2016-01-23T11:02:35Z</time>
      </trkpt>
      <trkpt lat="60.456412851487" lon="22.277039568165">
        <ele>4.4</ele>
        <time>2016-01-23T11:02:36Z</time>
      </trkpt>
      <trkpt lat="60.456412348573" lon="22.277040657812">
        <ele>4.4</ele>
        <time>2016-01-23T11:02:37Z</time>
      </trkpt>
      <trkpt lat="60.456412013297" lon="22.277041412183">
        <ele>4.4</ele>
        <time>2016-01-23T11:02:38Z</time>
      </trkpt>
      <trkpt lat="60.45641176184" lon="22.277042920925">
        <ele>4.4</ele>
        <time>2016-01-23T11:02:39Z</time>
      </trkpt>
      <trkpt lat="60.456411845659" lon="22.277044848762">
        <ele>4.4</ele>
        <time>2016-01-23T11:02:40Z</time>
      </trkpt>
      <trkpt lat="60.456411342745" lon="22.277043507658">
        <ele>4.4</ele>
        <time>2016-01-23T11:02:41Z</time>
      </trkpt>
      <trkpt lat="60.456410420736" lon="22.277042418011">
        <ele>4.4</ele>
        <time>2016-01-23T11:02:42Z</time>
      </trkpt>
      <trkpt lat="60.456408744356" lon="22.277042418011">
        <ele>4.4</ele>
        <time>2016-01-23T11:02:43Z</time>
      </trkpt>
      <trkpt lat="60.456407487071" lon="22.277043256201">
        <ele>4.4</ele>
        <time>2016-01-23T11:02:44Z</time>
      </trkpt>
      <trkpt lat="60.456406816519" lon="22.277043926753">
        <ele>4.4</ele>
        <time>2016-01-23T11:02:45Z</time>
      </trkpt>
      <trkpt lat="60.456406062148" lon="22.277044094391">
        <ele>4.4</ele>
        <time>2016-01-23T11:02:46Z</time>
      </trkpt>
      <trkpt lat="60.456405978329" lon="22.277044262029">
        <ele>4.4</ele>
        <time>2016-01-23T11:02:47Z</time>
      </trkpt>
      <trkpt lat="60.456405391596" lon="22.277045267857">
        <ele>4.4</ele>
        <time>2016-01-23T11:02:48Z</time>
      </trkpt>
      <trkpt lat="60.456404972501" lon="22.277045770771">
        <ele>4.4</ele>
        <time>2016-01-23T11:02:49Z</time>
      </trkpt>
      <trkpt lat="60.456404721044" lon="22.277046357504">
        <ele>4.4</ele>
        <time>2016-01-23T11:02:50Z</time>
      </trkpt>
      <trkpt lat="60.456404050492" lon="22.277046525142">
        <ele>4.4</ele>
        <time>2016-01-23T11:02:51Z</time>
      </trkpt>
      <trkpt lat="60.456403296121" lon="22.277046608961">
        <ele>4.4</ele>
        <time>2016-01-23T11:02:52Z</time>
      </trkpt>
      <trkpt lat="60.456402960845" lon="22.277046189866">
        <ele>4.4</ele>
        <time>2016-01-23T11:02:53Z</time>
      </trkpt>
      <trkpt lat="60.456402709388" lon="22.277046106047">
        <ele>4.4</ele>
        <time>2016-01-23T11:02:54Z</time>
      </trkpt>
      <trkpt lat="60.456402374112" lon="22.277046189866">
        <ele>4.4</ele>
        <time>2016-01-23T11:02:55Z</time>
      </trkpt>
      <trkpt lat="60.456402290293" lon="22.277047614789">
        <ele>4.4</ele>
        <time>2016-01-23T11:02:56Z</time>
      </trkpt>
      <trkpt lat="60.456402122655" lon="22.27704920735">
        <ele>4.4</ele>
        <time>2016-01-23T11:02:57Z</time>
      </trkpt>
      <trkpt lat="60.456402877026" lon="22.277051219006">
        <ele>4.4</ele>
        <time>2016-01-23T11:02:58Z</time>
      </trkpt>
      <trkpt lat="60.456403212302" lon="22.277051554282">
        <ele>4.4</ele>
        <time>2016-01-23T11:02:59Z</time>
      </trkpt>
      <trkpt lat="60.456402793207" lon="22.277048704436">
        <ele>4.4</ele>
        <time>2016-01-23T11:03:00Z</time>
      </trkpt>
      <trkpt lat="60.456402960845" lon="22.277045351676">
        <ele>4.4</ele>
        <time>2016-01-23T11:03:01Z</time>
      </trkpt>
      <trkpt lat="60.456403463759" lon="22.277042669468">
        <ele>4.4</ele>
        <time>2016-01-23T11:03:02Z</time>
      </trkpt>
      <trkpt lat="60.456405810691" lon="22.277043004744">
        <ele>4.4</ele>
        <time>2016-01-23T11:03:03Z</time>
      </trkpt>
      <trkpt lat="60.456411510383" lon="22.277044848762">
        <ele>4.4</ele>
        <time>2016-01-23T11:03:04Z</time>
      </trkpt>
      <trkpt lat="60.456421233387" lon="22.277048704436">
        <ele>4.4</ele>
        <time>2016-01-23T11:03:05Z</time>
      </trkpt>
      <trkpt lat="60.456430788753" lon="22.277055829051">
        <ele>4.4</ele>
        <time>2016-01-23T11:03:06Z</time>
      </trkpt>
      <trkpt lat="60.456442271956" lon="22.277054571766">
        <ele>4.4</ele>
        <time>2016-01-23T11:03:07Z</time>
      </trkpt>
      <trkpt lat="60.456455012444" lon="22.277060690553">
        <ele>4.4</ele>
        <time>2016-01-23T11:03:08Z</time>
      </trkpt>
      <trkpt lat="60.456467250018" lon="22.27706429477">
        <ele>4.2</ele>
        <time>2016-01-23T11:03:09Z</time>
      </trkpt>
      <trkpt lat="60.456479990506" lon="22.277070581195">
        <ele>4.2</ele>
        <time>2016-01-23T11:03:10Z</time>
      </trkpt>
      <trkpt lat="60.456491222252" lon="22.277075275059">
        <ele>4.2</ele>
        <time>2016-01-23T11:03:11Z</time>
      </trkpt>
      <trkpt lat="60.456506393491" lon="22.277083489321">
        <ele>4.2</ele>
        <time>2016-01-23T11:03:12Z</time>
      </trkpt>
      <trkpt lat="60.456518379608" lon="22.277088769918">
        <ele>4.2</ele>
        <time>2016-01-23T11:03:13Z</time>
      </trkpt>
      <trkpt lat="60.456534724313" lon="22.277095140162">
        <ele>4.2</ele>
        <time>2016-01-23T11:03:14Z</time>
      </trkpt>
      <trkpt lat="60.456551655751" lon="22.277100756035">
        <ele>4.2</ele>
        <time>2016-01-23T11:03:15Z</time>
      </trkpt>
      <trkpt lat="60.456570095931" lon="22.277108048288">
        <ele>4.2</ele>
        <time>2016-01-23T11:03:16Z</time>
      </trkpt>
      <trkpt lat="60.456594068165" lon="22.277115089084">
        <ele>4.2</ele>
        <time>2016-01-23T11:03:17Z</time>
      </trkpt>
      <trkpt lat="60.456617202209" lon="22.277124057717">
        <ele>4.2</ele>
        <time>2016-01-23T11:03:18Z</time>
      </trkpt>
      <trkpt lat="60.456641006805" lon="22.277135708558">
        <ele>4.2</ele>
        <time>2016-01-23T11:03:19Z</time>
      </trkpt>
      <trkpt lat="60.45666070427" lon="22.277146018295">
        <ele>4.2</ele>
        <time>2016-01-23T11:03:20Z</time>
      </trkpt>
      <trkpt lat="60.45667914445" lon="22.277154316376">
        <ele>4.2</ele>
        <time>2016-01-23T11:03:21Z</time>
      </trkpt>
      <trkpt lat="60.456706050349" lon="22.277168146511">
        <ele>4.2</ele>
        <time>2016-01-23T11:03:22Z</time>
      </trkpt>
      <trkpt lat="60.456728513841" lon="22.277178204791">
        <ele>4.2</ele>
        <time>2016-01-23T11:03:23Z</time>
      </trkpt>
      <trkpt lat="60.456747373116" lon="22.277186754329">
        <ele>4.2</ele>
        <time>2016-01-23T11:03:24Z</time>
      </trkpt>
      <trkpt lat="60.456763131088" lon="22.277195722962">
        <ele>4.2</ele>
        <time>2016-01-23T11:03:25Z</time>
      </trkpt>
      <trkpt lat="60.456775201024" lon="22.277198572808">
        <ele>4.2</ele>
        <time>2016-01-23T11:03:26Z</time>
      </trkpt>
      <trkpt lat="60.456785426942" lon="22.277201506473">
        <ele>4.2</ele>
        <time>2016-01-23T11:03:27Z</time>
      </trkpt>
      <trkpt lat="60.456784253476" lon="22.277200835921">
        <ele>4.2</ele>
        <time>2016-01-23T11:03:28Z</time>
      </trkpt>
      <trkpt lat="60.456791294272" lon="22.27720343431">
        <ele>4.2</ele>
        <time>2016-01-23T11:03:29Z</time>
      </trkpt>
      <trkpt lat="60.456792467738" lon="22.277204104862">
        <ele>4.2</ele>
        <time>2016-01-23T11:03:30Z</time>
      </trkpt>
      <trkpt lat="60.456793054471" lon="22.277204440138">
        <ele>4.2</ele>
        <time>2016-01-23T11:03:31Z</time>
      </trkpt>
      <trkpt lat="60.456794311756" lon="22.277204691595">
        <ele>4.2</ele>
        <time>2016-01-23T11:03:32Z</time>
      </trkpt>
      <trkpt lat="60.456795317584" lon="22.277206451794">
        <ele>4.2</ele>
        <time>2016-01-23T11:03:33Z</time>
      </trkpt>
      <trkpt lat="60.456796323412" lon="22.277208714907">
        <ele>4.2</ele>
        <time>2016-01-23T11:03:34Z</time>
      </trkpt>
      <trkpt lat="60.456799173258" lon="22.277210056011">
        <ele>4.2</ele>
        <time>2016-01-23T11:03:35Z</time>
      </trkpt>
      <trkpt lat="60.456804118579" lon="22.277210810382">
        <ele>4.2</ele>
        <time>2016-01-23T11:03:36Z</time>
      </trkpt>
      <trkpt lat="60.456810321185" lon="22.277214666056">
        <ele>4.2</ele>
        <time>2016-01-23T11:03:37Z</time>
      </trkpt>
      <trkpt lat="60.456809650633" lon="22.277213911685">
        <ele>4.2</ele>
        <time>2016-01-23T11:03:38Z</time>
      </trkpt>
      <trkpt lat="60.456809650633" lon="22.277213911685">
        <ele>4.2</ele>
        <time>2016-01-23T11:03:39Z</time>
      </trkpt>
      <trkpt lat="60.456817361981" lon="22.277218940825">
        <ele>4.2</ele>
        <time>2016-01-23T11:03:40Z</time>
      </trkpt>
      <trkpt lat="60.456817781076" lon="22.27721935992">
        <ele>4.2</ele>
        <time>2016-01-23T11:03:41Z</time>
      </trkpt>
      <trkpt lat="60.456817864895" lon="22.277220617205">
        <ele>4.2</ele>
        <time>2016-01-23T11:03:42Z</time>
      </trkpt>
      <trkpt lat="60.456818116352" lon="22.277219611377">
        <ele>4.2</ele>
        <time>2016-01-23T11:03:43Z</time>
      </trkpt>
      <trkpt lat="60.456819541275" lon="22.27721852173">
        <ele>4.2</ele>
        <time>2016-01-23T11:03:44Z</time>
      </trkpt>
      <trkpt lat="60.456822391121" lon="22.277219695196">
        <ele>4.2</ele>
        <time>2016-01-23T11:03:45Z</time>
      </trkpt>
      <trkpt lat="60.456826246795" lon="22.277220868662">
        <ele>4.2</ele>
        <time>2016-01-23T11:03:46Z</time>
      </trkpt>
      <trkpt lat="60.456826162976" lon="22.277220868662">
        <ele>4.2</ele>
        <time>2016-01-23T11:03:47Z</time>
      </trkpt>
      <trkpt lat="60.45683169503" lon="22.277221958309">
        <ele>4.2</ele>
        <time>2016-01-23T11:03:48Z</time>
      </trkpt>
      <trkpt lat="60.4568342096" lon="22.277221623033">
        <ele>4.2</ele>
        <time>2016-01-23T11:03:49Z</time>
      </trkpt>
      <trkpt lat="60.456840160749" lon="22.27722522725">
        <ele>4.2</ele>
        <time>2016-01-23T11:03:50Z</time>
      </trkpt>
      <trkpt lat="60.456846614812" lon="22.2772294182">
        <ele>4.2</ele>
        <time>2016-01-23T11:03:51Z</time>
      </trkpt>
      <trkpt lat="60.456853152694" lon="22.277228412372">
        <ele>4.2</ele>
        <time>2016-01-23T11:03:52Z</time>
      </trkpt>
      <trkpt lat="60.456852817418" lon="22.277227909458">
        <ele>4.2</ele>
        <time>2016-01-23T11:03:53Z</time>
      </trkpt>
      <trkpt lat="60.456857595101" lon="22.277231765132">
        <ele>4.2</ele>
        <time>2016-01-23T11:03:54Z</time>
      </trkpt>
      <trkpt lat="60.45685767892" lon="22.277230507847">
        <ele>4.2</ele>
        <time>2016-01-23T11:03:55Z</time>
      </trkpt>
      <trkpt lat="60.456858181834" lon="22.277229921114">
        <ele>4.2</ele>
        <time>2016-01-23T11:03:56Z</time>
      </trkpt>
      <trkpt lat="60.456858600929" lon="22.277230591666">
        <ele>4.2</ele>
        <time>2016-01-23T11:03:57Z</time>
      </trkpt>
      <trkpt lat="60.456859187662" lon="22.277229250562">
        <ele>4.2</ele>
        <time>2016-01-23T11:03:58Z</time>
      </trkpt>
      <trkpt lat="60.4568593553" lon="22.277228328553">
        <ele>4.2</ele>
        <time>2016-01-23T11:03:59Z</time>
      </trkpt>
      <trkpt lat="60.456859774395" lon="22.277228663829">
        <ele>4.2</ele>
        <time>2016-01-23T11:04:00Z</time>
      </trkpt>
      <trkpt lat="60.456860864042" lon="22.277228244734">
        <ele>4.2</ele>
        <time>2016-01-23T11:04:01Z</time>
      </trkpt>
      <trkpt lat="60.456861283137" lon="22.277226819811">
        <ele>4.2</ele>
        <time>2016-01-23T11:04:02Z</time>
      </trkpt>
      <trkpt lat="60.456860947861" lon="22.27722606544">
        <ele>4.2</ele>
        <time>2016-01-23T11:04:03Z</time>
      </trkpt>
      <trkpt lat="60.456860696404" lon="22.277225813983">
        <ele>4.2</ele>
        <time>2016-01-23T11:04:04Z</time>
      </trkpt>
      <trkpt lat="60.456861283137" lon="22.277224221422">
        <ele>4.2</ele>
        <time>2016-01-23T11:04:05Z</time>
      </trkpt>
      <trkpt lat="60.456861786051" lon="22.277224640517">
        <ele>4.2</ele>
        <time>2016-01-23T11:04:06Z</time>
      </trkpt>
      <trkpt lat="60.456862791879" lon="22.277226987449">
        <ele>4.2</ele>
        <time>2016-01-23T11:04:07Z</time>
      </trkpt>
      <trkpt lat="60.456864300621" lon="22.277229250562">
        <ele>4.2</ele>
        <time>2016-01-23T11:04:08Z</time>
      </trkpt>
      <trkpt lat="60.456865557906" lon="22.277229250562">
        <ele>4.2</ele>
        <time>2016-01-23T11:04:09Z</time>
      </trkpt>
      <trkpt lat="60.456867485743" lon="22.277226735992">
        <ele>4.2</ele>
        <time>2016-01-23T11:04:10Z</time>
      </trkpt>
      <trkpt lat="60.456870670865" lon="22.277226149259">
        <ele>4.2</ele>
        <time>2016-01-23T11:04:11Z</time>
      </trkpt>
      <trkpt lat="60.456875783824" lon="22.27722606544">
        <ele>4.2</ele>
        <time>2016-01-23T11:04:12Z</time>
      </trkpt>
      <trkpt lat="60.45688282462" lon="22.277227658001">
        <ele>4.2</ele>
        <time>2016-01-23T11:04:13Z</time>
      </trkpt>
      <trkpt lat="60.456889781597" lon="22.27722858001">
        <ele>4.2</ele>
        <time>2016-01-23T11:04:14Z</time>
      </trkpt>
      <trkpt lat="60.456901600076" lon="22.277232687141">
        <ele>4.2</ele>
        <time>2016-01-23T11:04:15Z</time>
      </trkpt>
      <trkpt lat="60.456911406899" lon="22.277235034073">
        <ele>4.2</ele>
        <time>2016-01-23T11:04:16Z</time>
      </trkpt>
      <trkpt lat="60.456926829595" lon="22.277238386833">
        <ele>4.2</ele>
        <time>2016-01-23T11:04:17Z</time>
      </trkpt>
      <trkpt lat="60.456940408273" lon="22.277241823412">
        <ele>4.2</ele>
        <time>2016-01-23T11:04:18Z</time>
      </trkpt>
      <trkpt lat="60.456955998607" lon="22.277246517276">
        <ele>4.2</ele>
        <time>2016-01-23T11:04:19Z</time>
      </trkpt>
      <trkpt lat="60.456970750751" lon="22.277249199484">
        <ele>4.2</ele>
        <time>2016-01-23T11:04:20Z</time>
      </trkpt>
      <trkpt lat="60.456984664705" lon="22.277250289131">
        <ele>4.2</ele>
        <time>2016-01-23T11:04:21Z</time>
      </trkpt>
      <trkpt lat="60.45699765665" lon="22.277252971339">
        <ele>4.2</ele>
        <time>2016-01-23T11:04:22Z</time>
      </trkpt>
      <trkpt lat="60.45700520036" lon="22.277254480081">
        <ele>4.2</ele>
        <time>2016-01-23T11:04:23Z</time>
      </trkpt>
      <trkpt lat="60.457036129571" lon="22.277253474253">
        <ele>4.2</ele>
        <time>2016-01-23T11:04:24Z</time>
      </trkpt>
      <trkpt lat="60.457062867832" lon="22.277253977167">
        <ele>4.2</ele>
        <time>2016-01-23T11:04:25Z</time>
      </trkpt>
      <trkpt lat="60.457089438455" lon="22.277253893348">
        <ele>4.2</ele>
        <time>2016-01-23T11:04:26Z</time>
      </trkpt>
      <trkpt lat="60.457118942743" lon="22.277257329927">
        <ele>4.2</ele>
        <time>2016-01-23T11:04:27Z</time>
      </trkpt>
      <trkpt lat="60.457150123411" lon="22.277264957456">
        <ele>4.2</ele>
        <time>2016-01-23T11:04:28Z</time>
      </trkpt>
      <trkpt lat="60.457181304079" lon="22.27727551865">
        <ele>4</ele>
        <time>2016-01-23T11:04:29Z</time>
      </trkpt>
      <trkpt lat="60.457211981833" lon="22.277275015736">
        <ele>3.6</ele>
        <time>2016-01-23T11:04:30Z</time>
      </trkpt>
      <trkpt lat="60.457240312655" lon="22.277269316044">
        <ele>3.2</ele>
        <time>2016-01-23T11:04:31Z</time>
      </trkpt>
      <trkpt lat="60.457278617938" lon="22.277262275248">
        <ele>2.6</ele>
        <time>2016-01-23T11:04:32Z</time>
      </trkpt>
      <trkpt lat="60.457322203818" lon="22.277258335755">
        <ele>2</ele>
        <time>2016-01-23T11:04:33Z</time>
      </trkpt>
      <trkpt lat="60.457357659255" lon="22.277259173945">
        <ele>2</ele>
        <time>2016-01-23T11:04:34Z</time>
      </trkpt>
      <trkpt lat="60.457391270674" lon="22.277253390434">
        <ele>2</ele>
        <time>2016-01-23T11:04:35Z</time>
      </trkpt>
      <trkpt lat="60.45742261898" lon="22.277242074869">
        <ele>2</ele>
        <time>2016-01-23T11:04:36Z</time>
      </trkpt>
      <trkpt lat="60.457466372498" lon="22.277246852552">
        <ele>2.6</ele>
        <time>2016-01-23T11:04:37Z</time>
      </trkpt>
      <trkpt lat="60.457505013057" lon="22.277246014362">
        <ele>3</ele>
        <time>2016-01-23T11:04:38Z</time>
      </trkpt>
      <trkpt lat="60.457540384675" lon="22.277247439285">
        <ele>3.4</ele>
        <time>2016-01-23T11:04:39Z</time>
      </trkpt>
      <trkpt lat="60.457570810972" lon="22.277252300787">
        <ele>3.8</ele>
        <time>2016-01-23T11:04:40Z</time>
      </trkpt>
      <trkpt lat="60.457600231441" lon="22.277258419574">
        <ele>4</ele>
        <time>2016-01-23T11:04:41Z</time>
      </trkpt>
      <trkpt lat="60.457625377141" lon="22.277262861981">
        <ele>4.4</ele>
        <time>2016-01-23T11:04:42Z</time>
      </trkpt>
      <trkpt lat="60.457645661339" lon="22.27726629856">
        <ele>5</ele>
        <time>2016-01-23T11:04:43Z</time>
      </trkpt>
      <trkpt lat="60.457661251673" lon="22.277269735139">
        <ele>5.6</ele>
        <time>2016-01-23T11:04:44Z</time>
      </trkpt>
      <trkpt lat="60.457672818695" lon="22.277270824786">
        <ele>5.4</ele>
        <time>2016-01-23T11:04:45Z</time>
      </trkpt>
      <trkpt lat="60.457682206423" lon="22.277272836442">
        <ele>5.2</ele>
        <time>2016-01-23T11:04:46Z</time>
      </trkpt>
      <trkpt lat="60.457677764016" lon="22.277267723483">
        <ele>5</ele>
        <time>2016-01-23T11:04:47Z</time>
      </trkpt>
      <trkpt lat="60.457677344921" lon="22.277268896949">
        <ele>5</ele>
        <time>2016-01-23T11:04:48Z</time>
      </trkpt>
      <trkpt lat="60.457673908342" lon="22.277278703772">
        <ele>4.8</ele>
        <time>2016-01-23T11:04:49Z</time>
      </trkpt>
      <trkpt lat="60.457670890858" lon="22.277290941346">
        <ele>4.6</ele>
        <time>2016-01-23T11:04:50Z</time>
      </trkpt>
      <trkpt lat="60.457669968849" lon="22.277304603843">
        <ele>4.6</ele>
        <time>2016-01-23T11:04:51Z</time>
      </trkpt>
      <trkpt lat="60.457662006044" lon="22.277307788965">
        <ele>4.6</ele>
        <time>2016-01-23T11:04:52Z</time>
      </trkpt>
      <trkpt lat="60.457654881429" lon="22.277312147553">
        <ele>4.6</ele>
        <time>2016-01-23T11:04:53Z</time>
      </trkpt>
      <trkpt lat="60.457644320235" lon="22.277312901924">
        <ele>4.6</ele>
        <time>2016-01-23T11:04:54Z</time>
      </trkpt>
      <trkpt lat="60.457631412109" lon="22.277316506141">
        <ele>4.6</ele>
        <time>2016-01-23T11:04:55Z</time>
      </trkpt>
      <trkpt lat="60.457615905594" lon="22.277318350159">
        <ele>4.6</ele>
        <time>2016-01-23T11:04:56Z</time>
      </trkpt>
      <trkpt lat="60.457595789034" lon="22.277317009055">
        <ele>4.6</ele>
        <time>2016-01-23T11:04:57Z</time>
      </trkpt>
      <trkpt lat="60.457577097397" lon="22.277313153381">
        <ele>4.6</ele>
        <time>2016-01-23T11:04:58Z</time>
      </trkpt>
      <trkpt lat="60.457559746864" lon="22.277322373471">
        <ele>4.6</ele>
        <time>2016-01-23T11:04:59Z</time>
      </trkpt>
      <trkpt lat="60.457537367191" lon="22.277320948548">
        <ele>4.6</ele>
        <time>2016-01-23T11:05:00Z</time>
      </trkpt>
      <trkpt lat="60.457518424097" lon="22.277322289652">
        <ele>4.6</ele>
        <time>2016-01-23T11:05:01Z</time>
      </trkpt>
      <trkpt lat="60.457501241202" lon="22.277324720403">
        <ele>4.6</ele>
        <time>2016-01-23T11:05:02Z</time>
      </trkpt>
      <trkpt lat="60.45748967418" lon="22.277327318792">
        <ele>4.6</ele>
        <time>2016-01-23T11:05:03Z</time>
      </trkpt>
      <trkpt lat="60.457484309764" lon="22.27732832462">
        <ele>4.6</ele>
        <time>2016-01-23T11:05:04Z</time>
      </trkpt>
      <trkpt lat="60.457484561221" lon="22.277328408439">
        <ele>4.6</ele>
        <time>2016-01-23T11:05:05Z</time>
      </trkpt>
      <trkpt lat="60.457480873185" lon="22.277331090647">
        <ele>4.6</ele>
        <time>2016-01-23T11:05:06Z</time>
      </trkpt>
      <trkpt lat="60.457480286452" lon="22.277333940493">
        <ele>4.6</ele>
        <time>2016-01-23T11:05:07Z</time>
      </trkpt>
      <trkpt lat="60.45747710133" lon="22.277337712348">
        <ele>4.6</ele>
        <time>2016-01-23T11:05:08Z</time>
      </trkpt>
      <trkpt lat="60.457471904552" lon="22.277340981289">
        <ele>4.6</ele>
        <time>2016-01-23T11:05:09Z</time>
      </trkpt>
      <trkpt lat="60.457472658923" lon="22.277340729832">
        <ele>4.6</ele>
        <time>2016-01-23T11:05:10Z</time>
      </trkpt>
      <trkpt lat="60.457466875412" lon="22.277350620474">
        <ele>4.6</ele>
        <time>2016-01-23T11:05:11Z</time>
      </trkpt>
      <trkpt lat="60.457467210688" lon="22.277350369017">
        <ele>4.6</ele>
        <time>2016-01-23T11:05:12Z</time>
      </trkpt>
      <trkpt lat="60.457464109385" lon="22.277351291026">
        <ele>4</ele>
        <time>2016-01-23T11:05:13Z</time>
      </trkpt>
      <trkpt lat="60.457464109385" lon="22.277351291026">
        <ele>4</ele>
        <time>2016-01-23T11:05:14Z</time>
      </trkpt>
      <trkpt lat="60.457467965059" lon="22.277356487804">
        <ele>4.4</ele>
        <time>2016-01-23T11:05:15Z</time>
      </trkpt>
      <trkpt lat="60.457468887068" lon="22.277356320166">
        <ele>4.8</ele>
        <time>2016-01-23T11:05:16Z</time>
      </trkpt>
      <trkpt lat="60.457469306163" lon="22.277357912727">
        <ele>4.8</ele>
        <time>2016-01-23T11:05:17Z</time>
      </trkpt>
      <trkpt lat="60.457469641439" lon="22.277359589107">
        <ele>4.8</ele>
        <time>2016-01-23T11:05:18Z</time>
      </trkpt>
      <trkpt lat="60.457469976715" lon="22.277360762573">
        <ele>4.8</ele>
        <time>2016-01-23T11:05:19Z</time>
      </trkpt>
      <trkpt lat="60.457470144353" lon="22.277361265487">
        <ele>4.8</ele>
        <time>2016-01-23T11:05:20Z</time>
      </trkpt>
      <trkpt lat="60.457471150181" lon="22.277361600763">
        <ele>4.6</ele>
        <time>2016-01-23T11:05:21Z</time>
      </trkpt>
      <trkpt lat="60.457470479629" lon="22.27736185222">
        <ele>4.6</ele>
        <time>2016-01-23T11:05:22Z</time>
      </trkpt>
      <trkpt lat="60.457468048878" lon="22.277361349306">
        <ele>4.6</ele>
        <time>2016-01-23T11:05:23Z</time>
      </trkpt>
      <trkpt lat="60.457467378326" lon="22.277361265487">
        <ele>4.6</ele>
        <time>2016-01-23T11:05:24Z</time>
      </trkpt>
      <trkpt lat="60.457467210688" lon="22.277361097849">
        <ele>4.6</ele>
        <time>2016-01-23T11:05:25Z</time>
      </trkpt>
      <trkpt lat="60.457466623955" lon="22.277366797541">
        <ele>4.6</ele>
        <time>2016-01-23T11:05:26Z</time>
      </trkpt>
      <trkpt lat="60.457463103557" lon="22.27737107231">
        <ele>4.6</ele>
        <time>2016-01-23T11:05:27Z</time>
      </trkpt>
      <trkpt lat="60.4574544702" lon="22.27737274869">
        <ele>4.6</ele>
        <time>2016-01-23T11:05:28Z</time>
      </trkpt>
      <trkpt lat="60.457442064988" lon="22.277375514717">
        <ele>4.6</ele>
        <time>2016-01-23T11:05:29Z</time>
      </trkpt>
      <trkpt lat="60.457425217369" lon="22.277375766174">
        <ele>4.6</ele>
        <time>2016-01-23T11:05:30Z</time>
      </trkpt>
      <trkpt lat="60.457409375578" lon="22.277375598536">
        <ele>4.6</ele>
        <time>2016-01-23T11:05:31Z</time>
      </trkpt>
      <trkpt lat="60.457393030873" lon="22.277376436726">
        <ele>4.6</ele>
        <time>2016-01-23T11:05:32Z</time>
      </trkpt>
      <trkpt lat="60.457369561553" lon="22.277374173613">
        <ele>4.6</ele>
        <time>2016-01-23T11:05:33Z</time>
      </trkpt>
      <trkpt lat="60.457351624287" lon="22.277373838337">
        <ele>4.6</ele>
        <time>2016-01-23T11:05:34Z</time>
      </trkpt>
      <trkpt lat="60.457330837175" lon="22.27737526326">
        <ele>4.6</ele>
        <time>2016-01-23T11:05:35Z</time>
      </trkpt>
      <trkpt lat="60.457310972072" lon="22.277375179441">
        <ele>4.6</ele>
        <time>2016-01-23T11:05:36Z</time>
      </trkpt>
      <trkpt lat="60.457290771693" lon="22.277379957124">
        <ele>4.6</ele>
        <time>2016-01-23T11:05:37Z</time>
      </trkpt>
      <trkpt lat="60.457268643477" lon="22.277384064255">
        <ele>4.6</ele>
        <time>2016-01-23T11:05:38Z</time>
      </trkpt>
      <trkpt lat="60.457251292944" lon="22.27738364516">
        <ele>4.6</ele>
        <time>2016-01-23T11:05:39Z</time>
      </trkpt>
      <trkpt lat="60.457233355678" lon="22.277380376219">
        <ele>4.6</ele>
        <time>2016-01-23T11:05:40Z</time>
      </trkpt>
      <trkpt lat="60.457216005145" lon="22.277369563568">
        <ele>4.6</ele>
        <time>2016-01-23T11:05:41Z</time>
      </trkpt>
      <trkpt lat="60.457200833906" lon="22.27735598489">
        <ele>4.6</ele>
        <time>2016-01-23T11:05:42Z</time>
      </trkpt>
      <trkpt lat="60.457193122558" lon="22.277348022085">
        <ele>4.6</ele>
        <time>2016-01-23T11:05:43Z</time>
      </trkpt>
      <trkpt lat="60.45719379311" lon="22.277348608818">
        <ele>4.6</ele>
        <time>2016-01-23T11:05:44Z</time>
      </trkpt>
      <trkpt lat="60.457186417038" lon="22.277329917181">
        <ele>4.6</ele>
        <time>2016-01-23T11:05:45Z</time>
      </trkpt>
      <trkpt lat="60.457186919952" lon="22.277331593561">
        <ele>4.6</ele>
        <time>2016-01-23T11:05:46Z</time>
      </trkpt>
      <trkpt lat="60.457188847789" lon="22.277318853073">
        <ele>4.6</ele>
        <time>2016-01-23T11:05:47Z</time>
      </trkpt>
      <trkpt lat="60.457191194721" lon="22.277319607444">
        <ele>4.6</ele>
        <time>2016-01-23T11:05:48Z</time>
      </trkpt>
      <trkpt lat="60.45719379311" lon="22.277319188349">
        <ele>4.6</ele>
        <time>2016-01-23T11:05:49Z</time>
      </trkpt>
      <trkpt lat="60.457197732603" lon="22.277320194177">
        <ele>4.6</ele>
        <time>2016-01-23T11:05:50Z</time>
      </trkpt>
      <trkpt lat="60.457202426467" lon="22.277322373471">
        <ele>4.6</ele>
        <time>2016-01-23T11:05:51Z</time>
      </trkpt>
      <trkpt lat="60.457201923553" lon="22.277321451462">
        <ele>4.6</ele>
        <time>2016-01-23T11:05:52Z</time>
      </trkpt>
      <trkpt lat="60.457208209978" lon="22.277328240801">
        <ele>4.6</ele>
        <time>2016-01-23T11:05:53Z</time>
      </trkpt>
      <trkpt lat="60.45720971872" lon="22.277328240801">
        <ele>4.6</ele>
        <time>2016-01-23T11:05:54Z</time>
      </trkpt>
      <trkpt lat="60.457210976005" lon="22.277327905525">
        <ele>4.6</ele>
        <time>2016-01-23T11:05:55Z</time>
      </trkpt>
      <trkpt lat="60.4572113951" lon="22.277327654068">
        <ele>4.6</ele>
        <time>2016-01-23T11:05:56Z</time>
      </trkpt>
      <trkpt lat="60.457211646557" lon="22.277327402611">
        <ele>4.6</ele>
        <time>2016-01-23T11:05:57Z</time>
      </trkpt>
      <trkpt lat="60.457213742032" lon="22.277325307136">
        <ele>4.6</ele>
        <time>2016-01-23T11:05:58Z</time>
      </trkpt>
      <trkpt lat="60.45721893881" lon="22.277328156982">
        <ele>4.6</ele>
        <time>2016-01-23T11:05:59Z</time>
      </trkpt>
      <trkpt lat="60.457224387045" lon="22.277330503914">
        <ele>4.6</ele>
        <time>2016-01-23T11:06:00Z</time>
      </trkpt>
      <trkpt lat="60.457229080909" lon="22.277332264113">
        <ele>4.6</ele>
        <time>2016-01-23T11:06:01Z</time>
      </trkpt>
      <trkpt lat="60.457235618791" lon="22.277335784511">
        <ele>4.6</ele>
        <time>2016-01-23T11:06:02Z</time>
      </trkpt>
      <trkpt lat="60.457241486121" lon="22.2773383829">
        <ele>4.6</ele>
        <time>2016-01-23T11:06:03Z</time>
      </trkpt>
      <trkpt lat="60.457246263804" lon="22.277339137271">
        <ele>4.6</ele>
        <time>2016-01-23T11:06:04Z</time>
      </trkpt>
      <trkpt lat="60.457245677071" lon="22.277339053452">
        <ele>4.6</ele>
        <time>2016-01-23T11:06:05Z</time>
      </trkpt>
      <trkpt lat="60.457250203297" lon="22.277338215262">
        <ele>4.6</ele>
        <time>2016-01-23T11:06:06Z</time>
      </trkpt>
      <trkpt lat="60.45725079003" lon="22.277337963805">
        <ele>4.6</ele>
        <time>2016-01-23T11:06:07Z</time>
      </trkpt>
      <trkpt lat="60.45725079003" lon="22.277338969633">
        <ele>4.6</ele>
        <time>2016-01-23T11:06:08Z</time>
      </trkpt>
      <trkpt lat="60.457252298772" lon="22.277341065108">
        <ele>4.6</ele>
        <time>2016-01-23T11:06:09Z</time>
      </trkpt>
      <trkpt lat="60.457252298772" lon="22.277341065108">
        <ele>4.6</ele>
        <time>2016-01-23T11:06:10Z</time>
      </trkpt>
      <trkpt lat="60.457256489722" lon="22.277346597162">
        <ele>4.6</ele>
        <time>2016-01-23T11:06:11Z</time>
      </trkpt>
      <trkpt lat="60.457257160274" lon="22.27734844118">
        <ele>4.6</ele>
        <time>2016-01-23T11:06:12Z</time>
      </trkpt>
      <trkpt lat="60.457258501378" lon="22.277349530827">
        <ele>4.6</ele>
        <time>2016-01-23T11:06:13Z</time>
      </trkpt>
      <trkpt lat="60.45726001012" lon="22.277350788112">
        <ele>4.6</ele>
        <time>2016-01-23T11:06:14Z</time>
      </trkpt>
      <trkpt lat="60.457261099767" lon="22.277351207207">
        <ele>4.6</ele>
        <time>2016-01-23T11:06:15Z</time>
      </trkpt>
      <trkpt lat="60.457262608509" lon="22.27735095575">
        <ele>4.6</ele>
        <time>2016-01-23T11:06:16Z</time>
      </trkpt>
      <trkpt lat="60.457263446699" lon="22.277351123388">
        <ele>4.6</ele>
        <time>2016-01-23T11:06:17Z</time>
      </trkpt>
      <trkpt lat="60.457264368708" lon="22.277350620474">
        <ele>4.6</ele>
        <time>2016-01-23T11:06:18Z</time>
      </trkpt>
      <trkpt lat="60.457264955441" lon="22.277349027913">
        <ele>4.6</ele>
        <time>2016-01-23T11:06:19Z</time>
      </trkpt>
      <trkpt lat="60.457265458355" lon="22.277347100076">
        <ele>4.6</ele>
        <time>2016-01-23T11:06:20Z</time>
      </trkpt>
      <trkpt lat="60.457266799459" lon="22.2773467648">
        <ele>4.6</ele>
        <time>2016-01-23T11:06:21Z</time>
      </trkpt>
      <trkpt lat="60.457267470011" lon="22.277347100076">
        <ele>4.6</ele>
        <time>2016-01-23T11:06:22Z</time>
      </trkpt>
      <trkpt lat="60.457267889106" lon="22.277347267714">
        <ele>4.6</ele>
        <time>2016-01-23T11:06:23Z</time>
      </trkpt>
      <trkpt lat="60.457269146391" lon="22.277346010429">
        <ele>4.6</ele>
        <time>2016-01-23T11:06:24Z</time>
      </trkpt>
      <trkpt lat="60.457269900762" lon="22.277346848619">
        <ele>4.6</ele>
        <time>2016-01-23T11:06:25Z</time>
      </trkpt>
      <trkpt lat="60.457269565486" lon="22.277347016257">
        <ele>4.6</ele>
        <time>2016-01-23T11:06:26Z</time>
      </trkpt>
      <trkpt lat="60.4572700684" lon="22.277346429524">
        <ele>4.6</ele>
        <time>2016-01-23T11:06:27Z</time>
      </trkpt>
      <trkpt lat="60.457270403676" lon="22.277345423696">
        <ele>4.6</ele>
        <time>2016-01-23T11:06:28Z</time>
      </trkpt>
      <trkpt lat="60.45727174478" lon="22.277344836963">
        <ele>4.6</ele>
        <time>2016-01-23T11:06:29Z</time>
      </trkpt>
      <trkpt lat="60.45727342116" lon="22.277342909126">
        <ele>4.6</ele>
        <time>2016-01-23T11:06:30Z</time>
      </trkpt>
      <trkpt lat="60.457274846083" lon="22.277339304909">
        <ele>4.6</ele>
        <time>2016-01-23T11:06:31Z</time>
      </trkpt>
      <trkpt lat="60.457278785576" lon="22.277339053452">
        <ele>4.6</ele>
        <time>2016-01-23T11:06:32Z</time>
      </trkpt>
      <trkpt lat="60.457283982354" lon="22.277340813651">
        <ele>4.6</ele>
        <time>2016-01-23T11:06:33Z</time>
      </trkpt>
      <trkpt lat="60.457282808888" lon="22.277340394556">
        <ele>4.6</ele>
        <time>2016-01-23T11:06:34Z</time>
      </trkpt>
      <trkpt lat="60.457289682046" lon="22.277337209434">
        <ele>4.6</ele>
        <time>2016-01-23T11:06:35Z</time>
      </trkpt>
      <trkpt lat="60.45729186134" lon="22.277335449235">
        <ele>4.6</ele>
        <time>2016-01-23T11:06:36Z</time>
      </trkpt>
      <trkpt lat="60.457293621539" lon="22.277332347932">
        <ele>4.6</ele>
        <time>2016-01-23T11:06:37Z</time>
      </trkpt>
      <trkpt lat="60.4572952141" lon="22.277329749543">
        <ele>4.6</ele>
        <time>2016-01-23T11:06:38Z</time>
      </trkpt>
      <trkpt lat="60.457296471385" lon="22.277328240801">
        <ele>4.6</ele>
        <time>2016-01-23T11:06:39Z</time>
      </trkpt>
      <trkpt lat="60.457297980127" lon="22.277327234973">
        <ele>4.6</ele>
        <time>2016-01-23T11:06:40Z</time>
      </trkpt>
      <trkpt lat="60.457298902136" lon="22.277328659896">
        <ele>4.6</ele>
        <time>2016-01-23T11:06:41Z</time>
      </trkpt>
      <trkpt lat="60.457299824145" lon="22.277327570249">
        <ele>4.6</ele>
        <time>2016-01-23T11:06:42Z</time>
      </trkpt>
      <trkpt lat="60.457301416706" lon="22.277326899697">
        <ele>4.6</ele>
        <time>2016-01-23T11:06:43Z</time>
      </trkpt>
      <trkpt lat="60.457303596" lon="22.277328659896">
        <ele>4.6</ele>
        <time>2016-01-23T11:06:44Z</time>
      </trkpt>
      <trkpt lat="60.457304266552" lon="22.277330001">
        <ele>4.6</ele>
        <time>2016-01-23T11:06:45Z</time>
      </trkpt>
      <trkpt lat="60.457305104742" lon="22.277329414267">
        <ele>4.6</ele>
        <time>2016-01-23T11:06:46Z</time>
      </trkpt>
      <trkpt lat="60.457304853285" lon="22.277330252457">
        <ele>4.6</ele>
        <time>2016-01-23T11:06:47Z</time>
      </trkpt>
      <trkpt lat="60.457305523837" lon="22.277329665724">
        <ele>4.6</ele>
        <time>2016-01-23T11:06:48Z</time>
      </trkpt>
      <trkpt lat="60.457305859113" lon="22.277329833362">
        <ele>4.6</ele>
        <time>2016-01-23T11:06:49Z</time>
      </trkpt>
      <trkpt lat="60.457306278208" lon="22.277329749543">
        <ele>4.6</ele>
        <time>2016-01-23T11:06:50Z</time>
      </trkpt>
      <trkpt lat="60.457306697303" lon="22.277329917181">
        <ele>4.6</ele>
        <time>2016-01-23T11:06:51Z</time>
      </trkpt>
      <trkpt lat="60.457306697303" lon="22.277329917181">
        <ele>4.6</ele>
        <time>2016-01-23T11:06:52Z</time>
      </trkpt>
      <trkpt lat="60.457308960416" lon="22.27733251557">
        <ele>4.6</ele>
        <time>2016-01-23T11:06:53Z</time>
      </trkpt>
      <trkpt lat="60.457311223529" lon="22.277335449235">
        <ele>4.6</ele>
        <time>2016-01-23T11:06:54Z</time>
      </trkpt>
      <trkpt lat="60.457313570461" lon="22.277337041796">
        <ele>4.6</ele>
        <time>2016-01-23T11:06:55Z</time>
      </trkpt>
      <trkpt lat="60.457317174678" lon="22.277339304909">
        <ele>4.6</ele>
        <time>2016-01-23T11:06:56Z</time>
      </trkpt>
      <trkpt lat="60.457316587945" lon="22.277338634357">
        <ele>4.6</ele>
        <time>2016-01-23T11:06:57Z</time>
      </trkpt>
      <trkpt lat="60.457316587945" lon="22.277338634357">
        <ele>4.6</ele>
        <time>2016-01-23T11:06:58Z</time>
      </trkpt>
      <trkpt lat="60.457337291238" lon="22.277343160583">
        <ele>4.6</ele>
        <time>2016-01-23T11:06:59Z</time>
      </trkpt>
      <trkpt lat="60.457349361174" lon="22.277344082592">
        <ele>4.6</ele>
        <time>2016-01-23T11:07:00Z</time>
      </trkpt>
      <trkpt lat="60.457357826893" lon="22.277342406212">
        <ele>4.6</ele>
        <time>2016-01-23T11:07:01Z</time>
      </trkpt>
      <trkpt lat="60.457367885173" lon="22.277343160583">
        <ele>4.6</ele>
        <time>2016-01-23T11:07:02Z</time>
      </trkpt>
      <trkpt lat="60.457375931797" lon="22.277342657669">
        <ele>4.6</ele>
        <time>2016-01-23T11:07:03Z</time>
      </trkpt>
      <trkpt lat="60.457374423055" lon="22.277342238574">
        <ele>4.6</ele>
        <time>2016-01-23T11:07:04Z</time>
      </trkpt>
      <trkpt lat="60.457386995905" lon="22.277339891642">
        <ele>4.6</ele>
        <time>2016-01-23T11:07:05Z</time>
      </trkpt>
      <trkpt lat="60.457395713081" lon="22.277338131443">
        <ele>4.6</ele>
        <time>2016-01-23T11:07:06Z</time>
      </trkpt>
      <trkpt lat="60.457404011162" lon="22.277335952149">
        <ele>4.6</ele>
        <time>2016-01-23T11:07:07Z</time>
      </trkpt>
      <trkpt lat="60.457413482709" lon="22.277336538882">
        <ele>4.6</ele>
        <time>2016-01-23T11:07:08Z</time>
      </trkpt>
      <trkpt lat="60.457422283704" lon="22.277336874158">
        <ele>4.6</ele>
        <time>2016-01-23T11:07:09Z</time>
      </trkpt>
      <trkpt lat="60.457429492138" lon="22.277336622701">
        <ele>4.6</ele>
        <time>2016-01-23T11:07:10Z</time>
      </trkpt>
      <trkpt lat="60.457438963685" lon="22.277336874158">
        <ele>4.6</ele>
        <time>2016-01-23T11:07:11Z</time>
      </trkpt>
      <trkpt lat="60.457448938146" lon="22.277337293253">
        <ele>4.6</ele>
        <time>2016-01-23T11:07:12Z</time>
      </trkpt>
      <trkpt lat="60.457457236227" lon="22.277337796167">
        <ele>4.6</ele>
        <time>2016-01-23T11:07:13Z</time>
      </trkpt>
      <trkpt lat="60.457465701946" lon="22.277338466719">
        <ele>4.6</ele>
        <time>2016-01-23T11:07:14Z</time>
      </trkpt>
      <trkpt lat="60.457472994199" lon="22.277337879986">
        <ele>4.6</ele>
        <time>2016-01-23T11:07:15Z</time>
      </trkpt>
      <trkpt lat="60.457478274796" lon="22.277336538882">
        <ele>4.6</ele>
        <time>2016-01-23T11:07:16Z</time>
      </trkpt>
      <trkpt lat="60.457485902325" lon="22.277336538882">
        <ele>4.6</ele>
        <time>2016-01-23T11:07:17Z</time>
      </trkpt>
      <trkpt lat="60.457492104931" lon="22.277337293253">
        <ele>4.6</ele>
        <time>2016-01-23T11:07:18Z</time>
      </trkpt>
      <trkpt lat="60.457497972261" lon="22.277337879986">
        <ele>4.6</ele>
        <time>2016-01-23T11:07:19Z</time>
      </trkpt>
      <trkpt lat="60.457506354161" lon="22.277338299081">
        <ele>4.6</ele>
        <time>2016-01-23T11:07:20Z</time>
      </trkpt>
      <trkpt lat="60.457515490432" lon="22.277338885814">
        <ele>4.6</ele>
        <time>2016-01-23T11:07:21Z</time>
      </trkpt>
      <trkpt lat="60.457525045798" lon="22.277339472547">
        <ele>4.6</ele>
        <time>2016-01-23T11:07:22Z</time>
      </trkpt>
      <trkpt lat="60.457534433526" lon="22.277338466719">
        <ele>4.6</ele>
        <time>2016-01-23T11:07:23Z</time>
      </trkpt>
      <trkpt lat="60.457540468494" lon="22.277339137271">
        <ele>4.6</ele>
        <time>2016-01-23T11:07:24Z</time>
      </trkpt>
      <trkpt lat="60.457539462666" lon="22.277338718176">
        <ele>4.6</ele>
        <time>2016-01-23T11:07:25Z</time>
      </trkpt>
      <trkpt lat="60.457550694412" lon="22.277339807823">
        <ele>4.6</ele>
        <time>2016-01-23T11:07:26Z</time>
      </trkpt>
      <trkpt lat="60.457558824855" lon="22.27734089747">
        <ele>4.6</ele>
        <time>2016-01-23T11:07:27Z</time>
      </trkpt>
      <trkpt lat="60.457565530375" lon="22.277340394556">
        <ele>4.6</ele>
        <time>2016-01-23T11:07:28Z</time>
      </trkpt>
      <trkpt lat="60.457578941415" lon="22.277343076764">
        <ele>4.6</ele>
        <time>2016-01-23T11:07:29Z</time>
      </trkpt>
      <trkpt lat="60.457591346627" lon="22.277342909126">
        <ele>4.6</ele>
        <time>2016-01-23T11:07:30Z</time>
      </trkpt>
      <trkpt lat="60.457603248925" lon="22.277343244402">
        <ele>4.6</ele>
        <time>2016-01-23T11:07:31Z</time>
      </trkpt>
      <trkpt lat="60.457614396852" lon="22.277343831135">
        <ele>4.6</ele>
        <time>2016-01-23T11:07:32Z</time>
      </trkpt>
      <trkpt lat="60.457621186191" lon="22.277345423696">
        <ele>4.6</ele>
        <time>2016-01-23T11:07:33Z</time>
      </trkpt>
      <trkpt lat="60.457629316634" lon="22.277346178067">
        <ele>4.6</ele>
        <time>2016-01-23T11:07:34Z</time>
      </trkpt>
      <trkpt lat="60.457639123457" lon="22.277347435352">
        <ele>4.6</ele>
        <time>2016-01-23T11:07:35Z</time>
      </trkpt>
      <trkpt lat="60.457646583348" lon="22.277347100076">
        <ele>4.6</ele>
        <time>2016-01-23T11:07:36Z</time>
      </trkpt>
      <trkpt lat="60.457657647456" lon="22.27734844118">
        <ele>4.6</ele>
        <time>2016-01-23T11:07:37Z</time>
      </trkpt>
      <trkpt lat="60.457665861718" lon="22.27734927937">
        <ele>4.6</ele>
        <time>2016-01-23T11:07:38Z</time>
      </trkpt>
      <trkpt lat="60.457675417084" lon="22.277350788112">
        <ele>4.6</ele>
        <time>2016-01-23T11:07:39Z</time>
      </trkpt>
      <trkpt lat="60.457682374061" lon="22.277352380673">
        <ele>4.6</ele>
        <time>2016-01-23T11:07:40Z</time>
      </trkpt>
      <trkpt lat="60.457691594151" lon="22.277353721777">
        <ele>4.6</ele>
        <time>2016-01-23T11:07:41Z</time>
      </trkpt>
      <trkpt lat="60.457700478965" lon="22.277356571623">
        <ele>4.6</ele>
        <time>2016-01-23T11:07:42Z</time>
      </trkpt>
      <trkpt lat="60.457710704883" lon="22.277359170012">
        <ele>4.6</ele>
        <time>2016-01-23T11:07:43Z</time>
      </trkpt>
      <trkpt lat="60.457719757335" lon="22.277359253831">
        <ele>4.6</ele>
        <time>2016-01-23T11:07:44Z</time>
      </trkpt>
      <trkpt lat="60.457729564158" lon="22.277361433125">
        <ele>4.6</ele>
        <time>2016-01-23T11:07:45Z</time>
      </trkpt>
      <trkpt lat="60.457737443144" lon="22.277361265487">
        <ele>4.6</ele>
        <time>2016-01-23T11:07:46Z</time>
      </trkpt>
      <trkpt lat="60.457746830872" lon="22.277362187496">
        <ele>4.6</ele>
        <time>2016-01-23T11:07:47Z</time>
      </trkpt>
      <trkpt lat="60.457754374582" lon="22.277360594935">
        <ele>4.6</ele>
        <time>2016-01-23T11:07:48Z</time>
      </trkpt>
      <trkpt lat="60.457764851957" lon="22.277360678754">
        <ele>4.4</ele>
        <time>2016-01-23T11:07:49Z</time>
      </trkpt>
      <trkpt lat="60.457773652952" lon="22.277359002374">
        <ele>4.4</ele>
        <time>2016-01-23T11:07:50Z</time>
      </trkpt>
      <trkpt lat="60.45778471706" lon="22.277359672926">
        <ele>4.4</ele>
        <time>2016-01-23T11:07:51Z</time>
      </trkpt>
      <trkpt lat="60.457795110616" lon="22.277360343478">
        <ele>4.4</ele>
        <time>2016-01-23T11:07:52Z</time>
      </trkpt>
      <trkpt lat="60.457803911611" lon="22.27735933765">
        <ele>4.4</ele>
        <time>2016-01-23T11:07:53Z</time>
      </trkpt>
      <trkpt lat="60.457813466977" lon="22.277359840564">
        <ele>4.4</ele>
        <time>2016-01-23T11:07:54Z</time>
      </trkpt>
      <trkpt lat="60.457822770886" lon="22.277361265487">
        <ele>4.4</ele>
        <time>2016-01-23T11:07:55Z</time>
      </trkpt>
      <trkpt lat="60.457830314596" lon="22.277361433125">
        <ele>4.4</ele>
        <time>2016-01-23T11:07:56Z</time>
      </trkpt>
      <trkpt lat="60.45783919941" lon="22.277360008202">
        <ele>4.4</ele>
        <time>2016-01-23T11:07:57Z</time>
      </trkpt>
      <trkpt lat="60.457846240206" lon="22.277359589107">
        <ele>4.4</ele>
        <time>2016-01-23T11:07:58Z</time>
      </trkpt>
      <trkpt lat="60.457853281002" lon="22.277360594935">
        <ele>4.4</ele>
        <time>2016-01-23T11:07:59Z</time>
      </trkpt>
      <trkpt lat="60.457861159988" lon="22.277362019858">
        <ele>4.4</ele>
        <time>2016-01-23T11:08:00Z</time>
      </trkpt>
      <trkpt lat="60.457868116965" lon="22.27736185222">
        <ele>4.4</ele>
        <time>2016-01-23T11:08:01Z</time>
      </trkpt>
      <trkpt lat="60.457877001779" lon="22.277362606591">
        <ele>4.4</ele>
        <time>2016-01-23T11:08:02Z</time>
      </trkpt>
      <trkpt lat="60.457885216041" lon="22.277362187496">
        <ele>4.4</ele>
        <time>2016-01-23T11:08:03Z</time>
      </trkpt>
      <trkpt lat="60.457895693416" lon="22.277362187496">
        <ele>4.4</ele>
        <time>2016-01-23T11:08:04Z</time>
      </trkpt>
      <trkpt lat="60.457905248782" lon="22.277361097849">
        <ele>4.4</ele>
        <time>2016-01-23T11:08:05Z</time>
      </trkpt>
      <trkpt lat="60.457913463044" lon="22.277361600763">
        <ele>4.4</ele>
        <time>2016-01-23T11:08:06Z</time>
      </trkpt>
      <trkpt lat="60.457923688962" lon="22.277363025686">
        <ele>4.4</ele>
        <time>2016-01-23T11:08:07Z</time>
      </trkpt>
      <trkpt lat="60.457928299007" lon="22.27735933765">
        <ele>4.4</ele>
        <time>2016-01-23T11:08:08Z</time>
      </trkpt>
      <trkpt lat="60.457927293179" lon="22.277360511116">
        <ele>4.4</ele>
        <time>2016-01-23T11:08:09Z</time>
      </trkpt>
      <trkpt lat="60.457926706446" lon="22.277360762573">
        <ele>4.4</ele>
        <time>2016-01-23T11:08:10Z</time>
      </trkpt>
      <trkpt lat="60.457926622627" lon="22.277361516944">
        <ele>4.4</ele>
        <time>2016-01-23T11:08:11Z</time>
      </trkpt>
      <trkpt lat="60.45793140031" lon="22.277361768401">
        <ele>4.4</ele>
        <time>2016-01-23T11:08:12Z</time>
      </trkpt>
      <trkpt lat="60.45793559126" lon="22.277362606591">
        <ele>4.4</ele>
        <time>2016-01-23T11:08:13Z</time>
      </trkpt>
      <trkpt lat="60.457942883513" lon="22.27736269041">
        <ele>4.4</ele>
        <time>2016-01-23T11:08:14Z</time>
      </trkpt>
      <trkpt lat="60.457949337576" lon="22.277362941867">
        <ele>4.4</ele>
        <time>2016-01-23T11:08:15Z</time>
      </trkpt>
      <trkpt lat="60.457947996472" lon="22.27736269041">
        <ele>4</ele>
        <time>2016-01-23T11:08:16Z</time>
      </trkpt>
      <trkpt lat="60.457954618173" lon="22.277367468093">
        <ele>3.6</ele>
        <time>2016-01-23T11:08:17Z</time>
      </trkpt>
      <trkpt lat="60.457960317865" lon="22.277369731206">
        <ele>3.2</ele>
        <time>2016-01-23T11:08:18Z</time>
      </trkpt>
      <trkpt lat="60.4579657661" lon="22.27737023412">
        <ele>2.8</ele>
        <time>2016-01-23T11:08:19Z</time>
      </trkpt>
      <trkpt lat="60.457971968706" lon="22.277370988491">
        <ele>2.4</ele>
        <time>2016-01-23T11:08:20Z</time>
      </trkpt>
      <trkpt lat="60.457976494932" lon="22.277370820853">
        <ele>2.4</ele>
        <time>2016-01-23T11:08:21Z</time>
      </trkpt>
      <trkpt lat="60.457980769701" lon="22.277369479749">
        <ele>2.4</ele>
        <time>2016-01-23T11:08:22Z</time>
      </trkpt>
      <trkpt lat="60.457987810497" lon="22.277370485577">
        <ele>2.4</ele>
        <time>2016-01-23T11:08:23Z</time>
      </trkpt>
      <trkpt lat="60.457993510189" lon="22.277370988491">
        <ele>2.4</ele>
        <time>2016-01-23T11:08:24Z</time>
      </trkpt>
      <trkpt lat="60.458002478822" lon="22.277373335423">
        <ele>2.4</ele>
        <time>2016-01-23T11:08:25Z</time>
      </trkpt>
      <trkpt lat="60.458009854894" lon="22.277373419242">
        <ele>2.4</ele>
        <time>2016-01-23T11:08:26Z</time>
      </trkpt>
      <trkpt lat="60.458014884034" lon="22.277374760346">
        <ele>1.8</ele>
        <time>2016-01-23T11:08:27Z</time>
      </trkpt>
      <trkpt lat="60.458018823527" lon="22.27737442507">
        <ele>1.6</ele>
        <time>2016-01-23T11:08:28Z</time>
      </trkpt>
      <trkpt lat="60.458023936486" lon="22.277374257432">
        <ele>1</ele>
        <time>2016-01-23T11:08:29Z</time>
      </trkpt>
      <trkpt lat="60.458028546531" lon="22.277375933812">
        <ele>1</ele>
        <time>2016-01-23T11:08:30Z</time>
      </trkpt>
      <trkpt lat="60.458029049445" lon="22.277375598536">
        <ele>0.6</ele>
        <time>2016-01-23T11:08:31Z</time>
      </trkpt>
      <trkpt lat="60.458029049445" lon="22.277375598536">
        <ele>0.6</ele>
        <time>2016-01-23T11:08:32Z</time>
      </trkpt>
      <trkpt lat="60.458031061101" lon="22.277375095622">
        <ele>0.4</ele>
        <time>2016-01-23T11:08:33Z</time>
      </trkpt>
      <trkpt lat="60.45804455596" lon="22.277374927984">
        <ele>0</ele>
        <time>2016-01-23T11:08:34Z</time>
      </trkpt>
      <trkpt lat="60.458052854041" lon="22.277374508889">
        <ele>0</ele>
        <time>2016-01-23T11:08:35Z</time>
      </trkpt>
      <trkpt lat="60.458060984484" lon="22.277375347079">
        <ele>0</ele>
        <time>2016-01-23T11:08:36Z</time>
      </trkpt>
      <trkpt lat="60.458064588701" lon="22.277377107278">
        <ele>0</ele>
        <time>2016-01-23T11:08:37Z</time>
      </trkpt>
      <trkpt lat="60.458070204574" lon="22.277378532201">
        <ele>0</ele>
        <time>2016-01-23T11:08:38Z</time>
      </trkpt>
      <trkpt lat="60.458076323361" lon="22.2773802924">
        <ele>0</ele>
        <time>2016-01-23T11:08:39Z</time>
      </trkpt>
      <trkpt lat="60.458082525967" lon="22.277379202753">
        <ele>0</ele>
        <time>2016-01-23T11:08:40Z</time>
      </trkpt>
      <trkpt lat="60.45809065641" lon="22.277381884961">
        <ele>0</ele>
        <time>2016-01-23T11:08:41Z</time>
      </trkpt>
      <trkpt lat="60.458098870672" lon="22.277380627676">
        <ele>0</ele>
        <time>2016-01-23T11:08:42Z</time>
      </trkpt>
      <trkpt lat="60.458105576192" lon="22.277381633504">
        <ele>0</ele>
        <time>2016-01-23T11:08:43Z</time>
      </trkpt>
      <trkpt lat="60.458113706635" lon="22.277381801142">
        <ele>0</ele>
        <time>2016-01-23T11:08:44Z</time>
      </trkpt>
      <trkpt lat="60.458120076879" lon="22.277382723151">
        <ele>0</ele>
        <time>2016-01-23T11:08:45Z</time>
      </trkpt>
      <trkpt lat="60.458126447123" lon="22.277381046771">
        <ele>0</ele>
        <time>2016-01-23T11:08:46Z</time>
      </trkpt>
      <trkpt lat="60.4581334041" lon="22.277382220237">
        <ele>0</ele>
        <time>2016-01-23T11:08:47Z</time>
      </trkpt>
      <trkpt lat="60.458142037457" lon="22.277382220237">
        <ele>0</ele>
        <time>2016-01-23T11:08:48Z</time>
      </trkpt>
      <trkpt lat="60.45814932971" lon="22.277384734807">
        <ele>0</ele>
        <time>2016-01-23T11:08:49Z</time>
      </trkpt>
      <trkpt lat="60.458157292515" lon="22.277386327368">
        <ele>0</ele>
        <time>2016-01-23T11:08:50Z</time>
      </trkpt>
      <trkpt lat="60.458164836225" lon="22.27738699792">
        <ele>0</ele>
        <time>2016-01-23T11:08:51Z</time>
      </trkpt>
      <trkpt lat="60.458173469582" lon="22.27739035068">
        <ele>0</ele>
        <time>2016-01-23T11:08:52Z</time>
      </trkpt>
      <trkpt lat="60.458181348568" lon="22.277391943241">
        <ele>0</ele>
        <time>2016-01-23T11:08:53Z</time>
      </trkpt>
      <trkpt lat="60.458188976097" lon="22.277391440327">
        <ele>0</ele>
        <time>2016-01-23T11:08:54Z</time>
      </trkpt>
      <trkpt lat="60.458185874794" lon="22.277391105051">
        <ele>0</ele>
        <time>2016-01-23T11:08:55Z</time>
      </trkpt>
      <trkpt lat="60.458193586142" lon="22.277391607965">
        <ele>0</ele>
        <time>2016-01-23T11:08:56Z</time>
      </trkpt>
      <trkpt lat="60.45819291559" lon="22.277392697612">
        <ele>0</ele>
        <time>2016-01-23T11:08:57Z</time>
      </trkpt>
      <trkpt lat="60.458191406848" lon="22.277392362336">
        <ele>0</ele>
        <time>2016-01-23T11:08:58Z</time>
      </trkpt>
      <trkpt lat="60.458190484839" lon="22.277393200526">
        <ele>0</ele>
        <time>2016-01-23T11:08:59Z</time>
      </trkpt>
      <trkpt lat="60.458190065744" lon="22.277395128363">
        <ele>0</ele>
        <time>2016-01-23T11:09:00Z</time>
      </trkpt>
      <trkpt lat="60.458189479011" lon="22.277396134191">
        <ele>0</ele>
        <time>2016-01-23T11:09:01Z</time>
      </trkpt>
      <trkpt lat="60.458190065744" lon="22.277395715096">
        <ele>0</ele>
        <time>2016-01-23T11:09:02Z</time>
      </trkpt>
      <trkpt lat="60.458190652477" lon="22.277395715096">
        <ele>0</ele>
        <time>2016-01-23T11:09:03Z</time>
      </trkpt>
      <trkpt lat="60.458191155391" lon="22.277395966553">
        <ele>0</ele>
        <time>2016-01-23T11:09:04Z</time>
      </trkpt>
      <trkpt lat="60.458191574486" lon="22.277395966553">
        <ele>0</ele>
        <time>2016-01-23T11:09:05Z</time>
      </trkpt>
      <trkpt lat="60.458192161219" lon="22.277395966553">
        <ele>0</ele>
        <time>2016-01-23T11:09:06Z</time>
      </trkpt>
      <trkpt lat="60.45819291559" lon="22.277395631277">
        <ele>0</ele>
        <time>2016-01-23T11:09:07Z</time>
      </trkpt>
      <trkpt lat="60.458193586142" lon="22.277395296001">
        <ele>0</ele>
        <time>2016-01-23T11:09:08Z</time>
      </trkpt>
      <trkpt lat="60.458194256694" lon="22.277394709268">
        <ele>0</ele>
        <time>2016-01-23T11:09:09Z</time>
      </trkpt>
      <trkpt lat="60.458194759608" lon="22.27739454163">
        <ele>0</ele>
        <time>2016-01-23T11:09:10Z</time>
      </trkpt>
      <trkpt lat="60.458195262522" lon="22.277394457811">
        <ele>0</ele>
        <time>2016-01-23T11:09:11Z</time>
      </trkpt>
      <trkpt lat="60.458195597798" lon="22.277394206354">
        <ele>0</ele>
        <time>2016-01-23T11:09:12Z</time>
      </trkpt>
      <trkpt lat="60.458195346341" lon="22.277393954897">
        <ele>0</ele>
        <time>2016-01-23T11:09:13Z</time>
      </trkpt>
      <trkpt lat="60.458195346341" lon="22.277393200526">
        <ele>0</ele>
        <time>2016-01-23T11:09:14Z</time>
      </trkpt>
      <trkpt lat="60.458196519807" lon="22.277392110879">
        <ele>0</ele>
        <time>2016-01-23T11:09:15Z</time>
      </trkpt>
      <trkpt lat="60.458202806232" lon="22.277389596309">
        <ele>0</ele>
        <time>2016-01-23T11:09:16Z</time>
      </trkpt>
      <trkpt lat="60.458212864512" lon="22.27738951249">
        <ele>0</ele>
        <time>2016-01-23T11:09:17Z</time>
      </trkpt>
      <trkpt lat="60.458224599172" lon="22.277391607965">
        <ele>0</ele>
        <time>2016-01-23T11:09:18Z</time>
      </trkpt>
      <trkpt lat="60.458234070719" lon="22.277389177214">
        <ele>0</ele>
        <time>2016-01-23T11:09:19Z</time>
      </trkpt>
      <trkpt lat="60.458246978845" lon="22.277392697612">
        <ele>0</ele>
        <time>2016-01-23T11:09:20Z</time>
      </trkpt>
      <trkpt lat="60.458258042953" lon="22.277391272689">
        <ele>0.4</ele>
        <time>2016-01-23T11:09:21Z</time>
      </trkpt>
      <trkpt lat="60.458272376002" lon="22.277395882734">
        <ele>0.8</ele>
        <time>2016-01-23T11:09:22Z</time>
      </trkpt>
      <trkpt lat="60.45828344011" lon="22.277395128363">
        <ele>3</ele>
        <time>2016-01-23T11:09:23Z</time>
      </trkpt>
      <trkpt lat="60.458296934969" lon="22.277400241322">
        <ele>3</ele>
        <time>2016-01-23T11:09:24Z</time>
      </trkpt>
      <trkpt lat="60.458310681285" lon="22.277401750064">
        <ele>3</ele>
        <time>2016-01-23T11:09:25Z</time>
      </trkpt>
      <trkpt lat="60.458322332126" lon="22.277402420616">
        <ele>3</ele>
        <time>2016-01-23T11:09:26Z</time>
      </trkpt>
      <trkpt lat="60.458334904976" lon="22.27740627629">
        <ele>3</ele>
        <time>2016-01-23T11:09:27Z</time>
      </trkpt>
      <trkpt lat="60.458344208885" lon="22.277406360109">
        <ele>3</ele>
        <time>2016-01-23T11:09:28Z</time>
      </trkpt>
      <trkpt lat="60.458350579129" lon="22.277410048145">
        <ele>3</ele>
        <time>2016-01-23T11:09:29Z</time>
      </trkpt>
      <trkpt lat="60.458355943545" lon="22.277409712869">
        <ele>3</ele>
        <time>2016-01-23T11:09:30Z</time>
      </trkpt>
      <trkpt lat="60.458364325445" lon="22.277414322914">
        <ele>3</ele>
        <time>2016-01-23T11:09:31Z</time>
      </trkpt>
      <trkpt lat="60.458371114784" lon="22.27741465819">
        <ele>3</ele>
        <time>2016-01-23T11:09:32Z</time>
      </trkpt>
      <trkpt lat="60.458378574675" lon="22.277415077285">
        <ele>3</ele>
        <time>2016-01-23T11:09:33Z</time>
      </trkpt>
      <trkpt lat="60.458383268539" lon="22.277416083113">
        <ele>3</ele>
        <time>2016-01-23T11:09:34Z</time>
      </trkpt>
      <trkpt lat="60.458381256883" lon="22.277415747837">
        <ele>3</ele>
        <time>2016-01-23T11:09:35Z</time>
      </trkpt>
      <trkpt lat="60.458390393154" lon="22.277420357882">
        <ele>3</ele>
        <time>2016-01-23T11:09:36Z</time>
      </trkpt>
      <trkpt lat="60.458397098674" lon="22.277420106425">
        <ele>3</ele>
        <time>2016-01-23T11:09:37Z</time>
      </trkpt>
      <trkpt lat="60.458405396755" lon="22.277422118081">
        <ele>3</ele>
        <time>2016-01-23T11:09:38Z</time>
      </trkpt>
      <trkpt lat="60.458413862474" lon="22.277420190244">
        <ele>3</ele>
        <time>2016-01-23T11:09:39Z</time>
      </trkpt>
      <trkpt lat="60.458422160555" lon="22.277423123909">
        <ele>3</ele>
        <time>2016-01-23T11:09:40Z</time>
      </trkpt>
      <trkpt lat="60.458431129188" lon="22.277423626823">
        <ele>3</ele>
        <time>2016-01-23T11:09:41Z</time>
      </trkpt>
      <trkpt lat="60.458440265459" lon="22.277427063402">
        <ele>3</ele>
        <time>2016-01-23T11:09:42Z</time>
      </trkpt>
      <trkpt lat="60.458448647359" lon="22.277426057574">
        <ele>3</ele>
        <time>2016-01-23T11:09:43Z</time>
      </trkpt>
      <trkpt lat="60.458457615992" lon="22.277428153049">
        <ele>3</ele>
        <time>2016-01-23T11:09:44Z</time>
      </trkpt>
      <trkpt lat="60.458464572969" lon="22.277428320687">
        <ele>3</ele>
        <time>2016-01-23T11:09:45Z</time>
      </trkpt>
      <trkpt lat="60.458468596281" lon="22.277429242696">
        <ele>3</ele>
        <time>2016-01-23T11:09:46Z</time>
      </trkpt>
      <trkpt lat="60.458467255177" lon="22.277428739782">
        <ele>3</ele>
        <time>2016-01-23T11:09:47Z</time>
      </trkpt>
      <trkpt lat="60.458473206326" lon="22.277429829429">
        <ele>3</ele>
        <time>2016-01-23T11:09:48Z</time>
      </trkpt>
      <trkpt lat="60.458473876878" lon="22.277429494153">
        <ele>3</ele>
        <time>2016-01-23T11:09:49Z</time>
      </trkpt>
      <trkpt lat="60.458474044516" lon="22.277429242696">
        <ele>3</ele>
        <time>2016-01-23T11:09:50Z</time>
      </trkpt>
      <trkpt lat="60.45847538562" lon="22.277429913248">
        <ele>3</ele>
        <time>2016-01-23T11:09:51Z</time>
      </trkpt>
      <trkpt lat="60.458480498579" lon="22.277430332343">
        <ele>3</ele>
        <time>2016-01-23T11:09:52Z</time>
      </trkpt>
      <trkpt lat="60.45848795847" lon="22.277433601284">
        <ele>3</ele>
        <time>2016-01-23T11:09:53Z</time>
      </trkpt>
      <trkpt lat="60.458485779176" lon="22.277431757266">
        <ele>3</ele>
        <time>2016-01-23T11:09:54Z</time>
      </trkpt>
      <trkpt lat="60.458498938759" lon="22.277427817773">
        <ele>3</ele>
        <time>2016-01-23T11:09:55Z</time>
      </trkpt>
      <trkpt lat="60.45850472227" lon="22.277430332343">
        <ele>3</ele>
        <time>2016-01-23T11:09:56Z</time>
      </trkpt>
      <trkpt lat="60.458510338143" lon="22.277428236868">
        <ele>3</ele>
        <time>2016-01-23T11:09:57Z</time>
      </trkpt>
      <trkpt lat="60.458508242668" lon="22.277429158877">
        <ele>3</ele>
        <time>2016-01-23T11:09:58Z</time>
      </trkpt>
      <trkpt lat="60.458518887681" lon="22.277428655963">
        <ele>3</ele>
        <time>2016-01-23T11:09:59Z</time>
      </trkpt>
      <trkpt lat="60.458528526866" lon="22.277431589628">
        <ele>3</ele>
        <time>2016-01-23T11:10:00Z</time>
      </trkpt>
      <trkpt lat="60.458539004241" lon="22.277430919076">
        <ele>3</ele>
        <time>2016-01-23T11:10:01Z</time>
      </trkpt>
      <trkpt lat="60.458549062521" lon="22.277435110026">
        <ele>3</ele>
        <time>2016-01-23T11:10:02Z</time>
      </trkpt>
      <trkpt lat="60.458556857688" lon="22.277434523293">
        <ele>3</ele>
        <time>2016-01-23T11:10:03Z</time>
      </trkpt>
      <trkpt lat="60.458564569036" lon="22.277439468614">
        <ele>3</ele>
        <time>2016-01-23T11:10:04Z</time>
      </trkpt>
      <trkpt lat="60.458571945108" lon="22.277440977356">
        <ele>3</ele>
        <time>2016-01-23T11:10:05Z</time>
      </trkpt>
      <trkpt lat="60.458579572637" lon="22.27744315665">
        <ele>3</ele>
        <time>2016-01-23T11:10:06Z</time>
      </trkpt>
      <trkpt lat="60.45858854127" lon="22.277446006496">
        <ele>3</ele>
        <time>2016-01-23T11:10:07Z</time>
      </trkpt>
      <trkpt lat="60.458598096636" lon="22.27744650941">
        <ele>3</ele>
        <time>2016-01-23T11:10:08Z</time>
      </trkpt>
      <trkpt lat="60.45860614326" lon="22.277450448903">
        <ele>3</ele>
        <time>2016-01-23T11:10:09Z</time>
      </trkpt>
      <trkpt lat="60.458612597323" lon="22.277450197446">
        <ele>3</ele>
        <time>2016-01-23T11:10:10Z</time>
      </trkpt>
      <trkpt lat="60.458620560128" lon="22.277452879654">
        <ele>3</ele>
        <time>2016-01-23T11:10:11Z</time>
      </trkpt>
      <trkpt lat="60.458626762734" lon="22.277453466387">
        <ele>3</ele>
        <time>2016-01-23T11:10:12Z</time>
      </trkpt>
      <trkpt lat="60.458634054987" lon="22.277455645681">
        <ele>3</ele>
        <time>2016-01-23T11:10:13Z</time>
      </trkpt>
      <trkpt lat="60.458639838498" lon="22.27745908226">
        <ele>3</ele>
        <time>2016-01-23T11:10:14Z</time>
      </trkpt>
      <trkpt lat="60.458646879294" lon="22.277460423364">
        <ele>3</ele>
        <time>2016-01-23T11:10:15Z</time>
      </trkpt>
      <trkpt lat="60.458652746624" lon="22.277463608486">
        <ele>3</ele>
        <time>2016-01-23T11:10:16Z</time>
      </trkpt>
      <trkpt lat="60.458657608126" lon="22.2774641114">
        <ele>3</ele>
        <time>2016-01-23T11:10:17Z</time>
      </trkpt>
      <trkpt lat="60.458656015565" lon="22.277463524667">
        <ele>3</ele>
        <time>2016-01-23T11:10:18Z</time>
      </trkpt>
      <trkpt lat="60.458662218171" lon="22.277462518839">
        <ele>3</ele>
        <time>2016-01-23T11:10:19Z</time>
      </trkpt>
      <trkpt lat="60.458661882895" lon="22.27746075864">
        <ele>3</ele>
        <time>2016-01-23T11:10:20Z</time>
      </trkpt>
      <trkpt lat="60.458661212343" lon="22.277460507183">
        <ele>3</ele>
        <time>2016-01-23T11:10:21Z</time>
      </trkpt>
      <trkpt lat="60.458660793248" lon="22.277461429192">
        <ele>3</ele>
        <time>2016-01-23T11:10:22Z</time>
      </trkpt>
      <trkpt lat="60.458659871239" lon="22.277462351201">
        <ele>3</ele>
        <time>2016-01-23T11:10:23Z</time>
      </trkpt>
      <trkpt lat="60.45865727285" lon="22.277464195219">
        <ele>3</ele>
        <time>2016-01-23T11:10:24Z</time>
      </trkpt>
      <trkpt lat="60.458656686117" lon="22.277465703961">
        <ele>3</ele>
        <time>2016-01-23T11:10:25Z</time>
      </trkpt>
      <trkpt lat="60.458656267022" lon="22.277467045065">
        <ele>3</ele>
        <time>2016-01-23T11:10:26Z</time>
      </trkpt>
      <trkpt lat="60.458655512651" lon="22.277467967074">
        <ele>3</ele>
        <time>2016-01-23T11:10:27Z</time>
      </trkpt>
      <trkpt lat="60.458654255366" lon="22.277469224359">
        <ele>3</ele>
        <time>2016-01-23T11:10:28Z</time>
      </trkpt>
      <trkpt lat="60.458653668633" lon="22.277470314006">
        <ele>3</ele>
        <time>2016-01-23T11:10:29Z</time>
      </trkpt>
      <trkpt lat="60.458652914262" lon="22.277471236015">
        <ele>3</ele>
        <time>2016-01-23T11:10:30Z</time>
      </trkpt>
      <trkpt lat="60.45865224371" lon="22.277471906567">
        <ele>3</ele>
        <time>2016-01-23T11:10:31Z</time>
      </trkpt>
      <trkpt lat="60.45865224371" lon="22.277472744757">
        <ele>3</ele>
        <time>2016-01-23T11:10:32Z</time>
      </trkpt>
      <trkpt lat="60.458649645321" lon="22.277474002042">
        <ele>3</ele>
        <time>2016-01-23T11:10:33Z</time>
      </trkpt>
      <trkpt lat="60.458649477683" lon="22.277474002042">
        <ele>3</ele>
        <time>2016-01-23T11:10:34Z</time>
      </trkpt>
      <trkpt lat="60.458656853755" lon="22.277476516612">
        <ele>3</ele>
        <time>2016-01-23T11:10:35Z</time>
      </trkpt>
      <trkpt lat="60.458662134352" lon="22.277476768069">
        <ele>3</ele>
        <time>2016-01-23T11:10:36Z</time>
      </trkpt>
      <trkpt lat="60.458670348614" lon="22.27747584606">
        <ele>3</ele>
        <time>2016-01-23T11:10:37Z</time>
      </trkpt>
      <trkpt lat="60.458678311419" lon="22.277474840232">
        <ele>3</ele>
        <time>2016-01-23T11:10:38Z</time>
      </trkpt>
      <trkpt lat="60.458686358043" lon="22.27747500787">
        <ele>3</ele>
        <time>2016-01-23T11:10:39Z</time>
      </trkpt>
      <trkpt lat="60.458693147382" lon="22.277474085861">
        <ele>3.6</ele>
        <time>2016-01-23T11:10:40Z</time>
      </trkpt>
      <trkpt lat="60.458697925065" lon="22.277473080033">
        <ele>4</ele>
        <time>2016-01-23T11:10:41Z</time>
      </trkpt>
      <trkpt lat="60.458702451291" lon="22.27747416968">
        <ele>4.6</ele>
        <time>2016-01-23T11:10:42Z</time>
      </trkpt>
      <trkpt lat="60.45870756425" lon="22.277472577119">
        <ele>5.2</ele>
        <time>2016-01-23T11:10:43Z</time>
      </trkpt>
      <trkpt lat="60.458712174295" lon="22.27747584606">
        <ele>5.6</ele>
        <time>2016-01-23T11:10:44Z</time>
      </trkpt>
      <trkpt lat="60.458717538711" lon="22.277475175508">
        <ele>5.6</ele>
        <time>2016-01-23T11:10:45Z</time>
      </trkpt>
      <trkpt lat="60.458721645842" lon="22.277475929879">
        <ele>5.6</ele>
        <time>2016-01-23T11:10:46Z</time>
      </trkpt>
      <trkpt lat="60.458727932267" lon="22.277470984558">
        <ele>5.6</ele>
        <time>2016-01-23T11:10:47Z</time>
      </trkpt>
      <trkpt lat="60.458732961407" lon="22.277468134712">
        <ele>5.6</ele>
        <time>2016-01-23T11:10:48Z</time>
      </trkpt>
      <trkpt lat="60.458738409642" lon="22.27746578778">
        <ele>5.6</ele>
        <time>2016-01-23T11:10:49Z</time>
      </trkpt>
      <trkpt lat="60.458743271144" lon="22.277464781952">
        <ele>5.6</ele>
        <time>2016-01-23T11:10:50Z</time>
      </trkpt>
      <trkpt lat="60.458747462094" lon="22.277465703961">
        <ele>5.6</ele>
        <time>2016-01-23T11:10:51Z</time>
      </trkpt>
      <trkpt lat="60.458750814854" lon="22.277470900739">
        <ele>5.6</ele>
        <time>2016-01-23T11:10:52Z</time>
      </trkpt>
      <trkpt lat="60.458749054655" lon="22.277468637626">
        <ele>5.6</ele>
        <time>2016-01-23T11:10:53Z</time>
      </trkpt>
      <trkpt lat="60.458752407415" lon="22.277475091689">
        <ele>5.6</ele>
        <time>2016-01-23T11:10:54Z</time>
      </trkpt>
      <trkpt lat="60.458757436555" lon="22.277476432793">
        <ele>5.6</ele>
        <time>2016-01-23T11:10:55Z</time>
      </trkpt>
      <trkpt lat="60.458761292229" lon="22.277476851888">
        <ele>5.6</ele>
        <time>2016-01-23T11:10:56Z</time>
      </trkpt>
      <trkpt lat="60.458765734636" lon="22.277476348974">
        <ele>5.6</ele>
        <time>2016-01-23T11:10:57Z</time>
      </trkpt>
      <trkpt lat="60.458763387704" lon="22.277476516612">
        <ele>5.6</ele>
        <time>2016-01-23T11:10:58Z</time>
      </trkpt>
      <trkpt lat="60.45876539936" lon="22.277471319834">
        <ele>5.6</ele>
        <time>2016-01-23T11:10:59Z</time>
      </trkpt>
      <trkpt lat="60.45876456117" lon="22.277464027581">
        <ele>5.6</ele>
        <time>2016-01-23T11:11:00Z</time>
      </trkpt>
      <trkpt lat="60.458763555342" lon="22.277459501355">
        <ele>5.6</ele>
        <time>2016-01-23T11:11:01Z</time>
      </trkpt>
      <trkpt lat="60.45876539936" lon="22.277449778351">
        <ele>5.6</ele>
        <time>2016-01-23T11:11:02Z</time>
      </trkpt>
      <trkpt lat="60.458763806799" lon="22.277453634025">
        <ele>5.6</ele>
        <time>2016-01-23T11:11:03Z</time>
      </trkpt>
      <trkpt lat="60.458760705496" lon="22.277453131111">
        <ele>5.6</ele>
        <time>2016-01-23T11:11:04Z</time>
      </trkpt>
      <trkpt lat="60.458759112935" lon="22.277453634025">
        <ele>5.6</ele>
        <time>2016-01-23T11:11:05Z</time>
      </trkpt>
      <trkpt lat="60.458757604193" lon="22.27745489131">
        <ele>5.6</ele>
        <time>2016-01-23T11:11:06Z</time>
      </trkpt>
      <trkpt lat="60.458755843994" lon="22.277457657337">
        <ele>5.6</ele>
        <time>2016-01-23T11:11:07Z</time>
      </trkpt>
      <trkpt lat="60.458754921985" lon="22.277458663165">
        <ele>5.6</ele>
        <time>2016-01-23T11:11:08Z</time>
      </trkpt>
      <trkpt lat="60.458751401587" lon="22.277452292921">
        <ele>5.6</ele>
        <time>2016-01-23T11:11:09Z</time>
      </trkpt>
      <trkpt lat="60.458752575053" lon="22.277455561862">
        <ele>5.6</ele>
        <time>2016-01-23T11:11:10Z</time>
      </trkpt>
      <trkpt lat="60.458750060483" lon="22.277446760867">
        <ele>5.6</ele>
        <time>2016-01-23T11:11:11Z</time>
      </trkpt>
      <trkpt lat="60.458752658872" lon="22.277438378967">
        <ele>5.6</ele>
        <time>2016-01-23T11:11:12Z</time>
      </trkpt>
      <trkpt lat="60.458751066311" lon="22.277441144994">
        <ele>5.6</ele>
        <time>2016-01-23T11:11:13Z</time>
      </trkpt>
      <trkpt lat="60.4587536647" lon="22.277446090315">
        <ele>5.6</ele>
        <time>2016-01-23T11:11:14Z</time>
      </trkpt>
      <trkpt lat="60.45875450289" lon="22.277452125283">
        <ele>5.6</ele>
        <time>2016-01-23T11:11:15Z</time>
      </trkpt>
      <trkpt lat="60.458755592537" lon="22.277457489699">
        <ele>5.6</ele>
        <time>2016-01-23T11:11:16Z</time>
      </trkpt>
      <trkpt lat="60.458756766003" lon="22.277462602658">
        <ele>5.6</ele>
        <time>2016-01-23T11:11:17Z</time>
      </trkpt>
      <trkpt lat="60.458757352736" lon="22.277465033409">
        <ele>5.6</ele>
        <time>2016-01-23T11:11:18Z</time>
      </trkpt>
      <trkpt lat="60.458757771831" lon="22.277463608486">
        <ele>5.6</ele>
        <time>2016-01-23T11:11:19Z</time>
      </trkpt>
      <trkpt lat="60.458758610021" lon="22.277467967074">
        <ele>5.6</ele>
        <time>2016-01-23T11:11:20Z</time>
      </trkpt>
      <trkpt lat="60.458760873134" lon="22.277471319834">
        <ele>5.6</ele>
        <time>2016-01-23T11:11:21Z</time>
      </trkpt>
      <trkpt lat="60.458761292229" lon="22.277471822748">
        <ele>5.6</ele>
        <time>2016-01-23T11:11:22Z</time>
      </trkpt>
      <trkpt lat="60.458761459867" lon="22.277469894911">
        <ele>5.6</ele>
        <time>2016-01-23T11:11:23Z</time>
      </trkpt>
      <trkpt lat="60.458761962781" lon="22.277467547979">
        <ele>5.6</ele>
        <time>2016-01-23T11:11:24Z</time>
      </trkpt>
      <trkpt lat="60.4587620466" lon="22.277466458332">
        <ele>5.6</ele>
        <time>2016-01-23T11:11:25Z</time>
      </trkpt>
      <trkpt lat="60.458761543686" lon="22.277466793608">
        <ele>5.6</ele>
        <time>2016-01-23T11:11:26Z</time>
      </trkpt>
      <trkpt lat="60.458761459867" lon="22.277466542151">
        <ele>5.6</ele>
        <time>2016-01-23T11:11:27Z</time>
      </trkpt>
      <trkpt lat="60.458761459867" lon="22.277466961246">
        <ele>5.6</ele>
        <time>2016-01-23T11:11:28Z</time>
      </trkpt>
      <trkpt lat="60.458761878962" lon="22.277468134712">
        <ele>5.6</ele>
        <time>2016-01-23T11:11:29Z</time>
      </trkpt>
      <trkpt lat="60.45876288479" lon="22.277469308178">
        <ele>5.6</ele>
        <time>2016-01-23T11:11:30Z</time>
      </trkpt>
      <trkpt lat="60.45876456117" lon="22.277469308178">
        <ele>5.6</ele>
        <time>2016-01-23T11:11:31Z</time>
      </trkpt>
      <trkpt lat="60.458765483179" lon="22.277469391997">
        <ele>5.6</ele>
        <time>2016-01-23T11:11:32Z</time>
      </trkpt>
      <trkpt lat="60.458767830111" lon="22.277480456105">
        <ele>5.6</ele>
        <time>2016-01-23T11:11:33Z</time>
      </trkpt>
      <trkpt lat="60.458767159559" lon="22.277475343146">
        <ele>5.6</ele>
        <time>2016-01-23T11:11:34Z</time>
      </trkpt>
      <trkpt lat="60.45876539936" lon="22.277468553807">
        <ele>5.6</ele>
        <time>2016-01-23T11:11:35Z</time>
      </trkpt>
      <trkpt lat="60.458766489007" lon="22.277472325662">
        <ele>5.6</ele>
        <time>2016-01-23T11:11:36Z</time>
      </trkpt>
      <trkpt lat="60.458774870907" lon="22.277478528268">
        <ele>5.6</ele>
        <time>2016-01-23T11:11:37Z</time>
      </trkpt>
      <trkpt lat="60.458781827884" lon="22.277483808865">
        <ele>5.6</ele>
        <time>2016-01-23T11:11:38Z</time>
      </trkpt>
      <trkpt lat="60.458786689386" lon="22.277481629571">
        <ele>5.6</ele>
        <time>2016-01-23T11:11:39Z</time>
      </trkpt>
      <trkpt lat="60.458794233096" lon="22.277482635399">
        <ele>5.6</ele>
        <time>2016-01-23T11:11:40Z</time>
      </trkpt>
      <trkpt lat="60.458802866453" lon="22.277480204648">
        <ele>5.6</ele>
        <time>2016-01-23T11:11:41Z</time>
      </trkpt>
      <trkpt lat="60.458809488154" lon="22.277473834404">
        <ele>5.6</ele>
        <time>2016-01-23T11:11:42Z</time>
      </trkpt>
      <trkpt lat="60.458814936389" lon="22.277467799436">
        <ele>5.6</ele>
        <time>2016-01-23T11:11:43Z</time>
      </trkpt>
      <trkpt lat="60.458821977185" lon="22.277462518839">
        <ele>5.6</ele>
        <time>2016-01-23T11:11:44Z</time>
      </trkpt>
      <trkpt lat="60.45882826361" lon="22.277461848287">
        <ele>5.6</ele>
        <time>2016-01-23T11:11:45Z</time>
      </trkpt>
      <trkpt lat="60.458836226415" lon="22.27746662597">
        <ele>5.6</ele>
        <time>2016-01-23T11:11:46Z</time>
      </trkpt>
      <trkpt lat="60.458845530324" lon="22.277466374513">
        <ele>5.6</ele>
        <time>2016-01-23T11:11:47Z</time>
      </trkpt>
      <trkpt lat="60.458862377943" lon="22.277471236015">
        <ele>5.6</ele>
        <time>2016-01-23T11:11:48Z</time>
      </trkpt>
      <trkpt lat="60.458875956621" lon="22.277472996214">
        <ele>5.6</ele>
        <time>2016-01-23T11:11:49Z</time>
      </trkpt>
      <trkpt lat="60.45888945148" lon="22.27747500787">
        <ele>5.6</ele>
        <time>2016-01-23T11:11:50Z</time>
      </trkpt>
      <trkpt lat="60.458902191968" lon="22.277478192992">
        <ele>5.6</ele>
        <time>2016-01-23T11:11:51Z</time>
      </trkpt>
      <trkpt lat="60.458914513361" lon="22.277483054494">
        <ele>5.6</ele>
        <time>2016-01-23T11:11:52Z</time>
      </trkpt>
      <trkpt lat="60.458933959369" lon="22.277493196593">
        <ele>5.6</ele>
        <time>2016-01-23T11:11:53Z</time>
      </trkpt>
      <trkpt lat="60.458949884979" lon="22.277499147742">
        <ele>5.6</ele>
        <time>2016-01-23T11:11:54Z</time>
      </trkpt>
      <trkpt lat="60.458967989883" lon="22.277505517986">
        <ele>5.6</ele>
        <time>2016-01-23T11:11:55Z</time>
      </trkpt>
      <trkpt lat="60.458987016796" lon="22.277510044212">
        <ele>5.6</ele>
        <time>2016-01-23T11:11:56Z</time>
      </trkpt>
      <trkpt lat="60.459005205519" lon="22.27750853547">
        <ele>5.2</ele>
        <time>2016-01-23T11:11:57Z</time>
      </trkpt>
      <trkpt lat="60.459023226604" lon="22.277515660085">
        <ele>4.8</ele>
        <time>2016-01-23T11:11:58Z</time>
      </trkpt>
      <trkpt lat="60.459038733119" lon="22.277515743904">
        <ele>4.2</ele>
        <time>2016-01-23T11:11:59Z</time>
      </trkpt>
      <trkpt lat="60.459049210494" lon="22.277520856863">
        <ele>3.8</ele>
        <time>2016-01-23T11:12:00Z</time>
      </trkpt>
      <trkpt lat="60.459056418928" lon="22.277522114148">
        <ele>3.2</ele>
        <time>2016-01-23T11:12:01Z</time>
      </trkpt>
      <trkpt lat="60.459062286258" lon="22.277526556555">
        <ele>3.2</ele>
        <time>2016-01-23T11:12:02Z</time>
      </trkpt>
      <trkpt lat="60.459060777516" lon="22.277523958166">
        <ele>3.2</ele>
        <time>2016-01-23T11:12:03Z</time>
      </trkpt>
      <trkpt lat="60.459060777516" lon="22.277523958166">
        <ele>3.2</ele>
        <time>2016-01-23T11:12:04Z</time>
      </trkpt>
      <trkpt lat="60.459066644846" lon="22.277528065297">
        <ele>3.2</ele>
        <time>2016-01-23T11:12:05Z</time>
      </trkpt>
      <trkpt lat="60.459066812484" lon="22.277527730021">
        <ele>3.2</ele>
        <time>2016-01-23T11:12:06Z</time>
      </trkpt>
      <trkpt lat="60.459066561027" lon="22.277526221279">
        <ele>3.2</ele>
        <time>2016-01-23T11:12:07Z</time>
      </trkpt>
      <trkpt lat="60.459065806656" lon="22.277526640374">
        <ele>3.2</ele>
        <time>2016-01-23T11:12:08Z</time>
      </trkpt>
      <trkpt lat="60.45906547138" lon="22.277527730021">
        <ele>3.2</ele>
        <time>2016-01-23T11:12:09Z</time>
      </trkpt>
      <trkpt lat="60.459065806656" lon="22.277527897659">
        <ele>3.2</ele>
        <time>2016-01-23T11:12:10Z</time>
      </trkpt>
      <trkpt lat="60.459067063941" lon="22.27752865203">
        <ele>3.2</ele>
        <time>2016-01-23T11:12:11Z</time>
      </trkpt>
      <trkpt lat="60.459068907959" lon="22.277529406401">
        <ele>3.2</ele>
        <time>2016-01-23T11:12:12Z</time>
      </trkpt>
      <trkpt lat="60.459071003434" lon="22.277528987306">
        <ele>3.2</ele>
        <time>2016-01-23T11:12:13Z</time>
      </trkpt>
      <trkpt lat="60.459071841624" lon="22.277528316754">
        <ele>3.2</ele>
        <time>2016-01-23T11:12:14Z</time>
      </trkpt>
      <trkpt lat="60.4590721769" lon="22.277526640374">
        <ele>3.2</ele>
        <time>2016-01-23T11:12:15Z</time>
      </trkpt>
      <trkpt lat="60.459072512176" lon="22.277524125804">
        <ele>3.2</ele>
        <time>2016-01-23T11:12:16Z</time>
      </trkpt>
      <trkpt lat="60.459072512176" lon="22.277524796356">
        <ele>3.2</ele>
        <time>2016-01-23T11:12:17Z</time>
      </trkpt>
      <trkpt lat="60.459072679814" lon="22.277524796356">
        <ele>3.2</ele>
        <time>2016-01-23T11:12:18Z</time>
      </trkpt>
      <trkpt lat="60.459072847452" lon="22.277522617062">
        <ele>3.2</ele>
        <time>2016-01-23T11:12:19Z</time>
      </trkpt>
      <trkpt lat="60.459073518004" lon="22.27752110832">
        <ele>3.2</ele>
        <time>2016-01-23T11:12:20Z</time>
      </trkpt>
      <trkpt lat="60.459076954583" lon="22.277520605406">
        <ele>3.2</ele>
        <time>2016-01-23T11:12:21Z</time>
      </trkpt>
      <trkpt lat="60.459080307343" lon="22.277520940682">
        <ele>3.2</ele>
        <time>2016-01-23T11:12:22Z</time>
      </trkpt>
      <trkpt lat="60.459083408646" lon="22.277522197967">
        <ele>3.2</ele>
        <time>2016-01-23T11:12:23Z</time>
      </trkpt>
      <trkpt lat="60.459090030347" lon="22.277525131632">
        <ele>3.2</ele>
        <time>2016-01-23T11:12:24Z</time>
      </trkpt>
      <trkpt lat="60.459094975668" lon="22.277527310926">
        <ele>3.2</ele>
        <time>2016-01-23T11:12:25Z</time>
      </trkpt>
      <trkpt lat="60.459098747523" lon="22.277529825496">
        <ele>3.2</ele>
        <time>2016-01-23T11:12:26Z</time>
      </trkpt>
      <trkpt lat="60.459097574057" lon="22.27752865203">
        <ele>3.2</ele>
        <time>2016-01-23T11:12:27Z</time>
      </trkpt>
      <trkpt lat="60.459108721984" lon="22.277530831324">
        <ele>3.2</ele>
        <time>2016-01-23T11:12:28Z</time>
      </trkpt>
      <trkpt lat="60.459114505495" lon="22.277536028102">
        <ele>3.2</ele>
        <time>2016-01-23T11:12:29Z</time>
      </trkpt>
      <trkpt lat="60.459112577658" lon="22.277533597351">
        <ele>3.6</ele>
        <time>2016-01-23T11:12:30Z</time>
      </trkpt>
      <trkpt lat="60.459114505495" lon="22.277534016446">
        <ele>3.8</ele>
        <time>2016-01-23T11:12:31Z</time>
      </trkpt>
      <trkpt lat="60.459113415848" lon="22.277533764989">
        <ele>4</ele>
        <time>2016-01-23T11:12:32Z</time>
      </trkpt>
      <trkpt lat="60.459113918762" lon="22.277532507704">
        <ele>4.4</ele>
        <time>2016-01-23T11:12:33Z</time>
      </trkpt>
      <trkpt lat="60.459114505495" lon="22.27753200479">
        <ele>4.8</ele>
        <time>2016-01-23T11:12:34Z</time>
      </trkpt>
      <trkpt lat="60.459116265694" lon="22.277533094437">
        <ele>5.2</ele>
        <time>2016-01-23T11:12:35Z</time>
      </trkpt>
      <trkpt lat="60.459117606798" lon="22.277533262075">
        <ele>5.2</ele>
        <time>2016-01-23T11:12:36Z</time>
      </trkpt>
      <trkpt lat="60.45911911554" lon="22.277531669514">
        <ele>5.2</ele>
        <time>2016-01-23T11:12:37Z</time>
      </trkpt>
      <trkpt lat="60.45911995373" lon="22.277530412229">
        <ele>5.2</ele>
        <time>2016-01-23T11:12:38Z</time>
      </trkpt>
      <trkpt lat="60.459120875739" lon="22.277529657858">
        <ele>5.2</ele>
        <time>2016-01-23T11:12:39Z</time>
      </trkpt>
      <trkpt lat="60.459121797748" lon="22.277528400573">
        <ele>5.2</ele>
        <time>2016-01-23T11:12:40Z</time>
      </trkpt>
      <trkpt lat="60.45912330649" lon="22.277528065297">
        <ele>5.2</ele>
        <time>2016-01-23T11:12:41Z</time>
      </trkpt>
      <trkpt lat="60.45912414468" lon="22.277528149116">
        <ele>5.2</ele>
        <time>2016-01-23T11:12:42Z</time>
      </trkpt>
      <trkpt lat="60.459123809404" lon="22.277528065297">
        <ele>5.2</ele>
        <time>2016-01-23T11:12:43Z</time>
      </trkpt>
      <trkpt lat="60.459124479956" lon="22.277528735849">
        <ele>5.2</ele>
        <time>2016-01-23T11:12:44Z</time>
      </trkpt>
      <trkpt lat="60.459124899051" lon="22.277529993134">
        <ele>5.2</ele>
        <time>2016-01-23T11:12:45Z</time>
      </trkpt>
      <trkpt lat="60.459124899051" lon="22.277529993134">
        <ele>5.2</ele>
        <time>2016-01-23T11:12:46Z</time>
      </trkpt>
      <trkpt lat="60.45912582106" lon="22.277529657858">
        <ele>5.2</ele>
        <time>2016-01-23T11:12:47Z</time>
      </trkpt>
      <trkpt lat="60.459126156336" lon="22.277530244591">
        <ele>5.2</ele>
        <time>2016-01-23T11:12:48Z</time>
      </trkpt>
      <trkpt lat="60.459126743069" lon="22.277528987306">
        <ele>5.2</ele>
        <time>2016-01-23T11:12:49Z</time>
      </trkpt>
      <trkpt lat="60.459127162164" lon="22.277526808012">
        <ele>5.2</ele>
        <time>2016-01-23T11:12:50Z</time>
      </trkpt>
      <trkpt lat="60.459128000354" lon="22.27752529927">
        <ele>5.2</ele>
        <time>2016-01-23T11:12:51Z</time>
      </trkpt>
      <trkpt lat="60.459128503268" lon="22.277527646202">
        <ele>5.2</ele>
        <time>2016-01-23T11:12:52Z</time>
      </trkpt>
      <trkpt lat="60.45913252658" lon="22.277541392518">
        <ele>5.2</ele>
        <time>2016-01-23T11:12:53Z</time>
      </trkpt>
      <trkpt lat="60.459135963159" lon="22.277554719739">
        <ele>5.2</ele>
        <time>2016-01-23T11:12:54Z</time>
      </trkpt>
      <trkpt lat="60.459145267068" lon="22.277567460227">
        <ele>5.2</ele>
        <time>2016-01-23T11:12:55Z</time>
      </trkpt>
      <trkpt lat="60.45916353961" lon="22.277583050561">
        <ele>5.2</ele>
        <time>2016-01-23T11:12:56Z</time>
      </trkpt>
      <trkpt lat="60.459185500188" lon="22.277596964515">
        <ele>5.2</ele>
        <time>2016-01-23T11:12:57Z</time>
      </trkpt>
      <trkpt lat="60.45920964006" lon="22.277608615356">
        <ele>5.2</ele>
        <time>2016-01-23T11:12:58Z</time>
      </trkpt>
      <trkpt lat="60.459228666973" lon="22.277621523482">
        <ele>5.2</ele>
        <time>2016-01-23T11:12:59Z</time>
      </trkpt>
      <trkpt lat="60.459250124637" lon="22.27762420569">
        <ele>5.2</ele>
        <time>2016-01-23T11:13:00Z</time>
      </trkpt>
      <trkpt lat="60.459270911749" lon="22.277633593418">
        <ele>5.2</ele>
        <time>2016-01-23T11:13:01Z</time>
      </trkpt>
      <trkpt lat="60.459294548707" lon="22.277636024169">
        <ele>5.2</ele>
        <time>2016-01-23T11:13:02Z</time>
      </trkpt>
      <trkpt lat="60.459319610588" lon="22.277648261743">
        <ele>5.2</ele>
        <time>2016-01-23T11:13:03Z</time>
      </trkpt>
      <trkpt lat="60.459341822623" lon="22.277655386358">
        <ele>5.2</ele>
        <time>2016-01-23T11:13:04Z</time>
      </trkpt>
      <trkpt lat="60.459369063798" lon="22.277665193181">
        <ele>5.2</ele>
        <time>2016-01-23T11:13:05Z</time>
      </trkpt>
      <trkpt lat="60.459393874222" lon="22.277677933669">
        <ele>5.2</ele>
        <time>2016-01-23T11:13:06Z</time>
      </trkpt>
      <trkpt lat="60.459416840628" lon="22.277698134048">
        <ele>5.2</ele>
        <time>2016-01-23T11:13:07Z</time>
      </trkpt>
      <trkpt lat="60.459432095686" lon="22.277710455441">
        <ele>5.2</ele>
        <time>2016-01-23T11:13:08Z</time>
      </trkpt>
      <trkpt lat="60.459440729043" lon="22.277718334427">
        <ele>5.2</ele>
        <time>2016-01-23T11:13:09Z</time>
      </trkpt>
      <trkpt lat="60.459444752355" lon="22.27772227392">
        <ele>4.8</ele>
        <time>2016-01-23T11:13:10Z</time>
      </trkpt>
      <trkpt lat="60.459443411251" lon="22.277721351911">
        <ele>4.4</ele>
        <time>2016-01-23T11:13:11Z</time>
      </trkpt>
      <trkpt lat="60.459441902509" lon="22.277721268092">
        <ele>4.4</ele>
        <time>2016-01-23T11:13:12Z</time>
      </trkpt>
      <trkpt lat="60.459441651052" lon="22.277723363567">
        <ele>4.4</ele>
        <time>2016-01-23T11:13:13Z</time>
      </trkpt>
      <trkpt lat="60.459441148138" lon="22.27772311211">
        <ele>4.6</ele>
        <time>2016-01-23T11:13:14Z</time>
      </trkpt>
      <trkpt lat="60.459441567233" lon="22.277722190101">
        <ele>4.8</ele>
        <time>2016-01-23T11:13:15Z</time>
      </trkpt>
      <trkpt lat="60.459441986328" lon="22.277724537033">
        <ele>5</ele>
        <time>2016-01-23T11:13:16Z</time>
      </trkpt>
      <trkpt lat="60.459442573061" lon="22.27772562668">
        <ele>5</ele>
        <time>2016-01-23T11:13:17Z</time>
      </trkpt>
      <trkpt lat="60.459441986328" lon="22.277726548689">
        <ele>5</ele>
        <time>2016-01-23T11:13:18Z</time>
      </trkpt>
      <trkpt lat="60.459440477586" lon="22.277729733811">
        <ele>5</ele>
        <time>2016-01-23T11:13:19Z</time>
      </trkpt>
      <trkpt lat="60.459439220301" lon="22.277732918933">
        <ele>5</ele>
        <time>2016-01-23T11:13:20Z</time>
      </trkpt>
      <trkpt lat="60.459437711559" lon="22.277735852598">
        <ele>5</ele>
        <time>2016-01-23T11:13:21Z</time>
      </trkpt>
      <trkpt lat="60.459437879197" lon="22.277738618625">
        <ele>5</ele>
        <time>2016-01-23T11:13:22Z</time>
      </trkpt>
      <trkpt lat="60.459437795378" lon="22.277740797919">
        <ele>5</ele>
        <time>2016-01-23T11:13:23Z</time>
      </trkpt>
      <trkpt lat="60.459434945532" lon="22.277741133195">
        <ele>5</ele>
        <time>2016-01-23T11:13:24Z</time>
      </trkpt>
      <trkpt lat="60.459430754582" lon="22.277742809575">
        <ele>5</ele>
        <time>2016-01-23T11:13:25Z</time>
      </trkpt>
      <trkpt lat="60.45942840765" lon="22.277745491783">
        <ele>5</ele>
        <time>2016-01-23T11:13:26Z</time>
      </trkpt>
      <trkpt lat="60.459426312175" lon="22.27774825781">
        <ele>5</ele>
        <time>2016-01-23T11:13:27Z</time>
      </trkpt>
      <trkpt lat="60.459425809261" lon="22.277749096">
        <ele>5</ele>
        <time>2016-01-23T11:13:28Z</time>
      </trkpt>
      <trkpt lat="60.459426563632" lon="22.277749347457">
        <ele>5</ele>
        <time>2016-01-23T11:13:29Z</time>
      </trkpt>
      <trkpt lat="60.459426815089" lon="22.277751862027">
        <ele>5</ele>
        <time>2016-01-23T11:13:30Z</time>
      </trkpt>
      <trkpt lat="60.459425222528" lon="22.277754711873">
        <ele>5</ele>
        <time>2016-01-23T11:13:31Z</time>
      </trkpt>
      <trkpt lat="60.459423210872" lon="22.277755633882">
        <ele>5</ele>
        <time>2016-01-23T11:13:32Z</time>
      </trkpt>
      <trkpt lat="60.459421953587" lon="22.277756723529">
        <ele>5</ele>
        <time>2016-01-23T11:13:33Z</time>
      </trkpt>
      <trkpt lat="60.459421283035" lon="22.277757813176">
        <ele>5</ele>
        <time>2016-01-23T11:13:34Z</time>
      </trkpt>
      <trkpt lat="60.459420696302" lon="22.277758735185">
        <ele>5</ele>
        <time>2016-01-23T11:13:35Z</time>
      </trkpt>
      <trkpt lat="60.459419606655" lon="22.277759238099">
        <ele>5</ele>
        <time>2016-01-23T11:13:36Z</time>
      </trkpt>
      <trkpt lat="60.459419019922" lon="22.277759824832">
        <ele>5</ele>
        <time>2016-01-23T11:13:37Z</time>
      </trkpt>
      <trkpt lat="60.45941834937" lon="22.277759824832">
        <ele>5</ele>
        <time>2016-01-23T11:13:38Z</time>
      </trkpt>
      <trkpt lat="60.45941667299" lon="22.277760746841">
        <ele>5</ele>
        <time>2016-01-23T11:13:39Z</time>
      </trkpt>
      <trkpt lat="60.459415080429" lon="22.277761836488">
        <ele>5</ele>
        <time>2016-01-23T11:13:40Z</time>
      </trkpt>
      <trkpt lat="60.459414493696" lon="22.277762842316">
        <ele>5</ele>
        <time>2016-01-23T11:13:41Z</time>
      </trkpt>
      <trkpt lat="60.459413823144" lon="22.277764099601">
        <ele>5</ele>
        <time>2016-01-23T11:13:42Z</time>
      </trkpt>
      <trkpt lat="60.459413404049" lon="22.277765356886">
        <ele>5</ele>
        <time>2016-01-23T11:13:43Z</time>
      </trkpt>
      <trkpt lat="60.459413152592" lon="22.277765608343">
        <ele>5</ele>
        <time>2016-01-23T11:13:44Z</time>
      </trkpt>
      <trkpt lat="60.459413655506" lon="22.277766027438">
        <ele>5</ele>
        <time>2016-01-23T11:13:45Z</time>
      </trkpt>
      <trkpt lat="60.459414577515" lon="22.277766446533">
        <ele>5</ele>
        <time>2016-01-23T11:13:46Z</time>
      </trkpt>
      <trkpt lat="60.459414577515" lon="22.277766949447">
        <ele>5</ele>
        <time>2016-01-23T11:13:47Z</time>
      </trkpt>
      <trkpt lat="60.459413571687" lon="22.277767368542">
        <ele>5</ele>
        <time>2016-01-23T11:13:48Z</time>
      </trkpt>
      <trkpt lat="60.45941332023" lon="22.277768039094">
        <ele>5</ele>
        <time>2016-01-23T11:13:49Z</time>
      </trkpt>
      <trkpt lat="60.459413152592" lon="22.277769296379">
        <ele>5</ele>
        <time>2016-01-23T11:13:50Z</time>
      </trkpt>
      <trkpt lat="60.459411811488" lon="22.277771391854">
        <ele>5</ele>
        <time>2016-01-23T11:13:51Z</time>
      </trkpt>
      <trkpt lat="60.459409716013" lon="22.277773487329">
        <ele>5</ele>
        <time>2016-01-23T11:13:52Z</time>
      </trkpt>
      <trkpt lat="60.459407369081" lon="22.277776001899">
        <ele>5</ele>
        <time>2016-01-23T11:13:53Z</time>
      </trkpt>
      <trkpt lat="60.459404854511" lon="22.277778600288">
        <ele>5</ele>
        <time>2016-01-23T11:13:54Z</time>
      </trkpt>
      <trkpt lat="60.459402256122" lon="22.277781114858">
        <ele>5</ele>
        <time>2016-01-23T11:13:55Z</time>
      </trkpt>
      <trkpt lat="60.459399406276" lon="22.277784132342">
        <ele>5</ele>
        <time>2016-01-23T11:13:56Z</time>
      </trkpt>
      <trkpt lat="60.459396472611" lon="22.27778681455">
        <ele>5</ele>
        <time>2016-01-23T11:13:57Z</time>
      </trkpt>
      <trkpt lat="60.459393874222" lon="22.277789412939">
        <ele>5</ele>
        <time>2016-01-23T11:13:58Z</time>
      </trkpt>
      <trkpt lat="60.459390856738" lon="22.277791089319">
        <ele>5</ele>
        <time>2016-01-23T11:13:59Z</time>
      </trkpt>
      <trkpt lat="60.459387923073" lon="22.277792514242">
        <ele>5</ele>
        <time>2016-01-23T11:14:00Z</time>
      </trkpt>
      <trkpt lat="60.459385576141" lon="22.277794190622">
        <ele>5</ele>
        <time>2016-01-23T11:14:01Z</time>
      </trkpt>
      <trkpt lat="60.459382893933" lon="22.277795699364">
        <ele>5</ele>
        <time>2016-01-23T11:14:02Z</time>
      </trkpt>
      <trkpt lat="60.459380211725" lon="22.277797040468">
        <ele>5</ele>
        <time>2016-01-23T11:14:03Z</time>
      </trkpt>
      <trkpt lat="60.459378283888" lon="22.277796789011">
        <ele>5</ele>
        <time>2016-01-23T11:14:04Z</time>
      </trkpt>
      <trkpt lat="60.459375769318" lon="22.277797962477">
        <ele>5</ele>
        <time>2016-01-23T11:14:05Z</time>
      </trkpt>
      <trkpt lat="60.459374176757" lon="22.277797627201">
        <ele>5</ele>
        <time>2016-01-23T11:14:06Z</time>
      </trkpt>
      <trkpt lat="60.459373254748" lon="22.27779603464">
        <ele>5</ele>
        <time>2016-01-23T11:14:07Z</time>
      </trkpt>
      <trkpt lat="60.459374176757" lon="22.277796705192">
        <ele>5</ele>
        <time>2016-01-23T11:14:08Z</time>
      </trkpt>
      <trkpt lat="60.459375014947" lon="22.277797291925">
        <ele>5</ele>
        <time>2016-01-23T11:14:09Z</time>
      </trkpt>
      <trkpt lat="60.459374679671" lon="22.277796537554">
        <ele>5</ele>
        <time>2016-01-23T11:14:10Z</time>
      </trkpt>
      <trkpt lat="60.459374512033" lon="22.277795699364">
        <ele>5</ele>
        <time>2016-01-23T11:14:11Z</time>
      </trkpt>
      <trkpt lat="60.459374344395" lon="22.277794861174">
        <ele>5</ele>
        <time>2016-01-23T11:14:12Z</time>
      </trkpt>
      <trkpt lat="60.459374176757" lon="22.277794106803">
        <ele>5</ele>
        <time>2016-01-23T11:14:13Z</time>
      </trkpt>
      <trkpt lat="60.459373841481" lon="22.277793436251">
        <ele>5</ele>
        <time>2016-01-23T11:14:14Z</time>
      </trkpt>
      <trkpt lat="60.459373590024" lon="22.277792765699">
        <ele>5</ele>
        <time>2016-01-23T11:14:15Z</time>
      </trkpt>
      <trkpt lat="60.459373170929" lon="22.277791927509">
        <ele>5</ele>
        <time>2016-01-23T11:14:16Z</time>
      </trkpt>
      <trkpt lat="60.459372751834" lon="22.277791256957">
        <ele>5</ele>
        <time>2016-01-23T11:14:17Z</time>
      </trkpt>
      <trkpt lat="60.459372416558" lon="22.277790670224">
        <ele>5</ele>
        <time>2016-01-23T11:14:18Z</time>
      </trkpt>
      <trkpt lat="60.459372081282" lon="22.277789496758">
        <ele>5</ele>
        <time>2016-01-23T11:14:19Z</time>
      </trkpt>
      <trkpt lat="60.459372416558" lon="22.277788658568">
        <ele>5</ele>
        <time>2016-01-23T11:14:20Z</time>
      </trkpt>
      <trkpt lat="60.45937224892" lon="22.277788155654">
        <ele>5</ele>
        <time>2016-01-23T11:14:21Z</time>
      </trkpt>
      <trkpt lat="60.459372165101" lon="22.277787988016">
        <ele>5</ele>
        <time>2016-01-23T11:14:22Z</time>
      </trkpt>
      <trkpt lat="60.459372500377" lon="22.277787066007">
        <ele>5</ele>
        <time>2016-01-23T11:14:23Z</time>
      </trkpt>
      <trkpt lat="60.459373170929" lon="22.27778681455">
        <ele>5</ele>
        <time>2016-01-23T11:14:24Z</time>
      </trkpt>
      <trkpt lat="60.459373254748" lon="22.277786730731">
        <ele>5</ele>
        <time>2016-01-23T11:14:25Z</time>
      </trkpt>
      <trkpt lat="60.459373254748" lon="22.277784635256">
        <ele>5</ele>
        <time>2016-01-23T11:14:26Z</time>
      </trkpt>
      <trkpt lat="60.459374595852" lon="22.277782539781">
        <ele>5</ele>
        <time>2016-01-23T11:14:27Z</time>
      </trkpt>
      <trkpt lat="60.459376942784" lon="22.277781869229">
        <ele>5</ele>
        <time>2016-01-23T11:14:28Z</time>
      </trkpt>
      <trkpt lat="60.459381971924" lon="22.277777091546">
        <ele>5</ele>
        <time>2016-01-23T11:14:29Z</time>
      </trkpt>
      <trkpt lat="60.459380295544" lon="22.277778935564">
        <ele>5</ele>
        <time>2016-01-23T11:14:30Z</time>
      </trkpt>
      <trkpt lat="60.459386330512" lon="22.277773822605">
        <ele>5</ele>
        <time>2016-01-23T11:14:31Z</time>
      </trkpt>
      <trkpt lat="60.459384989408" lon="22.277774828433">
        <ele>5</ele>
        <time>2016-01-23T11:14:32Z</time>
      </trkpt>
      <trkpt lat="60.459396221154" lon="22.277776253356">
        <ele>5</ele>
        <time>2016-01-23T11:14:33Z</time>
      </trkpt>
      <trkpt lat="60.459404770692" lon="22.277785305808">
        <ele>5</ele>
        <time>2016-01-23T11:14:34Z</time>
      </trkpt>
      <trkpt lat="60.45941415842" lon="22.277789664396">
        <ele>5</ele>
        <time>2016-01-23T11:14:35Z</time>
      </trkpt>
      <trkpt lat="60.45942673127" lon="22.277797878658">
        <ele>5</ele>
        <time>2016-01-23T11:14:36Z</time>
      </trkpt>
      <trkpt lat="60.459438214473" lon="22.277803997445">
        <ele>5</ele>
        <time>2016-01-23T11:14:37Z</time>
      </trkpt>
      <trkpt lat="60.459451290237" lon="22.277813468992">
        <ele>5</ele>
        <time>2016-01-23T11:14:38Z</time>
      </trkpt>
      <trkpt lat="60.459464952734" lon="22.277822437625">
        <ele>5</ele>
        <time>2016-01-23T11:14:39Z</time>
      </trkpt>
      <trkpt lat="60.459476603575" lon="22.27783123862">
        <ele>5</ele>
        <time>2016-01-23T11:14:40Z</time>
      </trkpt>
      <trkpt lat="60.459486829493" lon="22.277840291072">
        <ele>5</ele>
        <time>2016-01-23T11:14:41Z</time>
      </trkpt>
      <trkpt lat="60.459483644371" lon="22.277837189769">
        <ele>5</ele>
        <time>2016-01-23T11:14:42Z</time>
      </trkpt>
      <trkpt lat="60.459497306868" lon="22.277844230565">
        <ele>5</ele>
        <time>2016-01-23T11:14:43Z</time>
      </trkpt>
      <trkpt lat="60.459506526958" lon="22.277850684628">
        <ele>5</ele>
        <time>2016-01-23T11:14:44Z</time>
      </trkpt>
      <trkpt lat="60.459516082324" lon="22.277856300501">
        <ele>5</ele>
        <time>2016-01-23T11:14:45Z</time>
      </trkpt>
      <trkpt lat="60.459522536387" lon="22.277857306329">
        <ele>5</ele>
        <time>2016-01-23T11:14:46Z</time>
      </trkpt>
      <trkpt lat="60.459532007934" lon="22.277867448428">
        <ele>5</ele>
        <time>2016-01-23T11:14:47Z</time>
      </trkpt>
      <trkpt lat="60.459535779789" lon="22.27787398631">
        <ele>5</ele>
        <time>2016-01-23T11:14:48Z</time>
      </trkpt>
      <trkpt lat="60.459540557472" lon="22.27787566269">
        <ele>5</ele>
        <time>2016-01-23T11:14:49Z</time>
      </trkpt>
      <trkpt lat="60.459544832241" lon="22.277877255251">
        <ele>5</ele>
        <time>2016-01-23T11:14:50Z</time>
      </trkpt>
      <trkpt lat="60.459543072042" lon="22.277876668518">
        <ele>5</ele>
        <time>2016-01-23T11:14:51Z</time>
      </trkpt>
      <trkpt lat="60.459548185001" lon="22.27788069183">
        <ele>5</ele>
        <time>2016-01-23T11:14:52Z</time>
      </trkpt>
      <trkpt lat="60.459549777562" lon="22.277881613839">
        <ele>5</ele>
        <time>2016-01-23T11:14:53Z</time>
      </trkpt>
      <trkpt lat="60.459551202485" lon="22.2778832064">
        <ele>5</ele>
        <time>2016-01-23T11:14:54Z</time>
      </trkpt>
      <trkpt lat="60.459552375951" lon="22.277885218056">
        <ele>5</ele>
        <time>2016-01-23T11:14:55Z</time>
      </trkpt>
      <trkpt lat="60.459552292132" lon="22.277887145893">
        <ele>5</ele>
        <time>2016-01-23T11:14:56Z</time>
      </trkpt>
      <trkpt lat="60.459552208313" lon="22.277888989911">
        <ele>5</ele>
        <time>2016-01-23T11:14:57Z</time>
      </trkpt>
      <trkpt lat="60.459552208313" lon="22.277889828101">
        <ele>5</ele>
        <time>2016-01-23T11:14:58Z</time>
      </trkpt>
      <trkpt lat="60.459552040675" lon="22.27788991192">
        <ele>5</ele>
        <time>2016-01-23T11:14:59Z</time>
      </trkpt>
      <trkpt lat="60.45955245977" lon="22.277889995739">
        <ele>5</ele>
        <time>2016-01-23T11:15:00Z</time>
      </trkpt>
      <trkpt lat="60.459552711227" lon="22.277890163377">
        <ele>5</ele>
        <time>2016-01-23T11:15:01Z</time>
      </trkpt>
      <trkpt lat="60.459552962684" lon="22.277889744282">
        <ele>5</ele>
        <time>2016-01-23T11:15:02Z</time>
      </trkpt>
      <trkpt lat="60.459554219969" lon="22.27788823554">
        <ele>5</ele>
        <time>2016-01-23T11:15:03Z</time>
      </trkpt>
      <trkpt lat="60.459555644892" lon="22.277886223884">
        <ele>5</ele>
        <time>2016-01-23T11:15:04Z</time>
      </trkpt>
      <trkpt lat="60.459559500566" lon="22.277888570816">
        <ele>5</ele>
        <time>2016-01-23T11:15:05Z</time>
      </trkpt>
      <trkpt lat="60.459563942973" lon="22.277890163377">
        <ele>5</ele>
        <time>2016-01-23T11:15:06Z</time>
      </trkpt>
      <trkpt lat="60.45957089995" lon="22.27789661744">
        <ele>5</ele>
        <time>2016-01-23T11:15:07Z</time>
      </trkpt>
      <trkpt lat="60.459576096728" lon="22.277900305476">
        <ele>5</ele>
        <time>2016-01-23T11:15:08Z</time>
      </trkpt>
      <trkpt lat="60.459583053705" lon="22.277905334616">
        <ele>5</ele>
        <time>2016-01-23T11:15:09Z</time>
      </trkpt>
      <trkpt lat="60.459590429777" lon="22.277912123955">
        <ele>5</ele>
        <time>2016-01-23T11:15:10Z</time>
      </trkpt>
      <trkpt lat="60.459598057306" lon="22.277914973801">
        <ele>5</ele>
        <time>2016-01-23T11:15:11Z</time>
      </trkpt>
      <trkpt lat="60.459608869957" lon="22.277921930778">
        <ele>5</ele>
        <time>2016-01-23T11:15:12Z</time>
      </trkpt>
      <trkpt lat="60.459619012056" lon="22.277928803936">
        <ele>5</ele>
        <time>2016-01-23T11:15:13Z</time>
      </trkpt>
      <trkpt lat="60.459624795567" lon="22.277933581619">
        <ele>5</ele>
        <time>2016-01-23T11:15:14Z</time>
      </trkpt>
      <trkpt lat="60.459629740888" lon="22.277937102017">
        <ele>5</ele>
        <time>2016-01-23T11:15:15Z</time>
      </trkpt>
      <trkpt lat="60.459627477775" lon="22.277935341818">
        <ele>5</ele>
        <time>2016-01-23T11:15:16Z</time>
      </trkpt>
      <trkpt lat="60.459632758372" lon="22.277938107845">
        <ele>5</ele>
        <time>2016-01-23T11:15:17Z</time>
      </trkpt>
      <trkpt lat="60.45963208782" lon="22.277939532768">
        <ele>5</ele>
        <time>2016-01-23T11:15:18Z</time>
      </trkpt>
      <trkpt lat="60.45963208782" lon="22.277938946035">
        <ele>5</ele>
        <time>2016-01-23T11:15:19Z</time>
      </trkpt>
      <trkpt lat="60.459632842191" lon="22.277937521112">
        <ele>5</ele>
        <time>2016-01-23T11:15:20Z</time>
      </trkpt>
      <trkpt lat="60.459634770028" lon="22.277939616587">
        <ele>5</ele>
        <time>2016-01-23T11:15:21Z</time>
      </trkpt>
      <trkpt lat="60.45963795515" lon="22.277939616587">
        <ele>5</ele>
        <time>2016-01-23T11:15:22Z</time>
      </trkpt>
      <trkpt lat="60.459640302082" lon="22.277937437293">
        <ele>5</ele>
        <time>2016-01-23T11:15:23Z</time>
      </trkpt>
      <trkpt lat="60.459642565195" lon="22.277935425637">
        <ele>5</ele>
        <time>2016-01-23T11:15:24Z</time>
      </trkpt>
      <trkpt lat="60.459645079765" lon="22.277933246343">
        <ele>5</ele>
        <time>2016-01-23T11:15:25Z</time>
      </trkpt>
      <trkpt lat="60.459650276543" lon="22.277934922723">
        <ele>5</ele>
        <time>2016-01-23T11:15:26Z</time>
      </trkpt>
      <trkpt lat="60.45964885162" lon="22.277932911067">
        <ele>5</ele>
        <time>2016-01-23T11:15:27Z</time>
      </trkpt>
      <trkpt lat="60.459660837737" lon="22.277937185836">
        <ele>5</ele>
        <time>2016-01-23T11:15:28Z</time>
      </trkpt>
      <trkpt lat="60.459666621248" lon="22.277938107845">
        <ele>5</ele>
        <time>2016-01-23T11:15:29Z</time>
      </trkpt>
      <trkpt lat="60.45966477723" lon="22.277937521112">
        <ele>5</ele>
        <time>2016-01-23T11:15:30Z</time>
      </trkpt>
      <trkpt lat="60.459667710895" lon="22.27793768875">
        <ele>5</ele>
        <time>2016-01-23T11:15:31Z</time>
      </trkpt>
      <trkpt lat="60.459669219637" lon="22.277938443121">
        <ele>5</ele>
        <time>2016-01-23T11:15:32Z</time>
      </trkpt>
      <trkpt lat="60.459671315112" lon="22.277941460605">
        <ele>5</ele>
        <time>2016-01-23T11:15:33Z</time>
      </trkpt>
      <trkpt lat="60.459671650388" lon="22.277945148641">
        <ele>5</ele>
        <time>2016-01-23T11:15:34Z</time>
      </trkpt>
      <trkpt lat="60.45967064456" lon="22.277946489745">
        <ele>5</ele>
        <time>2016-01-23T11:15:35Z</time>
      </trkpt>
      <trkpt lat="60.459670309284" lon="22.277945316279">
        <ele>5</ele>
        <time>2016-01-23T11:15:36Z</time>
      </trkpt>
      <trkpt lat="60.459669974008" lon="22.277945986831">
        <ele>5</ele>
        <time>2016-01-23T11:15:37Z</time>
      </trkpt>
      <trkpt lat="60.459669722551" lon="22.277947830849">
        <ele>5</ele>
        <time>2016-01-23T11:15:38Z</time>
      </trkpt>
      <trkpt lat="60.459670057827" lon="22.277949591048">
        <ele>5</ele>
        <time>2016-01-23T11:15:39Z</time>
      </trkpt>
      <trkpt lat="60.459669219637" lon="22.277950596876">
        <ele>5</ele>
        <time>2016-01-23T11:15:40Z</time>
      </trkpt>
      <trkpt lat="60.459667794714" lon="22.277950345419">
        <ele>5</ele>
        <time>2016-01-23T11:15:41Z</time>
      </trkpt>
      <trkpt lat="60.459666956524" lon="22.27794942341">
        <ele>5</ele>
        <time>2016-01-23T11:15:42Z</time>
      </trkpt>
      <trkpt lat="60.459667878533" lon="22.277947495573">
        <ele>5</ele>
        <time>2016-01-23T11:15:43Z</time>
      </trkpt>
      <trkpt lat="60.459673075311" lon="22.277951770342">
        <ele>5</ele>
        <time>2016-01-23T11:15:44Z</time>
      </trkpt>
      <trkpt lat="60.459678607365" lon="22.27795445255">
        <ele>5</ele>
        <time>2016-01-23T11:15:45Z</time>
      </trkpt>
      <trkpt lat="60.45968657017" lon="22.277963588821">
        <ele>5</ele>
        <time>2016-01-23T11:15:46Z</time>
      </trkpt>
      <trkpt lat="60.459696963726" lon="22.27796953997">
        <ele>5</ele>
        <time>2016-01-23T11:15:47Z</time>
      </trkpt>
      <trkpt lat="60.45971003949" lon="22.277983286286">
        <ele>5</ele>
        <time>2016-01-23T11:15:48Z</time>
      </trkpt>
      <trkpt lat="60.459722360883" lon="22.277988399245">
        <ele>5</ele>
        <time>2016-01-23T11:15:49Z</time>
      </trkpt>
      <trkpt lat="60.459737951217" lon="22.278003319027">
        <ele>5</ele>
        <time>2016-01-23T11:15:50Z</time>
      </trkpt>
      <trkpt lat="60.459752870999" lon="22.27801312585">
        <ele>5</ele>
        <time>2016-01-23T11:15:51Z</time>
      </trkpt>
      <trkpt lat="60.459769718618" lon="22.278027626537">
        <ele>5</ele>
        <time>2016-01-23T11:15:52Z</time>
      </trkpt>
      <trkpt lat="60.459786398599" lon="22.278041456672">
        <ele>5</ele>
        <time>2016-01-23T11:15:53Z</time>
      </trkpt>
      <trkpt lat="60.459802910942" lon="22.278055538264">
        <ele>5</ele>
        <time>2016-01-23T11:15:54Z</time>
      </trkpt>
      <trkpt lat="60.459819674742" lon="22.278068278752">
        <ele>5</ele>
        <time>2016-01-23T11:15:55Z</time>
      </trkpt>
      <trkpt lat="60.45983660618" lon="22.278082276525">
        <ele>5</ele>
        <time>2016-01-23T11:15:56Z</time>
      </trkpt>
      <trkpt lat="60.459855213998" lon="22.278096358117">
        <ele>5</ele>
        <time>2016-01-23T11:15:57Z</time>
      </trkpt>
      <trkpt lat="60.459871055789" lon="22.278110523528">
        <ele>5</ele>
        <time>2016-01-23T11:15:58Z</time>
      </trkpt>
      <trkpt lat="60.459890920892" lon="22.278132735563">
        <ele>5</ele>
        <time>2016-01-23T11:15:59Z</time>
      </trkpt>
      <trkpt lat="60.45990533776" lon="22.278142542386">
        <ele>5</ele>
        <time>2016-01-23T11:16:00Z</time>
      </trkpt>
      <trkpt lat="60.459924867587" lon="22.278161317842">
        <ele>5</ele>
        <time>2016-01-23T11:16:01Z</time>
      </trkpt>
      <trkpt lat="60.459940877016" lon="22.27817322014">
        <ele>5</ele>
        <time>2016-01-23T11:16:02Z</time>
      </trkpt>
      <trkpt lat="60.459956970264" lon="22.278191408863">
        <ele>5</ele>
        <time>2016-01-23T11:16:03Z</time>
      </trkpt>
      <trkpt lat="60.459967782915" lon="22.278203227342">
        <ele>5</ele>
        <time>2016-01-23T11:16:04Z</time>
      </trkpt>
      <trkpt lat="60.459977673557" lon="22.278213788536">
        <ele>5</ele>
        <time>2016-01-23T11:16:05Z</time>
      </trkpt>
      <trkpt lat="60.459984546715" lon="22.278221332246">
        <ele>5</ele>
        <time>2016-01-23T11:16:06Z</time>
      </trkpt>
      <trkpt lat="60.45998245124" lon="22.278218230943">
        <ele>5</ele>
        <time>2016-01-23T11:16:07Z</time>
      </trkpt>
      <trkpt lat="60.459990749321" lon="22.278227031938">
        <ele>5</ele>
        <time>2016-01-23T11:16:08Z</time>
      </trkpt>
      <trkpt lat="60.459993263891" lon="22.278228205404">
        <ele>5</ele>
        <time>2016-01-23T11:16:09Z</time>
      </trkpt>
      <trkpt lat="60.459994772633" lon="22.278227367214">
        <ele>5</ele>
        <time>2016-01-23T11:16:10Z</time>
      </trkpt>
      <trkpt lat="60.459995778461" lon="22.2782268643">
        <ele>5</ele>
        <time>2016-01-23T11:16:11Z</time>
      </trkpt>
      <trkpt lat="60.459996197556" lon="22.278225439377">
        <ele>5</ele>
        <time>2016-01-23T11:16:12Z</time>
      </trkpt>
      <trkpt lat="60.459996616651" lon="22.278224098273">
        <ele>5</ele>
        <time>2016-01-23T11:16:13Z</time>
      </trkpt>
      <trkpt lat="60.459997203384" lon="22.278223595359">
        <ele>5</ele>
        <time>2016-01-23T11:16:14Z</time>
      </trkpt>
      <trkpt lat="60.459997873936" lon="22.278223092445">
        <ele>5</ele>
        <time>2016-01-23T11:16:15Z</time>
      </trkpt>
      <trkpt lat="60.459998293031" lon="22.278222505712">
        <ele>5</ele>
        <time>2016-01-23T11:16:16Z</time>
      </trkpt>
      <trkpt lat="60.459998712126" lon="22.278222254255">
        <ele>5</ele>
        <time>2016-01-23T11:16:17Z</time>
      </trkpt>
      <trkpt lat="60.459998795945" lon="22.27822183516">
        <ele>5</ele>
        <time>2016-01-23T11:16:18Z</time>
      </trkpt>
      <trkpt lat="60.459998795945" lon="22.278221499884">
        <ele>5</ele>
        <time>2016-01-23T11:16:19Z</time>
      </trkpt>
      <trkpt lat="60.459998460669" lon="22.278219404409">
        <ele>5</ele>
        <time>2016-01-23T11:16:20Z</time>
      </trkpt>
      <trkpt lat="60.459997706298" lon="22.278215800192">
        <ele>5</ele>
        <time>2016-01-23T11:16:21Z</time>
      </trkpt>
      <trkpt lat="60.459996197556" lon="22.278212112156">
        <ele>5</ele>
        <time>2016-01-23T11:16:22Z</time>
      </trkpt>
      <trkpt lat="60.459991336054" lon="22.278206999197">
        <ele>5</ele>
        <time>2016-01-23T11:16:23Z</time>
      </trkpt>
      <trkpt lat="60.459984881991" lon="22.278198449659">
        <ele>5</ele>
        <time>2016-01-23T11:16:24Z</time>
      </trkpt>
      <trkpt lat="60.459980104308" lon="22.278190319216">
        <ele>5</ele>
        <time>2016-01-23T11:16:25Z</time>
      </trkpt>
      <trkpt lat="60.459975075168" lon="22.278180847669">
        <ele>5</ele>
        <time>2016-01-23T11:16:26Z</time>
      </trkpt>
      <trkpt lat="60.459971470951" lon="22.278174477425">
        <ele>5.2</ele>
        <time>2016-01-23T11:16:27Z</time>
      </trkpt>
      <trkpt lat="60.459972979693" lon="22.278176237624">
        <ele>5.2</ele>
        <time>2016-01-23T11:16:28Z</time>
      </trkpt>
      <trkpt lat="60.459964262517" lon="22.278163078041">
        <ele>5.2</ele>
        <time>2016-01-23T11:16:29Z</time>
      </trkpt>
      <trkpt lat="60.459960742119" lon="22.278155282874">
        <ele>5.2</ele>
        <time>2016-01-23T11:16:30Z</time>
      </trkpt>
      <trkpt lat="60.459962921413" lon="22.27815729453">
        <ele>5.2</ele>
        <time>2016-01-23T11:16:31Z</time>
      </trkpt>
      <trkpt lat="60.459957892273" lon="22.278147655345">
        <ele>5.2</ele>
        <time>2016-01-23T11:16:32Z</time>
      </trkpt>
      <trkpt lat="60.459954288056" lon="22.278138602893">
        <ele>5.2</ele>
        <time>2016-01-23T11:16:33Z</time>
      </trkpt>
      <trkpt lat="60.459954874789" lon="22.278139441083">
        <ele>5.2</ele>
        <time>2016-01-23T11:16:34Z</time>
      </trkpt>
      <trkpt lat="60.459950013287" lon="22.278130556269">
        <ele>5.2</ele>
        <time>2016-01-23T11:16:35Z</time>
      </trkpt>
      <trkpt lat="60.459949510373" lon="22.278125108034">
        <ele>5.2</ele>
        <time>2016-01-23T11:16:36Z</time>
      </trkpt>
      <trkpt lat="60.459948504545" lon="22.278122006731">
        <ele>5.6</ele>
        <time>2016-01-23T11:16:37Z</time>
      </trkpt>
      <trkpt lat="60.459947079622" lon="22.278121503817">
        <ele>6</ele>
        <time>2016-01-23T11:16:38Z</time>
      </trkpt>
      <trkpt lat="60.459940122645" lon="22.278125108034">
        <ele>6.4</ele>
        <time>2016-01-23T11:16:39Z</time>
      </trkpt>
      <trkpt lat="60.459943140129" lon="22.278124437482">
        <ele>6.8</ele>
        <time>2016-01-23T11:16:40Z</time>
      </trkpt>
      <trkpt lat="60.459937775713" lon="22.278124269844">
        <ele>7.2</ele>
        <time>2016-01-23T11:16:41Z</time>
      </trkpt>
      <trkpt lat="60.459934171496" lon="22.27812711969">
        <ele>7.8</ele>
        <time>2016-01-23T11:16:42Z</time>
      </trkpt>
      <trkpt lat="60.459936015514" lon="22.278125862405">
        <ele>8.2</ele>
        <time>2016-01-23T11:16:43Z</time>
      </trkpt>
      <trkpt lat="60.459933500944" lon="22.278124353663">
        <ele>8.8</ele>
        <time>2016-01-23T11:16:44Z</time>
      </trkpt>
      <trkpt lat="60.459935177324" lon="22.278119324523">
        <ele>9.2</ele>
        <time>2016-01-23T11:16:45Z</time>
      </trkpt>
      <trkpt lat="60.459930818736" lon="22.278122844921">
        <ele>9.6</ele>
        <time>2016-01-23T11:16:46Z</time>
      </trkpt>
      <trkpt lat="60.459932411297" lon="22.278120833265">
        <ele>10</ele>
        <time>2016-01-23T11:16:47Z</time>
      </trkpt>
      <trkpt lat="60.45992880708" lon="22.278120665627">
        <ele>10.6</ele>
        <time>2016-01-23T11:16:48Z</time>
      </trkpt>
      <trkpt lat="60.459927046881" lon="22.278118151057">
        <ele>11</ele>
        <time>2016-01-23T11:16:49Z</time>
      </trkpt>
      <trkpt lat="60.459925705777" lon="22.278102476904">
        <ele>11.4</ele>
        <time>2016-01-23T11:16:50Z</time>
      </trkpt>
      <trkpt lat="60.459925957234" lon="22.278109350062">
        <ele>11.8</ele>
        <time>2016-01-23T11:16:51Z</time>
      </trkpt>
      <trkpt lat="60.459921179551" lon="22.278110607347">
        <ele>12</ele>
        <time>2016-01-23T11:16:52Z</time>
      </trkpt>
      <trkpt lat="60.459919670809" lon="22.278102979818">
        <ele>12.4</ele>
        <time>2016-01-23T11:16:53Z</time>
      </trkpt>
      <trkpt lat="60.459919503171" lon="22.278107757501">
        <ele>12.8</ele>
        <time>2016-01-23T11:16:54Z</time>
      </trkpt>
      <trkpt lat="60.459915479859" lon="22.278107757501">
        <ele>13.2</ele>
        <time>2016-01-23T11:16:55Z</time>
      </trkpt>
      <trkpt lat="60.459913216746" lon="22.278115301211">
        <ele>13.4</ele>
        <time>2016-01-23T11:16:56Z</time>
      </trkpt>
      <trkpt lat="60.459909863986" lon="22.278119827437">
        <ele>13.8</ele>
        <time>2016-01-23T11:16:57Z</time>
      </trkpt>
      <trkpt lat="60.459908019968" lon="22.278123096378">
        <ele>13.8</ele>
        <time>2016-01-23T11:16:58Z</time>
      </trkpt>
      <trkpt lat="60.459908774339" lon="22.278124018387">
        <ele>13.8</ele>
        <time>2016-01-23T11:16:59Z</time>
      </trkpt>
      <trkpt lat="60.459910953633" lon="22.278115887944">
        <ele>13.8</ele>
        <time>2016-01-23T11:17:00Z</time>
      </trkpt>
      <trkpt lat="60.459909947805" lon="22.278120162713">
        <ele>13.8</ele>
        <time>2016-01-23T11:17:01Z</time>
      </trkpt>
      <trkpt lat="60.459910450719" lon="22.278117145229">
        <ele>13.8</ele>
        <time>2016-01-23T11:17:02Z</time>
      </trkpt>
      <trkpt lat="60.459910618357" lon="22.278117145229">
        <ele>13.8</ele>
        <time>2016-01-23T11:17:03Z</time>
      </trkpt>
      <trkpt lat="60.459910618357" lon="22.278117145229">
        <ele>14</ele>
        <time>2016-01-23T11:17:04Z</time>
      </trkpt>
      <trkpt lat="60.459912462375" lon="22.278115804125">
        <ele>14.2</ele>
        <time>2016-01-23T11:17:05Z</time>
      </trkpt>
      <trkpt lat="60.459913049108" lon="22.278115887944">
        <ele>14.8</ele>
        <time>2016-01-23T11:17:06Z</time>
      </trkpt>
      <trkpt lat="60.45991371966" lon="22.278116139401">
        <ele>15.2</ele>
        <time>2016-01-23T11:17:07Z</time>
      </trkpt>
      <trkpt lat="60.459913803479" lon="22.278115636487">
        <ele>15.6</ele>
        <time>2016-01-23T11:17:08Z</time>
      </trkpt>
      <trkpt lat="60.459914222574" lon="22.278114463021">
        <ele>16</ele>
        <time>2016-01-23T11:17:09Z</time>
      </trkpt>
      <trkpt lat="60.45991539604" lon="22.278114043926">
        <ele>16.4</ele>
        <time>2016-01-23T11:17:10Z</time>
      </trkpt>
      <trkpt lat="60.459915982773" lon="22.278113960107">
        <ele>16.8</ele>
        <time>2016-01-23T11:17:11Z</time>
      </trkpt>
      <trkpt lat="60.459916653325" lon="22.278112116089">
        <ele>17.2</ele>
        <time>2016-01-23T11:17:12Z</time>
      </trkpt>
      <trkpt lat="60.459917659153" lon="22.278109936795">
        <ele>17.6</ele>
        <time>2016-01-23T11:17:13Z</time>
      </trkpt>
      <trkpt lat="60.459918581162" lon="22.27810784132">
        <ele>18</ele>
        <time>2016-01-23T11:17:14Z</time>
      </trkpt>
      <trkpt lat="60.459919167895" lon="22.278106332578">
        <ele>18</ele>
        <time>2016-01-23T11:17:15Z</time>
      </trkpt>
      <trkpt lat="60.459919670809" lon="22.278104991474">
        <ele>18</ele>
        <time>2016-01-23T11:17:16Z</time>
      </trkpt>
      <trkpt lat="60.459919922266" lon="22.278104320922">
        <ele>18</ele>
        <time>2016-01-23T11:17:17Z</time>
      </trkpt>
      <trkpt lat="60.459920006085" lon="22.278103818008">
        <ele>18.4</ele>
        <time>2016-01-23T11:17:18Z</time>
      </trkpt>
      <trkpt lat="60.459920173723" lon="22.278103063637">
        <ele>18.6</ele>
        <time>2016-01-23T11:17:19Z</time>
      </trkpt>
      <trkpt lat="60.459920508999" lon="22.278102309266">
        <ele>19</ele>
        <time>2016-01-23T11:17:20Z</time>
      </trkpt>
      <trkpt lat="60.459920508999" lon="22.278101890171">
        <ele>19.6</ele>
        <time>2016-01-23T11:17:21Z</time>
      </trkpt>
      <trkpt lat="60.459920508999" lon="22.278101722533">
        <ele>20</ele>
        <time>2016-01-23T11:17:22Z</time>
      </trkpt>
      <trkpt lat="60.459921011913" lon="22.278100968162">
        <ele>20</ele>
        <time>2016-01-23T11:17:23Z</time>
      </trkpt>
      <trkpt lat="60.459921514827" lon="22.278099962334">
        <ele>20</ele>
        <time>2016-01-23T11:17:24Z</time>
      </trkpt>
      <trkpt lat="60.459920676637" lon="22.278099794696">
        <ele>20</ele>
        <time>2016-01-23T11:17:25Z</time>
      </trkpt>
      <trkpt lat="60.459921011913" lon="22.278097866859">
        <ele>20</ele>
        <time>2016-01-23T11:17:26Z</time>
      </trkpt>
      <trkpt lat="60.459921514827" lon="22.278096441936">
        <ele>20</ele>
        <time>2016-01-23T11:17:27Z</time>
      </trkpt>
      <trkpt lat="60.459921598646" lon="22.278096525755">
        <ele>20</ele>
        <time>2016-01-23T11:17:28Z</time>
      </trkpt>
      <trkpt lat="60.459921598646" lon="22.278096609574">
        <ele>20</ele>
        <time>2016-01-23T11:17:29Z</time>
      </trkpt>
      <trkpt lat="60.459921598646" lon="22.278096693393">
        <ele>20</ele>
        <time>2016-01-23T11:17:30Z</time>
      </trkpt>
      <trkpt lat="60.459921347189" lon="22.278097028669">
        <ele>20</ele>
        <time>2016-01-23T11:17:31Z</time>
      </trkpt>
      <trkpt lat="60.459921347189" lon="22.278097699221">
        <ele>20</ele>
        <time>2016-01-23T11:17:32Z</time>
      </trkpt>
      <trkpt lat="60.45992210156" lon="22.278097531583">
        <ele>20</ele>
        <time>2016-01-23T11:17:33Z</time>
      </trkpt>
      <trkpt lat="60.459922772112" lon="22.278096609574">
        <ele>20</ele>
        <time>2016-01-23T11:17:34Z</time>
      </trkpt>
      <trkpt lat="60.459923610302" lon="22.278096022841">
        <ele>20</ele>
        <time>2016-01-23T11:17:35Z</time>
      </trkpt>
      <trkpt lat="60.459923945578" lon="22.278094597918">
        <ele>20</ele>
        <time>2016-01-23T11:17:36Z</time>
      </trkpt>
      <trkpt lat="60.459924783768" lon="22.278092670081">
        <ele>20</ele>
        <time>2016-01-23T11:17:37Z</time>
      </trkpt>
      <trkpt lat="60.45992545432" lon="22.278092167167">
        <ele>20</ele>
        <time>2016-01-23T11:17:38Z</time>
      </trkpt>
      <trkpt lat="60.459926208691" lon="22.278093089176">
        <ele>20</ele>
        <time>2016-01-23T11:17:39Z</time>
      </trkpt>
      <trkpt lat="60.459927046881" lon="22.278093340633">
        <ele>20</ele>
        <time>2016-01-23T11:17:40Z</time>
      </trkpt>
      <trkpt lat="60.459926041053" lon="22.278094262642">
        <ele>21.2</ele>
        <time>2016-01-23T11:17:41Z</time>
      </trkpt>
      <trkpt lat="60.459925286682" lon="22.27809526847">
        <ele>21.2</ele>
        <time>2016-01-23T11:17:42Z</time>
      </trkpt>
      <trkpt lat="60.459926041053" lon="22.278097028669">
        <ele>21.2</ele>
        <time>2016-01-23T11:17:43Z</time>
      </trkpt>
      <trkpt lat="60.459932411297" lon="22.278103734189">
        <ele>21.2</ele>
        <time>2016-01-23T11:17:44Z</time>
      </trkpt>
      <trkpt lat="60.45993970355" lon="22.278111696994">
        <ele>21.2</ele>
        <time>2016-01-23T11:17:45Z</time>
      </trkpt>
      <trkpt lat="60.459948169269" lon="22.278119827437">
        <ele>21.2</ele>
        <time>2016-01-23T11:17:46Z</time>
      </trkpt>
      <trkpt lat="60.459960323024" lon="22.278134914857">
        <ele>21.2</ele>
        <time>2016-01-23T11:17:47Z</time>
      </trkpt>
      <trkpt lat="60.45997071658" lon="22.278146649517">
        <ele>21.2</ele>
        <time>2016-01-23T11:17:48Z</time>
      </trkpt>
      <trkpt lat="60.459980607222" lon="22.278156707797">
        <ele>21.2</ele>
        <time>2016-01-23T11:17:49Z</time>
      </trkpt>
      <trkpt lat="60.459992677158" lon="22.278170286475">
        <ele>21.2</ele>
        <time>2016-01-23T11:17:50Z</time>
      </trkpt>
      <trkpt lat="60.460006004379" lon="22.278180512393">
        <ele>21.2</ele>
        <time>2016-01-23T11:17:51Z</time>
      </trkpt>
      <trkpt lat="60.460021594713" lon="22.278200126039">
        <ele>21.2</ele>
        <time>2016-01-23T11:17:52Z</time>
      </trkpt>
      <trkpt lat="60.460037939418" lon="22.278220410237">
        <ele>20.8</ele>
        <time>2016-01-23T11:17:53Z</time>
      </trkpt>
      <trkpt lat="60.460051099001" lon="22.278232396354">
        <ele>20.4</ele>
        <time>2016-01-23T11:17:54Z</time>
      </trkpt>
      <trkpt lat="60.460071383199" lon="22.278258128787">
        <ele>20</ele>
        <time>2016-01-23T11:17:55Z</time>
      </trkpt>
      <trkpt lat="60.460083453135" lon="22.278268103248">
        <ele>19.6</ele>
        <time>2016-01-23T11:17:56Z</time>
      </trkpt>
      <trkpt lat="60.460102815324" lon="22.278294506233">
        <ele>19.4</ele>
        <time>2016-01-23T11:17:57Z</time>
      </trkpt>
      <trkpt lat="60.460116729278" lon="22.278306743807">
        <ele>19</ele>
        <time>2016-01-23T11:17:58Z</time>
      </trkpt>
      <trkpt lat="60.460130140318" lon="22.278323591426">
        <ele>19</ele>
        <time>2016-01-23T11:17:59Z</time>
      </trkpt>
      <trkpt lat="60.460140198598" lon="22.278335912819">
        <ele>19</ele>
        <time>2016-01-23T11:18:00Z</time>
      </trkpt>
      <trkpt lat="60.460145563014" lon="22.278341109597">
        <ele>19</ele>
        <time>2016-01-23T11:18:01Z</time>
      </trkpt>
      <trkpt lat="60.460151849439" lon="22.27834756366">
        <ele>19</ele>
        <time>2016-01-23T11:18:02Z</time>
      </trkpt>
      <trkpt lat="60.460157800588" lon="22.278353263352">
        <ele>19</ele>
        <time>2016-01-23T11:18:03Z</time>
      </trkpt>
      <trkpt lat="60.460162075357" lon="22.27835594556">
        <ele>19</ele>
        <time>2016-01-23T11:18:04Z</time>
      </trkpt>
      <trkpt lat="60.460167523592" lon="22.278361393795">
        <ele>18.8</ele>
        <time>2016-01-23T11:18:05Z</time>
      </trkpt>
      <trkpt lat="60.460165511936" lon="22.278358292492">
        <ele>18.2</ele>
        <time>2016-01-23T11:18:06Z</time>
      </trkpt>
      <trkpt lat="60.46017272037" lon="22.278362064347">
        <ele>17.8</ele>
        <time>2016-01-23T11:18:07Z</time>
      </trkpt>
      <trkpt lat="60.460174899664" lon="22.27836265108">
        <ele>17.4</ele>
        <time>2016-01-23T11:18:08Z</time>
      </trkpt>
      <trkpt lat="60.460177078958" lon="22.278363656908">
        <ele>17</ele>
        <time>2016-01-23T11:18:09Z</time>
      </trkpt>
      <trkpt lat="60.460183281564" lon="22.27836851841">
        <ele>17</ele>
        <time>2016-01-23T11:18:10Z</time>
      </trkpt>
      <trkpt lat="60.460188226885" lon="22.278372457903">
        <ele>17</ele>
        <time>2016-01-23T11:18:11Z</time>
      </trkpt>
      <trkpt lat="60.460195686776" lon="22.278377906138">
        <ele>17</ele>
        <time>2016-01-23T11:18:12Z</time>
      </trkpt>
      <trkpt lat="60.460204403952" lon="22.278387712961">
        <ele>17</ele>
        <time>2016-01-23T11:18:13Z</time>
      </trkpt>
      <trkpt lat="60.460212702033" lon="22.278396681594">
        <ele>17</ele>
        <time>2016-01-23T11:18:14Z</time>
      </trkpt>
      <trkpt lat="60.460220832476" lon="22.278401710734">
        <ele>17</ele>
        <time>2016-01-23T11:18:15Z</time>
      </trkpt>
      <trkpt lat="60.460233824421" lon="22.278414702679">
        <ele>17</ele>
        <time>2016-01-23T11:18:16Z</time>
      </trkpt>
      <trkpt lat="60.460248911841" lon="22.278426856434">
        <ele>17</ele>
        <time>2016-01-23T11:18:17Z</time>
      </trkpt>
      <trkpt lat="60.460264418356" lon="22.278443368777">
        <ele>17</ele>
        <time>2016-01-23T11:18:18Z</time>
      </trkpt>
      <trkpt lat="60.460280092509" lon="22.278459462025">
        <ele>17</ele>
        <time>2016-01-23T11:18:19Z</time>
      </trkpt>
      <trkpt lat="60.460293084454" lon="22.278474046531">
        <ele>17</ele>
        <time>2016-01-23T11:18:20Z</time>
      </trkpt>
      <trkpt lat="60.46030934534" lon="22.278490977969">
        <ele>17</ele>
        <time>2016-01-23T11:18:21Z</time>
      </trkpt>
      <trkpt lat="60.460321247638" lon="22.278503550819">
        <ele>17</ele>
        <time>2016-01-23T11:18:22Z</time>
      </trkpt>
      <trkpt lat="60.460339687818" lon="22.27852525994">
        <ele>17</ele>
        <time>2016-01-23T11:18:23Z</time>
      </trkpt>
      <trkpt lat="60.460351841573" lon="22.278536240229">
        <ele>16.4</ele>
        <time>2016-01-23T11:18:24Z</time>
      </trkpt>
      <trkpt lat="60.460370030296" lon="22.278559374273">
        <ele>15.8</ele>
        <time>2016-01-23T11:18:25Z</time>
      </trkpt>
      <trkpt lat="60.460383441336" lon="22.278573623503">
        <ele>15.4</ele>
        <time>2016-01-23T11:18:26Z</time>
      </trkpt>
      <trkpt lat="60.460399534584" lon="22.278596254633">
        <ele>15</ele>
        <time>2016-01-23T11:18:27Z</time>
      </trkpt>
      <trkpt lat="60.460415879289" lon="22.278611342053">
        <ele>14.6</ele>
        <time>2016-01-23T11:18:28Z</time>
      </trkpt>
      <trkpt lat="60.460432894546" lon="22.278634057002">
        <ele>14.6</ele>
        <time>2016-01-23T11:18:29Z</time>
      </trkpt>
      <trkpt lat="60.460451921459" lon="22.278653251553">
        <ele>14.6</ele>
        <time>2016-01-23T11:18:30Z</time>
      </trkpt>
      <trkpt lat="60.460464326671" lon="22.278667249326">
        <ele>14.6</ele>
        <time>2016-01-23T11:18:31Z</time>
      </trkpt>
      <trkpt lat="60.460483605041" lon="22.278693819949">
        <ele>14.6</ele>
        <time>2016-01-23T11:18:32Z</time>
      </trkpt>
      <trkpt lat="60.460496345529" lon="22.27870798536">
        <ele>14.6</ele>
        <time>2016-01-23T11:18:33Z</time>
      </trkpt>
      <trkpt lat="60.460514450433" lon="22.278731538499">
        <ele>14.6</ele>
        <time>2016-01-23T11:18:34Z</time>
      </trkpt>
      <trkpt lat="60.460534902269" lon="22.278752996163">
        <ele>14</ele>
        <time>2016-01-23T11:18:35Z</time>
      </trkpt>
      <trkpt lat="60.460551163155" lon="22.278776130207">
        <ele>14</ele>
        <time>2016-01-23T11:18:36Z</time>
      </trkpt>
      <trkpt lat="60.460571112077" lon="22.278800772993">
        <ele>14</ele>
        <time>2016-01-23T11:18:37Z</time>
      </trkpt>
      <trkpt lat="60.460586283316" lon="22.278820554277">
        <ele>14</ele>
        <time>2016-01-23T11:18:38Z</time>
      </trkpt>
      <trkpt lat="60.460603214754" lon="22.278850142384">
        <ele>14</ele>
        <time>2016-01-23T11:18:39Z</time>
      </trkpt>
      <trkpt lat="60.46061193193" lon="22.278860116845">
        <ele>14</ele>
        <time>2016-01-23T11:18:40Z</time>
      </trkpt>
      <trkpt lat="60.460636909992" lon="22.278893895902">
        <ele>14</ele>
        <time>2016-01-23T11:18:41Z</time>
      </trkpt>
      <trkpt lat="60.460652919421" lon="22.278914012462">
        <ele>14</ele>
        <time>2016-01-23T11:18:42Z</time>
      </trkpt>
      <trkpt lat="60.460670940506" lon="22.278939493438">
        <ele>14</ele>
        <time>2016-01-23T11:18:43Z</time>
      </trkpt>
      <trkpt lat="60.460686949935" lon="22.27895944236">
        <ele>14</ele>
        <time>2016-01-23T11:18:44Z</time>
      </trkpt>
      <trkpt lat="60.460702959364" lon="22.27897955892">
        <ele>14</ele>
        <time>2016-01-23T11:18:45Z</time>
      </trkpt>
      <trkpt lat="60.460713604377" lon="22.278998585833">
        <ele>14</ele>
        <time>2016-01-23T11:18:46Z</time>
      </trkpt>
      <trkpt lat="60.460728859435" lon="22.279019875859">
        <ele>14</ele>
        <time>2016-01-23T11:18:47Z</time>
      </trkpt>
      <trkpt lat="60.460743443941" lon="22.279044183369">
        <ele>14</ele>
        <time>2016-01-23T11:18:48Z</time>
      </trkpt>
      <trkpt lat="60.460754675687" lon="22.27906086335">
        <ele>14</ele>
        <time>2016-01-23T11:18:49Z</time>
      </trkpt>
      <trkpt lat="60.46076867346" lon="22.279082237195">
        <ele>14</ele>
        <time>2016-01-23T11:18:50Z</time>
      </trkpt>
      <trkpt lat="60.460776971541" lon="22.279093385122">
        <ele>14</ele>
        <time>2016-01-23T11:18:51Z</time>
      </trkpt>
      <trkpt lat="60.460784096156" lon="22.279101515565">
        <ele>14</ele>
        <time>2016-01-23T11:18:52Z</time>
      </trkpt>
      <trkpt lat="60.460788370925" lon="22.279106293248">
        <ele>14</ele>
        <time>2016-01-23T11:18:53Z</time>
      </trkpt>
      <trkpt lat="60.460786778364" lon="22.279104365411">
        <ele>14</ele>
        <time>2016-01-23T11:18:54Z</time>
      </trkpt>
      <trkpt lat="60.460788957658" lon="22.279104868325">
        <ele>14</ele>
        <time>2016-01-23T11:18:55Z</time>
      </trkpt>
      <trkpt lat="60.460789795848" lon="22.279103694859">
        <ele>14</ele>
        <time>2016-01-23T11:18:56Z</time>
      </trkpt>
      <trkpt lat="60.460790969314" lon="22.279102437574">
        <ele>14</ele>
        <time>2016-01-23T11:18:57Z</time>
      </trkpt>
      <trkpt lat="60.460791053133" lon="22.279100006823">
        <ele>14</ele>
        <time>2016-01-23T11:18:58Z</time>
      </trkpt>
      <trkpt lat="60.4607904664" lon="22.279097324615">
        <ele>14</ele>
        <time>2016-01-23T11:18:59Z</time>
      </trkpt>
      <trkpt lat="60.460789544391" lon="22.279095564416">
        <ele>14</ele>
        <time>2016-01-23T11:19:00Z</time>
      </trkpt>
      <trkpt lat="60.460788454744" lon="22.279095396778">
        <ele>14</ele>
        <time>2016-01-23T11:19:01Z</time>
      </trkpt>
      <trkpt lat="60.46078711364" lon="22.27909690552">
        <ele>14</ele>
        <time>2016-01-23T11:19:02Z</time>
      </trkpt>
      <trkpt lat="60.460785521079" lon="22.279096318787">
        <ele>14</ele>
        <time>2016-01-23T11:19:03Z</time>
      </trkpt>
      <trkpt lat="60.460785185803" lon="22.279093720398">
        <ele>14</ele>
        <time>2016-01-23T11:19:04Z</time>
      </trkpt>
      <trkpt lat="60.460785772536" lon="22.279093468941">
        <ele>14</ele>
        <time>2016-01-23T11:19:05Z</time>
      </trkpt>
      <trkpt lat="60.460785353441" lon="22.279094307131">
        <ele>14</ele>
        <time>2016-01-23T11:19:06Z</time>
      </trkpt>
      <trkpt lat="60.460784263794" lon="22.279094726226">
        <ele>14</ele>
        <time>2016-01-23T11:19:07Z</time>
      </trkpt>
      <trkpt lat="60.460783509423" lon="22.279095396778">
        <ele>14</ele>
        <time>2016-01-23T11:19:08Z</time>
      </trkpt>
      <trkpt lat="60.460784263794" lon="22.279096151149">
        <ele>14</ele>
        <time>2016-01-23T11:19:09Z</time>
      </trkpt>
      <trkpt lat="60.460785101984" lon="22.279097240796">
        <ele>14</ele>
        <time>2016-01-23T11:19:10Z</time>
      </trkpt>
      <trkpt lat="60.460785018165" lon="22.279097827529">
        <ele>14</ele>
        <time>2016-01-23T11:19:11Z</time>
      </trkpt>
      <trkpt lat="60.460784682889" lon="22.279099252452">
        <ele>14</ele>
        <time>2016-01-23T11:19:12Z</time>
      </trkpt>
      <trkpt lat="60.46078459907" lon="22.279098246624">
        <ele>14</ele>
        <time>2016-01-23T11:19:13Z</time>
      </trkpt>
      <trkpt lat="60.460784682889" lon="22.279097324615">
        <ele>14</ele>
        <time>2016-01-23T11:19:14Z</time>
      </trkpt>
      <trkpt lat="60.460785101984" lon="22.279097156977">
        <ele>14</ele>
        <time>2016-01-23T11:19:15Z</time>
      </trkpt>
      <trkpt lat="60.46078376088" lon="22.279094223312">
        <ele>14</ele>
        <time>2016-01-23T11:19:16Z</time>
      </trkpt>
      <trkpt lat="60.460781749224" lon="22.279090535276">
        <ele>14</ele>
        <time>2016-01-23T11:19:17Z</time>
      </trkpt>
      <trkpt lat="60.4607820845" lon="22.279088188344">
        <ele>14</ele>
        <time>2016-01-23T11:19:18Z</time>
      </trkpt>
      <trkpt lat="60.460782671233" lon="22.279086763421">
        <ele>15.6</ele>
        <time>2016-01-23T11:19:19Z</time>
      </trkpt>
      <trkpt lat="60.46078292269" lon="22.279084500308">
        <ele>15.6</ele>
        <time>2016-01-23T11:19:20Z</time>
      </trkpt>
      <trkpt lat="60.46078292269" lon="22.279084500308">
        <ele>15.6</ele>
        <time>2016-01-23T11:19:21Z</time>
      </trkpt>
      <trkpt lat="60.460781497767" lon="22.279079638806">
        <ele>15.6</ele>
        <time>2016-01-23T11:19:22Z</time>
      </trkpt>
      <trkpt lat="60.46078040812" lon="22.279076621322">
        <ele>15.6</ele>
        <time>2016-01-23T11:19:23Z</time>
      </trkpt>
      <trkpt lat="60.460779402292" lon="22.279074358209">
        <ele>15.6</ele>
        <time>2016-01-23T11:19:24Z</time>
      </trkpt>
      <trkpt lat="60.460778396464" lon="22.279072262734">
        <ele>15.6</ele>
        <time>2016-01-23T11:19:25Z</time>
      </trkpt>
      <trkpt lat="60.460776300989" lon="22.279069329069">
        <ele>15.6</ele>
        <time>2016-01-23T11:19:26Z</time>
      </trkpt>
      <trkpt lat="60.46077537898" lon="22.279067736508">
        <ele>15.6</ele>
        <time>2016-01-23T11:19:27Z</time>
      </trkpt>
      <trkpt lat="60.460775546618" lon="22.279067652689">
        <ele>15.6</ele>
        <time>2016-01-23T11:19:28Z</time>
      </trkpt>
      <trkpt lat="60.460775714256" lon="22.279067987965">
        <ele>15.6</ele>
        <time>2016-01-23T11:19:29Z</time>
      </trkpt>
      <trkpt lat="60.46077537898" lon="22.279070418716">
        <ele>15.6</ele>
        <time>2016-01-23T11:19:30Z</time>
      </trkpt>
      <trkpt lat="60.460774205514" lon="22.279069831983">
        <ele>15.6</ele>
        <time>2016-01-23T11:19:31Z</time>
      </trkpt>
      <trkpt lat="60.460774289333" lon="22.279068658517">
        <ele>15.6</ele>
        <time>2016-01-23T11:19:32Z</time>
      </trkpt>
      <trkpt lat="60.460773451143" lon="22.279065305757">
        <ele>15.6</ele>
        <time>2016-01-23T11:19:33Z</time>
      </trkpt>
      <trkpt lat="60.460772277677" lon="22.279063210282">
        <ele>15.4</ele>
        <time>2016-01-23T11:19:34Z</time>
      </trkpt>
      <trkpt lat="60.460771104211" lon="22.279063797015">
        <ele>14.8</ele>
        <time>2016-01-23T11:19:35Z</time>
      </trkpt>
      <trkpt lat="60.460770182202" lon="22.279063713196">
        <ele>14.4</ele>
        <time>2016-01-23T11:19:36Z</time>
      </trkpt>
      <trkpt lat="60.460769679288" lon="22.279064635205">
        <ele>14</ele>
        <time>2016-01-23T11:19:37Z</time>
      </trkpt>
      <trkpt lat="60.460770098383" lon="22.279066143947">
        <ele>13.6</ele>
        <time>2016-01-23T11:19:38Z</time>
      </trkpt>
      <trkpt lat="60.460770852754" lon="22.279066814499">
        <ele>13.6</ele>
        <time>2016-01-23T11:19:39Z</time>
      </trkpt>
      <trkpt lat="60.460771104211" lon="22.279067317413">
        <ele>13.6</ele>
        <time>2016-01-23T11:19:40Z</time>
      </trkpt>
      <trkpt lat="60.46077118803" lon="22.279067736508">
        <ele>13.6</ele>
        <time>2016-01-23T11:19:41Z</time>
      </trkpt>
      <trkpt lat="60.460771271849" lon="22.279067065956">
        <ele>13.6</ele>
        <time>2016-01-23T11:19:42Z</time>
      </trkpt>
      <trkpt lat="60.460771020392" lon="22.279066227766">
        <ele>13.6</ele>
        <time>2016-01-23T11:19:43Z</time>
      </trkpt>
      <trkpt lat="60.460770182202" lon="22.279065641033">
        <ele>13.6</ele>
        <time>2016-01-23T11:19:44Z</time>
      </trkpt>
      <trkpt lat="60.46076867346" lon="22.279064802843">
        <ele>13.6</ele>
        <time>2016-01-23T11:19:45Z</time>
      </trkpt>
      <trkpt lat="60.460766913261" lon="22.279063797015">
        <ele>13.6</ele>
        <time>2016-01-23T11:19:46Z</time>
      </trkpt>
      <trkpt lat="60.460766075071" lon="22.279062455911">
        <ele>13.6</ele>
        <time>2016-01-23T11:19:47Z</time>
      </trkpt>
      <trkpt lat="60.46076615889" lon="22.279062623549">
        <ele>13.6</ele>
        <time>2016-01-23T11:19:48Z</time>
      </trkpt>
      <trkpt lat="60.460768170546" lon="22.279061617721">
        <ele>13.4</ele>
        <time>2016-01-23T11:19:49Z</time>
      </trkpt>
      <trkpt lat="60.460769595469" lon="22.279061450083">
        <ele>13.2</ele>
        <time>2016-01-23T11:19:50Z</time>
      </trkpt>
      <trkpt lat="60.460769595469" lon="22.279061450083">
        <ele>13</ele>
        <time>2016-01-23T11:19:51Z</time>
      </trkpt>
      <trkpt lat="60.460769763107" lon="22.279064132291">
        <ele>12.6</ele>
        <time>2016-01-23T11:19:52Z</time>
      </trkpt>
      <trkpt lat="60.46077034984" lon="22.279065221938">
        <ele>12.2</ele>
        <time>2016-01-23T11:19:53Z</time>
      </trkpt>
      <trkpt lat="60.460771942401" lon="22.279066311585">
        <ele>11.8</ele>
        <time>2016-01-23T11:19:54Z</time>
      </trkpt>
      <trkpt lat="60.460774373152" lon="22.279067987965">
        <ele>11.4</ele>
        <time>2016-01-23T11:19:55Z</time>
      </trkpt>
      <trkpt lat="60.460777306817" lon="22.279068993793">
        <ele>11.4</ele>
        <time>2016-01-23T11:19:56Z</time>
      </trkpt>
      <trkpt lat="60.460779318473" lon="22.279069999621">
        <ele>11.4</ele>
        <time>2016-01-23T11:19:57Z</time>
      </trkpt>
      <trkpt lat="60.460781078672" lon="22.279073687657">
        <ele>11.4</ele>
        <time>2016-01-23T11:19:58Z</time>
      </trkpt>
      <trkpt lat="60.46078292269" lon="22.279078130064">
        <ele>11.4</ele>
        <time>2016-01-23T11:19:59Z</time>
      </trkpt>
      <trkpt lat="60.460784347613" lon="22.279082321014">
        <ele>11.4</ele>
        <time>2016-01-23T11:20:00Z</time>
      </trkpt>
      <trkpt lat="60.460785101984" lon="22.279086511964">
        <ele>11.4</ele>
        <time>2016-01-23T11:20:01Z</time>
      </trkpt>
      <trkpt lat="60.460785353441" lon="22.279088104525">
        <ele>11.2</ele>
        <time>2016-01-23T11:20:02Z</time>
      </trkpt>
      <trkpt lat="60.460785604898" lon="22.279089529448">
        <ele>10.8</ele>
        <time>2016-01-23T11:20:03Z</time>
      </trkpt>
      <trkpt lat="60.460786359269" lon="22.279092211656">
        <ele>10.4</ele>
        <time>2016-01-23T11:20:04Z</time>
      </trkpt>
      <trkpt lat="60.460786610726" lon="22.279097324615">
        <ele>10.2</ele>
        <time>2016-01-23T11:20:05Z</time>
      </trkpt>
      <trkpt lat="60.460786191631" lon="22.279102940488">
        <ele>10</ele>
        <time>2016-01-23T11:20:06Z</time>
      </trkpt>
      <trkpt lat="60.460785940174" lon="22.279109143094">
        <ele>9.4</ele>
        <time>2016-01-23T11:20:07Z</time>
      </trkpt>
      <trkpt lat="60.460786694545" lon="22.279112998768">
        <ele>9.4</ele>
        <time>2016-01-23T11:20:08Z</time>
      </trkpt>
      <trkpt lat="60.460785521079" lon="22.279119620469">
        <ele>9.4</ele>
        <time>2016-01-23T11:20:09Z</time>
      </trkpt>
      <trkpt lat="60.460784096156" lon="22.279125823075">
        <ele>9.4</ele>
        <time>2016-01-23T11:20:10Z</time>
      </trkpt>
      <trkpt lat="60.460783006509" lon="22.2791321095">
        <ele>9.4</ele>
        <time>2016-01-23T11:20:11Z</time>
      </trkpt>
      <trkpt lat="60.460782168319" lon="22.279137557735">
        <ele>9.4</ele>
        <time>2016-01-23T11:20:12Z</time>
      </trkpt>
      <trkpt lat="60.460782168319" lon="22.279140826676">
        <ele>9.4</ele>
        <time>2016-01-23T11:20:13Z</time>
      </trkpt>
      <trkpt lat="60.460781078672" lon="22.279143089789">
        <ele>9.4</ele>
        <time>2016-01-23T11:20:14Z</time>
      </trkpt>
      <trkpt lat="60.460782168319" lon="22.279143257427">
        <ele>9.4</ele>
        <time>2016-01-23T11:20:15Z</time>
      </trkpt>
      <trkpt lat="60.460783006509" lon="22.279145688178">
        <ele>9.2</ele>
        <time>2016-01-23T11:20:16Z</time>
      </trkpt>
      <trkpt lat="60.460784263794" lon="22.279147448377">
        <ele>8.8</ele>
        <time>2016-01-23T11:20:17Z</time>
      </trkpt>
      <trkpt lat="60.460785772536" lon="22.279148789481">
        <ele>8.4</ele>
        <time>2016-01-23T11:20:18Z</time>
      </trkpt>
      <trkpt lat="60.460785688717" lon="22.279153399526">
        <ele>7.8</ele>
        <time>2016-01-23T11:20:19Z</time>
      </trkpt>
      <trkpt lat="60.460786359269" lon="22.279158763942">
        <ele>7.4</ele>
        <time>2016-01-23T11:20:20Z</time>
      </trkpt>
      <trkpt lat="60.46078711364" lon="22.27915976977">
        <ele>7.4</ele>
        <time>2016-01-23T11:20:21Z</time>
      </trkpt>
      <trkpt lat="60.460787700373" lon="22.279158512485">
        <ele>7.4</ele>
        <time>2016-01-23T11:20:22Z</time>
      </trkpt>
      <trkpt lat="60.460787197459" lon="22.279155830277">
        <ele>7.4</ele>
        <time>2016-01-23T11:20:23Z</time>
      </trkpt>
      <trkpt lat="60.460786359269" lon="22.279154992087">
        <ele>7.4</ele>
        <time>2016-01-23T11:20:24Z</time>
      </trkpt>
      <trkpt lat="60.46078627545" lon="22.279152645155">
        <ele>7.4</ele>
        <time>2016-01-23T11:20:25Z</time>
      </trkpt>
      <trkpt lat="60.460790298762" lon="22.27914468235">
        <ele>7.4</ele>
        <time>2016-01-23T11:20:26Z</time>
      </trkpt>
      <trkpt lat="60.460788370925" lon="22.279146861644">
        <ele>7.4</ele>
        <time>2016-01-23T11:20:27Z</time>
      </trkpt>
      <trkpt lat="60.460794992626" lon="22.279140910495">
        <ele>7.4</ele>
        <time>2016-01-23T11:20:28Z</time>
      </trkpt>
      <trkpt lat="60.460794908807" lon="22.279139317934">
        <ele>7.4</ele>
        <time>2016-01-23T11:20:29Z</time>
      </trkpt>
      <trkpt lat="60.460793400065" lon="22.279137725373">
        <ele>7.4</ele>
        <time>2016-01-23T11:20:30Z</time>
      </trkpt>
      <trkpt lat="60.460792561875" lon="22.279136468088">
        <ele>7.4</ele>
        <time>2016-01-23T11:20:31Z</time>
      </trkpt>
      <trkpt lat="60.46079298097" lon="22.279137725373">
        <ele>7</ele>
        <time>2016-01-23T11:20:32Z</time>
      </trkpt>
      <trkpt lat="60.460793064789" lon="22.279139820848">
        <ele>6.6</ele>
        <time>2016-01-23T11:20:33Z</time>
      </trkpt>
      <trkpt lat="60.460793651522" lon="22.279140407581">
        <ele>6.2</ele>
        <time>2016-01-23T11:20:34Z</time>
      </trkpt>
      <trkpt lat="60.460794908807" lon="22.279140910495">
        <ele>5.8</ele>
        <time>2016-01-23T11:20:35Z</time>
      </trkpt>
      <trkpt lat="60.460795160264" lon="22.279140826676">
        <ele>5.4</ele>
        <time>2016-01-23T11:20:36Z</time>
      </trkpt>
      <trkpt lat="60.46079549554" lon="22.279140659038">
        <ele>5.4</ele>
        <time>2016-01-23T11:20:37Z</time>
      </trkpt>
      <trkpt lat="60.460794741169" lon="22.279139988486">
        <ele>5.4</ele>
        <time>2016-01-23T11:20:38Z</time>
      </trkpt>
      <trkpt lat="60.460794573531" lon="22.279139737029">
        <ele>5.4</ele>
        <time>2016-01-23T11:20:39Z</time>
      </trkpt>
      <trkpt lat="60.460794405893" lon="22.279139820848">
        <ele>5.4</ele>
        <time>2016-01-23T11:20:40Z</time>
      </trkpt>
      <trkpt lat="60.460794070617" lon="22.2791404914">
        <ele>5.4</ele>
        <time>2016-01-23T11:20:41Z</time>
      </trkpt>
      <trkpt lat="60.460794405893" lon="22.279139150296">
        <ele>5.4</ele>
        <time>2016-01-23T11:20:42Z</time>
      </trkpt>
      <trkpt lat="60.460794070617" lon="22.279137222459">
        <ele>5.4</ele>
        <time>2016-01-23T11:20:43Z</time>
      </trkpt>
      <trkpt lat="60.460794154436" lon="22.279136551907">
        <ele>5.4</ele>
        <time>2016-01-23T11:20:44Z</time>
      </trkpt>
      <trkpt lat="60.460793986798" lon="22.27913546226">
        <ele>5.4</ele>
        <time>2016-01-23T11:20:45Z</time>
      </trkpt>
      <trkpt lat="60.460795160264" lon="22.27913546226">
        <ele>5.4</ele>
        <time>2016-01-23T11:20:46Z</time>
      </trkpt>
      <trkpt lat="60.460795663178" lon="22.279135210803">
        <ele>5.4</ele>
        <time>2016-01-23T11:20:47Z</time>
      </trkpt>
      <trkpt lat="60.460794908807" lon="22.279135043165">
        <ele>5.4</ele>
        <time>2016-01-23T11:20:48Z</time>
      </trkpt>
      <trkpt lat="60.460794489712" lon="22.279136048993">
        <ele>5.4</ele>
        <time>2016-01-23T11:20:49Z</time>
      </trkpt>
      <trkpt lat="60.460795160264" lon="22.279136132812">
        <ele>5.4</ele>
        <time>2016-01-23T11:20:50Z</time>
      </trkpt>
      <trkpt lat="60.46079549554" lon="22.279137641554">
        <ele>5.4</ele>
        <time>2016-01-23T11:20:51Z</time>
      </trkpt>
      <trkpt lat="60.460795160264" lon="22.279135629898">
        <ele>5.4</ele>
        <time>2016-01-23T11:20:52Z</time>
      </trkpt>
      <trkpt lat="60.460794908807" lon="22.279134204975">
        <ele>5.4</ele>
        <time>2016-01-23T11:20:53Z</time>
      </trkpt>
      <trkpt lat="60.460795076445" lon="22.279132528595">
        <ele>5.4</ele>
        <time>2016-01-23T11:20:54Z</time>
      </trkpt>
      <trkpt lat="60.460796166092" lon="22.279131606586">
        <ele>5.4</ele>
        <time>2016-01-23T11:20:55Z</time>
      </trkpt>
      <trkpt lat="60.460796501368" lon="22.279131019853">
        <ele>5.4</ele>
        <time>2016-01-23T11:20:56Z</time>
      </trkpt>
      <trkpt lat="60.460797507196" lon="22.279132696233">
        <ele>5.4</ele>
        <time>2016-01-23T11:20:57Z</time>
      </trkpt>
      <trkpt lat="60.460797674834" lon="22.279132528595">
        <ele>5.4</ele>
        <time>2016-01-23T11:20:58Z</time>
      </trkpt>
      <trkpt lat="60.460797842472" lon="22.279133366785">
        <ele>5.4</ele>
        <time>2016-01-23T11:20:59Z</time>
      </trkpt>
      <trkpt lat="60.460797758653" lon="22.279135043165">
        <ele>5.4</ele>
        <time>2016-01-23T11:21:00Z</time>
      </trkpt>
      <trkpt lat="60.460798764481" lon="22.27913546226">
        <ele>5.4</ele>
        <time>2016-01-23T11:21:01Z</time>
      </trkpt>
      <trkpt lat="60.460799854128" lon="22.27913462407">
        <ele>5.4</ele>
        <time>2016-01-23T11:21:02Z</time>
      </trkpt>
      <trkpt lat="60.460800357042" lon="22.279134121156">
        <ele>5.4</ele>
        <time>2016-01-23T11:21:03Z</time>
      </trkpt>
      <trkpt lat="60.460800859956" lon="22.279135126984">
        <ele>5.4</ele>
        <time>2016-01-23T11:21:04Z</time>
      </trkpt>
      <trkpt lat="60.460800776137" lon="22.279136551907">
        <ele>5.4</ele>
        <time>2016-01-23T11:21:05Z</time>
      </trkpt>
      <trkpt lat="60.460799602671" lon="22.279137809192">
        <ele>5.4</ele>
        <time>2016-01-23T11:21:06Z</time>
      </trkpt>
      <trkpt lat="60.460797674834" lon="22.27913881502">
        <ele>5.4</ele>
        <time>2016-01-23T11:21:07Z</time>
      </trkpt>
      <trkpt lat="60.460795160264" lon="22.279140156124">
        <ele>5.4</ele>
        <time>2016-01-23T11:21:08Z</time>
      </trkpt>
      <trkpt lat="60.460793316246" lon="22.27913965321">
        <ele>5.4</ele>
        <time>2016-01-23T11:21:09Z</time>
      </trkpt>
      <trkpt lat="60.460792058961" lon="22.279139150296">
        <ele>5.4</ele>
        <time>2016-01-23T11:21:10Z</time>
      </trkpt>
      <trkpt lat="60.460790969314" lon="22.279139317934">
        <ele>5.4</ele>
        <time>2016-01-23T11:21:11Z</time>
      </trkpt>
      <trkpt lat="60.460791220771" lon="22.279140910495">
        <ele>5.4</ele>
        <time>2016-01-23T11:21:12Z</time>
      </trkpt>
      <trkpt lat="60.460790717857" lon="22.279140659038">
        <ele>5.4</ele>
        <time>2016-01-23T11:21:13Z</time>
      </trkpt>
      <trkpt lat="60.460790047305" lon="22.279140742857">
        <ele>5.4</ele>
        <time>2016-01-23T11:21:14Z</time>
      </trkpt>
      <trkpt lat="60.460789879667" lon="22.279140994314">
        <ele>5.4</ele>
        <time>2016-01-23T11:21:15Z</time>
      </trkpt>
      <trkpt lat="60.460789879667" lon="22.279141161952">
        <ele>5.4</ele>
        <time>2016-01-23T11:21:16Z</time>
      </trkpt>
      <trkpt lat="60.460789963486" lon="22.279140994314">
        <ele>5.4</ele>
        <time>2016-01-23T11:21:17Z</time>
      </trkpt>
      <trkpt lat="60.460790047305" lon="22.279141832504">
        <ele>5.4</ele>
        <time>2016-01-23T11:21:18Z</time>
      </trkpt>
      <trkpt lat="60.460789795848" lon="22.279142419237">
        <ele>5.4</ele>
        <time>2016-01-23T11:21:19Z</time>
      </trkpt>
      <trkpt lat="60.460789460572" lon="22.279142586875">
        <ele>5.4</ele>
        <time>2016-01-23T11:21:20Z</time>
      </trkpt>
      <trkpt lat="60.460789041477" lon="22.279143089789">
        <ele>5.4</ele>
        <time>2016-01-23T11:21:21Z</time>
      </trkpt>
      <trkpt lat="60.460787868011" lon="22.279144430893">
        <ele>5.4</ele>
        <time>2016-01-23T11:21:22Z</time>
      </trkpt>
      <trkpt lat="60.460786946002" lon="22.27914552054">
        <ele>5.4</ele>
        <time>2016-01-23T11:21:23Z</time>
      </trkpt>
      <trkpt lat="60.460786862183" lon="22.279146861644">
        <ele>5.4</ele>
        <time>2016-01-23T11:21:24Z</time>
      </trkpt>
      <trkpt lat="60.460786610726" lon="22.279148202748">
        <ele>5.4</ele>
        <time>2016-01-23T11:21:25Z</time>
      </trkpt>
      <trkpt lat="60.460785940174" lon="22.279148789481">
        <ele>5.4</ele>
        <time>2016-01-23T11:21:26Z</time>
      </trkpt>
      <trkpt lat="60.460785185803" lon="22.279149124757">
        <ele>5.4</ele>
        <time>2016-01-23T11:21:27Z</time>
      </trkpt>
      <trkpt lat="60.460784179975" lon="22.279150465861">
        <ele>5.4</ele>
        <time>2016-01-23T11:21:28Z</time>
      </trkpt>
      <trkpt lat="60.460783593242" lon="22.279152309879">
        <ele>5.4</ele>
        <time>2016-01-23T11:21:29Z</time>
      </trkpt>
      <trkpt lat="60.460782000681" lon="22.279153818621">
        <ele>5.4</ele>
        <time>2016-01-23T11:21:30Z</time>
      </trkpt>
      <trkpt lat="60.460780491939" lon="22.279155830277">
        <ele>5.4</ele>
        <time>2016-01-23T11:21:31Z</time>
      </trkpt>
      <trkpt lat="60.460779402292" lon="22.279158428666">
        <ele>5.4</ele>
        <time>2016-01-23T11:21:32Z</time>
      </trkpt>
      <trkpt lat="60.460778312645" lon="22.279160440322">
        <ele>5.4</ele>
        <time>2016-01-23T11:21:33Z</time>
      </trkpt>
      <trkpt lat="60.46077705536" lon="22.279162619616">
        <ele>5.4</ele>
        <time>2016-01-23T11:21:34Z</time>
      </trkpt>
      <trkpt lat="60.460776049532" lon="22.27916479891">
        <ele>5.4</ele>
        <time>2016-01-23T11:21:35Z</time>
      </trkpt>
      <trkpt lat="60.460774876066" lon="22.279166140014">
        <ele>5.4</ele>
        <time>2016-01-23T11:21:36Z</time>
      </trkpt>
      <trkpt lat="60.460773954057" lon="22.279167564937">
        <ele>5.4</ele>
        <time>2016-01-23T11:21:37Z</time>
      </trkpt>
      <trkpt lat="60.460772780591" lon="22.279168403127">
        <ele>5.4</ele>
        <time>2016-01-23T11:21:38Z</time>
      </trkpt>
      <trkpt lat="60.460772110039" lon="22.27916982805">
        <ele>5.4</ele>
        <time>2016-01-23T11:21:39Z</time>
      </trkpt>
      <trkpt lat="60.460771774763" lon="22.279171169154">
        <ele>5.4</ele>
        <time>2016-01-23T11:21:40Z</time>
      </trkpt>
      <trkpt lat="60.460771690944" lon="22.279171755887">
        <ele>5.4</ele>
        <time>2016-01-23T11:21:41Z</time>
      </trkpt>
      <trkpt lat="60.460771858582" lon="22.279171923525">
        <ele>5.4</ele>
        <time>2016-01-23T11:21:42Z</time>
      </trkpt>
      <trkpt lat="60.460772361496" lon="22.279172091163">
        <ele>5.4</ele>
        <time>2016-01-23T11:21:43Z</time>
      </trkpt>
      <trkpt lat="60.460772445315" lon="22.279172594077">
        <ele>5.4</ele>
        <time>2016-01-23T11:21:44Z</time>
      </trkpt>
      <trkpt lat="60.460772696772" lon="22.279173599905">
        <ele>5.4</ele>
        <time>2016-01-23T11:21:45Z</time>
      </trkpt>
      <trkpt lat="60.460772948229" lon="22.279174689552">
        <ele>5.4</ele>
        <time>2016-01-23T11:21:46Z</time>
      </trkpt>
      <trkpt lat="60.460773115867" lon="22.279175863018">
        <ele>5.4</ele>
        <time>2016-01-23T11:21:47Z</time>
      </trkpt>
      <trkpt lat="60.460772696772" lon="22.279176952665">
        <ele>5.4</ele>
        <time>2016-01-23T11:21:48Z</time>
      </trkpt>
      <trkpt lat="60.460772612953" lon="22.27917820995">
        <ele>5.4</ele>
        <time>2016-01-23T11:21:49Z</time>
      </trkpt>
      <trkpt lat="60.460772612953" lon="22.279179467235">
        <ele>5.4</ele>
        <time>2016-01-23T11:21:50Z</time>
      </trkpt>
      <trkpt lat="60.460773115867" lon="22.279181646529">
        <ele>5.4</ele>
        <time>2016-01-23T11:21:51Z</time>
      </trkpt>
      <trkpt lat="60.460773199686" lon="22.279183322909">
        <ele>5.4</ele>
        <time>2016-01-23T11:21:52Z</time>
      </trkpt>
      <trkpt lat="60.460773367324" lon="22.279182149443">
        <ele>5.4</ele>
        <time>2016-01-23T11:21:53Z</time>
      </trkpt>
      <trkpt lat="60.460773954057" lon="22.27918072452">
        <ele>5.4</ele>
        <time>2016-01-23T11:21:54Z</time>
      </trkpt>
      <trkpt lat="60.46077537898" lon="22.279181814167">
        <ele>5.4</ele>
        <time>2016-01-23T11:21:55Z</time>
      </trkpt>
      <trkpt lat="60.460775881894" lon="22.279182652357">
        <ele>5.4</ele>
        <time>2016-01-23T11:21:56Z</time>
      </trkpt>
      <trkpt lat="60.460775714256" lon="22.279184328737">
        <ele>5.4</ele>
        <time>2016-01-23T11:21:57Z</time>
      </trkpt>
      <trkpt lat="60.460774792247" lon="22.279186508031">
        <ele>5.4</ele>
        <time>2016-01-23T11:21:58Z</time>
      </trkpt>
      <trkpt lat="60.460774289333" lon="22.279188603506">
        <ele>5.4</ele>
        <time>2016-01-23T11:21:59Z</time>
      </trkpt>
      <trkpt lat="60.4607737026" lon="22.279190447524">
        <ele>5.4</ele>
        <time>2016-01-23T11:22:00Z</time>
      </trkpt>
      <trkpt lat="60.460773451143" lon="22.279192710637">
        <ele>5.4</ele>
        <time>2016-01-23T11:22:01Z</time>
      </trkpt>
      <trkpt lat="60.460774289333" lon="22.279193800284">
        <ele>5.4</ele>
        <time>2016-01-23T11:22:02Z</time>
      </trkpt>
      <trkpt lat="60.460774959885" lon="22.279195225207">
        <ele>5.4</ele>
        <time>2016-01-23T11:22:03Z</time>
      </trkpt>
      <trkpt lat="60.460775881894" lon="22.279195309026">
        <ele>5.4</ele>
        <time>2016-01-23T11:22:04Z</time>
      </trkpt>
      <trkpt lat="60.46077705536" lon="22.279195560483">
        <ele>5.4</ele>
        <time>2016-01-23T11:22:05Z</time>
      </trkpt>
      <trkpt lat="60.460778312645" lon="22.27919581194">
        <ele>5.4</ele>
        <time>2016-01-23T11:22:06Z</time>
      </trkpt>
      <trkpt lat="60.460778983197" lon="22.279194889931">
        <ele>5.4</ele>
        <time>2016-01-23T11:22:07Z</time>
      </trkpt>
      <trkpt lat="60.460779821387" lon="22.27919413556">
        <ele>5.4</ele>
        <time>2016-01-23T11:22:08Z</time>
      </trkpt>
      <trkpt lat="60.460781162491" lon="22.279194051741">
        <ele>5.4</ele>
        <time>2016-01-23T11:22:09Z</time>
      </trkpt>
      <trkpt lat="60.460782587414" lon="22.27919329737">
        <ele>5.4</ele>
        <time>2016-01-23T11:22:10Z</time>
      </trkpt>
      <trkpt lat="60.460783257966" lon="22.279191704809">
        <ele>5.4</ele>
        <time>2016-01-23T11:22:11Z</time>
      </trkpt>
      <trkpt lat="60.460784263794" lon="22.279188938782">
        <ele>5.4</ele>
        <time>2016-01-23T11:22:12Z</time>
      </trkpt>
      <trkpt lat="60.460785269622" lon="22.279184831651">
        <ele>5.4</ele>
        <time>2016-01-23T11:22:13Z</time>
      </trkpt>
      <trkpt lat="60.460784766708" lon="22.279185837479">
        <ele>5.4</ele>
        <time>2016-01-23T11:22:14Z</time>
      </trkpt>
      <trkpt lat="60.460784347613" lon="22.279186088936">
        <ele>5.4</ele>
        <time>2016-01-23T11:22:15Z</time>
      </trkpt>
      <trkpt lat="60.460785353441" lon="22.279184412556">
        <ele>5.4</ele>
        <time>2016-01-23T11:22:16Z</time>
      </trkpt>
      <trkpt lat="60.46078627545" lon="22.279183909642">
        <ele>5.4</ele>
        <time>2016-01-23T11:22:17Z</time>
      </trkpt>
      <trkpt lat="60.460787616554" lon="22.279181143615">
        <ele>5.4</ele>
        <time>2016-01-23T11:22:18Z</time>
      </trkpt>
      <trkpt lat="60.460789292934" lon="22.27917988633">
        <ele>5.4</ele>
        <time>2016-01-23T11:22:19Z</time>
      </trkpt>
      <trkpt lat="60.460790717857" lon="22.279179802511">
        <ele>5.4</ele>
        <time>2016-01-23T11:22:20Z</time>
      </trkpt>
      <trkpt lat="60.460791472228" lon="22.279174689552">
        <ele>5.4</ele>
        <time>2016-01-23T11:22:21Z</time>
      </trkpt>
      <trkpt lat="60.460791807504" lon="22.279172594077">
        <ele>5.4</ele>
        <time>2016-01-23T11:22:22Z</time>
      </trkpt>
      <trkpt lat="60.460791388409" lon="22.279175863018">
        <ele>5.4</ele>
        <time>2016-01-23T11:22:23Z</time>
      </trkpt>
      <trkpt lat="60.46079130459" lon="22.279180808339">
        <ele>5.4</ele>
        <time>2016-01-23T11:22:24Z</time>
      </trkpt>
      <trkpt lat="60.460791556047" lon="22.279182903814">
        <ele>5.4</ele>
        <time>2016-01-23T11:22:25Z</time>
      </trkpt>
      <trkpt lat="60.460791891323" lon="22.279182568538">
        <ele>5.4</ele>
        <time>2016-01-23T11:22:26Z</time>
      </trkpt>
      <trkpt lat="60.460791388409" lon="22.279179634873">
        <ele>5.4</ele>
        <time>2016-01-23T11:22:27Z</time>
      </trkpt>
      <trkpt lat="60.460790969314" lon="22.27917820995">
        <ele>5.4</ele>
        <time>2016-01-23T11:22:28Z</time>
      </trkpt>
      <trkpt lat="60.460790214943" lon="22.279176365932">
        <ele>5.4</ele>
        <time>2016-01-23T11:22:29Z</time>
      </trkpt>
      <trkpt lat="60.460790298762" lon="22.279175527742">
        <ele>5.4</ele>
        <time>2016-01-23T11:22:30Z</time>
      </trkpt>
      <trkpt lat="60.460789712029" lon="22.279175024828">
        <ele>5.6</ele>
        <time>2016-01-23T11:22:31Z</time>
      </trkpt>
      <trkpt lat="60.460789712029" lon="22.279172761715">
        <ele>5.4</ele>
        <time>2016-01-23T11:22:32Z</time>
      </trkpt>
      <trkpt lat="60.460788203287" lon="22.279169408955">
        <ele>5.6</ele>
        <time>2016-01-23T11:22:33Z</time>
      </trkpt>
      <trkpt lat="60.460787616554" lon="22.279168403127">
        <ele>5.6</ele>
        <time>2016-01-23T11:22:34Z</time>
      </trkpt>
      <trkpt lat="60.46078795183" lon="22.279167397299">
        <ele>5.8</ele>
        <time>2016-01-23T11:22:35Z</time>
      </trkpt>
      <trkpt lat="60.460787700373" lon="22.279165888557">
        <ele>5.8</ele>
        <time>2016-01-23T11:22:36Z</time>
      </trkpt>
      <trkpt lat="60.460787281278" lon="22.279164295996">
        <ele>5.8</ele>
        <time>2016-01-23T11:22:37Z</time>
      </trkpt>
      <trkpt lat="60.460786107812" lon="22.279162200521">
        <ele>5.8</ele>
        <time>2016-01-23T11:22:38Z</time>
      </trkpt>
      <trkpt lat="60.460785688717" lon="22.279161027055">
        <ele>5.8</ele>
        <time>2016-01-23T11:22:39Z</time>
      </trkpt>
      <trkpt lat="60.460785604898" lon="22.279159853589">
        <ele>5.8</ele>
        <time>2016-01-23T11:22:40Z</time>
      </trkpt>
      <trkpt lat="60.460786610726" lon="22.279158596304">
        <ele>5.8</ele>
        <time>2016-01-23T11:22:41Z</time>
      </trkpt>
      <trkpt lat="60.46078711364" lon="22.279157758114">
        <ele>5.8</ele>
        <time>2016-01-23T11:22:42Z</time>
      </trkpt>
      <trkpt lat="60.460787365097" lon="22.279157087562">
        <ele>5.8</ele>
        <time>2016-01-23T11:22:43Z</time>
      </trkpt>
      <trkpt lat="60.460787448916" lon="22.27915641701">
        <ele>5.8</ele>
        <time>2016-01-23T11:22:44Z</time>
      </trkpt>
      <trkpt lat="60.460787448916" lon="22.279154489173">
        <ele>5.8</ele>
        <time>2016-01-23T11:22:45Z</time>
      </trkpt>
      <trkpt lat="60.460788119468" lon="22.27915306425">
        <ele>5.8</ele>
        <time>2016-01-23T11:22:46Z</time>
      </trkpt>
      <trkpt lat="60.46078879002" lon="22.279152645155">
        <ele>5.8</ele>
        <time>2016-01-23T11:22:47Z</time>
      </trkpt>
      <trkpt lat="60.460788873839" lon="22.279150717318">
        <ele>5.8</ele>
        <time>2016-01-23T11:22:48Z</time>
      </trkpt>
      <trkpt lat="60.460789041477" lon="22.279147699834">
        <ele>5.8</ele>
        <time>2016-01-23T11:22:49Z</time>
      </trkpt>
      <trkpt lat="60.460790550219" lon="22.279144766169">
        <ele>5.8</ele>
        <time>2016-01-23T11:22:50Z</time>
      </trkpt>
      <trkpt lat="60.460789460572" lon="22.279142000142">
        <ele>5.8</ele>
        <time>2016-01-23T11:22:51Z</time>
      </trkpt>
      <trkpt lat="60.46078795183" lon="22.279139401753">
        <ele>5.8</ele>
        <time>2016-01-23T11:22:52Z</time>
      </trkpt>
      <trkpt lat="60.46078795183" lon="22.279136887183">
        <ele>5.8</ele>
        <time>2016-01-23T11:22:53Z</time>
      </trkpt>
      <trkpt lat="60.460789041477" lon="22.279134959346">
        <ele>5.8</ele>
        <time>2016-01-23T11:22:54Z</time>
      </trkpt>
      <trkpt lat="60.460790550219" lon="22.279133199147">
        <ele>5.8</ele>
        <time>2016-01-23T11:22:55Z</time>
      </trkpt>
      <trkpt lat="60.460791388409" lon="22.279130768396">
        <ele>5.8</ele>
        <time>2016-01-23T11:22:56Z</time>
      </trkpt>
      <trkpt lat="60.460792310418" lon="22.279128924378">
        <ele>5.8</ele>
        <time>2016-01-23T11:22:57Z</time>
      </trkpt>
      <trkpt lat="60.460793316246" lon="22.279127415636">
        <ele>5.8</ele>
        <time>2016-01-23T11:22:58Z</time>
      </trkpt>
      <trkpt lat="60.460794154436" lon="22.27912624217">
        <ele>5.8</ele>
        <time>2016-01-23T11:22:59Z</time>
      </trkpt>
      <trkpt lat="60.460794992626" lon="22.279125320161">
        <ele>5.8</ele>
        <time>2016-01-23T11:23:00Z</time>
      </trkpt>
      <trkpt lat="60.460796082273" lon="22.279124733428">
        <ele>5.8</ele>
        <time>2016-01-23T11:23:01Z</time>
      </trkpt>
      <trkpt lat="60.46079717192" lon="22.279124314333">
        <ele>5.8</ele>
        <time>2016-01-23T11:23:02Z</time>
      </trkpt>
      <trkpt lat="60.460798093929" lon="22.279123895238">
        <ele>5.8</ele>
        <time>2016-01-23T11:23:03Z</time>
      </trkpt>
      <trkpt lat="60.460798513024" lon="22.279123643781">
        <ele>5.8</ele>
        <time>2016-01-23T11:23:04Z</time>
      </trkpt>
      <trkpt lat="60.4607988483" lon="22.279123308505">
        <ele>5.8</ele>
        <time>2016-01-23T11:23:05Z</time>
      </trkpt>
      <trkpt lat="60.460799099757" lon="22.279122805591">
        <ele>5.8</ele>
        <time>2016-01-23T11:23:06Z</time>
      </trkpt>
      <trkpt lat="60.460798764481" lon="22.279122386496">
        <ele>5.8</ele>
        <time>2016-01-23T11:23:07Z</time>
      </trkpt>
      <trkpt lat="60.460798345386" lon="22.279122302677">
        <ele>5.8</ele>
        <time>2016-01-23T11:23:08Z</time>
      </trkpt>
      <trkpt lat="60.460798596843" lon="22.279122721772">
        <ele>5.8</ele>
        <time>2016-01-23T11:23:09Z</time>
      </trkpt>
      <trkpt lat="60.460799267395" lon="22.279123140867">
        <ele>5.8</ele>
        <time>2016-01-23T11:23:10Z</time>
      </trkpt>
      <trkpt lat="60.460800692318" lon="22.279124901066">
        <ele>5.8</ele>
        <time>2016-01-23T11:23:11Z</time>
      </trkpt>
      <trkpt lat="60.460802452517" lon="22.279126828903">
        <ele>5.8</ele>
        <time>2016-01-23T11:23:12Z</time>
      </trkpt>
      <trkpt lat="60.46080471563" lon="22.279128589102">
        <ele>5.8</ele>
        <time>2016-01-23T11:23:13Z</time>
      </trkpt>
      <trkpt lat="60.460806308191" lon="22.27912959493">
        <ele>5.8</ele>
        <time>2016-01-23T11:23:14Z</time>
      </trkpt>
      <trkpt lat="60.460807481657" lon="22.279130265482">
        <ele>5.8</ele>
        <time>2016-01-23T11:23:15Z</time>
      </trkpt>
      <trkpt lat="60.460808487485" lon="22.279130936034">
        <ele>5.8</ele>
        <time>2016-01-23T11:23:16Z</time>
      </trkpt>
      <trkpt lat="60.460809660951" lon="22.279131690405">
        <ele>5.8</ele>
        <time>2016-01-23T11:23:17Z</time>
      </trkpt>
      <trkpt lat="60.460811253512" lon="22.279132360957">
        <ele>5.8</ele>
        <time>2016-01-23T11:23:18Z</time>
      </trkpt>
      <trkpt lat="60.460812762254" lon="22.27913294769">
        <ele>5.8</ele>
        <time>2016-01-23T11:23:19Z</time>
      </trkpt>
      <trkpt lat="60.460814103358" lon="22.279133366785">
        <ele>5.8</ele>
        <time>2016-01-23T11:23:20Z</time>
      </trkpt>
      <trkpt lat="60.460814941548" lon="22.279133450604">
        <ele>5.8</ele>
        <time>2016-01-23T11:23:21Z</time>
      </trkpt>
      <trkpt lat="60.4608156121" lon="22.279133199147">
        <ele>5.8</ele>
        <time>2016-01-23T11:23:22Z</time>
      </trkpt>
      <trkpt lat="60.460816366471" lon="22.279133618242">
        <ele>5.8</ele>
        <time>2016-01-23T11:23:23Z</time>
      </trkpt>
      <trkpt lat="60.460816701747" lon="22.279132612414">
        <ele>5.8</ele>
        <time>2016-01-23T11:23:24Z</time>
      </trkpt>
      <trkpt lat="60.460816785566" lon="22.279131103672">
        <ele>5.8</ele>
        <time>2016-01-23T11:23:25Z</time>
      </trkpt>
      <trkpt lat="60.460816617928" lon="22.27912959493">
        <ele>5.8</ele>
        <time>2016-01-23T11:23:26Z</time>
      </trkpt>
      <trkpt lat="60.460816785566" lon="22.27912791855">
        <ele>5.8</ele>
        <time>2016-01-23T11:23:27Z</time>
      </trkpt>
      <trkpt lat="60.460816701747" lon="22.279126493627">
        <ele>5.8</ele>
        <time>2016-01-23T11:23:28Z</time>
      </trkpt>
      <trkpt lat="60.46081645029" lon="22.279125068704">
        <ele>5.8</ele>
        <time>2016-01-23T11:23:29Z</time>
      </trkpt>
      <trkpt lat="60.460816282652" lon="22.279122721772">
        <ele>5.8</ele>
        <time>2016-01-23T11:23:30Z</time>
      </trkpt>
      <trkpt lat="60.460816366471" lon="22.279120710116">
        <ele>5.8</ele>
        <time>2016-01-23T11:23:31Z</time>
      </trkpt>
      <trkpt lat="60.460816366471" lon="22.27911953665">
        <ele>5.8</ele>
        <time>2016-01-23T11:23:32Z</time>
      </trkpt>
      <trkpt lat="60.460816366471" lon="22.279118363184">
        <ele>5.8</ele>
        <time>2016-01-23T11:23:33Z</time>
      </trkpt>
      <trkpt lat="60.4608156121" lon="22.279114591329">
        <ele>5.8</ele>
        <time>2016-01-23T11:23:34Z</time>
      </trkpt>
      <trkpt lat="60.460815360643" lon="22.279111657664">
        <ele>5.8</ele>
        <time>2016-01-23T11:23:35Z</time>
      </trkpt>
      <trkpt lat="60.460814941548" lon="22.279110819474">
        <ele>5.8</ele>
        <time>2016-01-23T11:23:36Z</time>
      </trkpt>
      <trkpt lat="60.460814187177" lon="22.279109646008">
        <ele>5.8</ele>
        <time>2016-01-23T11:23:37Z</time>
      </trkpt>
      <trkpt lat="60.460813684263" lon="22.279108723999">
        <ele>5.8</ele>
        <time>2016-01-23T11:23:38Z</time>
      </trkpt>
      <trkpt lat="60.460812343159" lon="22.279108221085">
        <ele>5.8</ele>
        <time>2016-01-23T11:23:39Z</time>
      </trkpt>
      <trkpt lat="60.460811085874" lon="22.27910780199">
        <ele>5.8</ele>
        <time>2016-01-23T11:23:40Z</time>
      </trkpt>
      <trkpt lat="60.460809996227" lon="22.279109059275">
        <ele>5.8</ele>
        <time>2016-01-23T11:23:41Z</time>
      </trkpt>
      <trkpt lat="60.460808403666" lon="22.279108891637">
        <ele>5.8</ele>
        <time>2016-01-23T11:23:42Z</time>
      </trkpt>
      <trkpt lat="60.460808152209" lon="22.279109310732">
        <ele>5.8</ele>
        <time>2016-01-23T11:23:43Z</time>
      </trkpt>
      <trkpt lat="60.460808571304" lon="22.27911115475">
        <ele>5.8</ele>
        <time>2016-01-23T11:23:44Z</time>
      </trkpt>
      <trkpt lat="60.460809577132" lon="22.279113920777">
        <ele>5.8</ele>
        <time>2016-01-23T11:23:45Z</time>
      </trkpt>
      <trkpt lat="60.460809996227" lon="22.279116686804">
        <ele>5.8</ele>
        <time>2016-01-23T11:23:46Z</time>
      </trkpt>
      <trkpt lat="60.46081058296" lon="22.279119788107">
        <ele>5.8</ele>
        <time>2016-01-23T11:23:47Z</time>
      </trkpt>
      <trkpt lat="60.460811756426" lon="22.279122302677">
        <ele>5.8</ele>
        <time>2016-01-23T11:23:48Z</time>
      </trkpt>
      <trkpt lat="60.46081309753" lon="22.279125320161">
        <ele>5.8</ele>
        <time>2016-01-23T11:23:49Z</time>
      </trkpt>
      <trkpt lat="60.460814019539" lon="22.279128253826">
        <ele>5.8</ele>
        <time>2016-01-23T11:23:50Z</time>
      </trkpt>
      <trkpt lat="60.460814941548" lon="22.279130600758">
        <ele>5.8</ele>
        <time>2016-01-23T11:23:51Z</time>
      </trkpt>
      <trkpt lat="60.460815863557" lon="22.279133115328">
        <ele>5.8</ele>
        <time>2016-01-23T11:23:52Z</time>
      </trkpt>
      <trkpt lat="60.460816701747" lon="22.279135713717">
        <ele>5.8</ele>
        <time>2016-01-23T11:23:53Z</time>
      </trkpt>
      <trkpt lat="60.460817456118" lon="22.279138228287">
        <ele>5.8</ele>
        <time>2016-01-23T11:23:54Z</time>
      </trkpt>
      <trkpt lat="60.460818294308" lon="22.279140910495">
        <ele>5.8</ele>
        <time>2016-01-23T11:23:55Z</time>
      </trkpt>
      <trkpt lat="60.460819383955" lon="22.279144011798">
        <ele>5.8</ele>
        <time>2016-01-23T11:23:56Z</time>
      </trkpt>
      <trkpt lat="60.460820808878" lon="22.279147364558">
        <ele>5.8</ele>
        <time>2016-01-23T11:23:57Z</time>
      </trkpt>
      <trkpt lat="60.460822149982" lon="22.279150465861">
        <ele>5.8</ele>
        <time>2016-01-23T11:23:58Z</time>
      </trkpt>
      <trkpt lat="60.460823574905" lon="22.279153567164">
        <ele>5.8</ele>
        <time>2016-01-23T11:23:59Z</time>
      </trkpt>
      <trkpt lat="60.460824580733" lon="22.27915641701">
        <ele>5.8</ele>
        <time>2016-01-23T11:24:00Z</time>
      </trkpt>
      <trkpt lat="60.460825251285" lon="22.279159853589">
        <ele>5.8</ele>
        <time>2016-01-23T11:24:01Z</time>
      </trkpt>
      <trkpt lat="60.460826089475" lon="22.279162619616">
        <ele>5.8</ele>
        <time>2016-01-23T11:24:02Z</time>
      </trkpt>
      <trkpt lat="60.460827095303" lon="22.279164715091">
        <ele>5.8</ele>
        <time>2016-01-23T11:24:03Z</time>
      </trkpt>
      <trkpt lat="60.460828017312" lon="22.279166056195">
        <ele>5.8</ele>
        <time>2016-01-23T11:24:04Z</time>
      </trkpt>
      <trkpt lat="60.460828855502" lon="22.279167564937">
        <ele>5.8</ele>
        <time>2016-01-23T11:24:05Z</time>
      </trkpt>
      <trkpt lat="60.460829609873" lon="22.279169241317">
        <ele>5.8</ele>
        <time>2016-01-23T11:24:06Z</time>
      </trkpt>
      <trkpt lat="60.460830280425" lon="22.279170750059">
        <ele>5.8</ele>
        <time>2016-01-23T11:24:07Z</time>
      </trkpt>
      <trkpt lat="60.460831370072" lon="22.279172929353">
        <ele>5.8</ele>
        <time>2016-01-23T11:24:08Z</time>
      </trkpt>
      <trkpt lat="60.460831705348" lon="22.279175360104">
        <ele>5.8</ele>
        <time>2016-01-23T11:24:09Z</time>
      </trkpt>
      <trkpt lat="60.460832292081" lon="22.279177120303">
        <ele>5.8</ele>
        <time>2016-01-23T11:24:10Z</time>
      </trkpt>
      <trkpt lat="60.460833046452" lon="22.279178126131">
        <ele>5.8</ele>
        <time>2016-01-23T11:24:11Z</time>
      </trkpt>
      <trkpt lat="60.460833884642" lon="22.279179634873">
        <ele>5.8</ele>
        <time>2016-01-23T11:24:12Z</time>
      </trkpt>
      <trkpt lat="60.460834974289" lon="22.279180389244">
        <ele>5.8</ele>
        <time>2016-01-23T11:24:13Z</time>
      </trkpt>
      <trkpt lat="60.460835896298" lon="22.279183322909">
        <ele>5.8</ele>
        <time>2016-01-23T11:24:14Z</time>
      </trkpt>
      <trkpt lat="60.460835477203" lon="22.279187597678">
        <ele>5.8</ele>
        <time>2016-01-23T11:24:15Z</time>
      </trkpt>
      <trkpt lat="60.460834974289" lon="22.279190698981">
        <ele>5.8</ele>
        <time>2016-01-23T11:24:16Z</time>
      </trkpt>
      <trkpt lat="60.460836147755" lon="22.279191201895">
        <ele>5.8</ele>
        <time>2016-01-23T11:24:17Z</time>
      </trkpt>
      <trkpt lat="60.460837572678" lon="22.279189190239">
        <ele>5.8</ele>
        <time>2016-01-23T11:24:18Z</time>
      </trkpt>
      <trkpt lat="60.460838410868" lon="22.279189860791">
        <ele>5.8</ele>
        <time>2016-01-23T11:24:19Z</time>
      </trkpt>
      <trkpt lat="60.460839165239" lon="22.279193129732">
        <ele>5.8</ele>
        <time>2016-01-23T11:24:20Z</time>
      </trkpt>
      <trkpt lat="60.460839165239" lon="22.279196314854">
        <ele>5.8</ele>
        <time>2016-01-23T11:24:21Z</time>
      </trkpt>
      <trkpt lat="60.460840673981" lon="22.279196901587">
        <ele>5.8</ele>
        <time>2016-01-23T11:24:22Z</time>
      </trkpt>
      <trkpt lat="60.460843188551" lon="22.279193800284">
        <ele>5.8</ele>
        <time>2016-01-23T11:24:23Z</time>
      </trkpt>
      <trkpt lat="60.460844445836" lon="22.279192542999">
        <ele>5.8</ele>
        <time>2016-01-23T11:24:24Z</time>
      </trkpt>
      <trkpt lat="60.460844278198" lon="22.279192542999">
        <ele>5.8</ele>
        <time>2016-01-23T11:24:25Z</time>
      </trkpt>
      <trkpt lat="60.460843775284" lon="22.279190363705">
        <ele>5.8</ele>
        <time>2016-01-23T11:24:26Z</time>
      </trkpt>
      <trkpt lat="60.460844864931" lon="22.27918743004">
        <ele>5.8</ele>
        <time>2016-01-23T11:24:27Z</time>
      </trkpt>
      <trkpt lat="60.460845116388" lon="22.279184999289">
        <ele>5.8</ele>
        <time>2016-01-23T11:24:28Z</time>
      </trkpt>
      <trkpt lat="60.460846708949" lon="22.279185334565">
        <ele>5.8</ele>
        <time>2016-01-23T11:24:29Z</time>
      </trkpt>
      <trkpt lat="60.460847547139" lon="22.27919832651">
        <ele>5.8</ele>
        <time>2016-01-23T11:24:30Z</time>
      </trkpt>
      <trkpt lat="60.460847547139" lon="22.279192542999">
        <ele>5.8</ele>
        <time>2016-01-23T11:24:31Z</time>
      </trkpt>
      <trkpt lat="60.460850983718" lon="22.279202433641">
        <ele>4.6</ele>
        <time>2016-01-23T11:24:32Z</time>
      </trkpt>
      <trkpt lat="60.460853498288" lon="22.279206456953">
        <ele>4.6</ele>
        <time>2016-01-23T11:24:33Z</time>
      </trkpt>
      <trkpt lat="60.46085919798" lon="22.279212240464">
        <ele>4.6</ele>
        <time>2016-01-23T11:24:34Z</time>
      </trkpt>
      <trkpt lat="60.460865316767" lon="22.279224645676">
        <ele>4.6</ele>
        <time>2016-01-23T11:24:35Z</time>
      </trkpt>
      <trkpt lat="60.46087093264" lon="22.279229423359">
        <ele>4.6</ele>
        <time>2016-01-23T11:24:36Z</time>
      </trkpt>
      <trkpt lat="60.460868585708" lon="22.279226992608">
        <ele>4.6</ele>
        <time>2016-01-23T11:24:37Z</time>
      </trkpt>
      <trkpt lat="60.460875794142" lon="22.279241744752">
        <ele>4.6</ele>
        <time>2016-01-23T11:24:38Z</time>
      </trkpt>
      <trkpt lat="60.460880907101" lon="22.279250545747">
        <ele>4.6</ele>
        <time>2016-01-23T11:24:39Z</time>
      </trkpt>
      <trkpt lat="60.460886942069" lon="22.279257502724">
        <ele>4.6</ele>
        <time>2016-01-23T11:24:40Z</time>
      </trkpt>
      <trkpt lat="60.460895072512" lon="22.279268902108">
        <ele>4.6</ele>
        <time>2016-01-23T11:24:41Z</time>
      </trkpt>
      <trkpt lat="60.460908986466" lon="22.279284827718">
        <ele>4.6</ele>
        <time>2016-01-23T11:24:42Z</time>
      </trkpt>
      <trkpt lat="60.460916865452" lon="22.27929807112">
        <ele>4.6</ele>
        <time>2016-01-23T11:24:43Z</time>
      </trkpt>
      <trkpt lat="60.460929103026" lon="22.279317600947">
        <ele>4.6</ele>
        <time>2016-01-23T11:24:44Z</time>
      </trkpt>
      <trkpt lat="60.460942094971" lon="22.279336376403">
        <ele>4.6</ele>
        <time>2016-01-23T11:24:45Z</time>
      </trkpt>
      <trkpt lat="60.460951650337" lon="22.279345512674">
        <ele>4.6</ele>
        <time>2016-01-23T11:24:46Z</time>
      </trkpt>
      <trkpt lat="60.460963468816" lon="22.279357666429">
        <ele>4.6</ele>
        <time>2016-01-23T11:24:47Z</time>
      </trkpt>
      <trkpt lat="60.460970425793" lon="22.279364036673">
        <ele>4.6</ele>
        <time>2016-01-23T11:24:48Z</time>
      </trkpt>
      <trkpt lat="60.460973024182" lon="22.279370574555">
        <ele>4.6</ele>
        <time>2016-01-23T11:24:49Z</time>
      </trkpt>
      <trkpt lat="60.460971347802" lon="22.279366635062">
        <ele>4.6</ele>
        <time>2016-01-23T11:24:50Z</time>
      </trkpt>
      <trkpt lat="60.460975454933" lon="22.279369149632">
        <ele>4.6</ele>
        <time>2016-01-23T11:24:51Z</time>
      </trkpt>
      <trkpt lat="60.460976712218" lon="22.279366551243">
        <ele>4.6</ele>
        <time>2016-01-23T11:24:52Z</time>
      </trkpt>
      <trkpt lat="60.460978556236" lon="22.279363869035">
        <ele>4.6</ele>
        <time>2016-01-23T11:24:53Z</time>
      </trkpt>
      <trkpt lat="60.460979981159" lon="22.279360264818">
        <ele>4.6</ele>
        <time>2016-01-23T11:24:54Z</time>
      </trkpt>
      <trkpt lat="60.460980819349" lon="22.279356660601">
        <ele>4.2</ele>
        <time>2016-01-23T11:24:55Z</time>
      </trkpt>
      <trkpt lat="60.460982076634" lon="22.279354648945">
        <ele>3.8</ele>
        <time>2016-01-23T11:24:56Z</time>
      </trkpt>
      <trkpt lat="60.460982495729" lon="22.279352637289">
        <ele>3.4</ele>
        <time>2016-01-23T11:24:57Z</time>
      </trkpt>
      <trkpt lat="60.460985177937" lon="22.279349368348">
        <ele>3</ele>
        <time>2016-01-23T11:24:58Z</time>
      </trkpt>
      <trkpt lat="60.460988111602" lon="22.279347105235">
        <ele>2.6</ele>
        <time>2016-01-23T11:24:59Z</time>
      </trkpt>
      <trkpt lat="60.460987943964" lon="22.279345596493">
        <ele>2.6</ele>
        <time>2016-01-23T11:25:00Z</time>
      </trkpt>
      <trkpt lat="60.460988782154" lon="22.279342746647">
        <ele>2.2</ele>
        <time>2016-01-23T11:25:01Z</time>
      </trkpt>
      <trkpt lat="60.460990458534" lon="22.279332185453">
        <ele>1.8</ele>
        <time>2016-01-23T11:25:02Z</time>
      </trkpt>
      <trkpt lat="60.460989201249" lon="22.279336041127">
        <ele>1.4</ele>
        <time>2016-01-23T11:25:03Z</time>
      </trkpt>
      <trkpt lat="60.460997750787" lon="22.27933159872">
        <ele>0.8</ele>
        <time>2016-01-23T11:25:04Z</time>
      </trkpt>
      <trkpt lat="60.46100085209" lon="22.279331850177">
        <ele>0.6</ele>
        <time>2016-01-23T11:25:05Z</time>
      </trkpt>
      <trkpt lat="60.461002779927" lon="22.279332688367">
        <ele>0.6</ele>
        <time>2016-01-23T11:25:06Z</time>
      </trkpt>
      <trkpt lat="60.461003869574" lon="22.279333191281">
        <ele>0.6</ele>
        <time>2016-01-23T11:25:07Z</time>
      </trkpt>
      <trkpt lat="60.461004959221" lon="22.279333107462">
        <ele>0.6</ele>
        <time>2016-01-23T11:25:08Z</time>
      </trkpt>
      <trkpt lat="60.461006467963" lon="22.279332353091">
        <ele>0.6</ele>
        <time>2016-01-23T11:25:09Z</time>
      </trkpt>
      <trkpt lat="60.461007892886" lon="22.279331850177">
        <ele>0.6</ele>
        <time>2016-01-23T11:25:10Z</time>
      </trkpt>
      <trkpt lat="60.461009150171" lon="22.279331514901">
        <ele>0.6</ele>
        <time>2016-01-23T11:25:11Z</time>
      </trkpt>
      <trkpt lat="60.461010407456" lon="22.279331095806">
        <ele>0.6</ele>
        <time>2016-01-23T11:25:12Z</time>
      </trkpt>
      <trkpt lat="60.461011161827" lon="22.279331011987">
        <ele>0.6</ele>
        <time>2016-01-23T11:25:13Z</time>
      </trkpt>
      <trkpt lat="60.461013592578" lon="22.279331263444">
        <ele>0.6</ele>
        <time>2016-01-23T11:25:14Z</time>
      </trkpt>
      <trkpt lat="60.461018705537" lon="22.279341321724">
        <ele>0.6</ele>
        <time>2016-01-23T11:25:15Z</time>
      </trkpt>
      <trkpt lat="60.46102264503" lon="22.279342076095">
        <ele>0.6</ele>
        <time>2016-01-23T11:25:16Z</time>
      </trkpt>
      <trkpt lat="60.461028679998" lon="22.279347608149">
        <ele>0</ele>
        <time>2016-01-23T11:25:17Z</time>
      </trkpt>
      <trkpt lat="60.461033625319" lon="22.27935339166">
        <ele>0</ele>
        <time>2016-01-23T11:25:18Z</time>
      </trkpt>
      <trkpt lat="60.461031446025" lon="22.279349787443">
        <ele>0</ele>
        <time>2016-01-23T11:25:19Z</time>
      </trkpt>
      <trkpt lat="60.461035972251" lon="22.27936093537">
        <ele>0</ele>
        <time>2016-01-23T11:25:20Z</time>
      </trkpt>
      <trkpt lat="60.461035972251" lon="22.279362192655">
        <ele>0</ele>
        <time>2016-01-23T11:25:21Z</time>
      </trkpt>
      <trkpt lat="60.461034882604" lon="22.279365042501">
        <ele>0</ele>
        <time>2016-01-23T11:25:22Z</time>
      </trkpt>
      <trkpt lat="60.461033960595" lon="22.2793668027">
        <ele>0</ele>
        <time>2016-01-23T11:25:23Z</time>
      </trkpt>
      <trkpt lat="60.461034714966" lon="22.279355654773">
        <ele>0</ele>
        <time>2016-01-23T11:25:24Z</time>
      </trkpt>
      <trkpt lat="60.46103437969" lon="22.279360432456">
        <ele>0</ele>
        <time>2016-01-23T11:25:25Z</time>
      </trkpt>
      <trkpt lat="60.46103521788" lon="22.279354648945">
        <ele>0</ele>
        <time>2016-01-23T11:25:26Z</time>
      </trkpt>
      <trkpt lat="60.461034714966" lon="22.279355738592">
        <ele>0</ele>
        <time>2016-01-23T11:25:27Z</time>
      </trkpt>
      <trkpt lat="60.461034044414" lon="22.279356660601">
        <ele>0</ele>
        <time>2016-01-23T11:25:28Z</time>
      </trkpt>
      <trkpt lat="60.461032870948" lon="22.279356828239">
        <ele>0</ele>
        <time>2016-01-23T11:25:29Z</time>
      </trkpt>
      <trkpt lat="60.461032284215" lon="22.279353307841">
        <ele>0</ele>
        <time>2016-01-23T11:25:30Z</time>
      </trkpt>
      <trkpt lat="60.461033373862" lon="22.279348111063">
        <ele>0</ele>
        <time>2016-01-23T11:25:31Z</time>
      </trkpt>
      <trkpt lat="60.461028847636" lon="22.279338471878">
        <ele>0</ele>
        <time>2016-01-23T11:25:32Z</time>
      </trkpt>
      <trkpt lat="60.461030943111" lon="22.279342914285">
        <ele>0</ele>
        <time>2016-01-23T11:25:33Z</time>
      </trkpt>
      <trkpt lat="60.461027171256" lon="22.279337968964">
        <ele>0</ele>
        <time>2016-01-23T11:25:34Z</time>
      </trkpt>
      <trkpt lat="60.461026416885" lon="22.279337633688">
        <ele>0</ele>
        <time>2016-01-23T11:25:35Z</time>
      </trkpt>
      <trkpt lat="60.461023650858" lon="22.279339226249">
        <ele>0</ele>
        <time>2016-01-23T11:25:36Z</time>
      </trkpt>
      <trkpt lat="60.461020298098" lon="22.279339393887">
        <ele>0</ele>
        <time>2016-01-23T11:25:37Z</time>
      </trkpt>
      <trkpt lat="60.461016861519" lon="22.279340986448">
        <ele>0</ele>
        <time>2016-01-23T11:25:38Z</time>
      </trkpt>
      <trkpt lat="60.461013760216" lon="22.279342411371">
        <ele>0.6</ele>
        <time>2016-01-23T11:25:39Z</time>
      </trkpt>
      <trkpt lat="60.461011245646" lon="22.279341740819">
        <ele>1</ele>
        <time>2016-01-23T11:25:40Z</time>
      </trkpt>
      <trkpt lat="60.461009485447" lon="22.279341321724">
        <ele>1.4</ele>
        <time>2016-01-23T11:25:41Z</time>
      </trkpt>
      <trkpt lat="60.46100755761" lon="22.279341154086">
        <ele>1.4</ele>
        <time>2016-01-23T11:25:42Z</time>
      </trkpt>
      <trkpt lat="60.461005713592" lon="22.279343417199">
        <ele>1.4</ele>
        <time>2016-01-23T11:25:43Z</time>
      </trkpt>
      <trkpt lat="60.461004121031" lon="22.279345596493">
        <ele>1.4</ele>
        <time>2016-01-23T11:25:44Z</time>
      </trkpt>
      <trkpt lat="60.461003115203" lon="22.279346937597">
        <ele>1.4</ele>
        <time>2016-01-23T11:25:45Z</time>
      </trkpt>
      <trkpt lat="60.46100169028" lon="22.279348194882">
        <ele>1.4</ele>
        <time>2016-01-23T11:25:46Z</time>
      </trkpt>
      <trkpt lat="60.461000181538" lon="22.279349033072">
        <ele>1.4</ele>
        <time>2016-01-23T11:25:47Z</time>
      </trkpt>
      <trkpt lat="60.460999091891" lon="22.279350122719">
        <ele>1.4</ele>
        <time>2016-01-23T11:25:48Z</time>
      </trkpt>
      <trkpt lat="60.460998505158" lon="22.279351296185">
        <ele>1.4</ele>
        <time>2016-01-23T11:25:49Z</time>
      </trkpt>
      <trkpt lat="60.460997918425" lon="22.279351799099">
        <ele>1.4</ele>
        <time>2016-01-23T11:25:50Z</time>
      </trkpt>
      <trkpt lat="60.460996996416" lon="22.279353056384">
        <ele>1.8</ele>
        <time>2016-01-23T11:25:51Z</time>
      </trkpt>
      <trkpt lat="60.460996493502" lon="22.279354146031">
        <ele>2.2</ele>
        <time>2016-01-23T11:25:52Z</time>
      </trkpt>
      <trkpt lat="60.460995487674" lon="22.279355235678">
        <ele>2.4</ele>
        <time>2016-01-23T11:25:53Z</time>
      </trkpt>
      <trkpt lat="60.460994565665" lon="22.279357331153">
        <ele>2.6</ele>
        <time>2016-01-23T11:25:54Z</time>
      </trkpt>
      <trkpt lat="60.460994314208" lon="22.279359426628">
        <ele>3</ele>
        <time>2016-01-23T11:25:55Z</time>
      </trkpt>
      <trkpt lat="60.460993392199" lon="22.279360348637">
        <ele>3.4</ele>
        <time>2016-01-23T11:25:56Z</time>
      </trkpt>
      <trkpt lat="60.460992554009" lon="22.279361605922">
        <ele>3.4</ele>
        <time>2016-01-23T11:25:57Z</time>
      </trkpt>
      <trkpt lat="60.460991464362" lon="22.279363701397">
        <ele>3.4</ele>
        <time>2016-01-23T11:25:58Z</time>
      </trkpt>
      <trkpt lat="60.460990290896" lon="22.279365042501">
        <ele>3.4</ele>
        <time>2016-01-23T11:25:59Z</time>
      </trkpt>
      <trkpt lat="60.460989285068" lon="22.279366467424">
        <ele>3.4</ele>
        <time>2016-01-23T11:26:00Z</time>
      </trkpt>
      <trkpt lat="60.460987860145" lon="22.279366551243">
        <ele>3.4</ele>
        <time>2016-01-23T11:26:01Z</time>
      </trkpt>
      <trkpt lat="60.460985597032" lon="22.279366551243">
        <ele>3.4</ele>
        <time>2016-01-23T11:26:02Z</time>
      </trkpt>
      <trkpt lat="60.460977801865" lon="22.279365796872">
        <ele>3.4</ele>
        <time>2016-01-23T11:26:03Z</time>
      </trkpt>
      <trkpt lat="60.460971180164" lon="22.279359091352">
        <ele>3.4</ele>
        <time>2016-01-23T11:26:04Z</time>
      </trkpt>
      <trkpt lat="60.46096061897" lon="22.279353978393">
        <ele>3.8</ele>
        <time>2016-01-23T11:26:05Z</time>
      </trkpt>
      <trkpt lat="60.460948716672" lon="22.279344087751">
        <ele>4.2</ele>
        <time>2016-01-23T11:26:06Z</time>
      </trkpt>
      <trkpt lat="60.460939496582" lon="22.279336124946">
        <ele>4.6</ele>
        <time>2016-01-23T11:26:07Z</time>
      </trkpt>
      <trkpt lat="60.460931366139" lon="22.27932992234">
        <ele>5</ele>
        <time>2016-01-23T11:26:08Z</time>
      </trkpt>
      <trkpt lat="60.460924492981" lon="22.2793248932">
        <ele>5.4</ele>
        <time>2016-01-23T11:26:09Z</time>
      </trkpt>
      <trkpt lat="60.460926839913" lon="22.279327323951">
        <ele>5.4</ele>
        <time>2016-01-23T11:26:10Z</time>
      </trkpt>
      <trkpt lat="60.46091787128" lon="22.279321288983">
        <ele>5.4</ele>
        <time>2016-01-23T11:26:11Z</time>
      </trkpt>
      <trkpt lat="60.460915775805" lon="22.279321959535">
        <ele>5.4</ele>
        <time>2016-01-23T11:26:12Z</time>
      </trkpt>
      <trkpt lat="60.460915440529" lon="22.279321205164">
        <ele>5.4</ele>
        <time>2016-01-23T11:26:13Z</time>
      </trkpt>
      <trkpt lat="60.460916111081" lon="22.279319947879">
        <ele>5.4</ele>
        <time>2016-01-23T11:26:14Z</time>
      </trkpt>
      <trkpt lat="60.460915775805" lon="22.279318355318">
        <ele>5.4</ele>
        <time>2016-01-23T11:26:15Z</time>
      </trkpt>
      <trkpt lat="60.460915272891" lon="22.279315840748">
        <ele>5.4</ele>
        <time>2016-01-23T11:26:16Z</time>
      </trkpt>
      <trkpt lat="60.460914350882" lon="22.279314164368">
        <ele>5.4</ele>
        <time>2016-01-23T11:26:17Z</time>
      </trkpt>
      <trkpt lat="60.460912339226" lon="22.27931232035">
        <ele>5.4</ele>
        <time>2016-01-23T11:26:18Z</time>
      </trkpt>
      <trkpt lat="60.460909992294" lon="22.279308716133">
        <ele>5.4</ele>
        <time>2016-01-23T11:26:19Z</time>
      </trkpt>
      <trkpt lat="60.460908399733" lon="22.279305363373">
        <ele>5.4</ele>
        <time>2016-01-23T11:26:20Z</time>
      </trkpt>
      <trkpt lat="60.460905968982" lon="22.279301926794">
        <ele>5.4</ele>
        <time>2016-01-23T11:26:21Z</time>
      </trkpt>
      <trkpt lat="60.460903957326" lon="22.279299496043">
        <ele>5.4</ele>
        <time>2016-01-23T11:26:22Z</time>
      </trkpt>
      <trkpt lat="60.46090194567" lon="22.27929723293">
        <ele>5.4</ele>
        <time>2016-01-23T11:26:23Z</time>
      </trkpt>
      <trkpt lat="60.460900101652" lon="22.279294969817">
        <ele>5.4</ele>
        <time>2016-01-23T11:26:24Z</time>
      </trkpt>
      <trkpt lat="60.460898089996" lon="22.27929220379">
        <ele>5.4</ele>
        <time>2016-01-23T11:26:25Z</time>
      </trkpt>
      <trkpt lat="60.460896162159" lon="22.279290024496">
        <ele>5.4</ele>
        <time>2016-01-23T11:26:26Z</time>
      </trkpt>
      <trkpt lat="60.460895156331" lon="22.27928885103">
        <ele>5.4</ele>
        <time>2016-01-23T11:26:27Z</time>
      </trkpt>
      <trkpt lat="60.460894318141" lon="22.279287426107">
        <ele>5.4</ele>
        <time>2016-01-23T11:26:28Z</time>
      </trkpt>
      <trkpt lat="60.460892055028" lon="22.279286839374">
        <ele>5.4</ele>
        <time>2016-01-23T11:26:29Z</time>
      </trkpt>
      <trkpt lat="60.460887947897" lon="22.279286504098">
        <ele>5.4</ele>
        <time>2016-01-23T11:26:30Z</time>
      </trkpt>
      <trkpt lat="60.460884846594" lon="22.279285665908">
        <ele>5.4</ele>
        <time>2016-01-23T11:26:31Z</time>
      </trkpt>
      <trkpt lat="60.460882248205" lon="22.279284324804">
        <ele>5.4</ele>
        <time>2016-01-23T11:26:32Z</time>
      </trkpt>
      <trkpt lat="60.460879482178" lon="22.279284157166">
        <ele>5.4</ele>
        <time>2016-01-23T11:26:33Z</time>
      </trkpt>
      <trkpt lat="60.460876967608" lon="22.279286839374">
        <ele>5.4</ele>
        <time>2016-01-23T11:26:34Z</time>
      </trkpt>
      <trkpt lat="60.460873866305" lon="22.279288515754">
        <ele>5.4</ele>
        <time>2016-01-23T11:26:35Z</time>
      </trkpt>
      <trkpt lat="60.460870513545" lon="22.279287845202">
        <ele>5.4</ele>
        <time>2016-01-23T11:26:36Z</time>
      </trkpt>
      <trkpt lat="60.460867076966" lon="22.279287426107">
        <ele>5.4</ele>
        <time>2016-01-23T11:26:37Z</time>
      </trkpt>
      <trkpt lat="60.460862299283" lon="22.279287090831">
        <ele>5.4</ele>
        <time>2016-01-23T11:26:38Z</time>
      </trkpt>
      <trkpt lat="60.460857270143" lon="22.279284995356">
        <ele>5.4</ele>
        <time>2016-01-23T11:26:39Z</time>
      </trkpt>
      <trkpt lat="60.460853079193" lon="22.279282313148">
        <ele>5.4</ele>
        <time>2016-01-23T11:26:40Z</time>
      </trkpt>
      <trkpt lat="60.460844697293" lon="22.279276864913">
        <ele>5.4</ele>
        <time>2016-01-23T11:26:41Z</time>
      </trkpt>
      <trkpt lat="60.460836483031" lon="22.279271751954">
        <ele>5.4</ele>
        <time>2016-01-23T11:26:42Z</time>
      </trkpt>
      <trkpt lat="60.460839249058" lon="22.279274266524">
        <ele>5.4</ele>
        <time>2016-01-23T11:26:43Z</time>
      </trkpt>
      <trkpt lat="60.460830950977" lon="22.279267309547">
        <ele>5.4</ele>
        <time>2016-01-23T11:26:44Z</time>
      </trkpt>
      <trkpt lat="60.460828352588" lon="22.279266387538">
        <ele>5.4</ele>
        <time>2016-01-23T11:26:45Z</time>
      </trkpt>
      <trkpt lat="60.460827179122" lon="22.279266890452">
        <ele>5.6</ele>
        <time>2016-01-23T11:26:46Z</time>
      </trkpt>
      <trkpt lat="60.460825502742" lon="22.279266806633">
        <ele>7</ele>
        <time>2016-01-23T11:26:47Z</time>
      </trkpt>
      <trkpt lat="60.460822149982" lon="22.279268399194">
        <ele>8.2</ele>
        <time>2016-01-23T11:26:48Z</time>
      </trkpt>
      <trkpt lat="60.460817204661" lon="22.279269069746">
        <ele>9</ele>
        <time>2016-01-23T11:26:49Z</time>
      </trkpt>
      <trkpt lat="60.460807314019" lon="22.279265884624">
        <ele>13.4</ele>
        <time>2016-01-23T11:26:50Z</time>
      </trkpt>
      <trkpt lat="60.460799183576" lon="22.279257502724">
        <ele>13.4</ele>
        <time>2016-01-23T11:26:51Z</time>
      </trkpt>
      <trkpt lat="60.460791639866" lon="22.279252557403">
        <ele>13.4</ele>
        <time>2016-01-23T11:26:52Z</time>
      </trkpt>
      <trkpt lat="60.460785688717" lon="22.279244846055">
        <ele>13.4</ele>
        <time>2016-01-23T11:26:53Z</time>
      </trkpt>
      <trkpt lat="60.46077537898" lon="22.279236547974">
        <ele>13.4</ele>
        <time>2016-01-23T11:26:54Z</time>
      </trkpt>
      <trkpt lat="60.460769008736" lon="22.279228166074">
        <ele>13.4</ele>
        <time>2016-01-23T11:26:55Z</time>
      </trkpt>
      <trkpt lat="60.460765404519" lon="22.279222382563">
        <ele>13.4</ele>
        <time>2016-01-23T11:26:56Z</time>
      </trkpt>
      <trkpt lat="60.460766577985" lon="22.279225316228">
        <ele>13.4</ele>
        <time>2016-01-23T11:26:57Z</time>
      </trkpt>
      <trkpt lat="60.460763560501" lon="22.279222214925">
        <ele>13</ele>
        <time>2016-01-23T11:26:58Z</time>
      </trkpt>
      <trkpt lat="60.460762722311" lon="22.27922095764">
        <ele>12.4</ele>
        <time>2016-01-23T11:26:59Z</time>
      </trkpt>
      <trkpt lat="60.460761716483" lon="22.279221460554">
        <ele>12</ele>
        <time>2016-01-23T11:27:00Z</time>
      </trkpt>
      <trkpt lat="60.460760794474" lon="22.27922263402">
        <ele>11.6</ele>
        <time>2016-01-23T11:27:01Z</time>
      </trkpt>
      <trkpt lat="60.46075945337" lon="22.279224058943">
        <ele>11.2</ele>
        <time>2016-01-23T11:27:02Z</time>
      </trkpt>
      <trkpt lat="60.460756854981" lon="22.279221963468">
        <ele>11.2</ele>
        <time>2016-01-23T11:27:03Z</time>
      </trkpt>
      <trkpt lat="60.460754508049" lon="22.279214922672">
        <ele>11.2</ele>
        <time>2016-01-23T11:27:04Z</time>
      </trkpt>
      <trkpt lat="60.46075190966" lon="22.279212659559">
        <ele>11.2</ele>
        <time>2016-01-23T11:27:05Z</time>
      </trkpt>
      <trkpt lat="60.4607485569" lon="22.279210815541">
        <ele>11.2</ele>
        <time>2016-01-23T11:27:06Z</time>
      </trkpt>
      <trkpt lat="60.460745539416" lon="22.279204529116">
        <ele>11.2</ele>
        <time>2016-01-23T11:27:07Z</time>
      </trkpt>
      <trkpt lat="60.460743276303" lon="22.279199416157">
        <ele>11.2</ele>
        <time>2016-01-23T11:27:08Z</time>
      </trkpt>
      <trkpt lat="60.460740761733" lon="22.2791991647">
        <ele>11.2</ele>
        <time>2016-01-23T11:27:09Z</time>
      </trkpt>
      <trkpt lat="60.460738247163" lon="22.279197991234">
        <ele>11.2</ele>
        <time>2016-01-23T11:27:10Z</time>
      </trkpt>
      <trkpt lat="60.460735900231" lon="22.279193632646">
        <ele>11.2</ele>
        <time>2016-01-23T11:27:11Z</time>
      </trkpt>
      <trkpt lat="60.460734810584" lon="22.279189441696">
        <ele>11.2</ele>
        <time>2016-01-23T11:27:12Z</time>
      </trkpt>
      <trkpt lat="60.46073514586" lon="22.279187597678">
        <ele>11.2</ele>
        <time>2016-01-23T11:27:13Z</time>
      </trkpt>
      <trkpt lat="60.460736319326" lon="22.279187765316">
        <ele>11.2</ele>
        <time>2016-01-23T11:27:14Z</time>
      </trkpt>
      <trkpt lat="60.460735062041" lon="22.279186424212">
        <ele>11.2</ele>
        <time>2016-01-23T11:27:15Z</time>
      </trkpt>
      <trkpt lat="60.460732379833" lon="22.279182903814">
        <ele>11.2</ele>
        <time>2016-01-23T11:27:16Z</time>
      </trkpt>
      <trkpt lat="60.460730619634" lon="22.279177958493">
        <ele>11.2</ele>
        <time>2016-01-23T11:27:17Z</time>
      </trkpt>
      <trkpt lat="60.460730368177" lon="22.279173935181">
        <ele>11.2</ele>
        <time>2016-01-23T11:27:18Z</time>
      </trkpt>
      <trkpt lat="60.460730619634" lon="22.279173096991">
        <ele>11.2</ele>
        <time>2016-01-23T11:27:19Z</time>
      </trkpt>
      <trkpt lat="60.460732547471" lon="22.279171336792">
        <ele>11.2</ele>
        <time>2016-01-23T11:27:20Z</time>
      </trkpt>
      <trkpt lat="60.46073430767" lon="22.279171336792">
        <ele>11.2</ele>
        <time>2016-01-23T11:27:21Z</time>
      </trkpt>
      <trkpt lat="60.460734140032" lon="22.279172426439">
        <ele>11.2</ele>
        <time>2016-01-23T11:27:22Z</time>
      </trkpt>
      <trkpt lat="60.460732296014" lon="22.279172761715">
        <ele>11.2</ele>
        <time>2016-01-23T11:27:23Z</time>
      </trkpt>
      <trkpt lat="60.460731374005" lon="22.279170833878">
        <ele>11.2</ele>
        <time>2016-01-23T11:27:24Z</time>
      </trkpt>
      <trkpt lat="60.460730703453" lon="22.279169325136">
        <ele>11.2</ele>
        <time>2016-01-23T11:27:25Z</time>
      </trkpt>
      <trkpt lat="60.460730368177" lon="22.279178042312">
        <ele>11.2</ele>
        <time>2016-01-23T11:27:26Z</time>
      </trkpt>
      <trkpt lat="60.460730787272" lon="22.279174354276">
        <ele>11.2</ele>
        <time>2016-01-23T11:27:27Z</time>
      </trkpt>
      <trkpt lat="60.460731960738" lon="22.279177707036">
        <ele>11.2</ele>
        <time>2016-01-23T11:27:28Z</time>
      </trkpt>
      <trkpt lat="60.460734894403" lon="22.279178712864">
        <ele>11.2</ele>
        <time>2016-01-23T11:27:29Z</time>
      </trkpt>
      <trkpt lat="60.460734642946" lon="22.279176952665">
        <ele>11.2</ele>
        <time>2016-01-23T11:27:30Z</time>
      </trkpt>
      <trkpt lat="60.460731709281" lon="22.279171839706">
        <ele>11.2</ele>
        <time>2016-01-23T11:27:31Z</time>
      </trkpt>
      <trkpt lat="60.460730619634" lon="22.279168403127">
        <ele>12.6</ele>
        <time>2016-01-23T11:27:32Z</time>
      </trkpt>
      <trkpt lat="60.460729697625" lon="22.279166223833">
        <ele>12.6</ele>
        <time>2016-01-23T11:27:33Z</time>
      </trkpt>
      <trkpt lat="60.460728859435" lon="22.279164212177">
        <ele>12.6</ele>
        <time>2016-01-23T11:27:34Z</time>
      </trkpt>
      <trkpt lat="60.460728775616" lon="22.279162703435">
        <ele>12.6</ele>
        <time>2016-01-23T11:27:35Z</time>
      </trkpt>
      <trkpt lat="60.460725255218" lon="22.279162116702">
        <ele>12.6</ele>
        <time>2016-01-23T11:27:36Z</time>
      </trkpt>
      <trkpt lat="60.460721483363" lon="22.27915976977">
        <ele>12.6</ele>
        <time>2016-01-23T11:27:37Z</time>
      </trkpt>
      <trkpt lat="60.460712430911" lon="22.279153567164">
        <ele>12.6</ele>
        <time>2016-01-23T11:27:38Z</time>
      </trkpt>
      <trkpt lat="60.460706479762" lon="22.279144430893">
        <ele>12.6</ele>
        <time>2016-01-23T11:27:39Z</time>
      </trkpt>
      <trkpt lat="60.460699858061" lon="22.279138144468">
        <ele>12.6</ele>
        <time>2016-01-23T11:27:40Z</time>
      </trkpt>
      <trkpt lat="60.460689632143" lon="22.27912540398">
        <ele>12.6</ele>
        <time>2016-01-23T11:27:41Z</time>
      </trkpt>
      <trkpt lat="60.460680831148" lon="22.279117105899">
        <ele>12.6</ele>
        <time>2016-01-23T11:27:42Z</time>
      </trkpt>
      <trkpt lat="60.460668425936" lon="22.279102689031">
        <ele>12.6</ele>
        <time>2016-01-23T11:27:43Z</time>
      </trkpt>
      <trkpt lat="60.460659876398" lon="22.279096737882">
        <ele>12.6</ele>
        <time>2016-01-23T11:27:44Z</time>
      </trkpt>
      <trkpt lat="60.460643028779" lon="22.279077208055">
        <ele>12.6</ele>
        <time>2016-01-23T11:27:45Z</time>
      </trkpt>
      <trkpt lat="60.460633976327" lon="22.279068826155">
        <ele>12.6</ele>
        <time>2016-01-23T11:27:46Z</time>
      </trkpt>
      <trkpt lat="60.460616290518" lon="22.279044686283">
        <ele>12.6</ele>
        <time>2016-01-23T11:27:47Z</time>
      </trkpt>
      <trkpt lat="60.460608830627" lon="22.279035130917">
        <ele>12.6</ele>
        <time>2016-01-23T11:27:48Z</time>
      </trkpt>
      <trkpt lat="60.460588378791" lon="22.279005794267">
        <ele>12.6</ele>
        <time>2016-01-23T11:27:49Z</time>
      </trkpt>
      <trkpt lat="60.460573123733" lon="22.278996909453">
        <ele>12.6</ele>
        <time>2016-01-23T11:27:50Z</time>
      </trkpt>
      <trkpt lat="60.460557784856" lon="22.27897704435">
        <ele>12.2</ele>
        <time>2016-01-23T11:27:51Z</time>
      </trkpt>
      <trkpt lat="60.460542278341" lon="22.278958436532">
        <ele>11.8</ele>
        <time>2016-01-23T11:27:52Z</time>
      </trkpt>
      <trkpt lat="60.46052978931" lon="22.278944103483">
        <ele>11.4</ele>
        <time>2016-01-23T11:27:53Z</time>
      </trkpt>
      <trkpt lat="60.460513444605" lon="22.27892340019">
        <ele>11</ele>
        <time>2016-01-23T11:27:54Z</time>
      </trkpt>
      <trkpt lat="60.460505817076" lon="22.27891669467">
        <ele>10.6</ele>
        <time>2016-01-23T11:27:55Z</time>
      </trkpt>
      <trkpt lat="60.460499027737" lon="22.278905211467">
        <ele>10.6</ele>
        <time>2016-01-23T11:27:56Z</time>
      </trkpt>
      <trkpt lat="60.460492573674" lon="22.278899008861">
        <ele>10.6</ele>
        <time>2016-01-23T11:27:57Z</time>
      </trkpt>
      <trkpt lat="60.460495088244" lon="22.278901691069">
        <ele>10.6</ele>
        <time>2016-01-23T11:27:58Z</time>
      </trkpt>
      <trkpt lat="60.460487712172" lon="22.278891632789">
        <ele>10.6</ele>
        <time>2016-01-23T11:27:59Z</time>
      </trkpt>
      <trkpt lat="60.46048117429" lon="22.278884340536">
        <ele>10.6</ele>
        <time>2016-01-23T11:28:00Z</time>
      </trkpt>
      <trkpt lat="60.46047530696" lon="22.278875455722">
        <ele>10.6</ele>
        <time>2016-01-23T11:28:01Z</time>
      </trkpt>
      <trkpt lat="60.460468266164" lon="22.278869085478">
        <ele>10.6</ele>
        <time>2016-01-23T11:28:02Z</time>
      </trkpt>
      <trkpt lat="60.460461309187" lon="22.278857937551">
        <ele>10.6</ele>
        <time>2016-01-23T11:28:03Z</time>
      </trkpt>
      <trkpt lat="60.460454016934" lon="22.278851064393">
        <ele>10.6</ele>
        <time>2016-01-23T11:28:04Z</time>
      </trkpt>
      <trkpt lat="60.460445467396" lon="22.278836982801">
        <ele>10.6</ele>
        <time>2016-01-23T11:28:05Z</time>
      </trkpt>
      <trkpt lat="60.460440689713" lon="22.278831534566">
        <ele>10.6</ele>
        <time>2016-01-23T11:28:06Z</time>
      </trkpt>
      <trkpt lat="60.460436079668" lon="22.278824996684">
        <ele>10.6</ele>
        <time>2016-01-23T11:28:07Z</time>
      </trkpt>
      <trkpt lat="60.460428955053" lon="22.278812088558">
        <ele>10</ele>
        <time>2016-01-23T11:28:08Z</time>
      </trkpt>
      <trkpt lat="60.460423422999" lon="22.278808484341">
        <ele>9.6</ele>
        <time>2016-01-23T11:28:09Z</time>
      </trkpt>
      <trkpt lat="60.460415963108" lon="22.278798090785">
        <ele>9.2</ele>
        <time>2016-01-23T11:28:10Z</time>
      </trkpt>
      <trkpt lat="60.460411269244" lon="22.278792139636">
        <ele>8.8</ele>
        <time>2016-01-23T11:28:11Z</time>
      </trkpt>
      <trkpt lat="60.460413113262" lon="22.278794654206">
        <ele>8.4</ele>
        <time>2016-01-23T11:28:12Z</time>
      </trkpt>
      <trkpt lat="60.46040406081" lon="22.278790798532">
        <ele>8.4</ele>
        <time>2016-01-23T11:28:13Z</time>
      </trkpt>
      <trkpt lat="60.460401043326" lon="22.2787884516">
        <ele>8.4</ele>
        <time>2016-01-23T11:28:14Z</time>
      </trkpt>
      <trkpt lat="60.460394421625" lon="22.278781913718">
        <ele>8.4</ele>
        <time>2016-01-23T11:28:15Z</time>
      </trkpt>
      <trkpt lat="60.460390901227" lon="22.278773280361">
        <ele>8.4</ele>
        <time>2016-01-23T11:28:16Z</time>
      </trkpt>
      <trkpt lat="60.460392074693" lon="22.278777052216">
        <ele>8.4</ele>
        <time>2016-01-23T11:28:17Z</time>
      </trkpt>
      <trkpt lat="60.460386207363" lon="22.278766993936">
        <ele>8.4</ele>
        <time>2016-01-23T11:28:18Z</time>
      </trkpt>
      <trkpt lat="60.460383357517" lon="22.278763724995">
        <ele>8.4</ele>
        <time>2016-01-23T11:28:19Z</time>
      </trkpt>
      <trkpt lat="60.460381681137" lon="22.278760623692">
        <ele>8.4</ele>
        <time>2016-01-23T11:28:20Z</time>
      </trkpt>
      <trkpt lat="60.460380675309" lon="22.278756097466">
        <ele>8.4</ele>
        <time>2016-01-23T11:28:21Z</time>
      </trkpt>
      <trkpt lat="60.46037891511" lon="22.27875324762">
        <ele>8.4</ele>
        <time>2016-01-23T11:28:22Z</time>
      </trkpt>
      <trkpt lat="60.460376149083" lon="22.278751319783">
        <ele>8.4</ele>
        <time>2016-01-23T11:28:23Z</time>
      </trkpt>
      <trkpt lat="60.460375646169" lon="22.278749308127">
        <ele>7.8</ele>
        <time>2016-01-23T11:28:24Z</time>
      </trkpt>
      <trkpt lat="60.460376987273" lon="22.278746793557">
        <ele>7.4</ele>
        <time>2016-01-23T11:28:25Z</time>
      </trkpt>
      <trkpt lat="60.460378579834" lon="22.278744698082">
        <ele>7</ele>
        <time>2016-01-23T11:28:26Z</time>
      </trkpt>
      <trkpt lat="60.460379585662" lon="22.278742854064">
        <ele>6.6</ele>
        <time>2016-01-23T11:28:27Z</time>
      </trkpt>
      <trkpt lat="60.460380507671" lon="22.278740339494">
        <ele>6.2</ele>
        <time>2016-01-23T11:28:28Z</time>
      </trkpt>
      <trkpt lat="60.460381010585" lon="22.2787381602">
        <ele>6</ele>
        <time>2016-01-23T11:28:29Z</time>
      </trkpt>
      <trkpt lat="60.460379585662" lon="22.278736316182">
        <ele>6</ele>
        <time>2016-01-23T11:28:30Z</time>
      </trkpt>
      <trkpt lat="60.460377574006" lon="22.278735561811">
        <ele>6</ele>
        <time>2016-01-23T11:28:31Z</time>
      </trkpt>
      <trkpt lat="60.460372377228" lon="22.278730365033">
        <ele>6</ele>
        <time>2016-01-23T11:28:32Z</time>
      </trkpt>
      <trkpt lat="60.460367683364" lon="22.278725000617">
        <ele>6</ele>
        <time>2016-01-23T11:28:33Z</time>
      </trkpt>
      <trkpt lat="60.460369862658" lon="22.278727934282">
        <ele>6</ele>
        <time>2016-01-23T11:28:34Z</time>
      </trkpt>
      <trkpt lat="60.460353517953" lon="22.278707650084">
        <ele>6</ele>
        <time>2016-01-23T11:28:35Z</time>
      </trkpt>
      <trkpt lat="60.460349494641" lon="22.278703291496">
        <ele>6</ele>
        <time>2016-01-23T11:28:36Z</time>
      </trkpt>
      <trkpt lat="60.460334155764" lon="22.27868283966">
        <ele>6</ele>
        <time>2016-01-23T11:28:37Z</time>
      </trkpt>
      <trkpt lat="60.46032527095" lon="22.278676637054">
        <ele>6</ele>
        <time>2016-01-23T11:28:38Z</time>
      </trkpt>
      <trkpt lat="60.460305405847" lon="22.278651239897">
        <ele>6</ele>
        <time>2016-01-23T11:28:39Z</time>
      </trkpt>
      <trkpt lat="60.460287887676" lon="22.278634979011">
        <ele>6</ele>
        <time>2016-01-23T11:28:40Z</time>
      </trkpt>
      <trkpt lat="60.460276823568" lon="22.278630704242">
        <ele>6</ele>
        <time>2016-01-23T11:28:41Z</time>
      </trkpt>
      <trkpt lat="60.460257461379" lon="22.27860907894">
        <ele>6</ele>
        <time>2016-01-23T11:28:42Z</time>
      </trkpt>
      <trkpt lat="60.460243212149" lon="22.278598769203">
        <ele>6</ele>
        <time>2016-01-23T11:28:43Z</time>
      </trkpt>
      <trkpt lat="60.460225777797" lon="22.278585022887">
        <ele>6</ele>
        <time>2016-01-23T11:28:44Z</time>
      </trkpt>
      <trkpt lat="60.460205493599" lon="22.278566834164">
        <ele>6</ele>
        <time>2016-01-23T11:28:45Z</time>
      </trkpt>
      <trkpt lat="60.460192082559" lon="22.278561050653">
        <ele>6</ele>
        <time>2016-01-23T11:28:46Z</time>
      </trkpt>
      <trkpt lat="60.460168780877" lon="22.27853783279">
        <ele>6</ele>
        <time>2016-01-23T11:28:47Z</time>
      </trkpt>
      <trkpt lat="60.46015595657" lon="22.278527606872">
        <ele>6</ele>
        <time>2016-01-23T11:28:48Z</time>
      </trkpt>
      <trkpt lat="60.46014338372" lon="22.278512938547">
        <ele>6</ele>
        <time>2016-01-23T11:28:49Z</time>
      </trkpt>
      <trkpt lat="60.460133576897" lon="22.278502377353">
        <ele>6</ele>
        <time>2016-01-23T11:28:50Z</time>
      </trkpt>
      <trkpt lat="60.460126703739" lon="22.278493660177">
        <ele>6</ele>
        <time>2016-01-23T11:28:51Z</time>
      </trkpt>
      <trkpt lat="60.460120920228" lon="22.278487038476">
        <ele>6</ele>
        <time>2016-01-23T11:28:52Z</time>
      </trkpt>
      <trkpt lat="60.46012326716" lon="22.27849005596">
        <ele>6</ele>
        <time>2016-01-23T11:28:53Z</time>
      </trkpt>
      <trkpt lat="60.46011320888" lon="22.278478908033">
        <ele>6</ele>
        <time>2016-01-23T11:28:54Z</time>
      </trkpt>
      <trkpt lat="60.460115220536" lon="22.278481925517">
        <ele>6</ele>
        <time>2016-01-23T11:28:55Z</time>
      </trkpt>
      <trkpt lat="60.46010566517" lon="22.278471783418">
        <ele>6</ele>
        <time>2016-01-23T11:28:56Z</time>
      </trkpt>
      <trkpt lat="60.460101055125" lon="22.278462563328">
        <ele>6</ele>
        <time>2016-01-23T11:28:57Z</time>
      </trkpt>
      <trkpt lat="60.46009728327" lon="22.278453594695">
        <ele>6</ele>
        <time>2016-01-23T11:28:58Z</time>
      </trkpt>
      <trkpt lat="60.460099294926" lon="22.278457198912">
        <ele>6</ele>
        <time>2016-01-23T11:28:59Z</time>
      </trkpt>
      <trkpt lat="60.460094517243" lon="22.278447895003">
        <ele>6</ele>
        <time>2016-01-23T11:29:00Z</time>
      </trkpt>
      <trkpt lat="60.460090326293" lon="22.27844311732">
        <ele>6</ele>
        <time>2016-01-23T11:29:01Z</time>
      </trkpt>
      <trkpt lat="60.460087141171" lon="22.27843976456">
        <ele>6</ele>
        <time>2016-01-23T11:29:02Z</time>
      </trkpt>
      <trkpt lat="60.460089069008" lon="22.278441357121">
        <ele>6</ele>
        <time>2016-01-23T11:29:03Z</time>
      </trkpt>
      <trkpt lat="60.46007716671" lon="22.278420067095">
        <ele>6</ele>
        <time>2016-01-23T11:29:04Z</time>
      </trkpt>
      <trkpt lat="60.460081106203" lon="22.278426604977">
        <ele>6</ele>
        <time>2016-01-23T11:29:05Z</time>
      </trkpt>
      <trkpt lat="60.460069455362" lon="22.278408835349">
        <ele>6</ele>
        <time>2016-01-23T11:29:06Z</time>
      </trkpt>
      <trkpt lat="60.460064510041" lon="22.278399028526">
        <ele>6</ele>
        <time>2016-01-23T11:29:07Z</time>
      </trkpt>
      <trkpt lat="60.460060570548" lon="22.278394083205">
        <ele>6</ele>
        <time>2016-01-23T11:29:08Z</time>
      </trkpt>
      <trkpt lat="60.460052272467" lon="22.278384192563">
        <ele>6</ele>
        <time>2016-01-23T11:29:09Z</time>
      </trkpt>
      <trkpt lat="60.46004615368" lon="22.278376313577">
        <ele>6</ele>
        <time>2016-01-23T11:29:10Z</time>
      </trkpt>
      <trkpt lat="60.460035592486" lon="22.278364746555">
        <ele>6</ele>
        <time>2016-01-23T11:29:11Z</time>
      </trkpt>
      <trkpt lat="60.46002519893" lon="22.278351670791">
        <ele>6</ele>
        <time>2016-01-23T11:29:12Z</time>
      </trkpt>
      <trkpt lat="60.46001681703" lon="22.27834337271">
        <ele>6</ele>
        <time>2016-01-23T11:29:13Z</time>
      </trkpt>
      <trkpt lat="60.460008686587" lon="22.278331386593">
        <ele>6</ele>
        <time>2016-01-23T11:29:14Z</time>
      </trkpt>
      <trkpt lat="60.460004076542" lon="22.278328033833">
        <ele>6</ele>
        <time>2016-01-23T11:29:15Z</time>
      </trkpt>
      <trkpt lat="60.459995275547" lon="22.278317221182">
        <ele>6</ele>
        <time>2016-01-23T11:29:16Z</time>
      </trkpt>
      <trkpt lat="60.459989072941" lon="22.278310012748">
        <ele>6</ele>
        <time>2016-01-23T11:29:17Z</time>
      </trkpt>
      <trkpt lat="60.459985384905" lon="22.27830733054">
        <ele>6</ele>
        <time>2016-01-23T11:29:18Z</time>
      </trkpt>
      <trkpt lat="60.459981445412" lon="22.27829894864">
        <ele>6</ele>
        <time>2016-01-23T11:29:19Z</time>
      </trkpt>
      <trkpt lat="60.459983540887" lon="22.27830313959">
        <ele>6</ele>
        <time>2016-01-23T11:29:20Z</time>
      </trkpt>
      <trkpt lat="60.459980942498" lon="22.278296601708">
        <ele>6</ele>
        <time>2016-01-23T11:29:21Z</time>
      </trkpt>
      <trkpt lat="60.459980020489" lon="22.278296601708">
        <ele>6</ele>
        <time>2016-01-23T11:29:22Z</time>
      </trkpt>
      <trkpt lat="60.459977757376" lon="22.278295009147">
        <ele>6</ele>
        <time>2016-01-23T11:29:23Z</time>
      </trkpt>
      <trkpt lat="60.459975410444" lon="22.278291656387">
        <ele>6</ele>
        <time>2016-01-23T11:29:24Z</time>
      </trkpt>
      <trkpt lat="60.459972644417" lon="22.278287549256">
        <ele>6</ele>
        <time>2016-01-23T11:29:25Z</time>
      </trkpt>
      <trkpt lat="60.45997071658" lon="22.278283945039">
        <ele>6</ele>
        <time>2016-01-23T11:29:26Z</time>
      </trkpt>
      <trkpt lat="60.459968369648" lon="22.278279921727">
        <ele>6</ele>
        <time>2016-01-23T11:29:27Z</time>
      </trkpt>
      <trkpt lat="60.459966190354" lon="22.27827799389">
        <ele>6</ele>
        <time>2016-01-23T11:29:28Z</time>
      </trkpt>
      <trkpt lat="60.459961245033" lon="22.278271958922">
        <ele>6</ele>
        <time>2016-01-23T11:29:29Z</time>
      </trkpt>
      <trkpt lat="60.459963340508" lon="22.278274808768">
        <ele>6</ele>
        <time>2016-01-23T11:29:30Z</time>
      </trkpt>
      <trkpt lat="60.459957976092" lon="22.278266426868">
        <ele>6</ele>
        <time>2016-01-23T11:29:31Z</time>
      </trkpt>
      <trkpt lat="60.45995646735" lon="22.278263996117">
        <ele>6</ele>
        <time>2016-01-23T11:29:32Z</time>
      </trkpt>
      <trkpt lat="60.459955964436" lon="22.27826290647">
        <ele>6</ele>
        <time>2016-01-23T11:29:33Z</time>
      </trkpt>
      <trkpt lat="60.459956215893" lon="22.27826290647">
        <ele>6</ele>
        <time>2016-01-23T11:29:34Z</time>
      </trkpt>
      <trkpt lat="60.459955796798" lon="22.278260727176">
        <ele>6</ele>
        <time>2016-01-23T11:29:35Z</time>
      </trkpt>
      <trkpt lat="60.459954958608" lon="22.278257625873">
        <ele>6</ele>
        <time>2016-01-23T11:29:36Z</time>
      </trkpt>
      <trkpt lat="60.459953366047" lon="22.278257709692">
        <ele>6</ele>
        <time>2016-01-23T11:29:37Z</time>
      </trkpt>
      <trkpt lat="60.459951186753" lon="22.278259302253">
        <ele>6</ele>
        <time>2016-01-23T11:29:38Z</time>
      </trkpt>
      <trkpt lat="60.459946995803" lon="22.278257458235">
        <ele>6</ele>
        <time>2016-01-23T11:29:39Z</time>
      </trkpt>
      <trkpt lat="60.459949091278" lon="22.278258547882">
        <ele>6</ele>
        <time>2016-01-23T11:29:40Z</time>
      </trkpt>
      <trkpt lat="60.459948420726" lon="22.27825703914">
        <ele>6</ele>
        <time>2016-01-23T11:29:41Z</time>
      </trkpt>
      <trkpt lat="60.459949007459" lon="22.278257542054">
        <ele>6</ele>
        <time>2016-01-23T11:29:42Z</time>
      </trkpt>
      <trkpt lat="60.459949342735" lon="22.27825703914">
        <ele>6</ele>
        <time>2016-01-23T11:29:43Z</time>
      </trkpt>
      <trkpt lat="60.459949510373" lon="22.278256536226">
        <ele>6</ele>
        <time>2016-01-23T11:29:44Z</time>
      </trkpt>
      <trkpt lat="60.459950013287" lon="22.278256452407">
        <ele>6</ele>
        <time>2016-01-23T11:29:45Z</time>
      </trkpt>
      <trkpt lat="60.459950348563" lon="22.278256536226">
        <ele>6</ele>
        <time>2016-01-23T11:29:46Z</time>
      </trkpt>
      <trkpt lat="60.459950516201" lon="22.278256117131">
        <ele>6</ele>
        <time>2016-01-23T11:29:47Z</time>
      </trkpt>
      <trkpt lat="60.459950683839" lon="22.27825536276">
        <ele>6</ele>
        <time>2016-01-23T11:29:48Z</time>
      </trkpt>
      <trkpt lat="60.459950851477" lon="22.278254440751">
        <ele>6</ele>
        <time>2016-01-23T11:29:49Z</time>
      </trkpt>
      <trkpt lat="60.45995060002" lon="22.278254021656">
        <ele>6</ele>
        <time>2016-01-23T11:29:50Z</time>
      </trkpt>
      <trkpt lat="60.459950683839" lon="22.278254440751">
        <ele>6</ele>
        <time>2016-01-23T11:29:51Z</time>
      </trkpt>
      <trkpt lat="60.459950851477" lon="22.27825452457">
        <ele>6</ele>
        <time>2016-01-23T11:29:52Z</time>
      </trkpt>
      <trkpt lat="60.459951186753" lon="22.278254189294">
        <ele>6</ele>
        <time>2016-01-23T11:29:53Z</time>
      </trkpt>
      <trkpt lat="60.459951941124" lon="22.278253854018">
        <ele>6</ele>
        <time>2016-01-23T11:29:54Z</time>
      </trkpt>
      <trkpt lat="60.459953198409" lon="22.278254105475">
        <ele>6</ele>
        <time>2016-01-23T11:29:55Z</time>
      </trkpt>
      <trkpt lat="60.459952863133" lon="22.278254189294">
        <ele>6</ele>
        <time>2016-01-23T11:29:56Z</time>
      </trkpt>
      <trkpt lat="60.459953785142" lon="22.278251590905">
        <ele>6</ele>
        <time>2016-01-23T11:29:57Z</time>
      </trkpt>
      <trkpt lat="60.459955042427" lon="22.278248238145">
        <ele>6</ele>
        <time>2016-01-23T11:29:58Z</time>
      </trkpt>
      <trkpt lat="60.459954874789" lon="22.278246561765">
        <ele>6</ele>
        <time>2016-01-23T11:29:59Z</time>
      </trkpt>
      <trkpt lat="60.459953785142" lon="22.278244298652">
        <ele>6</ele>
        <time>2016-01-23T11:30:00Z</time>
      </trkpt>
      <trkpt lat="60.459949342735" lon="22.278238766598">
        <ele>6</ele>
        <time>2016-01-23T11:30:01Z</time>
      </trkpt>
      <trkpt lat="60.459943307767" lon="22.278229127413">
        <ele>6</ele>
        <time>2016-01-23T11:30:02Z</time>
      </trkpt>
      <trkpt lat="60.459939200636" lon="22.278226193748">
        <ele>6</ele>
        <time>2016-01-23T11:30:03Z</time>
      </trkpt>
      <trkpt lat="60.459930818736" lon="22.278217560391">
        <ele>6</ele>
        <time>2016-01-23T11:30:04Z</time>
      </trkpt>
      <trkpt lat="60.459925873415" lon="22.278209429948">
        <ele>6</ele>
        <time>2016-01-23T11:30:05Z</time>
      </trkpt>
      <trkpt lat="60.459928220347" lon="22.278213117984">
        <ele>6</ele>
        <time>2016-01-23T11:30:06Z</time>
      </trkpt>
      <trkpt lat="60.459923358845" lon="22.27820590955">
        <ele>6</ele>
        <time>2016-01-23T11:30:07Z</time>
      </trkpt>
      <trkpt lat="60.459923358845" lon="22.278207250654">
        <ele>6</ele>
        <time>2016-01-23T11:30:08Z</time>
      </trkpt>
      <trkpt lat="60.459923191207" lon="22.278208256482">
        <ele>6</ele>
        <time>2016-01-23T11:30:09Z</time>
      </trkpt>
      <trkpt lat="60.459922353017" lon="22.278208591758">
        <ele>6</ele>
        <time>2016-01-23T11:30:10Z</time>
      </trkpt>
      <trkpt lat="60.459921179551" lon="22.278210268138">
        <ele>6</ele>
        <time>2016-01-23T11:30:11Z</time>
      </trkpt>
      <trkpt lat="60.459920760456" lon="22.278211190147">
        <ele>6</ele>
        <time>2016-01-23T11:30:12Z</time>
      </trkpt>
      <trkpt lat="60.459920257542" lon="22.278211357785">
        <ele>6</ele>
        <time>2016-01-23T11:30:13Z</time>
      </trkpt>
      <trkpt lat="60.459919754628" lon="22.278212028337">
        <ele>6</ele>
        <time>2016-01-23T11:30:14Z</time>
      </trkpt>
      <trkpt lat="60.459919167895" lon="22.278212950346">
        <ele>6</ele>
        <time>2016-01-23T11:30:15Z</time>
      </trkpt>
      <trkpt lat="60.459919084076" lon="22.278214039993">
        <ele>6</ele>
        <time>2016-01-23T11:30:16Z</time>
      </trkpt>
      <trkpt lat="60.459918581162" lon="22.27821512964">
        <ele>6</ele>
        <time>2016-01-23T11:30:17Z</time>
      </trkpt>
      <trkpt lat="60.45991791061" lon="22.278215716373">
        <ele>6</ele>
        <time>2016-01-23T11:30:18Z</time>
      </trkpt>
      <trkpt lat="60.459917407696" lon="22.278216303106">
        <ele>6</ele>
        <time>2016-01-23T11:30:19Z</time>
      </trkpt>
      <trkpt lat="60.459916401868" lon="22.278216722201">
        <ele>6</ele>
        <time>2016-01-23T11:30:20Z</time>
      </trkpt>
      <trkpt lat="60.459915144583" lon="22.278214962002">
        <ele>6</ele>
        <time>2016-01-23T11:30:21Z</time>
      </trkpt>
      <trkpt lat="60.459914390212" lon="22.278213620898">
        <ele>6</ele>
        <time>2016-01-23T11:30:22Z</time>
      </trkpt>
      <trkpt lat="60.459914054936" lon="22.278213788536">
        <ele>6</ele>
        <time>2016-01-23T11:30:23Z</time>
      </trkpt>
      <trkpt lat="60.459914054936" lon="22.27821345326">
        <ele>6</ele>
        <time>2016-01-23T11:30:24Z</time>
      </trkpt>
      <trkpt lat="60.459914054936" lon="22.278212950346">
        <ele>6</ele>
        <time>2016-01-23T11:30:25Z</time>
      </trkpt>
      <trkpt lat="60.459914390212" lon="22.278212698889">
        <ele>6</ele>
        <time>2016-01-23T11:30:26Z</time>
      </trkpt>
      <trkpt lat="60.459914306393" lon="22.278213369441">
        <ele>6</ele>
        <time>2016-01-23T11:30:27Z</time>
      </trkpt>
      <trkpt lat="60.459914222574" lon="22.278213704717">
        <ele>6</ele>
        <time>2016-01-23T11:30:28Z</time>
      </trkpt>
      <trkpt lat="60.459914222574" lon="22.278214039993">
        <ele>6</ele>
        <time>2016-01-23T11:30:29Z</time>
      </trkpt>
      <trkpt lat="60.459913552022" lon="22.27821429145">
        <ele>6</ele>
        <time>2016-01-23T11:30:30Z</time>
      </trkpt>
      <trkpt lat="60.459912713832" lon="22.278211441604">
        <ele>6</ele>
        <time>2016-01-23T11:30:31Z</time>
      </trkpt>
      <trkpt lat="60.459908103787" lon="22.278201970057">
        <ele>6</ele>
        <time>2016-01-23T11:30:32Z</time>
      </trkpt>
      <trkpt lat="60.459902990828" lon="22.278198114383">
        <ele>6</ele>
        <time>2016-01-23T11:30:33Z</time>
      </trkpt>
      <trkpt lat="60.459892345815" lon="22.278182943144">
        <ele>6</ele>
        <time>2016-01-23T11:30:34Z</time>
      </trkpt>
      <trkpt lat="60.459885891752" lon="22.278178165461">
        <ele>6</ele>
        <time>2016-01-23T11:30:35Z</time>
      </trkpt>
      <trkpt lat="60.459875330558" lon="22.278164251507">
        <ele>6</ele>
        <time>2016-01-23T11:30:36Z</time>
      </trkpt>
      <trkpt lat="60.459867703029" lon="22.278159892919">
        <ele>6</ele>
        <time>2016-01-23T11:30:37Z</time>
      </trkpt>
      <trkpt lat="60.45985420817" lon="22.278142710024">
        <ele>6</ele>
        <time>2016-01-23T11:30:38Z</time>
      </trkpt>
      <trkpt lat="60.459847921745" lon="22.278137680884">
        <ele>6</ele>
        <time>2016-01-23T11:30:39Z</time>
      </trkpt>
      <trkpt lat="60.459835013619" lon="22.278123599292">
        <ele>6</ele>
        <time>2016-01-23T11:30:40Z</time>
      </trkpt>
      <trkpt lat="60.459828559556" lon="22.278117648143">
        <ele>6</ele>
        <time>2016-01-23T11:30:41Z</time>
      </trkpt>
      <trkpt lat="60.459810203195" lon="22.278098537411">
        <ele>6</ele>
        <time>2016-01-23T11:30:42Z</time>
      </trkpt>
      <trkpt lat="60.459800983105" lon="22.278090658425">
        <ele>6</ele>
        <time>2016-01-23T11:30:43Z</time>
      </trkpt>
      <trkpt lat="60.459790002816" lon="22.278079007584">
        <ele>6</ele>
        <time>2016-01-23T11:30:44Z</time>
      </trkpt>
      <trkpt lat="60.459782542925" lon="22.278072385883">
        <ele>6</ele>
        <time>2016-01-23T11:30:45Z</time>
      </trkpt>
      <trkpt lat="60.45977290374" lon="22.278063668707">
        <ele>6</ele>
        <time>2016-01-23T11:30:46Z</time>
      </trkpt>
      <trkpt lat="60.459763767469" lon="22.278054532436">
        <ele>6</ele>
        <time>2016-01-23T11:30:47Z</time>
      </trkpt>
      <trkpt lat="60.459756056121" lon="22.278047072545">
        <ele>6</ele>
        <time>2016-01-23T11:30:48Z</time>
      </trkpt>
      <trkpt lat="60.459751865171" lon="22.278046485812">
        <ele>6</ele>
        <time>2016-01-23T11:30:49Z</time>
      </trkpt>
      <trkpt lat="60.459743902366" lon="22.278036176075">
        <ele>6</ele>
        <time>2016-01-23T11:30:50Z</time>
      </trkpt>
      <trkpt lat="60.459739459959" lon="22.278032907134">
        <ele>6</ele>
        <time>2016-01-23T11:30:51Z</time>
      </trkpt>
      <trkpt lat="60.459741555434" lon="22.278034332057">
        <ele>6</ele>
        <time>2016-01-23T11:30:52Z</time>
      </trkpt>
      <trkpt lat="60.459736107199" lon="22.278030057288">
        <ele>6</ele>
        <time>2016-01-23T11:30:53Z</time>
      </trkpt>
      <trkpt lat="60.459734514638" lon="22.278028129451">
        <ele>6</ele>
        <time>2016-01-23T11:30:54Z</time>
      </trkpt>
      <trkpt lat="60.459732419163" lon="22.27802653689">
        <ele>6</ele>
        <time>2016-01-23T11:30:55Z</time>
      </trkpt>
      <trkpt lat="60.459726635652" lon="22.278020418103">
        <ele>6</ele>
        <time>2016-01-23T11:30:56Z</time>
      </trkpt>
      <trkpt lat="60.459721019779" lon="22.278017065343">
        <ele>6</ele>
        <time>2016-01-23T11:30:57Z</time>
      </trkpt>
      <trkpt lat="60.45971003949" lon="22.278005917416">
        <ele>6</ele>
        <time>2016-01-23T11:30:58Z</time>
      </trkpt>
      <trkpt lat="60.459702663418" lon="22.278000385362">
        <ele>6</ele>
        <time>2016-01-23T11:30:59Z</time>
      </trkpt>
      <trkpt lat="60.45969159931" lon="22.277990829996">
        <ele>6</ele>
        <time>2016-01-23T11:31:00Z</time>
      </trkpt>
      <trkpt lat="60.45968321741" lon="22.277983286286">
        <ele>6</ele>
        <time>2016-01-23T11:31:01Z</time>
      </trkpt>
      <trkpt lat="60.459676008976" lon="22.277979430612">
        <ele>6</ele>
        <time>2016-01-23T11:31:02Z</time>
      </trkpt>
      <trkpt lat="60.459666788886" lon="22.277974233834">
        <ele>6</ele>
        <time>2016-01-23T11:31:03Z</time>
      </trkpt>
      <trkpt lat="60.459659999547" lon="22.277970713436">
        <ele>6</ele>
        <time>2016-01-23T11:31:04Z</time>
      </trkpt>
      <trkpt lat="60.459647426697" lon="22.277960487518">
        <ele>6</ele>
        <time>2016-01-23T11:31:05Z</time>
      </trkpt>
      <trkpt lat="60.459640637358" lon="22.277953949636">
        <ele>6</ele>
        <time>2016-01-23T11:31:06Z</time>
      </trkpt>
      <trkpt lat="60.459630243802" lon="22.277947327935">
        <ele>6</ele>
        <time>2016-01-23T11:31:07Z</time>
      </trkpt>
      <trkpt lat="60.459618928237" lon="22.277939113673">
        <ele>6</ele>
        <time>2016-01-23T11:31:08Z</time>
      </trkpt>
      <trkpt lat="60.459624041196" lon="22.277946154469">
        <ele>6</ele>
        <time>2016-01-23T11:31:09Z</time>
      </trkpt>
      <trkpt lat="60.459622783911" lon="22.277945316279">
        <ele>6</ele>
        <time>2016-01-23T11:31:10Z</time>
      </trkpt>
      <trkpt lat="60.459621610445" lon="22.277944561908">
        <ele>6</ele>
        <time>2016-01-23T11:31:11Z</time>
      </trkpt>
      <trkpt lat="60.459619095875" lon="22.277943136985">
        <ele>6</ele>
        <time>2016-01-23T11:31:12Z</time>
      </trkpt>
      <trkpt lat="60.459609959604" lon="22.277935677094">
        <ele>6</ele>
        <time>2016-01-23T11:31:13Z</time>
      </trkpt>
      <trkpt lat="60.459601158609" lon="22.277932575791">
        <ele>6</ele>
        <time>2016-01-23T11:31:14Z</time>
      </trkpt>
      <trkpt lat="60.45958598737" lon="22.277919500027">
        <ele>6</ele>
        <time>2016-01-23T11:31:15Z</time>
      </trkpt>
      <trkpt lat="60.459577102556" lon="22.277919500027">
        <ele>6</ele>
        <time>2016-01-23T11:31:16Z</time>
      </trkpt>
      <trkpt lat="60.459558746195" lon="22.277906759539">
        <ele>6</ele>
        <time>2016-01-23T11:31:17Z</time>
      </trkpt>
      <trkpt lat="60.45954407787" lon="22.27789913201">
        <ele>6</ele>
        <time>2016-01-23T11:31:18Z</time>
      </trkpt>
      <trkpt lat="60.459529577183" lon="22.277887984083">
        <ele>6</ele>
        <time>2016-01-23T11:31:19Z</time>
      </trkpt>
      <trkpt lat="60.4595164176" lon="22.277884715142">
        <ele>6</ele>
        <time>2016-01-23T11:31:20Z</time>
      </trkpt>
      <trkpt lat="60.459505604949" lon="22.2778748245">
        <ele>6</ele>
        <time>2016-01-23T11:31:21Z</time>
      </trkpt>
      <trkpt lat="60.459496468678" lon="22.277868621894">
        <ele>6</ele>
        <time>2016-01-23T11:31:22Z</time>
      </trkpt>
      <trkpt lat="60.459490685167" lon="22.277865017677">
        <ele>6</ele>
        <time>2016-01-23T11:31:23Z</time>
      </trkpt>
      <trkpt lat="60.459493367375" lon="22.277866694057">
        <ele>6</ele>
        <time>2016-01-23T11:31:24Z</time>
      </trkpt>
      <trkpt lat="60.459488170597" lon="22.277858731252">
        <ele>6</ele>
        <time>2016-01-23T11:31:25Z</time>
      </trkpt>
      <trkpt lat="60.459485656027" lon="22.277858144519">
        <ele>6</ele>
        <time>2016-01-23T11:31:26Z</time>
      </trkpt>
      <trkpt lat="60.45948456638" lon="22.277857893062">
        <ele>6</ele>
        <time>2016-01-23T11:31:27Z</time>
      </trkpt>
      <trkpt lat="60.459484482561" lon="22.277857390148">
        <ele>6</ele>
        <time>2016-01-23T11:31:28Z</time>
      </trkpt>
      <trkpt lat="60.45948205181" lon="22.27785470794">
        <ele>6</ele>
        <time>2016-01-23T11:31:29Z</time>
      </trkpt>
      <trkpt lat="60.459475011014" lon="22.277847415687">
        <ele>6</ele>
        <time>2016-01-23T11:31:30Z</time>
      </trkpt>
      <trkpt lat="60.459477609403" lon="22.277850265533">
        <ele>6</ele>
        <time>2016-01-23T11:31:31Z</time>
      </trkpt>
      <trkpt lat="60.459465539467" lon="22.277844482022">
        <ele>6</ele>
        <time>2016-01-23T11:31:32Z</time>
      </trkpt>
      <trkpt lat="60.459460091232" lon="22.277841464538">
        <ele>6</ele>
        <time>2016-01-23T11:31:33Z</time>
      </trkpt>
      <trkpt lat="60.45945439154" lon="22.277836016303">
        <ele>6</ele>
        <time>2016-01-23T11:31:34Z</time>
      </trkpt>
      <trkpt lat="60.459447518382" lon="22.277832244448">
        <ele>6</ele>
        <time>2016-01-23T11:31:35Z</time>
      </trkpt>
      <trkpt lat="60.459437376283" lon="22.277824197824">
        <ele>6</ele>
        <time>2016-01-23T11:31:36Z</time>
      </trkpt>
      <trkpt lat="60.45942673127" lon="22.277817576123">
        <ele>6</ele>
        <time>2016-01-23T11:31:37Z</time>
      </trkpt>
      <trkpt lat="60.459416421533" lon="22.277814223363">
        <ele>6</ele>
        <time>2016-01-23T11:31:38Z</time>
      </trkpt>
      <trkpt lat="60.459407201443" lon="22.277805003273">
        <ele>6</ele>
        <time>2016-01-23T11:31:39Z</time>
      </trkpt>
      <trkpt lat="60.459403597226" lon="22.277802069608">
        <ele>6</ele>
        <time>2016-01-23T11:31:40Z</time>
      </trkpt>
      <trkpt lat="60.459405105968" lon="22.277803243074">
        <ele>6</ele>
        <time>2016-01-23T11:31:41Z</time>
      </trkpt>
      <trkpt lat="60.459393790403" lon="22.277795699364">
        <ele>6</ele>
        <time>2016-01-23T11:31:42Z</time>
      </trkpt>
      <trkpt lat="60.459389515634" lon="22.277792262785">
        <ele>6</ele>
        <time>2016-01-23T11:31:43Z</time>
      </trkpt>
      <trkpt lat="60.459391443471" lon="22.277794106803">
        <ele>6</ele>
        <time>2016-01-23T11:31:44Z</time>
      </trkpt>
      <trkpt lat="60.459387001064" lon="22.277792262785">
        <ele>6</ele>
        <time>2016-01-23T11:31:45Z</time>
      </trkpt>
      <trkpt lat="60.459386246693" lon="22.27779184369">
        <ele>6</ele>
        <time>2016-01-23T11:31:46Z</time>
      </trkpt>
      <trkpt lat="60.459385576141" lon="22.277792095147">
        <ele>6</ele>
        <time>2016-01-23T11:31:47Z</time>
      </trkpt>
      <trkpt lat="60.459385157046" lon="22.277793268613">
        <ele>6</ele>
        <time>2016-01-23T11:31:48Z</time>
      </trkpt>
      <trkpt lat="60.459384067399" lon="22.277792346604">
        <ele>6</ele>
        <time>2016-01-23T11:31:49Z</time>
      </trkpt>
      <trkpt lat="60.459377780974" lon="22.277788239473">
        <ele>6</ele>
        <time>2016-01-23T11:31:50Z</time>
      </trkpt>
      <trkpt lat="60.459380379363" lon="22.277789412939">
        <ele>6</ele>
        <time>2016-01-23T11:31:51Z</time>
      </trkpt>
      <trkpt lat="60.459370656359" lon="22.277780276668">
        <ele>6</ele>
        <time>2016-01-23T11:31:52Z</time>
      </trkpt>
      <trkpt lat="60.45936219064" lon="22.277774576976">
        <ele>6</ele>
        <time>2016-01-23T11:31:53Z</time>
      </trkpt>
      <trkpt lat="60.459350958894" lon="22.277766278895">
        <ele>6</ele>
        <time>2016-01-23T11:31:54Z</time>
      </trkpt>
      <trkpt lat="60.459336039112" lon="22.277754879511">
        <ele>6</ele>
        <time>2016-01-23T11:31:55Z</time>
      </trkpt>
      <trkpt lat="60.459322711891" lon="22.277747922534">
        <ele>6</ele>
        <time>2016-01-23T11:31:56Z</time>
      </trkpt>
      <trkpt lat="60.45931106105" lon="22.277742809575">
        <ele>6</ele>
        <time>2016-01-23T11:31:57Z</time>
      </trkpt>
      <trkpt lat="60.459306283367" lon="22.277740127367">
        <ele>6</ele>
        <time>2016-01-23T11:31:58Z</time>
      </trkpt>
      <trkpt lat="60.459308378842" lon="22.277741719928">
        <ele>6</ele>
        <time>2016-01-23T11:31:59Z</time>
      </trkpt>
      <trkpt lat="60.459294883983" lon="22.277734260037">
        <ele>6</ele>
        <time>2016-01-23T11:32:00Z</time>
      </trkpt>
      <trkpt lat="60.459289519567" lon="22.277730823458">
        <ele>6</ele>
        <time>2016-01-23T11:32:01Z</time>
      </trkpt>
      <trkpt lat="60.459282730228" lon="22.277730152906">
        <ele>6</ele>
        <time>2016-01-23T11:32:02Z</time>
      </trkpt>
      <trkpt lat="60.459272420491" lon="22.277723447386">
        <ele>6</ele>
        <time>2016-01-23T11:32:03Z</time>
      </trkpt>
      <trkpt lat="60.459264709143" lon="22.277720094626">
        <ele>6</ele>
        <time>2016-01-23T11:32:04Z</time>
      </trkpt>
      <trkpt lat="60.459256913976" lon="22.277715400762">
        <ele>6</ele>
        <time>2016-01-23T11:32:05Z</time>
      </trkpt>
      <trkpt lat="60.459260518193" lon="22.277717831513">
        <ele>6</ele>
        <time>2016-01-23T11:32:06Z</time>
      </trkpt>
      <trkpt lat="60.459253309759" lon="22.277722106282">
        <ele>6</ele>
        <time>2016-01-23T11:32:07Z</time>
      </trkpt>
      <trkpt lat="60.459251968655" lon="22.277721854825">
        <ele>6</ele>
        <time>2016-01-23T11:32:08Z</time>
      </trkpt>
      <trkpt lat="60.459250879008" lon="22.277721100454">
        <ele>6</ele>
        <time>2016-01-23T11:32:09Z</time>
      </trkpt>
      <trkpt lat="60.459250208456" lon="22.27772059754">
        <ele>6</ele>
        <time>2016-01-23T11:32:10Z</time>
      </trkpt>
      <trkpt lat="60.459249202628" lon="22.277719507893">
        <ele>6</ele>
        <time>2016-01-23T11:32:11Z</time>
      </trkpt>
      <trkpt lat="60.459248867352" lon="22.277707018862">
        <ele>6</ele>
        <time>2016-01-23T11:32:12Z</time>
      </trkpt>
      <trkpt lat="60.459248699714" lon="22.277712970011">
        <ele>6</ele>
        <time>2016-01-23T11:32:13Z</time>
      </trkpt>
      <trkpt lat="60.459244173488" lon="22.277707857052">
        <ele>6</ele>
        <time>2016-01-23T11:32:14Z</time>
      </trkpt>
      <trkpt lat="60.459236629778" lon="22.277701989722">
        <ele>6</ele>
        <time>2016-01-23T11:32:15Z</time>
      </trkpt>
      <trkpt lat="60.459239563443" lon="22.277704504292">
        <ele>6</ele>
        <time>2016-01-23T11:32:16Z</time>
      </trkpt>
      <trkpt lat="60.459225984765" lon="22.2776988046">
        <ele>6</ele>
        <time>2016-01-23T11:32:17Z</time>
      </trkpt>
      <trkpt lat="60.459218357236" lon="22.277689333053">
        <ele>6</ele>
        <time>2016-01-23T11:32:18Z</time>
      </trkpt>
      <trkpt lat="60.459212406087" lon="22.277688243406">
        <ele>6</ele>
        <time>2016-01-23T11:32:19Z</time>
      </trkpt>
      <trkpt lat="60.459201761074" lon="22.277683465723">
        <ele>6</ele>
        <time>2016-01-23T11:32:20Z</time>
      </trkpt>
      <trkpt lat="60.459196564296" lon="22.277680112963">
        <ele>6</ele>
        <time>2016-01-23T11:32:21Z</time>
      </trkpt>
      <trkpt lat="60.459188936767" lon="22.27767701166">
        <ele>6</ele>
        <time>2016-01-23T11:32:22Z</time>
      </trkpt>
      <trkpt lat="60.45918197979" lon="22.277672150158">
        <ele>6</ele>
        <time>2016-01-23T11:32:23Z</time>
      </trkpt>
      <trkpt lat="60.459175693365" lon="22.277673910357">
        <ele>6</ele>
        <time>2016-01-23T11:32:24Z</time>
      </trkpt>
      <trkpt lat="60.459165048352" lon="22.277690338881">
        <ele>6</ele>
        <time>2016-01-23T11:32:25Z</time>
      </trkpt>
      <trkpt lat="60.459149625656" lon="22.277694026917">
        <ele>6</ele>
        <time>2016-01-23T11:32:26Z</time>
      </trkpt>
      <trkpt lat="60.459126994526" lon="22.277705929215">
        <ele>6</ele>
        <time>2016-01-23T11:32:27Z</time>
      </trkpt>
      <trkpt lat="60.459107045604" lon="22.277708779061">
        <ele>6</ele>
        <time>2016-01-23T11:32:28Z</time>
      </trkpt>
      <trkpt lat="60.459086258492" lon="22.277706767405">
        <ele>6</ele>
        <time>2016-01-23T11:32:29Z</time>
      </trkpt>
      <trkpt lat="60.459065806656" lon="22.277703330826">
        <ele>6</ele>
        <time>2016-01-23T11:32:30Z</time>
      </trkpt>
      <trkpt lat="60.459047115019" lon="22.277690841795">
        <ele>6</ele>
        <time>2016-01-23T11:32:31Z</time>
      </trkpt>
      <trkpt lat="60.459032111418" lon="22.277678939497">
        <ele>6</ele>
        <time>2016-01-23T11:32:32Z</time>
      </trkpt>
      <trkpt lat="60.459013084505" lon="22.277664857905">
        <ele>6</ele>
        <time>2016-01-23T11:32:33Z</time>
      </trkpt>
      <trkpt lat="60.45899757799" lon="22.277641388585">
        <ele>6</ele>
        <time>2016-01-23T11:32:34Z</time>
      </trkpt>
      <trkpt lat="60.458991459203" lon="22.277616829618">
        <ele>6</ele>
        <time>2016-01-23T11:32:35Z</time>
      </trkpt>
      <trkpt lat="60.458990369556" lon="22.277603586216">
        <ele>6</ele>
        <time>2016-01-23T11:32:36Z</time>
      </trkpt>
      <trkpt lat="60.458991207746" lon="22.277609537365">
        <ele>6</ele>
        <time>2016-01-23T11:32:37Z</time>
      </trkpt>
      <trkpt lat="60.458992716488" lon="22.27759403085">
        <ele>6</ele>
        <time>2016-01-23T11:32:38Z</time>
      </trkpt>
      <trkpt lat="60.458993219402" lon="22.277595120497">
        <ele>6</ele>
        <time>2016-01-23T11:32:39Z</time>
      </trkpt>
      <trkpt lat="60.458992381212" lon="22.277594701402">
        <ele>6</ele>
        <time>2016-01-23T11:32:40Z</time>
      </trkpt>
      <trkpt lat="60.458993806135" lon="22.27759151628">
        <ele>6</ele>
        <time>2016-01-23T11:32:41Z</time>
      </trkpt>
      <trkpt lat="60.458994560506" lon="22.277588414977">
        <ele>6</ele>
        <time>2016-01-23T11:32:42Z</time>
      </trkpt>
      <trkpt lat="60.458993554678" lon="22.277586822416">
        <ele>6</ele>
        <time>2016-01-23T11:32:43Z</time>
      </trkpt>
      <trkpt lat="60.458992967945" lon="22.277585397493">
        <ele>6</ele>
        <time>2016-01-23T11:32:44Z</time>
      </trkpt>
      <trkpt lat="60.45899338704" lon="22.277583721113">
        <ele>6</ele>
        <time>2016-01-23T11:32:45Z</time>
      </trkpt>
      <trkpt lat="60.458994141411" lon="22.277582966742">
        <ele>6</ele>
        <time>2016-01-23T11:32:46Z</time>
      </trkpt>
      <trkpt lat="60.458995147239" lon="22.277583302018">
        <ele>6</ele>
        <time>2016-01-23T11:32:47Z</time>
      </trkpt>
      <trkpt lat="60.458995650153" lon="22.27758313438">
        <ele>6</ele>
        <time>2016-01-23T11:32:48Z</time>
      </trkpt>
      <trkpt lat="60.458995566334" lon="22.277582715285">
        <ele>6</ele>
        <time>2016-01-23T11:32:49Z</time>
      </trkpt>
      <trkpt lat="60.458995398696" lon="22.27758229619">
        <ele>6</ele>
        <time>2016-01-23T11:32:50Z</time>
      </trkpt>
      <trkpt lat="60.458995398696" lon="22.277582212371">
        <ele>6</ele>
        <time>2016-01-23T11:32:51Z</time>
      </trkpt>
      <trkpt lat="60.458995398696" lon="22.277582212371">
        <ele>6</ele>
        <time>2016-01-23T11:32:52Z</time>
      </trkpt>
      <trkpt lat="60.458995398696" lon="22.277582547647">
        <ele>6</ele>
        <time>2016-01-23T11:32:53Z</time>
      </trkpt>
      <trkpt lat="60.458995482515" lon="22.27758313438">
        <ele>6</ele>
        <time>2016-01-23T11:32:54Z</time>
      </trkpt>
      <trkpt lat="60.458997242714" lon="22.277585313674">
        <ele>6</ele>
        <time>2016-01-23T11:32:55Z</time>
      </trkpt>
      <trkpt lat="60.458998751456" lon="22.277586822416">
        <ele>6</ele>
        <time>2016-01-23T11:32:56Z</time>
      </trkpt>
      <trkpt lat="60.458999589646" lon="22.27758564895">
        <ele>6</ele>
        <time>2016-01-23T11:32:57Z</time>
      </trkpt>
      <trkpt lat="60.458999757284" lon="22.277585397493">
        <ele>6</ele>
        <time>2016-01-23T11:32:58Z</time>
      </trkpt>
      <trkpt lat="60.458999841103" lon="22.277585313674">
        <ele>6</ele>
        <time>2016-01-23T11:32:59Z</time>
      </trkpt>
      <trkpt lat="60.459000176379" lon="22.277585062217">
        <ele>6</ele>
        <time>2016-01-23T11:33:00Z</time>
      </trkpt>
      <trkpt lat="60.459000511655" lon="22.277583888751">
        <ele>6</ele>
        <time>2016-01-23T11:33:01Z</time>
      </trkpt>
      <trkpt lat="60.459001098388" lon="22.277581793276">
        <ele>6</ele>
        <time>2016-01-23T11:33:02Z</time>
      </trkpt>
      <trkpt lat="60.459004367329" lon="22.277578440516">
        <ele>6</ele>
        <time>2016-01-23T11:33:03Z</time>
      </trkpt>
      <trkpt lat="60.459006043709" lon="22.27757726705">
        <ele>6</ele>
        <time>2016-01-23T11:33:04Z</time>
      </trkpt>
      <trkpt lat="60.459007384813" lon="22.27757642886">
        <ele>6</ele>
        <time>2016-01-23T11:33:05Z</time>
      </trkpt>
      <trkpt lat="60.459008223003" lon="22.27757559067">
        <ele>6</ele>
        <time>2016-01-23T11:33:06Z</time>
      </trkpt>
      <trkpt lat="60.459009061193" lon="22.277573662833">
        <ele>6</ele>
        <time>2016-01-23T11:33:07Z</time>
      </trkpt>
      <trkpt lat="60.459010402297" lon="22.277571148263">
        <ele>6</ele>
        <time>2016-01-23T11:33:08Z</time>
      </trkpt>
      <trkpt lat="60.459009899383" lon="22.277571315901">
        <ele>6</ele>
        <time>2016-01-23T11:33:09Z</time>
      </trkpt>
      <trkpt lat="60.459008893555" lon="22.277570058616">
        <ele>6</ele>
        <time>2016-01-23T11:33:10Z</time>
      </trkpt>
      <trkpt lat="60.459009815564" lon="22.277563520734">
        <ele>6</ele>
        <time>2016-01-23T11:33:11Z</time>
      </trkpt>
      <trkpt lat="60.459006462804" lon="22.277554384463">
        <ele>6</ele>
        <time>2016-01-23T11:33:12Z</time>
      </trkpt>
      <trkpt lat="60.459008977374" lon="22.277556815214">
        <ele>6</ele>
        <time>2016-01-23T11:33:13Z</time>
      </trkpt>
      <trkpt lat="60.459000595474" lon="22.277541643975">
        <ele>6</ele>
        <time>2016-01-23T11:33:14Z</time>
      </trkpt>
      <trkpt lat="60.459003696777" lon="22.277543487993">
        <ele>6</ele>
        <time>2016-01-23T11:33:15Z</time>
      </trkpt>
      <trkpt lat="60.458993470859" lon="22.277540302871">
        <ele>6</ele>
        <time>2016-01-23T11:33:16Z</time>
      </trkpt>
      <trkpt lat="60.45898584333" lon="22.27754290126">
        <ele>6</ele>
        <time>2016-01-23T11:33:17Z</time>
      </trkpt>
      <trkpt lat="60.458976036507" lon="22.277540135233">
        <ele>6</ele>
        <time>2016-01-23T11:33:18Z</time>
      </trkpt>
      <trkpt lat="60.458967570788" lon="22.277543320355">
        <ele>6</ele>
        <time>2016-01-23T11:33:19Z</time>
      </trkpt>
      <trkpt lat="60.458963044562" lon="22.277540889604">
        <ele>6</ele>
        <time>2016-01-23T11:33:20Z</time>
      </trkpt>
      <trkpt lat="60.458952734825" lon="22.277544493821">
        <ele>6</ele>
        <time>2016-01-23T11:33:21Z</time>
      </trkpt>
      <trkpt lat="60.458943179459" lon="22.277548433314">
        <ele>6</ele>
        <time>2016-01-23T11:33:22Z</time>
      </trkpt>
      <trkpt lat="60.458929433143" lon="22.277546421658">
        <ele>6</ele>
        <time>2016-01-23T11:33:23Z</time>
      </trkpt>
      <trkpt lat="60.458919291044" lon="22.277548349495">
        <ele>6</ele>
        <time>2016-01-23T11:33:24Z</time>
      </trkpt>
      <trkpt lat="60.458907472565" lon="22.277541643975">
        <ele>6</ele>
        <time>2016-01-23T11:33:25Z</time>
      </trkpt>
      <trkpt lat="60.458899593579" lon="22.27753871031">
        <ele>6</ele>
        <time>2016-01-23T11:33:26Z</time>
      </trkpt>
      <trkpt lat="60.458896492276" lon="22.27754122488">
        <ele>6</ele>
        <time>2016-01-23T11:33:27Z</time>
      </trkpt>
      <trkpt lat="60.458894983534" lon="22.277544661459">
        <ele>6</ele>
        <time>2016-01-23T11:33:28Z</time>
      </trkpt>
      <trkpt lat="60.458891211679" lon="22.277550109694">
        <ele>6</ele>
        <time>2016-01-23T11:33:29Z</time>
      </trkpt>
      <trkpt lat="60.458886266358" lon="22.277553881549">
        <ele>6</ele>
        <time>2016-01-23T11:33:30Z</time>
      </trkpt>
      <trkpt lat="60.458882243046" lon="22.277560335612">
        <ele>6</ele>
        <time>2016-01-23T11:33:31Z</time>
      </trkpt>
      <trkpt lat="60.458870005472" lon="22.277562850182">
        <ele>6</ele>
        <time>2016-01-23T11:33:32Z</time>
      </trkpt>
      <trkpt lat="60.458862545581" lon="22.277558910689">
        <ele>6</ele>
        <time>2016-01-23T11:33:33Z</time>
      </trkpt>
      <trkpt lat="60.458852235844" lon="22.277558994508">
        <ele>6</ele>
        <time>2016-01-23T11:33:34Z</time>
      </trkpt>
      <trkpt lat="60.45884167465" lon="22.277554887377">
        <ele>6</ele>
        <time>2016-01-23T11:33:35Z</time>
      </trkpt>
      <trkpt lat="60.458833879483" lon="22.277556479938">
        <ele>6</ele>
        <time>2016-01-23T11:33:36Z</time>
      </trkpt>
      <trkpt lat="60.458816026036" lon="22.277547176029">
        <ele>6</ele>
        <time>2016-01-23T11:33:37Z</time>
      </trkpt>
      <trkpt lat="60.458807057403" lon="22.277547427486">
        <ele>6</ele>
        <time>2016-01-23T11:33:38Z</time>
      </trkpt>
      <trkpt lat="60.458795658019" lon="22.277560000336">
        <ele>6</ele>
        <time>2016-01-23T11:33:39Z</time>
      </trkpt>
      <trkpt lat="60.458778223667" lon="22.277556479938">
        <ele>6</ele>
        <time>2016-01-23T11:33:40Z</time>
      </trkpt>
      <trkpt lat="60.458756598365" lon="22.277562934001">
        <ele>6</ele>
        <time>2016-01-23T11:33:41Z</time>
      </trkpt>
      <trkpt lat="60.458737236176" lon="22.277561089983">
        <ele>6</ele>
        <time>2016-01-23T11:33:42Z</time>
      </trkpt>
      <trkpt lat="60.458717538711" lon="22.27757642886">
        <ele>6</ele>
        <time>2016-01-23T11:33:43Z</time>
      </trkpt>
      <trkpt lat="60.45868996226" lon="22.277568214598">
        <ele>6</ele>
        <time>2016-01-23T11:33:44Z</time>
      </trkpt>
      <trkpt lat="60.458662972542" lon="22.277565951485">
        <ele>6</ele>
        <time>2016-01-23T11:33:45Z</time>
      </trkpt>
      <trkpt lat="60.458639838498" lon="22.277564442743">
        <ele>6</ele>
        <time>2016-01-23T11:33:46Z</time>
      </trkpt>
      <trkpt lat="60.458615447169" lon="22.277562598725">
        <ele>6</ele>
        <time>2016-01-23T11:33:47Z</time>
      </trkpt>
      <trkpt lat="60.458584601777" lon="22.277553294816">
        <ele>6</ele>
        <time>2016-01-23T11:33:48Z</time>
      </trkpt>
      <trkpt lat="60.45858435032" lon="22.277577015593">
        <ele>6</ele>
        <time>2016-01-23T11:33:49Z</time>
      </trkpt>
      <trkpt lat="60.458547302322" lon="22.277557485766">
        <ele>6</ele>
        <time>2016-01-23T11:33:50Z</time>
      </trkpt>
      <trkpt lat="60.458531711988" lon="22.277570310073">
        <ele>6</ele>
        <time>2016-01-23T11:33:51Z</time>
      </trkpt>
      <trkpt lat="60.458498938759" lon="22.277551618436">
        <ele>6</ele>
        <time>2016-01-23T11:33:52Z</time>
      </trkpt>
      <trkpt lat="60.458479157475" lon="22.277556060843">
        <ele>6</ele>
        <time>2016-01-23T11:33:53Z</time>
      </trkpt>
      <trkpt lat="60.458451413386" lon="22.27754206307">
        <ele>6</ele>
        <time>2016-01-23T11:33:54Z</time>
      </trkpt>
      <trkpt lat="60.458429788084" lon="22.277542817441">
        <ele>5.4</ele>
        <time>2016-01-23T11:33:55Z</time>
      </trkpt>
      <trkpt lat="60.458409420067" lon="22.27753284298">
        <ele>5.4</ele>
        <time>2016-01-23T11:33:56Z</time>
      </trkpt>
      <trkpt lat="60.458388800593" lon="22.277521527415">
        <ele>5.4</ele>
        <time>2016-01-23T11:33:57Z</time>
      </trkpt>
      <trkpt lat="60.458376060105" lon="22.277515157171">
        <ele>5.4</ele>
        <time>2016-01-23T11:33:58Z</time>
      </trkpt>
      <trkpt lat="60.458364157807" lon="22.2775144028">
        <ele>5.4</ele>
        <time>2016-01-23T11:33:59Z</time>
      </trkpt>
      <trkpt lat="60.458356278821" lon="22.277510463307">
        <ele>5.4</ele>
        <time>2016-01-23T11:34:00Z</time>
      </trkpt>
      <trkpt lat="60.458351920233" lon="22.277504428339">
        <ele>5.4</ele>
        <time>2016-01-23T11:34:01Z</time>
      </trkpt>
      <trkpt lat="60.45835384807" lon="22.277505937081">
        <ele>5.4</ele>
        <time>2016-01-23T11:34:02Z</time>
      </trkpt>
      <trkpt lat="60.458349154206" lon="22.277498896285">
        <ele>5.4</ele>
        <time>2016-01-23T11:34:03Z</time>
      </trkpt>
      <trkpt lat="60.458348399835" lon="22.277495459706">
        <ele>5.4</ele>
        <time>2016-01-23T11:34:04Z</time>
      </trkpt>
      <trkpt lat="60.458349992396" lon="22.277491520213">
        <ele>5.4</ele>
        <time>2016-01-23T11:34:05Z</time>
      </trkpt>
      <trkpt lat="60.458350998224" lon="22.27749009529">
        <ele>5.4</ele>
        <time>2016-01-23T11:34:06Z</time>
      </trkpt>
      <trkpt lat="60.458350411491" lon="22.277491855489">
        <ele>5.4</ele>
        <time>2016-01-23T11:34:07Z</time>
      </trkpt>
      <trkpt lat="60.458349992396" lon="22.277492190765">
        <ele>5.4</ele>
        <time>2016-01-23T11:34:08Z</time>
      </trkpt>
      <trkpt lat="60.458350243853" lon="22.277492945136">
        <ele>5.4</ele>
        <time>2016-01-23T11:34:09Z</time>
      </trkpt>
      <trkpt lat="60.458350243853" lon="22.277494034783">
        <ele>5.4</ele>
        <time>2016-01-23T11:34:10Z</time>
      </trkpt>
      <trkpt lat="60.45834965712" lon="22.277493028955">
        <ele>5.4</ele>
        <time>2016-01-23T11:34:11Z</time>
      </trkpt>
      <trkpt lat="60.458349405663" lon="22.277491436394">
        <ele>5.4</ele>
        <time>2016-01-23T11:34:12Z</time>
      </trkpt>
      <trkpt lat="60.458348567473" lon="22.277489843833">
        <ele>5.2</ele>
        <time>2016-01-23T11:34:13Z</time>
      </trkpt>
      <trkpt lat="60.458347310188" lon="22.277488335091">
        <ele>4.8</ele>
        <time>2016-01-23T11:34:14Z</time>
      </trkpt>
      <trkpt lat="60.458346052903" lon="22.277486407254">
        <ele>4.4</ele>
        <time>2016-01-23T11:34:15Z</time>
      </trkpt>
      <trkpt lat="60.458345214713" lon="22.277484730874">
        <ele>4</ele>
        <time>2016-01-23T11:34:16Z</time>
      </trkpt>
      <trkpt lat="60.458344963256" lon="22.277483305951">
        <ele>3.6</ele>
        <time>2016-01-23T11:34:17Z</time>
      </trkpt>
      <trkpt lat="60.458344795618" lon="22.277482048666">
        <ele>3.4</ele>
        <time>2016-01-23T11:34:18Z</time>
      </trkpt>
      <trkpt lat="60.458343873609" lon="22.277480791381">
        <ele>3.4</ele>
        <time>2016-01-23T11:34:19Z</time>
      </trkpt>
      <trkpt lat="60.4583429516" lon="22.277479869372">
        <ele>3.4</ele>
        <time>2016-01-23T11:34:20Z</time>
      </trkpt>
      <trkpt lat="60.458341945772" lon="22.277478695906">
        <ele>3.4</ele>
        <time>2016-01-23T11:34:21Z</time>
      </trkpt>
      <trkpt lat="60.458341107582" lon="22.277477690078">
        <ele>3.4</ele>
        <time>2016-01-23T11:34:22Z</time>
      </trkpt>
      <trkpt lat="60.458340269392" lon="22.277477019526">
        <ele>3.4</ele>
        <time>2016-01-23T11:34:23Z</time>
      </trkpt>
      <trkpt lat="60.458339263564" lon="22.277476097517">
        <ele>3.4</ele>
        <time>2016-01-23T11:34:24Z</time>
      </trkpt>
      <trkpt lat="60.458338593012" lon="22.277475426965">
        <ele>3.4</ele>
        <time>2016-01-23T11:34:25Z</time>
      </trkpt>
      <trkpt lat="60.45833792246" lon="22.277474924051">
        <ele>3.4</ele>
        <time>2016-01-23T11:34:26Z</time>
      </trkpt>
      <trkpt lat="60.458337168089" lon="22.277474253499">
        <ele>3.2</ele>
        <time>2016-01-23T11:34:27Z</time>
      </trkpt>
      <trkpt lat="60.458336497537" lon="22.277473415309">
        <ele>2.8</ele>
        <time>2016-01-23T11:34:28Z</time>
      </trkpt>
      <trkpt lat="60.458335743166" lon="22.277472912395">
        <ele>2.4</ele>
        <time>2016-01-23T11:34:29Z</time>
      </trkpt>
      <trkpt lat="60.458335156433" lon="22.2774724933">
        <ele>2</ele>
        <time>2016-01-23T11:34:30Z</time>
      </trkpt>
      <trkpt lat="60.458334485881" lon="22.277471822748">
        <ele>1.4</ele>
        <time>2016-01-23T11:34:31Z</time>
      </trkpt>
      <trkpt lat="60.458335575528" lon="22.277455142767">
        <ele>1.2</ele>
        <time>2016-01-23T11:34:32Z</time>
      </trkpt>
      <trkpt lat="60.458334821157" lon="22.277462602658">
        <ele>1.2</ele>
        <time>2016-01-23T11:34:33Z</time>
      </trkpt>
      <trkpt lat="60.458333144777" lon="22.277451622369">
        <ele>1.2</ele>
        <time>2016-01-23T11:34:34Z</time>
      </trkpt>
      <trkpt lat="60.458331468397" lon="22.277449945989">
        <ele>1.2</ele>
        <time>2016-01-23T11:34:35Z</time>
      </trkpt>
      <trkpt lat="60.458329456741" lon="22.277448521066">
        <ele>1.2</ele>
        <time>2016-01-23T11:34:36Z</time>
      </trkpt>
      <trkpt lat="60.458326606895" lon="22.277446341772">
        <ele>1.2</ele>
        <time>2016-01-23T11:34:37Z</time>
      </trkpt>
      <trkpt lat="60.45832367323" lon="22.277443911021">
        <ele>1.2</ele>
        <time>2016-01-23T11:34:38Z</time>
      </trkpt>
      <trkpt lat="60.458321242479" lon="22.277441228813">
        <ele>1.2</ele>
        <time>2016-01-23T11:34:39Z</time>
      </trkpt>
      <trkpt lat="60.458317889719" lon="22.277438043691">
        <ele>1.2</ele>
        <time>2016-01-23T11:34:40Z</time>
      </trkpt>
      <trkpt lat="60.458314956054" lon="22.277436115854">
        <ele>1.2</ele>
        <time>2016-01-23T11:34:41Z</time>
      </trkpt>
      <trkpt lat="60.458312357665" lon="22.277434858569">
        <ele>1.2</ele>
        <time>2016-01-23T11:34:42Z</time>
      </trkpt>
      <trkpt lat="60.458310765104" lon="22.277434104198">
        <ele>0.8</ele>
        <time>2016-01-23T11:34:43Z</time>
      </trkpt>
      <trkpt lat="60.458308501991" lon="22.277432511637">
        <ele>0.4</ele>
        <time>2016-01-23T11:34:44Z</time>
      </trkpt>
      <trkpt lat="60.458306322697" lon="22.277430919076">
        <ele>0</ele>
        <time>2016-01-23T11:34:45Z</time>
      </trkpt>
      <trkpt lat="60.45830439486" lon="22.27742974561">
        <ele>0</ele>
        <time>2016-01-23T11:34:46Z</time>
      </trkpt>
      <trkpt lat="60.45830271848" lon="22.277428823601">
        <ele>0</ele>
        <time>2016-01-23T11:34:47Z</time>
      </trkpt>
      <trkpt lat="60.458302467023" lon="22.27742806923">
        <ele>0</ele>
        <time>2016-01-23T11:34:48Z</time>
      </trkpt>
      <trkpt lat="60.458302215566" lon="22.277427063402">
        <ele>0</ele>
        <time>2016-01-23T11:34:49Z</time>
      </trkpt>
      <trkpt lat="60.458301293557" lon="22.277425889936">
        <ele>0</ele>
        <time>2016-01-23T11:34:50Z</time>
      </trkpt>
      <trkpt lat="60.458300371548" lon="22.277425135565">
        <ele>0</ele>
        <time>2016-01-23T11:34:51Z</time>
      </trkpt>
      <trkpt lat="60.458299784815" lon="22.277424632651">
        <ele>0</ele>
        <time>2016-01-23T11:34:52Z</time>
      </trkpt>
      <trkpt lat="60.45829936572" lon="22.277424297375">
        <ele>0</ele>
        <time>2016-01-23T11:34:53Z</time>
      </trkpt>
      <trkpt lat="60.458299114263" lon="22.277424297375">
        <ele>0</ele>
        <time>2016-01-23T11:34:54Z</time>
      </trkpt>
      <trkpt lat="60.458298611349" lon="22.277423794461">
        <ele>0</ele>
        <time>2016-01-23T11:34:55Z</time>
      </trkpt>
      <trkpt lat="60.458298192254" lon="22.277423626823">
        <ele>0</ele>
        <time>2016-01-23T11:34:56Z</time>
      </trkpt>
      <trkpt lat="60.458297940797" lon="22.277423291547">
        <ele>0</ele>
        <time>2016-01-23T11:34:57Z</time>
      </trkpt>
      <trkpt lat="60.458298695168" lon="22.27743142199">
        <ele>0</ele>
        <time>2016-01-23T11:34:58Z</time>
      </trkpt>
      <trkpt lat="60.458298611349" lon="22.277427733954">
        <ele>0</ele>
        <time>2016-01-23T11:34:59Z</time>
      </trkpt>
      <trkpt lat="60.458295677684" lon="22.277435696759">
        <ele>0</ele>
        <time>2016-01-23T11:35:00Z</time>
      </trkpt>
      <trkpt lat="60.458289223621" lon="22.277435277664">
        <ele>0</ele>
        <time>2016-01-23T11:35:01Z</time>
      </trkpt>
      <trkpt lat="60.45827673459" lon="22.277431841085">
        <ele>0</ele>
        <time>2016-01-23T11:35:02Z</time>
      </trkpt>
      <trkpt lat="60.458266173396" lon="22.277436115854">
        <ele>0</ele>
        <time>2016-01-23T11:35:03Z</time>
      </trkpt>
      <trkpt lat="60.458253349089" lon="22.277427817773">
        <ele>0</ele>
        <time>2016-01-23T11:35:04Z</time>
      </trkpt>
      <trkpt lat="60.458238848402" lon="22.277428572144">
        <ele>0</ele>
        <time>2016-01-23T11:35:05Z</time>
      </trkpt>
      <trkpt lat="60.458224263896" lon="22.27742639285">
        <ele>0</ele>
        <time>2016-01-23T11:35:06Z</time>
      </trkpt>
      <trkpt lat="60.458212026322" lon="22.277423626823">
        <ele>0</ele>
        <time>2016-01-23T11:35:07Z</time>
      </trkpt>
      <trkpt lat="60.45819123921" lon="22.277422285719">
        <ele>0</ele>
        <time>2016-01-23T11:35:08Z</time>
      </trkpt>
      <trkpt lat="60.458175229781" lon="22.277422369538">
        <ele>0</ele>
        <time>2016-01-23T11:35:09Z</time>
      </trkpt>
      <trkpt lat="60.458161232008" lon="22.277420274063">
        <ele>0</ele>
        <time>2016-01-23T11:35:10Z</time>
      </trkpt>
      <trkpt lat="60.45814262419" lon="22.277419100597">
        <ele>0</ele>
        <time>2016-01-23T11:35:11Z</time>
      </trkpt>
      <trkpt lat="60.458126028028" lon="22.277419603511">
        <ele>0</ele>
        <time>2016-01-23T11:35:12Z</time>
      </trkpt>
      <trkpt lat="60.458108006943" lon="22.277418430045">
        <ele>0</ele>
        <time>2016-01-23T11:35:13Z</time>
      </trkpt>
      <trkpt lat="60.45809568555" lon="22.27741801095">
        <ele>0</ele>
        <time>2016-01-23T11:35:14Z</time>
      </trkpt>
      <trkpt lat="60.458075233714" lon="22.277414239095">
        <ele>0</ele>
        <time>2016-01-23T11:35:15Z</time>
      </trkpt>
      <trkpt lat="60.45806551071" lon="22.277414909647">
        <ele>0</ele>
        <time>2016-01-23T11:35:16Z</time>
      </trkpt>
      <trkpt lat="60.458044639779" lon="22.277412227439">
        <ele>0</ele>
        <time>2016-01-23T11:35:17Z</time>
      </trkpt>
      <trkpt lat="60.458032905119" lon="22.277411640706">
        <ele>0</ele>
        <time>2016-01-23T11:35:18Z</time>
      </trkpt>
      <trkpt lat="60.458015386948" lon="22.277409126136">
        <ele>0</ele>
        <time>2016-01-23T11:35:19Z</time>
      </trkpt>
      <trkpt lat="60.458004406659" lon="22.277410886335">
        <ele>0</ele>
        <time>2016-01-23T11:35:20Z</time>
      </trkpt>
      <trkpt lat="60.457990827981" lon="22.277410383421">
        <ele>0</ele>
        <time>2016-01-23T11:35:21Z</time>
      </trkpt>
      <trkpt lat="60.45797833895" lon="22.277409712869">
        <ele>0</ele>
        <time>2016-01-23T11:35:22Z</time>
      </trkpt>
      <trkpt lat="60.457966939566" lon="22.27741130543">
        <ele>0</ele>
        <time>2016-01-23T11:35:23Z</time>
      </trkpt>
      <trkpt lat="60.457948667024" lon="22.277408287946">
        <ele>0</ele>
        <time>2016-01-23T11:35:24Z</time>
      </trkpt>
      <trkpt lat="60.457941039495" lon="22.277411389249">
        <ele>0</ele>
        <time>2016-01-23T11:35:25Z</time>
      </trkpt>
      <trkpt lat="60.457926622627" lon="22.277407533575">
        <ele>0.2</ele>
        <time>2016-01-23T11:35:26Z</time>
      </trkpt>
      <trkpt lat="60.457915223243" lon="22.277408874679">
        <ele>0.8</ele>
        <time>2016-01-23T11:35:27Z</time>
      </trkpt>
      <trkpt lat="60.457904410592" lon="22.277405354281">
        <ele>1.2</ele>
        <time>2016-01-23T11:35:28Z</time>
      </trkpt>
      <trkpt lat="60.457895441959" lon="22.277405689557">
        <ele>1.8</ele>
        <time>2016-01-23T11:35:29Z</time>
      </trkpt>
      <trkpt lat="60.457899716728" lon="22.277406024833">
        <ele>2</ele>
        <time>2016-01-23T11:35:30Z</time>
      </trkpt>
      <trkpt lat="60.457893346484" lon="22.2774054381">
        <ele>1.8</ele>
        <time>2016-01-23T11:35:31Z</time>
      </trkpt>
      <trkpt lat="60.457892592113" lon="22.277405689557">
        <ele>1.8</ele>
        <time>2016-01-23T11:35:32Z</time>
      </trkpt>
      <trkpt lat="60.457893178846" lon="22.277405605738">
        <ele>1.8</ele>
        <time>2016-01-23T11:35:33Z</time>
      </trkpt>
      <trkpt lat="60.457893178846" lon="22.277407533575">
        <ele>1.8</ele>
        <time>2016-01-23T11:35:34Z</time>
      </trkpt>
      <trkpt lat="60.457893178846" lon="22.277410048145">
        <ele>1.6</ele>
        <time>2016-01-23T11:35:35Z</time>
      </trkpt>
      <trkpt lat="60.45789368176" lon="22.277410718697">
        <ele>1.6</ele>
        <time>2016-01-23T11:35:36Z</time>
      </trkpt>
      <trkpt lat="60.457892759751" lon="22.277412311258">
        <ele>1.6</ele>
        <time>2016-01-23T11:35:37Z</time>
      </trkpt>
      <trkpt lat="60.457892256837" lon="22.277414742009">
        <ele>1.6</ele>
        <time>2016-01-23T11:35:38Z</time>
      </trkpt>
      <trkpt lat="60.45789284357" lon="22.27741549638">
        <ele>1.6</ele>
        <time>2016-01-23T11:35:39Z</time>
      </trkpt>
      <trkpt lat="60.457893011208" lon="22.277415328742">
        <ele>1.6</ele>
        <time>2016-01-23T11:35:40Z</time>
      </trkpt>
      <trkpt lat="60.457892675932" lon="22.277415244923">
        <ele>1.6</ele>
        <time>2016-01-23T11:35:41Z</time>
      </trkpt>
      <trkpt lat="60.457890496638" lon="22.277415831656">
        <ele>1.6</ele>
        <time>2016-01-23T11:35:42Z</time>
      </trkpt>
      <trkpt lat="60.457883874937" lon="22.277412897991">
        <ele>1.8</ele>
        <time>2016-01-23T11:35:43Z</time>
      </trkpt>
      <trkpt lat="60.457877923788" lon="22.277414909647">
        <ele>2.2</ele>
        <time>2016-01-23T11:35:44Z</time>
      </trkpt>
      <trkpt lat="60.457870296259" lon="22.277415831656">
        <ele>2.6</ele>
        <time>2016-01-23T11:35:45Z</time>
      </trkpt>
      <trkpt lat="60.457865518576" lon="22.277413317086">
        <ele>2.8</ele>
        <time>2016-01-23T11:35:46Z</time>
      </trkpt>
      <trkpt lat="60.457858896875" lon="22.277412814172">
        <ele>3.2</ele>
        <time>2016-01-23T11:35:47Z</time>
      </trkpt>
      <trkpt lat="60.457853029545" lon="22.277411808344">
        <ele>3.4</ele>
        <time>2016-01-23T11:35:48Z</time>
      </trkpt>
      <trkpt lat="60.457848503319" lon="22.27741382">
        <ele>3.6</ele>
        <time>2016-01-23T11:35:49Z</time>
      </trkpt>
      <trkpt lat="60.457851017889" lon="22.277412814172">
        <ele>3.6</ele>
        <time>2016-01-23T11:35:50Z</time>
      </trkpt>
      <trkpt lat="60.457841630161" lon="22.277414574371">
        <ele>3.6</ele>
        <time>2016-01-23T11:35:51Z</time>
      </trkpt>
      <trkpt lat="60.457843306541" lon="22.277413652362">
        <ele>3.6</ele>
        <time>2016-01-23T11:35:52Z</time>
      </trkpt>
      <trkpt lat="60.4578316557" lon="22.277417759493">
        <ele>3.6</ele>
        <time>2016-01-23T11:35:53Z</time>
      </trkpt>
      <trkpt lat="60.45782159742" lon="22.277413065629">
        <ele>3.6</ele>
        <time>2016-01-23T11:35:54Z</time>
      </trkpt>
      <trkpt lat="60.457812293511" lon="22.277417759493">
        <ele>3.6</ele>
        <time>2016-01-23T11:35:55Z</time>
      </trkpt>
      <trkpt lat="60.45780064267" lon="22.277417591855">
        <ele>3.6</ele>
        <time>2016-01-23T11:35:56Z</time>
      </trkpt>
      <trkpt lat="60.457789662381" lon="22.277419771149">
        <ele>3.6</ele>
        <time>2016-01-23T11:35:57Z</time>
      </trkpt>
      <trkpt lat="60.457774994056" lon="22.277417088941">
        <ele>4</ele>
        <time>2016-01-23T11:35:58Z</time>
      </trkpt>
      <trkpt lat="60.457763175577" lon="22.277418346226">
        <ele>4.6</ele>
        <time>2016-01-23T11:35:59Z</time>
      </trkpt>
      <trkpt lat="60.45775035127" lon="22.277417591855">
        <ele>5</ele>
        <time>2016-01-23T11:36:00Z</time>
      </trkpt>
      <trkpt lat="60.457738113696" lon="22.277417843312">
        <ele>5.4</ele>
        <time>2016-01-23T11:36:01Z</time>
      </trkpt>
      <trkpt lat="60.457725624665" lon="22.27741633457">
        <ele>5.8</ele>
        <time>2016-01-23T11:36:02Z</time>
      </trkpt>
      <trkpt lat="60.457715231109" lon="22.277415077285">
        <ele>5.8</ele>
        <time>2016-01-23T11:36:03Z</time>
      </trkpt>
      <trkpt lat="60.457711207797" lon="22.27741884914">
        <ele>5.8</ele>
        <time>2016-01-23T11:36:04Z</time>
      </trkpt>
      <trkpt lat="60.457698132033" lon="22.277411892163">
        <ele>5.8</ele>
        <time>2016-01-23T11:36:05Z</time>
      </trkpt>
      <trkpt lat="60.45769167797" lon="22.277413652362">
        <ele>5.8</ele>
        <time>2016-01-23T11:36:06Z</time>
      </trkpt>
      <trkpt lat="60.457679608034" lon="22.277410131964">
        <ele>5.4</ele>
        <time>2016-01-23T11:36:07Z</time>
      </trkpt>
      <trkpt lat="60.457674327437" lon="22.277403677901">
        <ele>5.4</ele>
        <time>2016-01-23T11:36:08Z</time>
      </trkpt>
      <trkpt lat="60.457677009645" lon="22.277407198299">
        <ele>5.4</ele>
        <time>2016-01-23T11:36:09Z</time>
      </trkpt>
      <trkpt lat="60.457673992161" lon="22.277400241322">
        <ele>5.4</ele>
        <time>2016-01-23T11:36:10Z</time>
      </trkpt>
      <trkpt lat="60.457672651057" lon="22.277398816399">
        <ele>5.4</ele>
        <time>2016-01-23T11:36:11Z</time>
      </trkpt>
      <trkpt lat="60.457672148143" lon="22.277397642933">
        <ele>5.4</ele>
        <time>2016-01-23T11:36:12Z</time>
      </trkpt>
      <trkpt lat="60.457671645229" lon="22.2773970562">
        <ele>5.4</ele>
        <time>2016-01-23T11:36:13Z</time>
      </trkpt>
      <trkpt lat="60.457671393772" lon="22.277396637105">
        <ele>5.4</ele>
        <time>2016-01-23T11:36:14Z</time>
      </trkpt>
      <trkpt lat="60.457671058496" lon="22.277395715096">
        <ele>5.4</ele>
        <time>2016-01-23T11:36:15Z</time>
      </trkpt>
      <trkpt lat="60.457670555582" lon="22.277394206354">
        <ele>5.4</ele>
        <time>2016-01-23T11:36:16Z</time>
      </trkpt>
      <trkpt lat="60.457670220306" lon="22.277393200526">
        <ele>5.4</ele>
        <time>2016-01-23T11:36:17Z</time>
      </trkpt>
      <trkpt lat="60.45767072322" lon="22.277394122535">
        <ele>5.4</ele>
        <time>2016-01-23T11:36:18Z</time>
      </trkpt>
      <trkpt lat="60.457670890858" lon="22.277395631277">
        <ele>5.4</ele>
        <time>2016-01-23T11:36:19Z</time>
      </trkpt>
      <trkpt lat="60.45767072322" lon="22.277394793087">
        <ele>5.6</ele>
        <time>2016-01-23T11:36:20Z</time>
      </trkpt>
      <trkpt lat="60.457670555582" lon="22.277392949069">
        <ele>6</ele>
        <time>2016-01-23T11:36:21Z</time>
      </trkpt>
      <trkpt lat="60.457670807039" lon="22.277391859422">
        <ele>6.2</ele>
        <time>2016-01-23T11:36:22Z</time>
      </trkpt>
      <trkpt lat="60.457670807039" lon="22.277391105051">
        <ele>6.6</ele>
        <time>2016-01-23T11:36:23Z</time>
      </trkpt>
      <trkpt lat="60.457670555582" lon="22.277390518318">
        <ele>7</ele>
        <time>2016-01-23T11:36:24Z</time>
      </trkpt>
      <trkpt lat="60.457670220306" lon="22.277389847766">
        <ele>7.4</ele>
        <time>2016-01-23T11:36:25Z</time>
      </trkpt>
      <trkpt lat="60.457669801211" lon="22.277389763947">
        <ele>7.4</ele>
        <time>2016-01-23T11:36:26Z</time>
      </trkpt>
      <trkpt lat="60.457669549754" lon="22.277390099223">
        <ele>7.4</ele>
        <time>2016-01-23T11:36:27Z</time>
      </trkpt>
      <trkpt lat="60.457669298297" lon="22.277390769775">
        <ele>7.4</ele>
        <time>2016-01-23T11:36:28Z</time>
      </trkpt>
      <trkpt lat="60.457668460107" lon="22.277407701213">
        <ele>7.4</ele>
        <time>2016-01-23T11:36:29Z</time>
      </trkpt>
      <trkpt lat="60.457668543926" lon="22.27739873258">
        <ele>7.4</ele>
        <time>2016-01-23T11:36:30Z</time>
      </trkpt>
      <trkpt lat="60.457661084035" lon="22.277403929358">
        <ele>7.4</ele>
        <time>2016-01-23T11:36:31Z</time>
      </trkpt>
      <trkpt lat="60.457653288868" lon="22.277404683729">
        <ele>7.4</ele>
        <time>2016-01-23T11:36:32Z</time>
      </trkpt>
      <trkpt lat="60.457644404054" lon="22.27739789439">
        <ele>7.4</ele>
        <time>2016-01-23T11:36:33Z</time>
      </trkpt>
      <trkpt lat="60.457636022154" lon="22.277397726752">
        <ele>7.4</ele>
        <time>2016-01-23T11:36:34Z</time>
      </trkpt>
      <trkpt lat="60.457620012725" lon="22.27739286525">
        <ele>7.4</ele>
        <time>2016-01-23T11:36:35Z</time>
      </trkpt>
      <trkpt lat="60.45760702078" lon="22.277388758119">
        <ele>7.4</ele>
        <time>2016-01-23T11:36:36Z</time>
      </trkpt>
      <trkpt lat="60.457593442102" lon="22.277387752291">
        <ele>7.4</ele>
        <time>2016-01-23T11:36:37Z</time>
      </trkpt>
      <trkpt lat="60.457574163732" lon="22.277382555513">
        <ele>7.4</ele>
        <time>2016-01-23T11:36:38Z</time>
      </trkpt>
      <trkpt lat="60.457564859823" lon="22.277381884961">
        <ele>7.4</ele>
        <time>2016-01-23T11:36:39Z</time>
      </trkpt>
      <trkpt lat="60.457548431299" lon="22.277375598536">
        <ele>7.4</ele>
        <time>2016-01-23T11:36:40Z</time>
      </trkpt>
      <trkpt lat="60.457537367191" lon="22.277376185269">
        <ele>7.4</ele>
        <time>2016-01-23T11:36:41Z</time>
      </trkpt>
      <trkpt lat="60.45751398169" lon="22.277370737034">
        <ele>7.4</ele>
        <time>2016-01-23T11:36:42Z</time>
      </trkpt>
      <trkpt lat="60.457504091048" lon="22.27737358688">
        <ele>7.4</ele>
        <time>2016-01-23T11:36:43Z</time>
      </trkpt>
      <trkpt lat="60.457482381927" lon="22.277367635731">
        <ele>7.4</ele>
        <time>2016-01-23T11:36:44Z</time>
      </trkpt>
      <trkpt lat="60.457472994199" lon="22.277368306283">
        <ele>7.4</ele>
        <time>2016-01-23T11:36:45Z</time>
      </trkpt>
      <trkpt lat="60.457455978942" lon="22.277364618247">
        <ele>7.4</ele>
        <time>2016-01-23T11:36:46Z</time>
      </trkpt>
      <trkpt lat="60.457436532934" lon="22.277365121161">
        <ele>7.4</ele>
        <time>2016-01-23T11:36:47Z</time>
      </trkpt>
      <trkpt lat="60.457420272048" lon="22.277364785885">
        <ele>7.4</ele>
        <time>2016-01-23T11:36:48Z</time>
      </trkpt>
      <trkpt lat="60.457401077497" lon="22.277360594935">
        <ele>8.6</ele>
        <time>2016-01-23T11:36:49Z</time>
      </trkpt>
      <trkpt lat="60.457388588466" lon="22.277364450609">
        <ele>8.6</ele>
        <time>2016-01-23T11:36:50Z</time>
      </trkpt>
      <trkpt lat="60.457370315924" lon="22.27736185222">
        <ele>8.6</ele>
        <time>2016-01-23T11:36:51Z</time>
      </trkpt>
      <trkpt lat="60.457358581264" lon="22.277364953523">
        <ele>8.6</ele>
        <time>2016-01-23T11:36:52Z</time>
      </trkpt>
      <trkpt lat="60.457333938478" lon="22.277360511116">
        <ele>8.6</ele>
        <time>2016-01-23T11:36:53Z</time>
      </trkpt>
      <trkpt lat="60.457323796379" lon="22.277362774229">
        <ele>8.6</ele>
        <time>2016-01-23T11:36:54Z</time>
      </trkpt>
      <trkpt lat="60.457303260724" lon="22.27735682308">
        <ele>8.6</ele>
        <time>2016-01-23T11:36:55Z</time>
      </trkpt>
      <trkpt lat="60.457293202444" lon="22.277356739261">
        <ele>8.6</ele>
        <time>2016-01-23T11:36:56Z</time>
      </trkpt>
      <trkpt lat="60.457277360653" lon="22.27735179394">
        <ele>8.6</ele>
        <time>2016-01-23T11:36:57Z</time>
      </trkpt>
      <trkpt lat="60.457267470011" lon="22.27735011756">
        <ele>8.6</ele>
        <time>2016-01-23T11:36:58Z</time>
      </trkpt>
      <trkpt lat="60.457253807514" lon="22.277348189723">
        <ele>8.2</ele>
        <time>2016-01-23T11:36:59Z</time>
      </trkpt>
      <trkpt lat="60.457243497777" lon="22.277345172239">
        <ele>7.8</ele>
        <time>2016-01-23T11:37:00Z</time>
      </trkpt>
      <trkpt lat="60.457234193868" lon="22.277343579678">
        <ele>7.4</ele>
        <time>2016-01-23T11:37:01Z</time>
      </trkpt>
      <trkpt lat="60.457225560511" lon="22.277340143099">
        <ele>7.2</ele>
        <time>2016-01-23T11:37:02Z</time>
      </trkpt>
      <trkpt lat="60.457219357905" lon="22.277339556366">
        <ele>6.8</ele>
        <time>2016-01-23T11:37:03Z</time>
      </trkpt>
      <trkpt lat="60.457216927154" lon="22.277335365416">
        <ele>6.6</ele>
        <time>2016-01-23T11:37:04Z</time>
      </trkpt>
      <trkpt lat="60.457217513887" lon="22.277336119787">
        <ele>6.6</ele>
        <time>2016-01-23T11:37:05Z</time>
      </trkpt>
      <trkpt lat="60.457211981833" lon="22.277332767027">
        <ele>6.6</ele>
        <time>2016-01-23T11:37:06Z</time>
      </trkpt>
      <trkpt lat="60.457208796711" lon="22.277333437579">
        <ele>6.6</ele>
        <time>2016-01-23T11:37:07Z</time>
      </trkpt>
      <trkpt lat="60.457198235517" lon="22.277332683208">
        <ele>6.6</ele>
        <time>2016-01-23T11:37:08Z</time>
      </trkpt>
      <trkpt lat="60.457190943264" lon="22.277332347932">
        <ele>6.6</ele>
        <time>2016-01-23T11:37:09Z</time>
      </trkpt>
      <trkpt lat="60.457185662667" lon="22.277333689036">
        <ele>6.6</ele>
        <time>2016-01-23T11:37:10Z</time>
      </trkpt>
      <trkpt lat="60.457170910523" lon="22.277329330448">
        <ele>6.6</ele>
        <time>2016-01-23T11:37:11Z</time>
      </trkpt>
      <trkpt lat="60.457161187519" lon="22.277331845018">
        <ele>6.6</ele>
        <time>2016-01-23T11:37:12Z</time>
      </trkpt>
      <trkpt lat="60.457146686832" lon="22.277327737887">
        <ele>6.6</ele>
        <time>2016-01-23T11:37:13Z</time>
      </trkpt>
      <trkpt lat="60.457135790362" lon="22.277326480602">
        <ele>6.6</ele>
        <time>2016-01-23T11:37:14Z</time>
      </trkpt>
      <trkpt lat="60.457128246652" lon="22.277328156982">
        <ele>6.6</ele>
        <time>2016-01-23T11:37:15Z</time>
      </trkpt>
      <trkpt lat="60.457116931087" lon="22.277324049851">
        <ele>6.6</ele>
        <time>2016-01-23T11:37:16Z</time>
      </trkpt>
      <trkpt lat="60.457110057929" lon="22.27732497186">
        <ele>6.6</ele>
        <time>2016-01-23T11:37:17Z</time>
      </trkpt>
      <trkpt lat="60.457104274418" lon="22.277325390955">
        <ele>6.6</ele>
        <time>2016-01-23T11:37:18Z</time>
      </trkpt>
      <trkpt lat="60.457106788988" lon="22.277325558593">
        <ele>6.6</ele>
        <time>2016-01-23T11:37:19Z</time>
      </trkpt>
      <trkpt lat="60.457100083468" lon="22.277321535281">
        <ele>6.6</ele>
        <time>2016-01-23T11:37:20Z</time>
      </trkpt>
      <trkpt lat="60.457099496735" lon="22.277319858901">
        <ele>6.6</ele>
        <time>2016-01-23T11:37:21Z</time>
      </trkpt>
      <trkpt lat="60.457098910002" lon="22.277319691263">
        <ele>6.6</ele>
        <time>2016-01-23T11:37:22Z</time>
      </trkpt>
      <trkpt lat="60.457097820355" lon="22.277317595788">
        <ele>6.6</ele>
        <time>2016-01-23T11:37:23Z</time>
      </trkpt>
      <trkpt lat="60.457095976337" lon="22.277317092874">
        <ele>6.6</ele>
        <time>2016-01-23T11:37:24Z</time>
      </trkpt>
      <trkpt lat="60.457093797043" lon="22.277316841417">
        <ele>6.6</ele>
        <time>2016-01-23T11:37:25Z</time>
      </trkpt>
      <trkpt lat="60.457092791215" lon="22.277317511969">
        <ele>6.6</ele>
        <time>2016-01-23T11:37:26Z</time>
      </trkpt>
      <trkpt lat="60.457091785387" lon="22.27731826634">
        <ele>6.6</ele>
        <time>2016-01-23T11:37:27Z</time>
      </trkpt>
      <trkpt lat="60.457090779559" lon="22.277317931064">
        <ele>6.6</ele>
        <time>2016-01-23T11:37:28Z</time>
      </trkpt>
      <trkpt lat="60.457089522274" lon="22.27731826634">
        <ele>6.6</ele>
        <time>2016-01-23T11:37:29Z</time>
      </trkpt>
      <trkpt lat="60.457088013532" lon="22.277317595788">
        <ele>6.6</ele>
        <time>2016-01-23T11:37:30Z</time>
      </trkpt>
      <trkpt lat="60.457085247505" lon="22.277315165037">
        <ele>6.6</ele>
        <time>2016-01-23T11:37:31Z</time>
      </trkpt>
      <trkpt lat="60.45708231384" lon="22.277314662123">
        <ele>6.6</ele>
        <time>2016-01-23T11:37:32Z</time>
      </trkpt>
      <trkpt lat="60.457079044899" lon="22.277315332675">
        <ele>6.6</ele>
        <time>2016-01-23T11:37:33Z</time>
      </trkpt>
      <trkpt lat="60.457072423198" lon="22.277315584132">
        <ele>6.6</ele>
        <time>2016-01-23T11:37:34Z</time>
      </trkpt>
      <trkpt lat="60.45705884452" lon="22.277313069562">
        <ele>6.6</ele>
        <time>2016-01-23T11:37:35Z</time>
      </trkpt>
      <trkpt lat="60.457051971362" lon="22.277313656295">
        <ele>6.6</ele>
        <time>2016-01-23T11:37:36Z</time>
      </trkpt>
      <trkpt lat="60.457037554494" lon="22.277308124241">
        <ele>6.6</ele>
        <time>2016-01-23T11:37:37Z</time>
      </trkpt>
      <trkpt lat="60.457028418223" lon="22.277309213888">
        <ele>6.6</ele>
        <time>2016-01-23T11:37:38Z</time>
      </trkpt>
      <trkpt lat="60.457012324975" lon="22.277305442033">
        <ele>6.6</ele>
        <time>2016-01-23T11:37:39Z</time>
      </trkpt>
      <trkpt lat="60.457004194532" lon="22.277304771481">
        <ele>6.6</ele>
        <time>2016-01-23T11:37:40Z</time>
      </trkpt>
      <trkpt lat="60.456986089628" lon="22.277302089273">
        <ele>6.6</ele>
        <time>2016-01-23T11:37:41Z</time>
      </trkpt>
      <trkpt lat="60.456974522606" lon="22.277301837816">
        <ele>6.6</ele>
        <time>2016-01-23T11:37:42Z</time>
      </trkpt>
      <trkpt lat="60.456957591168" lon="22.277303430377">
        <ele>6.6</ele>
        <time>2016-01-23T11:37:43Z</time>
      </trkpt>
      <trkpt lat="60.456944096309" lon="22.277301753997">
        <ele>6.6</ele>
        <time>2016-01-23T11:37:44Z</time>
      </trkpt>
      <trkpt lat="60.456929092708" lon="22.277303849472">
        <ele>6.6</ele>
        <time>2016-01-23T11:37:45Z</time>
      </trkpt>
      <trkpt lat="60.456917022772" lon="22.277302256911">
        <ele>6.6</ele>
        <time>2016-01-23T11:37:46Z</time>
      </trkpt>
      <trkpt lat="60.456902857361" lon="22.277300077617">
        <ele>6.6</ele>
        <time>2016-01-23T11:37:47Z</time>
      </trkpt>
      <trkpt lat="60.456890535968" lon="22.277297730685">
        <ele>6.6</ele>
        <time>2016-01-23T11:37:48Z</time>
      </trkpt>
      <trkpt lat="60.45687360453" lon="22.277289935518">
        <ele>6.6</ele>
        <time>2016-01-23T11:37:49Z</time>
      </trkpt>
      <trkpt lat="60.45686103168" lon="22.2772880915">
        <ele>6.6</ele>
        <time>2016-01-23T11:37:50Z</time>
      </trkpt>
      <trkpt lat="60.456849799934" lon="22.277286918034">
        <ele>6.6</ele>
        <time>2016-01-23T11:37:51Z</time>
      </trkpt>
      <trkpt lat="60.456836305075" lon="22.277285157835">
        <ele>6.6</ele>
        <time>2016-01-23T11:37:52Z</time>
      </trkpt>
      <trkpt lat="60.456818367809" lon="22.277279793419">
        <ele>6.6</ele>
        <time>2016-01-23T11:37:53Z</time>
      </trkpt>
      <trkpt lat="60.456807303701" lon="22.277278703772">
        <ele>6.6</ele>
        <time>2016-01-23T11:37:54Z</time>
      </trkpt>
      <trkpt lat="60.456788360607" lon="22.277274009908">
        <ele>6.6</ele>
        <time>2016-01-23T11:37:55Z</time>
      </trkpt>
      <trkpt lat="60.456778218508" lon="22.277271160062">
        <ele>6.6</ele>
        <time>2016-01-23T11:37:56Z</time>
      </trkpt>
      <trkpt lat="60.456761706165" lon="22.277266214741">
        <ele>6.6</ele>
        <time>2016-01-23T11:37:57Z</time>
      </trkpt>
      <trkpt lat="60.456749720048" lon="22.277262359067">
        <ele>6.6</ele>
        <time>2016-01-23T11:37:58Z</time>
      </trkpt>
      <trkpt lat="60.456735638456" lon="22.277255821185">
        <ele>6.6</ele>
        <time>2016-01-23T11:37:59Z</time>
      </trkpt>
      <trkpt lat="60.456721975959" lon="22.277249115665">
        <ele>6.6</ele>
        <time>2016-01-23T11:38:00Z</time>
      </trkpt>
      <trkpt lat="60.456713677878" lon="22.277248361294">
        <ele>6.6</ele>
        <time>2016-01-23T11:38:01Z</time>
      </trkpt>
      <trkpt lat="60.456693058404" lon="22.27724031467">
        <ele>6.6</ele>
        <time>2016-01-23T11:38:02Z</time>
      </trkpt>
      <trkpt lat="60.456678557717" lon="22.277236878091">
        <ele>6.6</ele>
        <time>2016-01-23T11:38:03Z</time>
      </trkpt>
      <trkpt lat="60.456655088397" lon="22.277228915286">
        <ele>6.6</ele>
        <time>2016-01-23T11:38:04Z</time>
      </trkpt>
      <trkpt lat="60.456628685412" lon="22.277223299413">
        <ele>6.6</ele>
        <time>2016-01-23T11:38:05Z</time>
      </trkpt>
      <trkpt lat="60.456612592164" lon="22.277225981621">
        <ele>6.2</ele>
        <time>2016-01-23T11:38:06Z</time>
      </trkpt>
      <trkpt lat="60.456584093704" lon="22.277214917513">
        <ele>5.8</ele>
        <time>2016-01-23T11:38:07Z</time>
      </trkpt>
      <trkpt lat="60.456562300764" lon="22.277198488989">
        <ele>5.4</ele>
        <time>2016-01-23T11:38:08Z</time>
      </trkpt>
      <trkpt lat="60.4565408431" lon="22.277202428482">
        <ele>4.8</ele>
        <time>2016-01-23T11:38:09Z</time>
      </trkpt>
      <trkpt lat="60.4565156974" lon="22.277193543668">
        <ele>4.4</ele>
        <time>2016-01-23T11:38:10Z</time>
      </trkpt>
      <trkpt lat="60.45648552256" lon="22.277184491216">
        <ele>4.2</ele>
        <time>2016-01-23T11:38:11Z</time>
      </trkpt>
      <trkpt lat="60.456459622489" lon="22.277190107089">
        <ele>4.2</ele>
        <time>2016-01-23T11:38:12Z</time>
      </trkpt>
      <trkpt lat="60.456433303323" lon="22.277183233931">
        <ele>4.2</ele>
        <time>2016-01-23T11:38:13Z</time>
      </trkpt>
      <trkpt lat="60.456405726872" lon="22.277171750728">
        <ele>4.2</ele>
        <time>2016-01-23T11:38:14Z</time>
      </trkpt>
      <trkpt lat="60.456381587" lon="22.2771707449">
        <ele>4.2</ele>
        <time>2016-01-23T11:38:15Z</time>
      </trkpt>
      <trkpt lat="60.456362057173" lon="22.277168397968">
        <ele>4.2</ele>
        <time>2016-01-23T11:38:16Z</time>
      </trkpt>
      <trkpt lat="60.456339006948" lon="22.277162279181">
        <ele>4.2</ele>
        <time>2016-01-23T11:38:17Z</time>
      </trkpt>
      <trkpt lat="60.456311598135" lon="22.277157250041">
        <ele>4.8</ele>
        <time>2016-01-23T11:38:18Z</time>
      </trkpt>
      <trkpt lat="60.456284943693" lon="22.277162446819">
        <ele>5.2</ele>
        <time>2016-01-23T11:38:19Z</time>
      </trkpt>
      <trkpt lat="60.456260217088" lon="22.277156160394">
        <ele>5.2</ele>
        <time>2016-01-23T11:38:20Z</time>
      </trkpt>
      <trkpt lat="60.456230209886" lon="22.277147024123">
        <ele>5</ele>
        <time>2016-01-23T11:38:21Z</time>
      </trkpt>
      <trkpt lat="60.456197855752" lon="22.277134283635">
        <ele>4.8</ele>
        <time>2016-01-23T11:38:22Z</time>
      </trkpt>
      <trkpt lat="60.456167429455" lon="22.277125734097">
        <ele>4.8</ele>
        <time>2016-01-23T11:38:23Z</time>
      </trkpt>
      <trkpt lat="60.45613683552" lon="22.277114418532">
        <ele>4.6</ele>
        <time>2016-01-23T11:38:24Z</time>
      </trkpt>
      <trkpt lat="60.456105990128" lon="22.277098828198">
        <ele>4.6</ele>
        <time>2016-01-23T11:38:25Z</time>
      </trkpt>
      <trkpt lat="60.456081179704" lon="22.277082064398">
        <ele>4.6</ele>
        <time>2016-01-23T11:38:26Z</time>
      </trkpt>
      <trkpt lat="60.456062152791" lon="22.277071084109">
        <ele>4.6</ele>
        <time>2016-01-23T11:38:27Z</time>
      </trkpt>
      <trkpt lat="60.456045975724" lon="22.277059097992">
        <ele>4.6</ele>
        <time>2016-01-23T11:38:28Z</time>
      </trkpt>
      <trkpt lat="60.456031391218" lon="22.277049626445">
        <ele>4.6</ele>
        <time>2016-01-23T11:38:29Z</time>
      </trkpt>
      <trkpt lat="60.456020410929" lon="22.277041579821">
        <ele>4.6</ele>
        <time>2016-01-23T11:38:30Z</time>
      </trkpt>
      <trkpt lat="60.45601445978" lon="22.277037053595">
        <ele>4.6</ele>
        <time>2016-01-23T11:38:31Z</time>
      </trkpt>
      <trkpt lat="60.456008089536" lon="22.277026827677">
        <ele>4.6</ele>
        <time>2016-01-23T11:38:32Z</time>
      </trkpt>
      <trkpt lat="60.456010604106" lon="22.277030348075">
        <ele>4.6</ele>
        <time>2016-01-23T11:38:33Z</time>
      </trkpt>
      <trkpt lat="60.456006999889" lon="22.277020038338">
        <ele>4.6</ele>
        <time>2016-01-23T11:38:34Z</time>
      </trkpt>
      <trkpt lat="60.456006413156" lon="22.277017188492">
        <ele>4.6</ele>
        <time>2016-01-23T11:38:35Z</time>
      </trkpt>
      <trkpt lat="60.456004988233" lon="22.277013332818">
        <ele>4.6</ele>
        <time>2016-01-23T11:38:36Z</time>
      </trkpt>
      <trkpt lat="60.456002222206" lon="22.277009225687">
        <ele>4.6</ele>
        <time>2016-01-23T11:38:37Z</time>
      </trkpt>
      <trkpt lat="60.456000378188" lon="22.277005789108">
        <ele>4.6</ele>
        <time>2016-01-23T11:38:38Z</time>
      </trkpt>
      <trkpt lat="60.45599937236" lon="22.277004028909">
        <ele>4.6</ele>
        <time>2016-01-23T11:38:39Z</time>
      </trkpt>
      <trkpt lat="60.455998617989" lon="22.277002603986">
        <ele>4.6</ele>
        <time>2016-01-23T11:38:40Z</time>
      </trkpt>
      <trkpt lat="60.455996773971" lon="22.27700226871">
        <ele>4.6</ele>
        <time>2016-01-23T11:38:41Z</time>
      </trkpt>
      <trkpt lat="60.455995013772" lon="22.277000843787">
        <ele>4.6</ele>
        <time>2016-01-23T11:38:42Z</time>
      </trkpt>
      <trkpt lat="60.45599350503" lon="22.276997993941">
        <ele>4.6</ele>
        <time>2016-01-23T11:38:43Z</time>
      </trkpt>
      <trkpt lat="60.455991744831" lon="22.276996988113">
        <ele>4.6</ele>
        <time>2016-01-23T11:38:44Z</time>
      </trkpt>
      <trkpt lat="60.455989984632" lon="22.276995814647">
        <ele>4.6</ele>
        <time>2016-01-23T11:38:45Z</time>
      </trkpt>
      <trkpt lat="60.45598847589" lon="22.276994305905">
        <ele>4.6</ele>
        <time>2016-01-23T11:38:46Z</time>
      </trkpt>
      <trkpt lat="60.455987386243" lon="22.276993551534">
        <ele>4.6</ele>
        <time>2016-01-23T11:38:47Z</time>
      </trkpt>
      <trkpt lat="60.455987218605" lon="22.277005370013">
        <ele>4.6</ele>
        <time>2016-01-23T11:38:48Z</time>
      </trkpt>
      <trkpt lat="60.455991996288" lon="22.277007465488">
        <ele>4.6</ele>
        <time>2016-01-23T11:38:49Z</time>
      </trkpt>
      <trkpt lat="60.455988978804" lon="22.277005118556">
        <ele>4.6</ele>
        <time>2016-01-23T11:38:50Z</time>
      </trkpt>
      <trkpt lat="60.455992499202" lon="22.27700394509">
        <ele>4.6</ele>
        <time>2016-01-23T11:38:51Z</time>
      </trkpt>
      <trkpt lat="60.455991744831" lon="22.277002352529">
        <ele>4.6</ele>
        <time>2016-01-23T11:38:52Z</time>
      </trkpt>
      <trkpt lat="60.455990822822" lon="22.277001346701">
        <ele>4.6</ele>
        <time>2016-01-23T11:38:53Z</time>
      </trkpt>
      <trkpt lat="60.455989816994" lon="22.27699975414">
        <ele>4.6</ele>
        <time>2016-01-23T11:38:54Z</time>
      </trkpt>
      <trkpt lat="60.455989481718" lon="22.276997993941">
        <ele>4.6</ele>
        <time>2016-01-23T11:38:55Z</time>
      </trkpt>
      <trkpt lat="60.455988978804" lon="22.27699640138">
        <ele>4.6</ele>
        <time>2016-01-23T11:38:56Z</time>
      </trkpt>
      <trkpt lat="60.455987386243" lon="22.276994222086">
        <ele>4.6</ele>
        <time>2016-01-23T11:38:57Z</time>
      </trkpt>
      <trkpt lat="60.455986380415" lon="22.276991707516">
        <ele>4.6</ele>
        <time>2016-01-23T11:38:58Z</time>
      </trkpt>
      <trkpt lat="60.455986045139" lon="22.276989192946">
        <ele>4.6</ele>
        <time>2016-01-23T11:38:59Z</time>
      </trkpt>
      <trkpt lat="60.45598596132" lon="22.276985924005">
        <ele>4.6</ele>
        <time>2016-01-23T11:39:00Z</time>
      </trkpt>
      <trkpt lat="60.455987386243" lon="22.276984163806">
        <ele>4.6</ele>
        <time>2016-01-23T11:39:01Z</time>
      </trkpt>
      <trkpt lat="60.455988392071" lon="22.27698466672">
        <ele>4.6</ele>
        <time>2016-01-23T11:39:02Z</time>
      </trkpt>
      <trkpt lat="60.455986548053" lon="22.276991875154">
        <ele>4.6</ele>
        <time>2016-01-23T11:39:03Z</time>
      </trkpt>
      <trkpt lat="60.455987302424" lon="22.276987768023">
        <ele>4.6</ele>
        <time>2016-01-23T11:39:04Z</time>
      </trkpt>
      <trkpt lat="60.455987805338" lon="22.276986762195">
        <ele>4.6</ele>
        <time>2016-01-23T11:39:05Z</time>
      </trkpt>
      <trkpt lat="60.455986045139" lon="22.276986762195">
        <ele>4.6</ele>
        <time>2016-01-23T11:39:06Z</time>
      </trkpt>
      <trkpt lat="60.455985290768" lon="22.276983409435">
        <ele>4.6</ele>
        <time>2016-01-23T11:39:07Z</time>
      </trkpt>
      <trkpt lat="60.455985542225" lon="22.276981230141">
        <ele>4.6</ele>
        <time>2016-01-23T11:39:08Z</time>
      </trkpt>
      <trkpt lat="60.455985793682" lon="22.27698131396">
        <ele>4.6</ele>
        <time>2016-01-23T11:39:09Z</time>
      </trkpt>
      <trkpt lat="60.455981099818" lon="22.276983493254">
        <ele>4.6</ele>
        <time>2016-01-23T11:39:10Z</time>
      </trkpt>
      <trkpt lat="60.455978333791" lon="22.276975530449">
        <ele>4.6</ele>
        <time>2016-01-23T11:39:11Z</time>
      </trkpt>
      <trkpt lat="60.455979507257" lon="22.276979050847">
        <ele>4.6</ele>
        <time>2016-01-23T11:39:12Z</time>
      </trkpt>
      <trkpt lat="60.455977998515" lon="22.276981062503">
        <ele>4.6</ele>
        <time>2016-01-23T11:39:13Z</time>
      </trkpt>
      <trkpt lat="60.455979171981" lon="22.276977625924">
        <ele>4.6</ele>
        <time>2016-01-23T11:39:14Z</time>
      </trkpt>
      <trkpt lat="60.455973723746" lon="22.276982235969">
        <ele>4.6</ele>
        <time>2016-01-23T11:39:15Z</time>
      </trkpt>
      <trkpt lat="60.455976405954" lon="22.276978631752">
        <ele>5</ele>
        <time>2016-01-23T11:39:16Z</time>
      </trkpt>
      <trkpt lat="60.455971041538" lon="22.276976787734">
        <ele>5.4</ele>
        <time>2016-01-23T11:39:17Z</time>
      </trkpt>
      <trkpt lat="60.45596919752" lon="22.276978296476">
        <ele>5.2</ele>
        <time>2016-01-23T11:39:18Z</time>
      </trkpt>
      <trkpt lat="60.455967772597" lon="22.276982319788">
        <ele>5</ele>
        <time>2016-01-23T11:39:19Z</time>
      </trkpt>
      <trkpt lat="60.455966599131" lon="22.276984499082">
        <ele>5</ele>
        <time>2016-01-23T11:39:20Z</time>
      </trkpt>
      <trkpt lat="60.455965090389" lon="22.276986091643">
        <ele>4.8</ele>
        <time>2016-01-23T11:39:21Z</time>
      </trkpt>
      <trkpt lat="60.455963497828" lon="22.276976955372">
        <ele>4.6</ele>
        <time>2016-01-23T11:39:22Z</time>
      </trkpt>
      <trkpt lat="60.455958971602" lon="22.276974776078">
        <ele>4.6</ele>
        <time>2016-01-23T11:39:23Z</time>
      </trkpt>
      <trkpt lat="60.455961150896" lon="22.276975698087">
        <ele>4.6</ele>
        <time>2016-01-23T11:39:24Z</time>
      </trkpt>
      <trkpt lat="60.455955115928" lon="22.276975362811">
        <ele>4.6</ele>
        <time>2016-01-23T11:39:25Z</time>
      </trkpt>
      <trkpt lat="60.455953188091" lon="22.276975865725">
        <ele>4.6</ele>
        <time>2016-01-23T11:39:26Z</time>
      </trkpt>
      <trkpt lat="60.455951511711" lon="22.276975362811">
        <ele>4.6</ele>
        <time>2016-01-23T11:39:27Z</time>
      </trkpt>
      <trkpt lat="60.455948745684" lon="22.276976620096">
        <ele>4.6</ele>
        <time>2016-01-23T11:39:28Z</time>
      </trkpt>
      <trkpt lat="60.455945979657" lon="22.276980224313">
        <ele>4.6</ele>
        <time>2016-01-23T11:39:29Z</time>
      </trkpt>
      <trkpt lat="60.455945644381" lon="22.276980224313">
        <ele>4.6</ele>
        <time>2016-01-23T11:39:30Z</time>
      </trkpt>
      <trkpt lat="60.455945309105" lon="22.27697963758">
        <ele>4.6</ele>
        <time>2016-01-23T11:39:31Z</time>
      </trkpt>
      <trkpt lat="60.455944554734" lon="22.276982068331">
        <ele>4.6</ele>
        <time>2016-01-23T11:39:32Z</time>
      </trkpt>
      <trkpt lat="60.45594489001" lon="22.276978715571">
        <ele>4.6</ele>
        <time>2016-01-23T11:39:33Z</time>
      </trkpt>
      <trkpt lat="60.455945392924" lon="22.276976117182">
        <ele>4.6</ele>
        <time>2016-01-23T11:39:34Z</time>
      </trkpt>
      <trkpt lat="60.455945895838" lon="22.276978464114">
        <ele>4.6</ele>
        <time>2016-01-23T11:39:35Z</time>
      </trkpt>
      <trkpt lat="60.455945392924" lon="22.276980056675">
        <ele>4.6</ele>
        <time>2016-01-23T11:39:36Z</time>
      </trkpt>
      <trkpt lat="60.455945057648" lon="22.276980811046">
        <ele>4.6</ele>
        <time>2016-01-23T11:39:37Z</time>
      </trkpt>
      <trkpt lat="60.455945057648" lon="22.276980894865">
        <ele>4.6</ele>
        <time>2016-01-23T11:39:38Z</time>
      </trkpt>
      <trkpt lat="60.455944303277" lon="22.276981062503">
        <ele>4.6</ele>
        <time>2016-01-23T11:39:39Z</time>
      </trkpt>
      <trkpt lat="60.455944219458" lon="22.276979553761">
        <ele>4.6</ele>
        <time>2016-01-23T11:39:40Z</time>
      </trkpt>
      <trkpt lat="60.455943297449" lon="22.276975027535">
        <ele>4.6</ele>
        <time>2016-01-23T11:39:41Z</time>
      </trkpt>
      <trkpt lat="60.455938352128" lon="22.276976536277">
        <ele>4.6</ele>
        <time>2016-01-23T11:39:42Z</time>
      </trkpt>
      <trkpt lat="60.455940196146" lon="22.276974356983">
        <ele>4.6</ele>
        <time>2016-01-23T11:39:43Z</time>
      </trkpt>
      <trkpt lat="60.455936759567" lon="22.276972261508">
        <ele>4.6</ele>
        <time>2016-01-23T11:39:44Z</time>
      </trkpt>
      <trkpt lat="60.455935083187" lon="22.276971842413">
        <ele>4.6</ele>
        <time>2016-01-23T11:39:45Z</time>
      </trkpt>
      <trkpt lat="60.455933742083" lon="22.276971507137">
        <ele>4.6</ele>
        <time>2016-01-23T11:39:46Z</time>
      </trkpt>
      <trkpt lat="60.455931814246" lon="22.276972345327">
        <ele>4.6</ele>
        <time>2016-01-23T11:39:47Z</time>
      </trkpt>
      <trkpt lat="60.455929467314" lon="22.276973015879">
        <ele>4.6</ele>
        <time>2016-01-23T11:39:48Z</time>
      </trkpt>
      <trkpt lat="60.455929383495" lon="22.276970501309">
        <ele>4.6</ele>
        <time>2016-01-23T11:39:49Z</time>
      </trkpt>
      <trkpt lat="60.455928461486" lon="22.27697041749">
        <ele>4.6</ele>
        <time>2016-01-23T11:39:50Z</time>
      </trkpt>
      <trkpt lat="60.455928042391" lon="22.276967735282">
        <ele>4.6</ele>
        <time>2016-01-23T11:39:51Z</time>
      </trkpt>
      <trkpt lat="60.455927790934" lon="22.276963292875">
        <ele>4.6</ele>
        <time>2016-01-23T11:39:52Z</time>
      </trkpt>
      <trkpt lat="60.455927455658" lon="22.276962706142">
        <ele>4.6</ele>
        <time>2016-01-23T11:39:53Z</time>
      </trkpt>
      <trkpt lat="60.455928377667" lon="22.276962287047">
        <ele>4.6</ele>
        <time>2016-01-23T11:39:54Z</time>
      </trkpt>
      <trkpt lat="60.4559289644" lon="22.276961867952">
        <ele>4.6</ele>
        <time>2016-01-23T11:39:55Z</time>
      </trkpt>
      <trkpt lat="60.455929048219" lon="22.276960191572">
        <ele>4.6</ele>
        <time>2016-01-23T11:39:56Z</time>
      </trkpt>
      <trkpt lat="60.4559289644" lon="22.276959018106">
        <ele>4.6</ele>
        <time>2016-01-23T11:39:57Z</time>
      </trkpt>
      <trkpt lat="60.455928796762" lon="22.27695784464">
        <ele>4.6</ele>
        <time>2016-01-23T11:39:58Z</time>
      </trkpt>
      <trkpt lat="60.455928545305" lon="22.276955832984">
        <ele>4.6</ele>
        <time>2016-01-23T11:39:59Z</time>
      </trkpt>
      <trkpt lat="60.455928461486" lon="22.276954156604">
        <ele>4.6</ele>
        <time>2016-01-23T11:40:00Z</time>
      </trkpt>
      <trkpt lat="60.455927707115" lon="22.276953569871">
        <ele>4.6</ele>
        <time>2016-01-23T11:40:01Z</time>
      </trkpt>
      <trkpt lat="60.455925192545" lon="22.276951893491">
        <ele>4.6</ele>
        <time>2016-01-23T11:40:02Z</time>
      </trkpt>
      <trkpt lat="60.455922845613" lon="22.276947953998">
        <ele>4.6</ele>
        <time>2016-01-23T11:40:03Z</time>
      </trkpt>
      <trkpt lat="60.45592142069" lon="22.276945104152">
        <ele>4.6</ele>
        <time>2016-01-23T11:40:04Z</time>
      </trkpt>
      <trkpt lat="60.4559205825" lon="22.276943092496">
        <ele>5.2</ele>
        <time>2016-01-23T11:40:05Z</time>
      </trkpt>
      <trkpt lat="60.455921588328" lon="22.276941416116">
        <ele>5.2</ele>
        <time>2016-01-23T11:40:06Z</time>
      </trkpt>
      <trkpt lat="60.455922761794" lon="22.276939655917">
        <ele>5.4</ele>
        <time>2016-01-23T11:40:07Z</time>
      </trkpt>
      <trkpt lat="60.455922677975" lon="22.276936806071">
        <ele>6</ele>
        <time>2016-01-23T11:40:08Z</time>
      </trkpt>
      <trkpt lat="60.455921672147" lon="22.276933956225">
        <ele>6.6</ele>
        <time>2016-01-23T11:40:09Z</time>
      </trkpt>
      <trkpt lat="60.45591806793" lon="22.27693353713">
        <ele>6.6</ele>
        <time>2016-01-23T11:40:10Z</time>
      </trkpt>
      <trkpt lat="60.455915720998" lon="22.276934626777">
        <ele>6.4</ele>
        <time>2016-01-23T11:40:11Z</time>
      </trkpt>
      <trkpt lat="60.455914547532" lon="22.276934207682">
        <ele>6.2</ele>
        <time>2016-01-23T11:40:12Z</time>
      </trkpt>
      <trkpt lat="60.455912619695" lon="22.276932950397">
        <ele>6</ele>
        <time>2016-01-23T11:40:13Z</time>
      </trkpt>
      <trkpt lat="60.455911613867" lon="22.276931525474">
        <ele>6</ele>
        <time>2016-01-23T11:40:14Z</time>
      </trkpt>
      <trkpt lat="60.455911110953" lon="22.276930100551">
        <ele>6</ele>
        <time>2016-01-23T11:40:15Z</time>
      </trkpt>
      <trkpt lat="60.455911446229" lon="22.27692934618">
        <ele>6</ele>
        <time>2016-01-23T11:40:16Z</time>
      </trkpt>
      <trkpt lat="60.455912116781" lon="22.276928843266">
        <ele>6</ele>
        <time>2016-01-23T11:40:17Z</time>
      </trkpt>
      <trkpt lat="60.455912284419" lon="22.276928256533">
        <ele>6</ele>
        <time>2016-01-23T11:40:18Z</time>
      </trkpt>
      <trkpt lat="60.455912619695" lon="22.276927753619">
        <ele>6</ele>
        <time>2016-01-23T11:40:19Z</time>
      </trkpt>
      <trkpt lat="60.455912787333" lon="22.276926999248">
        <ele>6</ele>
        <time>2016-01-23T11:40:20Z</time>
      </trkpt>
      <trkpt lat="60.455913541704" lon="22.276925909601">
        <ele>6</ele>
        <time>2016-01-23T11:40:21Z</time>
      </trkpt>
      <trkpt lat="60.455914212256" lon="22.276925658144">
        <ele>6</ele>
        <time>2016-01-23T11:40:22Z</time>
      </trkpt>
      <trkpt lat="60.455914966627" lon="22.276925490506">
        <ele>6</ele>
        <time>2016-01-23T11:40:23Z</time>
      </trkpt>
      <trkpt lat="60.455915218084" lon="22.27692515523">
        <ele>6</ele>
        <time>2016-01-23T11:40:24Z</time>
      </trkpt>
      <trkpt lat="60.455915385722" lon="22.276926328696">
        <ele>6</ele>
        <time>2016-01-23T11:40:25Z</time>
      </trkpt>
      <trkpt lat="60.455913793161" lon="22.27692515523">
        <ele>6</ele>
        <time>2016-01-23T11:40:26Z</time>
      </trkpt>
      <trkpt lat="60.455911949143" lon="22.276921718651">
        <ele>6</ele>
        <time>2016-01-23T11:40:27Z</time>
      </trkpt>
      <trkpt lat="60.455910608039" lon="22.276919623176">
        <ele>6</ele>
        <time>2016-01-23T11:40:28Z</time>
      </trkpt>
      <trkpt lat="60.455902309958" lon="22.27691677333">
        <ele>6</ele>
        <time>2016-01-23T11:40:29Z</time>
      </trkpt>
      <trkpt lat="60.45589627499" lon="22.276912666199">
        <ele>6</ele>
        <time>2016-01-23T11:40:30Z</time>
      </trkpt>
      <trkpt lat="60.455889737108" lon="22.27691509695">
        <ele>6</ele>
        <time>2016-01-23T11:40:31Z</time>
      </trkpt>
      <trkpt lat="60.455879846466" lon="22.276913252932">
        <ele>6</ele>
        <time>2016-01-23T11:40:32Z</time>
      </trkpt>
      <trkpt lat="60.455859646087" lon="22.276905709222">
        <ele>6</ele>
        <time>2016-01-23T11:40:33Z</time>
      </trkpt>
      <trkpt lat="60.455850761273" lon="22.276909061982">
        <ele>6</ele>
        <time>2016-01-23T11:40:34Z</time>
      </trkpt>
      <trkpt lat="60.455824609745" lon="22.276895567123">
        <ele>6</ele>
        <time>2016-01-23T11:40:35Z</time>
      </trkpt>
      <trkpt lat="60.455813126542" lon="22.276892214363">
        <ele>6</ele>
        <time>2016-01-23T11:40:36Z</time>
      </trkpt>
      <trkpt lat="60.455802481529" lon="22.27688911306">
        <ele>6</ele>
        <time>2016-01-23T11:40:37Z</time>
      </trkpt>
      <trkpt lat="60.455794686362" lon="22.276887939594">
        <ele>6</ele>
        <time>2016-01-23T11:40:38Z</time>
      </trkpt>
      <trkpt lat="60.455784041349" lon="22.27688324573">
        <ele>6</ele>
        <time>2016-01-23T11:40:39Z</time>
      </trkpt>
      <trkpt lat="60.45577641382" lon="22.276881066436">
        <ele>6</ele>
        <time>2016-01-23T11:40:40Z</time>
      </trkpt>
      <trkpt lat="60.455769959757" lon="22.276879390056">
        <ele>6</ele>
        <time>2016-01-23T11:40:41Z</time>
      </trkpt>
      <trkpt lat="60.455758895649" lon="22.276874444735">
        <ele>6</ele>
        <time>2016-01-23T11:40:42Z</time>
      </trkpt>
      <trkpt lat="60.455748334455" lon="22.276870924337">
        <ele>6</ele>
        <time>2016-01-23T11:40:43Z</time>
      </trkpt>
      <trkpt lat="60.455736264519" lon="22.276867068663">
        <ele>6</ele>
        <time>2016-01-23T11:40:44Z</time>
      </trkpt>
      <trkpt lat="60.455721260918" lon="22.2768606146">
        <ele>6</ele>
        <time>2016-01-23T11:40:45Z</time>
      </trkpt>
      <trkpt lat="60.455707849878" lon="22.276857848573">
        <ele>6</ele>
        <time>2016-01-23T11:40:46Z</time>
      </trkpt>
      <trkpt lat="60.45569343301" lon="22.276856172193">
        <ele>6</ele>
        <time>2016-01-23T11:40:47Z</time>
      </trkpt>
      <trkpt lat="60.455682117445" lon="22.276854160537">
        <ele>6</ele>
        <time>2016-01-23T11:40:48Z</time>
      </trkpt>
      <trkpt lat="60.455674070821" lon="22.276853573804">
        <ele>6</ele>
        <time>2016-01-23T11:40:49Z</time>
      </trkpt>
      <trkpt lat="60.455667113844" lon="22.276851059234">
        <ele>6</ele>
        <time>2016-01-23T11:40:50Z</time>
      </trkpt>
      <trkpt lat="60.455670550423" lon="22.276852651795">
        <ele>6</ele>
        <time>2016-01-23T11:40:51Z</time>
      </trkpt>
      <trkpt lat="60.455654792451" lon="22.27684887994">
        <ele>6</ele>
        <time>2016-01-23T11:40:52Z</time>
      </trkpt>
      <trkpt lat="60.455658815763" lon="22.276851059234">
        <ele>6</ele>
        <time>2016-01-23T11:40:53Z</time>
      </trkpt>
      <trkpt lat="60.455645991456" lon="22.276845191904">
        <ele>6.2</ele>
        <time>2016-01-23T11:40:54Z</time>
      </trkpt>
      <trkpt lat="60.455641549049" lon="22.276845024266">
        <ele>6.2</ele>
        <time>2016-01-23T11:40:55Z</time>
      </trkpt>
      <trkpt lat="60.455643560705" lon="22.276845108085">
        <ele>6.2</ele>
        <time>2016-01-23T11:40:56Z</time>
      </trkpt>
      <trkpt lat="60.455636687547" lon="22.276842258239">
        <ele>6.2</ele>
        <time>2016-01-23T11:40:57Z</time>
      </trkpt>
      <trkpt lat="60.455631742226" lon="22.276841755325">
        <ele>6.2</ele>
        <time>2016-01-23T11:40:58Z</time>
      </trkpt>
      <trkpt lat="60.455633670063" lon="22.27684133623">
        <ele>6.2</ele>
        <time>2016-01-23T11:40:59Z</time>
      </trkpt>
      <trkpt lat="60.455628221828" lon="22.276835720357">
        <ele>6.2</ele>
        <time>2016-01-23T11:41:00Z</time>
      </trkpt>
      <trkpt lat="60.455627467457" lon="22.276834463072">
        <ele>6.2</ele>
        <time>2016-01-23T11:41:01Z</time>
      </trkpt>
      <trkpt lat="60.455627970371" lon="22.276832535235">
        <ele>6.2</ele>
        <time>2016-01-23T11:41:02Z</time>
      </trkpt>
      <trkpt lat="60.455628305647" lon="22.276831026493">
        <ele>6.2</ele>
        <time>2016-01-23T11:41:03Z</time>
      </trkpt>
      <trkpt lat="60.455628305647" lon="22.276830942674">
        <ele>6.2</ele>
        <time>2016-01-23T11:41:04Z</time>
      </trkpt>
      <trkpt lat="60.455628557104" lon="22.276830523579">
        <ele>6.2</ele>
        <time>2016-01-23T11:41:05Z</time>
      </trkpt>
      <trkpt lat="60.45562889238" lon="22.276829853027">
        <ele>6.2</ele>
        <time>2016-01-23T11:41:06Z</time>
      </trkpt>
      <trkpt lat="60.455629479113" lon="22.276828009009">
        <ele>6.2</ele>
        <time>2016-01-23T11:41:07Z</time>
      </trkpt>
      <trkpt lat="60.455629898208" lon="22.276826835543">
        <ele>6.2</ele>
        <time>2016-01-23T11:41:08Z</time>
      </trkpt>
      <trkpt lat="60.455630065846" lon="22.276826332629">
        <ele>6.2</ele>
        <time>2016-01-23T11:41:09Z</time>
      </trkpt>
      <trkpt lat="60.455630484941" lon="22.276824991525">
        <ele>6.2</ele>
        <time>2016-01-23T11:41:10Z</time>
      </trkpt>
      <trkpt lat="60.455630652579" lon="22.276822728412">
        <ele>6.2</ele>
        <time>2016-01-23T11:41:11Z</time>
      </trkpt>
      <trkpt lat="60.455630065846" lon="22.276820465299">
        <ele>6.2</ele>
        <time>2016-01-23T11:41:12Z</time>
      </trkpt>
      <trkpt lat="60.455629479113" lon="22.276820800575">
        <ele>6.2</ele>
        <time>2016-01-23T11:41:13Z</time>
      </trkpt>
      <trkpt lat="60.455630484941" lon="22.276819208014">
        <ele>6.2</ele>
        <time>2016-01-23T11:41:14Z</time>
      </trkpt>
      <trkpt lat="60.455631071674" lon="22.276816944901">
        <ele>6.2</ele>
        <time>2016-01-23T11:41:15Z</time>
      </trkpt>
      <trkpt lat="60.455629814389" lon="22.276814849426">
        <ele>6.2</ele>
        <time>2016-01-23T11:41:16Z</time>
      </trkpt>
      <trkpt lat="60.455629395294" lon="22.276812753951">
        <ele>6.2</ele>
        <time>2016-01-23T11:41:17Z</time>
      </trkpt>
      <trkpt lat="60.455629060018" lon="22.276810742295">
        <ele>6.2</ele>
        <time>2016-01-23T11:41:18Z</time>
      </trkpt>
      <trkpt lat="60.455628976199" lon="22.276808814458">
        <ele>6.2</ele>
        <time>2016-01-23T11:41:19Z</time>
      </trkpt>
      <trkpt lat="60.45562889238" lon="22.276807138078">
        <ele>6.2</ele>
        <time>2016-01-23T11:41:20Z</time>
      </trkpt>
      <trkpt lat="60.455628724742" lon="22.276805545517">
        <ele>6.2</ele>
        <time>2016-01-23T11:41:21Z</time>
      </trkpt>
      <trkpt lat="60.455628724742" lon="22.276804204413">
        <ele>6.2</ele>
        <time>2016-01-23T11:41:22Z</time>
      </trkpt>
      <trkpt lat="60.455628557104" lon="22.276803030947">
        <ele>6.2</ele>
        <time>2016-01-23T11:41:23Z</time>
      </trkpt>
      <trkpt lat="60.455628473285" lon="22.276801857481">
        <ele>6.2</ele>
        <time>2016-01-23T11:41:24Z</time>
      </trkpt>
      <trkpt lat="60.455628473285" lon="22.276800851653">
        <ele>6.2</ele>
        <time>2016-01-23T11:41:25Z</time>
      </trkpt>
      <trkpt lat="60.455628389466" lon="22.276799845825">
        <ele>6.2</ele>
        <time>2016-01-23T11:41:26Z</time>
      </trkpt>
      <trkpt lat="60.455628389466" lon="22.276798923816">
        <ele>6.2</ele>
        <time>2016-01-23T11:41:27Z</time>
      </trkpt>
      <trkpt lat="60.455628389466" lon="22.276798169445">
        <ele>6.2</ele>
        <time>2016-01-23T11:41:28Z</time>
      </trkpt>
      <trkpt lat="60.455628221828" lon="22.276797247436">
        <ele>6.2</ele>
        <time>2016-01-23T11:41:29Z</time>
      </trkpt>
      <trkpt lat="60.455628221828" lon="22.276796493065">
        <ele>6.2</ele>
        <time>2016-01-23T11:41:30Z</time>
      </trkpt>
      <trkpt lat="60.455628305647" lon="22.276795906332">
        <ele>6.2</ele>
        <time>2016-01-23T11:41:31Z</time>
      </trkpt>
      <trkpt lat="60.455628305647" lon="22.27679523578">
        <ele>6.2</ele>
        <time>2016-01-23T11:41:32Z</time>
      </trkpt>
      <trkpt lat="60.455628221828" lon="22.276794732866">
        <ele>6.2</ele>
        <time>2016-01-23T11:41:33Z</time>
      </trkpt>
      <trkpt lat="60.455628221828" lon="22.276794229952">
        <ele>6.2</ele>
        <time>2016-01-23T11:41:34Z</time>
      </trkpt>
      <trkpt lat="60.45562805419" lon="22.276793810857">
        <ele>6.2</ele>
        <time>2016-01-23T11:41:35Z</time>
      </trkpt>
      <trkpt lat="60.455627970371" lon="22.2767935594">
        <ele>6.2</ele>
        <time>2016-01-23T11:41:36Z</time>
      </trkpt>
      <trkpt lat="60.455627886552" lon="22.276793140305">
        <ele>6.2</ele>
        <time>2016-01-23T11:41:37Z</time>
      </trkpt>
      <trkpt lat="60.455627718914" lon="22.27679272121">
        <ele>6.2</ele>
        <time>2016-01-23T11:41:38Z</time>
      </trkpt>
      <trkpt lat="60.455628389466" lon="22.276792637391">
        <ele>6.2</ele>
        <time>2016-01-23T11:41:39Z</time>
      </trkpt>
      <trkpt lat="60.455629143837" lon="22.276792302115">
        <ele>6.2</ele>
        <time>2016-01-23T11:41:40Z</time>
      </trkpt>
      <trkpt lat="60.45562889238" lon="22.276789703726">
        <ele>6.2</ele>
        <time>2016-01-23T11:41:41Z</time>
      </trkpt>
      <trkpt lat="60.45562386324" lon="22.276788614079">
        <ele>6.2</ele>
        <time>2016-01-23T11:41:42Z</time>
      </trkpt>
      <trkpt lat="60.455617325358" lon="22.276784758405">
        <ele>6.2</ele>
        <time>2016-01-23T11:41:43Z</time>
      </trkpt>
      <trkpt lat="60.455611709485" lon="22.276785931871">
        <ele>6.2</ele>
        <time>2016-01-23T11:41:44Z</time>
      </trkpt>
      <trkpt lat="60.455600896834" lon="22.276779393989">
        <ele>6.2</ele>
        <time>2016-01-23T11:41:45Z</time>
      </trkpt>
      <trkpt lat="60.455594861866" lon="22.276779980722">
        <ele>6.2</ele>
        <time>2016-01-23T11:41:46Z</time>
      </trkpt>
      <trkpt lat="60.455582959568" lon="22.276774448668">
        <ele>6.2</ele>
        <time>2016-01-23T11:41:47Z</time>
      </trkpt>
      <trkpt lat="60.455573236564" lon="22.276771934098">
        <ele>6.2</ele>
        <time>2016-01-23T11:41:48Z</time>
      </trkpt>
      <trkpt lat="60.455555550755" lon="22.27676506094">
        <ele>6.2</ele>
        <time>2016-01-23T11:41:49Z</time>
      </trkpt>
      <trkpt lat="60.455543732276" lon="22.276764390388">
        <ele>6.2</ele>
        <time>2016-01-23T11:41:50Z</time>
      </trkpt>
      <trkpt lat="60.455527722847" lon="22.27675584085">
        <ele>6.2</ele>
        <time>2016-01-23T11:41:51Z</time>
      </trkpt>
      <trkpt lat="60.455514563264" lon="22.276748967692">
        <ele>6.2</ele>
        <time>2016-01-23T11:41:52Z</time>
      </trkpt>
      <trkpt lat="60.455503918251" lon="22.276745279656">
        <ele>6.2</ele>
        <time>2016-01-23T11:41:53Z</time>
      </trkpt>
      <trkpt lat="60.455496961274" lon="22.276747542769">
        <ele>5.8</ele>
        <time>2016-01-23T11:41:54Z</time>
      </trkpt>
      <trkpt lat="60.455487154451" lon="22.276742597448">
        <ele>4.2</ele>
        <time>2016-01-23T11:41:55Z</time>
      </trkpt>
      <trkpt lat="60.455481790035" lon="22.276743770914">
        <ele>3.8</ele>
        <time>2016-01-23T11:41:56Z</time>
      </trkpt>
      <trkpt lat="60.455469133366" lon="22.276735389014">
        <ele>4.2</ele>
        <time>2016-01-23T11:41:57Z</time>
      </trkpt>
      <trkpt lat="60.455461422018" lon="22.276733377358">
        <ele>4.4</ele>
        <time>2016-01-23T11:41:58Z</time>
      </trkpt>
      <trkpt lat="60.455454716498" lon="22.276735389014">
        <ele>4.8</ele>
        <time>2016-01-23T11:41:59Z</time>
      </trkpt>
      <trkpt lat="60.455442227467" lon="22.276729102589">
        <ele>5.2</ele>
        <time>2016-01-23T11:42:00Z</time>
      </trkpt>
      <trkpt lat="60.455435857223" lon="22.276731281883">
        <ele>5.2</ele>
        <time>2016-01-23T11:42:01Z</time>
      </trkpt>
      <trkpt lat="60.455422613821" lon="22.276723905811">
        <ele>5.2</ele>
        <time>2016-01-23T11:42:02Z</time>
      </trkpt>
      <trkpt lat="60.455415321568" lon="22.276725163096">
        <ele>5.2</ele>
        <time>2016-01-23T11:42:03Z</time>
      </trkpt>
      <trkpt lat="60.455402161985" lon="22.276714853359">
        <ele>5.2</ele>
        <time>2016-01-23T11:42:04Z</time>
      </trkpt>
      <trkpt lat="60.455396462293" lon="22.276706639097">
        <ele>5.2</ele>
        <time>2016-01-23T11:42:05Z</time>
      </trkpt>
      <trkpt lat="60.455398976863" lon="22.276710997685">
        <ele>5.2</ele>
        <time>2016-01-23T11:42:06Z</time>
      </trkpt>
      <trkpt lat="60.455395959379" lon="22.276706555278">
        <ele>5.2</ele>
        <time>2016-01-23T11:42:07Z</time>
      </trkpt>
      <trkpt lat="60.455396462293" lon="22.276707309649">
        <ele>5.2</ele>
        <time>2016-01-23T11:42:08Z</time>
      </trkpt>
      <trkpt lat="60.455396210836" lon="22.276709153667">
        <ele>5.2</ele>
        <time>2016-01-23T11:42:09Z</time>
      </trkpt>
      <trkpt lat="60.455395624103" lon="22.276709237486">
        <ele>5.2</ele>
        <time>2016-01-23T11:42:10Z</time>
      </trkpt>
      <trkpt lat="60.455394366818" lon="22.276711500599">
        <ele>5.2</ele>
        <time>2016-01-23T11:42:11Z</time>
      </trkpt>
      <trkpt lat="60.455392271343" lon="22.276714350445">
        <ele>5.2</ele>
        <time>2016-01-23T11:42:12Z</time>
      </trkpt>
      <trkpt lat="60.455390175868" lon="22.276713260798">
        <ele>5.2</ele>
        <time>2016-01-23T11:42:13Z</time>
      </trkpt>
      <trkpt lat="60.455387661298" lon="22.27671141678">
        <ele>5.2</ele>
        <time>2016-01-23T11:42:14Z</time>
      </trkpt>
      <trkpt lat="60.455381793968" lon="22.276709321305">
        <ele>5.2</ele>
        <time>2016-01-23T11:42:15Z</time>
      </trkpt>
      <trkpt lat="60.455384224719" lon="22.276710746228">
        <ele>5.2</ele>
        <time>2016-01-23T11:42:16Z</time>
      </trkpt>
      <trkpt lat="60.455376010457" lon="22.27670806402">
        <ele>5.2</ele>
        <time>2016-01-23T11:42:17Z</time>
      </trkpt>
      <trkpt lat="60.45537408262" lon="22.276705633269">
        <ele>5.2</ele>
        <time>2016-01-23T11:42:18Z</time>
      </trkpt>
      <trkpt lat="60.455372992973" lon="22.276702029052">
        <ele>5.2</ele>
        <time>2016-01-23T11:42:19Z</time>
      </trkpt>
      <trkpt lat="60.455371987145" lon="22.276700436491">
        <ele>5.2</ele>
        <time>2016-01-23T11:42:20Z</time>
      </trkpt>
      <trkpt lat="60.455370562222" lon="22.276701023224">
        <ele>5.2</ele>
        <time>2016-01-23T11:42:21Z</time>
      </trkpt>
      <trkpt lat="60.45536989167" lon="22.276701526138">
        <ele>5.2</ele>
        <time>2016-01-23T11:42:22Z</time>
      </trkpt>
      <trkpt lat="60.455369304937" lon="22.276701442319">
        <ele>5.2</ele>
        <time>2016-01-23T11:42:23Z</time>
      </trkpt>
      <trkpt lat="60.455368047652" lon="22.276701693776">
        <ele>5.2</ele>
        <time>2016-01-23T11:42:24Z</time>
      </trkpt>
      <trkpt lat="60.455366958005" lon="22.276701023224">
        <ele>5.2</ele>
        <time>2016-01-23T11:42:25Z</time>
      </trkpt>
      <trkpt lat="60.455366455091" lon="22.276700268853">
        <ele>5.2</ele>
        <time>2016-01-23T11:42:26Z</time>
      </trkpt>
      <trkpt lat="60.45536570072" lon="22.276698424835">
        <ele>5.2</ele>
        <time>2016-01-23T11:42:27Z</time>
      </trkpt>
      <trkpt lat="60.455365197806" lon="22.276698257197">
        <ele>5.2</ele>
        <time>2016-01-23T11:42:28Z</time>
      </trkpt>
      <trkpt lat="60.455364275797" lon="22.276698089559">
        <ele>5.2</ele>
        <time>2016-01-23T11:42:29Z</time>
      </trkpt>
      <trkpt lat="60.455363353788" lon="22.27669716755">
        <ele>5.2</ele>
        <time>2016-01-23T11:42:30Z</time>
      </trkpt>
      <trkpt lat="60.455362599417" lon="22.276696832274">
        <ele>5.2</ele>
        <time>2016-01-23T11:42:31Z</time>
      </trkpt>
      <trkpt lat="60.455361845046" lon="22.276697754283">
        <ele>5.2</ele>
        <time>2016-01-23T11:42:32Z</time>
      </trkpt>
      <trkpt lat="60.455361174494" lon="22.276699598301">
        <ele>5.2</ele>
        <time>2016-01-23T11:42:33Z</time>
      </trkpt>
      <trkpt lat="60.455360420123" lon="22.276701190862">
        <ele>5.2</ele>
        <time>2016-01-23T11:42:34Z</time>
      </trkpt>
      <trkpt lat="60.455357151182" lon="22.276702867242">
        <ele>5.2</ele>
        <time>2016-01-23T11:42:35Z</time>
      </trkpt>
      <trkpt lat="60.455347931092" lon="22.276699598301">
        <ele>5.2</ele>
        <time>2016-01-23T11:42:36Z</time>
      </trkpt>
      <trkpt lat="60.455338459545" lon="22.276698424835">
        <ele>5.2</ele>
        <time>2016-01-23T11:42:37Z</time>
      </trkpt>
      <trkpt lat="60.455324797048" lon="22.276691551677">
        <ele>5.2</ele>
        <time>2016-01-23T11:42:38Z</time>
      </trkpt>
      <trkpt lat="60.455314403492" lon="22.276689875297">
        <ele>5.2</ele>
        <time>2016-01-23T11:42:39Z</time>
      </trkpt>
      <trkpt lat="60.455302333556" lon="22.276684259424">
        <ele>5.2</ele>
        <time>2016-01-23T11:42:40Z</time>
      </trkpt>
      <trkpt lat="60.455296047131" lon="22.276684427062">
        <ele>5.2</ele>
        <time>2016-01-23T11:42:41Z</time>
      </trkpt>
      <trkpt lat="60.45529110181" lon="22.276683421234">
        <ele>5.2</ele>
        <time>2016-01-23T11:42:42Z</time>
      </trkpt>
      <trkpt lat="60.455293197285" lon="22.2766845947">
        <ele>5.2</ele>
        <time>2016-01-23T11:42:43Z</time>
      </trkpt>
      <trkpt lat="60.45529110181" lon="22.276684510881">
        <ele>5.2</ele>
        <time>2016-01-23T11:42:44Z</time>
      </trkpt>
      <trkpt lat="60.455291772362" lon="22.276684846157">
        <ele>5.2</ele>
        <time>2016-01-23T11:42:45Z</time>
      </trkpt>
      <trkpt lat="60.455292359095" lon="22.276684929976">
        <ele>5.2</ele>
        <time>2016-01-23T11:42:46Z</time>
      </trkpt>
      <trkpt lat="60.455293113466" lon="22.276683505053">
        <ele>5.2</ele>
        <time>2016-01-23T11:42:47Z</time>
      </trkpt>
      <trkpt lat="60.455293364923" lon="22.276682415406">
        <ele>5.2</ele>
        <time>2016-01-23T11:42:48Z</time>
      </trkpt>
      <trkpt lat="60.455292945828" lon="22.27668124194">
        <ele>5.2</ele>
        <time>2016-01-23T11:42:49Z</time>
      </trkpt>
      <trkpt lat="60.455291688543" lon="22.276679397922">
        <ele>5.2</ele>
        <time>2016-01-23T11:42:50Z</time>
      </trkpt>
      <trkpt lat="60.455289090154" lon="22.276678559732">
        <ele>5.2</ele>
        <time>2016-01-23T11:42:51Z</time>
      </trkpt>
      <trkpt lat="60.455285905032" lon="22.276680990483">
        <ele>5.2</ele>
        <time>2016-01-23T11:42:52Z</time>
      </trkpt>
      <trkpt lat="60.455284899204" lon="22.276684091786">
        <ele>5.2</ele>
        <time>2016-01-23T11:42:53Z</time>
      </trkpt>
      <trkpt lat="60.455283641919" lon="22.276688031279">
        <ele>5.2</ele>
        <time>2016-01-23T11:42:54Z</time>
      </trkpt>
      <trkpt lat="60.455282803729" lon="22.276691551677">
        <ele>5.2</ele>
        <time>2016-01-23T11:42:55Z</time>
      </trkpt>
      <trkpt lat="60.455282384634" lon="22.276694233885">
        <ele>5.2</ele>
        <time>2016-01-23T11:42:56Z</time>
      </trkpt>
      <trkpt lat="60.455281714082" lon="22.276697502826">
        <ele>5.2</ele>
        <time>2016-01-23T11:42:57Z</time>
      </trkpt>
      <trkpt lat="60.455279786245" lon="22.276702615785">
        <ele>5.2</ele>
        <time>2016-01-23T11:42:58Z</time>
      </trkpt>
      <trkpt lat="60.455276684942" lon="22.276707896382">
        <ele>5.2</ele>
        <time>2016-01-23T11:42:59Z</time>
      </trkpt>
      <trkpt lat="60.455266207567" lon="22.276704208346">
        <ele>5.2</ele>
        <time>2016-01-23T11:43:00Z</time>
      </trkpt>
      <trkpt lat="60.45526008878" lon="22.276702699604">
        <ele>5.2</ele>
        <time>2016-01-23T11:43:01Z</time>
      </trkpt>
      <trkpt lat="60.455253802355" lon="22.276704040708">
        <ele>5.2</ele>
        <time>2016-01-23T11:43:02Z</time>
      </trkpt>
      <trkpt lat="60.45524248679" lon="22.276697335188">
        <ele>5.2</ele>
        <time>2016-01-23T11:43:03Z</time>
      </trkpt>
      <trkpt lat="60.455236200365" lon="22.276700017396">
        <ele>5.2</ele>
        <time>2016-01-23T11:43:04Z</time>
      </trkpt>
      <trkpt lat="60.455223795153" lon="22.276695323532">
        <ele>5.2</ele>
        <time>2016-01-23T11:43:05Z</time>
      </trkpt>
      <trkpt lat="60.455219185108" lon="22.276696077903">
        <ele>5.2</ele>
        <time>2016-01-23T11:43:06Z</time>
      </trkpt>
      <trkpt lat="60.455207031353" lon="22.276691803134">
        <ele>5.2</ele>
        <time>2016-01-23T11:43:07Z</time>
      </trkpt>
      <trkpt lat="60.45519806272" lon="22.276687528365">
        <ele>5.2</ele>
        <time>2016-01-23T11:43:08Z</time>
      </trkpt>
      <trkpt lat="60.455186998612" lon="22.276684175605">
        <ele>5.2</ele>
        <time>2016-01-23T11:43:09Z</time>
      </trkpt>
      <trkpt lat="60.455177610884" lon="22.276678895008">
        <ele>5.2</ele>
        <time>2016-01-23T11:43:10Z</time>
      </trkpt>
      <trkpt lat="60.455182220929" lon="22.276682163949">
        <ele>5.2</ele>
        <time>2016-01-23T11:43:11Z</time>
      </trkpt>
      <trkpt lat="60.455172749382" lon="22.276675290791">
        <ele>5.2</ele>
        <time>2016-01-23T11:43:12Z</time>
      </trkpt>
      <trkpt lat="60.455171743554" lon="22.276674117325">
        <ele>5.2</ele>
        <time>2016-01-23T11:43:13Z</time>
      </trkpt>
      <trkpt lat="60.455171073002" lon="22.276673949687">
        <ele>5.2</ele>
        <time>2016-01-23T11:43:14Z</time>
      </trkpt>
      <trkpt lat="60.455171659735" lon="22.27667286004">
        <ele>5.2</ele>
        <time>2016-01-23T11:43:15Z</time>
      </trkpt>
      <trkpt lat="60.455173168477" lon="22.276671016022">
        <ele>5.2</ele>
        <time>2016-01-23T11:43:16Z</time>
      </trkpt>
      <trkpt lat="60.45517375521" lon="22.276670596927">
        <ele>5.2</ele>
        <time>2016-01-23T11:43:17Z</time>
      </trkpt>
      <trkpt lat="60.455174090486" lon="22.276670094013">
        <ele>5.2</ele>
        <time>2016-01-23T11:43:18Z</time>
      </trkpt>
      <trkpt lat="60.45517375521" lon="22.276669088185">
        <ele>5.2</ele>
        <time>2016-01-23T11:43:19Z</time>
      </trkpt>
      <trkpt lat="60.455173084658" lon="22.276668417633">
        <ele>5.2</ele>
        <time>2016-01-23T11:43:20Z</time>
      </trkpt>
      <trkpt lat="60.455172414106" lon="22.276667495624">
        <ele>5.2</ele>
        <time>2016-01-23T11:43:21Z</time>
      </trkpt>
      <trkpt lat="60.455171575916" lon="22.276666825072">
        <ele>5.2</ele>
        <time>2016-01-23T11:43:22Z</time>
      </trkpt>
      <trkpt lat="60.455170905364" lon="22.276665819244">
        <ele>5.2</ele>
        <time>2016-01-23T11:43:23Z</time>
      </trkpt>
      <trkpt lat="60.455170067174" lon="22.276664897235">
        <ele>5.2</ele>
        <time>2016-01-23T11:43:24Z</time>
      </trkpt>
      <trkpt lat="60.455169312803" lon="22.276663723769">
        <ele>5.2</ele>
        <time>2016-01-23T11:43:25Z</time>
      </trkpt>
      <trkpt lat="60.455168642251" lon="22.27666280176">
        <ele>5.2</ele>
        <time>2016-01-23T11:43:26Z</time>
      </trkpt>
      <trkpt lat="60.455168390794" lon="22.276662550303">
        <ele>5.2</ele>
        <time>2016-01-23T11:43:27Z</time>
      </trkpt>
      <trkpt lat="60.455167804061" lon="22.276662298846">
        <ele>5.2</ele>
        <time>2016-01-23T11:43:28Z</time>
      </trkpt>
      <trkpt lat="60.455167301147" lon="22.276662466484">
        <ele>5.2</ele>
        <time>2016-01-23T11:43:29Z</time>
      </trkpt>
      <trkpt lat="60.455166546776" lon="22.276661544475">
        <ele>5.2</ele>
        <time>2016-01-23T11:43:30Z</time>
      </trkpt>
      <trkpt lat="60.455166043862" lon="22.276659532819">
        <ele>5.2</ele>
        <time>2016-01-23T11:43:31Z</time>
      </trkpt>
      <trkpt lat="60.455165708586" lon="22.276657856439">
        <ele>5.2</ele>
        <time>2016-01-23T11:43:32Z</time>
      </trkpt>
      <trkpt lat="60.455164618939" lon="22.27665609624">
        <ele>5.2</ele>
        <time>2016-01-23T11:43:33Z</time>
      </trkpt>
      <trkpt lat="60.455161852912" lon="22.276656515335">
        <ele>5.2</ele>
        <time>2016-01-23T11:43:34Z</time>
      </trkpt>
      <trkpt lat="60.455156069401" lon="22.276653497851">
        <ele>5.2</ele>
        <time>2016-01-23T11:43:35Z</time>
      </trkpt>
      <trkpt lat="60.455158081057" lon="22.276655341869">
        <ele>5.2</ele>
        <time>2016-01-23T11:43:36Z</time>
      </trkpt>
      <trkpt lat="60.45515028589" lon="22.276651737652">
        <ele>5.2</ele>
        <time>2016-01-23T11:43:37Z</time>
      </trkpt>
      <trkpt lat="60.455144586198" lon="22.276649642177">
        <ele>5.2</ele>
        <time>2016-01-23T11:43:38Z</time>
      </trkpt>
      <trkpt lat="60.455146346397" lon="22.276650648005">
        <ele>5.2</ele>
        <time>2016-01-23T11:43:39Z</time>
      </trkpt>
      <trkpt lat="60.455146346397" lon="22.276650648005">
        <ele>5.2</ele>
        <time>2016-01-23T11:43:40Z</time>
      </trkpt>
      <trkpt lat="60.455137796859" lon="22.276644529218">
        <ele>5.2</ele>
        <time>2016-01-23T11:43:41Z</time>
      </trkpt>
      <trkpt lat="60.455131929529" lon="22.276646959969">
        <ele>5.2</ele>
        <time>2016-01-23T11:43:42Z</time>
      </trkpt>
      <trkpt lat="60.455123631448" lon="22.276642517562">
        <ele>5.2</ele>
        <time>2016-01-23T11:43:43Z</time>
      </trkpt>
      <trkpt lat="60.455117847937" lon="22.276642098467">
        <ele>5.2</ele>
        <time>2016-01-23T11:43:44Z</time>
      </trkpt>
      <trkpt lat="60.455104604535" lon="22.276636482594">
        <ele>5.2</ele>
        <time>2016-01-23T11:43:45Z</time>
      </trkpt>
      <trkpt lat="60.4550991563" lon="22.276635812042">
        <ele>5.2</ele>
        <time>2016-01-23T11:43:46Z</time>
      </trkpt>
      <trkpt lat="60.455084739432" lon="22.276628687427">
        <ele>5.2</ele>
        <time>2016-01-23T11:43:47Z</time>
      </trkpt>
      <trkpt lat="60.455077530998" lon="22.276628184513">
        <ele>5.2</ele>
        <time>2016-01-23T11:43:48Z</time>
      </trkpt>
      <trkpt lat="60.45505976137" lon="22.276618545328">
        <ele>5.2</ele>
        <time>2016-01-23T11:43:49Z</time>
      </trkpt>
      <trkpt lat="60.45504970309" lon="22.276619132061">
        <ele>5.2</ele>
        <time>2016-01-23T11:43:50Z</time>
      </trkpt>
      <trkpt lat="60.455033190747" lon="22.276610079609">
        <ele>5.2</ele>
        <time>2016-01-23T11:43:51Z</time>
      </trkpt>
      <trkpt lat="60.455023300105" lon="22.276609409057">
        <ele>5.2</ele>
        <time>2016-01-23T11:43:52Z</time>
      </trkpt>
      <trkpt lat="60.455006033391" lon="22.276602032985">
        <ele>5.2</ele>
        <time>2016-01-23T11:43:53Z</time>
      </trkpt>
      <trkpt lat="60.454992538532" lon="22.276599266958">
        <ele>5.2</ele>
        <time>2016-01-23T11:43:54Z</time>
      </trkpt>
      <trkpt lat="60.454976110008" lon="22.276592729076">
        <ele>5.2</ele>
        <time>2016-01-23T11:43:55Z</time>
      </trkpt>
      <trkpt lat="60.454964459167" lon="22.276587197022">
        <ele>5.2</ele>
        <time>2016-01-23T11:43:56Z</time>
      </trkpt>
      <trkpt lat="60.454949036471" lon="22.276582503158">
        <ele>5.2</ele>
        <time>2016-01-23T11:43:57Z</time>
      </trkpt>
      <trkpt lat="60.454936798897" lon="22.276575965276">
        <ele>5.2</ele>
        <time>2016-01-23T11:43:58Z</time>
      </trkpt>
      <trkpt lat="60.454926405341" lon="22.276572696335">
        <ele>5.2</ele>
        <time>2016-01-23T11:43:59Z</time>
      </trkpt>
      <trkpt lat="60.454911737016" lon="22.276564984987">
        <ele>5.2</ele>
        <time>2016-01-23T11:44:00Z</time>
      </trkpt>
      <trkpt lat="60.454904277125" lon="22.276565990815">
        <ele>5.2</ele>
        <time>2016-01-23T11:44:01Z</time>
      </trkpt>
      <trkpt lat="60.454888016239" lon="22.276555010526">
        <ele>5.2</ele>
        <time>2016-01-23T11:44:02Z</time>
      </trkpt>
      <trkpt lat="60.454880975443" lon="22.276555764897">
        <ele>5.2</ele>
        <time>2016-01-23T11:44:03Z</time>
      </trkpt>
      <trkpt lat="60.454864882195" lon="22.276545036065">
        <ele>5.2</ele>
        <time>2016-01-23T11:44:04Z</time>
      </trkpt>
      <trkpt lat="60.454855829743" lon="22.276541515667">
        <ele>5.2</ele>
        <time>2016-01-23T11:44:05Z</time>
      </trkpt>
      <trkpt lat="60.454841245237" lon="22.276535648337">
        <ele>5.2</ele>
        <time>2016-01-23T11:44:06Z</time>
      </trkpt>
      <trkpt lat="60.454828672387" lon="22.276531122111">
        <ele>5.2</ele>
        <time>2016-01-23T11:44:07Z</time>
      </trkpt>
      <trkpt lat="60.454817105365" lon="22.276526679704">
        <ele>5.2</ele>
        <time>2016-01-23T11:44:08Z</time>
      </trkpt>
      <trkpt lat="60.45480159885" lon="22.27652030946">
        <ele>5.2</ele>
        <time>2016-01-23T11:44:09Z</time>
      </trkpt>
      <trkpt lat="60.454789277457" lon="22.276516789062">
        <ele>5.2</ele>
        <time>2016-01-23T11:44:10Z</time>
      </trkpt>
      <trkpt lat="60.45477310039" lon="22.276508155705">
        <ele>5.2</ele>
        <time>2016-01-23T11:44:11Z</time>
      </trkpt>
      <trkpt lat="60.454762455377" lon="22.276505976411">
        <ele>5.2</ele>
        <time>2016-01-23T11:44:12Z</time>
      </trkpt>
      <trkpt lat="60.454756085133" lon="22.276504970583">
        <ele>5.2</ele>
        <time>2016-01-23T11:44:13Z</time>
      </trkpt>
      <trkpt lat="60.45475214564" lon="22.276500360538">
        <ele>5.2</ele>
        <time>2016-01-23T11:44:14Z</time>
      </trkpt>
      <trkpt lat="60.454754324934" lon="22.276502036918">
        <ele>5.2</ele>
        <time>2016-01-23T11:44:15Z</time>
      </trkpt>
      <trkpt lat="60.454752061821" lon="22.276500025262">
        <ele>5.2</ele>
        <time>2016-01-23T11:44:16Z</time>
      </trkpt>
      <trkpt lat="60.454750888355" lon="22.276500360538">
        <ele>5.2</ele>
        <time>2016-01-23T11:44:17Z</time>
      </trkpt>
      <trkpt lat="60.454750217803" lon="22.27650103109">
        <ele>5.2</ele>
        <time>2016-01-23T11:44:18Z</time>
      </trkpt>
      <trkpt lat="60.454750217803" lon="22.276500695814">
        <ele>5.2</ele>
        <time>2016-01-23T11:44:19Z</time>
      </trkpt>
      <trkpt lat="60.454751055993" lon="22.276499522348">
        <ele>5.2</ele>
        <time>2016-01-23T11:44:20Z</time>
      </trkpt>
      <trkpt lat="60.454752061821" lon="22.276498265063">
        <ele>5.2</ele>
        <time>2016-01-23T11:44:21Z</time>
      </trkpt>
      <trkpt lat="60.454752061821" lon="22.276497343054">
        <ele>5.2</ele>
        <time>2016-01-23T11:44:22Z</time>
      </trkpt>
      <trkpt lat="60.454752061821" lon="22.276496756321">
        <ele>5.2</ele>
        <time>2016-01-23T11:44:23Z</time>
      </trkpt>
      <trkpt lat="60.454752061821" lon="22.276495918131">
        <ele>5.2</ele>
        <time>2016-01-23T11:44:24Z</time>
      </trkpt>
      <trkpt lat="60.454751978002" lon="22.276495331398">
        <ele>5.2</ele>
        <time>2016-01-23T11:44:25Z</time>
      </trkpt>
      <trkpt lat="60.454752061821" lon="22.276494744665">
        <ele>5.2</ele>
        <time>2016-01-23T11:44:26Z</time>
      </trkpt>
      <trkpt lat="60.45475214564" lon="22.276493822656">
        <ele>5.2</ele>
        <time>2016-01-23T11:44:27Z</time>
      </trkpt>
      <trkpt lat="60.454752648554" lon="22.276491727181">
        <ele>5.2</ele>
        <time>2016-01-23T11:44:28Z</time>
      </trkpt>
      <trkpt lat="60.454752648554" lon="22.276489631706">
        <ele>5.2</ele>
        <time>2016-01-23T11:44:29Z</time>
      </trkpt>
      <trkpt lat="60.454753067649" lon="22.27647672358">
        <ele>5.2</ele>
        <time>2016-01-23T11:44:30Z</time>
      </trkpt>
      <trkpt lat="60.454752900011" lon="22.276482087996">
        <ele>5.2</ele>
        <time>2016-01-23T11:44:31Z</time>
      </trkpt>
      <trkpt lat="60.454752648554" lon="22.276473454639">
        <ele>5.2</ele>
        <time>2016-01-23T11:44:32Z</time>
      </trkpt>
      <trkpt lat="60.454752732373" lon="22.276457780486">
        <ele>5.2</ele>
        <time>2016-01-23T11:44:33Z</time>
      </trkpt>
      <trkpt lat="60.454752480916" lon="22.276463815454">
        <ele>5.2</ele>
        <time>2016-01-23T11:44:34Z</time>
      </trkpt>
      <trkpt lat="60.454754324934" lon="22.276450907328">
        <ele>5.2</ele>
        <time>2016-01-23T11:44:35Z</time>
      </trkpt>
      <trkpt lat="60.454754073477" lon="22.276448728034">
        <ele>5.2</ele>
        <time>2016-01-23T11:44:36Z</time>
      </trkpt>
      <trkpt lat="60.454752648554" lon="22.276448308939">
        <ele>5.2</ele>
        <time>2016-01-23T11:44:37Z</time>
      </trkpt>
      <trkpt lat="60.454751558907" lon="22.276447638387">
        <ele>5.2</ele>
        <time>2016-01-23T11:44:38Z</time>
      </trkpt>
      <trkpt lat="60.45475046926" lon="22.27644654874">
        <ele>5.2</ele>
        <time>2016-01-23T11:44:39Z</time>
      </trkpt>
      <trkpt lat="60.454749295794" lon="22.276445039998">
        <ele>5.2</ele>
        <time>2016-01-23T11:44:40Z</time>
      </trkpt>
      <trkpt lat="60.45474879288" lon="22.276443363618">
        <ele>5.2</ele>
        <time>2016-01-23T11:44:41Z</time>
      </trkpt>
      <trkpt lat="60.454748206147" lon="22.276442860704">
        <ele>5.2</ele>
        <time>2016-01-23T11:44:42Z</time>
      </trkpt>
      <trkpt lat="60.454748122328" lon="22.276442609247">
        <ele>5.2</ele>
        <time>2016-01-23T11:44:43Z</time>
      </trkpt>
      <trkpt lat="60.454748541423" lon="22.276442609247">
        <ele>5.2</ele>
        <time>2016-01-23T11:44:44Z</time>
      </trkpt>
      <trkpt lat="60.454748373785" lon="22.27644235779">
        <ele>5.2</ele>
        <time>2016-01-23T11:44:45Z</time>
      </trkpt>
      <trkpt lat="60.454747367957" lon="22.276439927039">
        <ele>5.2</ele>
        <time>2016-01-23T11:44:46Z</time>
      </trkpt>
      <trkpt lat="60.454745943034" lon="22.276437496288">
        <ele>5.2</ele>
        <time>2016-01-23T11:44:47Z</time>
      </trkpt>
      <trkpt lat="60.454746613586" lon="22.276435987546">
        <ele>5.2</ele>
        <time>2016-01-23T11:44:48Z</time>
      </trkpt>
      <trkpt lat="60.45475298383" lon="22.276431209863">
        <ele>5.2</ele>
        <time>2016-01-23T11:44:49Z</time>
      </trkpt>
      <trkpt lat="60.454759186436" lon="22.276433053881">
        <ele>5.2</ele>
        <time>2016-01-23T11:44:50Z</time>
      </trkpt>
      <trkpt lat="60.454771675467" lon="22.276441938695">
        <ele>5.2</ele>
        <time>2016-01-23T11:44:51Z</time>
      </trkpt>
      <trkpt lat="60.45478818781" lon="22.276449566224">
        <ele>5.2</ele>
        <time>2016-01-23T11:44:52Z</time>
      </trkpt>
      <trkpt lat="60.454812998234" lon="22.276466078567">
        <ele>5.2</ele>
        <time>2016-01-23T11:44:53Z</time>
      </trkpt>
      <trkpt lat="60.454841161418" lon="22.276476807399">
        <ele>5.2</ele>
        <time>2016-01-23T11:44:54Z</time>
      </trkpt>
      <trkpt lat="60.454866223299" lon="22.27649097281">
        <ele>5.2</ele>
        <time>2016-01-23T11:44:55Z</time>
      </trkpt>
      <trkpt lat="60.454889022067" lon="22.276498684158">
        <ele>5.2</ele>
        <time>2016-01-23T11:44:56Z</time>
      </trkpt>
      <trkpt lat="60.454909641541" lon="22.276506144049">
        <ele>5.2</ele>
        <time>2016-01-23T11:44:57Z</time>
      </trkpt>
      <trkpt lat="60.454924477504" lon="22.276516369967">
        <ele>5.2</ele>
        <time>2016-01-23T11:44:58Z</time>
      </trkpt>
      <trkpt lat="60.454934787241" lon="22.276536654165">
        <ele>5.2</ele>
        <time>2016-01-23T11:44:59Z</time>
      </trkpt>
      <trkpt lat="60.454931099205" lon="22.276551741585">
        <ele>5.2</ele>
        <time>2016-01-23T11:45:00Z</time>
      </trkpt>
      <trkpt lat="60.454926405341" lon="22.276555345802">
        <ele>5.2</ele>
        <time>2016-01-23T11:45:01Z</time>
      </trkpt>
      <trkpt lat="60.454927997902" lon="22.276553753241">
        <ele>5.2</ele>
        <time>2016-01-23T11:45:02Z</time>
      </trkpt>
      <trkpt lat="60.454919867459" lon="22.276557525096">
        <ele>5.2</ele>
        <time>2016-01-23T11:45:03Z</time>
      </trkpt>
      <trkpt lat="60.454913329577" lon="22.276555848716">
        <ele>5.2</ele>
        <time>2016-01-23T11:45:04Z</time>
      </trkpt>
      <trkpt lat="60.454905618229" lon="22.27655216068">
        <ele>5.2</ele>
        <time>2016-01-23T11:45:05Z</time>
      </trkpt>
      <trkpt lat="60.454899499442" lon="22.276551993042">
        <ele>5.2</ele>
        <time>2016-01-23T11:45:06Z</time>
      </trkpt>
      <trkpt lat="60.454891452818" lon="22.276547382997">
        <ele>5.2</ele>
        <time>2016-01-23T11:45:07Z</time>
      </trkpt>
      <trkpt lat="60.454894721759" lon="22.276550149024">
        <ele>5.2</ele>
        <time>2016-01-23T11:45:08Z</time>
      </trkpt>
      <trkpt lat="60.454884160565" lon="22.276549562291">
        <ele>5.2</ele>
        <time>2016-01-23T11:45:09Z</time>
      </trkpt>
      <trkpt lat="60.454881478357" lon="22.276553250327">
        <ele>5.2</ele>
        <time>2016-01-23T11:45:10Z</time>
      </trkpt>
      <trkpt lat="60.454880723986" lon="22.276552831232">
        <ele>5.2</ele>
        <time>2016-01-23T11:45:11Z</time>
      </trkpt>
      <trkpt lat="60.454877455045" lon="22.276538162907">
        <ele>5.2</ele>
        <time>2016-01-23T11:45:12Z</time>
      </trkpt>
      <trkpt lat="60.454875611027" lon="22.276528607541">
        <ele>5.2</ele>
        <time>2016-01-23T11:45:13Z</time>
      </trkpt>
      <trkpt lat="60.454868151136" lon="22.276519974184">
        <ele>5.2</ele>
        <time>2016-01-23T11:45:14Z</time>
      </trkpt>
      <trkpt lat="60.454859517779" lon="22.276515112682">
        <ele>5.2</ele>
        <time>2016-01-23T11:45:15Z</time>
      </trkpt>
      <trkpt lat="60.454846190558" lon="22.276511005551">
        <ele>5.2</ele>
        <time>2016-01-23T11:45:16Z</time>
      </trkpt>
      <trkpt lat="60.454828756206" lon="22.27649097281">
        <ele>5.2</ele>
        <time>2016-01-23T11:45:17Z</time>
      </trkpt>
      <trkpt lat="60.454809896931" lon="22.276480495435">
        <ele>5.2</ele>
        <time>2016-01-23T11:45:18Z</time>
      </trkpt>
      <trkpt lat="60.454792127303" lon="22.276473287001">
        <ele>5.2</ele>
        <time>2016-01-23T11:45:19Z</time>
      </trkpt>
      <trkpt lat="60.454766311051" lon="22.276460462694">
        <ele>5.2</ele>
        <time>2016-01-23T11:45:20Z</time>
      </trkpt>
      <trkpt lat="60.454745691577" lon="22.276456439382">
        <ele>5.2</ele>
        <time>2016-01-23T11:45:21Z</time>
      </trkpt>
      <trkpt lat="60.454724988284" lon="22.27645576883">
        <ele>5.2</ele>
        <time>2016-01-23T11:45:22Z</time>
      </trkpt>
      <trkpt lat="60.454701518964" lon="22.276448560396">
        <ele>5.2</ele>
        <time>2016-01-23T11:45:23Z</time>
      </trkpt>
      <trkpt lat="60.454671092667" lon="22.276437999202">
        <ele>5.2</ele>
        <time>2016-01-23T11:45:24Z</time>
      </trkpt>
      <trkpt lat="60.454651479021" lon="22.276433640614">
        <ele>5.2</ele>
        <time>2016-01-23T11:45:25Z</time>
      </trkpt>
      <trkpt lat="60.454628764072" lon="22.276425761628">
        <ele>5.2</ele>
        <time>2016-01-23T11:45:26Z</time>
      </trkpt>
      <trkpt lat="60.454603115458" lon="22.276403465774">
        <ele>5.2</ele>
        <time>2016-01-23T11:45:27Z</time>
      </trkpt>
      <trkpt lat="60.454584591459" lon="22.276388462173">
        <ele>5.2</ele>
        <time>2016-01-23T11:45:28Z</time>
      </trkpt>
      <trkpt lat="60.454567073288" lon="22.276374799676">
        <ele>5.2</ele>
        <time>2016-01-23T11:45:29Z</time>
      </trkpt>
      <trkpt lat="60.454555422447" lon="22.276364741396">
        <ele>5.2</ele>
        <time>2016-01-23T11:45:30Z</time>
      </trkpt>
      <trkpt lat="60.454549471298" lon="22.276357616781">
        <ele>5.2</ele>
        <time>2016-01-23T11:45:31Z</time>
      </trkpt>
      <trkpt lat="60.454551650592" lon="22.276359628437">
        <ele>5.2</ele>
        <time>2016-01-23T11:45:32Z</time>
      </trkpt>
      <trkpt lat="60.454546202357" lon="22.276353425831">
        <ele>5.2</ele>
        <time>2016-01-23T11:45:33Z</time>
      </trkpt>
      <trkpt lat="60.454545364167" lon="22.276354934573">
        <ele>5.2</ele>
        <time>2016-01-23T11:45:34Z</time>
      </trkpt>
      <trkpt lat="60.45455098004" lon="22.276354012564">
        <ele>5.2</ele>
        <time>2016-01-23T11:45:35Z</time>
      </trkpt>
      <trkpt lat="60.45454846547" lon="22.276353425831">
        <ele>5.2</ele>
        <time>2016-01-23T11:45:36Z</time>
      </trkpt>
      <trkpt lat="60.454550309488" lon="22.276349653976">
        <ele>5.2</ele>
        <time>2016-01-23T11:45:37Z</time>
      </trkpt>
      <trkpt lat="60.454548884565" lon="22.276348564329">
        <ele>5.2</ele>
        <time>2016-01-23T11:45:38Z</time>
      </trkpt>
      <trkpt lat="60.454546621452" lon="22.276349737795">
        <ele>5.2</ele>
        <time>2016-01-23T11:45:39Z</time>
      </trkpt>
      <trkpt lat="60.454544023063" lon="22.276352000908">
        <ele>5.2</ele>
        <time>2016-01-23T11:45:40Z</time>
      </trkpt>
      <trkpt lat="60.454541257036" lon="22.27635183327">
        <ele>5.2</ele>
        <time>2016-01-23T11:45:41Z</time>
      </trkpt>
      <trkpt lat="60.454540251208" lon="22.276350324528">
        <ele>5.2</ele>
        <time>2016-01-23T11:45:42Z</time>
      </trkpt>
      <trkpt lat="60.454539580656" lon="22.276348061415">
        <ele>5.2</ele>
        <time>2016-01-23T11:45:43Z</time>
      </trkpt>
      <trkpt lat="60.454539077742" lon="22.276346720311">
        <ele>5.2</ele>
        <time>2016-01-23T11:45:44Z</time>
      </trkpt>
      <trkpt lat="60.454541173217" lon="22.27634596594">
        <ele>5.2</ele>
        <time>2016-01-23T11:45:45Z</time>
      </trkpt>
      <trkpt lat="60.454543687787" lon="22.276345798302">
        <ele>5.2</ele>
        <time>2016-01-23T11:45:46Z</time>
      </trkpt>
      <trkpt lat="60.454544777434" lon="22.276344960112">
        <ele>5.2</ele>
        <time>2016-01-23T11:45:47Z</time>
      </trkpt>
      <trkpt lat="60.454544442158" lon="22.276342948456">
        <ele>5.2</ele>
        <time>2016-01-23T11:45:48Z</time>
      </trkpt>
      <trkpt lat="60.454543687787" lon="22.276342026447">
        <ele>5.2</ele>
        <time>2016-01-23T11:45:49Z</time>
      </trkpt>
      <trkpt lat="60.454543184873" lon="22.276340433886">
        <ele>5.2</ele>
        <time>2016-01-23T11:45:50Z</time>
      </trkpt>
      <trkpt lat="60.454542346683" lon="22.276338338411">
        <ele>5.2</ele>
        <time>2016-01-23T11:45:51Z</time>
      </trkpt>
      <trkpt lat="60.454541843769" lon="22.276340014791">
        <ele>5.2</ele>
        <time>2016-01-23T11:45:52Z</time>
      </trkpt>
      <trkpt lat="60.454541676131" lon="22.276339930972">
        <ele>5.2</ele>
        <time>2016-01-23T11:45:53Z</time>
      </trkpt>
      <trkpt lat="60.454541508493" lon="22.27634009861">
        <ele>5.2</ele>
        <time>2016-01-23T11:45:54Z</time>
      </trkpt>
      <trkpt lat="60.454541508493" lon="22.276340517705">
        <ele>5.2</ele>
        <time>2016-01-23T11:45:55Z</time>
      </trkpt>
      <trkpt lat="60.454541592312" lon="22.276341020619">
        <ele>5.2</ele>
        <time>2016-01-23T11:45:56Z</time>
      </trkpt>
      <trkpt lat="60.454541676131" lon="22.276341020619">
        <ele>5.2</ele>
        <time>2016-01-23T11:45:57Z</time>
      </trkpt>
      <trkpt lat="60.454541257036" lon="22.276340266248">
        <ele>5.2</ele>
        <time>2016-01-23T11:45:58Z</time>
      </trkpt>
      <trkpt lat="60.454540502665" lon="22.276341020619">
        <ele>5.2</ele>
        <time>2016-01-23T11:45:59Z</time>
      </trkpt>
      <trkpt lat="60.454538491009" lon="22.2763409368">
        <ele>5.2</ele>
        <time>2016-01-23T11:46:00Z</time>
      </trkpt>
      <trkpt lat="60.454533964783" lon="22.276334734194">
        <ele>5.2</ele>
        <time>2016-01-23T11:46:01Z</time>
      </trkpt>
      <trkpt lat="60.454530192928" lon="22.276326436113">
        <ele>5.2</ele>
        <time>2016-01-23T11:46:02Z</time>
      </trkpt>
      <trkpt lat="60.454524325598" lon="22.276324424457">
        <ele>5.2</ele>
        <time>2016-01-23T11:46:03Z</time>
      </trkpt>
      <trkpt lat="60.454526923987" lon="22.276325430285">
        <ele>5.2</ele>
        <time>2016-01-23T11:46:04Z</time>
      </trkpt>
      <trkpt lat="60.454519380277" lon="22.276324340638">
        <ele>5.2</ele>
        <time>2016-01-23T11:46:05Z</time>
      </trkpt>
      <trkpt lat="60.45451745244" lon="22.276325262647">
        <ele>5.2</ele>
        <time>2016-01-23T11:46:06Z</time>
      </trkpt>
      <trkpt lat="60.454517117164" lon="22.27632501119">
        <ele>5.2</ele>
        <time>2016-01-23T11:46:07Z</time>
      </trkpt>
      <trkpt lat="60.45451577606" lon="22.276322328982">
        <ele>5.2</ele>
        <time>2016-01-23T11:46:08Z</time>
      </trkpt>
      <trkpt lat="60.454509154359" lon="22.276318640946">
        <ele>5.2</ele>
        <time>2016-01-23T11:46:09Z</time>
      </trkpt>
      <trkpt lat="60.454499515174" lon="22.276313779444">
        <ele>5.2</ele>
        <time>2016-01-23T11:46:10Z</time>
      </trkpt>
      <trkpt lat="60.454486942324" lon="22.276314701453">
        <ele>5.2</ele>
        <time>2016-01-23T11:46:11Z</time>
      </trkpt>
      <trkpt lat="60.454472609275" lon="22.276310007589">
        <ele>5.2</ele>
        <time>2016-01-23T11:46:12Z</time>
      </trkpt>
      <trkpt lat="60.454463892099" lon="22.276306319553">
        <ele>5.2</ele>
        <time>2016-01-23T11:46:13Z</time>
      </trkpt>
      <trkpt lat="60.454457605674" lon="22.276304978449">
        <ele>5.2</ele>
        <time>2016-01-23T11:46:14Z</time>
      </trkpt>
      <trkpt lat="60.454452744172" lon="22.276301206594">
        <ele>5.2</ele>
        <time>2016-01-23T11:46:15Z</time>
      </trkpt>
      <trkpt lat="60.454448553222" lon="22.276299949309">
        <ele>5.2</ele>
        <time>2016-01-23T11:46:16Z</time>
      </trkpt>
      <trkpt lat="60.45444201534" lon="22.276296093635">
        <ele>5.2</ele>
        <time>2016-01-23T11:46:17Z</time>
      </trkpt>
      <trkpt lat="60.454444446091" lon="22.276298356748">
        <ele>5.2</ele>
        <time>2016-01-23T11:46:18Z</time>
      </trkpt>
      <trkpt lat="60.454436567105" lon="22.276295087807">
        <ele>5.2</ele>
        <time>2016-01-23T11:46:19Z</time>
      </trkpt>
      <trkpt lat="60.454436567105" lon="22.276294752531">
        <ele>5.2</ele>
        <time>2016-01-23T11:46:20Z</time>
      </trkpt>
      <trkpt lat="60.454435058363" lon="22.276295842178">
        <ele>5.2</ele>
        <time>2016-01-23T11:46:21Z</time>
      </trkpt>
      <trkpt lat="60.454428520481" lon="22.27629399816">
        <ele>5.2</ele>
        <time>2016-01-23T11:46:22Z</time>
      </trkpt>
      <trkpt lat="60.454421731142" lon="22.276291148314">
        <ele>5.2</ele>
        <time>2016-01-23T11:46:23Z</time>
      </trkpt>
      <trkpt lat="60.454418210744" lon="22.276282095862">
        <ele>5.2</ele>
        <time>2016-01-23T11:46:24Z</time>
      </trkpt>
      <trkpt lat="60.454412259595" lon="22.276272959591">
        <ele>5.2</ele>
        <time>2016-01-23T11:46:25Z</time>
      </trkpt>
      <trkpt lat="60.454407146636" lon="22.276267343718">
        <ele>5.2</ele>
        <time>2016-01-23T11:46:26Z</time>
      </trkpt>
      <trkpt lat="60.45439423851" lon="22.276257453076">
        <ele>5.2</ele>
        <time>2016-01-23T11:46:27Z</time>
      </trkpt>
      <trkpt lat="60.45438250385" lon="22.276252004841">
        <ele>5.2</ele>
        <time>2016-01-23T11:46:28Z</time>
      </trkpt>
      <trkpt lat="60.454366326783" lon="22.276237923249">
        <ele>5.2</ele>
        <time>2016-01-23T11:46:29Z</time>
      </trkpt>
      <trkpt lat="60.454346294042" lon="22.276223841657">
        <ele>5.2</ele>
        <time>2016-01-23T11:46:30Z</time>
      </trkpt>
      <trkpt lat="60.454332463907" lon="22.276219818345">
        <ele>5.2</ele>
        <time>2016-01-23T11:46:31Z</time>
      </trkpt>
      <trkpt lat="60.454307402026" lon="22.276204647106">
        <ele>5.2</ele>
        <time>2016-01-23T11:46:32Z</time>
      </trkpt>
      <trkpt lat="60.454283094516" lon="22.276188889134">
        <ele>5.2</ele>
        <time>2016-01-23T11:46:33Z</time>
      </trkpt>
      <trkpt lat="60.454265576345" lon="22.276184865822">
        <ele>5.2</ele>
        <time>2016-01-23T11:46:34Z</time>
      </trkpt>
      <trkpt lat="60.454237580799" lon="22.276166174185">
        <ele>5.2</ele>
        <time>2016-01-23T11:46:35Z</time>
      </trkpt>
      <trkpt lat="60.454218386248" lon="22.276155612991">
        <ele>5.2</ele>
        <time>2016-01-23T11:46:36Z</time>
      </trkpt>
      <trkpt lat="60.454198688783" lon="22.276145973806">
        <ele>5.2</ele>
        <time>2016-01-23T11:46:37Z</time>
      </trkpt>
      <trkpt lat="60.454175135644" lon="22.276130215834">
        <ele>5.2</ele>
        <time>2016-01-23T11:46:38Z</time>
      </trkpt>
      <trkpt lat="60.454154180894" lon="22.276130215834">
        <ele>5.2</ele>
        <time>2016-01-23T11:46:39Z</time>
      </trkpt>
      <trkpt lat="60.454133477601" lon="22.276116134242">
        <ele>5.2</ele>
        <time>2016-01-23T11:46:40Z</time>
      </trkpt>
      <trkpt lat="60.454112690489" lon="22.276106411238">
        <ele>5.2</ele>
        <time>2016-01-23T11:46:41Z</time>
      </trkpt>
      <trkpt lat="60.45409584287" lon="22.276096269139">
        <ele>5.2</ele>
        <time>2016-01-23T11:46:42Z</time>
      </trkpt>
      <trkpt lat="60.454082264192" lon="22.276089395981">
        <ele>5.2</ele>
        <time>2016-01-23T11:46:43Z</time>
      </trkpt>
      <trkpt lat="60.454073463197" lon="22.276083780108">
        <ele>5.2</ele>
        <time>2016-01-23T11:46:44Z</time>
      </trkpt>
      <trkpt lat="60.454067092953" lon="22.276082019909">
        <ele>5.2</ele>
        <time>2016-01-23T11:46:45Z</time>
      </trkpt>
      <trkpt lat="60.454060974166" lon="22.276081349357">
        <ele>5.2</ele>
        <time>2016-01-23T11:46:46Z</time>
      </trkpt>
      <trkpt lat="60.454062985822" lon="22.276082019909">
        <ele>5.2</ele>
        <time>2016-01-23T11:46:47Z</time>
      </trkpt>
      <trkpt lat="60.454056783216" lon="22.276085037393">
        <ele>5.2</ele>
        <time>2016-01-23T11:46:48Z</time>
      </trkpt>
      <trkpt lat="60.454055190655" lon="22.27608696523">
        <ele>5.2</ele>
        <time>2016-01-23T11:46:49Z</time>
      </trkpt>
      <trkpt lat="60.454053346637" lon="22.276089647438">
        <ele>5.2</ele>
        <time>2016-01-23T11:46:50Z</time>
      </trkpt>
      <trkpt lat="60.454051754076" lon="22.276092245827">
        <ele>5.2</ele>
        <time>2016-01-23T11:46:51Z</time>
      </trkpt>
      <trkpt lat="60.45405058061" lon="22.276093503112">
        <ele>5.2</ele>
        <time>2016-01-23T11:46:52Z</time>
      </trkpt>
      <trkpt lat="60.45404974242" lon="22.276092329646">
        <ele>5.2</ele>
        <time>2016-01-23T11:46:53Z</time>
      </trkpt>
      <trkpt lat="60.454049658601" lon="22.276087049049">
        <ele>5.2</ele>
        <time>2016-01-23T11:46:54Z</time>
      </trkpt>
      <trkpt lat="60.45404890423" lon="22.276082941918">
        <ele>5.2</ele>
        <time>2016-01-23T11:46:55Z</time>
      </trkpt>
      <trkpt lat="60.454047646945" lon="22.276081014081">
        <ele>5.2</ele>
        <time>2016-01-23T11:46:56Z</time>
      </trkpt>
      <trkpt lat="60.454046222022" lon="22.276079002425">
        <ele>5.2</ele>
        <time>2016-01-23T11:46:57Z</time>
      </trkpt>
      <trkpt lat="60.45403968414" lon="22.276076823131">
        <ele>5.2</ele>
        <time>2016-01-23T11:46:58Z</time>
      </trkpt>
      <trkpt lat="60.454041779615" lon="22.276077242226">
        <ele>5.2</ele>
        <time>2016-01-23T11:46:59Z</time>
      </trkpt>
      <trkpt lat="60.454030547869" lon="22.276073218914">
        <ele>5.2</ele>
        <time>2016-01-23T11:47:00Z</time>
      </trkpt>
      <trkpt lat="60.45402375853" lon="22.276066345756">
        <ele>5.2</ele>
        <time>2016-01-23T11:47:01Z</time>
      </trkpt>
      <trkpt lat="60.454015292811" lon="22.276060562245">
        <ele>5.2</ele>
        <time>2016-01-23T11:47:02Z</time>
      </trkpt>
      <trkpt lat="60.45400448016" lon="22.276053772906">
        <ele>5.2</ele>
        <time>2016-01-23T11:47:03Z</time>
      </trkpt>
      <trkpt lat="60.453994254242" lon="22.276049833413">
        <ele>5.2</ele>
        <time>2016-01-23T11:47:04Z</time>
      </trkpt>
      <trkpt lat="60.453980759383" lon="22.276042708798">
        <ele>5.2</ele>
        <time>2016-01-23T11:47:05Z</time>
      </trkpt>
      <trkpt lat="60.453970282008" lon="22.276035584183">
        <ele>5.2</ele>
        <time>2016-01-23T11:47:06Z</time>
      </trkpt>
      <trkpt lat="60.453955529864" lon="22.276026028817">
        <ele>5.2</ele>
        <time>2016-01-23T11:47:07Z</time>
      </trkpt>
      <trkpt lat="60.453943040833" lon="22.276019574754">
        <ele>5.2</ele>
        <time>2016-01-23T11:47:08Z</time>
      </trkpt>
      <trkpt lat="60.453928121051" lon="22.276005828438">
        <ele>5.2</ele>
        <time>2016-01-23T11:47:09Z</time>
      </trkpt>
      <trkpt lat="60.453920074427" lon="22.275999290556">
        <ele>5.2</ele>
        <time>2016-01-23T11:47:10Z</time>
      </trkpt>
      <trkpt lat="60.453911692527" lon="22.275995434882">
        <ele>5.2</ele>
        <time>2016-01-23T11:47:11Z</time>
      </trkpt>
      <trkpt lat="60.453904987007" lon="22.275994093778">
        <ele>6</ele>
        <time>2016-01-23T11:47:12Z</time>
      </trkpt>
      <trkpt lat="60.453899203496" lon="22.275991327751">
        <ele>6.6</ele>
        <time>2016-01-23T11:47:13Z</time>
      </trkpt>
      <trkpt lat="60.453888893759" lon="22.27598302967">
        <ele>6.4</ele>
        <time>2016-01-23T11:47:14Z</time>
      </trkpt>
      <trkpt lat="60.453881433868" lon="22.275978587263">
        <ele>6.2</ele>
        <time>2016-01-23T11:47:15Z</time>
      </trkpt>
      <trkpt lat="60.453874895986" lon="22.275977246159">
        <ele>6.2</ele>
        <time>2016-01-23T11:47:16Z</time>
      </trkpt>
      <trkpt lat="60.453861233489" lon="22.275966517327">
        <ele>6</ele>
        <time>2016-01-23T11:47:17Z</time>
      </trkpt>
      <trkpt lat="60.453853438322" lon="22.275964421852">
        <ele>5.8</ele>
        <time>2016-01-23T11:47:18Z</time>
      </trkpt>
      <trkpt lat="60.453839440549" lon="22.275953106287">
        <ele>5.8</ele>
        <time>2016-01-23T11:47:19Z</time>
      </trkpt>
      <trkpt lat="60.453830639554" lon="22.275949166794">
        <ele>5.8</ele>
        <time>2016-01-23T11:47:20Z</time>
      </trkpt>
      <trkpt lat="60.45381924017" lon="22.275942377455">
        <ele>5.8</ele>
        <time>2016-01-23T11:47:21Z</time>
      </trkpt>
      <trkpt lat="60.453807756967" lon="22.275935336659">
        <ele>5.8</ele>
        <time>2016-01-23T11:47:22Z</time>
      </trkpt>
      <trkpt lat="60.453801051447" lon="22.275933744098">
        <ele>5.8</ele>
        <time>2016-01-23T11:47:23Z</time>
      </trkpt>
      <trkpt lat="60.453793591556" lon="22.275929217872">
        <ele>5.8</ele>
        <time>2016-01-23T11:47:24Z</time>
      </trkpt>
      <trkpt lat="60.453796357583" lon="22.275931564804">
        <ele>5.8</ele>
        <time>2016-01-23T11:47:25Z</time>
      </trkpt>
      <trkpt lat="60.453791998995" lon="22.275930307519">
        <ele>5.8</ele>
        <time>2016-01-23T11:47:26Z</time>
      </trkpt>
      <trkpt lat="60.453792753366" lon="22.275928798777">
        <ele>5.8</ele>
        <time>2016-01-23T11:47:27Z</time>
      </trkpt>
      <trkpt lat="60.4537915799" lon="22.275925948931">
        <ele>5.8</ele>
        <time>2016-01-23T11:47:28Z</time>
      </trkpt>
      <trkpt lat="60.453785293475" lon="22.275921338886">
        <ele>5.8</ele>
        <time>2016-01-23T11:47:29Z</time>
      </trkpt>
      <trkpt lat="60.453780851068" lon="22.275916309746">
        <ele>5.8</ele>
        <time>2016-01-23T11:47:30Z</time>
      </trkpt>
      <trkpt lat="60.453775905747" lon="22.275914717185">
        <ele>5.8</ele>
        <time>2016-01-23T11:47:31Z</time>
      </trkpt>
      <trkpt lat="60.453764171087" lon="22.275905580914">
        <ele>5.8</ele>
        <time>2016-01-23T11:47:32Z</time>
      </trkpt>
      <trkpt lat="60.453756292101" lon="22.275899294489">
        <ele>5.8</ele>
        <time>2016-01-23T11:47:33Z</time>
      </trkpt>
      <trkpt lat="60.453748748391" lon="22.275894013892">
        <ele>5.8</ele>
        <time>2016-01-23T11:47:34Z</time>
      </trkpt>
      <trkpt lat="60.453735504989" lon="22.275886386363">
        <ele>5.8</ele>
        <time>2016-01-23T11:47:35Z</time>
      </trkpt>
      <trkpt lat="60.453725111433" lon="22.275883117422">
        <ele>5.8</ele>
        <time>2016-01-23T11:47:36Z</time>
      </trkpt>
      <trkpt lat="60.453711868031" lon="22.275873478237">
        <ele>5.8</ele>
        <time>2016-01-23T11:47:37Z</time>
      </trkpt>
      <trkpt lat="60.453703486131" lon="22.275871969495">
        <ele>5.8</ele>
        <time>2016-01-23T11:47:38Z</time>
      </trkpt>
      <trkpt lat="60.453689823634" lon="22.275859480464">
        <ele>5.8</ele>
        <time>2016-01-23T11:47:39Z</time>
      </trkpt>
      <trkpt lat="60.453682782838" lon="22.275856295342">
        <ele>5.8</ele>
        <time>2016-01-23T11:47:40Z</time>
      </trkpt>
      <trkpt lat="60.453667779237" lon="22.275845147415">
        <ele>5.8</ele>
        <time>2016-01-23T11:47:41Z</time>
      </trkpt>
      <trkpt lat="60.453656798948" lon="22.275838609533">
        <ele>5.8</ele>
        <time>2016-01-23T11:47:42Z</time>
      </trkpt>
      <trkpt lat="60.45364657303" lon="22.275834334764">
        <ele>5.8</ele>
        <time>2016-01-23T11:47:43Z</time>
      </trkpt>
      <trkpt lat="60.453620840597" lon="22.275811955091">
        <ele>5.8</ele>
        <time>2016-01-23T11:47:45Z</time>
      </trkpt>
      <trkpt lat="60.453611955783" lon="22.275806506856">
        <ele>5.8</ele>
        <time>2016-01-23T11:47:46Z</time>
      </trkpt>
      <trkpt lat="60.453596197811" lon="22.275793766368">
        <ele>5.8</ele>
        <time>2016-01-23T11:47:47Z</time>
      </trkpt>
      <trkpt lat="60.453586893902" lon="22.275791503255">
        <ele>5.8</ele>
        <time>2016-01-23T11:47:48Z</time>
      </trkpt>
      <trkpt lat="60.453572979948" lon="22.275780020052">
        <ele>5.8</ele>
        <time>2016-01-23T11:47:49Z</time>
      </trkpt>
      <trkpt lat="60.453562586392" lon="22.275768788306">
        <ele>5.8</ele>
        <time>2016-01-23T11:47:50Z</time>
      </trkpt>
      <trkpt lat="60.453557305795" lon="22.275765184089">
        <ele>5.8</ele>
        <time>2016-01-23T11:47:51Z</time>
      </trkpt>
      <trkpt lat="60.453559652727" lon="22.275766525193">
        <ele>5.8</ele>
        <time>2016-01-23T11:47:52Z</time>
      </trkpt>
      <trkpt lat="60.453555042682" lon="22.275763088614">
        <ele>5.8</ele>
        <time>2016-01-23T11:47:53Z</time>
      </trkpt>
      <trkpt lat="60.453555042682" lon="22.275762669519">
        <ele>5.8</ele>
        <time>2016-01-23T11:47:54Z</time>
      </trkpt>
      <trkpt lat="60.453555294139" lon="22.275761160777">
        <ele>5.8</ele>
        <time>2016-01-23T11:47:55Z</time>
      </trkpt>
      <trkpt lat="60.453555377958" lon="22.275759568216">
        <ele>5.8</ele>
        <time>2016-01-23T11:47:56Z</time>
      </trkpt>
      <trkpt lat="60.45355521032" lon="22.275759149121">
        <ele>5.8</ele>
        <time>2016-01-23T11:47:57Z</time>
      </trkpt>
      <trkpt lat="60.453555042682" lon="22.275758646207">
        <ele>5.8</ele>
        <time>2016-01-23T11:47:58Z</time>
      </trkpt>
      <trkpt lat="60.453554707406" lon="22.275757640379">
        <ele>5.8</ele>
        <time>2016-01-23T11:47:59Z</time>
      </trkpt>
      <trkpt lat="60.453553953035" lon="22.275756047818">
        <ele>5.8</ele>
        <time>2016-01-23T11:48:00Z</time>
      </trkpt>
      <trkpt lat="60.453553701578" lon="22.275754958171">
        <ele>5.8</ele>
        <time>2016-01-23T11:48:01Z</time>
      </trkpt>
      <trkpt lat="60.453553617759" lon="22.275753868524">
        <ele>5.8</ele>
        <time>2016-01-23T11:48:02Z</time>
      </trkpt>
      <trkpt lat="60.453553366302" lon="22.275752359782">
        <ele>5.8</ele>
        <time>2016-01-23T11:48:03Z</time>
      </trkpt>
      <trkpt lat="60.453553282483" lon="22.275751521592">
        <ele>5.8</ele>
        <time>2016-01-23T11:48:04Z</time>
      </trkpt>
      <trkpt lat="60.453552863388" lon="22.275751018678">
        <ele>5.8</ele>
        <time>2016-01-23T11:48:05Z</time>
      </trkpt>
      <trkpt lat="60.453552192836" lon="22.275750096669">
        <ele>5.8</ele>
        <time>2016-01-23T11:48:06Z</time>
      </trkpt>
      <trkpt lat="60.453551689922" lon="22.275749007022">
        <ele>5.8</ele>
        <time>2016-01-23T11:48:07Z</time>
      </trkpt>
      <trkpt lat="60.453551270827" lon="22.275748755565">
        <ele>5.8</ele>
        <time>2016-01-23T11:48:08Z</time>
      </trkpt>
      <trkpt lat="60.45355018118" lon="22.275750515764">
        <ele>5.8</ele>
        <time>2016-01-23T11:48:09Z</time>
      </trkpt>
      <trkpt lat="60.453549259171" lon="22.275752108325">
        <ele>5.8</ele>
        <time>2016-01-23T11:48:10Z</time>
      </trkpt>
      <trkpt lat="60.453548001886" lon="22.275750767221">
        <ele>5.8</ele>
        <time>2016-01-23T11:48:11Z</time>
      </trkpt>
      <trkpt lat="60.453544816764" lon="22.275747749737">
        <ele>5.8</ele>
        <time>2016-01-23T11:48:12Z</time>
      </trkpt>
      <trkpt lat="60.453535429036" lon="22.275742301502">
        <ele>5.8</ele>
        <time>2016-01-23T11:48:13Z</time>
      </trkpt>
      <trkpt lat="60.453526544222" lon="22.275734003421">
        <ele>5.8</ele>
        <time>2016-01-23T11:48:14Z</time>
      </trkpt>
      <trkpt lat="60.453516737399" lon="22.275729393376">
        <ele>5.8</ele>
        <time>2016-01-23T11:48:15Z</time>
      </trkpt>
      <trkpt lat="60.453501649979" lon="22.275716652888">
        <ele>5.8</ele>
        <time>2016-01-23T11:48:16Z</time>
      </trkpt>
      <trkpt lat="60.453486227283" lon="22.275713048671">
        <ele>5.8</ele>
        <time>2016-01-23T11:48:17Z</time>
      </trkpt>
      <trkpt lat="60.453472900062" lon="22.275699889088">
        <ele>5.8</ele>
        <time>2016-01-23T11:48:18Z</time>
      </trkpt>
      <trkpt lat="60.453451442398" lon="22.275689160256">
        <ele>5.8</ele>
        <time>2016-01-23T11:48:19Z</time>
      </trkpt>
      <trkpt lat="60.453438198996" lon="22.275689244075">
        <ele>5.8</ele>
        <time>2016-01-23T11:48:20Z</time>
      </trkpt>
      <trkpt lat="60.453418752988" lon="22.27567625213">
        <ele>5.8</ele>
        <time>2016-01-23T11:48:21Z</time>
      </trkpt>
      <trkpt lat="60.453399809894" lon="22.275668792239">
        <ele>5.8</ele>
        <time>2016-01-23T11:48:22Z</time>
      </trkpt>
      <trkpt lat="60.453383129913" lon="22.275659823606">
        <ele>5.8</ele>
        <time>2016-01-23T11:48:23Z</time>
      </trkpt>
      <trkpt lat="60.453359995869" lon="22.275641215788">
        <ele>5.8</ele>
        <time>2016-01-23T11:48:24Z</time>
      </trkpt>
      <trkpt lat="60.453344489354" lon="22.27563769539">
        <ele>5.8</ele>
        <time>2016-01-23T11:48:25Z</time>
      </trkpt>
      <trkpt lat="60.453327474097" lon="22.275621602142">
        <ele>5.8</ele>
        <time>2016-01-23T11:48:26Z</time>
      </trkpt>
      <trkpt lat="60.453308447184" lon="22.27560919693">
        <ele>5.8</ele>
        <time>2016-01-23T11:48:27Z</time>
      </trkpt>
      <trkpt lat="60.453296796343" lon="22.275600144478">
        <ele>5.8</ele>
        <time>2016-01-23T11:48:28Z</time>
      </trkpt>
      <trkpt lat="60.453275673955" lon="22.275585057058">
        <ele>5.8</ele>
        <time>2016-01-23T11:48:29Z</time>
      </trkpt>
      <trkpt lat="60.453263268743" lon="22.275580447013">
        <ele>5.8</ele>
        <time>2016-01-23T11:48:30Z</time>
      </trkpt>
      <trkpt lat="60.453245247658" lon="22.275565024317">
        <ele>5.8</ele>
        <time>2016-01-23T11:48:31Z</time>
      </trkpt>
      <trkpt lat="60.453225131098" lon="22.275554798399">
        <ele>5.8</ele>
        <time>2016-01-23T11:48:32Z</time>
      </trkpt>
      <trkpt lat="60.453211384782" lon="22.275547925241">
        <ele>5.8</ele>
        <time>2016-01-23T11:48:33Z</time>
      </trkpt>
      <trkpt lat="60.453193782792" lon="22.275532502545">
        <ele>5.8</ele>
        <time>2016-01-23T11:48:34Z</time>
      </trkpt>
      <trkpt lat="60.453180287933" lon="22.275524120645">
        <ele>5.8</ele>
        <time>2016-01-23T11:48:35Z</time>
      </trkpt>
      <trkpt lat="60.453169978196" lon="22.275518504772">
        <ele>5.8</ele>
        <time>2016-01-23T11:48:36Z</time>
      </trkpt>
      <trkpt lat="60.45316377559" lon="22.275518923867">
        <ele>5.8</ele>
        <time>2016-01-23T11:48:37Z</time>
      </trkpt>
      <trkpt lat="60.453158662631" lon="22.27551699603">
        <ele>5.8</ele>
        <time>2016-01-23T11:48:38Z</time>
      </trkpt>
      <trkpt lat="60.453155728966" lon="22.275505596646">
        <ele>5.8</ele>
        <time>2016-01-23T11:48:39Z</time>
      </trkpt>
      <trkpt lat="60.453157321527" lon="22.275510709605">
        <ele>5.8</ele>
        <time>2016-01-23T11:48:40Z</time>
      </trkpt>
      <trkpt lat="60.453155477509" lon="22.275500818963">
        <ele>5.8</ele>
        <time>2016-01-23T11:48:41Z</time>
      </trkpt>
      <trkpt lat="60.453155477509" lon="22.27550107042">
        <ele>5.8</ele>
        <time>2016-01-23T11:48:42Z</time>
      </trkpt>
      <trkpt lat="60.453156148061" lon="22.275500735144">
        <ele>5.8</ele>
        <time>2016-01-23T11:48:43Z</time>
      </trkpt>
      <trkpt lat="60.453156315699" lon="22.275502243886">
        <ele>5.8</ele>
        <time>2016-01-23T11:48:44Z</time>
      </trkpt>
      <trkpt lat="60.453156902432" lon="22.275506267198">
        <ele>5.8</ele>
        <time>2016-01-23T11:48:45Z</time>
      </trkpt>
      <trkpt lat="60.453158494993" lon="22.275507608302">
        <ele>5.8</ele>
        <time>2016-01-23T11:48:46Z</time>
      </trkpt>
      <trkpt lat="60.453159919916" lon="22.275505596646">
        <ele>5.8</ele>
        <time>2016-01-23T11:48:47Z</time>
      </trkpt>
      <trkpt lat="60.45316042283" lon="22.275503165895">
        <ele>5.8</ele>
        <time>2016-01-23T11:48:48Z</time>
      </trkpt>
      <trkpt lat="60.453161344839" lon="22.275500818963">
        <ele>5.8</ele>
        <time>2016-01-23T11:48:49Z</time>
      </trkpt>
      <trkpt lat="60.453162685943" lon="22.275499645497">
        <ele>5.8</ele>
        <time>2016-01-23T11:48:50Z</time>
      </trkpt>
      <trkpt lat="60.453163859409" lon="22.275499896954">
        <ele>5.8</ele>
        <time>2016-01-23T11:48:51Z</time>
      </trkpt>
      <trkpt lat="60.453164110866" lon="22.275498388212">
        <ele>5.8</ele>
        <time>2016-01-23T11:48:52Z</time>
      </trkpt>
      <trkpt lat="60.453163607952" lon="22.27549771766">
        <ele>5.8</ele>
        <time>2016-01-23T11:48:53Z</time>
      </trkpt>
      <trkpt lat="60.453164278504" lon="22.275498723488">
        <ele>5.8</ele>
        <time>2016-01-23T11:48:54Z</time>
      </trkpt>
      <trkpt lat="60.453164362323" lon="22.275498304393">
        <ele>5.8</ele>
        <time>2016-01-23T11:48:55Z</time>
      </trkpt>
      <trkpt lat="60.453162853581" lon="22.275498052936">
        <ele>5.8</ele>
        <time>2016-01-23T11:48:56Z</time>
      </trkpt>
      <trkpt lat="60.45316209921" lon="22.27549771766">
        <ele>5.8</ele>
        <time>2016-01-23T11:48:57Z</time>
      </trkpt>
      <trkpt lat="60.453161009563" lon="22.275497550022">
        <ele>5.8</ele>
        <time>2016-01-23T11:48:58Z</time>
      </trkpt>
      <trkpt lat="60.453158662631" lon="22.275498220574">
        <ele>5.8</ele>
        <time>2016-01-23T11:48:59Z</time>
      </trkpt>
      <trkpt lat="60.453156148061" lon="22.275496628013">
        <ele>5.8</ele>
        <time>2016-01-23T11:49:00Z</time>
      </trkpt>
      <trkpt lat="60.453154052586" lon="22.27549268852">
        <ele>5.8</ele>
        <time>2016-01-23T11:49:01Z</time>
      </trkpt>
      <trkpt lat="60.453144832496" lon="22.275485899181">
        <ele>5.8</ele>
        <time>2016-01-23T11:49:02Z</time>
      </trkpt>
      <trkpt lat="60.453140222451" lon="22.275480702403">
        <ele>5.8</ele>
        <time>2016-01-23T11:49:03Z</time>
      </trkpt>
      <trkpt lat="60.45313527713" lon="22.27547843929">
        <ele>5.8</ele>
        <time>2016-01-23T11:49:04Z</time>
      </trkpt>
      <trkpt lat="60.453123458651" lon="22.275468883924">
        <ele>5.8</ele>
        <time>2016-01-23T11:49:05Z</time>
      </trkpt>
      <trkpt lat="60.453117591321" lon="22.275466201716">
        <ele>5.8</ele>
        <time>2016-01-23T11:49:06Z</time>
      </trkpt>
      <trkpt lat="60.453104431738" lon="22.275455221427">
        <ele>5.8</ele>
        <time>2016-01-23T11:49:07Z</time>
      </trkpt>
      <trkpt lat="60.453096971847" lon="22.275450108468">
        <ele>5.8</ele>
        <time>2016-01-23T11:49:08Z</time>
      </trkpt>
      <trkpt lat="60.453081465332" lon="22.275436865066">
        <ele>5.8</ele>
        <time>2016-01-23T11:49:09Z</time>
      </trkpt>
      <trkpt lat="60.453072161423" lon="22.275432841754">
        <ele>5.8</ele>
        <time>2016-01-23T11:49:10Z</time>
      </trkpt>
      <trkpt lat="60.453053637424" lon="22.275419011619">
        <ele>5.8</ele>
        <time>2016-01-23T11:49:11Z</time>
      </trkpt>
      <trkpt lat="60.453041148393" lon="22.27541725142">
        <ele>5.8</ele>
        <time>2016-01-23T11:49:12Z</time>
      </trkpt>
      <trkpt lat="60.453023462584" lon="22.275403337466">
        <ele>5.8</ele>
        <time>2016-01-23T11:49:13Z</time>
      </trkpt>
      <trkpt lat="60.45301290139" lon="22.275398559783">
        <ele>5.8</ele>
        <time>2016-01-23T11:49:14Z</time>
      </trkpt>
      <trkpt lat="60.452992868649" lon="22.275383807639">
        <ele>5.8</ele>
        <time>2016-01-23T11:49:15Z</time>
      </trkpt>
      <trkpt lat="60.452976607763" lon="22.27538037106">
        <ele>5.8</ele>
        <time>2016-01-23T11:49:16Z</time>
      </trkpt>
      <trkpt lat="60.452954144271" lon="22.275371653884">
        <ele>5.8</ele>
        <time>2016-01-23T11:49:17Z</time>
      </trkpt>
      <trkpt lat="60.452927573648" lon="22.275362433794">
        <ele>5.8</ele>
        <time>2016-01-23T11:49:18Z</time>
      </trkpt>
      <trkpt lat="60.452900248654" lon="22.275354135713">
        <ele>5.4</ele>
        <time>2016-01-23T11:49:19Z</time>
      </trkpt>
      <trkpt lat="60.452873678031" lon="22.275342736329">
        <ele>4.8</ele>
        <time>2016-01-23T11:49:20Z</time>
      </trkpt>
      <trkpt lat="60.452848448512" lon="22.275332678049">
        <ele>4.2</ele>
        <time>2016-01-23T11:49:21Z</time>
      </trkpt>
      <trkpt lat="60.452822045527" lon="22.27532924147">
        <ele>3.8</ele>
        <time>2016-01-23T11:49:22Z</time>
      </trkpt>
      <trkpt lat="60.452790026669" lon="22.275325972529">
        <ele>3.2</ele>
        <time>2016-01-23T11:49:23Z</time>
      </trkpt>
      <trkpt lat="60.452765300064" lon="22.275324882882">
        <ele>3.2</ele>
        <time>2016-01-23T11:49:24Z</time>
      </trkpt>
      <trkpt lat="60.452735209043" lon="22.275331169307">
        <ele>3.2</ele>
        <time>2016-01-23T11:49:25Z</time>
      </trkpt>
      <trkpt lat="60.452708806058" lon="22.27533007966">
        <ele>3.2</ele>
        <time>2016-01-23T11:49:26Z</time>
      </trkpt>
      <trkpt lat="60.452681397245" lon="22.275321613941">
        <ele>3.2</ele>
        <time>2016-01-23T11:49:27Z</time>
      </trkpt>
      <trkpt lat="60.452647199093" lon="22.27529906663">
        <ele>3.2</ele>
        <time>2016-01-23T11:49:28Z</time>
      </trkpt>
      <trkpt lat="60.452616856615" lon="22.275273753292">
        <ele>3.2</ele>
        <time>2016-01-23T11:49:29Z</time>
      </trkpt>
      <trkpt lat="60.452590705087" lon="22.275249697239">
        <ele>3.2</ele>
        <time>2016-01-23T11:49:30Z</time>
      </trkpt>
      <trkpt lat="60.452568744509" lon="22.275229329222">
        <ele>3.2</ele>
        <time>2016-01-23T11:49:31Z</time>
      </trkpt>
      <trkpt lat="60.452546783931" lon="22.275212313965">
        <ele>3.4</ele>
        <time>2016-01-23T11:49:32Z</time>
      </trkpt>
      <trkpt lat="60.452529349579" lon="22.275196639812">
        <ele>3.8</ele>
        <time>2016-01-23T11:49:33Z</time>
      </trkpt>
      <trkpt lat="60.452516273815" lon="22.275183731686">
        <ele>4.2</ele>
        <time>2016-01-23T11:49:34Z</time>
      </trkpt>
      <trkpt lat="60.452503700965" lon="22.275176271795">
        <ele>4.6</ele>
        <time>2016-01-23T11:49:35Z</time>
      </trkpt>
      <trkpt lat="60.452495989617" lon="22.275170572103">
        <ele>5.2</ele>
        <time>2016-01-23T11:49:36Z</time>
      </trkpt>
      <trkpt lat="60.452498588006" lon="22.275170991198">
        <ele>5.4</ele>
        <time>2016-01-23T11:49:37Z</time>
      </trkpt>
      <trkpt lat="60.452494480875" lon="22.275162357841">
        <ele>5.4</ele>
        <time>2016-01-23T11:49:38Z</time>
      </trkpt>
      <trkpt lat="60.452493642685" lon="22.275157328701">
        <ele>5.4</ele>
        <time>2016-01-23T11:49:39Z</time>
      </trkpt>
      <trkpt lat="60.452492050124" lon="22.275151964285">
        <ele>5.4</ele>
        <time>2016-01-23T11:49:40Z</time>
      </trkpt>
      <trkpt lat="60.452489284097" lon="22.275147270421">
        <ele>5.4</ele>
        <time>2016-01-23T11:49:41Z</time>
      </trkpt>
      <trkpt lat="60.452485847518" lon="22.275143414747">
        <ele>5.4</ele>
        <time>2016-01-23T11:49:42Z</time>
      </trkpt>
      <trkpt lat="60.452480231645" lon="22.275137379779">
        <ele>5.4</ele>
        <time>2016-01-23T11:49:43Z</time>
      </trkpt>
      <trkpt lat="60.452481991844" lon="22.275139056159">
        <ele>5.4</ele>
        <time>2016-01-23T11:49:44Z</time>
      </trkpt>
      <trkpt lat="60.452473861401" lon="22.27513310501">
        <ele>5.4</ele>
        <time>2016-01-23T11:49:45Z</time>
      </trkpt>
      <trkpt lat="60.452473190849" lon="22.275129416974">
        <ele>5.4</ele>
        <time>2016-01-23T11:49:46Z</time>
      </trkpt>
      <trkpt lat="60.452479477274" lon="22.27513142863">
        <ele>5.4</ele>
        <time>2016-01-23T11:49:47Z</time>
      </trkpt>
      <trkpt lat="60.452484506414" lon="22.275130758078">
        <ele>5.4</ele>
        <time>2016-01-23T11:49:48Z</time>
      </trkpt>
      <trkpt lat="60.452491128115" lon="22.275132183001">
        <ele>5.4</ele>
        <time>2016-01-23T11:49:49Z</time>
      </trkpt>
      <trkpt lat="60.452496492531" lon="22.275133691743">
        <ele>5.4</ele>
        <time>2016-01-23T11:49:50Z</time>
      </trkpt>
      <trkpt lat="60.452493810323" lon="22.275131931544">
        <ele>5.4</ele>
        <time>2016-01-23T11:49:51Z</time>
      </trkpt>
      <trkpt lat="60.452497917454" lon="22.275127153861">
        <ele>5.4</ele>
        <time>2016-01-23T11:49:52Z</time>
      </trkpt>
      <trkpt lat="60.45249657635" lon="22.275113575183">
        <ele>5.4</ele>
        <time>2016-01-23T11:49:53Z</time>
      </trkpt>
      <trkpt lat="60.452498420368" lon="22.275104019817">
        <ele>5.4</ele>
        <time>2016-01-23T11:49:54Z</time>
      </trkpt>
      <trkpt lat="60.452497163083" lon="22.275107204939">
        <ele>5.4</ele>
        <time>2016-01-23T11:49:55Z</time>
      </trkpt>
      <trkpt lat="60.452498168911" lon="22.275096057012">
        <ele>5.4</ele>
        <time>2016-01-23T11:49:56Z</time>
      </trkpt>
      <trkpt lat="60.45249909092" lon="22.275092955709">
        <ele>5.4</ele>
        <time>2016-01-23T11:49:57Z</time>
      </trkpt>
      <trkpt lat="60.452500096748" lon="22.275088848578">
        <ele>5.4</ele>
        <time>2016-01-23T11:49:58Z</time>
      </trkpt>
      <trkpt lat="60.45250160549" lon="22.275084657628">
        <ele>5.4</ele>
        <time>2016-01-23T11:49:59Z</time>
      </trkpt>
      <trkpt lat="60.45250160549" lon="22.275083232705">
        <ele>5.4</ele>
        <time>2016-01-23T11:50:00Z</time>
      </trkpt>
      <trkpt lat="60.452504790612" lon="22.27508868094">
        <ele>5.4</ele>
        <time>2016-01-23T11:50:01Z</time>
      </trkpt>
      <trkpt lat="60.452503114232" lon="22.275085495818">
        <ele>5.4</ele>
        <time>2016-01-23T11:50:02Z</time>
      </trkpt>
      <trkpt lat="60.452513591607" lon="22.275090441139">
        <ele>5.4</ele>
        <time>2016-01-23T11:50:03Z</time>
      </trkpt>
      <trkpt lat="60.452510322666" lon="22.27508951913">
        <ele>5.4</ele>
        <time>2016-01-23T11:50:04Z</time>
      </trkpt>
      <trkpt lat="60.452514848892" lon="22.275088764759">
        <ele>5.4</ele>
        <time>2016-01-23T11:50:05Z</time>
      </trkpt>
      <trkpt lat="60.452516189996" lon="22.275087339836">
        <ele>5.4</ele>
        <time>2016-01-23T11:50:06Z</time>
      </trkpt>
      <trkpt lat="60.452516944367" lon="22.275087423655">
        <ele>5.4</ele>
        <time>2016-01-23T11:50:07Z</time>
      </trkpt>
      <trkpt lat="60.452516944367" lon="22.275087339836">
        <ele>5.4</ele>
        <time>2016-01-23T11:50:08Z</time>
      </trkpt>
      <trkpt lat="60.452515770901" lon="22.275087507474">
        <ele>5.4</ele>
        <time>2016-01-23T11:50:09Z</time>
      </trkpt>
      <trkpt lat="60.452515100349" lon="22.275085914913">
        <ele>5.4</ele>
        <time>2016-01-23T11:50:10Z</time>
      </trkpt>
      <trkpt lat="60.452514094521" lon="22.27508532818">
        <ele>5.4</ele>
        <time>2016-01-23T11:50:11Z</time>
      </trkpt>
      <trkpt lat="60.452513759245" lon="22.27508281361">
        <ele>5.4</ele>
        <time>2016-01-23T11:50:12Z</time>
      </trkpt>
      <trkpt lat="60.452514262159" lon="22.275082729791">
        <ele>5.4</ele>
        <time>2016-01-23T11:50:13Z</time>
      </trkpt>
      <trkpt lat="60.452514262159" lon="22.275083065067">
        <ele>5.4</ele>
        <time>2016-01-23T11:50:14Z</time>
      </trkpt>
      <trkpt lat="60.45251250196" lon="22.275082562153">
        <ele>5.4</ele>
        <time>2016-01-23T11:50:15Z</time>
      </trkpt>
      <trkpt lat="60.452511244675" lon="22.275083316524">
        <ele>5.4</ele>
        <time>2016-01-23T11:50:16Z</time>
      </trkpt>
      <trkpt lat="60.452510574123" lon="22.275084657628">
        <ele>5.4</ele>
        <time>2016-01-23T11:50:17Z</time>
      </trkpt>
      <trkpt lat="60.4525091492" lon="22.275084741447">
        <ele>5.4</ele>
        <time>2016-01-23T11:50:18Z</time>
      </trkpt>
      <trkpt lat="60.452507891915" lon="22.275085914913">
        <ele>5.4</ele>
        <time>2016-01-23T11:50:19Z</time>
      </trkpt>
      <trkpt lat="60.452507305182" lon="22.275088094207">
        <ele>5.4</ele>
        <time>2016-01-23T11:50:20Z</time>
      </trkpt>
      <trkpt lat="60.452507891915" lon="22.275093207166">
        <ele>5.4</ele>
        <time>2016-01-23T11:50:21Z</time>
      </trkpt>
      <trkpt lat="60.452510071209" lon="22.275095889374">
        <ele>5.4</ele>
        <time>2016-01-23T11:50:22Z</time>
      </trkpt>
      <trkpt lat="60.452515267987" lon="22.275098487763">
        <ele>5.4</ele>
        <time>2016-01-23T11:50:23Z</time>
      </trkpt>
      <trkpt lat="60.452520967679" lon="22.2751004156">
        <ele>5.4</ele>
        <time>2016-01-23T11:50:24Z</time>
      </trkpt>
      <trkpt lat="60.452518117833" lon="22.275099158315">
        <ele>5.4</ele>
        <time>2016-01-23T11:50:25Z</time>
      </trkpt>
      <trkpt lat="60.452523817525" lon="22.275105360921">
        <ele>5.4</ele>
        <time>2016-01-23T11:50:26Z</time>
      </trkpt>
      <trkpt lat="60.452523901344" lon="22.275104941826">
        <ele>5.4</ele>
        <time>2016-01-23T11:50:27Z</time>
      </trkpt>
      <trkpt lat="60.452522895516" lon="22.275104103636">
        <ele>5.4</ele>
        <time>2016-01-23T11:50:28Z</time>
      </trkpt>
      <trkpt lat="60.452521889688" lon="22.275103265446">
        <ele>5.4</ele>
        <time>2016-01-23T11:50:29Z</time>
      </trkpt>
      <trkpt lat="60.452521219136" lon="22.275102343437">
        <ele>5.4</ele>
        <time>2016-01-23T11:50:30Z</time>
      </trkpt>
      <trkpt lat="60.452520464765" lon="22.275101169971">
        <ele>5.4</ele>
        <time>2016-01-23T11:50:31Z</time>
      </trkpt>
      <trkpt lat="60.452519794213" lon="22.275099828867">
        <ele>5.4</ele>
        <time>2016-01-23T11:50:32Z</time>
      </trkpt>
      <trkpt lat="60.452520464765" lon="22.27509706284">
        <ele>5.4</ele>
        <time>2016-01-23T11:50:33Z</time>
      </trkpt>
      <trkpt lat="60.452520464765" lon="22.275095051184">
        <ele>5.4</ele>
        <time>2016-01-23T11:50:34Z</time>
      </trkpt>
      <trkpt lat="60.452519710394" lon="22.275093793899">
        <ele>5.4</ele>
        <time>2016-01-23T11:50:35Z</time>
      </trkpt>
      <trkpt lat="60.45251836929" lon="22.275092788071">
        <ele>5.4</ele>
        <time>2016-01-23T11:50:36Z</time>
      </trkpt>
      <trkpt lat="60.452516944367" lon="22.275091698424">
        <ele>5.4</ele>
        <time>2016-01-23T11:50:37Z</time>
      </trkpt>
      <trkpt lat="60.452515267987" lon="22.275092704252">
        <ele>5.4</ele>
        <time>2016-01-23T11:50:38Z</time>
      </trkpt>
      <trkpt lat="60.452513843064" lon="22.27509371008">
        <ele>5.4</ele>
        <time>2016-01-23T11:50:39Z</time>
      </trkpt>
      <trkpt lat="60.452513507788" lon="22.275092452795">
        <ele>5.4</ele>
        <time>2016-01-23T11:50:40Z</time>
      </trkpt>
      <trkpt lat="60.452511999046" lon="22.275091363148">
        <ele>5.4</ele>
        <time>2016-01-23T11:50:41Z</time>
      </trkpt>
      <trkpt lat="60.452509568295" lon="22.275087339836">
        <ele>5.4</ele>
        <time>2016-01-23T11:50:42Z</time>
      </trkpt>
      <trkpt lat="60.452507305182" lon="22.275081891601">
        <ele>5.4</ele>
        <time>2016-01-23T11:50:43Z</time>
      </trkpt>
      <trkpt lat="60.452506550811" lon="22.275077197737">
        <ele>5.4</ele>
        <time>2016-01-23T11:50:44Z</time>
      </trkpt>
      <trkpt lat="60.452506886087" lon="22.27507443171">
        <ele>5.4</ele>
        <time>2016-01-23T11:50:45Z</time>
      </trkpt>
      <trkpt lat="60.452507221363" lon="22.275066385086">
        <ele>5.4</ele>
        <time>2016-01-23T11:50:46Z</time>
      </trkpt>
      <trkpt lat="60.452506718449" lon="22.275069989303">
        <ele>5.4</ele>
        <time>2016-01-23T11:50:47Z</time>
      </trkpt>
      <trkpt lat="60.452505712621" lon="22.27505682972">
        <ele>5.4</ele>
        <time>2016-01-23T11:50:48Z</time>
      </trkpt>
      <trkpt lat="60.452506802268" lon="22.275060601575">
        <ele>5.4</ele>
        <time>2016-01-23T11:50:49Z</time>
      </trkpt>
      <trkpt lat="60.452506383173" lon="22.27505431515">
        <ele>5.4</ele>
        <time>2016-01-23T11:50:50Z</time>
      </trkpt>
      <trkpt lat="60.452506299354" lon="22.275053644598">
        <ele>5.4</ele>
        <time>2016-01-23T11:50:51Z</time>
      </trkpt>
      <trkpt lat="60.45250579644" lon="22.27505431515">
        <ele>5.4</ele>
        <time>2016-01-23T11:50:52Z</time>
      </trkpt>
      <trkpt lat="60.45250495825" lon="22.275055488616">
        <ele>5.4</ele>
        <time>2016-01-23T11:50:53Z</time>
      </trkpt>
      <trkpt lat="60.452506969906" lon="22.275057332634">
        <ele>5.4</ele>
        <time>2016-01-23T11:50:54Z</time>
      </trkpt>
      <trkpt lat="60.45250831101" lon="22.275058254643">
        <ele>5.4</ele>
        <time>2016-01-23T11:50:55Z</time>
      </trkpt>
      <trkpt lat="60.4525091492" lon="22.275057416453">
        <ele>5.4</ele>
        <time>2016-01-23T11:50:56Z</time>
      </trkpt>
      <trkpt lat="60.452510406485" lon="22.275056242987">
        <ele>5.4</ele>
        <time>2016-01-23T11:50:57Z</time>
      </trkpt>
      <trkpt lat="60.452511244675" lon="22.275053812236">
        <ele>5.4</ele>
        <time>2016-01-23T11:50:58Z</time>
      </trkpt>
      <trkpt lat="60.452512166684" lon="22.275052722589">
        <ele>5.4</ele>
        <time>2016-01-23T11:50:59Z</time>
      </trkpt>
      <trkpt lat="60.452513088693" lon="22.275051632942">
        <ele>5.4</ele>
        <time>2016-01-23T11:51:00Z</time>
      </trkpt>
      <trkpt lat="60.452514010702" lon="22.275050291838">
        <ele>5.4</ele>
        <time>2016-01-23T11:51:01Z</time>
      </trkpt>
      <trkpt lat="60.452514010702" lon="22.275050291838">
        <ele>5.4</ele>
        <time>2016-01-23T11:51:02Z</time>
      </trkpt>
      <trkpt lat="60.45251585472" lon="22.275047693449">
        <ele>5.4</ele>
        <time>2016-01-23T11:51:03Z</time>
      </trkpt>
      <trkpt lat="60.452516189996" lon="22.275046939078">
        <ele>5.4</ele>
        <time>2016-01-23T11:51:04Z</time>
      </trkpt>
      <trkpt lat="60.452516525272" lon="22.27504593325">
        <ele>5.4</ele>
        <time>2016-01-23T11:51:05Z</time>
      </trkpt>
      <trkpt lat="60.452516860548" lon="22.275044927422">
        <ele>5.4</ele>
        <time>2016-01-23T11:51:06Z</time>
      </trkpt>
      <trkpt lat="60.452517279643" lon="22.275043670137">
        <ele>5.4</ele>
        <time>2016-01-23T11:51:07Z</time>
      </trkpt>
      <trkpt lat="60.452517782557" lon="22.275042329033">
        <ele>5.4</ele>
        <time>2016-01-23T11:51:08Z</time>
      </trkpt>
      <trkpt lat="60.45251836929" lon="22.275041239386">
        <ele>5.4</ele>
        <time>2016-01-23T11:51:09Z</time>
      </trkpt>
      <trkpt lat="60.452518956023" lon="22.275040233558">
        <ele>5.4</ele>
        <time>2016-01-23T11:51:10Z</time>
      </trkpt>
      <trkpt lat="60.45251920748" lon="22.275038892454">
        <ele>5.4</ele>
        <time>2016-01-23T11:51:11Z</time>
      </trkpt>
      <trkpt lat="60.452519291299" lon="22.275037718988">
        <ele>5.4</ele>
        <time>2016-01-23T11:51:12Z</time>
      </trkpt>
      <trkpt lat="60.452519375118" lon="22.275036629341">
        <ele>5.4</ele>
        <time>2016-01-23T11:51:13Z</time>
      </trkpt>
      <trkpt lat="60.452519123661" lon="22.275035204418">
        <ele>5.4</ele>
        <time>2016-01-23T11:51:14Z</time>
      </trkpt>
      <trkpt lat="60.452519291299" lon="22.275034030952">
        <ele>5.4</ele>
        <time>2016-01-23T11:51:15Z</time>
      </trkpt>
      <trkpt lat="60.452519375118" lon="22.275032857486">
        <ele>5.4</ele>
        <time>2016-01-23T11:51:16Z</time>
      </trkpt>
      <trkpt lat="60.452519542756" lon="22.275031516382">
        <ele>5.4</ele>
        <time>2016-01-23T11:51:17Z</time>
      </trkpt>
      <trkpt lat="60.452519794213" lon="22.275030259097">
        <ele>5.4</ele>
        <time>2016-01-23T11:51:18Z</time>
      </trkpt>
      <trkpt lat="60.45252004567" lon="22.275028917993">
        <ele>5.4</ele>
        <time>2016-01-23T11:51:19Z</time>
      </trkpt>
      <trkpt lat="60.452520213308" lon="22.275027744527">
        <ele>5.4</ele>
        <time>2016-01-23T11:51:20Z</time>
      </trkpt>
      <trkpt lat="60.452520380946" lon="22.275026571061">
        <ele>5.4</ele>
        <time>2016-01-23T11:51:21Z</time>
      </trkpt>
      <trkpt lat="60.452520548584" lon="22.275025397595">
        <ele>5.4</ele>
        <time>2016-01-23T11:51:22Z</time>
      </trkpt>
      <trkpt lat="60.452520716222" lon="22.275024307948">
        <ele>5.4</ele>
        <time>2016-01-23T11:51:23Z</time>
      </trkpt>
      <trkpt lat="60.452520800041" lon="22.27502330212">
        <ele>5.4</ele>
        <time>2016-01-23T11:51:24Z</time>
      </trkpt>
      <trkpt lat="60.452520800041" lon="22.275022296292">
        <ele>5.4</ele>
        <time>2016-01-23T11:51:25Z</time>
      </trkpt>
      <trkpt lat="60.45252088386" lon="22.275021458102">
        <ele>5.4</ele>
        <time>2016-01-23T11:51:26Z</time>
      </trkpt>
      <trkpt lat="60.452520800041" lon="22.275020703731">
        <ele>5.4</ele>
        <time>2016-01-23T11:51:27Z</time>
      </trkpt>
      <trkpt lat="60.452520800041" lon="22.275020033179">
        <ele>5.4</ele>
        <time>2016-01-23T11:51:28Z</time>
      </trkpt>
      <trkpt lat="60.452521051498" lon="22.27501911117">
        <ele>5.4</ele>
        <time>2016-01-23T11:51:29Z</time>
      </trkpt>
      <trkpt lat="60.452521386774" lon="22.275018189161">
        <ele>5.4</ele>
        <time>2016-01-23T11:51:30Z</time>
      </trkpt>
      <trkpt lat="60.452521554412" lon="22.27501743479">
        <ele>5.4</ele>
        <time>2016-01-23T11:51:31Z</time>
      </trkpt>
      <trkpt lat="60.45252172205" lon="22.2750165966">
        <ele>5.4</ele>
        <time>2016-01-23T11:51:32Z</time>
      </trkpt>
      <trkpt lat="60.452521889688" lon="22.275016009867">
        <ele>5.4</ele>
        <time>2016-01-23T11:51:33Z</time>
      </trkpt>
      <trkpt lat="60.452521973507" lon="22.275015423134">
        <ele>5.4</ele>
        <time>2016-01-23T11:51:34Z</time>
      </trkpt>
      <trkpt lat="60.452522057326" lon="22.275014836401">
        <ele>5.4</ele>
        <time>2016-01-23T11:51:35Z</time>
      </trkpt>
      <trkpt lat="60.452522224964" lon="22.275014249668">
        <ele>5.4</ele>
        <time>2016-01-23T11:51:36Z</time>
      </trkpt>
      <trkpt lat="60.452522392602" lon="22.275013495297">
        <ele>5.4</ele>
        <time>2016-01-23T11:51:37Z</time>
      </trkpt>
      <trkpt lat="60.452522644059" lon="22.275012824745">
        <ele>5.4</ele>
        <time>2016-01-23T11:51:38Z</time>
      </trkpt>
      <trkpt lat="60.452522644059" lon="22.27501240565">
        <ele>5.4</ele>
        <time>2016-01-23T11:51:39Z</time>
      </trkpt>
      <trkpt lat="60.452522308783" lon="22.27501240565">
        <ele>5.4</ele>
        <time>2016-01-23T11:51:40Z</time>
      </trkpt>
      <trkpt lat="60.452521973507" lon="22.275012740926">
        <ele>5.4</ele>
        <time>2016-01-23T11:51:41Z</time>
      </trkpt>
      <trkpt lat="60.452522392602" lon="22.275011818917">
        <ele>5.4</ele>
        <time>2016-01-23T11:51:42Z</time>
      </trkpt>
      <trkpt lat="60.452522895516" lon="22.275010393994">
        <ele>5.4</ele>
        <time>2016-01-23T11:51:43Z</time>
      </trkpt>
      <trkpt lat="60.452522979335" lon="22.275009555804">
        <ele>5.4</ele>
        <time>2016-01-23T11:51:44Z</time>
      </trkpt>
      <trkpt lat="60.452522979335" lon="22.275008466157">
        <ele>5.4</ele>
        <time>2016-01-23T11:51:45Z</time>
      </trkpt>
      <trkpt lat="60.452523146973" lon="22.275007460329">
        <ele>5.4</ele>
        <time>2016-01-23T11:51:46Z</time>
      </trkpt>
      <trkpt lat="60.452523817525" lon="22.275005867768">
        <ele>5.4</ele>
        <time>2016-01-23T11:51:47Z</time>
      </trkpt>
      <trkpt lat="60.452523985163" lon="22.275004526664">
        <ele>5.4</ele>
        <time>2016-01-23T11:51:48Z</time>
      </trkpt>
      <trkpt lat="60.452524320439" lon="22.275003101741">
        <ele>5.4</ele>
        <time>2016-01-23T11:51:49Z</time>
      </trkpt>
      <trkpt lat="60.452524571896" lon="22.275002095913">
        <ele>5.4</ele>
        <time>2016-01-23T11:51:50Z</time>
      </trkpt>
      <trkpt lat="60.452525410086" lon="22.275001006266">
        <ele>5.4</ele>
        <time>2016-01-23T11:51:51Z</time>
      </trkpt>
      <trkpt lat="60.452524990991" lon="22.275000419533">
        <ele>5.4</ele>
        <time>2016-01-23T11:51:52Z</time>
      </trkpt>
      <trkpt lat="60.45252507481" lon="22.275003688474">
        <ele>5.4</ele>
        <time>2016-01-23T11:51:53Z</time>
      </trkpt>
      <trkpt lat="60.452524404258" lon="22.275007208872">
        <ele>5.4</ele>
        <time>2016-01-23T11:51:54Z</time>
      </trkpt>
      <trkpt lat="60.452523063154" lon="22.275007544148">
        <ele>5.4</ele>
        <time>2016-01-23T11:51:55Z</time>
      </trkpt>
      <trkpt lat="60.452523314611" lon="22.275007711786">
        <ele>5.4</ele>
        <time>2016-01-23T11:51:56Z</time>
      </trkpt>
      <trkpt lat="60.452523482249" lon="22.275007460329">
        <ele>5.4</ele>
        <time>2016-01-23T11:51:57Z</time>
      </trkpt>
      <trkpt lat="60.452523566068" lon="22.275007711786">
        <ele>5.4</ele>
        <time>2016-01-23T11:51:58Z</time>
      </trkpt>
      <trkpt lat="60.452523566068" lon="22.275007711786">
        <ele>5.4</ele>
        <time>2016-01-23T11:51:59Z</time>
      </trkpt>
      <trkpt lat="60.452523314611" lon="22.275006705958">
        <ele>5.4</ele>
        <time>2016-01-23T11:52:00Z</time>
      </trkpt>
      <trkpt lat="60.452521805869" lon="22.275005029578">
        <ele>5.4</ele>
        <time>2016-01-23T11:52:01Z</time>
      </trkpt>
      <trkpt lat="60.452519878032" lon="22.275007125053">
        <ele>5.4</ele>
        <time>2016-01-23T11:52:02Z</time>
      </trkpt>
      <trkpt lat="60.45251669291" lon="22.275011064546">
        <ele>5.4</ele>
        <time>2016-01-23T11:52:03Z</time>
      </trkpt>
      <trkpt lat="60.452511077037" lon="22.275016764238">
        <ele>5.4</ele>
        <time>2016-01-23T11:52:04Z</time>
      </trkpt>
      <trkpt lat="60.452505377345" lon="22.27501994936">
        <ele>5.4</ele>
        <time>2016-01-23T11:52:05Z</time>
      </trkpt>
      <trkpt lat="60.452497749816" lon="22.27501827298">
        <ele>5.4</ele>
        <time>2016-01-23T11:52:06Z</time>
      </trkpt>
      <trkpt lat="60.45249154721" lon="22.275018440618">
        <ele>5.4</ele>
        <time>2016-01-23T11:52:07Z</time>
      </trkpt>
      <trkpt lat="60.452494145599" lon="22.275018943532">
        <ele>5.4</ele>
        <time>2016-01-23T11:52:08Z</time>
      </trkpt>
      <trkpt lat="60.452479141998" lon="22.275020703731">
        <ele>5.4</ele>
        <time>2016-01-23T11:52:09Z</time>
      </trkpt>
      <trkpt lat="60.452470508641" lon="22.275020368455">
        <ele>5.4</ele>
        <time>2016-01-23T11:52:10Z</time>
      </trkpt>
      <trkpt lat="60.452465060406" lon="22.275020619912">
        <ele>5.4</ele>
        <time>2016-01-23T11:52:11Z</time>
      </trkpt>
      <trkpt lat="60.45245634323" lon="22.275019362627">
        <ele>5.4</ele>
        <time>2016-01-23T11:52:12Z</time>
      </trkpt>
      <trkpt lat="60.452449470072" lon="22.275021961016">
        <ele>5.4</ele>
        <time>2016-01-23T11:52:13Z</time>
      </trkpt>
      <trkpt lat="60.452441507267" lon="22.275021877197">
        <ele>5.4</ele>
        <time>2016-01-23T11:52:14Z</time>
      </trkpt>
      <trkpt lat="60.452432538634" lon="22.275020368455">
        <ele>5.4</ele>
        <time>2016-01-23T11:52:15Z</time>
      </trkpt>
      <trkpt lat="60.452426252209" lon="22.275020955188">
        <ele>5.4</ele>
        <time>2016-01-23T11:52:16Z</time>
      </trkpt>
      <trkpt lat="60.452418289404" lon="22.275020703731">
        <ele>5.4</ele>
        <time>2016-01-23T11:52:17Z</time>
      </trkpt>
      <trkpt lat="60.452413008807" lon="22.275020284636">
        <ele>5.4</ele>
        <time>2016-01-23T11:52:18Z</time>
      </trkpt>
      <trkpt lat="60.452408147305" lon="22.275022631568">
        <ele>5.4</ele>
        <time>2016-01-23T11:52:19Z</time>
      </trkpt>
      <trkpt lat="60.45240186088" lon="22.275022296292">
        <ele>5.4</ele>
        <time>2016-01-23T11:52:20Z</time>
      </trkpt>
      <trkpt lat="60.452396328826" lon="22.2750249785">
        <ele>5.4</ele>
        <time>2016-01-23T11:52:21Z</time>
      </trkpt>
      <trkpt lat="60.452389455668" lon="22.275024894681">
        <ele>5.4</ele>
        <time>2016-01-23T11:52:22Z</time>
      </trkpt>
      <trkpt lat="60.452384510347" lon="22.275025397595">
        <ele>5.4</ele>
        <time>2016-01-23T11:52:23Z</time>
      </trkpt>
      <trkpt lat="60.452386605822" lon="22.275026738699">
        <ele>5.4</ele>
        <time>2016-01-23T11:52:24Z</time>
      </trkpt>
      <trkpt lat="60.452375374076" lon="22.27503503678">
        <ele>5.4</ele>
        <time>2016-01-23T11:52:25Z</time>
      </trkpt>
      <trkpt lat="60.452377972465" lon="22.275035288237">
        <ele>5.4</ele>
        <time>2016-01-23T11:52:26Z</time>
      </trkpt>
      <trkpt lat="60.452365483434" lon="22.275047525811">
        <ele>5.4</ele>
        <time>2016-01-23T11:52:27Z</time>
      </trkpt>
      <trkpt lat="60.452359616104" lon="22.275051632942">
        <ele>5.4</ele>
        <time>2016-01-23T11:52:28Z</time>
      </trkpt>
      <trkpt lat="60.452353162041" lon="22.275058338462">
        <ele>5.4</ele>
        <time>2016-01-23T11:52:29Z</time>
      </trkpt>
      <trkpt lat="60.452356011887" lon="22.275058925195">
        <ele>5.4</ele>
        <time>2016-01-23T11:52:30Z</time>
      </trkpt>
      <trkpt lat="60.452351401842" lon="22.275063619059">
        <ele>5.4</ele>
        <time>2016-01-23T11:52:31Z</time>
      </trkpt>
      <trkpt lat="60.452350312195" lon="22.275068899656">
        <ele>5.4</ele>
        <time>2016-01-23T11:52:32Z</time>
      </trkpt>
      <trkpt lat="60.452350647471" lon="22.275071665683">
        <ele>5.4</ele>
        <time>2016-01-23T11:52:33Z</time>
      </trkpt>
      <trkpt lat="60.452351401842" lon="22.27508113723">
        <ele>5.4</ele>
        <time>2016-01-23T11:52:34Z</time>
      </trkpt>
      <trkpt lat="60.452351318023" lon="22.275088094207">
        <ele>5.4</ele>
        <time>2016-01-23T11:52:35Z</time>
      </trkpt>
      <trkpt lat="60.452351820937" lon="22.275090860234">
        <ele>5.4</ele>
        <time>2016-01-23T11:52:36Z</time>
      </trkpt>
      <trkpt lat="60.452353497317" lon="22.275093207166">
        <ele>5.4</ele>
        <time>2016-01-23T11:52:37Z</time>
      </trkpt>
      <trkpt lat="60.452352742946" lon="22.275096811383">
        <ele>5.4</ele>
        <time>2016-01-23T11:52:38Z</time>
      </trkpt>
      <trkpt lat="60.452344528684" lon="22.275106702025">
        <ele>5.4</ele>
        <time>2016-01-23T11:52:39Z</time>
      </trkpt>
      <trkpt lat="60.452338242259" lon="22.275107037301">
        <ele>5.4</ele>
        <time>2016-01-23T11:52:40Z</time>
      </trkpt>
      <trkpt lat="60.45232977654" lon="22.275109384233">
        <ele>5.4</ele>
        <time>2016-01-23T11:52:41Z</time>
      </trkpt>
      <trkpt lat="60.452333296938" lon="22.275109551871">
        <ele>5.4</ele>
        <time>2016-01-23T11:52:42Z</time>
      </trkpt>
      <trkpt lat="60.452323154839" lon="22.27511634121">
        <ele>5.4</ele>
        <time>2016-01-23T11:52:43Z</time>
      </trkpt>
      <trkpt lat="60.452318712432" lon="22.27512472311">
        <ele>5.4</ele>
        <time>2016-01-23T11:52:44Z</time>
      </trkpt>
      <trkpt lat="60.452316868414" lon="22.275129500793">
        <ele>5.4</ele>
        <time>2016-01-23T11:52:45Z</time>
      </trkpt>
      <trkpt lat="60.452315108215" lon="22.275133691743">
        <ele>5.4</ele>
        <time>2016-01-23T11:52:46Z</time>
      </trkpt>
      <trkpt lat="60.452308235057" lon="22.275134697571">
        <ele>5.4</ele>
        <time>2016-01-23T11:52:47Z</time>
      </trkpt>
      <trkpt lat="60.45230379265" lon="22.275134613752">
        <ele>5.4</ele>
        <time>2016-01-23T11:52:48Z</time>
      </trkpt>
      <trkpt lat="60.452299266424" lon="22.275136122494">
        <ele>5.4</ele>
        <time>2016-01-23T11:52:49Z</time>
      </trkpt>
      <trkpt lat="60.452293985827" lon="22.275135451942">
        <ele>5.4</ele>
        <time>2016-01-23T11:52:50Z</time>
      </trkpt>
      <trkpt lat="60.452289375782" lon="22.275133607924">
        <ele>5.4</ele>
        <time>2016-01-23T11:52:51Z</time>
      </trkpt>
      <trkpt lat="60.45228535247" lon="22.275128997879">
        <ele>5.4</ele>
        <time>2016-01-23T11:52:52Z</time>
      </trkpt>
      <trkpt lat="60.452277641122" lon="22.275130674259">
        <ele>5.4</ele>
        <time>2016-01-23T11:52:53Z</time>
      </trkpt>
      <trkpt lat="60.452280658606" lon="22.275131093354">
        <ele>5.4</ele>
        <time>2016-01-23T11:52:54Z</time>
      </trkpt>
      <trkpt lat="60.452273282534" lon="22.27513142863">
        <ele>5.4</ele>
        <time>2016-01-23T11:52:55Z</time>
      </trkpt>
      <trkpt lat="60.452271354697" lon="22.275130506621">
        <ele>5.4</ele>
        <time>2016-01-23T11:52:56Z</time>
      </trkpt>
      <trkpt lat="60.452271606154" lon="22.275128997879">
        <ele>5.4</ele>
        <time>2016-01-23T11:52:57Z</time>
      </trkpt>
      <trkpt lat="60.452271522335" lon="22.275127740594">
        <ele>5.4</ele>
        <time>2016-01-23T11:52:58Z</time>
      </trkpt>
      <trkpt lat="60.452269007765" lon="22.275122543816">
        <ele>5.4</ele>
        <time>2016-01-23T11:52:59Z</time>
      </trkpt>
      <trkpt lat="60.452267666661" lon="22.275120113065">
        <ele>5.4</ele>
        <time>2016-01-23T11:53:00Z</time>
      </trkpt>
      <trkpt lat="60.452265906462" lon="22.275117514676">
        <ele>5.4</ele>
        <time>2016-01-23T11:53:01Z</time>
      </trkpt>
      <trkpt lat="60.452264565358" lon="22.275114748649">
        <ele>5.4</ele>
        <time>2016-01-23T11:53:02Z</time>
      </trkpt>
      <trkpt lat="60.45226355953" lon="22.275112066441">
        <ele>5.4</ele>
        <time>2016-01-23T11:53:03Z</time>
      </trkpt>
      <trkpt lat="60.452264313901" lon="22.275109216595">
        <ele>5.4</ele>
        <time>2016-01-23T11:53:04Z</time>
      </trkpt>
      <trkpt lat="60.452265487367" lon="22.275109132776">
        <ele>5.4</ele>
        <time>2016-01-23T11:53:05Z</time>
      </trkpt>
      <trkpt lat="60.452265822643" lon="22.275109216595">
        <ele>5.4</ele>
        <time>2016-01-23T11:53:06Z</time>
      </trkpt>
      <trkpt lat="60.45225936858" lon="22.275107456396">
        <ele>5.4</ele>
        <time>2016-01-23T11:53:07Z</time>
      </trkpt>
      <trkpt lat="60.45226188315" lon="22.275108294586">
        <ele>5.4</ele>
        <time>2016-01-23T11:53:08Z</time>
      </trkpt>
      <trkpt lat="60.452252327784" lon="22.275092536614">
        <ele>5.4</ele>
        <time>2016-01-23T11:53:09Z</time>
      </trkpt>
      <trkpt lat="60.452254423259" lon="22.275093207166">
        <ele>5.4</ele>
        <time>2016-01-23T11:53:10Z</time>
      </trkpt>
      <trkpt lat="60.452252579241" lon="22.27508448999">
        <ele>5.4</ele>
        <time>2016-01-23T11:53:11Z</time>
      </trkpt>
      <trkpt lat="60.452252495422" lon="22.275085831094">
        <ele>5.4</ele>
        <time>2016-01-23T11:53:12Z</time>
      </trkpt>
      <trkpt lat="60.452249645576" lon="22.27508700456">
        <ele>5.4</ele>
        <time>2016-01-23T11:53:13Z</time>
      </trkpt>
      <trkpt lat="60.452249561757" lon="22.275085160542">
        <ele>5.4</ele>
        <time>2016-01-23T11:53:14Z</time>
      </trkpt>
      <trkpt lat="60.452247801558" lon="22.275083903257">
        <ele>5.4</ele>
        <time>2016-01-23T11:53:15Z</time>
      </trkpt>
      <trkpt lat="60.452244951712" lon="22.275082394515">
        <ele>5.4</ele>
        <time>2016-01-23T11:53:16Z</time>
      </trkpt>
      <trkpt lat="60.452238749106" lon="22.275075186081">
        <ele>5.4</ele>
        <time>2016-01-23T11:53:17Z</time>
      </trkpt>
      <trkpt lat="60.452240760762" lon="22.275078538841">
        <ele>5.4</ele>
        <time>2016-01-23T11:53:18Z</time>
      </trkpt>
      <trkpt lat="60.452230618663" lon="22.275067139457">
        <ele>5.4</ele>
        <time>2016-01-23T11:53:19Z</time>
      </trkpt>
      <trkpt lat="60.452231959767" lon="22.275070492217">
        <ele>5.4</ele>
        <time>2016-01-23T11:53:20Z</time>
      </trkpt>
      <trkpt lat="60.452226008618" lon="22.2750585061">
        <ele>5.4</ele>
        <time>2016-01-23T11:53:21Z</time>
      </trkpt>
      <trkpt lat="60.452222404401" lon="22.275054231331">
        <ele>5.4</ele>
        <time>2016-01-23T11:53:22Z</time>
      </trkpt>
      <trkpt lat="60.452219889831" lon="22.275047106716">
        <ele>5.4</ele>
        <time>2016-01-23T11:53:23Z</time>
      </trkpt>
      <trkpt lat="60.452213603406" lon="22.275041826119">
        <ele>5.4</ele>
        <time>2016-01-23T11:53:24Z</time>
      </trkpt>
      <trkpt lat="60.452208406628" lon="22.275040317377">
        <ele>5.4</ele>
        <time>2016-01-23T11:53:25Z</time>
      </trkpt>
      <trkpt lat="60.452203712764" lon="22.275038892454">
        <ele>5.4</ele>
        <time>2016-01-23T11:53:26Z</time>
      </trkpt>
      <trkpt lat="60.452197174882" lon="22.275034030952">
        <ele>5.4</ele>
        <time>2016-01-23T11:53:27Z</time>
      </trkpt>
      <trkpt lat="60.452191223733" lon="22.27502414031">
        <ele>5.4</ele>
        <time>2016-01-23T11:53:28Z</time>
      </trkpt>
      <trkpt lat="60.452184350575" lon="22.275019194989">
        <ele>5.4</ele>
        <time>2016-01-23T11:53:29Z</time>
      </trkpt>
      <trkpt lat="60.45217806415" lon="22.275012070374">
        <ele>5.4</ele>
        <time>2016-01-23T11:53:30Z</time>
      </trkpt>
      <trkpt lat="60.452180997815" lon="22.275014249668">
        <ele>5.4</ele>
        <time>2016-01-23T11:53:31Z</time>
      </trkpt>
      <trkpt lat="60.452168424965" lon="22.275007711786">
        <ele>5.4</ele>
        <time>2016-01-23T11:53:32Z</time>
      </trkpt>
      <trkpt lat="60.452163060549" lon="22.27499899461">
        <ele>5.4</ele>
        <time>2016-01-23T11:53:33Z</time>
      </trkpt>
      <trkpt lat="60.452165658938" lon="22.275001257723">
        <ele>5.4</ele>
        <time>2016-01-23T11:53:34Z</time>
      </trkpt>
      <trkpt lat="60.452166916223" lon="22.274975944385">
        <ele>5.4</ele>
        <time>2016-01-23T11:53:35Z</time>
      </trkpt>
      <trkpt lat="60.452168676422" lon="22.274965802286">
        <ele>5.4</ele>
        <time>2016-01-23T11:53:36Z</time>
      </trkpt>
      <trkpt lat="60.452167670594" lon="22.274955827825">
        <ele>5.4</ele>
        <time>2016-01-23T11:53:37Z</time>
      </trkpt>
      <trkpt lat="60.452165156024" lon="22.274948200296">
        <ele>5.4</ele>
        <time>2016-01-23T11:53:38Z</time>
      </trkpt>
      <trkpt lat="60.452163395825" lon="22.274934118704">
        <ele>5.4</ele>
        <time>2016-01-23T11:53:39Z</time>
      </trkpt>
      <trkpt lat="60.452160713617" lon="22.274923892786">
        <ele>5.4</ele>
        <time>2016-01-23T11:53:40Z</time>
      </trkpt>
      <trkpt lat="60.452155181563" lon="22.274913750687">
        <ele>5.4</ele>
        <time>2016-01-23T11:53:41Z</time>
      </trkpt>
      <trkpt lat="60.452149062776" lon="22.274905033511">
        <ele>5.4</ele>
        <time>2016-01-23T11:53:42Z</time>
      </trkpt>
      <trkpt lat="60.45214202198" lon="22.274896651611">
        <ele>5.4</ele>
        <time>2016-01-23T11:53:43Z</time>
      </trkpt>
      <trkpt lat="60.452131460786" lon="22.274884581675">
        <ele>5.4</ele>
        <time>2016-01-23T11:53:44Z</time>
      </trkpt>
      <trkpt lat="60.452120061402" lon="22.274874607214">
        <ele>5.4</ele>
        <time>2016-01-23T11:53:45Z</time>
      </trkpt>
      <trkpt lat="60.452110757493" lon="22.274866895866">
        <ele>5.4</ele>
        <time>2016-01-23T11:53:46Z</time>
      </trkpt>
      <trkpt lat="60.452098017005" lon="22.274850970256">
        <ele>5.4</ele>
        <time>2016-01-23T11:53:47Z</time>
      </trkpt>
      <trkpt lat="60.452086785259" lon="22.274836469569">
        <ele>5.4</ele>
        <time>2016-01-23T11:53:48Z</time>
      </trkpt>
      <trkpt lat="60.452075888789" lon="22.274826411289">
        <ele>5.4</ele>
        <time>2016-01-23T11:53:49Z</time>
      </trkpt>
      <trkpt lat="60.452058957351" lon="22.274804953625">
        <ele>5.4</ele>
        <time>2016-01-23T11:53:50Z</time>
      </trkpt>
      <trkpt lat="60.452047138872" lon="22.274791207309">
        <ele>5.4</ele>
        <time>2016-01-23T11:53:51Z</time>
      </trkpt>
      <trkpt lat="60.452034063108" lon="22.274772264215">
        <ele>5.4</ele>
        <time>2016-01-23T11:53:52Z</time>
      </trkpt>
      <trkpt lat="60.452021825534" lon="22.274757176795">
        <ele>5.4</ele>
        <time>2016-01-23T11:53:53Z</time>
      </trkpt>
      <trkpt lat="60.452014784738" lon="22.274746867058">
        <ele>5.4</ele>
        <time>2016-01-23T11:53:54Z</time>
      </trkpt>
      <trkpt lat="60.452016880213" lon="22.274750219818">
        <ele>5.4</ele>
        <time>2016-01-23T11:53:55Z</time>
      </trkpt>
      <trkpt lat="60.452009085046" lon="22.274736222045">
        <ele>5.4</ele>
        <time>2016-01-23T11:53:56Z</time>
      </trkpt>
      <trkpt lat="60.452006067562" lon="22.274731863457">
        <ele>5.4</ele>
        <time>2016-01-23T11:53:57Z</time>
      </trkpt>
      <trkpt lat="60.452003888268" lon="22.274729432706">
        <ele>5.4</ele>
        <time>2016-01-23T11:53:58Z</time>
      </trkpt>
      <trkpt lat="60.45200204425" lon="22.274727923964">
        <ele>5.4</ele>
        <time>2016-01-23T11:53:59Z</time>
      </trkpt>
      <trkpt lat="60.451999781137" lon="22.274726750498">
        <ele>5.4</ele>
        <time>2016-01-23T11:54:00Z</time>
      </trkpt>
      <trkpt lat="60.451998775309" lon="22.274725409394">
        <ele>5.4</ele>
        <time>2016-01-23T11:54:01Z</time>
      </trkpt>
      <trkpt lat="60.451996679834" lon="22.274722894824">
        <ele>5.4</ele>
        <time>2016-01-23T11:54:02Z</time>
      </trkpt>
      <trkpt lat="60.451994919635" lon="22.274724319747">
        <ele>5.4</ele>
        <time>2016-01-23T11:54:03Z</time>
      </trkpt>
      <trkpt lat="60.451994249083" lon="22.274724235928">
        <ele>5.4</ele>
        <time>2016-01-23T11:54:04Z</time>
      </trkpt>
      <trkpt lat="60.451997601843" lon="22.27472574467">
        <ele>5.4</ele>
        <time>2016-01-23T11:54:05Z</time>
      </trkpt>
      <trkpt lat="60.451995674006" lon="22.274723733014">
        <ele>5.4</ele>
        <time>2016-01-23T11:54:06Z</time>
      </trkpt>
      <trkpt lat="60.451994081445" lon="22.274722811005">
        <ele>5.4</ele>
        <time>2016-01-23T11:54:07Z</time>
      </trkpt>
      <trkpt lat="60.451990812504" lon="22.274721469901">
        <ele>5.4</ele>
        <time>2016-01-23T11:54:08Z</time>
      </trkpt>
      <trkpt lat="60.451986705373" lon="22.274718620055">
        <ele>5.4</ele>
        <time>2016-01-23T11:54:09Z</time>
      </trkpt>
      <trkpt lat="60.451985615726" lon="22.274712920363">
        <ele>5.4</ele>
        <time>2016-01-23T11:54:10Z</time>
      </trkpt>
      <trkpt lat="60.451983687889" lon="22.274707639766">
        <ele>5.4</ele>
        <time>2016-01-23T11:54:11Z</time>
      </trkpt>
      <trkpt lat="60.451981173319" lon="22.274703700273">
        <ele>5.4</ele>
        <time>2016-01-23T11:54:12Z</time>
      </trkpt>
      <trkpt lat="60.45197941312" lon="22.27470059897">
        <ele>5.4</ele>
        <time>2016-01-23T11:54:13Z</time>
      </trkpt>
      <trkpt lat="60.451977317645" lon="22.274698168219">
        <ele>5.4</ele>
        <time>2016-01-23T11:54:14Z</time>
      </trkpt>
      <trkpt lat="60.451975054532" lon="22.274695402192">
        <ele>5.4</ele>
        <time>2016-01-23T11:54:15Z</time>
      </trkpt>
      <trkpt lat="60.451973461971" lon="22.274692803803">
        <ele>5.4</ele>
        <time>2016-01-23T11:54:16Z</time>
      </trkpt>
      <trkpt lat="60.451972372324" lon="22.274690959785">
        <ele>5.4</ele>
        <time>2016-01-23T11:54:17Z</time>
      </trkpt>
      <trkpt lat="60.451971450315" lon="22.274689618681">
        <ele>5.4</ele>
        <time>2016-01-23T11:54:18Z</time>
      </trkpt>
      <trkpt lat="60.451970612125" lon="22.274688529034">
        <ele>5.4</ele>
        <time>2016-01-23T11:54:19Z</time>
      </trkpt>
      <trkpt lat="60.451968851926" lon="22.274686768835">
        <ele>5.4</ele>
        <time>2016-01-23T11:54:20Z</time>
      </trkpt>
      <trkpt lat="60.451967594641" lon="22.274685260093">
        <ele>5.4</ele>
        <time>2016-01-23T11:54:21Z</time>
      </trkpt>
      <trkpt lat="60.451966169718" lon="22.274683499894">
        <ele>5.4</ele>
        <time>2016-01-23T11:54:22Z</time>
      </trkpt>
      <trkpt lat="60.451964577157" lon="22.274681655876">
        <ele>5.4</ele>
        <time>2016-01-23T11:54:23Z</time>
      </trkpt>
      <trkpt lat="60.451962984596" lon="22.274681991152">
        <ele>5.4</ele>
        <time>2016-01-23T11:54:24Z</time>
      </trkpt>
      <trkpt lat="60.451962900777" lon="22.274687607025">
        <ele>5.4</ele>
        <time>2016-01-23T11:54:25Z</time>
      </trkpt>
      <trkpt lat="60.451962481682" lon="22.274688948129">
        <ele>5.4</ele>
        <time>2016-01-23T11:54:26Z</time>
      </trkpt>
      <trkpt lat="60.451959967112" lon="22.274690289233">
        <ele>5.4</ele>
        <time>2016-01-23T11:54:27Z</time>
      </trkpt>
      <trkpt lat="60.451953932144" lon="22.274687020292">
        <ele>5.4</ele>
        <time>2016-01-23T11:54:28Z</time>
      </trkpt>
      <trkpt lat="60.451943790045" lon="22.274677632564">
        <ele>5.4</ele>
        <time>2016-01-23T11:54:29Z</time>
      </trkpt>
      <trkpt lat="60.451922919114" lon="22.27465366033">
        <ele>5.4</ele>
        <time>2016-01-23T11:54:30Z</time>
      </trkpt>
      <trkpt lat="60.451896851405" lon="22.274637147987">
        <ele>5.4</ele>
        <time>2016-01-23T11:54:31Z</time>
      </trkpt>
      <trkpt lat="60.451869191135" lon="22.274619210721">
        <ele>5.4</ele>
        <time>2016-01-23T11:54:32Z</time>
      </trkpt>
      <trkpt lat="60.451837088458" lon="22.274598675066">
        <ele>5.4</ele>
        <time>2016-01-23T11:54:33Z</time>
      </trkpt>
      <trkpt lat="60.451813116224" lon="22.274580653981">
        <ele>5.4</ele>
        <time>2016-01-23T11:54:34Z</time>
      </trkpt>
      <trkpt lat="60.45178160028" lon="22.274553831901">
        <ele>5.4</ele>
        <time>2016-01-23T11:54:35Z</time>
      </trkpt>
      <trkpt lat="60.45175310182" lon="22.274532290418">
        <ele>5.4</ele>
        <time>2016-01-23T11:54:36Z</time>
      </trkpt>
      <trkpt lat="60.45173214707" lon="22.274508402003">
        <ele>5.4</ele>
        <time>2016-01-23T11:54:37Z</time>
      </trkpt>
      <trkpt lat="60.451702056049" lon="22.274468252702">
        <ele>5.4</ele>
        <time>2016-01-23T11:54:38Z</time>
      </trkpt>
      <trkpt lat="60.451681771851" lon="22.274442855545">
        <ele>5.4</ele>
        <time>2016-01-23T11:54:39Z</time>
      </trkpt>
      <trkpt lat="60.451660565644" lon="22.274413686533">
        <ele>5.4</ele>
        <time>2016-01-23T11:54:40Z</time>
      </trkpt>
      <trkpt lat="60.451633073012" lon="22.274378147277">
        <ele>5.4</ele>
        <time>2016-01-23T11:54:41Z</time>
      </trkpt>
      <trkpt lat="60.451607005303" lon="22.274364233323">
        <ele>5.4</ele>
        <time>2016-01-23T11:54:42Z</time>
      </trkpt>
      <trkpt lat="60.451577584834" lon="22.274332046827">
        <ele>5.4</ele>
        <time>2016-01-23T11:54:43Z</time>
      </trkpt>
      <trkpt lat="60.451553696419" lon="22.274294244458">
        <ele>5.4</ele>
        <time>2016-01-23T11:54:44Z</time>
      </trkpt>
      <trkpt lat="60.451534837144" lon="22.274264991627">
        <ele>5.4</ele>
        <time>2016-01-23T11:54:45Z</time>
      </trkpt>
      <trkpt lat="60.451520671733" lon="22.274243282506">
        <ele>5.4</ele>
        <time>2016-01-23T11:54:46Z</time>
      </trkpt>
      <trkpt lat="60.451507679788" lon="22.274224590869">
        <ele>5.4</ele>
        <time>2016-01-23T11:54:47Z</time>
      </trkpt>
      <trkpt lat="60.451506171046" lon="22.274203049386">
        <ele>5.4</ele>
        <time>2016-01-23T11:54:48Z</time>
      </trkpt>
      <trkpt lat="60.451509523806" lon="22.274193577839">
        <ele>5.4</ele>
        <time>2016-01-23T11:54:49Z</time>
      </trkpt>
      <trkpt lat="60.451507679788" lon="22.274196595323">
        <ele>5.4</ele>
        <time>2016-01-23T11:54:50Z</time>
      </trkpt>
      <trkpt lat="60.451512289833" lon="22.274194416029">
        <ele>5.4</ele>
        <time>2016-01-23T11:54:51Z</time>
      </trkpt>
      <trkpt lat="60.451513211842" lon="22.274197014418">
        <ele>5.4</ele>
        <time>2016-01-23T11:54:52Z</time>
      </trkpt>
      <trkpt lat="60.451518827715" lon="22.274212604752">
        <ele>5.4</ele>
        <time>2016-01-23T11:54:53Z</time>
      </trkpt>
      <trkpt lat="60.451528885995" lon="22.274225009964">
        <ele>5.4</ele>
        <time>2016-01-23T11:54:54Z</time>
      </trkpt>
      <trkpt lat="60.451541123569" lon="22.274247054361">
        <ele>5.4</ele>
        <time>2016-01-23T11:54:55Z</time>
      </trkpt>
      <trkpt lat="60.451553947876" lon="22.274270775138">
        <ele>5.4</ele>
        <time>2016-01-23T11:54:56Z</time>
      </trkpt>
      <trkpt lat="60.45157624373" lon="22.274295417924">
        <ele>5.4</ele>
        <time>2016-01-23T11:54:57Z</time>
      </trkpt>
      <trkpt lat="60.451595019186" lon="22.274320312167">
        <ele>5.4</ele>
        <time>2016-01-23T11:54:58Z</time>
      </trkpt>
      <trkpt lat="60.451623852922" lon="22.274335818682">
        <ele>5.4</ele>
        <time>2016-01-23T11:54:59Z</time>
      </trkpt>
      <trkpt lat="60.451650507364" lon="22.274363143676">
        <ele>5.4</ele>
        <time>2016-01-23T11:55:00Z</time>
      </trkpt>
      <trkpt lat="60.451677413263" lon="22.274375465069">
        <ele>5.4</ele>
        <time>2016-01-23T11:55:01Z</time>
      </trkpt>
      <trkpt lat="60.451702894239" lon="22.274405639909">
        <ele>5.4</ele>
        <time>2016-01-23T11:55:02Z</time>
      </trkpt>
      <trkpt lat="60.451730889785" lon="22.274433719274">
        <ele>5.4</ele>
        <time>2016-01-23T11:55:03Z</time>
      </trkpt>
      <trkpt lat="60.451753353277" lon="22.274463223562">
        <ele>5.4</ele>
        <time>2016-01-23T11:55:04Z</time>
      </trkpt>
      <trkpt lat="60.451782689927" lon="22.274491805841">
        <ele>5.4</ele>
        <time>2016-01-23T11:55:05Z</time>
      </trkpt>
      <trkpt lat="60.451804734324" lon="22.27451787355">
        <ele>5.4</ele>
        <time>2016-01-23T11:55:06Z</time>
      </trkpt>
      <trkpt lat="60.451826443445" lon="22.274533966798">
        <ele>5.4</ele>
        <time>2016-01-23T11:55:07Z</time>
      </trkpt>
      <trkpt lat="60.451848990756" lon="22.274556765566">
        <ele>5.4</ele>
        <time>2016-01-23T11:55:08Z</time>
      </trkpt>
      <trkpt lat="60.45186793385" lon="22.274576965945">
        <ele>5.4</ele>
        <time>2016-01-23T11:55:09Z</time>
      </trkpt>
      <trkpt lat="60.451882518356" lon="22.274593981202">
        <ele>5.4</ele>
        <time>2016-01-23T11:55:10Z</time>
      </trkpt>
      <trkpt lat="60.451896935224" lon="22.274606386414">
        <ele>5.4</ele>
        <time>2016-01-23T11:55:11Z</time>
      </trkpt>
      <trkpt lat="60.451908921341" lon="22.27461258902">
        <ele>5.4</ele>
        <time>2016-01-23T11:55:12Z</time>
      </trkpt>
      <trkpt lat="60.451905317124" lon="22.274609655355">
        <ele>5.4</ele>
        <time>2016-01-23T11:55:13Z</time>
      </trkpt>
      <trkpt lat="60.451914621033" lon="22.27461258902">
        <ele>5.4</ele>
        <time>2016-01-23T11:55:14Z</time>
      </trkpt>
      <trkpt lat="60.451915794499" lon="22.274610325907">
        <ele>5.4</ele>
        <time>2016-01-23T11:55:15Z</time>
      </trkpt>
      <trkpt lat="60.451915459223" lon="22.274611667011">
        <ele>5.4</ele>
        <time>2016-01-23T11:55:16Z</time>
      </trkpt>
      <trkpt lat="60.45191068154" lon="22.274605967319">
        <ele>5.4</ele>
        <time>2016-01-23T11:55:17Z</time>
      </trkpt>
      <trkpt lat="60.451912693196" lon="22.274608817165">
        <ele>5.4</ele>
        <time>2016-01-23T11:55:18Z</time>
      </trkpt>
      <trkpt lat="60.451908753703" lon="22.274601441093">
        <ele>5.4</ele>
        <time>2016-01-23T11:55:19Z</time>
      </trkpt>
      <trkpt lat="60.451906155314" lon="22.274596747229">
        <ele>5.8</ele>
        <time>2016-01-23T11:55:20Z</time>
      </trkpt>
      <trkpt lat="60.451903556925" lon="22.274594232659">
        <ele>6.2</ele>
        <time>2016-01-23T11:55:21Z</time>
      </trkpt>
      <trkpt lat="60.451900958536" lon="22.274590125528">
        <ele>6.2</ele>
        <time>2016-01-23T11:55:22Z</time>
      </trkpt>
      <trkpt lat="60.451897689595" lon="22.274587359501">
        <ele>6</ele>
        <time>2016-01-23T11:55:23Z</time>
      </trkpt>
      <trkpt lat="60.451894169197" lon="22.274583168551">
        <ele>6</ele>
        <time>2016-01-23T11:55:24Z</time>
      </trkpt>
      <trkpt lat="60.451891151713" lon="22.274579564334">
        <ele>5.8</ele>
        <time>2016-01-23T11:55:25Z</time>
      </trkpt>
      <trkpt lat="60.451888720962" lon="22.274577804135">
        <ele>5.6</ele>
        <time>2016-01-23T11:55:26Z</time>
      </trkpt>
      <trkpt lat="60.451886793125" lon="22.274575457203">
        <ele>5.6</ele>
        <time>2016-01-23T11:55:27Z</time>
      </trkpt>
      <trkpt lat="60.451885452021" lon="22.274572858814">
        <ele>5.6</ele>
        <time>2016-01-23T11:55:28Z</time>
      </trkpt>
      <trkpt lat="60.451884278555" lon="22.274571433891">
        <ele>5.6</ele>
        <time>2016-01-23T11:55:29Z</time>
      </trkpt>
      <trkpt lat="60.45188302127" lon="22.274570428063">
        <ele>5.6</ele>
        <time>2016-01-23T11:55:30Z</time>
      </trkpt>
      <trkpt lat="60.451881177252" lon="22.274567913493">
        <ele>5.6</ele>
        <time>2016-01-23T11:55:31Z</time>
      </trkpt>
      <trkpt lat="60.451879417053" lon="22.274566740027">
        <ele>5.6</ele>
        <time>2016-01-23T11:55:32Z</time>
      </trkpt>
      <trkpt lat="60.451878075949" lon="22.274564644552">
        <ele>5.6</ele>
        <time>2016-01-23T11:55:33Z</time>
      </trkpt>
      <trkpt lat="60.451876483388" lon="22.274563219629">
        <ele>5.6</ele>
        <time>2016-01-23T11:55:34Z</time>
      </trkpt>
      <trkpt lat="60.451874723189" lon="22.27456313581">
        <ele>5.6</ele>
        <time>2016-01-23T11:55:35Z</time>
      </trkpt>
      <trkpt lat="60.451872376257" lon="22.274563554905">
        <ele>5.6</ele>
        <time>2016-01-23T11:55:36Z</time>
      </trkpt>
      <trkpt lat="60.451870699877" lon="22.274563554905">
        <ele>5.6</ele>
        <time>2016-01-23T11:55:37Z</time>
      </trkpt>
      <trkpt lat="60.451870280782" lon="22.274561962344">
        <ele>5.6</ele>
        <time>2016-01-23T11:55:38Z</time>
      </trkpt>
      <trkpt lat="60.451869107316" lon="22.274560118326">
        <ele>5.6</ele>
        <time>2016-01-23T11:55:39Z</time>
      </trkpt>
      <trkpt lat="60.451867766212" lon="22.274558358127">
        <ele>5.6</ele>
        <time>2016-01-23T11:55:40Z</time>
      </trkpt>
      <trkpt lat="60.451866676565" lon="22.274557519937">
        <ele>5.6</ele>
        <time>2016-01-23T11:55:41Z</time>
      </trkpt>
      <trkpt lat="60.451866508927" lon="22.27455643029">
        <ele>5.6</ele>
        <time>2016-01-23T11:55:42Z</time>
      </trkpt>
      <trkpt lat="60.45186541928" lon="22.274555927376">
        <ele>5.6</ele>
        <time>2016-01-23T11:55:43Z</time>
      </trkpt>
      <trkpt lat="60.451864497271" lon="22.274555424462">
        <ele>5.6</ele>
        <time>2016-01-23T11:55:44Z</time>
      </trkpt>
      <trkpt lat="60.4518637429" lon="22.27455475391">
        <ele>5.6</ele>
        <time>2016-01-23T11:55:45Z</time>
      </trkpt>
      <trkpt lat="60.4518637429" lon="22.27455475391">
        <ele>5.6</ele>
        <time>2016-01-23T11:55:46Z</time>
      </trkpt>
      <trkpt lat="60.451862653253" lon="22.274554502453">
        <ele>5.6</ele>
        <time>2016-01-23T11:55:47Z</time>
      </trkpt>
      <trkpt lat="60.451861815063" lon="22.27455475391">
        <ele>5.6</ele>
        <time>2016-01-23T11:55:48Z</time>
      </trkpt>
      <trkpt lat="60.451861060692" lon="22.274556095014">
        <ele>5.6</ele>
        <time>2016-01-23T11:55:49Z</time>
      </trkpt>
      <trkpt lat="60.45185955195" lon="22.274557436118">
        <ele>5.6</ele>
        <time>2016-01-23T11:55:50Z</time>
      </trkpt>
      <trkpt lat="60.451857624113" lon="22.274554921548">
        <ele>5.6</ele>
        <time>2016-01-23T11:55:51Z</time>
      </trkpt>
      <trkpt lat="60.451853433163" lon="22.27454637201">
        <ele>5.6</ele>
        <time>2016-01-23T11:55:52Z</time>
      </trkpt>
      <trkpt lat="60.451854774267" lon="22.274548802761">
        <ele>5.6</ele>
        <time>2016-01-23T11:55:53Z</time>
      </trkpt>
      <trkpt lat="60.451842117598" lon="22.274533882979">
        <ele>5.6</ele>
        <time>2016-01-23T11:55:54Z</time>
      </trkpt>
      <trkpt lat="60.451844715987" lon="22.274537571015">
        <ele>5.6</ele>
        <time>2016-01-23T11:55:55Z</time>
      </trkpt>
      <trkpt lat="60.451832143137" lon="22.274521058672">
        <ele>5.6</ele>
        <time>2016-01-23T11:55:56Z</time>
      </trkpt>
      <trkpt lat="60.45182434797" lon="22.274513179686">
        <ele>5.6</ele>
        <time>2016-01-23T11:55:57Z</time>
      </trkpt>
      <trkpt lat="60.451816720441" lon="22.274499768646">
        <ele>5.6</ele>
        <time>2016-01-23T11:55:58Z</time>
      </trkpt>
      <trkpt lat="60.451809176731" lon="22.274491470565">
        <ele>5.6</ele>
        <time>2016-01-23T11:55:59Z</time>
      </trkpt>
      <trkpt lat="60.451801381564" lon="22.274477137516">
        <ele>5.6</ele>
        <time>2016-01-23T11:56:00Z</time>
      </trkpt>
      <trkpt lat="60.451794508406" lon="22.27447093491">
        <ele>5.6</ele>
        <time>2016-01-23T11:56:01Z</time>
      </trkpt>
      <trkpt lat="60.451790401275" lon="22.274459954621">
        <ele>5.6</ele>
        <time>2016-01-23T11:56:02Z</time>
      </trkpt>
      <trkpt lat="60.45178579123" lon="22.274453416739">
        <ele>5.6</ele>
        <time>2016-01-23T11:56:03Z</time>
      </trkpt>
      <trkpt lat="60.451781265004" lon="22.274447046495">
        <ele>5.6</ele>
        <time>2016-01-23T11:56:04Z</time>
      </trkpt>
      <trkpt lat="60.451777493149" lon="22.274440173337">
        <ele>5.6</ele>
        <time>2016-01-23T11:56:05Z</time>
      </trkpt>
      <trkpt lat="60.451772464009" lon="22.274437072034">
        <ele>5.6</ele>
        <time>2016-01-23T11:56:06Z</time>
      </trkpt>
      <trkpt lat="60.451774308027" lon="22.274438161681">
        <ele>5.6</ele>
        <time>2016-01-23T11:56:07Z</time>
      </trkpt>
      <trkpt lat="60.451763579195" lon="22.274424163908">
        <ele>5.6</ele>
        <time>2016-01-23T11:56:08Z</time>
      </trkpt>
      <trkpt lat="60.451759723521" lon="22.274418045121">
        <ele>5.6</ele>
        <time>2016-01-23T11:56:09Z</time>
      </trkpt>
      <trkpt lat="60.45175561639" lon="22.27440974704">
        <ele>5.6</ele>
        <time>2016-01-23T11:56:10Z</time>
      </trkpt>
      <trkpt lat="60.451739774599" lon="22.274394072887">
        <ele>5.6</ele>
        <time>2016-01-23T11:56:12Z</time>
      </trkpt>
      <trkpt lat="60.451731225061" lon="22.274382170589">
        <ele>5.6</ele>
        <time>2016-01-23T11:56:13Z</time>
      </trkpt>
      <trkpt lat="60.451724268084" lon="22.27436951392">
        <ele>5.6</ele>
        <time>2016-01-23T11:56:14Z</time>
      </trkpt>
      <trkpt lat="60.451719071306" lon="22.274366831712">
        <ele>5.6</ele>
        <time>2016-01-23T11:56:15Z</time>
      </trkpt>
      <trkpt lat="60.451716053822" lon="22.274361467296">
        <ele>5.6</ele>
        <time>2016-01-23T11:56:16Z</time>
      </trkpt>
      <trkpt lat="60.451716975831" lon="22.274363814228">
        <ele>5.6</ele>
        <time>2016-01-23T11:56:17Z</time>
      </trkpt>
      <trkpt lat="60.451714461261" lon="22.274359790916">
        <ele>5.6</ele>
        <time>2016-01-23T11:56:18Z</time>
      </trkpt>
      <trkpt lat="60.45171370689" lon="22.2743628084">
        <ele>5.6</ele>
        <time>2016-01-23T11:56:19Z</time>
      </trkpt>
      <trkpt lat="60.45171370689" lon="22.274368340454">
        <ele>5.6</ele>
        <time>2016-01-23T11:56:20Z</time>
      </trkpt>
      <trkpt lat="60.451712617243" lon="22.27437202849">
        <ele>5.6</ele>
        <time>2016-01-23T11:56:21Z</time>
      </trkpt>
      <trkpt lat="60.451707588103" lon="22.2743711903">
        <ele>5.6</ele>
        <time>2016-01-23T11:56:22Z</time>
      </trkpt>
      <trkpt lat="60.451704319162" lon="22.274368172816">
        <ele>5.6</ele>
        <time>2016-01-23T11:56:23Z</time>
      </trkpt>
      <trkpt lat="60.451705995542" lon="22.274369849196">
        <ele>5.6</ele>
        <time>2016-01-23T11:56:24Z</time>
      </trkpt>
      <trkpt lat="60.451703145696" lon="22.274368843368">
        <ele>5.6</ele>
        <time>2016-01-23T11:56:25Z</time>
      </trkpt>
      <trkpt lat="60.451703145696" lon="22.274369597739">
        <ele>5.6</ele>
        <time>2016-01-23T11:56:26Z</time>
      </trkpt>
      <trkpt lat="60.451703480972" lon="22.274370603567">
        <ele>5.6</ele>
        <time>2016-01-23T11:56:27Z</time>
      </trkpt>
      <trkpt lat="60.451704402981" lon="22.274370603567">
        <ele>5.6</ele>
        <time>2016-01-23T11:56:28Z</time>
      </trkpt>
      <trkpt lat="60.451705073533" lon="22.274371022662">
        <ele>5.6</ele>
        <time>2016-01-23T11:56:29Z</time>
      </trkpt>
      <trkpt lat="60.451705408809" lon="22.274371022662">
        <ele>5.6</ele>
        <time>2016-01-23T11:56:30Z</time>
      </trkpt>
      <trkpt lat="60.451705660266" lon="22.274370435929">
        <ele>5.6</ele>
        <time>2016-01-23T11:56:31Z</time>
      </trkpt>
      <trkpt lat="60.451706079361" lon="22.2743711903">
        <ele>5.6</ele>
        <time>2016-01-23T11:56:32Z</time>
      </trkpt>
      <trkpt lat="60.451706414637" lon="22.274372196128">
        <ele>5.6</ele>
        <time>2016-01-23T11:56:33Z</time>
      </trkpt>
      <trkpt lat="60.451706246999" lon="22.274372950499">
        <ele>5.6</ele>
        <time>2016-01-23T11:56:34Z</time>
      </trkpt>
      <trkpt lat="60.451706414637" lon="22.274373537232">
        <ele>5.6</ele>
        <time>2016-01-23T11:56:35Z</time>
      </trkpt>
      <trkpt lat="60.451706917551" lon="22.274375045974">
        <ele>5.6</ele>
        <time>2016-01-23T11:56:36Z</time>
      </trkpt>
      <trkpt lat="60.451707252827" lon="22.274376135621">
        <ele>5.6</ele>
        <time>2016-01-23T11:56:37Z</time>
      </trkpt>
      <trkpt lat="60.451708007198" lon="22.274376051802">
        <ele>5.6</ele>
        <time>2016-01-23T11:56:38Z</time>
      </trkpt>
      <trkpt lat="60.451708761569" lon="22.274374962155">
        <ele>5.6</ele>
        <time>2016-01-23T11:56:39Z</time>
      </trkpt>
      <trkpt lat="60.451708258655" lon="22.27437454306">
        <ele>5.6</ele>
        <time>2016-01-23T11:56:40Z</time>
      </trkpt>
      <trkpt lat="60.451707504284" lon="22.274376135621">
        <ele>5.6</ele>
        <time>2016-01-23T11:56:41Z</time>
      </trkpt>
      <trkpt lat="60.451706582275" lon="22.274377728182">
        <ele>5.6</ele>
        <time>2016-01-23T11:56:42Z</time>
      </trkpt>
      <trkpt lat="60.451705744085" lon="22.274377728182">
        <ele>5.6</ele>
        <time>2016-01-23T11:56:43Z</time>
      </trkpt>
      <trkpt lat="60.451705157352" lon="22.274376722354">
        <ele>5.6</ele>
        <time>2016-01-23T11:56:44Z</time>
      </trkpt>
      <trkpt lat="60.45170532499" lon="22.274374207784">
        <ele>5.6</ele>
        <time>2016-01-23T11:56:45Z</time>
      </trkpt>
      <trkpt lat="60.451705492628" lon="22.274374291603">
        <ele>5.6</ele>
        <time>2016-01-23T11:56:46Z</time>
      </trkpt>
      <trkpt lat="60.451705157352" lon="22.274375465069">
        <ele>5.6</ele>
        <time>2016-01-23T11:56:47Z</time>
      </trkpt>
      <trkpt lat="60.451704654438" lon="22.274374291603">
        <ele>5.6</ele>
        <time>2016-01-23T11:56:48Z</time>
      </trkpt>
      <trkpt lat="60.451703816248" lon="22.274372699042">
        <ele>5.6</ele>
        <time>2016-01-23T11:56:49Z</time>
      </trkpt>
      <trkpt lat="60.451703397153" lon="22.27437286668">
        <ele>5.6</ele>
        <time>2016-01-23T11:56:50Z</time>
      </trkpt>
      <trkpt lat="60.451704570619" lon="22.274372112309">
        <ele>5.6</ele>
        <time>2016-01-23T11:56:51Z</time>
      </trkpt>
      <trkpt lat="60.451705492628" lon="22.274372363766">
        <ele>5.6</ele>
        <time>2016-01-23T11:56:52Z</time>
      </trkpt>
      <trkpt lat="60.451705157352" lon="22.274374040146">
        <ele>5.6</ele>
        <time>2016-01-23T11:56:53Z</time>
      </trkpt>
      <trkpt lat="60.451704822076" lon="22.274374040146">
        <ele>5.6</ele>
        <time>2016-01-23T11:56:54Z</time>
      </trkpt>
      <trkpt lat="60.45170364861" lon="22.274371441757">
        <ele>5.6</ele>
        <time>2016-01-23T11:56:55Z</time>
      </trkpt>
      <trkpt lat="60.45170197223" lon="22.274368340454">
        <ele>5.6</ele>
        <time>2016-01-23T11:56:56Z</time>
      </trkpt>
      <trkpt lat="60.451700798764" lon="22.27436699935">
        <ele>5.6</ele>
        <time>2016-01-23T11:56:57Z</time>
      </trkpt>
      <trkpt lat="60.451700212031" lon="22.274366831712">
        <ele>5.6</ele>
        <time>2016-01-23T11:56:58Z</time>
      </trkpt>
      <trkpt lat="60.451699122384" lon="22.274366664074">
        <ele>5.6</ele>
        <time>2016-01-23T11:56:59Z</time>
      </trkpt>
      <trkpt lat="60.451698200375" lon="22.274365825884">
        <ele>5.6</ele>
        <time>2016-01-23T11:57:00Z</time>
      </trkpt>
      <trkpt lat="60.451697110728" lon="22.274365071513">
        <ele>5.6</ele>
        <time>2016-01-23T11:57:01Z</time>
      </trkpt>
      <trkpt lat="60.451695350529" lon="22.2743628084">
        <ele>5.6</ele>
        <time>2016-01-23T11:57:02Z</time>
      </trkpt>
      <trkpt lat="60.451693422692" lon="22.27436029383">
        <ele>5.6</ele>
        <time>2016-01-23T11:57:03Z</time>
      </trkpt>
      <trkpt lat="60.451691746312" lon="22.274359623278">
        <ele>5.6</ele>
        <time>2016-01-23T11:57:04Z</time>
      </trkpt>
      <trkpt lat="60.451690991941" lon="22.274360210011">
        <ele>5.6</ele>
        <time>2016-01-23T11:57:05Z</time>
      </trkpt>
      <trkpt lat="60.451690405208" lon="22.274361551115">
        <ele>5.6</ele>
        <time>2016-01-23T11:57:06Z</time>
      </trkpt>
      <trkpt lat="60.451688812647" lon="22.274360545287">
        <ele>5.6</ele>
        <time>2016-01-23T11:57:07Z</time>
      </trkpt>
      <trkpt lat="60.451686968629" lon="22.274355097052">
        <ele>5.6</ele>
        <time>2016-01-23T11:57:08Z</time>
      </trkpt>
      <trkpt lat="60.451681101299" lon="22.274340680184">
        <ele>5.6</ele>
        <time>2016-01-23T11:57:09Z</time>
      </trkpt>
      <trkpt lat="60.451675820702" lon="22.274332130646">
        <ele>5.6</ele>
        <time>2016-01-23T11:57:10Z</time>
      </trkpt>
      <trkpt lat="60.451668528449" lon="22.274319725434">
        <ele>5.6</ele>
        <time>2016-01-23T11:57:11Z</time>
      </trkpt>
      <trkpt lat="60.451659392178" lon="22.274305224747">
        <ele>5.6</ele>
        <time>2016-01-23T11:57:12Z</time>
      </trkpt>
      <trkpt lat="60.451649333898" lon="22.274293573906">
        <ele>5.6</ele>
        <time>2016-01-23T11:57:13Z</time>
      </trkpt>
      <trkpt lat="60.451633911202" lon="22.274279157038">
        <ele>5.6</ele>
        <time>2016-01-23T11:57:14Z</time>
      </trkpt>
      <trkpt lat="60.451621254533" lon="22.274267087102">
        <ele>5.6</ele>
        <time>2016-01-23T11:57:15Z</time>
      </trkpt>
      <trkpt lat="60.451612537357" lon="22.274258537564">
        <ele>5.6</ele>
        <time>2016-01-23T11:57:16Z</time>
      </trkpt>
      <trkpt lat="60.451600467421" lon="22.274248898379">
        <ele>5.6</ele>
        <time>2016-01-23T11:57:17Z</time>
      </trkpt>
      <trkpt lat="60.451595605919" lon="22.274237415176">
        <ele>5.6</ele>
        <time>2016-01-23T11:57:18Z</time>
      </trkpt>
      <trkpt lat="60.451597701394" lon="22.27424294723">
        <ele>5.6</ele>
        <time>2016-01-23T11:57:19Z</time>
      </trkpt>
      <trkpt lat="60.451589403313" lon="22.274231044932">
        <ele>5.6</ele>
        <time>2016-01-23T11:57:20Z</time>
      </trkpt>
      <trkpt lat="60.451586050553" lon="22.274227943629">
        <ele>5.6</ele>
        <time>2016-01-23T11:57:21Z</time>
      </trkpt>
      <trkpt lat="60.451582194879" lon="22.274228446543">
        <ele>5.6</ele>
        <time>2016-01-23T11:57:22Z</time>
      </trkpt>
      <trkpt lat="60.451579261214" lon="22.274227524534">
        <ele>5.6</ele>
        <time>2016-01-23T11:57:23Z</time>
      </trkpt>
      <trkpt lat="60.451578087748" lon="22.274224423231">
        <ele>5.6</ele>
        <time>2016-01-23T11:57:24Z</time>
      </trkpt>
      <trkpt lat="60.45157708192" lon="22.274224004136">
        <ele>5.6</ele>
        <time>2016-01-23T11:57:25Z</time>
      </trkpt>
      <trkpt lat="60.451575908454" lon="22.274226267249">
        <ele>5.6</ele>
        <time>2016-01-23T11:57:26Z</time>
      </trkpt>
      <trkpt lat="60.451573393884" lon="22.274228195086">
        <ele>5.6</ele>
        <time>2016-01-23T11:57:27Z</time>
      </trkpt>
      <trkpt lat="60.451570460219" lon="22.274228195086">
        <ele>5.6</ele>
        <time>2016-01-23T11:57:28Z</time>
      </trkpt>
      <trkpt lat="60.451568867658" lon="22.274228865638">
        <ele>5.6</ele>
        <time>2016-01-23T11:57:29Z</time>
      </trkpt>
      <trkpt lat="60.451568197106" lon="22.274229200914">
        <ele>5.6</ele>
        <time>2016-01-23T11:57:30Z</time>
      </trkpt>
      <trkpt lat="60.451568616201" lon="22.27422953619">
        <ele>5.6</ele>
        <time>2016-01-23T11:57:31Z</time>
      </trkpt>
      <trkpt lat="60.451568951477" lon="22.274230709656">
        <ele>5.6</ele>
        <time>2016-01-23T11:57:32Z</time>
      </trkpt>
      <trkpt lat="60.451568280925" lon="22.274233894778">
        <ele>5.6</ele>
        <time>2016-01-23T11:57:33Z</time>
      </trkpt>
      <trkpt lat="60.451568280925" lon="22.274236744624">
        <ele>5.6</ele>
        <time>2016-01-23T11:57:34Z</time>
      </trkpt>
      <trkpt lat="60.451568616201" lon="22.274239007737">
        <ele>5.6</ele>
        <time>2016-01-23T11:57:35Z</time>
      </trkpt>
      <trkpt lat="60.451569119115" lon="22.274240348841">
        <ele>5.6</ele>
        <time>2016-01-23T11:57:36Z</time>
      </trkpt>
      <trkpt lat="60.451569622029" lon="22.274240348841">
        <ele>5.6</ele>
        <time>2016-01-23T11:57:37Z</time>
      </trkpt>
      <trkpt lat="60.451570460219" lon="22.274240935574">
        <ele>5.6</ele>
        <time>2016-01-23T11:57:38Z</time>
      </trkpt>
      <trkpt lat="60.451571382228" lon="22.274241941402">
        <ele>5.6</ele>
        <time>2016-01-23T11:57:39Z</time>
      </trkpt>
      <trkpt lat="60.45157121459" lon="22.274243701601">
        <ele>5.6</ele>
        <time>2016-01-23T11:57:40Z</time>
      </trkpt>
      <trkpt lat="60.451568448563" lon="22.274246551447">
        <ele>5.6</ele>
        <time>2016-01-23T11:57:41Z</time>
      </trkpt>
      <trkpt lat="60.451564592889" lon="22.274248395465">
        <ele>5.6</ele>
        <time>2016-01-23T11:57:42Z</time>
      </trkpt>
      <trkpt lat="60.451558557921" lon="22.274244791248">
        <ele>5.6</ele>
        <time>2016-01-23T11:57:43Z</time>
      </trkpt>
      <trkpt lat="60.451553528781" lon="22.274242863411">
        <ele>5.6</ele>
        <time>2016-01-23T11:57:44Z</time>
      </trkpt>
      <trkpt lat="60.45154606889" lon="22.27423372714">
        <ele>5.6</ele>
        <time>2016-01-23T11:57:45Z</time>
      </trkpt>
      <trkpt lat="60.451539950103" lon="22.274229452371">
        <ele>5.6</ele>
        <time>2016-01-23T11:57:46Z</time>
      </trkpt>
      <trkpt lat="60.451531903479" lon="22.274219226453">
        <ele>5.6</ele>
        <time>2016-01-23T11:57:47Z</time>
      </trkpt>
      <trkpt lat="60.451527041977" lon="22.274218220625">
        <ele>5.6</ele>
        <time>2016-01-23T11:57:48Z</time>
      </trkpt>
      <trkpt lat="60.451522180475" lon="22.274215622236">
        <ele>5.6</ele>
        <time>2016-01-23T11:57:49Z</time>
      </trkpt>
      <trkpt lat="60.451518576258" lon="22.274210928372">
        <ele>5.6</ele>
        <time>2016-01-23T11:57:50Z</time>
      </trkpt>
      <trkpt lat="60.451515307317" lon="22.274213023847">
        <ele>5.6</ele>
        <time>2016-01-23T11:57:51Z</time>
      </trkpt>
      <trkpt lat="60.451511367824" lon="22.274210844553">
        <ele>5.6</ele>
        <time>2016-01-23T11:57:52Z</time>
      </trkpt>
      <trkpt lat="60.451505500494" lon="22.274206402146">
        <ele>5.6</ele>
        <time>2016-01-23T11:57:53Z</time>
      </trkpt>
      <trkpt lat="60.451507260693" lon="22.274207910888">
        <ele>5.6</ele>
        <time>2016-01-23T11:57:54Z</time>
      </trkpt>
      <trkpt lat="60.451496448042" lon="22.274199780445">
        <ele>5.6</ele>
        <time>2016-01-23T11:57:55Z</time>
      </trkpt>
      <trkpt lat="60.45149829206" lon="22.274201708282">
        <ele>5.6</ele>
        <time>2016-01-23T11:57:56Z</time>
      </trkpt>
      <trkpt lat="60.451487730866" lon="22.274191985278">
        <ele>5.6</ele>
        <time>2016-01-23T11:57:57Z</time>
      </trkpt>
      <trkpt lat="60.451489826341" lon="22.274193829296">
        <ele>5.6</ele>
        <time>2016-01-23T11:57:58Z</time>
      </trkpt>
      <trkpt lat="60.451477504948" lon="22.274184944482">
        <ele>5.6</ele>
        <time>2016-01-23T11:57:59Z</time>
      </trkpt>
      <trkpt lat="60.451472140532" lon="22.274177484591">
        <ele>5.6</ele>
        <time>2016-01-23T11:58:00Z</time>
      </trkpt>
      <trkpt lat="60.451466608478" lon="22.274173964193">
        <ele>5.6</ele>
        <time>2016-01-23T11:58:01Z</time>
      </trkpt>
      <trkpt lat="60.451459902958" lon="22.274164241189">
        <ele>5.6</ele>
        <time>2016-01-23T11:58:02Z</time>
      </trkpt>
      <trkpt lat="60.451454454723" lon="22.274156781298">
        <ele>5.6</ele>
        <time>2016-01-23T11:58:03Z</time>
      </trkpt>
      <trkpt lat="60.451456214922" lon="22.27415996642">
        <ele>5.6</ele>
        <time>2016-01-23T11:58:04Z</time>
      </trkpt>
      <trkpt lat="60.451450179954" lon="22.274149991959">
        <ele>5.6</ele>
        <time>2016-01-23T11:58:05Z</time>
      </trkpt>
      <trkpt lat="60.451448755031" lon="22.274147645027">
        <ele>5.6</ele>
        <time>2016-01-23T11:58:06Z</time>
      </trkpt>
      <trkpt lat="60.451446994832" lon="22.274147728846">
        <ele>5.6</ele>
        <time>2016-01-23T11:58:07Z</time>
      </trkpt>
      <trkpt lat="60.451445905185" lon="22.274148147941">
        <ele>4.6</ele>
        <time>2016-01-23T11:58:08Z</time>
      </trkpt>
      <trkpt lat="60.451444899357" lon="22.274147309751">
        <ele>4.6</ele>
        <time>2016-01-23T11:58:09Z</time>
      </trkpt>
      <trkpt lat="60.451443725891" lon="22.274147142113">
        <ele>4.6</ele>
        <time>2016-01-23T11:58:10Z</time>
      </trkpt>
      <trkpt lat="60.451442887701" lon="22.274146890656">
        <ele>4.6</ele>
        <time>2016-01-23T11:58:11Z</time>
      </trkpt>
      <trkpt lat="60.451442384787" lon="22.274146471561">
        <ele>4.6</ele>
        <time>2016-01-23T11:58:12Z</time>
      </trkpt>
      <trkpt lat="60.451441714235" lon="22.274146136285">
        <ele>4.6</ele>
        <time>2016-01-23T11:58:13Z</time>
      </trkpt>
      <trkpt lat="60.451441043683" lon="22.274145801009">
        <ele>4.6</ele>
        <time>2016-01-23T11:58:14Z</time>
      </trkpt>
      <trkpt lat="60.451440373131" lon="22.274145130457">
        <ele>4.6</ele>
        <time>2016-01-23T11:58:15Z</time>
      </trkpt>
      <trkpt lat="60.451439199665" lon="22.27414571719">
        <ele>4.6</ele>
        <time>2016-01-23T11:58:16Z</time>
      </trkpt>
      <trkpt lat="60.451438026199" lon="22.27414655538">
        <ele>4.6</ele>
        <time>2016-01-23T11:58:17Z</time>
      </trkpt>
      <trkpt lat="60.451438361475" lon="22.274146806837">
        <ele>4.6</ele>
        <time>2016-01-23T11:58:18Z</time>
      </trkpt>
      <trkpt lat="60.451439702579" lon="22.274147728846">
        <ele>4.6</ele>
        <time>2016-01-23T11:58:19Z</time>
      </trkpt>
      <trkpt lat="60.451439954036" lon="22.274147645027">
        <ele>4.6</ele>
        <time>2016-01-23T11:58:20Z</time>
      </trkpt>
      <trkpt lat="60.451439702579" lon="22.274147728846">
        <ele>4.6</ele>
        <time>2016-01-23T11:58:21Z</time>
      </trkpt>
      <trkpt lat="60.451439199665" lon="22.274148315579">
        <ele>4.6</ele>
        <time>2016-01-23T11:58:22Z</time>
      </trkpt>
      <trkpt lat="60.451437774742" lon="22.274149656683">
        <ele>4.6</ele>
        <time>2016-01-23T11:58:23Z</time>
      </trkpt>
      <trkpt lat="60.451437188009" lon="22.274150411054">
        <ele>4.6</ele>
        <time>2016-01-23T11:58:24Z</time>
      </trkpt>
      <trkpt lat="60.451438026199" lon="22.27414990814">
        <ele>4.6</ele>
        <time>2016-01-23T11:58:25Z</time>
      </trkpt>
      <trkpt lat="60.451437355647" lon="22.274149237588">
        <ele>4.6</ele>
        <time>2016-01-23T11:58:26Z</time>
      </trkpt>
      <trkpt lat="60.451436182181" lon="22.274147561208">
        <ele>4.6</ele>
        <time>2016-01-23T11:58:27Z</time>
      </trkpt>
      <trkpt lat="60.451435092534" lon="22.274146723018">
        <ele>4.6</ele>
        <time>2016-01-23T11:58:28Z</time>
      </trkpt>
      <trkpt lat="60.451434086706" lon="22.27414571719">
        <ele>4.6</ele>
        <time>2016-01-23T11:58:29Z</time>
      </trkpt>
      <trkpt lat="60.451433416154" lon="22.274145046638">
        <ele>4.6</ele>
        <time>2016-01-23T11:58:30Z</time>
      </trkpt>
      <trkpt lat="60.45143291324" lon="22.274145046638">
        <ele>4.6</ele>
        <time>2016-01-23T11:58:31Z</time>
      </trkpt>
      <trkpt lat="60.451432997059" lon="22.274144711362">
        <ele>4.6</ele>
        <time>2016-01-23T11:58:32Z</time>
      </trkpt>
      <trkpt lat="60.451433164697" lon="22.274144627543">
        <ele>4.6</ele>
        <time>2016-01-23T11:58:33Z</time>
      </trkpt>
      <trkpt lat="60.451433164697" lon="22.274144627543">
        <ele>4.6</ele>
        <time>2016-01-23T11:58:35Z</time>
      </trkpt>
      <trkpt lat="60.451433164697" lon="22.274145298095">
        <ele>4.6</ele>
        <time>2016-01-23T11:58:36Z</time>
      </trkpt>
      <trkpt lat="60.451433080878" lon="22.27414571719">
        <ele>4.6</ele>
        <time>2016-01-23T11:58:37Z</time>
      </trkpt>
      <trkpt lat="60.45143291324" lon="22.274146303923">
        <ele>4.6</ele>
        <time>2016-01-23T11:58:38Z</time>
      </trkpt>
      <trkpt lat="60.451432745602" lon="22.274146723018">
        <ele>4.6</ele>
        <time>2016-01-23T11:58:39Z</time>
      </trkpt>
      <trkpt lat="60.451432494145" lon="22.27414739357">
        <ele>4.6</ele>
        <time>2016-01-23T11:58:40Z</time>
      </trkpt>
      <trkpt lat="60.451431907412" lon="22.274147225932">
        <ele>4.6</ele>
        <time>2016-01-23T11:58:41Z</time>
      </trkpt>
      <trkpt lat="60.451431069222" lon="22.274146890656">
        <ele>4.6</ele>
        <time>2016-01-23T11:58:42Z</time>
      </trkpt>
      <trkpt lat="60.451431320679" lon="22.274145046638">
        <ele>4.6</ele>
        <time>2016-01-23T11:58:43Z</time>
      </trkpt>
      <trkpt lat="60.451430901584" lon="22.274142699706">
        <ele>4.6</ele>
        <time>2016-01-23T11:58:44Z</time>
      </trkpt>
      <trkpt lat="60.451429979575" lon="22.274143621715">
        <ele>4.6</ele>
        <time>2016-01-23T11:58:45Z</time>
      </trkpt>
      <trkpt lat="60.45143039867" lon="22.274142196792">
        <ele>4.6</ele>
        <time>2016-01-23T11:58:46Z</time>
      </trkpt>
      <trkpt lat="60.451429979575" lon="22.274136664738">
        <ele>4.6</ele>
        <time>2016-01-23T11:58:47Z</time>
      </trkpt>
      <trkpt lat="60.451429811937" lon="22.274131719417">
        <ele>4.6</ele>
        <time>2016-01-23T11:58:48Z</time>
      </trkpt>
      <trkpt lat="60.451431320679" lon="22.274129121028">
        <ele>4.6</ele>
        <time>2016-01-23T11:58:49Z</time>
      </trkpt>
      <trkpt lat="60.451431907412" lon="22.27412895339">
        <ele>4.6</ele>
        <time>2016-01-23T11:58:50Z</time>
      </trkpt>
      <trkpt lat="60.45143207505" lon="22.274129707761">
        <ele>4.6</ele>
        <time>2016-01-23T11:58:51Z</time>
      </trkpt>
      <trkpt lat="60.451432158869" lon="22.274131635598">
        <ele>4.6</ele>
        <time>2016-01-23T11:58:52Z</time>
      </trkpt>
      <trkpt lat="60.451431488317" lon="22.274133898711">
        <ele>5.2</ele>
        <time>2016-01-23T11:58:53Z</time>
      </trkpt>
      <trkpt lat="60.451430901584" lon="22.274136413281">
        <ele>5.2</ele>
        <time>2016-01-23T11:58:54Z</time>
      </trkpt>
      <trkpt lat="60.451430147213" lon="22.274141442421">
        <ele>5.2</ele>
        <time>2016-01-23T11:58:55Z</time>
      </trkpt>
      <trkpt lat="60.451430147213" lon="22.274144208448">
        <ele>5.2</ele>
        <time>2016-01-23T11:58:56Z</time>
      </trkpt>
      <trkpt lat="60.45142956048" lon="22.274143789353">
        <ele>5.2</ele>
        <time>2016-01-23T11:58:57Z</time>
      </trkpt>
      <trkpt lat="60.451422268227" lon="22.274147645027">
        <ele>5.2</ele>
        <time>2016-01-23T11:58:58Z</time>
      </trkpt>
      <trkpt lat="60.451426291539" lon="22.274145968647">
        <ele>5.2</ele>
        <time>2016-01-23T11:58:59Z</time>
      </trkpt>
      <trkpt lat="60.451412042309" lon="22.274137167652">
        <ele>5.2</ele>
        <time>2016-01-23T11:59:00Z</time>
      </trkpt>
      <trkpt lat="60.45140525297" lon="22.274134317806">
        <ele>5.2</ele>
        <time>2016-01-23T11:59:01Z</time>
      </trkpt>
      <trkpt lat="60.451396954889" lon="22.27411889511">
        <ele>5.2</ele>
        <time>2016-01-23T11:59:02Z</time>
      </trkpt>
      <trkpt lat="60.451392093387" lon="22.274119984757">
        <ele>5.2</ele>
        <time>2016-01-23T11:59:03Z</time>
      </trkpt>
      <trkpt lat="60.451384633496" lon="22.274105148794">
        <ele>5.2</ele>
        <time>2016-01-23T11:59:04Z</time>
      </trkpt>
      <trkpt lat="60.451380526365" lon="22.274104897337">
        <ele>5.2</ele>
        <time>2016-01-23T11:59:05Z</time>
      </trkpt>
      <trkpt lat="60.451371809189" lon="22.274093833229">
        <ele>5.2</ele>
        <time>2016-01-23T11:59:06Z</time>
      </trkpt>
      <trkpt lat="60.45136669623" lon="22.274097018351">
        <ele>5.2</ele>
        <time>2016-01-23T11:59:07Z</time>
      </trkpt>
      <trkpt lat="60.451371054818" lon="22.274098527093">
        <ele>5.2</ele>
        <time>2016-01-23T11:59:08Z</time>
      </trkpt>
      <trkpt lat="60.451367869696" lon="22.274089307003">
        <ele>5.2</ele>
        <time>2016-01-23T11:59:09Z</time>
      </trkpt>
      <trkpt lat="60.451367618239" lon="22.274087211528">
        <ele>5.2</ele>
        <time>2016-01-23T11:59:10Z</time>
      </trkpt>
      <trkpt lat="60.451368121153" lon="22.274085199872">
        <ele>5.2</ele>
        <time>2016-01-23T11:59:11Z</time>
      </trkpt>
      <trkpt lat="60.451368875524" lon="22.274083607311">
        <ele>5.2</ele>
        <time>2016-01-23T11:59:12Z</time>
      </trkpt>
      <trkpt lat="60.451369797533" lon="22.274081595655">
        <ele>5.2</ele>
        <time>2016-01-23T11:59:13Z</time>
      </trkpt>
      <trkpt lat="60.451372395922" lon="22.274078997266">
        <ele>5.2</ele>
        <time>2016-01-23T11:59:14Z</time>
      </trkpt>
      <trkpt lat="60.451374659035" lon="22.274076566515">
        <ele>5.2</ele>
        <time>2016-01-23T11:59:15Z</time>
      </trkpt>
      <trkpt lat="60.451377173605" lon="22.274073968126">
        <ele>5.2</ele>
        <time>2016-01-23T11:59:16Z</time>
      </trkpt>
      <trkpt lat="60.45137926908" lon="22.274071453556">
        <ele>5.2</ele>
        <time>2016-01-23T11:59:17Z</time>
      </trkpt>
      <trkpt lat="60.451381113098" lon="22.274069022805">
        <ele>5.2</ele>
        <time>2016-01-23T11:59:18Z</time>
      </trkpt>
      <trkpt lat="60.451382873297" lon="22.274066592054">
        <ele>5.2</ele>
        <time>2016-01-23T11:59:19Z</time>
      </trkpt>
      <trkpt lat="60.451382873297" lon="22.274066592054">
        <ele>5.2</ele>
        <time>2016-01-23T11:59:20Z</time>
      </trkpt>
      <trkpt lat="60.451387902437" lon="22.274058293973">
        <ele>5.2</ele>
        <time>2016-01-23T11:59:22Z</time>
      </trkpt>
      <trkpt lat="60.451389578817" lon="22.274054941213">
        <ele>5.2</ele>
        <time>2016-01-23T11:59:23Z</time>
      </trkpt>
      <trkpt lat="60.45139100374" lon="22.274053935385">
        <ele>5.2</ele>
        <time>2016-01-23T11:59:24Z</time>
      </trkpt>
      <trkpt lat="60.45139100374" lon="22.274055444127">
        <ele>5.2</ele>
        <time>2016-01-23T11:59:25Z</time>
      </trkpt>
      <trkpt lat="60.451381280736" lon="22.274049073883">
        <ele>5.2</ele>
        <time>2016-01-23T11:59:26Z</time>
      </trkpt>
      <trkpt lat="60.451376503053" lon="22.274043541829">
        <ele>5.2</ele>
        <time>2016-01-23T11:59:27Z</time>
      </trkpt>
      <trkpt lat="60.451369881352" lon="22.274029627875">
        <ele>5.2</ele>
        <time>2016-01-23T11:59:28Z</time>
      </trkpt>
      <trkpt lat="60.451366109497" lon="22.274023425269">
        <ele>5.2</ele>
        <time>2016-01-23T11:59:29Z</time>
      </trkpt>
      <trkpt lat="60.451362589099" lon="22.27402166507">
        <ele>5.2</ele>
        <time>2016-01-23T11:59:30Z</time>
      </trkpt>
      <trkpt lat="60.451360745081" lon="22.274012277342">
        <ele>5.2</ele>
        <time>2016-01-23T11:59:31Z</time>
      </trkpt>
      <trkpt lat="60.451362672918" lon="22.274019318138">
        <ele>5.2</ele>
        <time>2016-01-23T11:59:32Z</time>
      </trkpt>
      <trkpt lat="60.451357308502" lon="22.274010349505">
        <ele>5.2</ele>
        <time>2016-01-23T11:59:33Z</time>
      </trkpt>
      <trkpt lat="60.451355380665" lon="22.27400909222">
        <ele>5.2</ele>
        <time>2016-01-23T11:59:34Z</time>
      </trkpt>
      <trkpt lat="60.451354291018" lon="22.274007918754">
        <ele>5.2</ele>
        <time>2016-01-23T11:59:35Z</time>
      </trkpt>
      <trkpt lat="60.451354374837" lon="22.27400741584">
        <ele>5.2</ele>
        <time>2016-01-23T11:59:36Z</time>
      </trkpt>
      <trkpt lat="60.451354291018" lon="22.274007918754">
        <ele>5.2</ele>
        <time>2016-01-23T11:59:37Z</time>
      </trkpt>
      <trkpt lat="60.451354207199" lon="22.274007332021">
        <ele>5.2</ele>
        <time>2016-01-23T11:59:38Z</time>
      </trkpt>
      <trkpt lat="60.451353620466" lon="22.274008002573">
        <ele>5.2</ele>
        <time>2016-01-23T11:59:39Z</time>
      </trkpt>
      <trkpt lat="60.45135328519" lon="22.274007918754">
        <ele>5.2</ele>
        <time>2016-01-23T11:59:40Z</time>
      </trkpt>
      <trkpt lat="60.451353369009" lon="22.274007332021">
        <ele>5.2</ele>
        <time>2016-01-23T11:59:41Z</time>
      </trkpt>
      <trkpt lat="60.451353704285" lon="22.274007248202">
        <ele>5.2</ele>
        <time>2016-01-23T11:59:42Z</time>
      </trkpt>
      <trkpt lat="60.45135412338" lon="22.274009259858">
        <ele>5.2</ele>
        <time>2016-01-23T11:59:43Z</time>
      </trkpt>
      <trkpt lat="60.451353704285" lon="22.274010936238">
        <ele>5.2</ele>
        <time>2016-01-23T11:59:44Z</time>
      </trkpt>
      <trkpt lat="60.451352866095" lon="22.274009846591">
        <ele>5.2</ele>
        <time>2016-01-23T11:59:45Z</time>
      </trkpt>
      <trkpt lat="60.451352111724" lon="22.274010936238">
        <ele>5.2</ele>
        <time>2016-01-23T11:59:46Z</time>
      </trkpt>
      <trkpt lat="60.451350602982" lon="22.274013115532">
        <ele>5.2</ele>
        <time>2016-01-23T11:59:47Z</time>
      </trkpt>
      <trkpt lat="60.45134909424" lon="22.274015630102">
        <ele>5.2</ele>
        <time>2016-01-23T11:59:48Z</time>
      </trkpt>
      <trkpt lat="60.45134741786" lon="22.274018396129">
        <ele>5.2</ele>
        <time>2016-01-23T11:59:49Z</time>
      </trkpt>
      <trkpt lat="60.451345573842" lon="22.274021245975">
        <ele>5.2</ele>
        <time>2016-01-23T11:59:50Z</time>
      </trkpt>
      <trkpt lat="60.451343897462" lon="22.274024095821">
        <ele>5.2</ele>
        <time>2016-01-23T11:59:51Z</time>
      </trkpt>
      <trkpt lat="60.451341801987" lon="22.2740275324">
        <ele>5.2</ele>
        <time>2016-01-23T11:59:52Z</time>
      </trkpt>
      <trkpt lat="60.45134071234" lon="22.274029711694">
        <ele>5.2</ele>
        <time>2016-01-23T11:59:53Z</time>
      </trkpt>
      <trkpt lat="60.451333587725" lon="22.274029292599">
        <ele>5.2</ele>
        <time>2016-01-23T11:59:54Z</time>
      </trkpt>
      <trkpt lat="60.451337694856" lon="22.274030130789">
        <ele>5.2</ele>
        <time>2016-01-23T11:59:55Z</time>
      </trkpt>
      <trkpt lat="60.451319925228" lon="22.274020156328">
        <ele>5.2</ele>
        <time>2016-01-23T11:59:56Z</time>
      </trkpt>
      <trkpt lat="60.451310621319" lon="22.274015378645">
        <ele>5.2</ele>
        <time>2016-01-23T11:59:57Z</time>
      </trkpt>
      <trkpt lat="60.451297545555" lon="22.274006745288">
        <ele>5.2</ele>
        <time>2016-01-23T11:59:58Z</time>
      </trkpt>
      <trkpt lat="60.451285056524" lon="22.273995597361">
        <ele>5.2</ele>
        <time>2016-01-23T11:59:59Z</time>
      </trkpt>
      <trkpt lat="60.45127281895" lon="22.273990568221">
        <ele>5.2</ele>
        <time>2016-01-23T12:00:00Z</time>
      </trkpt>
      <trkpt lat="60.451260329919" lon="22.273976151353">
        <ele>5.2</ele>
        <time>2016-01-23T12:00:01Z</time>
      </trkpt>
      <trkpt lat="60.451249014354" lon="22.273965338702">
        <ele>5.2</ele>
        <time>2016-01-23T12:00:02Z</time>
      </trkpt>
      <trkpt lat="60.45123845316" lon="22.273962824132">
        <ele>5.2</ele>
        <time>2016-01-23T12:00:03Z</time>
      </trkpt>
      <trkpt lat="60.451230574174" lon="22.273960141924">
        <ele>5.2</ele>
        <time>2016-01-23T12:00:04Z</time>
      </trkpt>
      <trkpt lat="60.451221940817" lon="22.273955783336">
        <ele>5.2</ele>
        <time>2016-01-23T12:00:05Z</time>
      </trkpt>
      <trkpt lat="60.451209367967" lon="22.273945976513">
        <ele>5.2</ele>
        <time>2016-01-23T12:00:06Z</time>
      </trkpt>
      <trkpt lat="60.451205009379" lon="22.273937426975">
        <ele>5.2</ele>
        <time>2016-01-23T12:00:07Z</time>
      </trkpt>
      <trkpt lat="60.451210457614" lon="22.273944635409">
        <ele>5.2</ele>
        <time>2016-01-23T12:00:08Z</time>
      </trkpt>
      <trkpt lat="60.451203416818" lon="22.273940528278">
        <ele>5.2</ele>
        <time>2016-01-23T12:00:09Z</time>
      </trkpt>
      <trkpt lat="60.451199644963" lon="22.273925357039">
        <ele>5.2</ele>
        <time>2016-01-23T12:00:10Z</time>
      </trkpt>
      <trkpt lat="60.451201405162" lon="22.273933738939">
        <ele>5.2</ele>
        <time>2016-01-23T12:00:11Z</time>
      </trkpt>
      <trkpt lat="60.451197465669" lon="22.273925021763">
        <ele>5.2</ele>
        <time>2016-01-23T12:00:12Z</time>
      </trkpt>
      <trkpt lat="60.451197717126" lon="22.273922842469">
        <ele>5.2</ele>
        <time>2016-01-23T12:00:13Z</time>
      </trkpt>
      <trkpt lat="60.45119738185" lon="22.273921249908">
        <ele>5.2</ele>
        <time>2016-01-23T12:00:14Z</time>
      </trkpt>
      <trkpt lat="60.451196459841" lon="22.273920160261">
        <ele>5.2</ele>
        <time>2016-01-23T12:00:15Z</time>
      </trkpt>
      <trkpt lat="60.451194951099" lon="22.273918064786">
        <ele>5.2</ele>
        <time>2016-01-23T12:00:16Z</time>
      </trkpt>
      <trkpt lat="60.451193693814" lon="22.273916304587">
        <ele>5.2</ele>
        <time>2016-01-23T12:00:17Z</time>
      </trkpt>
      <trkpt lat="60.451191598339" lon="22.273913706198">
        <ele>5.2</ele>
        <time>2016-01-23T12:00:18Z</time>
      </trkpt>
      <trkpt lat="60.451191598339" lon="22.273913706198">
        <ele>5.2</ele>
        <time>2016-01-23T12:00:19Z</time>
      </trkpt>
      <trkpt lat="60.451190843968" lon="22.273912616551">
        <ele>5.2</ele>
        <time>2016-01-23T12:00:20Z</time>
      </trkpt>
      <trkpt lat="60.451189921959" lon="22.273911107809">
        <ele>5.2</ele>
        <time>2016-01-23T12:00:21Z</time>
      </trkpt>
      <trkpt lat="60.451189167588" lon="22.27390934761">
        <ele>5.2</ele>
        <time>2016-01-23T12:00:22Z</time>
      </trkpt>
      <trkpt lat="60.451188580855" lon="22.273907838868">
        <ele>5.2</ele>
        <time>2016-01-23T12:00:23Z</time>
      </trkpt>
      <trkpt lat="60.451187407389" lon="22.273907922687">
        <ele>5.2</ele>
        <time>2016-01-23T12:00:24Z</time>
      </trkpt>
      <trkpt lat="60.451186820656" lon="22.27390767123">
        <ele>5.2</ele>
        <time>2016-01-23T12:00:25Z</time>
      </trkpt>
      <trkpt lat="60.451184976638" lon="22.273905408117">
        <ele>5.2</ele>
        <time>2016-01-23T12:00:26Z</time>
      </trkpt>
      <trkpt lat="60.451183384077" lon="22.273902390633">
        <ele>5.2</ele>
        <time>2016-01-23T12:00:27Z</time>
      </trkpt>
      <trkpt lat="60.451181372421" lon="22.273899121692">
        <ele>5.2</ele>
        <time>2016-01-23T12:00:28Z</time>
      </trkpt>
      <trkpt lat="60.451178774032" lon="22.273895266018">
        <ele>5.2</ele>
        <time>2016-01-23T12:00:29Z</time>
      </trkpt>
      <trkpt lat="60.451175756548" lon="22.273893002905">
        <ele>5.2</ele>
        <time>2016-01-23T12:00:30Z</time>
      </trkpt>
      <trkpt lat="60.451168548114" lon="22.273882860806">
        <ele>5.2</ele>
        <time>2016-01-23T12:00:31Z</time>
      </trkpt>
      <trkpt lat="60.451164440983" lon="22.273880094779">
        <ele>5.2</ele>
        <time>2016-01-23T12:00:32Z</time>
      </trkpt>
      <trkpt lat="60.451160752947" lon="22.273869785042">
        <ele>5.2</ele>
        <time>2016-01-23T12:00:33Z</time>
      </trkpt>
      <trkpt lat="60.451157819282" lon="22.273861738418">
        <ele>5.2</ele>
        <time>2016-01-23T12:00:34Z</time>
      </trkpt>
      <trkpt lat="60.451160752947" lon="22.273868695395">
        <ele>5.2</ele>
        <time>2016-01-23T12:00:35Z</time>
      </trkpt>
      <trkpt lat="60.451154717979" lon="22.273856793097">
        <ele>5.2</ele>
        <time>2016-01-23T12:00:36Z</time>
      </trkpt>
      <trkpt lat="60.451151868133" lon="22.27385318888">
        <ele>5.2</ele>
        <time>2016-01-23T12:00:37Z</time>
      </trkpt>
      <trkpt lat="60.451143402414" lon="22.273842124772">
        <ele>5.2</ele>
        <time>2016-01-23T12:00:38Z</time>
      </trkpt>
      <trkpt lat="60.451140049654" lon="22.273829971017">
        <ele>5.2</ele>
        <time>2016-01-23T12:00:39Z</time>
      </trkpt>
      <trkpt lat="60.451135858704" lon="22.273820918565">
        <ele>5.2</ele>
        <time>2016-01-23T12:00:40Z</time>
      </trkpt>
      <trkpt lat="60.451132170668" lon="22.273816140882">
        <ele>5.2</ele>
        <time>2016-01-23T12:00:41Z</time>
      </trkpt>
      <trkpt lat="60.451135691066" lon="22.273821505298">
        <ele>5.2</ele>
        <time>2016-01-23T12:00:42Z</time>
      </trkpt>
      <trkpt lat="60.451125465148" lon="22.273806836973">
        <ele>5.2</ele>
        <time>2016-01-23T12:00:43Z</time>
      </trkpt>
      <trkpt lat="60.451118005257" lon="22.273799041806">
        <ele>5.2</ele>
        <time>2016-01-23T12:00:44Z</time>
      </trkpt>
      <trkpt lat="60.45109847543" lon="22.2737844573">
        <ele>5.2</ele>
        <time>2016-01-23T12:00:45Z</time>
      </trkpt>
      <trkpt lat="60.451085483485" lon="22.273774566658">
        <ele>5.2</ele>
        <time>2016-01-23T12:00:46Z</time>
      </trkpt>
      <trkpt lat="60.451060840699" lon="22.273752438442">
        <ele>5.2</ele>
        <time>2016-01-23T12:00:47Z</time>
      </trkpt>
      <trkpt lat="60.451032928972" lon="22.27372410762">
        <ele>5.2</ele>
        <time>2016-01-23T12:00:48Z</time>
      </trkpt>
      <trkpt lat="60.451009543471" lon="22.273705164526">
        <ele>5.2</ele>
        <time>2016-01-23T12:00:49Z</time>
      </trkpt>
      <trkpt lat="60.450979536269" lon="22.273673145668">
        <ele>5.2</ele>
        <time>2016-01-23T12:00:50Z</time>
      </trkpt>
      <trkpt lat="60.450950367257" lon="22.27364783233">
        <ele>5.2</ele>
        <time>2016-01-23T12:00:51Z</time>
      </trkpt>
      <trkpt lat="60.45093838114" lon="22.273643389923">
        <ele>5.2</ele>
        <time>2016-01-23T12:00:52Z</time>
      </trkpt>
      <trkpt lat="60.450900830228" lon="22.273615394377">
        <ele>5.2</ele>
        <time>2016-01-23T12:00:53Z</time>
      </trkpt>
      <trkpt lat="60.450869984836" lon="22.273590583953">
        <ele>5.2</ele>
        <time>2016-01-23T12:00:54Z</time>
      </trkpt>
      <trkpt lat="60.450844671498" lon="22.273570467393">
        <ele>5.2</ele>
        <time>2016-01-23T12:00:55Z</time>
      </trkpt>
      <trkpt lat="60.450810557165" lon="22.273558229819">
        <ele>5.2</ele>
        <time>2016-01-23T12:00:56Z</time>
      </trkpt>
      <trkpt lat="60.450786333474" lon="22.273554457964">
        <ele>5.2</ele>
        <time>2016-01-23T12:00:57Z</time>
      </trkpt>
      <trkpt lat="60.450772587158" lon="22.273533587033">
        <ele>5.2</ele>
        <time>2016-01-23T12:00:58Z</time>
      </trkpt>
      <trkpt lat="60.450770826959" lon="22.273515230672">
        <ele>5.2</ele>
        <time>2016-01-23T12:00:59Z</time>
      </trkpt>
      <trkpt lat="60.450771665149" lon="22.273504585659">
        <ele>5.2</ele>
        <time>2016-01-23T12:01:00Z</time>
      </trkpt>
      <trkpt lat="60.450775269366" lon="22.273483463271">
        <ele>5.2</ele>
        <time>2016-01-23T12:01:01Z</time>
      </trkpt>
      <trkpt lat="60.45078080142" lon="22.273482625081">
        <ele>5.2</ele>
        <time>2016-01-23T12:01:02Z</time>
      </trkpt>
      <trkpt lat="60.450775856099" lon="22.273487151307">
        <ele>5.2</ele>
        <time>2016-01-23T12:01:03Z</time>
      </trkpt>
      <trkpt lat="60.45078415418" lon="22.273482122167">
        <ele>5.2</ele>
        <time>2016-01-23T12:01:04Z</time>
      </trkpt>
      <trkpt lat="60.450787171664" lon="22.273481703072">
        <ele>5.2</ele>
        <time>2016-01-23T12:01:05Z</time>
      </trkpt>
      <trkpt lat="60.450789350958" lon="22.273483044176">
        <ele>5.2</ele>
        <time>2016-01-23T12:01:06Z</time>
      </trkpt>
      <trkpt lat="60.4507908597" lon="22.273481619253">
        <ele>5.2</ele>
        <time>2016-01-23T12:01:07Z</time>
      </trkpt>
      <trkpt lat="60.450791446433" lon="22.273478266493">
        <ele>5.2</ele>
        <time>2016-01-23T12:01:08Z</time>
      </trkpt>
      <trkpt lat="60.450792368442" lon="22.273474829914">
        <ele>5.2</ele>
        <time>2016-01-23T12:01:09Z</time>
      </trkpt>
      <trkpt lat="60.45080007979" lon="22.273483630909">
        <ele>5.2</ele>
        <time>2016-01-23T12:01:10Z</time>
      </trkpt>
      <trkpt lat="60.450795385926" lon="22.273476757751">
        <ele>5.2</ele>
        <time>2016-01-23T12:01:11Z</time>
      </trkpt>
      <trkpt lat="60.450804522197" lon="22.27349611994">
        <ele>5.2</ele>
        <time>2016-01-23T12:01:12Z</time>
      </trkpt>
      <trkpt lat="60.450806617672" lon="22.273503160736">
        <ele>5.2</ele>
        <time>2016-01-23T12:01:13Z</time>
      </trkpt>
      <trkpt lat="60.450812820278" lon="22.273520678907">
        <ele>5.2</ele>
        <time>2016-01-23T12:01:14Z</time>
      </trkpt>
      <trkpt lat="60.450815586305" lon="22.273521852373">
        <ele>5.2</ele>
        <time>2016-01-23T12:01:15Z</time>
      </trkpt>
      <trkpt lat="60.450822543282" lon="22.273533670852">
        <ele>5.2</ele>
        <time>2016-01-23T12:01:16Z</time>
      </trkpt>
      <trkpt lat="60.450827320965" lon="22.273532916481">
        <ele>5.2</ele>
        <time>2016-01-23T12:01:17Z</time>
      </trkpt>
      <trkpt lat="60.450832936838" lon="22.27353886763">
        <ele>5.2</ele>
        <time>2016-01-23T12:01:18Z</time>
      </trkpt>
      <trkpt lat="60.450840983462" lon="22.273546662797">
        <ele>5.2</ele>
        <time>2016-01-23T12:01:19Z</time>
      </trkpt>
      <trkpt lat="60.450847521344" lon="22.273548003901">
        <ele>5.2</ele>
        <time>2016-01-23T12:01:20Z</time>
      </trkpt>
      <trkpt lat="60.450851125561" lon="22.273544064408">
        <ele>5.2</ele>
        <time>2016-01-23T12:01:21Z</time>
      </trkpt>
      <trkpt lat="60.450846599335" lon="22.273545237874">
        <ele>5.2</ele>
        <time>2016-01-23T12:01:22Z</time>
      </trkpt>
      <trkpt lat="60.450850287371" lon="22.273543645313">
        <ele>5.2</ele>
        <time>2016-01-23T12:01:23Z</time>
      </trkpt>
      <trkpt lat="60.450850957923" lon="22.273543226218">
        <ele>5.2</ele>
        <time>2016-01-23T12:01:24Z</time>
      </trkpt>
      <trkpt lat="60.450854897416" lon="22.273540627829">
        <ele>5.2</ele>
        <time>2016-01-23T12:01:25Z</time>
      </trkpt>
      <trkpt lat="60.450854897416" lon="22.273540627829">
        <ele>5.2</ele>
        <time>2016-01-23T12:01:26Z</time>
      </trkpt>
      <trkpt lat="60.450857244348" lon="22.273540711648">
        <ele>5.2</ele>
        <time>2016-01-23T12:01:27Z</time>
      </trkpt>
      <trkpt lat="60.45085959128" lon="22.273540795467">
        <ele>5.2</ele>
        <time>2016-01-23T12:01:28Z</time>
      </trkpt>
      <trkpt lat="60.450861100022" lon="22.273543561494">
        <ele>5.2</ele>
        <time>2016-01-23T12:01:29Z</time>
      </trkpt>
      <trkpt lat="60.450861351479" lon="22.273544567322">
        <ele>5.2</ele>
        <time>2016-01-23T12:01:30Z</time>
      </trkpt>
      <trkpt lat="60.450862608764" lon="22.273544818779">
        <ele>5.2</ele>
        <time>2016-01-23T12:01:31Z</time>
      </trkpt>
      <trkpt lat="60.450862776402" lon="22.273545237874">
        <ele>5.2</ele>
        <time>2016-01-23T12:01:32Z</time>
      </trkpt>
      <trkpt lat="60.450862692583" lon="22.273544232046">
        <ele>5.2</ele>
        <time>2016-01-23T12:01:33Z</time>
      </trkpt>
      <trkpt lat="60.450862860221" lon="22.273544651141">
        <ele>5.2</ele>
        <time>2016-01-23T12:01:34Z</time>
      </trkpt>
      <trkpt lat="60.450862860221" lon="22.273543812951">
        <ele>5.2</ele>
        <time>2016-01-23T12:01:35Z</time>
      </trkpt>
      <trkpt lat="60.450862357307" lon="22.273542136571">
        <ele>5.2</ele>
        <time>2016-01-23T12:01:36Z</time>
      </trkpt>
      <trkpt lat="60.450860848565" lon="22.273542471847">
        <ele>5.2</ele>
        <time>2016-01-23T12:01:37Z</time>
      </trkpt>
      <trkpt lat="60.450861100022" lon="22.273540627829">
        <ele>5.2</ele>
        <time>2016-01-23T12:01:38Z</time>
      </trkpt>
      <trkpt lat="60.450862022031" lon="22.273538448535">
        <ele>5.2</ele>
        <time>2016-01-23T12:01:39Z</time>
      </trkpt>
      <trkpt lat="60.450862189669" lon="22.273535347232">
        <ele>5.2</ele>
        <time>2016-01-23T12:01:40Z</time>
      </trkpt>
      <trkpt lat="60.450862524945" lon="22.273532245929">
        <ele>5.2</ele>
        <time>2016-01-23T12:01:41Z</time>
      </trkpt>
      <trkpt lat="60.450862357307" lon="22.273530569549">
        <ele>5.2</ele>
        <time>2016-01-23T12:01:42Z</time>
      </trkpt>
      <trkpt lat="60.45086126766" lon="22.273527803522">
        <ele>5.2</ele>
        <time>2016-01-23T12:01:43Z</time>
      </trkpt>
      <trkpt lat="60.450859423642" lon="22.273526043323">
        <ele>5.2</ele>
        <time>2016-01-23T12:01:44Z</time>
      </trkpt>
      <trkpt lat="60.450858417814" lon="22.273525288952">
        <ele>5.2</ele>
        <time>2016-01-23T12:01:45Z</time>
      </trkpt>
      <trkpt lat="60.450857411986" lon="22.273522858201">
        <ele>5.2</ele>
        <time>2016-01-23T12:01:46Z</time>
      </trkpt>
      <trkpt lat="60.450856825253" lon="22.273520511269">
        <ele>5.2</ele>
        <time>2016-01-23T12:01:47Z</time>
      </trkpt>
      <trkpt lat="60.450855819425" lon="22.273519170165">
        <ele>5.2</ele>
        <time>2016-01-23T12:01:48Z</time>
      </trkpt>
      <trkpt lat="60.450854813597" lon="22.273518248156">
        <ele>5.2</ele>
        <time>2016-01-23T12:01:49Z</time>
      </trkpt>
      <trkpt lat="60.450853891588" lon="22.273517829061">
        <ele>5.2</ele>
        <time>2016-01-23T12:01:50Z</time>
      </trkpt>
      <trkpt lat="60.450853053398" lon="22.273517661423">
        <ele>5.2</ele>
        <time>2016-01-23T12:01:51Z</time>
      </trkpt>
      <trkpt lat="60.45085204757" lon="22.273516990871">
        <ele>5.2</ele>
        <time>2016-01-23T12:01:52Z</time>
      </trkpt>
      <trkpt lat="60.450851125561" lon="22.273516823233">
        <ele>5.2</ele>
        <time>2016-01-23T12:01:53Z</time>
      </trkpt>
      <trkpt lat="60.450850203552" lon="22.273516739414">
        <ele>5.2</ele>
        <time>2016-01-23T12:01:54Z</time>
      </trkpt>
      <trkpt lat="60.450849700638" lon="22.273515901224">
        <ele>5.2</ele>
        <time>2016-01-23T12:01:55Z</time>
      </trkpt>
      <trkpt lat="60.450848108077" lon="22.273516320319">
        <ele>5.2</ele>
        <time>2016-01-23T12:01:56Z</time>
      </trkpt>
      <trkpt lat="60.450846850792" lon="22.273517661423">
        <ele>5.2</ele>
        <time>2016-01-23T12:01:57Z</time>
      </trkpt>
      <trkpt lat="60.450845425869" lon="22.273519505441">
        <ele>5.2</ele>
        <time>2016-01-23T12:01:58Z</time>
      </trkpt>
      <trkpt lat="60.450843749489" lon="22.273522271468">
        <ele>5.2</ele>
        <time>2016-01-23T12:01:59Z</time>
      </trkpt>
      <trkpt lat="60.450835535227" lon="22.273519421622">
        <ele>5.2</ele>
        <time>2016-01-23T12:02:00Z</time>
      </trkpt>
      <trkpt lat="60.450839893815" lon="22.273523696391">
        <ele>5.2</ele>
        <time>2016-01-23T12:02:01Z</time>
      </trkpt>
      <trkpt lat="60.450821118359" lon="22.273517242328">
        <ele>5.2</ele>
        <time>2016-01-23T12:02:02Z</time>
      </trkpt>
      <trkpt lat="60.450816508314" lon="22.273513470473">
        <ele>5.2</ele>
        <time>2016-01-23T12:02:03Z</time>
      </trkpt>
      <trkpt lat="60.450811982088" lon="22.273504418021">
        <ele>5.2</ele>
        <time>2016-01-23T12:02:04Z</time>
      </trkpt>
      <trkpt lat="60.450815418667" lon="22.273513302835">
        <ele>5.2</ele>
        <time>2016-01-23T12:02:05Z</time>
      </trkpt>
      <trkpt lat="60.45080929988" lon="22.273509866256">
        <ele>5.2</ele>
        <time>2016-01-23T12:02:06Z</time>
      </trkpt>
      <trkpt lat="60.450808210233" lon="22.273510117713">
        <ele>5.2</ele>
        <time>2016-01-23T12:02:07Z</time>
      </trkpt>
      <trkpt lat="60.450802426722" lon="22.273520175993">
        <ele>5.2</ele>
        <time>2016-01-23T12:02:08Z</time>
      </trkpt>
      <trkpt lat="60.450805360387" lon="22.273514895396">
        <ele>5.2</ele>
        <time>2016-01-23T12:02:09Z</time>
      </trkpt>
      <trkpt lat="60.450801672351" lon="22.273517829061">
        <ele>5.2</ele>
        <time>2016-01-23T12:02:10Z</time>
      </trkpt>
      <trkpt lat="60.450801504713" lon="22.273517158509">
        <ele>5.2</ele>
        <time>2016-01-23T12:02:11Z</time>
      </trkpt>
      <trkpt lat="60.450800750342" lon="22.27351875107">
        <ele>5.2</ele>
        <time>2016-01-23T12:02:12Z</time>
      </trkpt>
      <trkpt lat="60.450800163609" lon="22.273520762726">
        <ele>5.2</ele>
        <time>2016-01-23T12:02:13Z</time>
      </trkpt>
      <trkpt lat="60.450793877184" lon="22.273531240101">
        <ele>5.2</ele>
        <time>2016-01-23T12:02:14Z</time>
      </trkpt>
      <trkpt lat="60.450797816677" lon="22.273524953676">
        <ele>5.2</ele>
        <time>2016-01-23T12:02:15Z</time>
      </trkpt>
      <trkpt lat="60.450788093673" lon="22.273528054979">
        <ele>5.2</ele>
        <time>2016-01-23T12:02:16Z</time>
      </trkpt>
      <trkpt lat="60.450792200804" lon="22.27352797116">
        <ele>5.2</ele>
        <time>2016-01-23T12:02:17Z</time>
      </trkpt>
      <trkpt lat="60.450787255483" lon="22.273527049151">
        <ele>5.2</ele>
        <time>2016-01-23T12:02:18Z</time>
      </trkpt>
      <trkpt lat="60.45078750694" lon="22.273525624228">
        <ele>5.2</ele>
        <time>2016-01-23T12:02:19Z</time>
      </trkpt>
      <trkpt lat="60.450788177492" lon="22.273524199305">
        <ele>5.2</ele>
        <time>2016-01-23T12:02:20Z</time>
      </trkpt>
      <trkpt lat="60.450787590759" lon="22.273523696391">
        <ele>5.2</ele>
        <time>2016-01-23T12:02:21Z</time>
      </trkpt>
      <trkpt lat="60.450787590759" lon="22.273523864029">
        <ele>5.2</ele>
        <time>2016-01-23T12:02:22Z</time>
      </trkpt>
      <trkpt lat="60.450787255483" lon="22.27352545659">
        <ele>5.2</ele>
        <time>2016-01-23T12:02:23Z</time>
      </trkpt>
      <trkpt lat="60.450786417293" lon="22.27352545659">
        <ele>5.2</ele>
        <time>2016-01-23T12:02:24Z</time>
      </trkpt>
      <trkpt lat="60.450785914379" lon="22.273524953676">
        <ele>5.2</ele>
        <time>2016-01-23T12:02:25Z</time>
      </trkpt>
      <trkpt lat="60.450784824732" lon="22.273524953676">
        <ele>5.2</ele>
        <time>2016-01-23T12:02:26Z</time>
      </trkpt>
      <trkpt lat="60.450783399809" lon="22.273525791866">
        <ele>5.2</ele>
        <time>2016-01-23T12:02:27Z</time>
      </trkpt>
      <trkpt lat="60.450782226343" lon="22.273528138798">
        <ele>5.2</ele>
        <time>2016-01-23T12:02:28Z</time>
      </trkpt>
      <trkpt lat="60.450781388153" lon="22.273529815178">
        <ele>5.2</ele>
        <time>2016-01-23T12:02:29Z</time>
      </trkpt>
      <trkpt lat="60.450780885239" lon="22.273531743015">
        <ele>5.2</ele>
        <time>2016-01-23T12:02:30Z</time>
      </trkpt>
      <trkpt lat="60.450781052877" lon="22.273532413567">
        <ele>5.2</ele>
        <time>2016-01-23T12:02:31Z</time>
      </trkpt>
      <trkpt lat="60.450781471972" lon="22.273532413567">
        <ele>5.2</ele>
        <time>2016-01-23T12:02:32Z</time>
      </trkpt>
      <trkpt lat="60.450782058705" lon="22.273532413567">
        <ele>5.2</ele>
        <time>2016-01-23T12:02:33Z</time>
      </trkpt>
      <trkpt lat="60.450782226343" lon="22.273533167938">
        <ele>5.2</ele>
        <time>2016-01-23T12:02:34Z</time>
      </trkpt>
      <trkpt lat="60.450782393981" lon="22.273534006128">
        <ele>5.2</ele>
        <time>2016-01-23T12:02:35Z</time>
      </trkpt>
      <trkpt lat="60.450782813076" lon="22.273534844318">
        <ele>5.2</ele>
        <time>2016-01-23T12:02:36Z</time>
      </trkpt>
      <trkpt lat="60.450783064533" lon="22.273535431051">
        <ele>5.2</ele>
        <time>2016-01-23T12:02:37Z</time>
      </trkpt>
      <trkpt lat="60.450783399809" lon="22.273535766327">
        <ele>5.2</ele>
        <time>2016-01-23T12:02:38Z</time>
      </trkpt>
      <trkpt lat="60.450783567447" lon="22.273535933965">
        <ele>5.2</ele>
        <time>2016-01-23T12:02:39Z</time>
      </trkpt>
      <trkpt lat="60.450784824732" lon="22.273535347232">
        <ele>5.2</ele>
        <time>2016-01-23T12:02:40Z</time>
      </trkpt>
      <trkpt lat="60.450785998198" lon="22.273534928137">
        <ele>5.2</ele>
        <time>2016-01-23T12:02:41Z</time>
      </trkpt>
      <trkpt lat="60.45078666875" lon="22.27353635306">
        <ele>5.2</ele>
        <time>2016-01-23T12:02:42Z</time>
      </trkpt>
      <trkpt lat="60.45078666875" lon="22.273539538182">
        <ele>5.2</ele>
        <time>2016-01-23T12:02:43Z</time>
      </trkpt>
      <trkpt lat="60.450785746741" lon="22.273543142399">
        <ele>5.2</ele>
        <time>2016-01-23T12:02:44Z</time>
      </trkpt>
      <trkpt lat="60.450785579103" lon="22.273544567322">
        <ele>5.2</ele>
        <time>2016-01-23T12:02:45Z</time>
      </trkpt>
      <trkpt lat="60.450785495284" lon="22.273544232046">
        <ele>5.2</ele>
        <time>2016-01-23T12:02:46Z</time>
      </trkpt>
      <trkpt lat="60.450784908551" lon="22.273544399684">
        <ele>5.2</ele>
        <time>2016-01-23T12:02:47Z</time>
      </trkpt>
      <trkpt lat="60.450785411465" lon="22.273543310037">
        <ele>5.2</ele>
        <time>2016-01-23T12:02:48Z</time>
      </trkpt>
      <trkpt lat="60.450785914379" lon="22.273542136571">
        <ele>5.2</ele>
        <time>2016-01-23T12:02:49Z</time>
      </trkpt>
      <trkpt lat="60.450786165836" lon="22.273541633657">
        <ele>5.2</ele>
        <time>2016-01-23T12:02:50Z</time>
      </trkpt>
      <trkpt lat="60.450785998198" lon="22.273542136571">
        <ele>5.2</ele>
        <time>2016-01-23T12:02:51Z</time>
      </trkpt>
      <trkpt lat="60.450786165836" lon="22.273541214562">
        <ele>5.2</ele>
        <time>2016-01-23T12:02:52Z</time>
      </trkpt>
      <trkpt lat="60.450786249655" lon="22.273541214562">
        <ele>5.2</ele>
        <time>2016-01-23T12:02:53Z</time>
      </trkpt>
      <trkpt lat="60.450787423121" lon="22.273540292553">
        <ele>5.2</ele>
        <time>2016-01-23T12:02:54Z</time>
      </trkpt>
      <trkpt lat="60.450788177492" lon="22.273538197078">
        <ele>5.2</ele>
        <time>2016-01-23T12:02:55Z</time>
      </trkpt>
      <trkpt lat="60.450788093673" lon="22.273537442707">
        <ele>5.2</ele>
        <time>2016-01-23T12:02:56Z</time>
      </trkpt>
      <trkpt lat="60.450787171664" lon="22.273539789639">
        <ele>5.2</ele>
        <time>2016-01-23T12:02:57Z</time>
      </trkpt>
      <trkpt lat="60.450787590759" lon="22.273542639485">
        <ele>5.2</ele>
        <time>2016-01-23T12:02:58Z</time>
      </trkpt>
      <trkpt lat="60.450788596587" lon="22.273557223991">
        <ele>5.2</ele>
        <time>2016-01-23T12:02:59Z</time>
      </trkpt>
      <trkpt lat="60.450782813076" lon="22.273559906199">
        <ele>5.2</ele>
        <time>2016-01-23T12:03:00Z</time>
      </trkpt>
      <trkpt lat="60.450786417293" lon="22.273556301982">
        <ele>5.2</ele>
        <time>2016-01-23T12:03:01Z</time>
      </trkpt>
      <trkpt lat="60.450775604642" lon="22.273555966706">
        <ele>5.2</ele>
        <time>2016-01-23T12:03:02Z</time>
      </trkpt>
      <trkpt lat="60.450779208859" lon="22.273558565095">
        <ele>5.4</ele>
        <time>2016-01-23T12:03:03Z</time>
      </trkpt>
      <trkpt lat="60.450775856099" lon="22.273555128516">
        <ele>5.8</ele>
        <time>2016-01-23T12:03:04Z</time>
      </trkpt>
      <trkpt lat="60.450775520823" lon="22.273551356661">
        <ele>5.8</ele>
        <time>2016-01-23T12:03:05Z</time>
      </trkpt>
      <trkpt lat="60.45077661047" lon="22.273551943394">
        <ele>5.6</ele>
        <time>2016-01-23T12:03:06Z</time>
      </trkpt>
      <trkpt lat="60.45077912504" lon="22.27355730781">
        <ele>5.4</ele>
        <time>2016-01-23T12:03:07Z</time>
      </trkpt>
      <trkpt lat="60.450781220515" lon="22.273559738561">
        <ele>5.2</ele>
        <time>2016-01-23T12:03:08Z</time>
      </trkpt>
      <trkpt lat="60.4507824778" lon="22.273557726905">
        <ele>4.8</ele>
        <time>2016-01-23T12:03:09Z</time>
      </trkpt>
      <trkpt lat="60.450782393981" lon="22.273557559267">
        <ele>4.8</ele>
        <time>2016-01-23T12:03:10Z</time>
      </trkpt>
      <trkpt lat="60.450782310162" lon="22.273559151828">
        <ele>4.8</ele>
        <time>2016-01-23T12:03:11Z</time>
      </trkpt>
      <trkpt lat="60.450781471972" lon="22.273558816552">
        <ele>4.8</ele>
        <time>2016-01-23T12:03:12Z</time>
      </trkpt>
      <trkpt lat="60.450782645438" lon="22.273558313638">
        <ele>4.8</ele>
        <time>2016-01-23T12:03:13Z</time>
      </trkpt>
      <trkpt lat="60.450784657094" lon="22.273556553439">
        <ele>4.8</ele>
        <time>2016-01-23T12:03:14Z</time>
      </trkpt>
      <trkpt lat="60.450786584931" lon="22.273555044697">
        <ele>4.8</ele>
        <time>2016-01-23T12:03:15Z</time>
      </trkpt>
      <trkpt lat="60.450789350958" lon="22.273554625602">
        <ele>4.8</ele>
        <time>2016-01-23T12:03:16Z</time>
      </trkpt>
      <trkpt lat="60.4507908597" lon="22.273553368317">
        <ele>4.8</ele>
        <time>2016-01-23T12:03:17Z</time>
      </trkpt>
      <trkpt lat="60.450789602415" lon="22.273553619774">
        <ele>4.8</ele>
        <time>2016-01-23T12:03:18Z</time>
      </trkpt>
      <trkpt lat="60.450788009854" lon="22.27355395505">
        <ele>4.8</ele>
        <time>2016-01-23T12:03:19Z</time>
      </trkpt>
      <trkpt lat="60.450786752569" lon="22.273555463792">
        <ele>4.8</ele>
        <time>2016-01-23T12:03:20Z</time>
      </trkpt>
      <trkpt lat="60.450786249655" lon="22.273557391629">
        <ele>4.8</ele>
        <time>2016-01-23T12:03:21Z</time>
      </trkpt>
      <trkpt lat="60.450784908551" lon="22.273557894543">
        <ele>4.8</ele>
        <time>2016-01-23T12:03:22Z</time>
      </trkpt>
      <trkpt lat="60.450783986542" lon="22.273559990018">
        <ele>4.8</ele>
        <time>2016-01-23T12:03:23Z</time>
      </trkpt>
      <trkpt lat="60.45078499237" lon="22.273561163484">
        <ele>4.8</ele>
        <time>2016-01-23T12:03:24Z</time>
      </trkpt>
      <trkpt lat="60.450792787537" lon="22.273564683882">
        <ele>4.8</ele>
        <time>2016-01-23T12:03:25Z</time>
      </trkpt>
      <trkpt lat="60.450799073962" lon="22.273568120461">
        <ele>4.8</ele>
        <time>2016-01-23T12:03:26Z</time>
      </trkpt>
      <trkpt lat="60.450801337075" lon="22.273577843465">
        <ele>4.8</ele>
        <time>2016-01-23T12:03:27Z</time>
      </trkpt>
      <trkpt lat="60.450797649039" lon="22.273571389402">
        <ele>4.8</ele>
        <time>2016-01-23T12:03:28Z</time>
      </trkpt>
      <trkpt lat="60.450801923808" lon="22.273580693311">
        <ele>4.8</ele>
        <time>2016-01-23T12:03:29Z</time>
      </trkpt>
      <trkpt lat="60.450801672351" lon="22.273581196225">
        <ele>4.8</ele>
        <time>2016-01-23T12:03:30Z</time>
      </trkpt>
      <trkpt lat="60.450802259084" lon="22.273581950596">
        <ele>4.8</ele>
        <time>2016-01-23T12:03:31Z</time>
      </trkpt>
      <trkpt lat="60.450802761998" lon="22.273582956424">
        <ele>4.8</ele>
        <time>2016-01-23T12:03:32Z</time>
      </trkpt>
      <trkpt lat="60.450803684007" lon="22.273583710795">
        <ele>4.8</ele>
        <time>2016-01-23T12:03:33Z</time>
      </trkpt>
      <trkpt lat="60.450804773654" lon="22.273584213709">
        <ele>4.8</ele>
        <time>2016-01-23T12:03:34Z</time>
      </trkpt>
      <trkpt lat="60.450805695663" lon="22.273584548985">
        <ele>4.8</ele>
        <time>2016-01-23T12:03:35Z</time>
      </trkpt>
      <trkpt lat="60.450806366215" lon="22.273584800442">
        <ele>4.8</ele>
        <time>2016-01-23T12:03:36Z</time>
      </trkpt>
      <trkpt lat="60.450807455862" lon="22.273584632804">
        <ele>4.8</ele>
        <time>2016-01-23T12:03:37Z</time>
      </trkpt>
      <trkpt lat="60.45080846169" lon="22.273584632804">
        <ele>4.8</ele>
        <time>2016-01-23T12:03:38Z</time>
      </trkpt>
      <trkpt lat="60.450809216061" lon="22.27358496808">
        <ele>4.8</ele>
        <time>2016-01-23T12:03:39Z</time>
      </trkpt>
      <trkpt lat="60.450810221889" lon="22.273585470994">
        <ele>4.8</ele>
        <time>2016-01-23T12:03:40Z</time>
      </trkpt>
      <trkpt lat="60.450810892441" lon="22.273585470994">
        <ele>4.8</ele>
        <time>2016-01-23T12:03:41Z</time>
      </trkpt>
      <trkpt lat="60.450816508314" lon="22.273570467393">
        <ele>4.8</ele>
        <time>2016-01-23T12:03:42Z</time>
      </trkpt>
      <trkpt lat="60.450813155554" lon="22.273579519845">
        <ele>4.8</ele>
        <time>2016-01-23T12:03:43Z</time>
      </trkpt>
      <trkpt lat="60.450819777255" lon="22.273571808497">
        <ele>4.8</ele>
        <time>2016-01-23T12:03:44Z</time>
      </trkpt>
      <trkpt lat="60.450822459463" lon="22.273571137945">
        <ele>4.8</ele>
        <time>2016-01-23T12:03:45Z</time>
      </trkpt>
      <trkpt lat="60.45082354911" lon="22.273570970307">
        <ele>4.8</ele>
        <time>2016-01-23T12:03:46Z</time>
      </trkpt>
      <trkpt lat="60.4508243873" lon="22.273569713022">
        <ele>4.8</ele>
        <time>2016-01-23T12:03:47Z</time>
      </trkpt>
      <trkpt lat="60.450825476947" lon="22.273569126289">
        <ele>4.8</ele>
        <time>2016-01-23T12:03:48Z</time>
      </trkpt>
      <trkpt lat="60.450826398956" lon="22.273566863176">
        <ele>4.8</ele>
        <time>2016-01-23T12:03:49Z</time>
      </trkpt>
      <trkpt lat="60.450826650413" lon="22.273565605891">
        <ele>4.8</ele>
        <time>2016-01-23T12:03:50Z</time>
      </trkpt>
      <trkpt lat="60.45082690187" lon="22.273565102977">
        <ele>4.8</ele>
        <time>2016-01-23T12:03:51Z</time>
      </trkpt>
      <trkpt lat="60.450827404784" lon="22.273564432425">
        <ele>4.8</ele>
        <time>2016-01-23T12:03:52Z</time>
      </trkpt>
      <trkpt lat="60.450828242974" lon="22.273566108805">
        <ele>4.8</ele>
        <time>2016-01-23T12:03:53Z</time>
      </trkpt>
      <trkpt lat="60.45082941644" lon="22.273568036642">
        <ele>4.8</ele>
        <time>2016-01-23T12:03:54Z</time>
      </trkpt>
      <trkpt lat="60.45083025463" lon="22.273567533728">
        <ele>4.8</ele>
        <time>2016-01-23T12:03:55Z</time>
      </trkpt>
      <trkpt lat="60.450830422268" lon="22.273567114633">
        <ele>4.8</ele>
        <time>2016-01-23T12:03:56Z</time>
      </trkpt>
      <trkpt lat="60.450830673725" lon="22.273565019158">
        <ele>4.8</ele>
        <time>2016-01-23T12:03:57Z</time>
      </trkpt>
      <trkpt lat="60.450830086992" lon="22.273565102977">
        <ele>4.8</ele>
        <time>2016-01-23T12:03:58Z</time>
      </trkpt>
      <trkpt lat="60.450838971806" lon="22.273562756045">
        <ele>4.8</ele>
        <time>2016-01-23T12:03:59Z</time>
      </trkpt>
      <trkpt lat="60.450842156928" lon="22.273568623375">
        <ele>4.8</ele>
        <time>2016-01-23T12:04:00Z</time>
      </trkpt>
      <trkpt lat="60.450854143045" lon="22.273564180968">
        <ele>4.8</ele>
        <time>2016-01-23T12:04:01Z</time>
      </trkpt>
      <trkpt lat="60.4508662968" lon="22.27356736609">
        <ele>4.8</ele>
        <time>2016-01-23T12:04:02Z</time>
      </trkpt>
      <trkpt lat="60.450878282917" lon="22.273576083266">
        <ele>4.8</ele>
        <time>2016-01-23T12:04:03Z</time>
      </trkpt>
      <trkpt lat="60.450900159676" lon="22.273606677201">
        <ele>4.8</ele>
        <time>2016-01-23T12:04:04Z</time>
      </trkpt>
      <trkpt lat="60.450917677847" lon="22.273618747137">
        <ele>4.8</ele>
        <time>2016-01-23T12:04:05Z</time>
      </trkpt>
      <trkpt lat="60.450938632597" lon="22.273640456258">
        <ele>4.8</ele>
        <time>2016-01-23T12:04:06Z</time>
      </trkpt>
      <trkpt lat="60.450961599003" lon="22.273664009397">
        <ele>4.8</ele>
        <time>2016-01-23T12:04:07Z</time>
      </trkpt>
      <trkpt lat="60.450983727219" lon="22.273667529795">
        <ele>4.8</ele>
        <time>2016-01-23T12:04:08Z</time>
      </trkpt>
      <trkpt lat="60.451004514331" lon="22.273692843133">
        <ele>4.8</ele>
        <time>2016-01-23T12:04:09Z</time>
      </trkpt>
      <trkpt lat="60.451034018619" lon="22.273727879475">
        <ele>4.8</ele>
        <time>2016-01-23T12:04:10Z</time>
      </trkpt>
      <trkpt lat="60.451056985025" lon="22.273742715438">
        <ele>4.8</ele>
        <time>2016-01-23T12:04:11Z</time>
      </trkpt>
      <trkpt lat="60.45107835887" lon="22.273753947184">
        <ele>4.8</ele>
        <time>2016-01-23T12:04:12Z</time>
      </trkpt>
      <trkpt lat="60.451119681637" lon="22.273785127852">
        <ele>4.8</ele>
        <time>2016-01-23T12:04:13Z</time>
      </trkpt>
      <trkpt lat="60.45114876683" lon="22.273787642422">
        <ele>4.8</ele>
        <time>2016-01-23T12:04:14Z</time>
      </trkpt>
      <trkpt lat="60.451168631933" lon="22.273808597172">
        <ele>4.8</ele>
        <time>2016-01-23T12:04:15Z</time>
      </trkpt>
      <trkpt lat="60.451203500637" lon="22.2738347487">
        <ele>4.8</ele>
        <time>2016-01-23T12:04:16Z</time>
      </trkpt>
      <trkpt lat="60.451229903622" lon="22.273848075921">
        <ele>4.8</ele>
        <time>2016-01-23T12:04:17Z</time>
      </trkpt>
      <trkpt lat="60.451257396254" lon="22.273878250761">
        <ele>4.8</ele>
        <time>2016-01-23T12:04:18Z</time>
      </trkpt>
      <trkpt lat="60.45128622999" lon="22.273916136949">
        <ele>4.8</ele>
        <time>2016-01-23T12:04:19Z</time>
      </trkpt>
      <trkpt lat="60.451313387346" lon="22.273927620152">
        <ele>4.8</ele>
        <time>2016-01-23T12:04:20Z</time>
      </trkpt>
      <trkpt lat="60.451339622693" lon="22.273949329273">
        <ele>4.8</ele>
        <time>2016-01-23T12:04:21Z</time>
      </trkpt>
      <trkpt lat="60.451376083958" lon="22.273979839389">
        <ele>4.8</ele>
        <time>2016-01-23T12:04:22Z</time>
      </trkpt>
      <trkpt lat="60.451402486943" lon="22.27400154851">
        <ele>4.8</ele>
        <time>2016-01-23T12:04:23Z</time>
      </trkpt>
      <trkpt lat="60.45142620772" lon="22.274022670898">
        <ele>4.8</ele>
        <time>2016-01-23T12:04:24Z</time>
      </trkpt>
      <trkpt lat="60.451449509402" lon="22.274043290372">
        <ele>4.8</ele>
        <time>2016-01-23T12:04:25Z</time>
      </trkpt>
      <trkpt lat="60.451489658703" lon="22.274085618967">
        <ele>4.8</ele>
        <time>2016-01-23T12:04:27Z</time>
      </trkpt>
      <trkpt lat="60.451487898504" lon="22.274102634224">
        <ele>4.8</ele>
        <time>2016-01-23T12:04:28Z</time>
      </trkpt>
      <trkpt lat="60.451485551572" lon="22.274088133537">
        <ele>4.8</ele>
        <time>2016-01-23T12:04:29Z</time>
      </trkpt>
      <trkpt lat="60.451486054486" lon="22.274099197645">
        <ele>4.8</ele>
        <time>2016-01-23T12:04:30Z</time>
      </trkpt>
      <trkpt lat="60.451485551572" lon="22.274097856541">
        <ele>4.8</ele>
        <time>2016-01-23T12:04:31Z</time>
      </trkpt>
      <trkpt lat="60.451486305943" lon="22.274095258152">
        <ele>4.8</ele>
        <time>2016-01-23T12:04:32Z</time>
      </trkpt>
      <trkpt lat="60.451486976495" lon="22.274093246496">
        <ele>4.8</ele>
        <time>2016-01-23T12:04:33Z</time>
      </trkpt>
      <trkpt lat="60.451486892676" lon="22.274090648107">
        <ele>4.8</ele>
        <time>2016-01-23T12:04:34Z</time>
      </trkpt>
      <trkpt lat="60.451485886848" lon="22.274089307003">
        <ele>4.8</ele>
        <time>2016-01-23T12:04:35Z</time>
      </trkpt>
      <trkpt lat="60.451485383934" lon="22.274090815745">
        <ele>4.8</ele>
        <time>2016-01-23T12:04:36Z</time>
      </trkpt>
      <trkpt lat="60.45148488102" lon="22.274092492125">
        <ele>4.8</ele>
        <time>2016-01-23T12:04:37Z</time>
      </trkpt>
      <trkpt lat="60.451482282631" lon="22.274094000867">
        <ele>4.8</ele>
        <time>2016-01-23T12:04:38Z</time>
      </trkpt>
      <trkpt lat="60.451474487464" lon="22.274081679474">
        <ele>4.8</ele>
        <time>2016-01-23T12:04:39Z</time>
      </trkpt>
      <trkpt lat="60.451469709781" lon="22.274079416361">
        <ele>4.8</ele>
        <time>2016-01-23T12:04:40Z</time>
      </trkpt>
      <trkpt lat="60.451472643446" lon="22.274084361682">
        <ele>4.8</ele>
        <time>2016-01-23T12:04:41Z</time>
      </trkpt>
      <trkpt lat="60.451464261546" lon="22.274082098569">
        <ele>4.8</ele>
        <time>2016-01-23T12:04:42Z</time>
      </trkpt>
      <trkpt lat="60.451454203266" lon="22.274068855167">
        <ele>4.8</ele>
        <time>2016-01-23T12:04:43Z</time>
      </trkpt>
      <trkpt lat="60.451447833022" lon="22.27406692733">
        <ele>4.8</ele>
        <time>2016-01-23T12:04:44Z</time>
      </trkpt>
      <trkpt lat="60.451435763086" lon="22.274066256778">
        <ele>4.4</ele>
        <time>2016-01-23T12:04:45Z</time>
      </trkpt>
      <trkpt lat="60.451419250743" lon="22.274047565141">
        <ele>3</ele>
        <time>2016-01-23T12:04:46Z</time>
      </trkpt>
      <trkpt lat="60.451405336789" lon="22.27403004697">
        <ele>2.8</ele>
        <time>2016-01-23T12:04:47Z</time>
      </trkpt>
      <trkpt lat="60.451388321532" lon="22.274025520744">
        <ele>3.2</ele>
        <time>2016-01-23T12:04:48Z</time>
      </trkpt>
      <trkpt lat="60.45135915252" lon="22.273995848818">
        <ele>3.8</ele>
        <time>2016-01-23T12:04:49Z</time>
      </trkpt>
      <trkpt lat="60.45133400682" lon="22.273985287624">
        <ele>4.2</ele>
        <time>2016-01-23T12:04:50Z</time>
      </trkpt>
      <trkpt lat="60.451316237192" lon="22.273961399209">
        <ele>4.6</ele>
        <time>2016-01-23T12:04:51Z</time>
      </trkpt>
      <trkpt lat="60.451291845863" lon="22.273937678432">
        <ele>5</ele>
        <time>2016-01-23T12:04:52Z</time>
      </trkpt>
      <trkpt lat="60.451275249701" lon="22.273933990396">
        <ele>5</ele>
        <time>2016-01-23T12:04:53Z</time>
      </trkpt>
      <trkpt lat="60.451243733757" lon="22.27390012752">
        <ele>5</ele>
        <time>2016-01-23T12:04:54Z</time>
      </trkpt>
      <trkpt lat="60.451225545034" lon="22.273891997077">
        <ele>5</ele>
        <time>2016-01-23T12:04:55Z</time>
      </trkpt>
      <trkpt lat="60.451200315515" lon="22.273874646544">
        <ele>5</ele>
        <time>2016-01-23T12:04:56Z</time>
      </trkpt>
      <trkpt lat="60.451190173416" lon="22.27384983612">
        <ele>5</ele>
        <time>2016-01-23T12:04:57Z</time>
      </trkpt>
      <trkpt lat="60.451191682158" lon="22.273836592718">
        <ele>5</ele>
        <time>2016-01-23T12:04:58Z</time>
      </trkpt>
      <trkpt lat="60.451195873108" lon="22.27383055775">
        <ele>5</ele>
        <time>2016-01-23T12:04:59Z</time>
      </trkpt>
      <trkpt lat="60.451199728782" lon="22.273827372628">
        <ele>5</ele>
        <time>2016-01-23T12:05:00Z</time>
      </trkpt>
      <trkpt lat="60.451195873108" lon="22.273830306293">
        <ele>5</ele>
        <time>2016-01-23T12:05:01Z</time>
      </trkpt>
      <trkpt lat="60.451200399334" lon="22.273829132827">
        <ele>5</ele>
        <time>2016-01-23T12:05:02Z</time>
      </trkpt>
      <trkpt lat="60.45120241099" lon="22.273826869714">
        <ele>5</ele>
        <time>2016-01-23T12:05:03Z</time>
      </trkpt>
      <trkpt lat="60.451202494809" lon="22.273824271325">
        <ele>5</ele>
        <time>2016-01-23T12:05:04Z</time>
      </trkpt>
      <trkpt lat="60.451201991895" lon="22.273823516954">
        <ele>5</ele>
        <time>2016-01-23T12:05:05Z</time>
      </trkpt>
      <trkpt lat="60.451203416818" lon="22.27382385223">
        <ele>5</ele>
        <time>2016-01-23T12:05:06Z</time>
      </trkpt>
      <trkpt lat="60.451206182845" lon="22.27383810146">
        <ele>5</ele>
        <time>2016-01-23T12:05:07Z</time>
      </trkpt>
      <trkpt lat="60.451210122338" lon="22.273843465876">
        <ele>5</ele>
        <time>2016-01-23T12:05:08Z</time>
      </trkpt>
      <trkpt lat="60.451207607768" lon="22.273836844175">
        <ele>5</ele>
        <time>2016-01-23T12:05:09Z</time>
      </trkpt>
      <trkpt lat="60.451210373795" lon="22.273849249387">
        <ele>5</ele>
        <time>2016-01-23T12:05:10Z</time>
      </trkpt>
      <trkpt lat="60.451211379623" lon="22.273851931595">
        <ele>5</ele>
        <time>2016-01-23T12:05:11Z</time>
      </trkpt>
      <trkpt lat="60.451212888365" lon="22.273853524156">
        <ele>5</ele>
        <time>2016-01-23T12:05:12Z</time>
      </trkpt>
      <trkpt lat="60.451213056003" lon="22.273856457821">
        <ele>5</ele>
        <time>2016-01-23T12:05:13Z</time>
      </trkpt>
      <trkpt lat="60.451212972184" lon="22.273858469477">
        <ele>5</ele>
        <time>2016-01-23T12:05:14Z</time>
      </trkpt>
      <trkpt lat="60.451213475098" lon="22.273858134201">
        <ele>5</ele>
        <time>2016-01-23T12:05:15Z</time>
      </trkpt>
      <trkpt lat="60.451212720727" lon="22.273858637115">
        <ele>5</ele>
        <time>2016-01-23T12:05:16Z</time>
      </trkpt>
      <trkpt lat="60.451213056003" lon="22.273859559124">
        <ele>5</ele>
        <time>2016-01-23T12:05:17Z</time>
      </trkpt>
      <trkpt lat="60.45121414565" lon="22.273860900228">
        <ele>5</ele>
        <time>2016-01-23T12:05:18Z</time>
      </trkpt>
      <trkpt lat="60.451214313288" lon="22.273861906056">
        <ele>5</ele>
        <time>2016-01-23T12:05:19Z</time>
      </trkpt>
      <trkpt lat="60.451214648564" lon="22.273861067866">
        <ele>5</ele>
        <time>2016-01-23T12:05:20Z</time>
      </trkpt>
      <trkpt lat="60.451220096799" lon="22.27386576173">
        <ele>5</ele>
        <time>2016-01-23T12:05:21Z</time>
      </trkpt>
      <trkpt lat="60.451216911677" lon="22.273861822237">
        <ele>5</ele>
        <time>2016-01-23T12:05:22Z</time>
      </trkpt>
      <trkpt lat="60.451224287749" lon="22.27387330544">
        <ele>5</ele>
        <time>2016-01-23T12:05:23Z</time>
      </trkpt>
      <trkpt lat="60.451221186446" lon="22.273870958508">
        <ele>5</ele>
        <time>2016-01-23T12:05:24Z</time>
      </trkpt>
      <trkpt lat="60.451230574174" lon="22.273878586037">
        <ele>5</ele>
        <time>2016-01-23T12:05:25Z</time>
      </trkpt>
      <trkpt lat="60.451235603314" lon="22.273881100607">
        <ele>5</ele>
        <time>2016-01-23T12:05:26Z</time>
      </trkpt>
      <trkpt lat="60.451253037666" lon="22.273889817783">
        <ele>5</ele>
        <time>2016-01-23T12:05:27Z</time>
      </trkpt>
      <trkpt lat="60.45126443705" lon="22.273905911031">
        <ele>5</ele>
        <time>2016-01-23T12:05:28Z</time>
      </trkpt>
      <trkpt lat="60.451288660741" lon="22.273920495537">
        <ele>5</ele>
        <time>2016-01-23T12:05:29Z</time>
      </trkpt>
      <trkpt lat="60.451314057898" lon="22.273904653746">
        <ele>5</ele>
        <time>2016-01-23T12:05:30Z</time>
      </trkpt>
      <trkpt lat="60.451341047616" lon="22.273911945999">
        <ele>5</ele>
        <time>2016-01-23T12:05:31Z</time>
      </trkpt>
      <trkpt lat="60.451368288791" lon="22.273931392007">
        <ele>5</ele>
        <time>2016-01-23T12:05:32Z</time>
      </trkpt>
      <trkpt lat="60.451403325133" lon="22.273961650666">
        <ele>5</ele>
        <time>2016-01-23T12:05:33Z</time>
      </trkpt>
      <trkpt lat="60.451437439466" lon="22.273985119986">
        <ele>5</ele>
        <time>2016-01-23T12:05:34Z</time>
      </trkpt>
      <trkpt lat="60.451470212695" lon="22.274012696437">
        <ele>4.6</ele>
        <time>2016-01-23T12:05:35Z</time>
      </trkpt>
      <trkpt lat="60.451495274576" lon="22.274037087766">
        <ele>4</ele>
        <time>2016-01-23T12:05:36Z</time>
      </trkpt>
      <trkpt lat="60.451518324801" lon="22.274066759692">
        <ele>3.6</ele>
        <time>2016-01-23T12:05:37Z</time>
      </trkpt>
      <trkpt lat="60.451540955931" lon="22.274093917048">
        <ele>3.6</ele>
        <time>2016-01-23T12:05:38Z</time>
      </trkpt>
      <trkpt lat="60.451556630084" lon="22.274113195418">
        <ele>4</ele>
        <time>2016-01-23T12:05:39Z</time>
      </trkpt>
      <trkpt lat="60.451567442735" lon="22.274132809064">
        <ele>4.2</ele>
        <time>2016-01-23T12:05:40Z</time>
      </trkpt>
      <trkpt lat="60.451577501015" lon="22.274144124629">
        <ele>4.4</ele>
        <time>2016-01-23T12:05:41Z</time>
      </trkpt>
      <trkpt lat="60.45158211106" lon="22.274144208448">
        <ele>4.8</ele>
        <time>2016-01-23T12:05:42Z</time>
      </trkpt>
      <trkpt lat="60.451584457992" lon="22.274151668339">
        <ele>4.8</ele>
        <time>2016-01-23T12:05:43Z</time>
      </trkpt>
      <trkpt lat="60.451589235675" lon="22.274154602004">
        <ele>4.8</ele>
        <time>2016-01-23T12:05:44Z</time>
      </trkpt>
      <trkpt lat="60.451591750245" lon="22.274165498474">
        <ele>4.8</ele>
        <time>2016-01-23T12:05:45Z</time>
      </trkpt>
      <trkpt lat="60.451597617575" lon="22.274169102691">
        <ele>4.8</ele>
        <time>2016-01-23T12:05:46Z</time>
      </trkpt>
      <trkpt lat="60.451598371946" lon="22.274187207595">
        <ele>4.8</ele>
        <time>2016-01-23T12:05:47Z</time>
      </trkpt>
      <trkpt lat="60.451596444109" lon="22.274174970021">
        <ele>4.8</ele>
        <time>2016-01-23T12:05:48Z</time>
      </trkpt>
      <trkpt lat="60.451597785213" lon="22.27419181764">
        <ele>4.8</ele>
        <time>2016-01-23T12:05:49Z</time>
      </trkpt>
      <trkpt lat="60.451596611747" lon="22.274193410201">
        <ele>4.8</ele>
        <time>2016-01-23T12:05:50Z</time>
      </trkpt>
      <trkpt lat="60.451597785213" lon="22.274193242563">
        <ele>4.8</ele>
        <time>2016-01-23T12:05:51Z</time>
      </trkpt>
      <trkpt lat="60.451597869032" lon="22.274190308898">
        <ele>4.8</ele>
        <time>2016-01-23T12:05:52Z</time>
      </trkpt>
      <trkpt lat="60.451596863204" lon="22.274186369405">
        <ele>4.8</ele>
        <time>2016-01-23T12:05:53Z</time>
      </trkpt>
      <trkpt lat="60.451587643114" lon="22.274176814039">
        <ele>4.8</ele>
        <time>2016-01-23T12:05:54Z</time>
      </trkpt>
      <trkpt lat="60.451581859603" lon="22.274177400772">
        <ele>4.8</ele>
        <time>2016-01-23T12:05:55Z</time>
      </trkpt>
      <trkpt lat="60.451570795495" lon="22.274166420483">
        <ele>4.8</ele>
        <time>2016-01-23T12:05:56Z</time>
      </trkpt>
      <trkpt lat="60.451561072491" lon="22.274159631144">
        <ele>4.8</ele>
        <time>2016-01-23T12:05:57Z</time>
      </trkpt>
      <trkpt lat="60.451541542664" lon="22.27413398253">
        <ele>4.8</ele>
        <time>2016-01-23T12:05:58Z</time>
      </trkpt>
      <trkpt lat="60.451516899878" lon="22.27411470416">
        <ele>4.8</ele>
        <time>2016-01-23T12:05:59Z</time>
      </trkpt>
      <trkpt lat="60.451498543517" lon="22.274095258152">
        <ele>4.8</ele>
        <time>2016-01-23T12:06:00Z</time>
      </trkpt>
      <trkpt lat="60.451474906559" lon="22.27406776552">
        <ele>4.8</ele>
        <time>2016-01-23T12:06:01Z</time>
      </trkpt>
      <trkpt lat="60.451450431411" lon="22.274051253177">
        <ele>4.8</ele>
        <time>2016-01-23T12:06:02Z</time>
      </trkpt>
      <trkpt lat="60.451432745602" lon="22.274030968979">
        <ele>4.8</ele>
        <time>2016-01-23T12:06:03Z</time>
      </trkpt>
      <trkpt lat="60.451405588246" lon="22.274002721976">
        <ele>4.8</ele>
        <time>2016-01-23T12:06:04Z</time>
      </trkpt>
      <trkpt lat="60.4513775927" lon="22.274000375044">
        <ele>4.8</ele>
        <time>2016-01-23T12:06:05Z</time>
      </trkpt>
      <trkpt lat="60.451360912719" lon="22.273979923208">
        <ele>4.8</ele>
        <time>2016-01-23T12:06:06Z</time>
      </trkpt>
      <trkpt lat="60.451337024304" lon="22.273960728657">
        <ele>4.8</ele>
        <time>2016-01-23T12:06:07Z</time>
      </trkpt>
      <trkpt lat="60.451318751762" lon="22.273939773907">
        <ele>4.8</ele>
        <time>2016-01-23T12:06:08Z</time>
      </trkpt>
      <trkpt lat="60.451308190568" lon="22.273932900749">
        <ele>4.8</ele>
        <time>2016-01-23T12:06:09Z</time>
      </trkpt>
      <trkpt lat="60.451319003219" lon="22.273945054504">
        <ele>4.8</ele>
        <time>2016-01-23T12:06:10Z</time>
      </trkpt>
      <trkpt lat="60.451306262731" lon="22.273946144151">
        <ele>4.8</ele>
        <time>2016-01-23T12:06:11Z</time>
      </trkpt>
      <trkpt lat="60.451305256903" lon="22.27396466815">
        <ele>5</ele>
        <time>2016-01-23T12:06:12Z</time>
      </trkpt>
      <trkpt lat="60.45130467017" lon="22.273955699517">
        <ele>5</ele>
        <time>2016-01-23T12:06:13Z</time>
      </trkpt>
      <trkpt lat="60.451307687654" lon="22.273969948747">
        <ele>5</ele>
        <time>2016-01-23T12:06:14Z</time>
      </trkpt>
      <trkpt lat="60.451310453681" lon="22.273974894068">
        <ele>5</ele>
        <time>2016-01-23T12:06:15Z</time>
      </trkpt>
      <trkpt lat="60.451313471165" lon="22.273978330647">
        <ele>5</ele>
        <time>2016-01-23T12:06:16Z</time>
      </trkpt>
      <trkpt lat="60.451314560812" lon="22.273979420294">
        <ele>5</ele>
        <time>2016-01-23T12:06:17Z</time>
      </trkpt>
      <trkpt lat="60.451314644631" lon="22.27397891738">
        <ele>5</ele>
        <time>2016-01-23T12:06:18Z</time>
      </trkpt>
      <trkpt lat="60.451315147545" lon="22.27397891738">
        <ele>5</ele>
        <time>2016-01-23T12:06:19Z</time>
      </trkpt>
      <trkpt lat="60.451315650459" lon="22.273978246828">
        <ele>5</ele>
        <time>2016-01-23T12:06:20Z</time>
      </trkpt>
      <trkpt lat="60.451315482821" lon="22.273978498285">
        <ele>5</ele>
        <time>2016-01-23T12:06:21Z</time>
      </trkpt>
      <trkpt lat="60.45131556664" lon="22.273979252656">
        <ele>5</ele>
        <time>2016-01-23T12:06:22Z</time>
      </trkpt>
      <trkpt lat="60.45131724302" lon="22.273980761398">
        <ele>5</ele>
        <time>2016-01-23T12:06:23Z</time>
      </trkpt>
      <trkpt lat="60.451326546929" lon="22.27398981385">
        <ele>5</ele>
        <time>2016-01-23T12:06:24Z</time>
      </trkpt>
      <trkpt lat="60.451341215254" lon="22.273998950121">
        <ele>5</ele>
        <time>2016-01-23T12:06:25Z</time>
      </trkpt>
      <trkpt lat="60.451347920774" lon="22.274001045596">
        <ele>5</ele>
        <time>2016-01-23T12:06:26Z</time>
      </trkpt>
      <trkpt lat="60.451366277135" lon="22.274017809396">
        <ele>5</ele>
        <time>2016-01-23T12:06:27Z</time>
      </trkpt>
      <trkpt lat="60.451380274908" lon="22.274024431097">
        <ele>5</ele>
        <time>2016-01-23T12:06:28Z</time>
      </trkpt>
      <trkpt lat="60.451406761712" lon="22.274033064454">
        <ele>5</ele>
        <time>2016-01-23T12:06:29Z</time>
      </trkpt>
      <trkpt lat="60.451425201892" lon="22.274039686155">
        <ele>5</ele>
        <time>2016-01-23T12:06:30Z</time>
      </trkpt>
      <trkpt lat="60.451444312624" lon="22.274056114679">
        <ele>5</ele>
        <time>2016-01-23T12:06:31Z</time>
      </trkpt>
      <trkpt lat="60.451455125275" lon="22.274068352253">
        <ele>5</ele>
        <time>2016-01-23T12:06:32Z</time>
      </trkpt>
      <trkpt lat="60.45146392627" lon="22.274073046117">
        <ele>5</ele>
        <time>2016-01-23T12:06:33Z</time>
      </trkpt>
      <trkpt lat="60.451466692297" lon="22.274092156849">
        <ele>5</ele>
        <time>2016-01-23T12:06:34Z</time>
      </trkpt>
      <trkpt lat="60.451462417528" lon="22.274099868197">
        <ele>5</ele>
        <time>2016-01-23T12:06:35Z</time>
      </trkpt>
      <trkpt lat="60.451463758632" lon="22.274090815745">
        <ele>5</ele>
        <time>2016-01-23T12:06:36Z</time>
      </trkpt>
      <trkpt lat="60.451460657329" lon="22.274099868197">
        <ele>5</ele>
        <time>2016-01-23T12:06:37Z</time>
      </trkpt>
      <trkpt lat="60.451459316225" lon="22.27410045493">
        <ele>5</ele>
        <time>2016-01-23T12:06:38Z</time>
      </trkpt>
      <trkpt lat="60.451453197438" lon="22.27409626398">
        <ele>5</ele>
        <time>2016-01-23T12:06:39Z</time>
      </trkpt>
      <trkpt lat="60.451445318452" lon="22.274087714442">
        <ele>5</ele>
        <time>2016-01-23T12:06:40Z</time>
      </trkpt>
      <trkpt lat="60.451440708407" lon="22.274087965899">
        <ele>5</ele>
        <time>2016-01-23T12:06:41Z</time>
      </trkpt>
      <trkpt lat="60.451426459177" lon="22.274069274262">
        <ele>5</ele>
        <time>2016-01-23T12:06:42Z</time>
      </trkpt>
      <trkpt lat="60.451418328734" lon="22.274068687529">
        <ele>5</ele>
        <time>2016-01-23T12:06:43Z</time>
      </trkpt>
      <trkpt lat="60.451403911866" lon="22.274049073883">
        <ele>5</ele>
        <time>2016-01-23T12:06:44Z</time>
      </trkpt>
      <trkpt lat="60.451394524138" lon="22.274046391675">
        <ele>5</ele>
        <time>2016-01-23T12:06:45Z</time>
      </trkpt>
      <trkpt lat="60.451380861641" lon="22.274032729178">
        <ele>5</ele>
        <time>2016-01-23T12:06:46Z</time>
      </trkpt>
      <trkpt lat="60.45137172537" lon="22.274022167984">
        <ele>5</ele>
        <time>2016-01-23T12:06:47Z</time>
      </trkpt>
      <trkpt lat="60.451368456429" lon="22.274019569595">
        <ele>5</ele>
        <time>2016-01-23T12:06:48Z</time>
      </trkpt>
      <trkpt lat="60.451371893008" lon="22.274024431097">
        <ele>5</ele>
        <time>2016-01-23T12:06:49Z</time>
      </trkpt>
      <trkpt lat="60.451368288791" lon="22.274011355333">
        <ele>5</ele>
        <time>2016-01-23T12:06:50Z</time>
      </trkpt>
      <trkpt lat="60.451366193316" lon="22.274018396129">
        <ele>5</ele>
        <time>2016-01-23T12:06:51Z</time>
      </trkpt>
      <trkpt lat="60.451363678746" lon="22.274011271514">
        <ele>5</ele>
        <time>2016-01-23T12:06:52Z</time>
      </trkpt>
      <trkpt lat="60.451361164176" lon="22.274012025885">
        <ele>5</ele>
        <time>2016-01-23T12:06:53Z</time>
      </trkpt>
      <trkpt lat="60.451357895235" lon="22.274012947894">
        <ele>5</ele>
        <time>2016-01-23T12:06:54Z</time>
      </trkpt>
      <trkpt lat="60.451356302674" lon="22.274013199351">
        <ele>6</ele>
        <time>2016-01-23T12:06:55Z</time>
      </trkpt>
      <trkpt lat="60.451355045389" lon="22.274013953722">
        <ele>6</ele>
        <time>2016-01-23T12:06:56Z</time>
      </trkpt>
      <trkpt lat="60.451353452828" lon="22.274015211007">
        <ele>6</ele>
        <time>2016-01-23T12:06:57Z</time>
      </trkpt>
      <trkpt lat="60.451352111724" lon="22.274016719749">
        <ele>6</ele>
        <time>2016-01-23T12:06:58Z</time>
      </trkpt>
      <trkpt lat="60.451351776448" lon="22.274015127188">
        <ele>6</ele>
        <time>2016-01-23T12:06:59Z</time>
      </trkpt>
      <trkpt lat="60.451353704285" lon="22.274012193523">
        <ele>6</ele>
        <time>2016-01-23T12:07:00Z</time>
      </trkpt>
      <trkpt lat="60.451354458656" lon="22.2740107686">
        <ele>6</ele>
        <time>2016-01-23T12:07:01Z</time>
      </trkpt>
      <trkpt lat="60.45135328519" lon="22.274010600962">
        <ele>6</ele>
        <time>2016-01-23T12:07:02Z</time>
      </trkpt>
      <trkpt lat="60.451353871923" lon="22.274012528799">
        <ele>6</ele>
        <time>2016-01-23T12:07:03Z</time>
      </trkpt>
      <trkpt lat="60.451353871923" lon="22.274013450808">
        <ele>6</ele>
        <time>2016-01-23T12:07:04Z</time>
      </trkpt>
      <trkpt lat="60.451353871923" lon="22.274016552111">
        <ele>6</ele>
        <time>2016-01-23T12:07:05Z</time>
      </trkpt>
      <trkpt lat="60.451359739253" lon="22.274027280943">
        <ele>6</ele>
        <time>2016-01-23T12:07:06Z</time>
      </trkpt>
      <trkpt lat="60.451356721769" lon="22.274021748889">
        <ele>6</ele>
        <time>2016-01-23T12:07:07Z</time>
      </trkpt>
      <trkpt lat="60.451357895235" lon="22.27402669421">
        <ele>6</ele>
        <time>2016-01-23T12:07:08Z</time>
      </trkpt>
      <trkpt lat="60.451357979054" lon="22.274025269287">
        <ele>6</ele>
        <time>2016-01-23T12:07:09Z</time>
      </trkpt>
      <trkpt lat="60.451358146692" lon="22.274024095821">
        <ele>6</ele>
        <time>2016-01-23T12:07:10Z</time>
      </trkpt>
      <trkpt lat="60.451358817244" lon="22.274023006174">
        <ele>6</ele>
        <time>2016-01-23T12:07:11Z</time>
      </trkpt>
      <trkpt lat="60.451360409805" lon="22.274021916527">
        <ele>6</ele>
        <time>2016-01-23T12:07:12Z</time>
      </trkpt>
      <trkpt lat="60.451361415633" lon="22.274020240147">
        <ele>6</ele>
        <time>2016-01-23T12:07:13Z</time>
      </trkpt>
      <trkpt lat="60.451362253823" lon="22.274020407785">
        <ele>6</ele>
        <time>2016-01-23T12:07:14Z</time>
      </trkpt>
      <trkpt lat="60.451363008194" lon="22.274023006174">
        <ele>6</ele>
        <time>2016-01-23T12:07:15Z</time>
      </trkpt>
      <trkpt lat="60.451363846384" lon="22.274021832708">
        <ele>6</ele>
        <time>2016-01-23T12:07:16Z</time>
      </trkpt>
      <trkpt lat="60.45136501985" lon="22.27401998869">
        <ele>6</ele>
        <time>2016-01-23T12:07:17Z</time>
      </trkpt>
      <trkpt lat="60.451366360954" lon="22.274021916527">
        <ele>6</ele>
        <time>2016-01-23T12:07:18Z</time>
      </trkpt>
      <trkpt lat="60.451367366782" lon="22.274022251803">
        <ele>6</ele>
        <time>2016-01-23T12:07:19Z</time>
      </trkpt>
      <trkpt lat="60.451367702058" lon="22.274021413613">
        <ele>6</ele>
        <time>2016-01-23T12:07:20Z</time>
      </trkpt>
      <trkpt lat="60.45136837261" lon="22.274020910699">
        <ele>6</ele>
        <time>2016-01-23T12:07:21Z</time>
      </trkpt>
      <trkpt lat="60.451369378438" lon="22.274022167984">
        <ele>6</ele>
        <time>2016-01-23T12:07:22Z</time>
      </trkpt>
      <trkpt lat="60.451370468085" lon="22.274023760545">
        <ele>6</ele>
        <time>2016-01-23T12:07:23Z</time>
      </trkpt>
      <trkpt lat="60.451372479741" lon="22.274023257631">
        <ele>6</ele>
        <time>2016-01-23T12:07:24Z</time>
      </trkpt>
      <trkpt lat="60.451382705659" lon="22.274027867676">
        <ele>6</ele>
        <time>2016-01-23T12:07:25Z</time>
      </trkpt>
      <trkpt lat="60.451388656808" lon="22.274028873504">
        <ele>6</ele>
        <time>2016-01-23T12:07:26Z</time>
      </trkpt>
      <trkpt lat="60.451396619613" lon="22.274034573196">
        <ele>6</ele>
        <time>2016-01-23T12:07:27Z</time>
      </trkpt>
      <trkpt lat="60.451401145839" lon="22.274029376418">
        <ele>6</ele>
        <time>2016-01-23T12:07:28Z</time>
      </trkpt>
      <trkpt lat="60.451396954889" lon="22.274029963151">
        <ele>6</ele>
        <time>2016-01-23T12:07:29Z</time>
      </trkpt>
      <trkpt lat="60.451402822219" lon="22.274024012002">
        <ele>6</ele>
        <time>2016-01-23T12:07:30Z</time>
      </trkpt>
      <trkpt lat="60.451403660409" lon="22.274021832708">
        <ele>6</ele>
        <time>2016-01-23T12:07:31Z</time>
      </trkpt>
      <trkpt lat="60.451404498599" lon="22.274019066681">
        <ele>6</ele>
        <time>2016-01-23T12:07:32Z</time>
      </trkpt>
      <trkpt lat="60.451406007341" lon="22.274016552111">
        <ele>6</ele>
        <time>2016-01-23T12:07:33Z</time>
      </trkpt>
      <trkpt lat="60.451406594074" lon="22.274014205179">
        <ele>6</ele>
        <time>2016-01-23T12:07:34Z</time>
      </trkpt>
      <trkpt lat="60.451406845531" lon="22.274011439152">
        <ele>6</ele>
        <time>2016-01-23T12:07:35Z</time>
      </trkpt>
      <trkpt lat="60.451406342617" lon="22.274010014229">
        <ele>6</ele>
        <time>2016-01-23T12:07:36Z</time>
      </trkpt>
      <trkpt lat="60.451405923522" lon="22.274008337849">
        <ele>6</ele>
        <time>2016-01-23T12:07:37Z</time>
      </trkpt>
      <trkpt lat="60.451406342617" lon="22.274004733632">
        <ele>6</ele>
        <time>2016-01-23T12:07:38Z</time>
      </trkpt>
      <trkpt lat="60.451407264626" lon="22.274000291225">
        <ele>6</ele>
        <time>2016-01-23T12:07:39Z</time>
      </trkpt>
      <trkpt lat="60.451408186635" lon="22.273995513542">
        <ele>6</ele>
        <time>2016-01-23T12:07:40Z</time>
      </trkpt>
      <trkpt lat="60.451408857187" lon="22.273990065307">
        <ele>6</ele>
        <time>2016-01-23T12:07:41Z</time>
      </trkpt>
      <trkpt lat="60.451409695377" lon="22.273984700891">
        <ele>6</ele>
        <time>2016-01-23T12:07:42Z</time>
      </trkpt>
      <trkpt lat="60.451411371757" lon="22.27397975557">
        <ele>6</ele>
        <time>2016-01-23T12:07:43Z</time>
      </trkpt>
      <trkpt lat="60.451412209947" lon="22.27397472643">
        <ele>6</ele>
        <time>2016-01-23T12:07:44Z</time>
      </trkpt>
      <trkpt lat="60.451412545223" lon="22.273970367842">
        <ele>6</ele>
        <time>2016-01-23T12:07:45Z</time>
      </trkpt>
      <trkpt lat="60.451414053965" lon="22.273966931263">
        <ele>6</ele>
        <time>2016-01-23T12:07:46Z</time>
      </trkpt>
      <trkpt lat="60.451415897983" lon="22.27396550634">
        <ele>6</ele>
        <time>2016-01-23T12:07:47Z</time>
      </trkpt>
      <trkpt lat="60.451416903811" lon="22.273964919607">
        <ele>6</ele>
        <time>2016-01-23T12:07:48Z</time>
      </trkpt>
      <trkpt lat="60.451417490544" lon="22.273963746141">
        <ele>6</ele>
        <time>2016-01-23T12:07:49Z</time>
      </trkpt>
      <trkpt lat="60.451418161096" lon="22.273962488856">
        <ele>6</ele>
        <time>2016-01-23T12:07:50Z</time>
      </trkpt>
      <trkpt lat="60.451418412553" lon="22.27395880082">
        <ele>6</ele>
        <time>2016-01-23T12:07:51Z</time>
      </trkpt>
      <trkpt lat="60.451418999286" lon="22.273956118612">
        <ele>6</ele>
        <time>2016-01-23T12:07:52Z</time>
      </trkpt>
      <trkpt lat="60.451419753657" lon="22.27395460987">
        <ele>6</ele>
        <time>2016-01-23T12:07:53Z</time>
      </trkpt>
      <trkpt lat="60.451420088933" lon="22.273952011481">
        <ele>6</ele>
        <time>2016-01-23T12:07:54Z</time>
      </trkpt>
      <trkpt lat="60.451419753657" lon="22.273949748368">
        <ele>6</ele>
        <time>2016-01-23T12:07:55Z</time>
      </trkpt>
      <trkpt lat="60.451419418381" lon="22.273946647065">
        <ele>6</ele>
        <time>2016-01-23T12:07:56Z</time>
      </trkpt>
      <trkpt lat="60.451417993458" lon="22.273945557418">
        <ele>6</ele>
        <time>2016-01-23T12:07:57Z</time>
      </trkpt>
      <trkpt lat="60.451416652354" lon="22.273945808875">
        <ele>6</ele>
        <time>2016-01-23T12:07:58Z</time>
      </trkpt>
      <trkpt lat="60.45141614944" lon="22.273945808875">
        <ele>6</ele>
        <time>2016-01-23T12:07:59Z</time>
      </trkpt>
      <trkpt lat="60.451415478888" lon="22.273946144151">
        <ele>6</ele>
        <time>2016-01-23T12:08:00Z</time>
      </trkpt>
      <trkpt lat="60.451414305422" lon="22.273944803047">
        <ele>6</ele>
        <time>2016-01-23T12:08:01Z</time>
      </trkpt>
      <trkpt lat="60.451414389241" lon="22.27394203702">
        <ele>6</ele>
        <time>2016-01-23T12:08:02Z</time>
      </trkpt>
      <trkpt lat="60.451414975974" lon="22.273936756423">
        <ele>6</ele>
        <time>2016-01-23T12:08:03Z</time>
      </trkpt>
      <trkpt lat="60.451415143612" lon="22.273936756423">
        <ele>6</ele>
        <time>2016-01-23T12:08:04Z</time>
      </trkpt>
      <trkpt lat="60.451414975974" lon="22.273936588785">
        <ele>6</ele>
        <time>2016-01-23T12:08:05Z</time>
      </trkpt>
      <trkpt lat="60.451413551051" lon="22.273933152206">
        <ele>6</ele>
        <time>2016-01-23T12:08:06Z</time>
      </trkpt>
      <trkpt lat="60.451412964318" lon="22.273932565473">
        <ele>6</ele>
        <time>2016-01-23T12:08:07Z</time>
      </trkpt>
      <trkpt lat="60.451412545223" lon="22.273931727283">
        <ele>6</ele>
        <time>2016-01-23T12:08:08Z</time>
      </trkpt>
      <trkpt lat="60.451411707033" lon="22.273930218541">
        <ele>6</ele>
        <time>2016-01-23T12:08:09Z</time>
      </trkpt>
      <trkpt lat="60.451411455576" lon="22.273928542161">
        <ele>6</ele>
        <time>2016-01-23T12:08:10Z</time>
      </trkpt>
      <trkpt lat="60.4514111203" lon="22.273927452514">
        <ele>6</ele>
        <time>2016-01-23T12:08:11Z</time>
      </trkpt>
      <trkpt lat="60.451410617386" lon="22.273927452514">
        <ele>6</ele>
        <time>2016-01-23T12:08:12Z</time>
      </trkpt>
      <trkpt lat="60.451410114472" lon="22.273928039247">
        <ele>6</ele>
        <time>2016-01-23T12:08:13Z</time>
      </trkpt>
      <trkpt lat="60.45141028211" lon="22.273928709799">
        <ele>6</ele>
        <time>2016-01-23T12:08:14Z</time>
      </trkpt>
      <trkpt lat="60.451410449748" lon="22.273932565473">
        <ele>6</ele>
        <time>2016-01-23T12:08:15Z</time>
      </trkpt>
      <trkpt lat="60.451412209947" lon="22.273938768079">
        <ele>6</ele>
        <time>2016-01-23T12:08:16Z</time>
      </trkpt>
      <trkpt lat="60.451417742001" lon="22.273948491083">
        <ele>6</ele>
        <time>2016-01-23T12:08:17Z</time>
      </trkpt>
      <trkpt lat="60.451423525512" lon="22.273953184947">
        <ele>6</ele>
        <time>2016-01-23T12:08:18Z</time>
      </trkpt>
      <trkpt lat="60.451428051738" lon="22.273957627354">
        <ele>6</ele>
        <time>2016-01-23T12:08:19Z</time>
      </trkpt>
      <trkpt lat="60.451439032027" lon="22.273977492457">
        <ele>6</ele>
        <time>2016-01-23T12:08:21Z</time>
      </trkpt>
      <trkpt lat="60.451444228805" lon="22.273975145525">
        <ele>6</ele>
        <time>2016-01-23T12:08:22Z</time>
      </trkpt>
      <trkpt lat="60.451439870217" lon="22.273973469145">
        <ele>6</ele>
        <time>2016-01-23T12:08:23Z</time>
      </trkpt>
      <trkpt lat="60.4514446479" lon="22.273974307335">
        <ele>6</ele>
        <time>2016-01-23T12:08:24Z</time>
      </trkpt>
      <trkpt lat="60.451444983176" lon="22.273971541308">
        <ele>6</ele>
        <time>2016-01-23T12:08:25Z</time>
      </trkpt>
      <trkpt lat="60.451445905185" lon="22.273967517996">
        <ele>6</ele>
        <time>2016-01-23T12:08:26Z</time>
      </trkpt>
      <trkpt lat="60.451445989004" lon="22.273964835788">
        <ele>6</ele>
        <time>2016-01-23T12:08:27Z</time>
      </trkpt>
      <trkpt lat="60.45144716247" lon="22.273963913779">
        <ele>6</ele>
        <time>2016-01-23T12:08:28Z</time>
      </trkpt>
      <trkpt lat="60.451449257945" lon="22.273964835788">
        <ele>6</ele>
        <time>2016-01-23T12:08:29Z</time>
      </trkpt>
      <trkpt lat="60.451449593221" lon="22.273967350358">
        <ele>6</ele>
        <time>2016-01-23T12:08:30Z</time>
      </trkpt>
      <trkpt lat="60.451448755031" lon="22.273969529652">
        <ele>6</ele>
        <time>2016-01-23T12:08:31Z</time>
      </trkpt>
      <trkpt lat="60.451448503574" lon="22.273970032566">
        <ele>6</ele>
        <time>2016-01-23T12:08:32Z</time>
      </trkpt>
      <trkpt lat="60.451447749203" lon="22.273970870756">
        <ele>6</ele>
        <time>2016-01-23T12:08:33Z</time>
      </trkpt>
      <trkpt lat="60.451447413927" lon="22.273972966231">
        <ele>6</ele>
        <time>2016-01-23T12:08:34Z</time>
      </trkpt>
      <trkpt lat="60.451447916841" lon="22.273975648439">
        <ele>6</ele>
        <time>2016-01-23T12:08:35Z</time>
      </trkpt>
      <trkpt lat="60.45145470618" lon="22.273984533253">
        <ele>6</ele>
        <time>2016-01-23T12:08:36Z</time>
      </trkpt>
      <trkpt lat="60.451451185782" lon="22.273980761398">
        <ele>6</ele>
        <time>2016-01-23T12:08:37Z</time>
      </trkpt>
      <trkpt lat="60.451453616533" lon="22.273986209633">
        <ele>6</ele>
        <time>2016-01-23T12:08:38Z</time>
      </trkpt>
      <trkpt lat="60.451456801655" lon="22.273986041995">
        <ele>6</ele>
        <time>2016-01-23T12:08:39Z</time>
      </trkpt>
      <trkpt lat="60.451463339537" lon="22.273990987316">
        <ele>6</ele>
        <time>2016-01-23T12:08:40Z</time>
      </trkpt>
      <trkpt lat="60.4514614117" lon="22.273988221289">
        <ele>6</ele>
        <time>2016-01-23T12:08:41Z</time>
      </trkpt>
      <trkpt lat="60.451466105564" lon="22.273997022284">
        <ele>6</ele>
        <time>2016-01-23T12:08:42Z</time>
      </trkpt>
      <trkpt lat="60.451468871591" lon="22.274002889614">
        <ele>6</ele>
        <time>2016-01-23T12:08:43Z</time>
      </trkpt>
      <trkpt lat="60.451471218523" lon="22.274007918754">
        <ele>6</ele>
        <time>2016-01-23T12:08:44Z</time>
      </trkpt>
      <trkpt lat="60.451473062541" lon="22.27401244498">
        <ele>6</ele>
        <time>2016-01-23T12:08:45Z</time>
      </trkpt>
      <trkpt lat="60.451473481636" lon="22.274014791912">
        <ele>6</ele>
        <time>2016-01-23T12:08:46Z</time>
      </trkpt>
      <trkpt lat="60.451479935699" lon="22.27402166507">
        <ele>6</ele>
        <time>2016-01-23T12:08:47Z</time>
      </trkpt>
      <trkpt lat="60.451483875192" lon="22.274030633703">
        <ele>6</ele>
        <time>2016-01-23T12:08:48Z</time>
      </trkpt>
      <trkpt lat="60.451487814685" lon="22.274035159929">
        <ele>6</ele>
        <time>2016-01-23T12:08:49Z</time>
      </trkpt>
      <trkpt lat="60.451484210468" lon="22.274031220436">
        <ele>6</ele>
        <time>2016-01-23T12:08:50Z</time>
      </trkpt>
      <trkpt lat="60.451487898504" lon="22.274040859621">
        <ele>6</ele>
        <time>2016-01-23T12:08:51Z</time>
      </trkpt>
      <trkpt lat="60.451488066142" lon="22.27404261982">
        <ele>6</ele>
        <time>2016-01-23T12:08:52Z</time>
      </trkpt>
      <trkpt lat="60.451497370051" lon="22.274049660616">
        <ele>6</ele>
        <time>2016-01-23T12:08:53Z</time>
      </trkpt>
      <trkpt lat="60.451507428331" lon="22.274067597882">
        <ele>6</ele>
        <time>2016-01-23T12:08:54Z</time>
      </trkpt>
      <trkpt lat="60.451518240982" lon="22.274078913447">
        <ele>6</ele>
        <time>2016-01-23T12:08:55Z</time>
      </trkpt>
      <trkpt lat="60.451531735841" lon="22.274105567889">
        <ele>6</ele>
        <time>2016-01-23T12:08:56Z</time>
      </trkpt>
      <trkpt lat="60.451544979243" lon="22.274119146567">
        <ele>6</ele>
        <time>2016-01-23T12:08:57Z</time>
      </trkpt>
      <trkpt lat="60.451561826862" lon="22.274146387742">
        <ele>6</ele>
        <time>2016-01-23T12:08:58Z</time>
      </trkpt>
      <trkpt lat="60.451579764128" lon="22.274169018872">
        <ele>6</ele>
        <time>2016-01-23T12:08:59Z</time>
      </trkpt>
      <trkpt lat="60.451594264815" lon="22.274192488192">
        <ele>6</ele>
        <time>2016-01-23T12:09:00Z</time>
      </trkpt>
      <trkpt lat="60.451615135746" lon="22.274210760734">
        <ele>6</ele>
        <time>2016-01-23T12:09:01Z</time>
      </trkpt>
      <trkpt lat="60.451628379148" lon="22.274233559502">
        <ele>6</ele>
        <time>2016-01-23T12:09:02Z</time>
      </trkpt>
      <trkpt lat="60.4516458135" lon="22.274243450144">
        <ele>6</ele>
        <time>2016-01-23T12:09:03Z</time>
      </trkpt>
      <trkpt lat="60.451655955599" lon="22.274264823989">
        <ele>6</ele>
        <time>2016-01-23T12:09:04Z</time>
      </trkpt>
      <trkpt lat="60.451664086042" lon="22.274270439862">
        <ele>6</ele>
        <time>2016-01-23T12:09:05Z</time>
      </trkpt>
      <trkpt lat="60.451667522621" lon="22.274273708803">
        <ele>6</ele>
        <time>2016-01-23T12:09:06Z</time>
      </trkpt>
      <trkpt lat="60.451663164033" lon="22.274269601672">
        <ele>6</ele>
        <time>2016-01-23T12:09:07Z</time>
      </trkpt>
      <trkpt lat="60.451666013879" lon="22.274273792622">
        <ele>6</ele>
        <time>2016-01-23T12:09:08Z</time>
      </trkpt>
      <trkpt lat="60.45166425368" lon="22.27427312207">
        <ele>6</ele>
        <time>2016-01-23T12:09:09Z</time>
      </trkpt>
      <trkpt lat="60.451662325843" lon="22.274273624984">
        <ele>6</ele>
        <time>2016-01-23T12:09:10Z</time>
      </trkpt>
      <trkpt lat="60.451662158205" lon="22.274273541165">
        <ele>6</ele>
        <time>2016-01-23T12:09:11Z</time>
      </trkpt>
      <trkpt lat="60.451661822929" lon="22.274273792622">
        <ele>6</ele>
        <time>2016-01-23T12:09:12Z</time>
      </trkpt>
      <trkpt lat="60.451661571472" lon="22.274273541165">
        <ele>6</ele>
        <time>2016-01-23T12:09:13Z</time>
      </trkpt>
      <trkpt lat="60.451661152377" lon="22.274272870613">
        <ele>6</ele>
        <time>2016-01-23T12:09:14Z</time>
      </trkpt>
      <trkpt lat="60.451660398006" lon="22.274271613328">
        <ele>6</ele>
        <time>2016-01-23T12:09:15Z</time>
      </trkpt>
      <trkpt lat="60.451660146549" lon="22.274271697147">
        <ele>6</ele>
        <time>2016-01-23T12:09:16Z</time>
      </trkpt>
      <trkpt lat="60.451660398006" lon="22.274272870613">
        <ele>6</ele>
        <time>2016-01-23T12:09:17Z</time>
      </trkpt>
      <trkpt lat="60.45166090092" lon="22.27427396026">
        <ele>6</ele>
        <time>2016-01-23T12:09:18Z</time>
      </trkpt>
      <trkpt lat="60.451661320015" lon="22.274275469002">
        <ele>6</ele>
        <time>2016-01-23T12:09:19Z</time>
      </trkpt>
      <trkpt lat="60.451661403834" lon="22.274276726287">
        <ele>6</ele>
        <time>2016-01-23T12:09:20Z</time>
      </trkpt>
      <trkpt lat="60.451661822929" lon="22.274279240857">
        <ele>6</ele>
        <time>2016-01-23T12:09:21Z</time>
      </trkpt>
      <trkpt lat="60.451661990567" lon="22.27428150397">
        <ele>6</ele>
        <time>2016-01-23T12:09:22Z</time>
      </trkpt>
      <trkpt lat="60.451662074386" lon="22.274282845074">
        <ele>6</ele>
        <time>2016-01-23T12:09:23Z</time>
      </trkpt>
      <trkpt lat="60.451661655291" lon="22.274283934721">
        <ele>6</ele>
        <time>2016-01-23T12:09:24Z</time>
      </trkpt>
      <trkpt lat="60.451661320015" lon="22.274285527282">
        <ele>6</ele>
        <time>2016-01-23T12:09:25Z</time>
      </trkpt>
      <trkpt lat="60.451660565644" lon="22.274286952205">
        <ele>6</ele>
        <time>2016-01-23T12:09:26Z</time>
      </trkpt>
      <trkpt lat="60.451659978911" lon="22.274287622757">
        <ele>6</ele>
        <time>2016-01-23T12:09:27Z</time>
      </trkpt>
      <trkpt lat="60.451659895092" lon="22.274288628585">
        <ele>6</ele>
        <time>2016-01-23T12:09:28Z</time>
      </trkpt>
      <trkpt lat="60.451659643635" lon="22.274290137327">
        <ele>6</ele>
        <time>2016-01-23T12:09:29Z</time>
      </trkpt>
      <trkpt lat="60.451659475997" lon="22.274291646069">
        <ele>6</ele>
        <time>2016-01-23T12:09:30Z</time>
      </trkpt>
      <trkpt lat="60.451659392178" lon="22.274293406268">
        <ele>6</ele>
        <time>2016-01-23T12:09:31Z</time>
      </trkpt>
      <trkpt lat="60.451659392178" lon="22.274294495915">
        <ele>6</ele>
        <time>2016-01-23T12:09:32Z</time>
      </trkpt>
      <trkpt lat="60.451658973083" lon="22.274295669381">
        <ele>6</ele>
        <time>2016-01-23T12:09:33Z</time>
      </trkpt>
      <trkpt lat="60.451658721626" lon="22.274296507571">
        <ele>6</ele>
        <time>2016-01-23T12:09:34Z</time>
      </trkpt>
      <trkpt lat="60.451658721626" lon="22.27429659139">
        <ele>6</ele>
        <time>2016-01-23T12:09:35Z</time>
      </trkpt>
      <trkpt lat="60.451657967255" lon="22.274296423752">
        <ele>6</ele>
        <time>2016-01-23T12:09:36Z</time>
      </trkpt>
      <trkpt lat="60.45165754816" lon="22.274296339933">
        <ele>6</ele>
        <time>2016-01-23T12:09:37Z</time>
      </trkpt>
      <trkpt lat="60.451656877608" lon="22.274294495915">
        <ele>6</ele>
        <time>2016-01-23T12:09:38Z</time>
      </trkpt>
      <trkpt lat="60.451655955599" lon="22.274293406268">
        <ele>6</ele>
        <time>2016-01-23T12:09:39Z</time>
      </trkpt>
      <trkpt lat="60.451655620323" lon="22.274293490087">
        <ele>6</ele>
        <time>2016-01-23T12:09:40Z</time>
      </trkpt>
      <trkpt lat="60.451655368866" lon="22.274293909182">
        <ele>6</ele>
        <time>2016-01-23T12:09:41Z</time>
      </trkpt>
      <trkpt lat="60.451654446857" lon="22.274292065164">
        <ele>6</ele>
        <time>2016-01-23T12:09:42Z</time>
      </trkpt>
      <trkpt lat="60.45165335721" lon="22.274290137327">
        <ele>6</ele>
        <time>2016-01-23T12:09:43Z</time>
      </trkpt>
      <trkpt lat="60.451652854296" lon="22.274288460947">
        <ele>6</ele>
        <time>2016-01-23T12:09:44Z</time>
      </trkpt>
      <trkpt lat="60.451652351382" lon="22.274286700748">
        <ele>6</ele>
        <time>2016-01-23T12:09:45Z</time>
      </trkpt>
      <trkpt lat="60.451651848468" lon="22.274285359644">
        <ele>6</ele>
        <time>2016-01-23T12:09:46Z</time>
      </trkpt>
      <trkpt lat="60.451651513192" lon="22.274284353816">
        <ele>6</ele>
        <time>2016-01-23T12:09:47Z</time>
      </trkpt>
      <trkpt lat="60.451651010278" lon="22.274283767083">
        <ele>6</ele>
        <time>2016-01-23T12:09:48Z</time>
      </trkpt>
      <trkpt lat="60.451650758821" lon="22.274283767083">
        <ele>6</ele>
        <time>2016-01-23T12:09:49Z</time>
      </trkpt>
      <trkpt lat="60.451650758821" lon="22.274284437635">
        <ele>6</ele>
        <time>2016-01-23T12:09:50Z</time>
      </trkpt>
      <trkpt lat="60.451650507364" lon="22.274284521454">
        <ele>6</ele>
        <time>2016-01-23T12:09:51Z</time>
      </trkpt>
      <trkpt lat="60.451650591183" lon="22.27428485673">
        <ele>6</ele>
        <time>2016-01-23T12:09:52Z</time>
      </trkpt>
      <trkpt lat="60.451650591183" lon="22.274285527282">
        <ele>6</ele>
        <time>2016-01-23T12:09:53Z</time>
      </trkpt>
      <trkpt lat="60.451650255907" lon="22.27428569492">
        <ele>6</ele>
        <time>2016-01-23T12:09:54Z</time>
      </trkpt>
      <trkpt lat="60.451649920631" lon="22.274285862558">
        <ele>6</ele>
        <time>2016-01-23T12:09:55Z</time>
      </trkpt>
      <trkpt lat="60.451649920631" lon="22.274286197834">
        <ele>6</ele>
        <time>2016-01-23T12:09:56Z</time>
      </trkpt>
      <trkpt lat="60.451649501536" lon="22.274286449291">
        <ele>6</ele>
        <time>2016-01-23T12:09:57Z</time>
      </trkpt>
      <trkpt lat="60.451648914803" lon="22.27428653311">
        <ele>6</ele>
        <time>2016-01-23T12:09:58Z</time>
      </trkpt>
      <trkpt lat="60.451648747165" lon="22.274286868386">
        <ele>6</ele>
        <time>2016-01-23T12:09:59Z</time>
      </trkpt>
      <trkpt lat="60.451648747165" lon="22.274287203662">
        <ele>6</ele>
        <time>2016-01-23T12:10:00Z</time>
      </trkpt>
      <trkpt lat="60.451648579527" lon="22.274287119843">
        <ele>6</ele>
        <time>2016-01-23T12:10:01Z</time>
      </trkpt>
      <trkpt lat="60.451648160432" lon="22.274287203662">
        <ele>6</ele>
        <time>2016-01-23T12:10:02Z</time>
      </trkpt>
      <trkpt lat="60.451648160432" lon="22.274287538938">
        <ele>6</ele>
        <time>2016-01-23T12:10:03Z</time>
      </trkpt>
      <trkpt lat="60.451648160432" lon="22.274287622757">
        <ele>6</ele>
        <time>2016-01-23T12:10:04Z</time>
      </trkpt>
      <trkpt lat="60.451647657518" lon="22.274287538938">
        <ele>6</ele>
        <time>2016-01-23T12:10:05Z</time>
      </trkpt>
      <trkpt lat="60.451647573699" lon="22.274287706576">
        <ele>6</ele>
        <time>2016-01-23T12:10:06Z</time>
      </trkpt>
      <trkpt lat="60.451649250079" lon="22.274287622757">
        <ele>6</ele>
        <time>2016-01-23T12:10:07Z</time>
      </trkpt>
      <trkpt lat="60.451655452685" lon="22.274294495915">
        <ele>6</ele>
        <time>2016-01-23T12:10:08Z</time>
      </trkpt>
      <trkpt lat="60.451652351382" lon="22.274290053508">
        <ele>6</ele>
        <time>2016-01-23T12:10:09Z</time>
      </trkpt>
      <trkpt lat="60.451666852069" lon="22.274298519227">
        <ele>6</ele>
        <time>2016-01-23T12:10:10Z</time>
      </trkpt>
      <trkpt lat="60.451671629752" lon="22.274299441236">
        <ele>6</ele>
        <time>2016-01-23T12:10:11Z</time>
      </trkpt>
      <trkpt lat="60.451675736883" lon="22.27430329691">
        <ele>6</ele>
        <time>2016-01-23T12:10:12Z</time>
      </trkpt>
      <trkpt lat="60.451681939489" lon="22.274304218919">
        <ele>6</ele>
        <time>2016-01-23T12:10:13Z</time>
      </trkpt>
      <trkpt lat="60.451686800991" lon="22.274308074593">
        <ele>6</ele>
        <time>2016-01-23T12:10:14Z</time>
      </trkpt>
      <trkpt lat="60.451693338873" lon="22.274315199208">
        <ele>6</ele>
        <time>2016-01-23T12:10:15Z</time>
      </trkpt>
      <trkpt lat="60.451701385497" lon="22.274326011859">
        <ele>6</ele>
        <time>2016-01-23T12:10:16Z</time>
      </trkpt>
      <trkpt lat="60.451706833732" lon="22.274330370447">
        <ele>6</ele>
        <time>2016-01-23T12:10:17Z</time>
      </trkpt>
      <trkpt lat="60.451712784881" lon="22.274338668528">
        <ele>6</ele>
        <time>2016-01-23T12:10:18Z</time>
      </trkpt>
      <trkpt lat="60.451720328591" lon="22.27434101546">
        <ele>6</ele>
        <time>2016-01-23T12:10:19Z</time>
      </trkpt>
      <trkpt lat="60.451728291396" lon="22.274350822283">
        <ele>6</ele>
        <time>2016-01-23T12:10:20Z</time>
      </trkpt>
      <trkpt lat="60.451736086563" lon="22.274357527803">
        <ele>6</ele>
        <time>2016-01-23T12:10:21Z</time>
      </trkpt>
      <trkpt lat="60.45174723449" lon="22.274371693214">
        <ele>6</ele>
        <time>2016-01-23T12:10:22Z</time>
      </trkpt>
      <trkpt lat="60.451757125132" lon="22.274378650191">
        <ele>6</ele>
        <time>2016-01-23T12:10:23Z</time>
      </trkpt>
      <trkpt lat="60.451771793457" lon="22.274396755095">
        <ele>6</ele>
        <time>2016-01-23T12:10:24Z</time>
      </trkpt>
      <trkpt lat="60.451785623592" lon="22.274410752868">
        <ele>6</ele>
        <time>2016-01-23T12:10:25Z</time>
      </trkpt>
      <trkpt lat="60.451795933329" lon="22.274420224415">
        <ele>6</ele>
        <time>2016-01-23T12:10:26Z</time>
      </trkpt>
      <trkpt lat="60.451811104568" lon="22.274444531925">
        <ele>6</ele>
        <time>2016-01-23T12:10:27Z</time>
      </trkpt>
      <trkpt lat="60.451818815916" lon="22.274451237445">
        <ele>6</ele>
        <time>2016-01-23T12:10:28Z</time>
      </trkpt>
      <trkpt lat="60.451836837001" lon="22.274475209679">
        <ele>6</ele>
        <time>2016-01-23T12:10:29Z</time>
      </trkpt>
      <trkpt lat="60.451851589145" lon="22.27449188966">
        <ele>6</ele>
        <time>2016-01-23T12:10:30Z</time>
      </trkpt>
      <trkpt lat="60.45186458109" lon="22.274501780302">
        <ele>6</ele>
        <time>2016-01-23T12:10:31Z</time>
      </trkpt>
      <trkpt lat="60.451886038754" lon="22.274528015649">
        <ele>6</ele>
        <time>2016-01-23T12:10:32Z</time>
      </trkpt>
      <trkpt lat="60.451896097034" lon="22.274535726997">
        <ele>6</ele>
        <time>2016-01-23T12:10:33Z</time>
      </trkpt>
      <trkpt lat="60.451911687368" lon="22.274560034507">
        <ele>6</ele>
        <time>2016-01-23T12:10:34Z</time>
      </trkpt>
      <trkpt lat="60.451915794499" lon="22.274569925149">
        <ele>6</ele>
        <time>2016-01-23T12:10:35Z</time>
      </trkpt>
      <trkpt lat="60.451924260218" lon="22.274583420008">
        <ele>6</ele>
        <time>2016-01-23T12:10:36Z</time>
      </trkpt>
      <trkpt lat="60.451927277702" lon="22.274588365329">
        <ele>6</ele>
        <time>2016-01-23T12:10:37Z</time>
      </trkpt>
      <trkpt lat="60.451924176399" lon="22.274582917094">
        <ele>6</ele>
        <time>2016-01-23T12:10:38Z</time>
      </trkpt>
      <trkpt lat="60.451932223023" lon="22.274589203519">
        <ele>6</ele>
        <time>2016-01-23T12:10:39Z</time>
      </trkpt>
      <trkpt lat="60.451934569955" lon="22.274590460804">
        <ele>6</ele>
        <time>2016-01-23T12:10:40Z</time>
      </trkpt>
      <trkpt lat="60.451936497792" lon="22.274592640098">
        <ele>6</ele>
        <time>2016-01-23T12:10:41Z</time>
      </trkpt>
      <trkpt lat="60.451938174172" lon="22.274594065021">
        <ele>6</ele>
        <time>2016-01-23T12:10:42Z</time>
      </trkpt>
      <trkpt lat="60.451939682914" lon="22.274594903211">
        <ele>6</ele>
        <time>2016-01-23T12:10:43Z</time>
      </trkpt>
      <trkpt lat="60.451940772561" lon="22.27459582522">
        <ele>6</ele>
        <time>2016-01-23T12:10:44Z</time>
      </trkpt>
      <trkpt lat="60.45194169457" lon="22.274596831048">
        <ele>6</ele>
        <time>2016-01-23T12:10:45Z</time>
      </trkpt>
      <trkpt lat="60.451942281303" lon="22.274600099989">
        <ele>6</ele>
        <time>2016-01-23T12:10:46Z</time>
      </trkpt>
      <trkpt lat="60.451942197484" lon="22.27460336893">
        <ele>6</ele>
        <time>2016-01-23T12:10:47Z</time>
      </trkpt>
      <trkpt lat="60.451942616579" lon="22.274603452749">
        <ele>6</ele>
        <time>2016-01-23T12:10:48Z</time>
      </trkpt>
      <trkpt lat="60.451943287131" lon="22.274602363102">
        <ele>6</ele>
        <time>2016-01-23T12:10:49Z</time>
      </trkpt>
      <trkpt lat="60.451943287131" lon="22.274602949835">
        <ele>6</ele>
        <time>2016-01-23T12:10:50Z</time>
      </trkpt>
      <trkpt lat="60.451943622407" lon="22.27460420712">
        <ele>6</ele>
        <time>2016-01-23T12:10:51Z</time>
      </trkpt>
      <trkpt lat="60.451943957683" lon="22.274605212948">
        <ele>6</ele>
        <time>2016-01-23T12:10:52Z</time>
      </trkpt>
      <trkpt lat="60.451944292959" lon="22.274606889328">
        <ele>6</ele>
        <time>2016-01-23T12:10:53Z</time>
      </trkpt>
      <trkpt lat="60.451944460597" lon="22.274608565708">
        <ele>6</ele>
        <time>2016-01-23T12:10:54Z</time>
      </trkpt>
      <trkpt lat="60.451944963511" lon="22.27460923626">
        <ele>6</ele>
        <time>2016-01-23T12:10:55Z</time>
      </trkpt>
      <trkpt lat="60.451945717882" lon="22.27460923626">
        <ele>6</ele>
        <time>2016-01-23T12:10:56Z</time>
      </trkpt>
      <trkpt lat="60.451946053158" lon="22.274610661183">
        <ele>6</ele>
        <time>2016-01-23T12:10:57Z</time>
      </trkpt>
      <trkpt lat="60.45194672371" lon="22.274613259572">
        <ele>6</ele>
        <time>2016-01-23T12:10:58Z</time>
      </trkpt>
      <trkpt lat="60.4519475619" lon="22.274615438866">
        <ele>6</ele>
        <time>2016-01-23T12:10:59Z</time>
      </trkpt>
      <trkpt lat="60.451947478081" lon="22.274616863789">
        <ele>6</ele>
        <time>2016-01-23T12:11:00Z</time>
      </trkpt>
      <trkpt lat="60.451946975167" lon="22.274619545997">
        <ele>6</ele>
        <time>2016-01-23T12:11:01Z</time>
      </trkpt>
      <trkpt lat="60.451948064814" lon="22.274622814938">
        <ele>6</ele>
        <time>2016-01-23T12:11:02Z</time>
      </trkpt>
      <trkpt lat="60.451949154461" lon="22.274626335336">
        <ele>6</ele>
        <time>2016-01-23T12:11:03Z</time>
      </trkpt>
      <trkpt lat="60.451949489737" lon="22.274629520458">
        <ele>6</ele>
        <time>2016-01-23T12:11:04Z</time>
      </trkpt>
      <trkpt lat="60.451949908832" lon="22.274630610105">
        <ele>6</ele>
        <time>2016-01-23T12:11:05Z</time>
      </trkpt>
      <trkpt lat="60.45195007647" lon="22.274630693924">
        <ele>6</ele>
        <time>2016-01-23T12:11:06Z</time>
      </trkpt>
      <trkpt lat="60.451950663203" lon="22.274631532114">
        <ele>6</ele>
        <time>2016-01-23T12:11:07Z</time>
      </trkpt>
      <trkpt lat="60.45195091466" lon="22.274632621761">
        <ele>6</ele>
        <time>2016-01-23T12:11:08Z</time>
      </trkpt>
      <trkpt lat="60.451951082298" lon="22.274633711408">
        <ele>6</ele>
        <time>2016-01-23T12:11:09Z</time>
      </trkpt>
      <trkpt lat="60.451952423402" lon="22.274633627589">
        <ele>6</ele>
        <time>2016-01-23T12:11:10Z</time>
      </trkpt>
      <trkpt lat="60.451953093954" lon="22.274633124675">
        <ele>6</ele>
        <time>2016-01-23T12:11:11Z</time>
      </trkpt>
      <trkpt lat="60.451953848325" lon="22.274634214322">
        <ele>6</ele>
        <time>2016-01-23T12:11:12Z</time>
      </trkpt>
      <trkpt lat="60.451953848325" lon="22.274634214322">
        <ele>6</ele>
        <time>2016-01-23T12:11:13Z</time>
      </trkpt>
      <trkpt lat="60.451952674859" lon="22.274634801055">
        <ele>6</ele>
        <time>2016-01-23T12:11:14Z</time>
      </trkpt>
      <trkpt lat="60.451952758678" lon="22.274636645073">
        <ele>6</ele>
        <time>2016-01-23T12:11:15Z</time>
      </trkpt>
      <trkpt lat="60.451952004307" lon="22.274637147987">
        <ele>6</ele>
        <time>2016-01-23T12:11:16Z</time>
      </trkpt>
      <trkpt lat="60.451949657375" lon="22.274638237634">
        <ele>6</ele>
        <time>2016-01-23T12:11:17Z</time>
      </trkpt>
      <trkpt lat="60.451945382606" lon="22.274641003661">
        <ele>6</ele>
        <time>2016-01-23T12:11:18Z</time>
      </trkpt>
      <trkpt lat="60.451937084525" lon="22.274639578738">
        <ele>6</ele>
        <time>2016-01-23T12:11:19Z</time>
      </trkpt>
      <trkpt lat="60.451928870263" lon="22.274633208494">
        <ele>6</ele>
        <time>2016-01-23T12:11:20Z</time>
      </trkpt>
      <trkpt lat="60.451934821412" lon="22.274639243462">
        <ele>6</ele>
        <time>2016-01-23T12:11:21Z</time>
      </trkpt>
      <trkpt lat="60.451919314897" lon="22.274629771915">
        <ele>6</ele>
        <time>2016-01-23T12:11:22Z</time>
      </trkpt>
      <trkpt lat="60.45191319611" lon="22.274623988404">
        <ele>6</ele>
        <time>2016-01-23T12:11:23Z</time>
      </trkpt>
      <trkpt lat="60.451903473106" lon="22.274611247916">
        <ele>6</ele>
        <time>2016-01-23T12:11:24Z</time>
      </trkpt>
      <trkpt lat="60.451893582464" lon="22.274612169925">
        <ele>6</ele>
        <time>2016-01-23T12:11:25Z</time>
      </trkpt>
      <trkpt lat="60.451881177252" lon="22.274594735573">
        <ele>6</ele>
        <time>2016-01-23T12:11:26Z</time>
      </trkpt>
      <trkpt lat="60.451871118972" lon="22.27459582522">
        <ele>6</ele>
        <time>2016-01-23T12:11:27Z</time>
      </trkpt>
      <trkpt lat="60.45185871376" lon="22.274582665637">
        <ele>6</ele>
        <time>2016-01-23T12:11:28Z</time>
      </trkpt>
      <trkpt lat="60.451851840602" lon="22.274575457203">
        <ele>6</ele>
        <time>2016-01-23T12:11:29Z</time>
      </trkpt>
      <trkpt lat="60.451846895281" lon="22.274574535194">
        <ele>6</ele>
        <time>2016-01-23T12:11:30Z</time>
      </trkpt>
      <trkpt lat="60.451851086231" lon="22.274578307049">
        <ele>6</ele>
        <time>2016-01-23T12:11:31Z</time>
      </trkpt>
      <trkpt lat="60.451846560005" lon="22.274578307049">
        <ele>6</ele>
        <time>2016-01-23T12:11:32Z</time>
      </trkpt>
      <trkpt lat="60.451846224729" lon="22.274581240714">
        <ele>6</ele>
        <time>2016-01-23T12:11:33Z</time>
      </trkpt>
      <trkpt lat="60.45184446453" lon="22.274582917094">
        <ele>6</ele>
        <time>2016-01-23T12:11:34Z</time>
      </trkpt>
      <trkpt lat="60.451842871969" lon="22.274584342017">
        <ele>6</ele>
        <time>2016-01-23T12:11:35Z</time>
      </trkpt>
      <trkpt lat="60.451842369055" lon="22.274587024225">
        <ele>6</ele>
        <time>2016-01-23T12:11:36Z</time>
      </trkpt>
      <trkpt lat="60.451841614684" lon="22.274588030053">
        <ele>6</ele>
        <time>2016-01-23T12:11:37Z</time>
      </trkpt>
      <trkpt lat="60.45184111177" lon="22.274587946234">
        <ele>6</ele>
        <time>2016-01-23T12:11:38Z</time>
      </trkpt>
      <trkpt lat="60.451841614684" lon="22.274589203519">
        <ele>6</ele>
        <time>2016-01-23T12:11:39Z</time>
      </trkpt>
      <trkpt lat="60.451840608856" lon="22.274589706433">
        <ele>6</ele>
        <time>2016-01-23T12:11:40Z</time>
      </trkpt>
      <trkpt lat="60.451839519209" lon="22.274589622614">
        <ele>6</ele>
        <time>2016-01-23T12:11:41Z</time>
      </trkpt>
      <trkpt lat="60.451837507553" lon="22.274589035881">
        <ele>6</ele>
        <time>2016-01-23T12:11:42Z</time>
      </trkpt>
      <trkpt lat="60.451835076802" lon="22.274588868243">
        <ele>6</ele>
        <time>2016-01-23T12:11:43Z</time>
      </trkpt>
      <trkpt lat="60.451832310775" lon="22.274589203519">
        <ele>6</ele>
        <time>2016-01-23T12:11:44Z</time>
      </trkpt>
      <trkpt lat="60.451829880024" lon="22.274587359501">
        <ele>6</ele>
        <time>2016-01-23T12:11:45Z</time>
      </trkpt>
      <trkpt lat="60.451828287463" lon="22.274584006741">
        <ele>6</ele>
        <time>2016-01-23T12:11:46Z</time>
      </trkpt>
      <trkpt lat="60.451832143137" lon="22.27457738504">
        <ele>6</ele>
        <time>2016-01-23T12:11:47Z</time>
      </trkpt>
      <trkpt lat="60.451829125653" lon="22.274580821619">
        <ele>6</ele>
        <time>2016-01-23T12:11:48Z</time>
      </trkpt>
      <trkpt lat="60.451834657707" lon="22.274579396696">
        <ele>6</ele>
        <time>2016-01-23T12:11:49Z</time>
      </trkpt>
      <trkpt lat="60.451837423734" lon="22.2745807378">
        <ele>6</ele>
        <time>2016-01-23T12:11:50Z</time>
      </trkpt>
      <trkpt lat="60.451844967444" lon="22.274585012569">
        <ele>6</ele>
        <time>2016-01-23T12:11:51Z</time>
      </trkpt>
      <trkpt lat="60.451840776494" lon="22.274583839103">
        <ele>6</ele>
        <time>2016-01-23T12:11:52Z</time>
      </trkpt>
      <trkpt lat="60.451847482014" lon="22.274588113872">
        <ele>6</ele>
        <time>2016-01-23T12:11:53Z</time>
      </trkpt>
      <trkpt lat="60.451850248041" lon="22.274589035881">
        <ele>6</ele>
        <time>2016-01-23T12:11:54Z</time>
      </trkpt>
      <trkpt lat="60.451852594973" lon="22.274589622614">
        <ele>6</ele>
        <time>2016-01-23T12:11:55Z</time>
      </trkpt>
      <trkpt lat="60.451855612457" lon="22.274590712261">
        <ele>6</ele>
        <time>2016-01-23T12:11:56Z</time>
      </trkpt>
      <trkpt lat="60.451858378484" lon="22.274592807736">
        <ele>6</ele>
        <time>2016-01-23T12:11:57Z</time>
      </trkpt>
      <trkpt lat="60.451860725416" lon="22.274594651754">
        <ele>6</ele>
        <time>2016-01-23T12:11:58Z</time>
      </trkpt>
      <trkpt lat="60.451863575262" lon="22.274595992858">
        <ele>6</ele>
        <time>2016-01-23T12:11:59Z</time>
      </trkpt>
      <trkpt lat="60.451865167823" lon="22.274596328134">
        <ele>6</ele>
        <time>2016-01-23T12:12:00Z</time>
      </trkpt>
      <trkpt lat="60.451866173651" lon="22.274594735573">
        <ele>6</ele>
        <time>2016-01-23T12:12:01Z</time>
      </trkpt>
      <trkpt lat="60.45186709566" lon="22.274595406125">
        <ele>6</ele>
        <time>2016-01-23T12:12:02Z</time>
      </trkpt>
      <trkpt lat="60.451869023497" lon="22.274596328134">
        <ele>6</ele>
        <time>2016-01-23T12:12:03Z</time>
      </trkpt>
      <trkpt lat="60.451871705705" lon="22.274597417781">
        <ele>6</ele>
        <time>2016-01-23T12:12:04Z</time>
      </trkpt>
      <trkpt lat="60.451877656854" lon="22.274604290939">
        <ele>6</ele>
        <time>2016-01-23T12:12:05Z</time>
      </trkpt>
      <trkpt lat="60.451885032926" lon="22.274611164097">
        <ele>6</ele>
        <time>2016-01-23T12:12:06Z</time>
      </trkpt>
      <trkpt lat="60.451891738446" lon="22.274616947608">
        <ele>6</ele>
        <time>2016-01-23T12:12:07Z</time>
      </trkpt>
      <trkpt lat="60.45190146145" lon="22.274625832422">
        <ele>6</ele>
        <time>2016-01-23T12:12:08Z</time>
      </trkpt>
      <trkpt lat="60.451911016816" lon="22.274633292313">
        <ele>6</ele>
        <time>2016-01-23T12:12:09Z</time>
      </trkpt>
      <trkpt lat="60.451914285757" lon="22.274632454123">
        <ele>6</ele>
        <time>2016-01-23T12:12:10Z</time>
      </trkpt>
      <trkpt lat="60.451910094807" lon="22.2746310292">
        <ele>6</ele>
        <time>2016-01-23T12:12:11Z</time>
      </trkpt>
      <trkpt lat="60.451917303241" lon="22.274631615933">
        <ele>6</ele>
        <time>2016-01-23T12:12:12Z</time>
      </trkpt>
      <trkpt lat="60.451916967965" lon="22.274627927897">
        <ele>6</ele>
        <time>2016-01-23T12:12:13Z</time>
      </trkpt>
      <trkpt lat="60.451917219422" lon="22.274626502974">
        <ele>6</ele>
        <time>2016-01-23T12:12:14Z</time>
      </trkpt>
      <trkpt lat="60.451918811983" lon="22.274628011716">
        <ele>6</ele>
        <time>2016-01-23T12:12:15Z</time>
      </trkpt>
      <trkpt lat="60.451928032073" lon="22.274631448295">
        <ele>6</ele>
        <time>2016-01-23T12:12:16Z</time>
      </trkpt>
      <trkpt lat="60.451932306842" lon="22.274634214322">
        <ele>6</ele>
        <time>2016-01-23T12:12:17Z</time>
      </trkpt>
      <trkpt lat="60.451942616579" lon="22.274629771915">
        <ele>6</ele>
        <time>2016-01-23T12:12:18Z</time>
      </trkpt>
      <trkpt lat="60.451952255764" lon="22.274625245689">
        <ele>6</ele>
        <time>2016-01-23T12:12:19Z</time>
      </trkpt>
      <trkpt lat="60.451959967112" lon="22.27462683825">
        <ele>6</ele>
        <time>2016-01-23T12:12:20Z</time>
      </trkpt>
      <trkpt lat="60.451970444487" lon="22.27463186739">
        <ele>6</ele>
        <time>2016-01-23T12:12:21Z</time>
      </trkpt>
      <trkpt lat="60.451976563274" lon="22.274637818539">
        <ele>6</ele>
        <time>2016-01-23T12:12:22Z</time>
      </trkpt>
      <trkpt lat="60.451980502767" lon="22.274643350593">
        <ele>6</ele>
        <time>2016-01-23T12:12:23Z</time>
      </trkpt>
      <trkpt lat="60.451986789192" lon="22.274647793">
        <ele>6</ele>
        <time>2016-01-23T12:12:24Z</time>
      </trkpt>
      <trkpt lat="60.451982179147" lon="22.274643015317">
        <ele>6</ele>
        <time>2016-01-23T12:12:25Z</time>
      </trkpt>
      <trkpt lat="60.451994332902" lon="22.27466204223">
        <ele>6</ele>
        <time>2016-01-23T12:12:26Z</time>
      </trkpt>
      <trkpt lat="60.451995003454" lon="22.274661790773">
        <ele>6</ele>
        <time>2016-01-23T12:12:27Z</time>
      </trkpt>
      <trkpt lat="60.452003888268" lon="22.274671010863">
        <ele>6</ele>
        <time>2016-01-23T12:12:28Z</time>
      </trkpt>
      <trkpt lat="60.452008582132" lon="22.274676542917">
        <ele>6</ele>
        <time>2016-01-23T12:12:29Z</time>
      </trkpt>
      <trkpt lat="60.45201796986" lon="22.274685679188">
        <ele>6</ele>
        <time>2016-01-23T12:12:30Z</time>
      </trkpt>
      <trkpt lat="60.452031213262" lon="22.274700179875">
        <ele>6</ele>
        <time>2016-01-23T12:12:31Z</time>
      </trkpt>
      <trkpt lat="60.452037164411" lon="22.274701185703">
        <ele>6</ele>
        <time>2016-01-23T12:12:32Z</time>
      </trkpt>
      <trkpt lat="60.452052670926" lon="22.274721134625">
        <ele>6</ele>
        <time>2016-01-23T12:12:33Z</time>
      </trkpt>
      <trkpt lat="60.452061304283" lon="22.274725577032">
        <ele>6</ele>
        <time>2016-01-23T12:12:34Z</time>
      </trkpt>
      <trkpt lat="60.45207664316" lon="22.274752399112">
        <ele>6</ele>
        <time>2016-01-23T12:12:35Z</time>
      </trkpt>
      <trkpt lat="60.452090389476" lon="22.274761032469">
        <ele>6</ele>
        <time>2016-01-23T12:12:36Z</time>
      </trkpt>
      <trkpt lat="60.45210597981" lon="22.274772012758">
        <ele>6</ele>
        <time>2016-01-23T12:12:37Z</time>
      </trkpt>
      <trkpt lat="60.452118049746" lon="22.27477938883">
        <ele>6</ele>
        <time>2016-01-23T12:12:38Z</time>
      </trkpt>
      <trkpt lat="60.452130538777" lon="22.274772348034">
        <ele>6</ele>
        <time>2016-01-23T12:12:39Z</time>
      </trkpt>
      <trkpt lat="60.452148392224" lon="22.274788189825">
        <ele>6</ele>
        <time>2016-01-23T12:12:40Z</time>
      </trkpt>
      <trkpt lat="60.452170185164" lon="22.274785172341">
        <ele>6</ele>
        <time>2016-01-23T12:12:41Z</time>
      </trkpt>
      <trkpt lat="60.452185356403" lon="22.274794560069">
        <ele>6</ele>
        <time>2016-01-23T12:12:42Z</time>
      </trkpt>
      <trkpt lat="60.452208741904" lon="22.274822220339">
        <ele>6</ele>
        <time>2016-01-23T12:12:43Z</time>
      </trkpt>
      <trkpt lat="60.452243610608" lon="22.274834625551">
        <ele>6</ele>
        <time>2016-01-23T12:12:44Z</time>
      </trkpt>
      <trkpt lat="60.452267415204" lon="22.274846527849">
        <ele>6</ele>
        <time>2016-01-23T12:12:45Z</time>
      </trkpt>
      <trkpt lat="60.452301194261" lon="22.274861028536">
        <ele>5.8</ele>
        <time>2016-01-23T12:12:46Z</time>
      </trkpt>
      <trkpt lat="60.452322735744" lon="22.274870332445">
        <ele>5.4</ele>
        <time>2016-01-23T12:12:47Z</time>
      </trkpt>
      <trkpt lat="60.452342517028" lon="22.274865973857">
        <ele>5</ele>
        <time>2016-01-23T12:12:48Z</time>
      </trkpt>
      <trkpt lat="60.452354586964" lon="22.274861615269">
        <ele>4.6</ele>
        <time>2016-01-23T12:12:49Z</time>
      </trkpt>
      <trkpt lat="60.452385013261" lon="22.274867063504">
        <ele>4.2</ele>
        <time>2016-01-23T12:12:50Z</time>
      </trkpt>
      <trkpt lat="60.452404626907" lon="22.274884749313">
        <ele>4</ele>
        <time>2016-01-23T12:12:51Z</time>
      </trkpt>
      <trkpt lat="60.452419211413" lon="22.274900172009">
        <ele>4</ele>
        <time>2016-01-23T12:12:52Z</time>
      </trkpt>
      <trkpt lat="60.452433879738" lon="22.274913918325">
        <ele>4</ele>
        <time>2016-01-23T12:12:53Z</time>
      </trkpt>
      <trkpt lat="60.452445782036" lon="22.274920707664">
        <ele>4</ele>
        <time>2016-01-23T12:12:54Z</time>
      </trkpt>
      <trkpt lat="60.452455337402" lon="22.27492104294">
        <ele>4</ele>
        <time>2016-01-23T12:12:55Z</time>
      </trkpt>
      <trkpt lat="60.452466904424" lon="22.274928167555">
        <ele>4</ele>
        <time>2016-01-23T12:12:56Z</time>
      </trkpt>
      <trkpt lat="60.452480147826" lon="22.274934370161">
        <ele>4</ele>
        <time>2016-01-23T12:12:57Z</time>
      </trkpt>
      <trkpt lat="60.452498336549" lon="22.274944847536">
        <ele>4</ele>
        <time>2016-01-23T12:12:58Z</time>
      </trkpt>
      <trkpt lat="60.452510490304" lon="22.274950211952">
        <ele>4</ele>
        <time>2016-01-23T12:12:59Z</time>
      </trkpt>
      <trkpt lat="60.452521805869" lon="22.27496965796">
        <ele>4</ele>
        <time>2016-01-23T12:13:00Z</time>
      </trkpt>
      <trkpt lat="60.452526080638" lon="22.274975273833">
        <ele>4</ele>
        <time>2016-01-23T12:13:01Z</time>
      </trkpt>
      <trkpt lat="60.452521805869" lon="22.274970328512">
        <ele>4</ele>
        <time>2016-01-23T12:13:02Z</time>
      </trkpt>
      <trkpt lat="60.452527254104" lon="22.274981811715">
        <ele>4</ele>
        <time>2016-01-23T12:13:03Z</time>
      </trkpt>
      <trkpt lat="60.452528846665" lon="22.274985415932">
        <ele>4</ele>
        <time>2016-01-23T12:13:04Z</time>
      </trkpt>
      <trkpt lat="60.452530606864" lon="22.274987930502">
        <ele>4</ele>
        <time>2016-01-23T12:13:05Z</time>
      </trkpt>
      <trkpt lat="60.452532115606" lon="22.274989942158">
        <ele>4</ele>
        <time>2016-01-23T12:13:06Z</time>
      </trkpt>
      <trkpt lat="60.452533289072" lon="22.274992121452">
        <ele>4</ele>
        <time>2016-01-23T12:13:07Z</time>
      </trkpt>
      <trkpt lat="60.452534378719" lon="22.274993797832">
        <ele>4</ele>
        <time>2016-01-23T12:13:08Z</time>
      </trkpt>
      <trkpt lat="60.452536893289" lon="22.274996396221">
        <ele>4</ele>
        <time>2016-01-23T12:13:09Z</time>
      </trkpt>
      <trkpt lat="60.452539994592" lon="22.274999665162">
        <ele>4</ele>
        <time>2016-01-23T12:13:10Z</time>
      </trkpt>
      <trkpt lat="60.452541587153" lon="22.275003269379">
        <ele>4</ele>
        <time>2016-01-23T12:13:11Z</time>
      </trkpt>
      <trkpt lat="60.452543682628" lon="22.275007627967">
        <ele>4</ele>
        <time>2016-01-23T12:13:12Z</time>
      </trkpt>
      <trkpt lat="60.452544604637" lon="22.275008717614">
        <ele>4</ele>
        <time>2016-01-23T12:13:13Z</time>
      </trkpt>
      <trkpt lat="60.452545694284" lon="22.275008466157">
        <ele>4</ele>
        <time>2016-01-23T12:13:14Z</time>
      </trkpt>
      <trkpt lat="60.452545945741" lon="22.275008801433">
        <ele>4</ele>
        <time>2016-01-23T12:13:15Z</time>
      </trkpt>
      <trkpt lat="60.452545861922" lon="22.275009639623">
        <ele>4</ele>
        <time>2016-01-23T12:13:16Z</time>
      </trkpt>
      <trkpt lat="60.452545442827" lon="22.275010393994">
        <ele>4</ele>
        <time>2016-01-23T12:13:17Z</time>
      </trkpt>
      <trkpt lat="60.452545359008" lon="22.275010896908">
        <ele>4</ele>
        <time>2016-01-23T12:13:18Z</time>
      </trkpt>
      <trkpt lat="60.452546113379" lon="22.275011818917">
        <ele>4</ele>
        <time>2016-01-23T12:13:19Z</time>
      </trkpt>
      <trkpt lat="60.452545694284" lon="22.275012992383">
        <ele>4</ele>
        <time>2016-01-23T12:13:20Z</time>
      </trkpt>
      <trkpt lat="60.452546448655" lon="22.275014668763">
        <ele>4</ele>
        <time>2016-01-23T12:13:21Z</time>
      </trkpt>
      <trkpt lat="60.452547622121" lon="22.275015926048">
        <ele>4</ele>
        <time>2016-01-23T12:13:22Z</time>
      </trkpt>
      <trkpt lat="60.452547957397" lon="22.275017518609">
        <ele>4</ele>
        <time>2016-01-23T12:13:23Z</time>
      </trkpt>
      <trkpt lat="60.452549047044" lon="22.275019697903">
        <ele>4</ele>
        <time>2016-01-23T12:13:24Z</time>
      </trkpt>
      <trkpt lat="60.45255022051" lon="22.275020452274">
        <ele>4</ele>
        <time>2016-01-23T12:13:25Z</time>
      </trkpt>
      <trkpt lat="60.452550388148" lon="22.275020703731">
        <ele>4</ele>
        <time>2016-01-23T12:13:26Z</time>
      </trkpt>
      <trkpt lat="60.452550723424" lon="22.27502246393">
        <ele>4</ele>
        <time>2016-01-23T12:13:27Z</time>
      </trkpt>
      <trkpt lat="60.45254938232" lon="22.275021206645">
        <ele>4</ele>
        <time>2016-01-23T12:13:28Z</time>
      </trkpt>
      <trkpt lat="60.452548460311" lon="22.275020452274">
        <ele>4</ele>
        <time>2016-01-23T12:13:29Z</time>
      </trkpt>
      <trkpt lat="60.452547286845" lon="22.275020200817">
        <ele>4</ele>
        <time>2016-01-23T12:13:30Z</time>
      </trkpt>
      <trkpt lat="60.452546364836" lon="22.275020619912">
        <ele>4</ele>
        <time>2016-01-23T12:13:31Z</time>
      </trkpt>
      <trkpt lat="60.452547454483" lon="22.275022212473">
        <ele>4</ele>
        <time>2016-01-23T12:13:32Z</time>
      </trkpt>
      <trkpt lat="60.452548460311" lon="22.275023637396">
        <ele>4</ele>
        <time>2016-01-23T12:13:33Z</time>
      </trkpt>
      <trkpt lat="60.452549717596" lon="22.275025146138">
        <ele>4</ele>
        <time>2016-01-23T12:13:34Z</time>
      </trkpt>
      <trkpt lat="60.452550807243" lon="22.275026571061">
        <ele>4</ele>
        <time>2016-01-23T12:13:35Z</time>
      </trkpt>
      <trkpt lat="60.452551477795" lon="22.275026068147">
        <ele>4</ele>
        <time>2016-01-23T12:13:36Z</time>
      </trkpt>
      <trkpt lat="60.452552986537" lon="22.275027241613">
        <ele>4</ele>
        <time>2016-01-23T12:13:37Z</time>
      </trkpt>
      <trkpt lat="60.452555165831" lon="22.275027995984">
        <ele>4</ele>
        <time>2016-01-23T12:13:38Z</time>
      </trkpt>
      <trkpt lat="60.452557009849" lon="22.275029923821">
        <ele>4</ele>
        <time>2016-01-23T12:13:39Z</time>
      </trkpt>
      <trkpt lat="60.45255860241" lon="22.275031348744">
        <ele>4</ele>
        <time>2016-01-23T12:13:40Z</time>
      </trkpt>
      <trkpt lat="60.452559105324" lon="22.27503252221">
        <ele>4</ele>
        <time>2016-01-23T12:13:41Z</time>
      </trkpt>
      <trkpt lat="60.452560697885" lon="22.27503503678">
        <ele>4</ele>
        <time>2016-01-23T12:13:42Z</time>
      </trkpt>
      <trkpt lat="60.452560697885" lon="22.27503503678">
        <ele>4</ele>
        <time>2016-01-23T12:13:43Z</time>
      </trkpt>
      <trkpt lat="60.452560446428" lon="22.275035623513">
        <ele>4</ele>
        <time>2016-01-23T12:13:44Z</time>
      </trkpt>
      <trkpt lat="60.452559356781" lon="22.275035455875">
        <ele>4</ele>
        <time>2016-01-23T12:13:45Z</time>
      </trkpt>
      <trkpt lat="60.452559189143" lon="22.275034617685">
        <ele>4</ele>
        <time>2016-01-23T12:13:46Z</time>
      </trkpt>
      <trkpt lat="60.452560865523" lon="22.275036042608">
        <ele>4</ele>
        <time>2016-01-23T12:13:47Z</time>
      </trkpt>
      <trkpt lat="60.452563715369" lon="22.275038305721">
        <ele>4</ele>
        <time>2016-01-23T12:13:48Z</time>
      </trkpt>
      <trkpt lat="60.452568409233" lon="22.27503755135">
        <ele>4</ele>
        <time>2016-01-23T12:13:49Z</time>
      </trkpt>
      <trkpt lat="60.452571510536" lon="22.27503838954">
        <ele>4</ele>
        <time>2016-01-23T12:13:50Z</time>
      </trkpt>
      <trkpt lat="60.452574360382" lon="22.275043167223">
        <ele>4</ele>
        <time>2016-01-23T12:13:51Z</time>
      </trkpt>
      <trkpt lat="60.452580479169" lon="22.275048196363">
        <ele>4</ele>
        <time>2016-01-23T12:13:52Z</time>
      </trkpt>
      <trkpt lat="60.452585005395" lon="22.275052890227">
        <ele>4</ele>
        <time>2016-01-23T12:13:53Z</time>
      </trkpt>
      <trkpt lat="60.452587855241" lon="22.275056410625">
        <ele>4</ele>
        <time>2016-01-23T12:13:54Z</time>
      </trkpt>
      <trkpt lat="60.452591543277" lon="22.275058757557">
        <ele>4</ele>
        <time>2016-01-23T12:13:55Z</time>
      </trkpt>
      <trkpt lat="60.452594225485" lon="22.27506269705">
        <ele>4</ele>
        <time>2016-01-23T12:13:56Z</time>
      </trkpt>
      <trkpt lat="60.452596656236" lon="22.275062194136">
        <ele>4</ele>
        <time>2016-01-23T12:13:57Z</time>
      </trkpt>
      <trkpt lat="60.452599422263" lon="22.275061439765">
        <ele>4</ele>
        <time>2016-01-23T12:13:58Z</time>
      </trkpt>
      <trkpt lat="60.45259967372" lon="22.275064624887">
        <ele>4</ele>
        <time>2016-01-23T12:13:59Z</time>
      </trkpt>
      <trkpt lat="60.452598751711" lon="22.275068145285">
        <ele>4</ele>
        <time>2016-01-23T12:14:00Z</time>
      </trkpt>
      <trkpt lat="60.452599506082" lon="22.275070156941">
        <ele>4</ele>
        <time>2016-01-23T12:14:01Z</time>
      </trkpt>
      <trkpt lat="60.452601517738" lon="22.275069821665">
        <ele>4</ele>
        <time>2016-01-23T12:14:02Z</time>
      </trkpt>
      <trkpt lat="60.452602355928" lon="22.275069067294">
        <ele>4</ele>
        <time>2016-01-23T12:14:03Z</time>
      </trkpt>
      <trkpt lat="60.452603110299" lon="22.275069737846">
        <ele>4</ele>
        <time>2016-01-23T12:14:04Z</time>
      </trkpt>
      <trkpt lat="60.452604619041" lon="22.275071414226">
        <ele>4</ele>
        <time>2016-01-23T12:14:05Z</time>
      </trkpt>
      <trkpt lat="60.45260637924" lon="22.275072503873">
        <ele>4</ele>
        <time>2016-01-23T12:14:06Z</time>
      </trkpt>
      <trkpt lat="60.452607385068" lon="22.275073090606">
        <ele>4</ele>
        <time>2016-01-23T12:14:07Z</time>
      </trkpt>
      <trkpt lat="60.452609061448" lon="22.275073928796">
        <ele>4</ele>
        <time>2016-01-23T12:14:08Z</time>
      </trkpt>
      <trkpt lat="60.45261057019" lon="22.275074766986">
        <ele>4</ele>
        <time>2016-01-23T12:14:09Z</time>
      </trkpt>
      <trkpt lat="60.452611576018" lon="22.2750752699">
        <ele>4</ele>
        <time>2016-01-23T12:14:10Z</time>
      </trkpt>
      <trkpt lat="60.452614006769" lon="22.275076024271">
        <ele>4</ele>
        <time>2016-01-23T12:14:11Z</time>
      </trkpt>
      <trkpt lat="60.452614593502" lon="22.275076611004">
        <ele>4</ele>
        <time>2016-01-23T12:14:12Z</time>
      </trkpt>
      <trkpt lat="60.452615515511" lon="22.275077113918">
        <ele>4</ele>
        <time>2016-01-23T12:14:13Z</time>
      </trkpt>
      <trkpt lat="60.452615766968" lon="22.275077449194">
        <ele>4</ele>
        <time>2016-01-23T12:14:14Z</time>
      </trkpt>
      <trkpt lat="60.452615515511" lon="22.275077449194">
        <ele>4</ele>
        <time>2016-01-23T12:14:15Z</time>
      </trkpt>
      <trkpt lat="60.45261476114" lon="22.275077365375">
        <ele>4</ele>
        <time>2016-01-23T12:14:16Z</time>
      </trkpt>
      <trkpt lat="60.452614006769" lon="22.27507694628">
        <ele>4</ele>
        <time>2016-01-23T12:14:17Z</time>
      </trkpt>
      <trkpt lat="60.45261392295" lon="22.275076611004">
        <ele>4</ele>
        <time>2016-01-23T12:14:18Z</time>
      </trkpt>
      <trkpt lat="60.452614509683" lon="22.275076611004">
        <ele>4</ele>
        <time>2016-01-23T12:14:19Z</time>
      </trkpt>
      <trkpt lat="60.452615264054" lon="22.275077030099">
        <ele>4</ele>
        <time>2016-01-23T12:14:20Z</time>
      </trkpt>
      <trkpt lat="60.452615766968" lon="22.275077030099">
        <ele>4</ele>
        <time>2016-01-23T12:14:21Z</time>
      </trkpt>
      <trkpt lat="60.452615850787" lon="22.27507694628">
        <ele>4</ele>
        <time>2016-01-23T12:14:22Z</time>
      </trkpt>
      <trkpt lat="60.45261559933" lon="22.275076611004">
        <ele>4</ele>
        <time>2016-01-23T12:14:23Z</time>
      </trkpt>
      <trkpt lat="60.452614006769" lon="22.275076359547">
        <ele>4</ele>
        <time>2016-01-23T12:14:24Z</time>
      </trkpt>
      <trkpt lat="60.45261308476" lon="22.275076443366">
        <ele>4</ele>
        <time>2016-01-23T12:14:25Z</time>
      </trkpt>
      <trkpt lat="60.45261224657" lon="22.275076359547">
        <ele>4</ele>
        <time>2016-01-23T12:14:26Z</time>
      </trkpt>
      <trkpt lat="60.452610989285" lon="22.275075856633">
        <ele>4</ele>
        <time>2016-01-23T12:14:27Z</time>
      </trkpt>
      <trkpt lat="60.452609983457" lon="22.275075353719">
        <ele>4</ele>
        <time>2016-01-23T12:14:28Z</time>
      </trkpt>
      <trkpt lat="60.452609145267" lon="22.275074850805">
        <ele>4</ele>
        <time>2016-01-23T12:14:29Z</time>
      </trkpt>
      <trkpt lat="60.452608809991" lon="22.275074515529">
        <ele>4</ele>
        <time>2016-01-23T12:14:30Z</time>
      </trkpt>
      <trkpt lat="60.452608223258" lon="22.275074096434">
        <ele>4</ele>
        <time>2016-01-23T12:14:31Z</time>
      </trkpt>
      <trkpt lat="60.452607301249" lon="22.27507359352">
        <ele>4</ele>
        <time>2016-01-23T12:14:32Z</time>
      </trkpt>
      <trkpt lat="60.452606882154" lon="22.275073425882">
        <ele>4</ele>
        <time>2016-01-23T12:14:33Z</time>
      </trkpt>
      <trkpt lat="60.452606463059" lon="22.275073342063">
        <ele>4</ele>
        <time>2016-01-23T12:14:34Z</time>
      </trkpt>
      <trkpt lat="60.452606546878" lon="22.275072839149">
        <ele>4</ele>
        <time>2016-01-23T12:14:35Z</time>
      </trkpt>
      <trkpt lat="60.452606546878" lon="22.275072503873">
        <ele>4</ele>
        <time>2016-01-23T12:14:36Z</time>
      </trkpt>
      <trkpt lat="60.452605960145" lon="22.275072503873">
        <ele>4</ele>
        <time>2016-01-23T12:14:37Z</time>
      </trkpt>
      <trkpt lat="60.452605205774" lon="22.27507275533">
        <ele>4</ele>
        <time>2016-01-23T12:14:38Z</time>
      </trkpt>
      <trkpt lat="60.452604451403" lon="22.275073258244">
        <ele>4</ele>
        <time>2016-01-23T12:14:39Z</time>
      </trkpt>
      <trkpt lat="60.45260386467" lon="22.275073425882">
        <ele>4</ele>
        <time>2016-01-23T12:14:40Z</time>
      </trkpt>
      <trkpt lat="60.452603445575" lon="22.275073258244">
        <ele>4</ele>
        <time>2016-01-23T12:14:41Z</time>
      </trkpt>
      <trkpt lat="60.452602523566" lon="22.275071414226">
        <ele>4</ele>
        <time>2016-01-23T12:14:42Z</time>
      </trkpt>
      <trkpt lat="60.452600763367" lon="22.275067642371">
        <ele>4</ele>
        <time>2016-01-23T12:14:43Z</time>
      </trkpt>
      <trkpt lat="60.452598667892" lon="22.275065463077">
        <ele>4</ele>
        <time>2016-01-23T12:14:44Z</time>
      </trkpt>
      <trkpt lat="60.452599506082" lon="22.275064792525">
        <ele>4</ele>
        <time>2016-01-23T12:14:45Z</time>
      </trkpt>
      <trkpt lat="60.452602523566" lon="22.275065295439">
        <ele>4</ele>
        <time>2016-01-23T12:14:46Z</time>
      </trkpt>
      <trkpt lat="60.452614342045" lon="22.275073258244">
        <ele>4</ele>
        <time>2016-01-23T12:14:47Z</time>
      </trkpt>
      <trkpt lat="60.452621969574" lon="22.275075018443">
        <ele>4</ele>
        <time>2016-01-23T12:14:48Z</time>
      </trkpt>
      <trkpt lat="60.452635045338" lon="22.27508532818">
        <ele>4</ele>
        <time>2016-01-23T12:14:49Z</time>
      </trkpt>
      <trkpt lat="60.452644181609" lon="22.275092452795">
        <ele>4</ele>
        <time>2016-01-23T12:14:50Z</time>
      </trkpt>
      <trkpt lat="60.452655497174" lon="22.275099493591">
        <ele>4.4</ele>
        <time>2016-01-23T12:14:51Z</time>
      </trkpt>
      <trkpt lat="60.452673518259" lon="22.275111898803">
        <ele>4.8</ele>
        <time>2016-01-23T12:14:52Z</time>
      </trkpt>
      <trkpt lat="60.452698244864" lon="22.275118771961">
        <ele>5.2</ele>
        <time>2016-01-23T12:14:53Z</time>
      </trkpt>
      <trkpt lat="60.452711655904" lon="22.275123717282">
        <ele>5.6</ele>
        <time>2016-01-23T12:14:54Z</time>
      </trkpt>
      <trkpt lat="60.45273797507" lon="22.275140397263">
        <ele>5.8</ele>
        <time>2016-01-23T12:14:55Z</time>
      </trkpt>
      <trkpt lat="60.452767646996" lon="22.275146432231">
        <ele>5.2</ele>
        <time>2016-01-23T12:14:56Z</time>
      </trkpt>
      <trkpt lat="60.452788853203" lon="22.275157831615">
        <ele>4.6</ele>
        <time>2016-01-23T12:14:57Z</time>
      </trkpt>
      <trkpt lat="60.452818944224" lon="22.27517249994">
        <ele>4</ele>
        <time>2016-01-23T12:14:58Z</time>
      </trkpt>
      <trkpt lat="60.452841575354" lon="22.275170488284">
        <ele>3.6</ele>
        <time>2016-01-23T12:14:59Z</time>
      </trkpt>
      <trkpt lat="60.452866721054" lon="22.27519596926">
        <ele>3.2</ele>
        <time>2016-01-23T12:15:00Z</time>
      </trkpt>
      <trkpt lat="60.452890358012" lon="22.275217929838">
        <ele>3.2</ele>
        <time>2016-01-23T12:15:01Z</time>
      </trkpt>
      <trkpt lat="60.452913492056" lon="22.275223461892">
        <ele>3.2</ele>
        <time>2016-01-23T12:15:02Z</time>
      </trkpt>
      <trkpt lat="60.452948109303" lon="22.275241818253">
        <ele>3.2</ele>
        <time>2016-01-23T12:15:03Z</time>
      </trkpt>
      <trkpt lat="60.45297518284" lon="22.275251708895">
        <ele>3.2</ele>
        <time>2016-01-23T12:15:04Z</time>
      </trkpt>
      <trkpt lat="60.452997143418" lon="22.275264952297">
        <ele>3.2</ele>
        <time>2016-01-23T12:15:05Z</time>
      </trkpt>
      <trkpt lat="60.453013571942" lon="22.275275764948">
        <ele>3.2</ele>
        <time>2016-01-23T12:15:06Z</time>
      </trkpt>
      <trkpt lat="60.453024719869" lon="22.27529068473">
        <ele>3.2</ele>
        <time>2016-01-23T12:15:07Z</time>
      </trkpt>
      <trkpt lat="60.45303134157" lon="22.275294791861">
        <ele>3.2</ele>
        <time>2016-01-23T12:15:08Z</time>
      </trkpt>
      <trkpt lat="60.45303637071" lon="22.275305353055">
        <ele>3.4</ele>
        <time>2016-01-23T12:15:09Z</time>
      </trkpt>
      <trkpt lat="60.453031593027" lon="22.275299569544">
        <ele>3.8</ele>
        <time>2016-01-23T12:15:10Z</time>
      </trkpt>
      <trkpt lat="60.453034861968" lon="22.275312561489">
        <ele>4.2</ele>
        <time>2016-01-23T12:15:11Z</time>
      </trkpt>
      <trkpt lat="60.453036789805" lon="22.275311136566">
        <ele>4.6</ele>
        <time>2016-01-23T12:15:12Z</time>
      </trkpt>
      <trkpt lat="60.45303553252" lon="22.275322619769">
        <ele>5</ele>
        <time>2016-01-23T12:15:13Z</time>
      </trkpt>
      <trkpt lat="60.453038214728" lon="22.27534851984">
        <ele>5.2</ele>
        <time>2016-01-23T12:15:14Z</time>
      </trkpt>
      <trkpt lat="60.45303804709" lon="22.275355728274">
        <ele>5.2</ele>
        <time>2016-01-23T12:15:15Z</time>
      </trkpt>
      <trkpt lat="60.453035700158" lon="22.27536779821">
        <ele>5.2</ele>
        <time>2016-01-23T12:15:16Z</time>
      </trkpt>
      <trkpt lat="60.453034107597" lon="22.275376096291">
        <ele>5.2</ele>
        <time>2016-01-23T12:15:17Z</time>
      </trkpt>
      <trkpt lat="60.453035951615" lon="22.275369893685">
        <ele>5.2</ele>
        <time>2016-01-23T12:15:18Z</time>
      </trkpt>
      <trkpt lat="60.453031006294" lon="22.275379951965">
        <ele>5.2</ele>
        <time>2016-01-23T12:15:19Z</time>
      </trkpt>
      <trkpt lat="60.453030251923" lon="22.275381125431">
        <ele>5.2</ele>
        <time>2016-01-23T12:15:20Z</time>
      </trkpt>
      <trkpt lat="60.453030084285" lon="22.275382298897">
        <ele>5.2</ele>
        <time>2016-01-23T12:15:21Z</time>
      </trkpt>
      <trkpt lat="60.453029162276" lon="22.275385148743">
        <ele>5.2</ele>
        <time>2016-01-23T12:15:22Z</time>
      </trkpt>
      <trkpt lat="60.453028743181" lon="22.275386908942">
        <ele>5.2</ele>
        <time>2016-01-23T12:15:23Z</time>
      </trkpt>
      <trkpt lat="60.453028324086" lon="22.275389004417">
        <ele>5.2</ele>
        <time>2016-01-23T12:15:24Z</time>
      </trkpt>
      <trkpt lat="60.453027485896" lon="22.275391435168">
        <ele>5.2</ele>
        <time>2016-01-23T12:15:25Z</time>
      </trkpt>
      <trkpt lat="60.453027318258" lon="22.27539294391">
        <ele>5.2</ele>
        <time>2016-01-23T12:15:26Z</time>
      </trkpt>
      <trkpt lat="60.453026060973" lon="22.27539462029">
        <ele>5.2</ele>
        <time>2016-01-23T12:15:27Z</time>
      </trkpt>
      <trkpt lat="60.453025222783" lon="22.275397889231">
        <ele>5.2</ele>
        <time>2016-01-23T12:15:28Z</time>
      </trkpt>
      <trkpt lat="60.453023378765" lon="22.275402834552">
        <ele>5.2</ele>
        <time>2016-01-23T12:15:29Z</time>
      </trkpt>
      <trkpt lat="60.453021870023" lon="22.27540551676">
        <ele>5.2</ele>
        <time>2016-01-23T12:15:30Z</time>
      </trkpt>
      <trkpt lat="60.453022205299" lon="22.275403588923">
        <ele>5.2</ele>
        <time>2016-01-23T12:15:31Z</time>
      </trkpt>
      <trkpt lat="60.453022289118" lon="22.275402247819">
        <ele>5.2</ele>
        <time>2016-01-23T12:15:32Z</time>
      </trkpt>
      <trkpt lat="60.453021953842" lon="22.275405097665">
        <ele>5.2</ele>
        <time>2016-01-23T12:15:33Z</time>
      </trkpt>
      <trkpt lat="60.453022205299" lon="22.275409623891">
        <ele>5.2</ele>
        <time>2016-01-23T12:15:34Z</time>
      </trkpt>
      <trkpt lat="60.453021367109" lon="22.275413311927">
        <ele>5.2</ele>
        <time>2016-01-23T12:15:35Z</time>
      </trkpt>
      <trkpt lat="60.453020696557" lon="22.275415910316">
        <ele>5.2</ele>
        <time>2016-01-23T12:15:36Z</time>
      </trkpt>
      <trkpt lat="60.453020780376" lon="22.275417838153">
        <ele>5.2</ele>
        <time>2016-01-23T12:15:37Z</time>
      </trkpt>
      <trkpt lat="60.453021115652" lon="22.275419095438">
        <ele>5.2</ele>
        <time>2016-01-23T12:15:38Z</time>
      </trkpt>
      <trkpt lat="60.453020948014" lon="22.275420101266">
        <ele>5.2</ele>
        <time>2016-01-23T12:15:39Z</time>
      </trkpt>
      <trkpt lat="60.453020277462" lon="22.275421358551">
        <ele>5.2</ele>
        <time>2016-01-23T12:15:40Z</time>
      </trkpt>
      <trkpt lat="60.453019355453" lon="22.275422532017">
        <ele>5.2</ele>
        <time>2016-01-23T12:15:41Z</time>
      </trkpt>
      <trkpt lat="60.45301876872" lon="22.275423454026">
        <ele>5.2</ele>
        <time>2016-01-23T12:15:42Z</time>
      </trkpt>
      <trkpt lat="60.453018098168" lon="22.275424543673">
        <ele>5.2</ele>
        <time>2016-01-23T12:15:43Z</time>
      </trkpt>
      <trkpt lat="60.453017259978" lon="22.275425968596">
        <ele>5.2</ele>
        <time>2016-01-23T12:15:44Z</time>
      </trkpt>
      <trkpt lat="60.453016589426" lon="22.275427225881">
        <ele>5.2</ele>
        <time>2016-01-23T12:15:45Z</time>
      </trkpt>
      <trkpt lat="60.453014493951" lon="22.275429740451">
        <ele>5.2</ele>
        <time>2016-01-23T12:15:46Z</time>
      </trkpt>
      <trkpt lat="60.453010722096" lon="22.275432255021">
        <ele>5.2</ele>
        <time>2016-01-23T12:15:47Z</time>
      </trkpt>
      <trkpt lat="60.453007620793" lon="22.275432171202">
        <ele>5.2</ele>
        <time>2016-01-23T12:15:48Z</time>
      </trkpt>
      <trkpt lat="60.453006447327" lon="22.275428650804">
        <ele>5</ele>
        <time>2016-01-23T12:15:49Z</time>
      </trkpt>
      <trkpt lat="60.453006112051" lon="22.275426555329">
        <ele>5</ele>
        <time>2016-01-23T12:15:50Z</time>
      </trkpt>
      <trkpt lat="60.453006950241" lon="22.27542563332">
        <ele>5</ele>
        <time>2016-01-23T12:15:51Z</time>
      </trkpt>
      <trkpt lat="60.45300787225" lon="22.275425214225">
        <ele>5</ele>
        <time>2016-01-23T12:15:52Z</time>
      </trkpt>
      <trkpt lat="60.453008375164" lon="22.275425214225">
        <ele>5</ele>
        <time>2016-01-23T12:15:53Z</time>
      </trkpt>
      <trkpt lat="60.45300871044" lon="22.275425214225">
        <ele>5</ele>
        <time>2016-01-23T12:15:54Z</time>
      </trkpt>
      <trkpt lat="60.453008458983" lon="22.275425800958">
        <ele>5</ele>
        <time>2016-01-23T12:15:55Z</time>
      </trkpt>
      <trkpt lat="60.453007117879" lon="22.27542563332">
        <ele>5</ele>
        <time>2016-01-23T12:15:56Z</time>
      </trkpt>
      <trkpt lat="60.453005944413" lon="22.275425298044">
        <ele>5</ele>
        <time>2016-01-23T12:15:57Z</time>
      </trkpt>
      <trkpt lat="60.453005022404" lon="22.275425549501">
        <ele>5</ele>
        <time>2016-01-23T12:15:58Z</time>
      </trkpt>
      <trkpt lat="60.453003848938" lon="22.27542563332">
        <ele>5</ele>
        <time>2016-01-23T12:15:59Z</time>
      </trkpt>
      <trkpt lat="60.45300284311" lon="22.275425717139">
        <ele>5</ele>
        <time>2016-01-23T12:16:00Z</time>
      </trkpt>
      <trkpt lat="60.45300200492" lon="22.275425800958">
        <ele>5.4</ele>
        <time>2016-01-23T12:16:01Z</time>
      </trkpt>
      <trkpt lat="60.453000915273" lon="22.275426220053">
        <ele>5.6</ele>
        <time>2016-01-23T12:16:02Z</time>
      </trkpt>
      <trkpt lat="60.452999825626" lon="22.275426555329">
        <ele>6</ele>
        <time>2016-01-23T12:16:03Z</time>
      </trkpt>
      <trkpt lat="60.452998819798" lon="22.275426890605">
        <ele>6.2</ele>
        <time>2016-01-23T12:16:04Z</time>
      </trkpt>
      <trkpt lat="60.45299781397" lon="22.275427393519">
        <ele>6.6</ele>
        <time>2016-01-23T12:16:05Z</time>
      </trkpt>
      <trkpt lat="60.452997059599" lon="22.275427561157">
        <ele>6.8</ele>
        <time>2016-01-23T12:16:06Z</time>
      </trkpt>
      <trkpt lat="60.452996472866" lon="22.27542814789">
        <ele>7</ele>
        <time>2016-01-23T12:16:07Z</time>
      </trkpt>
      <trkpt lat="60.452995047943" lon="22.275429153718">
        <ele>7</ele>
        <time>2016-01-23T12:16:08Z</time>
      </trkpt>
      <trkpt lat="60.452993455382" lon="22.275429991908">
        <ele>7</ele>
        <time>2016-01-23T12:16:09Z</time>
      </trkpt>
      <trkpt lat="60.452992868649" lon="22.275430243365">
        <ele>7</ele>
        <time>2016-01-23T12:16:10Z</time>
      </trkpt>
      <trkpt lat="60.452992114278" lon="22.275430327184">
        <ele>7</ele>
        <time>2016-01-23T12:16:11Z</time>
      </trkpt>
      <trkpt lat="60.452991779002" lon="22.275430746279">
        <ele>7</ele>
        <time>2016-01-23T12:16:12Z</time>
      </trkpt>
      <trkpt lat="60.452991024631" lon="22.275430913917">
        <ele>7.2</ele>
        <time>2016-01-23T12:16:13Z</time>
      </trkpt>
      <trkpt lat="60.452990689355" lon="22.275431416831">
        <ele>7.6</ele>
        <time>2016-01-23T12:16:14Z</time>
      </trkpt>
      <trkpt lat="60.452991359907" lon="22.27543150065">
        <ele>8</ele>
        <time>2016-01-23T12:16:15Z</time>
      </trkpt>
      <trkpt lat="60.452990856993" lon="22.275430913917">
        <ele>8.4</ele>
        <time>2016-01-23T12:16:16Z</time>
      </trkpt>
      <trkpt lat="60.452990773174" lon="22.275430830098">
        <ele>8.8</ele>
        <time>2016-01-23T12:16:17Z</time>
      </trkpt>
      <trkpt lat="60.452991695183" lon="22.275430327184">
        <ele>9.2</ele>
        <time>2016-01-23T12:16:18Z</time>
      </trkpt>
      <trkpt lat="60.452992114278" lon="22.275430327184">
        <ele>9.2</ele>
        <time>2016-01-23T12:16:19Z</time>
      </trkpt>
      <trkpt lat="60.452992198097" lon="22.275430830098">
        <ele>9.2</ele>
        <time>2016-01-23T12:16:20Z</time>
      </trkpt>
      <trkpt lat="60.452992281916" lon="22.275430913917">
        <ele>9.2</ele>
        <time>2016-01-23T12:16:21Z</time>
      </trkpt>
      <trkpt lat="60.452992281916" lon="22.275430746279">
        <ele>9.2</ele>
        <time>2016-01-23T12:16:22Z</time>
      </trkpt>
      <trkpt lat="60.452992365735" lon="22.275430494822">
        <ele>9.2</ele>
        <time>2016-01-23T12:16:23Z</time>
      </trkpt>
      <trkpt lat="60.452992701011" lon="22.27543066246">
        <ele>9.2</ele>
        <time>2016-01-23T12:16:24Z</time>
      </trkpt>
      <trkpt lat="60.452993203925" lon="22.27543066246">
        <ele>9.2</ele>
        <time>2016-01-23T12:16:25Z</time>
      </trkpt>
      <trkpt lat="60.45299362302" lon="22.275430159546">
        <ele>9.2</ele>
        <time>2016-01-23T12:16:26Z</time>
      </trkpt>
      <trkpt lat="60.45299362302" lon="22.275429656632">
        <ele>9.2</ele>
        <time>2016-01-23T12:16:27Z</time>
      </trkpt>
      <trkpt lat="60.452993371563" lon="22.275428399347">
        <ele>9.2</ele>
        <time>2016-01-23T12:16:28Z</time>
      </trkpt>
      <trkpt lat="60.45299278483" lon="22.275426303872">
        <ele>9.2</ele>
        <time>2016-01-23T12:16:29Z</time>
      </trkpt>
      <trkpt lat="60.45299194664" lon="22.275425465682">
        <ele>9.2</ele>
        <time>2016-01-23T12:16:30Z</time>
      </trkpt>
      <trkpt lat="60.452991443726" lon="22.275425214225">
        <ele>9.2</ele>
        <time>2016-01-23T12:16:31Z</time>
      </trkpt>
      <trkpt lat="60.452991611364" lon="22.275425298044">
        <ele>9.2</ele>
        <time>2016-01-23T12:16:32Z</time>
      </trkpt>
      <trkpt lat="60.452993287744" lon="22.275425717139">
        <ele>9.4</ele>
        <time>2016-01-23T12:16:33Z</time>
      </trkpt>
      <trkpt lat="60.452995047943" lon="22.275425800958">
        <ele>9.4</ele>
        <time>2016-01-23T12:16:34Z</time>
      </trkpt>
      <trkpt lat="60.452995550857" lon="22.275425800958">
        <ele>9.4</ele>
        <time>2016-01-23T12:16:35Z</time>
      </trkpt>
      <trkpt lat="60.452995802314" lon="22.275425214225">
        <ele>9.4</ele>
        <time>2016-01-23T12:16:36Z</time>
      </trkpt>
      <trkpt lat="60.452995969952" lon="22.275424962768">
        <ele>9.4</ele>
        <time>2016-01-23T12:16:37Z</time>
      </trkpt>
      <trkpt lat="60.452996808142" lon="22.27542479513">
        <ele>9.4</ele>
        <time>2016-01-23T12:16:38Z</time>
      </trkpt>
      <trkpt lat="60.452997562513" lon="22.275424962768">
        <ele>9.4</ele>
        <time>2016-01-23T12:16:39Z</time>
      </trkpt>
      <trkpt lat="60.45299865216" lon="22.275424543673">
        <ele>9.4</ele>
        <time>2016-01-23T12:16:40Z</time>
      </trkpt>
      <trkpt lat="60.45299949035" lon="22.275424543673">
        <ele>9.4</ele>
        <time>2016-01-23T12:16:41Z</time>
      </trkpt>
      <trkpt lat="60.452999657988" lon="22.275425717139">
        <ele>9.4</ele>
        <time>2016-01-23T12:16:42Z</time>
      </trkpt>
      <trkpt lat="60.453000412359" lon="22.275426555329">
        <ele>9.4</ele>
        <time>2016-01-23T12:16:43Z</time>
      </trkpt>
      <trkpt lat="60.453000999092" lon="22.275426806786">
        <ele>9.4</ele>
        <time>2016-01-23T12:16:44Z</time>
      </trkpt>
      <trkpt lat="60.453001250549" lon="22.275426890605">
        <ele>9.4</ele>
        <time>2016-01-23T12:16:45Z</time>
      </trkpt>
      <trkpt lat="60.453001669644" lon="22.275427142062">
        <ele>9.4</ele>
        <time>2016-01-23T12:16:46Z</time>
      </trkpt>
      <trkpt lat="60.453002424015" lon="22.275427393519">
        <ele>9.4</ele>
        <time>2016-01-23T12:16:47Z</time>
      </trkpt>
      <trkpt lat="60.453002675472" lon="22.275428734623">
        <ele>9.4</ele>
        <time>2016-01-23T12:16:48Z</time>
      </trkpt>
      <trkpt lat="60.45300284311" lon="22.275430913917">
        <ele>9.2</ele>
        <time>2016-01-23T12:16:49Z</time>
      </trkpt>
      <trkpt lat="60.453003597481" lon="22.275432925573">
        <ele>8.8</ele>
        <time>2016-01-23T12:16:50Z</time>
      </trkpt>
      <trkpt lat="60.453004100395" lon="22.275435104867">
        <ele>8.4</ele>
        <time>2016-01-23T12:16:51Z</time>
      </trkpt>
      <trkpt lat="60.453004603309" lon="22.275436194514">
        <ele>8</ele>
        <time>2016-01-23T12:16:52Z</time>
      </trkpt>
      <trkpt lat="60.453005525318" lon="22.275436110695">
        <ele>7.6</ele>
        <time>2016-01-23T12:16:53Z</time>
      </trkpt>
      <trkpt lat="60.453005609137" lon="22.275436613609">
        <ele>7.4</ele>
        <time>2016-01-23T12:16:54Z</time>
      </trkpt>
      <trkpt lat="60.453005776775" lon="22.275436445971">
        <ele>7.4</ele>
        <time>2016-01-23T12:16:55Z</time>
      </trkpt>
      <trkpt lat="60.453005525318" lon="22.275437535618">
        <ele>7.4</ele>
        <time>2016-01-23T12:16:56Z</time>
      </trkpt>
      <trkpt lat="60.453004100395" lon="22.275438122351">
        <ele>7.4</ele>
        <time>2016-01-23T12:16:57Z</time>
      </trkpt>
      <trkpt lat="60.453003513662" lon="22.275437535618">
        <ele>7.4</ele>
        <time>2016-01-23T12:16:58Z</time>
      </trkpt>
      <trkpt lat="60.453003597481" lon="22.275437619437">
        <ele>7.4</ele>
        <time>2016-01-23T12:16:59Z</time>
      </trkpt>
      <trkpt lat="60.453004184214" lon="22.275437451799">
        <ele>7.4</ele>
        <time>2016-01-23T12:17:00Z</time>
      </trkpt>
      <trkpt lat="60.453005525318" lon="22.275438625265">
        <ele>7.4</ele>
        <time>2016-01-23T12:17:01Z</time>
      </trkpt>
      <trkpt lat="60.453006698784" lon="22.275440301645">
        <ele>7.4</ele>
        <time>2016-01-23T12:17:02Z</time>
      </trkpt>
      <trkpt lat="60.453007117879" lon="22.275440888378">
        <ele>7.4</ele>
        <time>2016-01-23T12:17:03Z</time>
      </trkpt>
      <trkpt lat="60.453007369336" lon="22.275440888378">
        <ele>7.4</ele>
        <time>2016-01-23T12:17:04Z</time>
      </trkpt>
      <trkpt lat="60.453007453155" lon="22.275440804559">
        <ele>7.4</ele>
        <time>2016-01-23T12:17:05Z</time>
      </trkpt>
      <trkpt lat="60.453007201698" lon="22.275441139835">
        <ele>7.4</ele>
        <time>2016-01-23T12:17:06Z</time>
      </trkpt>
      <trkpt lat="60.453006950241" lon="22.275441642749">
        <ele>7.4</ele>
        <time>2016-01-23T12:17:07Z</time>
      </trkpt>
      <trkpt lat="60.453006782603" lon="22.275441726568">
        <ele>7.4</ele>
        <time>2016-01-23T12:17:08Z</time>
      </trkpt>
      <trkpt lat="60.453007117879" lon="22.275441726568">
        <ele>7.4</ele>
        <time>2016-01-23T12:17:09Z</time>
      </trkpt>
      <trkpt lat="60.453007704612" lon="22.275441307473">
        <ele>7.4</ele>
        <time>2016-01-23T12:17:10Z</time>
      </trkpt>
      <trkpt lat="60.45300787225" lon="22.275440301645">
        <ele>7.4</ele>
        <time>2016-01-23T12:17:11Z</time>
      </trkpt>
      <trkpt lat="60.453008458983" lon="22.275439295817">
        <ele>7.4</ele>
        <time>2016-01-23T12:17:12Z</time>
      </trkpt>
      <trkpt lat="60.45300954863" lon="22.275437703256">
        <ele>7.4</ele>
        <time>2016-01-23T12:17:13Z</time>
      </trkpt>
      <trkpt lat="60.453009716268" lon="22.27543820617">
        <ele>7.4</ele>
        <time>2016-01-23T12:17:14Z</time>
      </trkpt>
      <trkpt lat="60.453010219182" lon="22.275438122351">
        <ele>7.4</ele>
        <time>2016-01-23T12:17:15Z</time>
      </trkpt>
      <trkpt lat="60.453010722096" lon="22.275437954713">
        <ele>7.4</ele>
        <time>2016-01-23T12:17:16Z</time>
      </trkpt>
      <trkpt lat="60.453011308829" lon="22.275437703256">
        <ele>7.4</ele>
        <time>2016-01-23T12:17:17Z</time>
      </trkpt>
      <trkpt lat="60.453011644105" lon="22.275437535618">
        <ele>7.4</ele>
        <time>2016-01-23T12:17:18Z</time>
      </trkpt>
      <trkpt lat="60.453011560286" lon="22.275437535618">
        <ele>7.4</ele>
        <time>2016-01-23T12:17:19Z</time>
      </trkpt>
      <trkpt lat="60.453010805915" lon="22.275436445971">
        <ele>7.4</ele>
        <time>2016-01-23T12:17:20Z</time>
      </trkpt>
      <trkpt lat="60.453010470639" lon="22.275435188686">
        <ele>7.4</ele>
        <time>2016-01-23T12:17:21Z</time>
      </trkpt>
      <trkpt lat="60.453011308829" lon="22.275435188686">
        <ele>7.4</ele>
        <time>2016-01-23T12:17:22Z</time>
      </trkpt>
      <trkpt lat="60.4530120632" lon="22.275434434315">
        <ele>7.4</ele>
        <time>2016-01-23T12:17:23Z</time>
      </trkpt>
      <trkpt lat="60.453013823399" lon="22.275435188686">
        <ele>7.4</ele>
        <time>2016-01-23T12:17:24Z</time>
      </trkpt>
      <trkpt lat="60.453015164503" lon="22.275436697428">
        <ele>7.4</ele>
        <time>2016-01-23T12:17:25Z</time>
      </trkpt>
      <trkpt lat="60.45301541596" lon="22.275436026876">
        <ele>7.4</ele>
        <time>2016-01-23T12:17:26Z</time>
      </trkpt>
      <trkpt lat="60.453015499779" lon="22.275434937229">
        <ele>7.4</ele>
        <time>2016-01-23T12:17:27Z</time>
      </trkpt>
      <trkpt lat="60.453015583598" lon="22.275435356324">
        <ele>7.4</ele>
        <time>2016-01-23T12:17:28Z</time>
      </trkpt>
      <trkpt lat="60.453015499779" lon="22.27543485341">
        <ele>7.4</ele>
        <time>2016-01-23T12:17:29Z</time>
      </trkpt>
      <trkpt lat="60.45301541596" lon="22.275433596125">
        <ele>7.4</ele>
        <time>2016-01-23T12:17:30Z</time>
      </trkpt>
      <trkpt lat="60.453015667417" lon="22.275433428487">
        <ele>7.4</ele>
        <time>2016-01-23T12:17:31Z</time>
      </trkpt>
      <trkpt lat="60.453016421788" lon="22.275431919745">
        <ele>7.4</ele>
        <time>2016-01-23T12:17:32Z</time>
      </trkpt>
      <trkpt lat="60.453017679073" lon="22.275429740451">
        <ele>7.4</ele>
        <time>2016-01-23T12:17:33Z</time>
      </trkpt>
      <trkpt lat="60.453018349625" lon="22.275427561157">
        <ele>7.4</ele>
        <time>2016-01-23T12:17:34Z</time>
      </trkpt>
      <trkpt lat="60.453018684901" lon="22.275426722967">
        <ele>7.4</ele>
        <time>2016-01-23T12:17:35Z</time>
      </trkpt>
      <trkpt lat="60.453019271634" lon="22.275426806786">
        <ele>7.4</ele>
        <time>2016-01-23T12:17:36Z</time>
      </trkpt>
      <trkpt lat="60.453019271634" lon="22.275426639148">
        <ele>7.4</ele>
        <time>2016-01-23T12:17:37Z</time>
      </trkpt>
      <trkpt lat="60.453019103996" lon="22.275426639148">
        <ele>7.4</ele>
        <time>2016-01-23T12:17:38Z</time>
      </trkpt>
      <trkpt lat="60.453019523091" lon="22.275426303872">
        <ele>7.4</ele>
        <time>2016-01-23T12:17:39Z</time>
      </trkpt>
      <trkpt lat="60.453020780376" lon="22.275423202569">
        <ele>7.4</ele>
        <time>2016-01-23T12:17:40Z</time>
      </trkpt>
      <trkpt lat="60.453021702385" lon="22.275420017447">
        <ele>7.4</ele>
        <time>2016-01-23T12:17:41Z</time>
      </trkpt>
      <trkpt lat="60.45302128329" lon="22.275420017447">
        <ele>7.4</ele>
        <time>2016-01-23T12:17:42Z</time>
      </trkpt>
      <trkpt lat="60.453021115652" lon="22.275419430714">
        <ele>7.4</ele>
        <time>2016-01-23T12:17:43Z</time>
      </trkpt>
      <trkpt lat="60.45302128329" lon="22.275418592524">
        <ele>7.4</ele>
        <time>2016-01-23T12:17:44Z</time>
      </trkpt>
      <trkpt lat="60.453021367109" lon="22.275418760162">
        <ele>7.4</ele>
        <time>2016-01-23T12:17:45Z</time>
      </trkpt>
      <trkpt lat="60.453021115652" lon="22.275420101266">
        <ele>7.4</ele>
        <time>2016-01-23T12:17:46Z</time>
      </trkpt>
      <trkpt lat="60.453020864195" lon="22.275422112922">
        <ele>7.4</ele>
        <time>2016-01-23T12:17:47Z</time>
      </trkpt>
      <trkpt lat="60.45302128329" lon="22.27542479513">
        <ele>7.4</ele>
        <time>2016-01-23T12:17:48Z</time>
      </trkpt>
      <trkpt lat="60.453022624394" lon="22.275426890605">
        <ele>7.4</ele>
        <time>2016-01-23T12:17:49Z</time>
      </trkpt>
      <trkpt lat="60.453023965498" lon="22.275428231709">
        <ele>7.4</ele>
        <time>2016-01-23T12:17:50Z</time>
      </trkpt>
      <trkpt lat="60.453024216955" lon="22.275427728795">
        <ele>7.4</ele>
        <time>2016-01-23T12:17:51Z</time>
      </trkpt>
      <trkpt lat="60.453023546403" lon="22.275425800958">
        <ele>7.4</ele>
        <time>2016-01-23T12:17:52Z</time>
      </trkpt>
      <trkpt lat="60.45302295967" lon="22.275426052415">
        <ele>7.4</ele>
        <time>2016-01-23T12:17:53Z</time>
      </trkpt>
      <trkpt lat="60.453022875851" lon="22.275425298044">
        <ele>7.2</ele>
        <time>2016-01-23T12:17:54Z</time>
      </trkpt>
      <trkpt lat="60.453022708213" lon="22.275425046587">
        <ele>6.8</ele>
        <time>2016-01-23T12:17:55Z</time>
      </trkpt>
      <trkpt lat="60.453022289118" lon="22.275425465682">
        <ele>6.2</ele>
        <time>2016-01-23T12:17:56Z</time>
      </trkpt>
      <trkpt lat="60.45302212148" lon="22.275425465682">
        <ele>6</ele>
        <time>2016-01-23T12:17:57Z</time>
      </trkpt>
      <trkpt lat="60.453021870023" lon="22.275425465682">
        <ele>5.8</ele>
        <time>2016-01-23T12:17:58Z</time>
      </trkpt>
      <trkpt lat="60.453021450928" lon="22.275425465682">
        <ele>5.4</ele>
        <time>2016-01-23T12:17:59Z</time>
      </trkpt>
      <trkpt lat="60.45302128329" lon="22.275425717139">
        <ele>5.4</ele>
        <time>2016-01-23T12:18:00Z</time>
      </trkpt>
      <trkpt lat="60.453020780376" lon="22.275426220053">
        <ele>5.4</ele>
        <time>2016-01-23T12:18:01Z</time>
      </trkpt>
      <trkpt lat="60.453020109824" lon="22.275427142062">
        <ele>5.4</ele>
        <time>2016-01-23T12:18:02Z</time>
      </trkpt>
      <trkpt lat="60.453019103996" lon="22.275429656632">
        <ele>5.4</ele>
        <time>2016-01-23T12:18:03Z</time>
      </trkpt>
      <trkpt lat="60.453018181987" lon="22.275433763763">
        <ele>5.4</ele>
        <time>2016-01-23T12:18:04Z</time>
      </trkpt>
      <trkpt lat="60.453019020177" lon="22.275434769591">
        <ele>5.4</ele>
        <time>2016-01-23T12:18:05Z</time>
      </trkpt>
      <trkpt lat="60.453019020177" lon="22.275435104867">
        <ele>5.4</ele>
        <time>2016-01-23T12:18:06Z</time>
      </trkpt>
      <trkpt lat="60.453018684901" lon="22.275435440143">
        <ele>5.4</ele>
        <time>2016-01-23T12:18:07Z</time>
      </trkpt>
      <trkpt lat="60.453018684901" lon="22.275435607781">
        <ele>5.4</ele>
        <time>2016-01-23T12:18:08Z</time>
      </trkpt>
      <trkpt lat="60.45301876872" lon="22.2754356916">
        <ele>5.4</ele>
        <time>2016-01-23T12:18:09Z</time>
      </trkpt>
      <trkpt lat="60.453019020177" lon="22.275435859238">
        <ele>5.4</ele>
        <time>2016-01-23T12:18:10Z</time>
      </trkpt>
      <trkpt lat="60.453019187815" lon="22.275435859238">
        <ele>5.4</ele>
        <time>2016-01-23T12:18:11Z</time>
      </trkpt>
      <trkpt lat="60.453019523091" lon="22.275436026876">
        <ele>5.4</ele>
        <time>2016-01-23T12:18:12Z</time>
      </trkpt>
      <trkpt lat="60.453019523091" lon="22.275438625265">
        <ele>5.4</ele>
        <time>2016-01-23T12:18:13Z</time>
      </trkpt>
      <trkpt lat="60.45301960691" lon="22.275438625265">
        <ele>5.4</ele>
        <time>2016-01-23T12:18:14Z</time>
      </trkpt>
      <trkpt lat="60.453019355453" lon="22.275437200342">
        <ele>5.4</ele>
        <time>2016-01-23T12:18:15Z</time>
      </trkpt>
      <trkpt lat="60.453019942186" lon="22.275436194514">
        <ele>5.4</ele>
        <time>2016-01-23T12:18:16Z</time>
      </trkpt>
      <trkpt lat="60.453020109824" lon="22.275434601953">
        <ele>5.4</ele>
        <time>2016-01-23T12:18:17Z</time>
      </trkpt>
      <trkpt lat="60.4530204451" lon="22.275432925573">
        <ele>5.4</ele>
        <time>2016-01-23T12:18:18Z</time>
      </trkpt>
      <trkpt lat="60.453020696557" lon="22.275430997736">
        <ele>5.4</ele>
        <time>2016-01-23T12:18:19Z</time>
      </trkpt>
      <trkpt lat="60.453021115652" lon="22.275429991908">
        <ele>5.4</ele>
        <time>2016-01-23T12:18:20Z</time>
      </trkpt>
      <trkpt lat="60.453021450928" lon="22.27543066246">
        <ele>5.4</ele>
        <time>2016-01-23T12:18:21Z</time>
      </trkpt>
      <trkpt lat="60.453021450928" lon="22.275427644976">
        <ele>5.4</ele>
        <time>2016-01-23T12:18:22Z</time>
      </trkpt>
      <trkpt lat="60.453025138964" lon="22.275413563384">
        <ele>5.4</ele>
        <time>2016-01-23T12:18:23Z</time>
      </trkpt>
      <trkpt lat="60.453022792032" lon="22.275420520361">
        <ele>5.4</ele>
        <time>2016-01-23T12:18:24Z</time>
      </trkpt>
      <trkpt lat="60.453027569715" lon="22.275410294443">
        <ele>5.4</ele>
        <time>2016-01-23T12:18:25Z</time>
      </trkpt>
      <trkpt lat="60.453030754837" lon="22.275409204796">
        <ele>5.4</ele>
        <time>2016-01-23T12:18:26Z</time>
      </trkpt>
      <trkpt lat="60.453037125081" lon="22.275412892832">
        <ele>5.4</ele>
        <time>2016-01-23T12:18:27Z</time>
      </trkpt>
      <trkpt lat="60.453034442873" lon="22.275409120977">
        <ele>5.4</ele>
        <time>2016-01-23T12:18:28Z</time>
      </trkpt>
      <trkpt lat="60.453039304375" lon="22.275411216452">
        <ele>5.4</ele>
        <time>2016-01-23T12:18:29Z</time>
      </trkpt>
      <trkpt lat="60.45304056166" lon="22.275411048814">
        <ele>5.4</ele>
        <time>2016-01-23T12:18:30Z</time>
      </trkpt>
      <trkpt lat="60.453041818945" lon="22.275410042986">
        <ele>5.4</ele>
        <time>2016-01-23T12:18:31Z</time>
      </trkpt>
      <trkpt lat="60.453045255524" lon="22.275409037158">
        <ele>5.4</ele>
        <time>2016-01-23T12:18:32Z</time>
      </trkpt>
      <trkpt lat="60.453048273008" lon="22.275408953339">
        <ele>5.4</ele>
        <time>2016-01-23T12:18:33Z</time>
      </trkpt>
      <trkpt lat="60.453049614112" lon="22.275410713538">
        <ele>5.4</ele>
        <time>2016-01-23T12:18:34Z</time>
      </trkpt>
      <trkpt lat="60.45304978175" lon="22.275412306099">
        <ele>5.4</ele>
        <time>2016-01-23T12:18:35Z</time>
      </trkpt>
      <trkpt lat="60.453049446474" lon="22.275411803185">
        <ele>5.4</ele>
        <time>2016-01-23T12:18:36Z</time>
      </trkpt>
      <trkpt lat="60.45304894356" lon="22.275411048814">
        <ele>5.4</ele>
        <time>2016-01-23T12:18:37Z</time>
      </trkpt>
      <trkpt lat="60.453048692103" lon="22.275410629719">
        <ele>5.4</ele>
        <time>2016-01-23T12:18:38Z</time>
      </trkpt>
      <trkpt lat="60.453048608284" lon="22.275411048814">
        <ele>5.4</ele>
        <time>2016-01-23T12:18:39Z</time>
      </trkpt>
      <trkpt lat="60.453049111198" lon="22.275410210624">
        <ele>5.4</ele>
        <time>2016-01-23T12:18:40Z</time>
      </trkpt>
      <trkpt lat="60.453050368483" lon="22.27540886952">
        <ele>5.4</ele>
        <time>2016-01-23T12:18:41Z</time>
      </trkpt>
      <trkpt lat="60.453051961044" lon="22.275408450425">
        <ele>5.4</ele>
        <time>2016-01-23T12:18:42Z</time>
      </trkpt>
      <trkpt lat="60.453060342944" lon="22.275408785701">
        <ele>5.4</ele>
        <time>2016-01-23T12:18:43Z</time>
      </trkpt>
      <trkpt lat="60.453064198618" lon="22.275412976651">
        <ele>5.4</ele>
        <time>2016-01-23T12:18:44Z</time>
      </trkpt>
      <trkpt lat="60.453071155595" lon="22.275411132633">
        <ele>5.4</ele>
        <time>2016-01-23T12:18:45Z</time>
      </trkpt>
      <trkpt lat="60.453065623541" lon="22.275410462081">
        <ele>5.4</ele>
        <time>2016-01-23T12:18:46Z</time>
      </trkpt>
      <trkpt lat="60.453080543323" lon="22.275402080181">
        <ele>5.4</ele>
        <time>2016-01-23T12:18:47Z</time>
      </trkpt>
      <trkpt lat="60.453085907739" lon="22.275399314154">
        <ele>5.4</ele>
        <time>2016-01-23T12:18:48Z</time>
      </trkpt>
      <trkpt lat="60.453091858888" lon="22.275393027729">
        <ele>5.4</ele>
        <time>2016-01-23T12:18:49Z</time>
      </trkpt>
      <trkpt lat="60.453098815865" lon="22.275387830951">
        <ele>5.4</ele>
        <time>2016-01-23T12:18:50Z</time>
      </trkpt>
      <trkpt lat="60.453093283811" lon="22.27539126753">
        <ele>5.4</ele>
        <time>2016-01-23T12:18:51Z</time>
      </trkpt>
      <trkpt lat="60.453102420082" lon="22.275391099892">
        <ele>5.4</ele>
        <time>2016-01-23T12:18:52Z</time>
      </trkpt>
      <trkpt lat="60.453103761186" lon="22.275393698281">
        <ele>5.4</ele>
        <time>2016-01-23T12:18:53Z</time>
      </trkpt>
      <trkpt lat="60.453103761186" lon="22.275393530643">
        <ele>5.4</ele>
        <time>2016-01-23T12:18:54Z</time>
      </trkpt>
      <trkpt lat="60.453103845005" lon="22.27539042934">
        <ele>5.4</ele>
        <time>2016-01-23T12:18:55Z</time>
      </trkpt>
      <trkpt lat="60.453104767014" lon="22.275388166227">
        <ele>5.4</ele>
        <time>2016-01-23T12:18:56Z</time>
      </trkpt>
      <trkpt lat="60.453105269928" lon="22.275387747132">
        <ele>5.4</ele>
        <time>2016-01-23T12:18:57Z</time>
      </trkpt>
      <trkpt lat="60.453105689023" lon="22.27538623839">
        <ele>5.4</ele>
        <time>2016-01-23T12:18:58Z</time>
      </trkpt>
      <trkpt lat="60.453107197765" lon="22.275385064924">
        <ele>5.4</ele>
        <time>2016-01-23T12:18:59Z</time>
      </trkpt>
      <trkpt lat="60.453117256045" lon="22.275392189539">
        <ele>5.4</ele>
        <time>2016-01-23T12:19:00Z</time>
      </trkpt>
      <trkpt lat="60.453134355121" lon="22.275402750733">
        <ele>5.4</ele>
        <time>2016-01-23T12:19:01Z</time>
      </trkpt>
      <trkpt lat="60.453147179428" lon="22.275408115149">
        <ele>5.4</ele>
        <time>2016-01-23T12:19:02Z</time>
      </trkpt>
      <trkpt lat="60.453170313472" lon="22.275426639148">
        <ele>5.4</ele>
        <time>2016-01-23T12:19:03Z</time>
      </trkpt>
      <trkpt lat="60.453192944602" lon="22.275431668288">
        <ele>5.4</ele>
        <time>2016-01-23T12:19:04Z</time>
      </trkpt>
      <trkpt lat="60.45321071423" lon="22.27544155893">
        <ele>5.4</ele>
        <time>2016-01-23T12:19:05Z</time>
      </trkpt>
      <trkpt lat="60.453230914609" lon="22.275455137608">
        <ele>5.4</ele>
        <time>2016-01-23T12:19:06Z</time>
      </trkpt>
      <trkpt lat="60.453243068364" lon="22.275462178404">
        <ele>5.4</ele>
        <time>2016-01-23T12:19:07Z</time>
      </trkpt>
      <trkpt lat="60.453247846047" lon="22.275466453173">
        <ele>5.4</ele>
        <time>2016-01-23T12:19:08Z</time>
      </trkpt>
      <trkpt lat="60.453250444436" lon="22.275458825644">
        <ele>5.4</ele>
        <time>2016-01-23T12:19:09Z</time>
      </trkpt>
      <trkpt lat="60.453247091676" lon="22.275462010766">
        <ele>5.4</ele>
        <time>2016-01-23T12:19:10Z</time>
      </trkpt>
      <trkpt lat="60.45325010916" lon="22.275460502024">
        <ele>5.4</ele>
        <time>2016-01-23T12:19:11Z</time>
      </trkpt>
      <trkpt lat="60.453250025341" lon="22.275460166748">
        <ele>5.4</ele>
        <time>2016-01-23T12:19:12Z</time>
      </trkpt>
      <trkpt lat="60.453250612074" lon="22.275459831472">
        <ele>5.4</ele>
        <time>2016-01-23T12:19:13Z</time>
      </trkpt>
      <trkpt lat="60.453251617902" lon="22.275459328558">
        <ele>5.4</ele>
        <time>2016-01-23T12:19:14Z</time>
      </trkpt>
      <trkpt lat="60.453252875187" lon="22.27545916092">
        <ele>5.4</ele>
        <time>2016-01-23T12:19:15Z</time>
      </trkpt>
      <trkpt lat="60.453254886843" lon="22.275461004938">
        <ele>5.4</ele>
        <time>2016-01-23T12:19:16Z</time>
      </trkpt>
      <trkpt lat="60.453263017286" lon="22.275468716286">
        <ele>5.4</ele>
        <time>2016-01-23T12:19:17Z</time>
      </trkpt>
      <trkpt lat="60.453267878788" lon="22.275475589444">
        <ele>5.4</ele>
        <time>2016-01-23T12:19:18Z</time>
      </trkpt>
      <trkpt lat="60.453272069738" lon="22.275476679091">
        <ele>5.4</ele>
        <time>2016-01-23T12:19:19Z</time>
      </trkpt>
      <trkpt lat="60.453267962607" lon="22.275474918892">
        <ele>5.4</ele>
        <time>2016-01-23T12:19:20Z</time>
      </trkpt>
      <trkpt lat="60.453274081394" lon="22.275477936376">
        <ele>5.4</ele>
        <time>2016-01-23T12:19:21Z</time>
      </trkpt>
      <trkpt lat="60.453274751946" lon="22.275479193661">
        <ele>5.4</ele>
        <time>2016-01-23T12:19:22Z</time>
      </trkpt>
      <trkpt lat="60.453275003403" lon="22.275479612756">
        <ele>5.4</ele>
        <time>2016-01-23T12:19:23Z</time>
      </trkpt>
      <trkpt lat="60.453274919584" lon="22.275479109842">
        <ele>5.4</ele>
        <time>2016-01-23T12:19:24Z</time>
      </trkpt>
      <trkpt lat="60.453274919584" lon="22.275479193661">
        <ele>5.4</ele>
        <time>2016-01-23T12:19:25Z</time>
      </trkpt>
      <trkpt lat="60.453275757774" lon="22.275481037679">
        <ele>5.4</ele>
        <time>2016-01-23T12:19:26Z</time>
      </trkpt>
      <trkpt lat="60.45327776943" lon="22.275483636068">
        <ele>5.4</ele>
        <time>2016-01-23T12:19:27Z</time>
      </trkpt>
      <trkpt lat="60.453279361991" lon="22.27548849757">
        <ele>5.4</ele>
        <time>2016-01-23T12:19:28Z</time>
      </trkpt>
      <trkpt lat="60.453280786914" lon="22.275489168122">
        <ele>5.4</ele>
        <time>2016-01-23T12:19:29Z</time>
      </trkpt>
      <trkpt lat="60.453282211837" lon="22.275485899181">
        <ele>5.4</ele>
        <time>2016-01-23T12:19:30Z</time>
      </trkpt>
      <trkpt lat="60.453282211837" lon="22.275483719887">
        <ele>5.4</ele>
        <time>2016-01-23T12:19:31Z</time>
      </trkpt>
      <trkpt lat="60.453282044199" lon="22.275481540593">
        <ele>5.4</ele>
        <time>2016-01-23T12:19:32Z</time>
      </trkpt>
      <trkpt lat="60.453281625104" lon="22.275481205317">
        <ele>5.4</ele>
        <time>2016-01-23T12:19:33Z</time>
      </trkpt>
      <trkpt lat="60.453281876561" lon="22.275481037679">
        <ele>5.4</ele>
        <time>2016-01-23T12:19:34Z</time>
      </trkpt>
      <trkpt lat="60.453282463294" lon="22.275479528937">
        <ele>5.4</ele>
        <time>2016-01-23T12:19:35Z</time>
      </trkpt>
      <trkpt lat="60.453282547113" lon="22.275479109842">
        <ele>5.4</ele>
        <time>2016-01-23T12:19:36Z</time>
      </trkpt>
      <trkpt lat="60.45328279857" lon="22.275479193661">
        <ele>5.4</ele>
        <time>2016-01-23T12:19:37Z</time>
      </trkpt>
      <trkpt lat="60.453282882389" lon="22.275479193661">
        <ele>5.4</ele>
        <time>2016-01-23T12:19:38Z</time>
      </trkpt>
      <trkpt lat="60.453282882389" lon="22.275479026023">
        <ele>5.4</ele>
        <time>2016-01-23T12:19:39Z</time>
      </trkpt>
      <trkpt lat="60.453282966208" lon="22.275479445118">
        <ele>5.4</ele>
        <time>2016-01-23T12:19:40Z</time>
      </trkpt>
      <trkpt lat="60.453283552941" lon="22.275481540593">
        <ele>5.4</ele>
        <time>2016-01-23T12:19:41Z</time>
      </trkpt>
      <trkpt lat="60.453285480778" lon="22.27548514481">
        <ele>5.4</ele>
        <time>2016-01-23T12:19:42Z</time>
      </trkpt>
      <trkpt lat="60.453293024488" lon="22.275489000484">
        <ele>5.4</ele>
        <time>2016-01-23T12:19:43Z</time>
      </trkpt>
      <trkpt lat="60.453300484379" lon="22.275495706004">
        <ele>5.4</ele>
        <time>2016-01-23T12:19:44Z</time>
      </trkpt>
      <trkpt lat="60.45330710608" lon="22.27549604128">
        <ele>5.4</ele>
        <time>2016-01-23T12:19:45Z</time>
      </trkpt>
      <trkpt lat="60.453315907075" lon="22.275504842275">
        <ele>5.4</ele>
        <time>2016-01-23T12:19:46Z</time>
      </trkpt>
      <trkpt lat="60.453323199328" lon="22.275507608302">
        <ele>5.4</ele>
        <time>2016-01-23T12:19:47Z</time>
      </trkpt>
      <trkpt lat="60.453328396106" lon="22.275510039053">
        <ele>5.4</ele>
        <time>2016-01-23T12:19:48Z</time>
      </trkpt>
      <trkpt lat="60.453339124938" lon="22.275520684066">
        <ele>5.4</ele>
        <time>2016-01-23T12:19:49Z</time>
      </trkpt>
      <trkpt lat="60.453346249553" lon="22.275523953007">
        <ele>5.4</ele>
        <time>2016-01-23T12:19:50Z</time>
      </trkpt>
      <trkpt lat="60.453339711671" lon="22.275519594419">
        <ele>5.4</ele>
        <time>2016-01-23T12:19:51Z</time>
      </trkpt>
      <trkpt lat="60.453357062204" lon="22.27553040707">
        <ele>5.4</ele>
        <time>2016-01-23T12:19:52Z</time>
      </trkpt>
      <trkpt lat="60.453363683905" lon="22.275537699323">
        <ele>5.4</ele>
        <time>2016-01-23T12:19:53Z</time>
      </trkpt>
      <trkpt lat="60.453367707217" lon="22.275537783142">
        <ele>5.4</ele>
        <time>2016-01-23T12:19:54Z</time>
      </trkpt>
      <trkpt lat="60.453372149624" lon="22.27553878897">
        <ele>5.4</ele>
        <time>2016-01-23T12:19:55Z</time>
      </trkpt>
      <trkpt lat="60.453376089117" lon="22.275545159214">
        <ele>5.4</ele>
        <time>2016-01-23T12:19:56Z</time>
      </trkpt>
      <trkpt lat="60.453381453533" lon="22.275545410671">
        <ele>5.4</ele>
        <time>2016-01-23T12:19:57Z</time>
      </trkpt>
      <trkpt lat="60.453389081062" lon="22.275549769259">
        <ele>5.4</ele>
        <time>2016-01-23T12:19:58Z</time>
      </trkpt>
      <trkpt lat="60.453394110202" lon="22.275554882218">
        <ele>5.4</ele>
        <time>2016-01-23T12:19:59Z</time>
      </trkpt>
      <trkpt lat="60.453398971704" lon="22.275554127847">
        <ele>5.4</ele>
        <time>2016-01-23T12:20:00Z</time>
      </trkpt>
      <trkpt lat="60.453403917025" lon="22.275559659901">
        <ele>5.4</ele>
        <time>2016-01-23T12:20:01Z</time>
      </trkpt>
      <trkpt lat="60.453409113803" lon="22.275562090652">
        <ele>5.4</ele>
        <time>2016-01-23T12:20:02Z</time>
      </trkpt>
      <trkpt lat="60.453416154599" lon="22.275565694869">
        <ele>5.4</ele>
        <time>2016-01-23T12:20:03Z</time>
      </trkpt>
      <trkpt lat="60.453420848463" lon="22.275568377077">
        <ele>5.4</ele>
        <time>2016-01-23T12:20:04Z</time>
      </trkpt>
      <trkpt lat="60.453427051069" lon="22.275572819484">
        <ele>5.4</ele>
        <time>2016-01-23T12:20:05Z</time>
      </trkpt>
      <trkpt lat="60.45343367277" lon="22.275572651846">
        <ele>5.4</ele>
        <time>2016-01-23T12:20:06Z</time>
      </trkpt>
      <trkpt lat="60.453438869548" lon="22.27557986028">
        <ele>5.4</ele>
        <time>2016-01-23T12:20:07Z</time>
      </trkpt>
      <trkpt lat="60.453443228136" lon="22.275580782289">
        <ele>5.4</ele>
        <time>2016-01-23T12:20:08Z</time>
      </trkpt>
      <trkpt lat="60.453452867321" lon="22.275576088425">
        <ele>5.4</ele>
        <time>2016-01-23T12:20:09Z</time>
      </trkpt>
      <trkpt lat="60.453459069927" lon="22.275581704298">
        <ele>5.4</ele>
        <time>2016-01-23T12:20:10Z</time>
      </trkpt>
      <trkpt lat="60.453452867321" lon="22.275578938271">
        <ele>5.4</ele>
        <time>2016-01-23T12:20:11Z</time>
      </trkpt>
      <trkpt lat="60.453465859266" lon="22.275588745094">
        <ele>5.4</ele>
        <time>2016-01-23T12:20:12Z</time>
      </trkpt>
      <trkpt lat="60.453474827899" lon="22.275593522777">
        <ele>5.4</ele>
        <time>2016-01-23T12:20:13Z</time>
      </trkpt>
      <trkpt lat="60.453484634722" lon="22.275599557745">
        <ele>5.4</ele>
        <time>2016-01-23T12:20:14Z</time>
      </trkpt>
      <trkpt lat="60.453492848984" lon="22.275606514722">
        <ele>5.4</ele>
        <time>2016-01-23T12:20:15Z</time>
      </trkpt>
      <trkpt lat="60.453498967771" lon="22.275610286577">
        <ele>5.4</ele>
        <time>2016-01-23T12:20:16Z</time>
      </trkpt>
      <trkpt lat="60.453508187861" lon="22.275618081744">
        <ele>5.4</ele>
        <time>2016-01-23T12:20:17Z</time>
      </trkpt>
      <trkpt lat="60.453512294992" lon="22.275618668477">
        <ele>5.4</ele>
        <time>2016-01-23T12:20:18Z</time>
      </trkpt>
      <trkpt lat="60.453516821218" lon="22.275624535807">
        <ele>5.4</ele>
        <time>2016-01-23T12:20:19Z</time>
      </trkpt>
      <trkpt lat="60.453519754883" lon="22.275628223843">
        <ele>5.4</ele>
        <time>2016-01-23T12:20:20Z</time>
      </trkpt>
      <trkpt lat="60.453526125127" lon="22.275631576603">
        <ele>5.4</ele>
        <time>2016-01-23T12:20:21Z</time>
      </trkpt>
      <trkpt lat="60.453534590846" lon="22.275637443933">
        <ele>5.4</ele>
        <time>2016-01-23T12:20:22Z</time>
      </trkpt>
      <trkpt lat="60.45354179928" lon="22.275638785037">
        <ele>5.4</ele>
        <time>2016-01-23T12:20:23Z</time>
      </trkpt>
      <trkpt lat="60.453551103189" lon="22.275644233272">
        <ele>5.4</ele>
        <time>2016-01-23T12:20:24Z</time>
      </trkpt>
      <trkpt lat="60.453561161469" lon="22.275654878285">
        <ele>5.4</ele>
        <time>2016-01-23T12:20:25Z</time>
      </trkpt>
      <trkpt lat="60.453564598048" lon="22.27565445919">
        <ele>5.4</ele>
        <time>2016-01-23T12:20:26Z</time>
      </trkpt>
      <trkpt lat="60.453559820365" lon="22.275652196077">
        <ele>5.4</ele>
        <time>2016-01-23T12:20:27Z</time>
      </trkpt>
      <trkpt lat="60.453567196437" lon="22.275654962104">
        <ele>5.4</ele>
        <time>2016-01-23T12:20:28Z</time>
      </trkpt>
      <trkpt lat="60.453569711007" lon="22.275654962104">
        <ele>5.4</ele>
        <time>2016-01-23T12:20:29Z</time>
      </trkpt>
      <trkpt lat="60.453577506174" lon="22.275661248529">
        <ele>5.4</ele>
        <time>2016-01-23T12:20:30Z</time>
      </trkpt>
      <trkpt lat="60.453585133703" lon="22.275663763099">
        <ele>5.4</ele>
        <time>2016-01-23T12:20:31Z</time>
      </trkpt>
      <trkpt lat="60.453590749576" lon="22.275667451135">
        <ele>5.4</ele>
        <time>2016-01-23T12:20:32Z</time>
      </trkpt>
      <trkpt lat="60.453585720436" lon="22.275663930737">
        <ele>5.4</ele>
        <time>2016-01-23T12:20:33Z</time>
      </trkpt>
      <trkpt lat="60.453600556399" lon="22.275673067008">
        <ele>5.4</ele>
        <time>2016-01-23T12:20:34Z</time>
      </trkpt>
      <trkpt lat="60.453608183928" lon="22.275677257958">
        <ele>5.4</ele>
        <time>2016-01-23T12:20:35Z</time>
      </trkpt>
      <trkpt lat="60.453614302715" lon="22.275682370917">
        <ele>5.4</ele>
        <time>2016-01-23T12:20:36Z</time>
      </trkpt>
      <trkpt lat="60.453620002407" lon="22.275688992618">
        <ele>5.4</ele>
        <time>2016-01-23T12:20:37Z</time>
      </trkpt>
      <trkpt lat="60.453614470353" lon="22.275683628202">
        <ele>5.4</ele>
        <time>2016-01-23T12:20:38Z</time>
      </trkpt>
      <trkpt lat="60.453619164217" lon="22.275688322066">
        <ele>5.4</ele>
        <time>2016-01-23T12:20:39Z</time>
      </trkpt>
      <trkpt lat="60.453618577484" lon="22.27568882498">
        <ele>5.4</ele>
        <time>2016-01-23T12:20:40Z</time>
      </trkpt>
      <trkpt lat="60.453617487837" lon="22.27568966317">
        <ele>5.4</ele>
        <time>2016-01-23T12:20:41Z</time>
      </trkpt>
      <trkpt lat="60.453616817285" lon="22.275690417541">
        <ele>5.4</ele>
        <time>2016-01-23T12:20:42Z</time>
      </trkpt>
      <trkpt lat="60.453615895276" lon="22.275691088093">
        <ele>5.4</ele>
        <time>2016-01-23T12:20:43Z</time>
      </trkpt>
      <trkpt lat="60.45361472181" lon="22.275691591007">
        <ele>5.4</ele>
        <time>2016-01-23T12:20:44Z</time>
      </trkpt>
      <trkpt lat="60.453612961611" lon="22.275691926283">
        <ele>5.4</ele>
        <time>2016-01-23T12:20:45Z</time>
      </trkpt>
      <trkpt lat="60.453611285231" lon="22.275692345378">
        <ele>5.4</ele>
        <time>2016-01-23T12:20:46Z</time>
      </trkpt>
      <trkpt lat="60.453609105937" lon="22.275692429197">
        <ele>5.4</ele>
        <time>2016-01-23T12:20:47Z</time>
      </trkpt>
      <trkpt lat="60.453607513376" lon="22.275692429197">
        <ele>5.4</ele>
        <time>2016-01-23T12:20:48Z</time>
      </trkpt>
      <trkpt lat="60.453606088453" lon="22.275692513016">
        <ele>5.4</ele>
        <time>2016-01-23T12:20:49Z</time>
      </trkpt>
      <trkpt lat="60.45360382534" lon="22.275691758645">
        <ele>5.4</ele>
        <time>2016-01-23T12:20:50Z</time>
      </trkpt>
      <trkpt lat="60.453601059313" lon="22.275689914627">
        <ele>5.4</ele>
        <time>2016-01-23T12:20:51Z</time>
      </trkpt>
      <trkpt lat="60.453600221123" lon="22.275689746989">
        <ele>5.4</ele>
        <time>2016-01-23T12:20:52Z</time>
      </trkpt>
      <trkpt lat="60.453600975494" lon="22.275689746989">
        <ele>5.4</ele>
        <time>2016-01-23T12:20:53Z</time>
      </trkpt>
      <trkpt lat="60.453600807856" lon="22.275688992618">
        <ele>5.4</ele>
        <time>2016-01-23T12:20:54Z</time>
      </trkpt>
      <trkpt lat="60.453601562227" lon="22.275688489704">
        <ele>5.4</ele>
        <time>2016-01-23T12:20:55Z</time>
      </trkpt>
      <trkpt lat="60.453603909159" lon="22.275686645686">
        <ele>5.4</ele>
        <time>2016-01-23T12:20:56Z</time>
      </trkpt>
      <trkpt lat="60.453605585539" lon="22.275685304582">
        <ele>5.4</ele>
        <time>2016-01-23T12:20:57Z</time>
      </trkpt>
      <trkpt lat="60.453606842824" lon="22.275684214935">
        <ele>5.4</ele>
        <time>2016-01-23T12:20:58Z</time>
      </trkpt>
      <trkpt lat="60.453608183928" lon="22.275683209107">
        <ele>5.4</ele>
        <time>2016-01-23T12:20:59Z</time>
      </trkpt>
      <trkpt lat="60.453609525032" lon="22.275682454736">
        <ele>5.4</ele>
        <time>2016-01-23T12:21:00Z</time>
      </trkpt>
      <trkpt lat="60.453609860308" lon="22.275682622374">
        <ele>5.4</ele>
        <time>2016-01-23T12:21:01Z</time>
      </trkpt>
      <trkpt lat="60.453610614679" lon="22.275683041469">
        <ele>5.4</ele>
        <time>2016-01-23T12:21:02Z</time>
      </trkpt>
      <trkpt lat="60.45361136905" lon="22.275683125288">
        <ele>5.4</ele>
        <time>2016-01-23T12:21:03Z</time>
      </trkpt>
      <trkpt lat="60.45361220724" lon="22.275682454736">
        <ele>5.4</ele>
        <time>2016-01-23T12:21:04Z</time>
      </trkpt>
      <trkpt lat="60.453613799801" lon="22.27568044308">
        <ele>5.4</ele>
        <time>2016-01-23T12:21:05Z</time>
      </trkpt>
      <trkpt lat="60.453615476181" lon="22.275679101976">
        <ele>5.4</ele>
        <time>2016-01-23T12:21:06Z</time>
      </trkpt>
      <trkpt lat="60.453617404018" lon="22.275676419768">
        <ele>5.4</ele>
        <time>2016-01-23T12:21:07Z</time>
      </trkpt>
      <trkpt lat="60.453618493665" lon="22.275674324293">
        <ele>5.4</ele>
        <time>2016-01-23T12:21:08Z</time>
      </trkpt>
      <trkpt lat="60.453620086226" lon="22.275671306809">
        <ele>5.4</ele>
        <time>2016-01-23T12:21:09Z</time>
      </trkpt>
      <trkpt lat="60.453622684615" lon="22.275669965705">
        <ele>5.4</ele>
        <time>2016-01-23T12:21:10Z</time>
      </trkpt>
      <trkpt lat="60.453625115366" lon="22.275669295153">
        <ele>5.4</ele>
        <time>2016-01-23T12:21:11Z</time>
      </trkpt>
      <trkpt lat="60.453626372651" lon="22.275668037868">
        <ele>5.4</ele>
        <time>2016-01-23T12:21:12Z</time>
      </trkpt>
      <trkpt lat="60.453627210841" lon="22.275666361488">
        <ele>5.4</ele>
        <time>2016-01-23T12:21:13Z</time>
      </trkpt>
      <trkpt lat="60.453627546117" lon="22.275664852746">
        <ele>5.4</ele>
        <time>2016-01-23T12:21:14Z</time>
      </trkpt>
      <trkpt lat="60.453628049031" lon="22.275663427823">
        <ele>5.4</ele>
        <time>2016-01-23T12:21:15Z</time>
      </trkpt>
      <trkpt lat="60.453628719583" lon="22.275662170538">
        <ele>5.4</ele>
        <time>2016-01-23T12:21:16Z</time>
      </trkpt>
      <trkpt lat="60.453629725411" lon="22.275660745615">
        <ele>5.4</ele>
        <time>2016-01-23T12:21:17Z</time>
      </trkpt>
      <trkpt lat="60.453630563601" lon="22.27565948833">
        <ele>5.4</ele>
        <time>2016-01-23T12:21:18Z</time>
      </trkpt>
      <trkpt lat="60.45363148561" lon="22.275658566321">
        <ele>5.4</ele>
        <time>2016-01-23T12:21:19Z</time>
      </trkpt>
      <trkpt lat="60.4536323238" lon="22.275657392855">
        <ele>5.4</ele>
        <time>2016-01-23T12:21:20Z</time>
      </trkpt>
      <trkpt lat="60.453632994352" lon="22.275656638484">
        <ele>5.4</ele>
        <time>2016-01-23T12:21:21Z</time>
      </trkpt>
      <trkpt lat="60.453633413447" lon="22.275655800294">
        <ele>5.4</ele>
        <time>2016-01-23T12:21:22Z</time>
      </trkpt>
      <trkpt lat="60.453633581085" lon="22.275654962104">
        <ele>5.4</ele>
        <time>2016-01-23T12:21:23Z</time>
      </trkpt>
      <trkpt lat="60.453633664904" lon="22.275654207733">
        <ele>5.4</ele>
        <time>2016-01-23T12:21:24Z</time>
      </trkpt>
      <trkpt lat="60.453633413447" lon="22.275652615172">
        <ele>5.4</ele>
        <time>2016-01-23T12:21:25Z</time>
      </trkpt>
      <trkpt lat="60.453631653248" lon="22.275650100602">
        <ele>5.4</ele>
        <time>2016-01-23T12:21:26Z</time>
      </trkpt>
      <trkpt lat="60.453629976868" lon="22.275648340403">
        <ele>5.4</ele>
        <time>2016-01-23T12:21:27Z</time>
      </trkpt>
      <trkpt lat="60.453629306316" lon="22.275647837489">
        <ele>5.4</ele>
        <time>2016-01-23T12:21:28Z</time>
      </trkpt>
      <trkpt lat="60.453628803402" lon="22.275647334575">
        <ele>5.4</ele>
        <time>2016-01-23T12:21:29Z</time>
      </trkpt>
      <trkpt lat="60.453628719583" lon="22.275646747842">
        <ele>5.4</ele>
        <time>2016-01-23T12:21:30Z</time>
      </trkpt>
      <trkpt lat="60.453628384307" lon="22.275646161109">
        <ele>5.4</ele>
        <time>2016-01-23T12:21:31Z</time>
      </trkpt>
      <trkpt lat="60.453628468126" lon="22.275645742014">
        <ele>5.4</ele>
        <time>2016-01-23T12:21:32Z</time>
      </trkpt>
      <trkpt lat="60.453628551945" lon="22.275645155281">
        <ele>5.4</ele>
        <time>2016-01-23T12:21:33Z</time>
      </trkpt>
      <trkpt lat="60.453628384307" lon="22.275644568548">
        <ele>5.4</ele>
        <time>2016-01-23T12:21:34Z</time>
      </trkpt>
      <trkpt lat="60.453627881393" lon="22.275644233272">
        <ele>5.4</ele>
        <time>2016-01-23T12:21:35Z</time>
      </trkpt>
      <trkpt lat="60.453627462298" lon="22.275643897996">
        <ele>5.4</ele>
        <time>2016-01-23T12:21:36Z</time>
      </trkpt>
      <trkpt lat="60.453627210841" lon="22.275643646539">
        <ele>5.4</ele>
        <time>2016-01-23T12:21:37Z</time>
      </trkpt>
      <trkpt lat="60.453626288832" lon="22.275643814177">
        <ele>5.4</ele>
        <time>2016-01-23T12:21:38Z</time>
      </trkpt>
      <trkpt lat="60.453627210841" lon="22.275643143625">
        <ele>5.4</ele>
        <time>2016-01-23T12:21:39Z</time>
      </trkpt>
      <trkpt lat="60.453634586913" lon="22.275648675679">
        <ele>5.4</ele>
        <time>2016-01-23T12:21:40Z</time>
      </trkpt>
      <trkpt lat="60.45364322027" lon="22.275651441706">
        <ele>5.4</ele>
        <time>2016-01-23T12:21:41Z</time>
      </trkpt>
      <trkpt lat="60.453649590514" lon="22.27565697376">
        <ele>5.4</ele>
        <time>2016-01-23T12:21:42Z</time>
      </trkpt>
      <trkpt lat="60.453662079545" lon="22.275665104203">
        <ele>5.4</ele>
        <time>2016-01-23T12:21:43Z</time>
      </trkpt>
      <trkpt lat="60.453669874712" lon="22.275667199678">
        <ele>5.4</ele>
        <time>2016-01-23T12:21:44Z</time>
      </trkpt>
      <trkpt lat="60.453681609372" lon="22.275678179967">
        <ele>5.4</ele>
        <time>2016-01-23T12:21:45Z</time>
      </trkpt>
      <trkpt lat="60.453693176394" lon="22.275688992618">
        <ele>5.4</ele>
        <time>2016-01-23T12:21:46Z</time>
      </trkpt>
      <trkpt lat="60.453707174167" lon="22.275692596835">
        <ele>5.4</ele>
        <time>2016-01-23T12:21:47Z</time>
      </trkpt>
      <trkpt lat="60.453720249931" lon="22.275700978735">
        <ele>5.4</ele>
        <time>2016-01-23T12:21:48Z</time>
      </trkpt>
      <trkpt lat="60.45373793574" lon="22.275713635404">
        <ele>5.4</ele>
        <time>2016-01-23T12:21:49Z</time>
      </trkpt>
      <trkpt lat="60.453753106979" lon="22.275720592381">
        <ele>5.4</ele>
        <time>2016-01-23T12:21:50Z</time>
      </trkpt>
      <trkpt lat="60.453767188571" lon="22.275728974281">
        <ele>5.4</ele>
        <time>2016-01-23T12:21:51Z</time>
      </trkpt>
      <trkpt lat="60.453781353982" lon="22.275741295674">
        <ele>5.4</ele>
        <time>2016-01-23T12:21:52Z</time>
      </trkpt>
      <trkpt lat="60.453795351755" lon="22.275747749737">
        <ele>5.4</ele>
        <time>2016-01-23T12:21:53Z</time>
      </trkpt>
      <trkpt lat="60.453809852442" lon="22.275757053646">
        <ele>5.4</ele>
        <time>2016-01-23T12:21:54Z</time>
      </trkpt>
      <trkpt lat="60.453827286794" lon="22.275768369211">
        <ele>5.4</ele>
        <time>2016-01-23T12:21:55Z</time>
      </trkpt>
      <trkpt lat="60.453843463861" lon="22.275772811618">
        <ele>5.4</ele>
        <time>2016-01-23T12:21:56Z</time>
      </trkpt>
      <trkpt lat="60.453857377815" lon="22.27578605502">
        <ele>5.4</ele>
        <time>2016-01-23T12:21:57Z</time>
      </trkpt>
      <trkpt lat="60.453874309253" lon="22.275795023653">
        <ele>5.4</ele>
        <time>2016-01-23T12:21:58Z</time>
      </trkpt>
      <trkpt lat="60.453889229035" lon="22.275800974802">
        <ele>5.4</ele>
        <time>2016-01-23T12:21:59Z</time>
      </trkpt>
      <trkpt lat="60.453906244292" lon="22.275817151869">
        <ele>5.4</ele>
        <time>2016-01-23T12:22:00Z</time>
      </trkpt>
      <trkpt lat="60.453921415531" lon="22.27582209719">
        <ele>5.4</ele>
        <time>2016-01-23T12:22:01Z</time>
      </trkpt>
      <trkpt lat="60.453937173503" lon="22.275830898185">
        <ele>5.4</ele>
        <time>2016-01-23T12:22:02Z</time>
      </trkpt>
      <trkpt lat="60.453954524036" lon="22.275841543198">
        <ele>5.4</ele>
        <time>2016-01-23T12:22:03Z</time>
      </trkpt>
      <trkpt lat="60.453962654479" lon="22.275843387216">
        <ele>5.4</ele>
        <time>2016-01-23T12:22:04Z</time>
      </trkpt>
      <trkpt lat="60.453978663908" lon="22.275854199867">
        <ele>5.4</ele>
        <time>2016-01-23T12:22:05Z</time>
      </trkpt>
      <trkpt lat="60.453988135455" lon="22.275859648102">
        <ele>5.4</ele>
        <time>2016-01-23T12:22:06Z</time>
      </trkpt>
      <trkpt lat="60.453994086604" lon="22.275862078853">
        <ele>5.4</ele>
        <time>2016-01-23T12:22:07Z</time>
      </trkpt>
      <trkpt lat="60.454000708305" lon="22.27586735945">
        <ele>5.4</ele>
        <time>2016-01-23T12:22:08Z</time>
      </trkpt>
      <trkpt lat="60.454007078549" lon="22.275871885676">
        <ele>5.4</ele>
        <time>2016-01-23T12:22:09Z</time>
      </trkpt>
      <trkpt lat="60.454014203164" lon="22.275875238436">
        <ele>5.4</ele>
        <time>2016-01-23T12:22:10Z</time>
      </trkpt>
      <trkpt lat="60.454018058838" lon="22.275880435214">
        <ele>5.4</ele>
        <time>2016-01-23T12:22:11Z</time>
      </trkpt>
      <trkpt lat="60.454014370802" lon="22.275876411902">
        <ele>5.4</ele>
        <time>2016-01-23T12:22:12Z</time>
      </trkpt>
      <trkpt lat="60.454019819037" lon="22.275881189585">
        <ele>5.4</ele>
        <time>2016-01-23T12:22:13Z</time>
      </trkpt>
      <trkpt lat="60.454019902856" lon="22.275882027775">
        <ele>5.4</ele>
        <time>2016-01-23T12:22:14Z</time>
      </trkpt>
      <trkpt lat="60.454021579236" lon="22.275883201241">
        <ele>5.4</ele>
        <time>2016-01-23T12:22:15Z</time>
      </trkpt>
      <trkpt lat="60.454032727163" lon="22.275890912589">
        <ele>5.4</ele>
        <time>2016-01-23T12:22:16Z</time>
      </trkpt>
      <trkpt lat="60.454038426855" lon="22.275894432987">
        <ele>5.4</ele>
        <time>2016-01-23T12:22:17Z</time>
      </trkpt>
      <trkpt lat="60.454048149859" lon="22.275902144335">
        <ele>5.4</ele>
        <time>2016-01-23T12:22:18Z</time>
      </trkpt>
      <trkpt lat="60.454053514275" lon="22.275904658905">
        <ele>5.4</ele>
        <time>2016-01-23T12:22:19Z</time>
      </trkpt>
      <trkpt lat="60.45404806604" lon="22.27590172524">
        <ele>5.4</ele>
        <time>2016-01-23T12:22:20Z</time>
      </trkpt>
      <trkpt lat="60.45406399165" lon="22.275912034977">
        <ele>5.4</ele>
        <time>2016-01-23T12:22:21Z</time>
      </trkpt>
      <trkpt lat="60.454070529532" lon="22.275911699701">
        <ele>5.4</ele>
        <time>2016-01-23T12:22:22Z</time>
      </trkpt>
      <trkpt lat="60.454078659975" lon="22.275918153764">
        <ele>5.4</ele>
        <time>2016-01-23T12:22:23Z</time>
      </trkpt>
      <trkpt lat="60.454087628608" lon="22.275923015266">
        <ele>5.4</ele>
        <time>2016-01-23T12:22:24Z</time>
      </trkpt>
      <trkpt lat="60.454096513422" lon="22.275929134053">
        <ele>5.4</ele>
        <time>2016-01-23T12:22:25Z</time>
      </trkpt>
      <trkpt lat="60.454102129295" lon="22.275932989727">
        <ele>5.4</ele>
        <time>2016-01-23T12:22:26Z</time>
      </trkpt>
      <trkpt lat="60.454096178146" lon="22.275929301691">
        <ele>5.4</ele>
        <time>2016-01-23T12:22:27Z</time>
      </trkpt>
      <trkpt lat="60.454103554218" lon="22.275934833745">
        <ele>5.4</ele>
        <time>2016-01-23T12:22:28Z</time>
      </trkpt>
      <trkpt lat="60.454113780136" lon="22.275940198161">
        <ele>5.4</ele>
        <time>2016-01-23T12:22:29Z</time>
      </trkpt>
      <trkpt lat="60.454108583358" lon="22.27593776741">
        <ele>5.4</ele>
        <time>2016-01-23T12:22:30Z</time>
      </trkpt>
      <trkpt lat="60.454112522851" lon="22.275940868713">
        <ele>5.4</ele>
        <time>2016-01-23T12:22:31Z</time>
      </trkpt>
      <trkpt lat="60.454112355213" lon="22.275939024695">
        <ele>5.4</ele>
        <time>2016-01-23T12:22:32Z</time>
      </trkpt>
      <trkpt lat="60.45411176848" lon="22.27593776741">
        <ele>5.4</ele>
        <time>2016-01-23T12:22:33Z</time>
      </trkpt>
      <trkpt lat="60.454112355213" lon="22.275938102686">
        <ele>5.4</ele>
        <time>2016-01-23T12:22:34Z</time>
      </trkpt>
      <trkpt lat="60.454112355213" lon="22.275938940876">
        <ele>5.4</ele>
        <time>2016-01-23T12:22:35Z</time>
      </trkpt>
      <trkpt lat="60.454111349385" lon="22.275940617256">
        <ele>5.4</ele>
        <time>2016-01-23T12:22:36Z</time>
      </trkpt>
      <trkpt lat="60.454111349385" lon="22.275941706903">
        <ele>5.4</ele>
        <time>2016-01-23T12:22:37Z</time>
      </trkpt>
      <trkpt lat="60.45411176848" lon="22.275943215645">
        <ele>5.4</ele>
        <time>2016-01-23T12:22:38Z</time>
      </trkpt>
      <trkpt lat="60.454118222543" lon="22.275944389111">
        <ele>5.4</ele>
        <time>2016-01-23T12:22:39Z</time>
      </trkpt>
      <trkpt lat="60.45412350314" lon="22.275947406595">
        <ele>5.4</ele>
        <time>2016-01-23T12:22:40Z</time>
      </trkpt>
      <trkpt lat="60.454131382126" lon="22.275955117943">
        <ele>5.4</ele>
        <time>2016-01-23T12:22:41Z</time>
      </trkpt>
      <trkpt lat="60.454137668551" lon="22.275957464875">
        <ele>5.4</ele>
        <time>2016-01-23T12:22:42Z</time>
      </trkpt>
      <trkpt lat="60.454141859501" lon="22.275959476531">
        <ele>5.4</ele>
        <time>2016-01-23T12:22:43Z</time>
      </trkpt>
      <trkpt lat="60.454137584732" lon="22.275957548694">
        <ele>5.4</ele>
        <time>2016-01-23T12:22:44Z</time>
      </trkpt>
      <trkpt lat="60.454148481202" lon="22.275962158739">
        <ele>5.4</ele>
        <time>2016-01-23T12:22:45Z</time>
      </trkpt>
      <trkpt lat="60.454151917781" lon="22.275965511499">
        <ele>5.4</ele>
        <time>2016-01-23T12:22:46Z</time>
      </trkpt>
      <trkpt lat="60.454160048224" lon="22.275973641942">
        <ele>5.4</ele>
        <time>2016-01-23T12:22:47Z</time>
      </trkpt>
      <trkpt lat="60.454166669925" lon="22.275980096005">
        <ele>5.4</ele>
        <time>2016-01-23T12:22:48Z</time>
      </trkpt>
      <trkpt lat="60.454176560567" lon="22.275989567552">
        <ele>5.4</ele>
        <time>2016-01-23T12:22:49Z</time>
      </trkpt>
      <trkpt lat="60.45418385282" lon="22.2759972789">
        <ele>5.4</ele>
        <time>2016-01-23T12:22:50Z</time>
      </trkpt>
      <trkpt lat="60.45419055834" lon="22.276001888945">
        <ele>5.4</ele>
        <time>2016-01-23T12:22:51Z</time>
      </trkpt>
      <trkpt lat="60.454192486177" lon="22.276003313868">
        <ele>5.4</ele>
        <time>2016-01-23T12:22:52Z</time>
      </trkpt>
      <trkpt lat="60.454207154502" lon="22.27601320451">
        <ele>5.4</ele>
        <time>2016-01-23T12:22:53Z</time>
      </trkpt>
      <trkpt lat="60.454211932185" lon="22.276018401288">
        <ele>5.4</ele>
        <time>2016-01-23T12:22:54Z</time>
      </trkpt>
      <trkpt lat="60.454221319913" lon="22.276023681885">
        <ele>5.4</ele>
        <time>2016-01-23T12:22:55Z</time>
      </trkpt>
      <trkpt lat="60.454230372365" lon="22.2760308065">
        <ele>5.4</ele>
        <time>2016-01-23T12:22:56Z</time>
      </trkpt>
      <trkpt lat="60.454235066229" lon="22.276032985794">
        <ele>5.4</ele>
        <time>2016-01-23T12:22:57Z</time>
      </trkpt>
      <trkpt lat="60.45425426078" lon="22.276045726282">
        <ele>5.4</ele>
        <time>2016-01-23T12:22:58Z</time>
      </trkpt>
      <trkpt lat="60.454260631024" lon="22.276048827585">
        <ele>5.4</ele>
        <time>2016-01-23T12:22:59Z</time>
      </trkpt>
      <trkpt lat="60.454279238842" lon="22.276061316616">
        <ele>5.4</ele>
        <time>2016-01-23T12:23:00Z</time>
      </trkpt>
      <trkpt lat="60.454287453104" lon="22.27606349591">
        <ele>5.4</ele>
        <time>2016-01-23T12:23:01Z</time>
      </trkpt>
      <trkpt lat="60.454299858316" lon="22.276069111783">
        <ele>5.4</ele>
        <time>2016-01-23T12:23:02Z</time>
      </trkpt>
      <trkpt lat="60.454289045665" lon="22.276063412091">
        <ele>5.4</ele>
        <time>2016-01-23T12:23:03Z</time>
      </trkpt>
      <trkpt lat="60.454300947963" lon="22.27606852505">
        <ele>5.4</ele>
        <time>2016-01-23T12:23:04Z</time>
      </trkpt>
      <trkpt lat="60.454302708162" lon="22.276068105955">
        <ele>5.4</ele>
        <time>2016-01-23T12:23:05Z</time>
      </trkpt>
      <trkpt lat="60.454303546352" lon="22.276065507566">
        <ele>5.4</ele>
        <time>2016-01-23T12:23:06Z</time>
      </trkpt>
      <trkpt lat="60.454304384542" lon="22.276063663548">
        <ele>5.4</ele>
        <time>2016-01-23T12:23:07Z</time>
      </trkpt>
      <trkpt lat="60.454306563836" lon="22.276062490082">
        <ele>5.4</ele>
        <time>2016-01-23T12:23:08Z</time>
      </trkpt>
      <trkpt lat="60.454308491673" lon="22.276062238625">
        <ele>5.4</ele>
        <time>2016-01-23T12:23:09Z</time>
      </trkpt>
      <trkpt lat="60.454308491673" lon="22.276060729883">
        <ele>5.4</ele>
        <time>2016-01-23T12:23:10Z</time>
      </trkpt>
      <trkpt lat="60.45430790494" lon="22.276059053503">
        <ele>5.4</ele>
        <time>2016-01-23T12:23:11Z</time>
      </trkpt>
      <trkpt lat="60.454308491673" lon="22.276057712399">
        <ele>5.4</ele>
        <time>2016-01-23T12:23:12Z</time>
      </trkpt>
      <trkpt lat="60.454309665139" lon="22.27605679039">
        <ele>5.4</ele>
        <time>2016-01-23T12:23:13Z</time>
      </trkpt>
      <trkpt lat="60.454318885229" lon="22.27605762858">
        <ele>5.4</ele>
        <time>2016-01-23T12:23:14Z</time>
      </trkpt>
      <trkpt lat="60.454326764215" lon="22.27606349591">
        <ele>5.4</ele>
        <time>2016-01-23T12:23:15Z</time>
      </trkpt>
      <trkpt lat="60.454327937681" lon="22.276067603041">
        <ele>5.4</ele>
        <time>2016-01-23T12:23:16Z</time>
      </trkpt>
      <trkpt lat="60.45432466874" lon="22.276063831186">
        <ele>5.4</ele>
        <time>2016-01-23T12:23:17Z</time>
      </trkpt>
      <trkpt lat="60.454337660685" lon="22.276066681032">
        <ele>5.4</ele>
        <time>2016-01-23T12:23:18Z</time>
      </trkpt>
      <trkpt lat="60.454344617662" lon="22.276078918606">
        <ele>5.4</ele>
        <time>2016-01-23T12:23:19Z</time>
      </trkpt>
      <trkpt lat="60.454358363978" lon="22.276089982714">
        <ele>5.4</ele>
        <time>2016-01-23T12:23:20Z</time>
      </trkpt>
      <trkpt lat="60.454368170801" lon="22.276090234171">
        <ele>5.4</ele>
        <time>2016-01-23T12:23:21Z</time>
      </trkpt>
      <trkpt lat="60.454382587669" lon="22.276100963003">
        <ele>5.4</ele>
        <time>2016-01-23T12:23:22Z</time>
      </trkpt>
      <trkpt lat="60.454391891578" lon="22.276106914152">
        <ele>5.4</ele>
        <time>2016-01-23T12:23:23Z</time>
      </trkpt>
      <trkpt lat="60.454396417804" lon="22.276108841989">
        <ele>5.4</ele>
        <time>2016-01-23T12:23:24Z</time>
      </trkpt>
      <trkpt lat="60.454398848555" lon="22.276111943292">
        <ele>5.4</ele>
        <time>2016-01-23T12:23:25Z</time>
      </trkpt>
      <trkpt lat="60.454395160519" lon="22.276108841989">
        <ele>5.4</ele>
        <time>2016-01-23T12:23:26Z</time>
      </trkpt>
      <trkpt lat="60.454409745025" lon="22.276122253029">
        <ele>5.4</ele>
        <time>2016-01-23T12:23:27Z</time>
      </trkpt>
      <trkpt lat="60.454420557676" lon="22.276129210006">
        <ele>5.4</ele>
        <time>2016-01-23T12:23:28Z</time>
      </trkpt>
      <trkpt lat="60.454434555449" lon="22.276136669897">
        <ele>5.4</ele>
        <time>2016-01-23T12:23:29Z</time>
      </trkpt>
      <trkpt lat="60.454455761656" lon="22.276153601335">
        <ele>5.4</ele>
        <time>2016-01-23T12:23:30Z</time>
      </trkpt>
      <trkpt lat="60.454478560424" lon="22.276171203325">
        <ele>5.4</ele>
        <time>2016-01-23T12:23:31Z</time>
      </trkpt>
      <trkpt lat="60.454497671156" lon="22.27617413699">
        <ele>5.4</ele>
        <time>2016-01-23T12:23:32Z</time>
      </trkpt>
      <trkpt lat="60.454531953127" lon="22.276200875251">
        <ele>5.4</ele>
        <time>2016-01-23T12:23:33Z</time>
      </trkpt>
      <trkpt lat="60.454560870682" lon="22.276209257151">
        <ele>5.4</ele>
        <time>2016-01-23T12:23:34Z</time>
      </trkpt>
      <trkpt lat="60.454580735785" lon="22.276213951015">
        <ele>5.4</ele>
        <time>2016-01-23T12:23:35Z</time>
      </trkpt>
      <trkpt lat="60.454622561466" lon="22.276237671792">
        <ele>5.4</ele>
        <time>2016-01-23T12:23:36Z</time>
      </trkpt>
      <trkpt lat="60.454645611691" lon="22.276241527466">
        <ele>5.4</ele>
        <time>2016-01-23T12:23:37Z</time>
      </trkpt>
      <trkpt lat="60.454668410459" lon="22.276247562434">
        <ele>5.4</ele>
        <time>2016-01-23T12:23:38Z</time>
      </trkpt>
      <trkpt lat="60.454695316358" lon="22.276260302922">
        <ele>5.4</ele>
        <time>2016-01-23T12:23:39Z</time>
      </trkpt>
      <trkpt lat="60.454724736827" lon="22.276269187736">
        <ele>5.4</ele>
        <time>2016-01-23T12:23:40Z</time>
      </trkpt>
      <trkpt lat="60.454748373785" lon="22.27626466151">
        <ele>5.4</ele>
        <time>2016-01-23T12:23:41Z</time>
      </trkpt>
      <trkpt lat="60.45477477677" lon="22.27628142531">
        <ele>5.4</ele>
        <time>2016-01-23T12:23:42Z</time>
      </trkpt>
      <trkpt lat="60.454811321854" lon="22.2762906454">
        <ele>5.4</ele>
        <time>2016-01-23T12:23:43Z</time>
      </trkpt>
      <trkpt lat="60.454837473382" lon="22.276297602377">
        <ele>5.4</ele>
        <time>2016-01-23T12:23:44Z</time>
      </trkpt>
      <trkpt lat="60.454854823915" lon="22.276303721164">
        <ele>5.4</ele>
        <time>2016-01-23T12:23:45Z</time>
      </trkpt>
      <trkpt lat="60.454879634339" lon="22.276330962339">
        <ele>5.4</ele>
        <time>2016-01-23T12:23:46Z</time>
      </trkpt>
      <trkpt lat="60.45490553441" lon="22.276343619008">
        <ele>5.4</ele>
        <time>2016-01-23T12:23:47Z</time>
      </trkpt>
      <trkpt lat="60.454925567151" lon="22.276338003135">
        <ele>5.4</ele>
        <time>2016-01-23T12:23:48Z</time>
      </trkpt>
      <trkpt lat="60.454958172742" lon="22.276358119695">
        <ele>5.4</ele>
        <time>2016-01-23T12:23:49Z</time>
      </trkpt>
      <trkpt lat="60.454990610695" lon="22.276372871839">
        <ele>5.4</ele>
        <time>2016-01-23T12:23:50Z</time>
      </trkpt>
      <trkpt lat="60.455013493282" lon="22.276373961486">
        <ele>5.4</ele>
        <time>2016-01-23T12:23:51Z</time>
      </trkpt>
      <trkpt lat="60.455041488828" lon="22.276392485485">
        <ele>5.4</ele>
        <time>2016-01-23T12:23:52Z</time>
      </trkpt>
      <trkpt lat="60.45507820155" lon="22.276401370299">
        <ele>5.4</ele>
        <time>2016-01-23T12:23:53Z</time>
      </trkpt>
      <trkpt lat="60.455098821024" lon="22.276400615928">
        <ele>5.4</ele>
        <time>2016-01-23T12:23:54Z</time>
      </trkpt>
      <trkpt lat="60.455126313656" lon="22.276424923438">
        <ele>5.4</ele>
        <time>2016-01-23T12:23:55Z</time>
      </trkpt>
      <trkpt lat="60.455161349998" lon="22.276441687238">
        <ele>5.4</ele>
        <time>2016-01-23T12:23:56Z</time>
      </trkpt>
      <trkpt lat="60.455181466558" lon="22.276448141301">
        <ele>5.4</ele>
        <time>2016-01-23T12:23:57Z</time>
      </trkpt>
      <trkpt lat="60.455202756584" lon="22.27645325426">
        <ele>5.4</ele>
        <time>2016-01-23T12:23:58Z</time>
      </trkpt>
      <trkpt lat="60.455225471533" lon="22.276455601192">
        <ele>5.4</ele>
        <time>2016-01-23T12:23:59Z</time>
      </trkpt>
      <trkpt lat="60.455240056039" lon="22.276467838766">
        <ele>5.4</ele>
        <time>2016-01-23T12:24:00Z</time>
      </trkpt>
      <trkpt lat="60.455239636944" lon="22.276494241751">
        <ele>5.4</ele>
        <time>2016-01-23T12:24:01Z</time>
      </trkpt>
      <trkpt lat="60.455235362175" lon="22.276477058856">
        <ele>5.4</ele>
        <time>2016-01-23T12:24:02Z</time>
      </trkpt>
      <trkpt lat="60.455235613632" lon="22.27649935471">
        <ele>5.4</ele>
        <time>2016-01-23T12:24:03Z</time>
      </trkpt>
      <trkpt lat="60.45522656118" lon="22.276499857624">
        <ele>5.4</ele>
        <time>2016-01-23T12:24:04Z</time>
      </trkpt>
      <trkpt lat="60.45522237023" lon="22.27649432557">
        <ele>5.4</ele>
        <time>2016-01-23T12:24:05Z</time>
      </trkpt>
      <trkpt lat="60.455213485416" lon="22.276497762149">
        <ele>5.4</ele>
        <time>2016-01-23T12:24:06Z</time>
      </trkpt>
      <trkpt lat="60.455207785724" lon="22.276500276719">
        <ele>5.4</ele>
        <time>2016-01-23T12:24:07Z</time>
      </trkpt>
      <trkpt lat="60.455195212874" lon="22.276496923959">
        <ele>5.4</ele>
        <time>2016-01-23T12:24:08Z</time>
      </trkpt>
      <trkpt lat="60.455186663336" lon="22.276498600339">
        <ele>5.4</ele>
        <time>2016-01-23T12:24:09Z</time>
      </trkpt>
      <trkpt lat="60.455168223156" lon="22.276491056629">
        <ele>5.4</ele>
        <time>2016-01-23T12:24:10Z</time>
      </trkpt>
      <trkpt lat="60.455163361654" lon="22.276494409389">
        <ele>5.4</ele>
        <time>2016-01-23T12:24:11Z</time>
      </trkpt>
      <trkpt lat="60.455142658361" lon="22.276485189299">
        <ele>5.4</ele>
        <time>2016-01-23T12:24:12Z</time>
      </trkpt>
      <trkpt lat="60.455127151846" lon="22.276487368593">
        <ele>5.4</ele>
        <time>2016-01-23T12:24:13Z</time>
      </trkpt>
      <trkpt lat="60.455109968951" lon="22.276485776032">
        <ele>5.4</ele>
        <time>2016-01-23T12:24:14Z</time>
      </trkpt>
      <trkpt lat="60.455083482147" lon="22.276469766603">
        <ele>5.4</ele>
        <time>2016-01-23T12:24:15Z</time>
      </trkpt>
      <trkpt lat="60.455060180465" lon="22.276466581481">
        <ele>5.4</ele>
        <time>2016-01-23T12:24:16Z</time>
      </trkpt>
      <trkpt lat="60.455035789136" lon="22.276466162386">
        <ele>5.4</ele>
        <time>2016-01-23T12:24:17Z</time>
      </trkpt>
      <trkpt lat="60.455011481626" lon="22.276447638387">
        <ele>5.4</ele>
        <time>2016-01-23T12:24:18Z</time>
      </trkpt>
      <trkpt lat="60.454989018134" lon="22.276438334478">
        <ele>5.4</ele>
        <time>2016-01-23T12:24:19Z</time>
      </trkpt>
      <trkpt lat="60.454959932941" lon="22.27644319598">
        <ele>5.4</ele>
        <time>2016-01-23T12:24:20Z</time>
      </trkpt>
      <trkpt lat="60.45494409115" lon="22.276441351962">
        <ele>5.4</ele>
        <time>2016-01-23T12:24:21Z</time>
      </trkpt>
      <trkpt lat="60.454910479731" lon="22.276421151583">
        <ele>5.4</ele>
        <time>2016-01-23T12:24:22Z</time>
      </trkpt>
      <trkpt lat="60.454901427279" lon="22.276408746371">
        <ele>5.4</ele>
        <time>2016-01-23T12:24:23Z</time>
      </trkpt>
      <trkpt lat="60.454880472529" lon="22.276410841846">
        <ele>5.4</ele>
        <time>2016-01-23T12:24:24Z</time>
      </trkpt>
      <trkpt lat="60.454846777291" lon="22.276392569304">
        <ele>5.4</ele>
        <time>2016-01-23T12:24:25Z</time>
      </trkpt>
      <trkpt lat="60.454824649075" lon="22.276376895151">
        <ele>5.4</ele>
        <time>2016-01-23T12:24:26Z</time>
      </trkpt>
      <trkpt lat="60.454808472008" lon="22.276385109413">
        <ele>5.4</ele>
        <time>2016-01-23T12:24:27Z</time>
      </trkpt>
      <trkpt lat="60.454779219177" lon="22.276358874066">
        <ele>5.4</ele>
        <time>2016-01-23T12:24:28Z</time>
      </trkpt>
      <trkpt lat="60.454750133984" lon="22.276351581813">
        <ele>5.4</ele>
        <time>2016-01-23T12:24:29Z</time>
      </trkpt>
      <trkpt lat="60.454716354927" lon="22.276351078899">
        <ele>5.4</ele>
        <time>2016-01-23T12:24:30Z</time>
      </trkpt>
      <trkpt lat="60.454678217282" lon="22.276324592095">
        <ele>5.4</ele>
        <time>2016-01-23T12:24:31Z</time>
      </trkpt>
      <trkpt lat="60.454655167057" lon="22.276320149688">
        <ele>5.4</ele>
        <time>2016-01-23T12:24:32Z</time>
      </trkpt>
      <trkpt lat="60.454635301954" lon="22.276318054213">
        <ele>5.4</ele>
        <time>2016-01-23T12:24:33Z</time>
      </trkpt>
      <trkpt lat="60.45460546239" lon="22.276300368404">
        <ele>5.4</ele>
        <time>2016-01-23T12:24:34Z</time>
      </trkpt>
      <trkpt lat="60.454582747441" lon="22.276289723391">
        <ele>5.4</ele>
        <time>2016-01-23T12:24:35Z</time>
      </trkpt>
      <trkpt lat="60.454562966157" lon="22.276281928224">
        <ele>5.4</ele>
        <time>2016-01-23T12:24:36Z</time>
      </trkpt>
      <trkpt lat="60.454549136022" lon="22.276278324007">
        <ele>5.4</ele>
        <time>2016-01-23T12:24:37Z</time>
      </trkpt>
      <trkpt lat="60.454537736638" lon="22.276268433365">
        <ele>5.4</ele>
        <time>2016-01-23T12:24:38Z</time>
      </trkpt>
      <trkpt lat="60.454531366394" lon="22.276264577691">
        <ele>5.4</ele>
        <time>2016-01-23T12:24:39Z</time>
      </trkpt>
      <trkpt lat="60.454538993923" lon="22.276271534668">
        <ele>5.4</ele>
        <time>2016-01-23T12:24:40Z</time>
      </trkpt>
      <trkpt lat="60.454531869308" lon="22.2762654997">
        <ele>5.4</ele>
        <time>2016-01-23T12:24:41Z</time>
      </trkpt>
      <trkpt lat="60.454531953127" lon="22.276265415881">
        <ele>5.4</ele>
        <time>2016-01-23T12:24:42Z</time>
      </trkpt>
      <trkpt lat="60.454532372222" lon="22.276265667338">
        <ele>5.4</ele>
        <time>2016-01-23T12:24:43Z</time>
      </trkpt>
      <trkpt lat="60.454532288403" lon="22.27626633789">
        <ele>5.4</ele>
        <time>2016-01-23T12:24:44Z</time>
      </trkpt>
      <trkpt lat="60.454531617851" lon="22.276266840804">
        <ele>5.4</ele>
        <time>2016-01-23T12:24:45Z</time>
      </trkpt>
      <trkpt lat="60.45453086348" lon="22.276267343718">
        <ele>5.4</ele>
        <time>2016-01-23T12:24:46Z</time>
      </trkpt>
      <trkpt lat="60.454529857652" lon="22.276269020098">
        <ele>5.4</ele>
        <time>2016-01-23T12:24:47Z</time>
      </trkpt>
      <trkpt lat="60.454528600367" lon="22.276273630143">
        <ele>5.4</ele>
        <time>2016-01-23T12:24:48Z</time>
      </trkpt>
      <trkpt lat="60.454528265091" lon="22.276275306523">
        <ele>5.4</ele>
        <time>2016-01-23T12:24:49Z</time>
      </trkpt>
      <trkpt lat="60.454527678358" lon="22.276274887428">
        <ele>5.4</ele>
        <time>2016-01-23T12:24:50Z</time>
      </trkpt>
      <trkpt lat="60.45452751072" lon="22.27627555798">
        <ele>5.4</ele>
        <time>2016-01-23T12:24:51Z</time>
      </trkpt>
      <trkpt lat="60.454527762177" lon="22.276275222704">
        <ele>5.4</ele>
        <time>2016-01-23T12:24:52Z</time>
      </trkpt>
      <trkpt lat="60.454527594539" lon="22.276277401998">
        <ele>5.4</ele>
        <time>2016-01-23T12:24:53Z</time>
      </trkpt>
      <trkpt lat="60.454527091625" lon="22.276280670939">
        <ele>5.4</ele>
        <time>2016-01-23T12:24:54Z</time>
      </trkpt>
      <trkpt lat="60.454526504892" lon="22.27628142531">
        <ele>5.4</ele>
        <time>2016-01-23T12:24:55Z</time>
      </trkpt>
      <trkpt lat="60.454526001978" lon="22.27627974893">
        <ele>5.4</ele>
        <time>2016-01-23T12:24:56Z</time>
      </trkpt>
      <trkpt lat="60.454525750521" lon="22.276278240188">
        <ele>5.4</ele>
        <time>2016-01-23T12:24:57Z</time>
      </trkpt>
      <trkpt lat="60.454526001978" lon="22.276277904912">
        <ele>5.4</ele>
        <time>2016-01-23T12:24:58Z</time>
      </trkpt>
      <trkpt lat="60.454526421073" lon="22.276277988731">
        <ele>5.4</ele>
        <time>2016-01-23T12:24:59Z</time>
      </trkpt>
      <trkpt lat="60.454526504892" lon="22.276278659283">
        <ele>5.4</ele>
        <time>2016-01-23T12:25:00Z</time>
      </trkpt>
      <trkpt lat="60.454526253435" lon="22.276279832749">
        <ele>5.4</ele>
        <time>2016-01-23T12:25:01Z</time>
      </trkpt>
      <trkpt lat="60.454526421073" lon="22.276281509129">
        <ele>5.4</ele>
        <time>2016-01-23T12:25:02Z</time>
      </trkpt>
      <trkpt lat="60.45452667253" lon="22.276283269328">
        <ele>5.4</ele>
        <time>2016-01-23T12:25:03Z</time>
      </trkpt>
      <trkpt lat="60.454527175444" lon="22.276286119174">
        <ele>5.4</ele>
        <time>2016-01-23T12:25:04Z</time>
      </trkpt>
      <trkpt lat="60.45452667253" lon="22.276288717563">
        <ele>5.4</ele>
        <time>2016-01-23T12:25:05Z</time>
      </trkpt>
      <trkpt lat="60.454525750521" lon="22.276288466106">
        <ele>5.4</ele>
        <time>2016-01-23T12:25:06Z</time>
      </trkpt>
      <trkpt lat="60.454515524603" lon="22.276281509129">
        <ele>5.4</ele>
        <time>2016-01-23T12:25:07Z</time>
      </trkpt>
      <trkpt lat="60.454504963409" lon="22.276274552152">
        <ele>5.4</ele>
        <time>2016-01-23T12:25:08Z</time>
      </trkpt>
      <trkpt lat="60.454489205437" lon="22.276268433365">
        <ele>5.4</ele>
        <time>2016-01-23T12:25:09Z</time>
      </trkpt>
      <trkpt lat="60.454474537112" lon="22.276257369257">
        <ele>5.4</ele>
        <time>2016-01-23T12:25:10Z</time>
      </trkpt>
      <trkpt lat="60.454458192407" lon="22.276250328461">
        <ele>5.4</ele>
        <time>2016-01-23T12:25:11Z</time>
      </trkpt>
      <trkpt lat="60.454440590417" lon="22.27623616305">
        <ele>5.4</ele>
        <time>2016-01-23T12:25:12Z</time>
      </trkpt>
      <trkpt lat="60.454428017567" lon="22.27622945753">
        <ele>5.4</ele>
        <time>2016-01-23T12:25:13Z</time>
      </trkpt>
      <trkpt lat="60.454418462201" lon="22.276215124481">
        <ele>5.4</ele>
        <time>2016-01-23T12:25:14Z</time>
      </trkpt>
      <trkpt lat="60.45441100231" lon="22.276215124481">
        <ele>5.4</ele>
        <time>2016-01-23T12:25:15Z</time>
      </trkpt>
      <trkpt lat="60.454406559903" lon="22.276215795033">
        <ele>5.4</ele>
        <time>2016-01-23T12:25:16Z</time>
      </trkpt>
      <trkpt lat="60.454410583215" lon="22.276216717042">
        <ele>5.4</ele>
        <time>2016-01-23T12:25:17Z</time>
      </trkpt>
      <trkpt lat="60.454404967342" lon="22.276215627395">
        <ele>5.4</ele>
        <time>2016-01-23T12:25:18Z</time>
      </trkpt>
      <trkpt lat="60.454402452772" lon="22.276214621567">
        <ele>5.4</ele>
        <time>2016-01-23T12:25:19Z</time>
      </trkpt>
      <trkpt lat="60.454399602926" lon="22.276212190816">
        <ele>5.4</ele>
        <time>2016-01-23T12:25:20Z</time>
      </trkpt>
      <trkpt lat="60.454389796103" lon="22.276210933531">
        <ele>5.4</ele>
        <time>2016-01-23T12:25:21Z</time>
      </trkpt>
      <trkpt lat="60.454383425859" lon="22.276203389821">
        <ele>5.4</ele>
        <time>2016-01-23T12:25:22Z</time>
      </trkpt>
      <trkpt lat="60.454374289588" lon="22.276197690129">
        <ele>5.4</ele>
        <time>2016-01-23T12:25:23Z</time>
      </trkpt>
      <trkpt lat="60.454361716738" lon="22.276188553858">
        <ele>5.4</ele>
        <time>2016-01-23T12:25:24Z</time>
      </trkpt>
      <trkpt lat="60.454355095037" lon="22.276187883306">
        <ele>5.4</ele>
        <time>2016-01-23T12:25:25Z</time>
      </trkpt>
      <trkpt lat="60.454336487219" lon="22.276169526945">
        <ele>5.4</ele>
        <time>2016-01-23T12:25:26Z</time>
      </trkpt>
      <trkpt lat="60.454327686224" lon="22.276165922728">
        <ele>5.4</ele>
        <time>2016-01-23T12:25:27Z</time>
      </trkpt>
      <trkpt lat="60.454321651256" lon="22.27616575509">
        <ele>5.4</ele>
        <time>2016-01-23T12:25:28Z</time>
      </trkpt>
      <trkpt lat="60.454310168053" lon="22.276152763145">
        <ele>5.4</ele>
        <time>2016-01-23T12:25:29Z</time>
      </trkpt>
      <trkpt lat="60.454306144741" lon="22.276146392901">
        <ele>5.4</ele>
        <time>2016-01-23T12:25:30Z</time>
      </trkpt>
      <trkpt lat="60.454310251872" lon="22.276153601335">
        <ele>5.4</ele>
        <time>2016-01-23T12:25:31Z</time>
      </trkpt>
      <trkpt lat="60.45430371399" lon="22.276150919127">
        <ele>5.4</ele>
        <time>2016-01-23T12:25:32Z</time>
      </trkpt>
      <trkpt lat="60.454302624343" lon="22.276150751489">
        <ele>5.4</ele>
        <time>2016-01-23T12:25:33Z</time>
      </trkpt>
      <trkpt lat="60.454303043438" lon="22.276148656014">
        <ele>5.4</ele>
        <time>2016-01-23T12:25:34Z</time>
      </trkpt>
      <trkpt lat="60.454303546352" lon="22.276147398729">
        <ele>5.4</ele>
        <time>2016-01-23T12:25:35Z</time>
      </trkpt>
      <trkpt lat="60.454303378714" lon="22.276147231091">
        <ele>5.4</ele>
        <time>2016-01-23T12:25:36Z</time>
      </trkpt>
      <trkpt lat="60.454302624343" lon="22.276148404557">
        <ele>5.4</ele>
        <time>2016-01-23T12:25:37Z</time>
      </trkpt>
      <trkpt lat="60.454301786153" lon="22.276149661842">
        <ele>5.4</ele>
        <time>2016-01-23T12:25:38Z</time>
      </trkpt>
      <trkpt lat="60.454301115601" lon="22.276150248575">
        <ele>5.4</ele>
        <time>2016-01-23T12:25:39Z</time>
      </trkpt>
      <trkpt lat="60.45429952304" lon="22.276149913299">
        <ele>5.4</ele>
        <time>2016-01-23T12:25:40Z</time>
      </trkpt>
      <trkpt lat="60.454290722045" lon="22.276150751489">
        <ele>5.4</ele>
        <time>2016-01-23T12:25:41Z</time>
      </trkpt>
      <trkpt lat="60.454282004869" lon="22.276151086765">
        <ele>5.4</ele>
        <time>2016-01-23T12:25:42Z</time>
      </trkpt>
      <trkpt lat="60.454269683476" lon="22.276144129788">
        <ele>5.4</ele>
        <time>2016-01-23T12:25:43Z</time>
      </trkpt>
      <trkpt lat="60.454263145594" lon="22.276146057625">
        <ele>5.4</ele>
        <time>2016-01-23T12:25:44Z</time>
      </trkpt>
      <trkpt lat="60.454248896364" lon="22.276128623273">
        <ele>5.4</ele>
        <time>2016-01-23T12:25:45Z</time>
      </trkpt>
      <trkpt lat="60.454241017378" lon="22.276131054024">
        <ele>5.4</ele>
        <time>2016-01-23T12:25:46Z</time>
      </trkpt>
      <trkpt lat="60.454222074284" lon="22.27611294912">
        <ele>5.4</ele>
        <time>2016-01-23T12:25:47Z</time>
      </trkpt>
      <trkpt lat="60.454216793687" lon="22.276113368215">
        <ele>5.4</ele>
        <time>2016-01-23T12:25:48Z</time>
      </trkpt>
      <trkpt lat="60.45419642567" lon="22.276096772053">
        <ele>5.4</ele>
        <time>2016-01-23T12:25:49Z</time>
      </trkpt>
      <trkpt lat="60.454189636331" lon="22.276093000198">
        <ele>5.4</ele>
        <time>2016-01-23T12:25:50Z</time>
      </trkpt>
      <trkpt lat="60.454175973834" lon="22.276082355185">
        <ele>5.4</ele>
        <time>2016-01-23T12:25:51Z</time>
      </trkpt>
      <trkpt lat="60.454169100676" lon="22.27607355419">
        <ele>5.4</ele>
        <time>2016-01-23T12:25:52Z</time>
      </trkpt>
      <trkpt lat="60.454158874758" lon="22.276065591385">
        <ele>5.4</ele>
        <time>2016-01-23T12:25:53Z</time>
      </trkpt>
      <trkpt lat="60.454149235573" lon="22.276056036019">
        <ele>5.4</ele>
        <time>2016-01-23T12:25:54Z</time>
      </trkpt>
      <trkpt lat="60.454136159809" lon="22.276049749594">
        <ele>5.4</ele>
        <time>2016-01-23T12:25:55Z</time>
      </trkpt>
      <trkpt lat="60.454123167864" lon="22.27603583564">
        <ele>5.4</ele>
        <time>2016-01-23T12:25:56Z</time>
      </trkpt>
      <trkpt lat="60.454110427376" lon="22.276029381577">
        <ele>5.4</ele>
        <time>2016-01-23T12:25:57Z</time>
      </trkpt>
      <trkpt lat="60.454101961657" lon="22.276024687713">
        <ele>5.4</ele>
        <time>2016-01-23T12:25:58Z</time>
      </trkpt>
      <trkpt lat="60.45409249011" lon="22.276021754048">
        <ele>5.4</ele>
        <time>2016-01-23T12:25:59Z</time>
      </trkpt>
      <trkpt lat="60.45408327002" lon="22.276013539786">
        <ele>5.4</ele>
        <time>2016-01-23T12:26:00Z</time>
      </trkpt>
      <trkpt lat="60.45406902079" lon="22.27600901356">
        <ele>5.4</ele>
        <time>2016-01-23T12:26:01Z</time>
      </trkpt>
      <trkpt lat="60.454058711053" lon="22.276003816782">
        <ele>5.4</ele>
        <time>2016-01-23T12:26:02Z</time>
      </trkpt>
      <trkpt lat="60.454043791271" lon="22.275998452366">
        <ele>5.4</ele>
        <time>2016-01-23T12:26:03Z</time>
      </trkpt>
      <trkpt lat="60.454030547869" lon="22.275988561724">
        <ele>5.4</ele>
        <time>2016-01-23T12:26:04Z</time>
      </trkpt>
      <trkpt lat="60.454019399942" lon="22.275989483733">
        <ele>5.4</ele>
        <time>2016-01-23T12:26:05Z</time>
      </trkpt>
      <trkpt lat="60.454002133228" lon="22.275974061037">
        <ele>5.4</ele>
        <time>2016-01-23T12:26:06Z</time>
      </trkpt>
      <trkpt lat="60.453994338061" lon="22.275976072693">
        <ele>5.4</ele>
        <time>2016-01-23T12:26:07Z</time>
      </trkpt>
      <trkpt lat="60.453972293664" lon="22.275961823463">
        <ele>5.4</ele>
        <time>2016-01-23T12:26:08Z</time>
      </trkpt>
      <trkpt lat="60.453962822117" lon="22.275964002757">
        <ele>5.4</ele>
        <time>2016-01-23T12:26:09Z</time>
      </trkpt>
      <trkpt lat="60.453944633394" lon="22.275948580061">
        <ele>5.4</ele>
        <time>2016-01-23T12:26:10Z</time>
      </trkpt>
      <trkpt lat="60.453936251494" lon="22.275949753527">
        <ele>5.4</ele>
        <time>2016-01-23T12:26:11Z</time>
      </trkpt>
      <trkpt lat="60.45392066116" lon="22.275929804605">
        <ele>5.4</ele>
        <time>2016-01-23T12:26:12Z</time>
      </trkpt>
      <trkpt lat="60.453912111622" lon="22.275936845401">
        <ele>5.4</ele>
        <time>2016-01-23T12:26:13Z</time>
      </trkpt>
      <trkpt lat="60.453904232636" lon="22.275933995555">
        <ele>5.4</ele>
        <time>2016-01-23T12:26:14Z</time>
      </trkpt>
      <trkpt lat="60.453891408329" lon="22.275924607827">
        <ele>5.4</ele>
        <time>2016-01-23T12:26:15Z</time>
      </trkpt>
      <trkpt lat="60.453882523515" lon="22.275925948931">
        <ele>5.4</ele>
        <time>2016-01-23T12:26:16Z</time>
      </trkpt>
      <trkpt lat="60.453867939009" lon="22.275915471556">
        <ele>5.4</ele>
        <time>2016-01-23T12:26:17Z</time>
      </trkpt>
      <trkpt lat="60.453854025055" lon="22.275906922018">
        <ele>5.4</ele>
        <time>2016-01-23T12:26:18Z</time>
      </trkpt>
      <trkpt lat="60.453845475517" lon="22.275904323629">
        <ele>5.4</ele>
        <time>2016-01-23T12:26:19Z</time>
      </trkpt>
      <trkpt lat="60.45382929845" lon="22.275890744951">
        <ele>5.4</ele>
        <time>2016-01-23T12:26:20Z</time>
      </trkpt>
      <trkpt lat="60.453820497455" lon="22.275890158218">
        <ele>5.4</ele>
        <time>2016-01-23T12:26:21Z</time>
      </trkpt>
      <trkpt lat="60.453802979284" lon="22.275877836825">
        <ele>5.4</ele>
        <time>2016-01-23T12:26:22Z</time>
      </trkpt>
      <trkpt lat="60.453793507737" lon="22.275875992807">
        <ele>5.4</ele>
        <time>2016-01-23T12:26:23Z</time>
      </trkpt>
      <trkpt lat="60.453773307358" lon="22.275860737749">
        <ele>5.4</ele>
        <time>2016-01-23T12:26:24Z</time>
      </trkpt>
      <trkpt lat="60.453763416716" lon="22.275858558455">
        <ele>5.4</ele>
        <time>2016-01-23T12:26:25Z</time>
      </trkpt>
      <trkpt lat="60.453744557441" lon="22.275843471035">
        <ele>5.4</ele>
        <time>2016-01-23T12:26:26Z</time>
      </trkpt>
      <trkpt lat="60.453735002075" lon="22.275841627017">
        <ele>5.4</ele>
        <time>2016-01-23T12:26:27Z</time>
      </trkpt>
      <trkpt lat="60.45371698099" lon="22.275827713063">
        <ele>5.4</ele>
        <time>2016-01-23T12:26:28Z</time>
      </trkpt>
      <trkpt lat="60.45370692271" lon="22.27582293538">
        <ele>5.4</ele>
        <time>2016-01-23T12:26:29Z</time>
      </trkpt>
      <trkpt lat="60.453688650168" lon="22.275810613987">
        <ele>5.4</ele>
        <time>2016-01-23T12:26:30Z</time>
      </trkpt>
      <trkpt lat="60.453679010983" lon="22.275807512684">
        <ele>5.4</ele>
        <time>2016-01-23T12:26:31Z</time>
      </trkpt>
      <trkpt lat="60.453659481156" lon="22.275791838531">
        <ele>5.4</ele>
        <time>2016-01-23T12:26:32Z</time>
      </trkpt>
      <trkpt lat="60.45364741122" lon="22.275793011997">
        <ele>5.4</ele>
        <time>2016-01-23T12:26:33Z</time>
      </trkpt>
      <trkpt lat="60.453627210841" lon="22.275777589301">
        <ele>5.4</ele>
        <time>2016-01-23T12:26:34Z</time>
      </trkpt>
      <trkpt lat="60.453613548344" lon="22.275775074731">
        <ele>5.4</ele>
        <time>2016-01-23T12:26:35Z</time>
      </trkpt>
      <trkpt lat="60.453594856707" lon="22.275761663691">
        <ele>5.4</ele>
        <time>2016-01-23T12:26:36Z</time>
      </trkpt>
      <trkpt lat="60.453579014916" lon="22.27575588018">
        <ele>5.4</ele>
        <time>2016-01-23T12:26:37Z</time>
      </trkpt>
      <trkpt lat="60.453561999659" lon="22.275743474968">
        <ele>5.4</ele>
        <time>2016-01-23T12:26:38Z</time>
      </trkpt>
      <trkpt lat="60.453545571135" lon="22.275736769448">
        <ele>5.4</ele>
        <time>2016-01-23T12:26:39Z</time>
      </trkpt>
      <trkpt lat="60.453533165923" lon="22.275729225738">
        <ele>5.4</ele>
        <time>2016-01-23T12:26:40Z</time>
      </trkpt>
      <trkpt lat="60.453518162322" lon="22.275720424743">
        <ele>5.4</ele>
        <time>2016-01-23T12:26:41Z</time>
      </trkpt>
      <trkpt lat="60.453502069074" lon="22.275712042843">
        <ele>5.4</ele>
        <time>2016-01-23T12:26:42Z</time>
      </trkpt>
      <trkpt lat="60.453481952514" lon="22.275697625975">
        <ele>5.4</ele>
        <time>2016-01-23T12:26:43Z</time>
      </trkpt>
      <trkpt lat="60.453470301673" lon="22.275700224364">
        <ele>5.4</ele>
        <time>2016-01-23T12:26:44Z</time>
      </trkpt>
      <trkpt lat="60.453446580896" lon="22.275676671225">
        <ele>5.4</ele>
        <time>2016-01-23T12:26:45Z</time>
      </trkpt>
      <trkpt lat="60.453431828752" lon="22.275680023985">
        <ele>5.4</ele>
        <time>2016-01-23T12:26:46Z</time>
      </trkpt>
      <trkpt lat="60.453413304753" lon="22.275656889941">
        <ele>5.4</ele>
        <time>2016-01-23T12:26:47Z</time>
      </trkpt>
      <trkpt lat="60.453390254528" lon="22.275644568548">
        <ele>5.4</ele>
        <time>2016-01-23T12:26:48Z</time>
      </trkpt>
      <trkpt lat="60.45337667585" lon="22.275634091173">
        <ele>5.4</ele>
        <time>2016-01-23T12:26:49Z</time>
      </trkpt>
      <trkpt lat="60.453355385824" lon="22.275610957129">
        <ele>5.4</ele>
        <time>2016-01-23T12:26:50Z</time>
      </trkpt>
      <trkpt lat="60.453340382223" lon="22.275610789491">
        <ele>5.4</ele>
        <time>2016-01-23T12:26:51Z</time>
      </trkpt>
      <trkpt lat="60.453324205156" lon="22.275592516949">
        <ele>5.4</ele>
        <time>2016-01-23T12:26:52Z</time>
      </trkpt>
      <trkpt lat="60.453308950098" lon="22.275585811429">
        <ele>5.4</ele>
        <time>2016-01-23T12:26:53Z</time>
      </trkpt>
      <trkpt lat="60.453298472723" lon="22.275566700697">
        <ele>5.4</ele>
        <time>2016-01-23T12:26:54Z</time>
      </trkpt>
      <trkpt lat="60.453290090823" lon="22.275569382905">
        <ele>5.4</ele>
        <time>2016-01-23T12:26:55Z</time>
      </trkpt>
      <trkpt lat="60.453285061683" lon="22.275568796172">
        <ele>5.4</ele>
        <time>2016-01-23T12:26:56Z</time>
      </trkpt>
      <trkpt lat="60.453290090823" lon="22.275570724009">
        <ele>5.4</ele>
        <time>2016-01-23T12:26:57Z</time>
      </trkpt>
      <trkpt lat="60.453286402787" lon="22.275562509747">
        <ele>5.4</ele>
        <time>2016-01-23T12:26:58Z</time>
      </trkpt>
      <trkpt lat="60.453286486606" lon="22.275563012661">
        <ele>5.4</ele>
        <time>2016-01-23T12:26:59Z</time>
      </trkpt>
      <trkpt lat="60.453286067511" lon="22.275562845023">
        <ele>5.4</ele>
        <time>2016-01-23T12:27:00Z</time>
      </trkpt>
      <trkpt lat="60.453286067511" lon="22.275561336281">
        <ele>5.4</ele>
        <time>2016-01-23T12:27:01Z</time>
      </trkpt>
      <trkpt lat="60.45328615133" lon="22.275560162815">
        <ele>5.4</ele>
        <time>2016-01-23T12:27:02Z</time>
      </trkpt>
      <trkpt lat="60.453286486606" lon="22.275559324625">
        <ele>5.4</ele>
        <time>2016-01-23T12:27:03Z</time>
      </trkpt>
      <trkpt lat="60.453286821882" lon="22.275558654073">
        <ele>5.4</ele>
        <time>2016-01-23T12:27:04Z</time>
      </trkpt>
      <trkpt lat="60.453287073339" lon="22.275557732064">
        <ele>5.4</ele>
        <time>2016-01-23T12:27:05Z</time>
      </trkpt>
      <trkpt lat="60.453287324796" lon="22.275557061512">
        <ele>5.4</ele>
        <time>2016-01-23T12:27:06Z</time>
      </trkpt>
      <trkpt lat="60.453287408615" lon="22.275556558598">
        <ele>5.4</ele>
        <time>2016-01-23T12:27:07Z</time>
      </trkpt>
      <trkpt lat="60.453287324796" lon="22.275555888046">
        <ele>5.4</ele>
        <time>2016-01-23T12:27:08Z</time>
      </trkpt>
      <trkpt lat="60.453287157158" lon="22.275555468951">
        <ele>5.4</ele>
        <time>2016-01-23T12:27:09Z</time>
      </trkpt>
      <trkpt lat="60.453286486606" lon="22.275556139503">
        <ele>5.4</ele>
        <time>2016-01-23T12:27:10Z</time>
      </trkpt>
      <trkpt lat="60.453285648416" lon="22.275556223322">
        <ele>5.4</ele>
        <time>2016-01-23T12:27:11Z</time>
      </trkpt>
      <trkpt lat="60.453284894045" lon="22.27555555277">
        <ele>5.4</ele>
        <time>2016-01-23T12:27:12Z</time>
      </trkpt>
      <trkpt lat="60.453284307312" lon="22.275554966037">
        <ele>5.4</ele>
        <time>2016-01-23T12:27:13Z</time>
      </trkpt>
      <trkpt lat="60.453283888217" lon="22.27555471458">
        <ele>5.4</ele>
        <time>2016-01-23T12:27:14Z</time>
      </trkpt>
      <trkpt lat="60.453291767203" lon="22.27557064019">
        <ele>5.4</ele>
        <time>2016-01-23T12:27:15Z</time>
      </trkpt>
      <trkpt lat="60.453286402787" lon="22.275560498091">
        <ele>5.4</ele>
        <time>2016-01-23T12:27:16Z</time>
      </trkpt>
      <trkpt lat="60.453291264289" lon="22.27556225829">
        <ele>5.4</ele>
        <time>2016-01-23T12:27:17Z</time>
      </trkpt>
      <trkpt lat="60.45329201866" lon="22.275559995177">
        <ele>5.4</ele>
        <time>2016-01-23T12:27:18Z</time>
      </trkpt>
      <trkpt lat="60.453293024488" lon="22.27555806734">
        <ele>5.4</ele>
        <time>2016-01-23T12:27:19Z</time>
      </trkpt>
      <trkpt lat="60.453293946497" lon="22.275557145331">
        <ele>5.4</ele>
        <time>2016-01-23T12:27:20Z</time>
      </trkpt>
      <trkpt lat="60.453295119963" lon="22.275556055684">
        <ele>5.4</ele>
        <time>2016-01-23T12:27:21Z</time>
      </trkpt>
      <trkpt lat="60.453296377248" lon="22.275554546942">
        <ele>5.4</ele>
        <time>2016-01-23T12:27:22Z</time>
      </trkpt>
      <trkpt lat="60.453297299257" lon="22.275553457295">
        <ele>5.4</ele>
        <time>2016-01-23T12:27:23Z</time>
      </trkpt>
      <trkpt lat="60.453298053628" lon="22.275552451467">
        <ele>5.4</ele>
        <time>2016-01-23T12:27:24Z</time>
      </trkpt>
      <trkpt lat="60.453299143275" lon="22.275550858906">
        <ele>5.4</ele>
        <time>2016-01-23T12:27:25Z</time>
      </trkpt>
      <trkpt lat="60.453299981465" lon="22.275549601621">
        <ele>5.4</ele>
        <time>2016-01-23T12:27:26Z</time>
      </trkpt>
      <trkpt lat="60.453300484379" lon="22.275548931069">
        <ele>5.4</ele>
        <time>2016-01-23T12:27:27Z</time>
      </trkpt>
      <trkpt lat="60.453300987293" lon="22.275548260517">
        <ele>5.4</ele>
        <time>2016-01-23T12:27:28Z</time>
      </trkpt>
      <trkpt lat="60.453301574026" lon="22.275547254689">
        <ele>5.4</ele>
        <time>2016-01-23T12:27:29Z</time>
      </trkpt>
      <trkpt lat="60.453296041972" lon="22.275547841422">
        <ele>5.4</ele>
        <time>2016-01-23T12:27:30Z</time>
      </trkpt>
      <trkpt lat="60.453299813827" lon="22.275547003232">
        <ele>5.4</ele>
        <time>2016-01-23T12:27:31Z</time>
      </trkpt>
      <trkpt lat="60.453300903474" lon="22.275545662128">
        <ele>5.4</ele>
        <time>2016-01-23T12:27:32Z</time>
      </trkpt>
      <trkpt lat="60.453302747492" lon="22.2755446563">
        <ele>5.4</ele>
        <time>2016-01-23T12:27:33Z</time>
      </trkpt>
      <trkpt lat="60.453303418044" lon="22.275544069567">
        <ele>5.4</ele>
        <time>2016-01-23T12:27:34Z</time>
      </trkpt>
      <trkpt lat="60.453303920958" lon="22.275543147558">
        <ele>5.4</ele>
        <time>2016-01-23T12:27:35Z</time>
      </trkpt>
      <trkpt lat="60.453304423872" lon="22.275542644644">
        <ele>5.4</ele>
        <time>2016-01-23T12:27:36Z</time>
      </trkpt>
      <trkpt lat="60.453305094424" lon="22.27554214173">
        <ele>5.4</ele>
        <time>2016-01-23T12:27:37Z</time>
      </trkpt>
      <trkpt lat="60.453305178243" lon="22.275542057911">
        <ele>5.4</ele>
        <time>2016-01-23T12:27:38Z</time>
      </trkpt>
      <trkpt lat="60.453305178243" lon="22.275541890273">
        <ele>5.4</ele>
        <time>2016-01-23T12:27:39Z</time>
      </trkpt>
      <trkpt lat="60.453305513519" lon="22.275541890273">
        <ele>5.4</ele>
        <time>2016-01-23T12:27:40Z</time>
      </trkpt>
      <trkpt lat="60.453306603166" lon="22.275541135902">
        <ele>5.4</ele>
        <time>2016-01-23T12:27:41Z</time>
      </trkpt>
      <trkpt lat="60.453307189899" lon="22.275541052083">
        <ele>5.4</ele>
        <time>2016-01-23T12:27:42Z</time>
      </trkpt>
      <trkpt lat="60.453307525175" lon="22.275541219721">
        <ele>5.4</ele>
        <time>2016-01-23T12:27:43Z</time>
      </trkpt>
      <trkpt lat="60.453308195727" lon="22.275540297712">
        <ele>5.4</ele>
        <time>2016-01-23T12:27:44Z</time>
      </trkpt>
      <trkpt lat="60.453308614822" lon="22.275539794798">
        <ele>5.4</ele>
        <time>2016-01-23T12:27:45Z</time>
      </trkpt>
      <trkpt lat="60.453308447184" lon="22.275540213893">
        <ele>5.4</ele>
        <time>2016-01-23T12:27:46Z</time>
      </trkpt>
      <trkpt lat="60.45330878246" lon="22.275540130074">
        <ele>5.4</ele>
        <time>2016-01-23T12:27:47Z</time>
      </trkpt>
      <trkpt lat="60.453308195727" lon="22.275539962436">
        <ele>5.4</ele>
        <time>2016-01-23T12:27:48Z</time>
      </trkpt>
      <trkpt lat="60.453306184071" lon="22.275539459522">
        <ele>5.4</ele>
        <time>2016-01-23T12:27:49Z</time>
      </trkpt>
      <trkpt lat="60.453304423872" lon="22.275535352391">
        <ele>5.4</ele>
        <time>2016-01-23T12:27:50Z</time>
      </trkpt>
      <trkpt lat="60.45330291513" lon="22.275530742346">
        <ele>5.4</ele>
        <time>2016-01-23T12:27:51Z</time>
      </trkpt>
      <trkpt lat="60.453302160759" lon="22.275530155613">
        <ele>5.4</ele>
        <time>2016-01-23T12:27:52Z</time>
      </trkpt>
      <trkpt lat="60.453302160759" lon="22.275529736518">
        <ele>5.4</ele>
        <time>2016-01-23T12:27:53Z</time>
      </trkpt>
      <trkpt lat="60.453302160759" lon="22.275529652699">
        <ele>5.4</ele>
        <time>2016-01-23T12:27:54Z</time>
      </trkpt>
      <trkpt lat="60.45330207694" lon="22.275529987975">
        <ele>5.4</ele>
        <time>2016-01-23T12:27:55Z</time>
      </trkpt>
      <trkpt lat="60.453302160759" lon="22.275529317423">
        <ele>5.4</ele>
        <time>2016-01-23T12:27:56Z</time>
      </trkpt>
      <trkpt lat="60.453302412216" lon="22.275528311595">
        <ele>5.4</ele>
        <time>2016-01-23T12:27:57Z</time>
      </trkpt>
      <trkpt lat="60.453302496035" lon="22.275528395414">
        <ele>5.4</ele>
        <time>2016-01-23T12:27:58Z</time>
      </trkpt>
      <trkpt lat="60.453302496035" lon="22.275529401242">
        <ele>5.4</ele>
        <time>2016-01-23T12:27:59Z</time>
      </trkpt>
      <trkpt lat="60.453302412216" lon="22.275529652699">
        <ele>5.4</ele>
        <time>2016-01-23T12:28:00Z</time>
      </trkpt>
      <trkpt lat="60.453302579854" lon="22.275528898328">
        <ele>5.4</ele>
        <time>2016-01-23T12:28:01Z</time>
      </trkpt>
      <trkpt lat="60.453302412216" lon="22.275527808681">
        <ele>5.4</ele>
        <time>2016-01-23T12:28:02Z</time>
      </trkpt>
      <trkpt lat="60.453302160759" lon="22.275527221948">
        <ele>5.4</ele>
        <time>2016-01-23T12:28:03Z</time>
      </trkpt>
      <trkpt lat="60.453303250406" lon="22.275528395414">
        <ele>5.4</ele>
        <time>2016-01-23T12:28:04Z</time>
      </trkpt>
      <trkpt lat="60.453304507691" lon="22.275529652699">
        <ele>5.4</ele>
        <time>2016-01-23T12:28:05Z</time>
      </trkpt>
      <trkpt lat="60.45330459151" lon="22.275529401242">
        <ele>5.4</ele>
        <time>2016-01-23T12:28:06Z</time>
      </trkpt>
      <trkpt lat="60.453304842967" lon="22.275529904156">
        <ele>5.4</ele>
        <time>2016-01-23T12:28:07Z</time>
      </trkpt>
      <trkpt lat="60.453305178243" lon="22.27553040707">
        <ele>5.4</ele>
        <time>2016-01-23T12:28:08Z</time>
      </trkpt>
      <trkpt lat="60.453305178243" lon="22.27552956888">
        <ele>5.4</ele>
        <time>2016-01-23T12:28:09Z</time>
      </trkpt>
      <trkpt lat="60.453304842967" lon="22.275529233604">
        <ele>5.4</ele>
        <time>2016-01-23T12:28:10Z</time>
      </trkpt>
      <trkpt lat="60.453305178243" lon="22.275529065966">
        <ele>5.4</ele>
        <time>2016-01-23T12:28:11Z</time>
      </trkpt>
      <trkpt lat="60.453305597338" lon="22.275528814509">
        <ele>5.4</ele>
        <time>2016-01-23T12:28:12Z</time>
      </trkpt>
      <trkpt lat="60.453306100252" lon="22.275528898328">
        <ele>5.4</ele>
        <time>2016-01-23T12:28:13Z</time>
      </trkpt>
      <trkpt lat="60.453307357537" lon="22.275528143957">
        <ele>5.4</ele>
        <time>2016-01-23T12:28:14Z</time>
      </trkpt>
      <trkpt lat="60.453315404161" lon="22.275537196409">
        <ele>5.4</ele>
        <time>2016-01-23T12:28:15Z</time>
      </trkpt>
      <trkpt lat="60.45331464979" lon="22.27554884725">
        <ele>5.4</ele>
        <time>2016-01-23T12:28:16Z</time>
      </trkpt>
      <trkpt lat="60.453313895419" lon="22.275539459522">
        <ele>5.4</ele>
        <time>2016-01-23T12:28:17Z</time>
      </trkpt>
      <trkpt lat="60.453324372794" lon="22.275571981294">
        <ele>5.4</ele>
        <time>2016-01-23T12:28:18Z</time>
      </trkpt>
      <trkpt lat="60.453341974784" lon="22.275605425075">
        <ele>5.4</ele>
        <time>2016-01-23T12:28:19Z</time>
      </trkpt>
      <trkpt lat="60.453363348629" lon="22.275622105056">
        <ele>5.8</ele>
        <time>2016-01-23T12:28:20Z</time>
      </trkpt>
      <trkpt lat="60.453385309207" lon="22.27562176978">
        <ele>6.2</ele>
        <time>2016-01-23T12:28:21Z</time>
      </trkpt>
      <trkpt lat="60.453406766871" lon="22.275622775608">
        <ele>6.6</ele>
        <time>2016-01-23T12:28:22Z</time>
      </trkpt>
      <trkpt lat="60.45343870191" lon="22.2756284753">
        <ele>7</ele>
        <time>2016-01-23T12:28:23Z</time>
      </trkpt>
      <trkpt lat="60.453464099067" lon="22.275630486956">
        <ele>7.4</ele>
        <time>2016-01-23T12:28:24Z</time>
      </trkpt>
      <trkpt lat="60.453481952514" lon="22.275639707046">
        <ele>7.6</ele>
        <time>2016-01-23T12:28:25Z</time>
      </trkpt>
      <trkpt lat="60.453488490396" lon="22.275638952675">
        <ele>7.6</ele>
        <time>2016-01-23T12:28:26Z</time>
      </trkpt>
      <trkpt lat="60.453479102668" lon="22.275638030666">
        <ele>7.6</ele>
        <time>2016-01-23T12:28:27Z</time>
      </trkpt>
      <trkpt lat="60.453493687174" lon="22.275639287951">
        <ele>7.6</ele>
        <time>2016-01-23T12:28:28Z</time>
      </trkpt>
      <trkpt lat="60.453489999138" lon="22.275638868856">
        <ele>7.6</ele>
        <time>2016-01-23T12:28:29Z</time>
      </trkpt>
      <trkpt lat="60.453493854812" lon="22.275636521924">
        <ele>7.6</ele>
        <time>2016-01-23T12:28:30Z</time>
      </trkpt>
      <trkpt lat="60.453492681346" lon="22.275637611571">
        <ele>7.6</ele>
        <time>2016-01-23T12:28:31Z</time>
      </trkpt>
      <trkpt lat="60.453491591699" lon="22.275639204132">
        <ele>7.6</ele>
        <time>2016-01-23T12:28:32Z</time>
      </trkpt>
      <trkpt lat="60.453501230884" lon="22.27563518082">
        <ele>7.2</ele>
        <time>2016-01-23T12:28:33Z</time>
      </trkpt>
      <trkpt lat="60.453494776821" lon="22.275637946847">
        <ele>6.8</ele>
        <time>2016-01-23T12:28:34Z</time>
      </trkpt>
      <trkpt lat="60.45349905159" lon="22.275635599915">
        <ele>6.4</ele>
        <time>2016-01-23T12:28:35Z</time>
      </trkpt>
      <trkpt lat="60.453498800133" lon="22.275635516096">
        <ele>6</ele>
        <time>2016-01-23T12:28:36Z</time>
      </trkpt>
      <trkpt lat="60.453498548676" lon="22.275634929363">
        <ele>5.6</ele>
        <time>2016-01-23T12:28:37Z</time>
      </trkpt>
      <trkpt lat="60.453497710486" lon="22.275634007354">
        <ele>5</ele>
        <time>2016-01-23T12:28:38Z</time>
      </trkpt>
      <trkpt lat="60.453496453201" lon="22.275633588259">
        <ele>5.4</ele>
        <time>2016-01-23T12:28:39Z</time>
      </trkpt>
      <trkpt lat="60.453495279735" lon="22.275632750069">
        <ele>5.8</ele>
        <time>2016-01-23T12:28:40Z</time>
      </trkpt>
      <trkpt lat="60.453494106269" lon="22.275630822232">
        <ele>6</ele>
        <time>2016-01-23T12:28:41Z</time>
      </trkpt>
      <trkpt lat="60.453492848984" lon="22.275630235499">
        <ele>6.2</ele>
        <time>2016-01-23T12:28:42Z</time>
      </trkpt>
      <trkpt lat="60.453492681346" lon="22.275630906051">
        <ele>6.6</ele>
        <time>2016-01-23T12:28:43Z</time>
      </trkpt>
      <trkpt lat="60.453493603355" lon="22.275630235499">
        <ele>6.8</ele>
        <time>2016-01-23T12:28:44Z</time>
      </trkpt>
      <trkpt lat="60.453493854812" lon="22.275630067861">
        <ele>6.8</ele>
        <time>2016-01-23T12:28:45Z</time>
      </trkpt>
      <trkpt lat="60.453493770993" lon="22.275630570775">
        <ele>6.8</ele>
        <time>2016-01-23T12:28:46Z</time>
      </trkpt>
      <trkpt lat="60.453493603355" lon="22.275631408965">
        <ele>6.8</ele>
        <time>2016-01-23T12:28:47Z</time>
      </trkpt>
      <trkpt lat="60.453493687174" lon="22.275631744241">
        <ele>6.8</ele>
        <time>2016-01-23T12:28:48Z</time>
      </trkpt>
      <trkpt lat="60.453493603355" lon="22.275631995698">
        <ele>6.8</ele>
        <time>2016-01-23T12:28:49Z</time>
      </trkpt>
      <trkpt lat="60.45349402245" lon="22.275631744241">
        <ele>6.8</ele>
        <time>2016-01-23T12:28:50Z</time>
      </trkpt>
      <trkpt lat="60.453494525364" lon="22.275630822232">
        <ele>6.8</ele>
        <time>2016-01-23T12:28:51Z</time>
      </trkpt>
      <trkpt lat="60.453492848984" lon="22.275630570775">
        <ele>6.8</ele>
        <time>2016-01-23T12:28:52Z</time>
      </trkpt>
      <trkpt lat="60.453492597527" lon="22.275629062033">
        <ele>6.8</ele>
        <time>2016-01-23T12:28:53Z</time>
      </trkpt>
      <trkpt lat="60.453492597527" lon="22.275627888567">
        <ele>6.8</ele>
        <time>2016-01-23T12:28:54Z</time>
      </trkpt>
      <trkpt lat="60.45349234607" lon="22.275627720929">
        <ele>6.8</ele>
        <time>2016-01-23T12:28:55Z</time>
      </trkpt>
      <trkpt lat="60.453493268079" lon="22.275626631282">
        <ele>6.8</ele>
        <time>2016-01-23T12:28:56Z</time>
      </trkpt>
      <trkpt lat="60.453495112097" lon="22.275627469472">
        <ele>6.8</ele>
        <time>2016-01-23T12:28:57Z</time>
      </trkpt>
      <trkpt lat="60.453497459029" lon="22.275628056205">
        <ele>6.8</ele>
        <time>2016-01-23T12:28:58Z</time>
      </trkpt>
      <trkpt lat="60.453499386866" lon="22.275626547463">
        <ele>6.8</ele>
        <time>2016-01-23T12:28:59Z</time>
      </trkpt>
      <trkpt lat="60.453499805961" lon="22.275627553291">
        <ele>6.8</ele>
        <time>2016-01-23T12:29:00Z</time>
      </trkpt>
      <trkpt lat="60.453500979427" lon="22.275628391481">
        <ele>6.8</ele>
        <time>2016-01-23T12:29:01Z</time>
      </trkpt>
      <trkpt lat="60.453502488169" lon="22.275627469472">
        <ele>6.8</ele>
        <time>2016-01-23T12:29:02Z</time>
      </trkpt>
      <trkpt lat="60.453503577816" lon="22.275627050377">
        <ele>6.8</ele>
        <time>2016-01-23T12:29:03Z</time>
      </trkpt>
      <trkpt lat="60.453503410178" lon="22.275629900223">
        <ele>6.8</ele>
        <time>2016-01-23T12:29:04Z</time>
      </trkpt>
      <trkpt lat="60.453503410178" lon="22.275632833888">
        <ele>6.8</ele>
        <time>2016-01-23T12:29:05Z</time>
      </trkpt>
      <trkpt lat="60.453503996911" lon="22.275632750069">
        <ele>6.8</ele>
        <time>2016-01-23T12:29:06Z</time>
      </trkpt>
      <trkpt lat="60.453504164549" lon="22.275630906051">
        <ele>6.8</ele>
        <time>2016-01-23T12:29:07Z</time>
      </trkpt>
      <trkpt lat="60.453503745454" lon="22.275632247155">
        <ele>6.8</ele>
        <time>2016-01-23T12:29:08Z</time>
      </trkpt>
      <trkpt lat="60.45350156616" lon="22.275635599915">
        <ele>6.8</ele>
        <time>2016-01-23T12:29:09Z</time>
      </trkpt>
      <trkpt lat="60.453501063246" lon="22.275636941019">
        <ele>6.8</ele>
        <time>2016-01-23T12:29:10Z</time>
      </trkpt>
      <trkpt lat="60.453500979427" lon="22.275639287951">
        <ele>6.8</ele>
        <time>2016-01-23T12:29:11Z</time>
      </trkpt>
      <trkpt lat="60.453502488169" lon="22.275640712874">
        <ele>6.8</ele>
        <time>2016-01-23T12:29:12Z</time>
      </trkpt>
      <trkpt lat="60.453503158721" lon="22.275642808349">
        <ele>6.8</ele>
        <time>2016-01-23T12:29:13Z</time>
      </trkpt>
      <trkpt lat="60.453502907264" lon="22.275644317091">
        <ele>6.8</ele>
        <time>2016-01-23T12:29:14Z</time>
      </trkpt>
      <trkpt lat="60.453502320531" lon="22.275644652367">
        <ele>6.8</ele>
        <time>2016-01-23T12:29:15Z</time>
      </trkpt>
      <trkpt lat="60.453501649979" lon="22.275645406738">
        <ele>6.8</ele>
        <time>2016-01-23T12:29:16Z</time>
      </trkpt>
      <trkpt lat="60.453501398522" lon="22.275646161109">
        <ele>6.8</ele>
        <time>2016-01-23T12:29:17Z</time>
      </trkpt>
      <trkpt lat="60.453501482341" lon="22.275646999299">
        <ele>6.8</ele>
        <time>2016-01-23T12:29:18Z</time>
      </trkpt>
      <trkpt lat="60.453500560332" lon="22.27564943005">
        <ele>6.8</ele>
        <time>2016-01-23T12:29:19Z</time>
      </trkpt>
      <trkpt lat="60.453500811789" lon="22.275651693163">
        <ele>6.8</ele>
        <time>2016-01-23T12:29:20Z</time>
      </trkpt>
      <trkpt lat="60.453501649979" lon="22.275653537181">
        <ele>6.8</ele>
        <time>2016-01-23T12:29:21Z</time>
      </trkpt>
      <trkpt lat="60.453495279735" lon="22.275644065634">
        <ele>6.8</ele>
        <time>2016-01-23T12:29:22Z</time>
      </trkpt>
      <trkpt lat="60.453489663862" lon="22.275639204132">
        <ele>6.8</ele>
        <time>2016-01-23T12:29:23Z</time>
      </trkpt>
      <trkpt lat="60.453482958342" lon="22.275632079517">
        <ele>6.8</ele>
        <time>2016-01-23T12:29:24Z</time>
      </trkpt>
      <trkpt lat="60.453476923374" lon="22.275631576603">
        <ele>6.8</ele>
        <time>2016-01-23T12:29:25Z</time>
      </trkpt>
      <trkpt lat="60.45347055313" lon="22.275625876911">
        <ele>6.8</ele>
        <time>2016-01-23T12:29:26Z</time>
      </trkpt>
      <trkpt lat="60.453467368008" lon="22.275623613798">
        <ele>6.8</ele>
        <time>2016-01-23T12:29:27Z</time>
      </trkpt>
      <trkpt lat="60.45347055313" lon="22.275627050377">
        <ele>6.8</ele>
        <time>2016-01-23T12:29:28Z</time>
      </trkpt>
      <trkpt lat="60.453457225909" lon="22.275619422848">
        <ele>6.8</ele>
        <time>2016-01-23T12:29:29Z</time>
      </trkpt>
      <trkpt lat="60.453451442398" lon="22.275614309889">
        <ele>6.8</ele>
        <time>2016-01-23T12:29:30Z</time>
      </trkpt>
      <trkpt lat="60.453446916172" lon="22.275609616025">
        <ele>6.8</ele>
        <time>2016-01-23T12:29:31Z</time>
      </trkpt>
      <trkpt lat="60.453441803213" lon="22.275604586885">
        <ele>6.8</ele>
        <time>2016-01-23T12:29:32Z</time>
      </trkpt>
      <trkpt lat="60.45343283458" lon="22.275607436731">
        <ele>6.8</ele>
        <time>2016-01-23T12:29:33Z</time>
      </trkpt>
      <trkpt lat="60.453424117404" lon="22.275603748695">
        <ele>6.8</ele>
        <time>2016-01-23T12:29:34Z</time>
      </trkpt>
      <trkpt lat="60.453413472391" lon="22.275588996551">
        <ele>6.8</ele>
        <time>2016-01-23T12:29:35Z</time>
      </trkpt>
      <trkpt lat="60.453408443251" lon="22.275594193329">
        <ele>6.8</ele>
        <time>2016-01-23T12:29:36Z</time>
      </trkpt>
      <trkpt lat="60.453413723848" lon="22.275594528605">
        <ele>6.8</ele>
        <time>2016-01-23T12:29:37Z</time>
      </trkpt>
      <trkpt lat="60.453409616717" lon="22.275598132822">
        <ele>6.8</ele>
        <time>2016-01-23T12:29:38Z</time>
      </trkpt>
      <trkpt lat="60.453410371088" lon="22.275599725383">
        <ele>6.8</ele>
        <time>2016-01-23T12:29:39Z</time>
      </trkpt>
      <trkpt lat="60.453410454907" lon="22.275602239953">
        <ele>6.8</ele>
        <time>2016-01-23T12:29:40Z</time>
      </trkpt>
      <trkpt lat="60.453410706364" lon="22.275602994324">
        <ele>6.8</ele>
        <time>2016-01-23T12:29:41Z</time>
      </trkpt>
      <trkpt lat="60.45340936526" lon="22.275601737039">
        <ele>6.8</ele>
        <time>2016-01-23T12:29:42Z</time>
      </trkpt>
      <trkpt lat="60.453407605061" lon="22.275598803374">
        <ele>6.8</ele>
        <time>2016-01-23T12:29:43Z</time>
      </trkpt>
      <trkpt lat="60.453408107975" lon="22.27559913865">
        <ele>6.8</ele>
        <time>2016-01-23T12:29:44Z</time>
      </trkpt>
      <trkpt lat="60.45340936526" lon="22.275599809202">
        <ele>6.8</ele>
        <time>2016-01-23T12:29:45Z</time>
      </trkpt>
      <trkpt lat="60.453403330292" lon="22.275591511121">
        <ele>6.8</ele>
        <time>2016-01-23T12:29:46Z</time>
      </trkpt>
      <trkpt lat="60.453399809894" lon="22.275587655447">
        <ele>6.8</ele>
        <time>2016-01-23T12:29:47Z</time>
      </trkpt>
      <trkpt lat="60.453389164881" lon="22.275577178072">
        <ele>6.8</ele>
        <time>2016-01-23T12:29:48Z</time>
      </trkpt>
      <trkpt lat="60.45338421956" lon="22.275573825312">
        <ele>6.8</ele>
        <time>2016-01-23T12:29:49Z</time>
      </trkpt>
      <trkpt lat="60.453379525696" lon="22.275570221095">
        <ele>6.8</ele>
        <time>2016-01-23T12:29:50Z</time>
      </trkpt>
      <trkpt lat="60.453383549008" lon="22.27557483114">
        <ele>6.8</ele>
        <time>2016-01-23T12:29:51Z</time>
      </trkpt>
      <trkpt lat="60.453379274239" lon="22.275573322398">
        <ele>6.8</ele>
        <time>2016-01-23T12:29:52Z</time>
      </trkpt>
      <trkpt lat="60.453380196248" lon="22.275574244407">
        <ele>6.8</ele>
        <time>2016-01-23T12:29:53Z</time>
      </trkpt>
      <trkpt lat="60.453381118257" lon="22.275575501692">
        <ele>6.8</ele>
        <time>2016-01-23T12:29:54Z</time>
      </trkpt>
      <trkpt lat="60.453381621171" lon="22.275576256063">
        <ele>6.8</ele>
        <time>2016-01-23T12:29:55Z</time>
      </trkpt>
      <trkpt lat="60.453381369714" lon="22.275576256063">
        <ele>6.8</ele>
        <time>2016-01-23T12:29:56Z</time>
      </trkpt>
      <trkpt lat="60.453380447705" lon="22.275577094253">
        <ele>6.8</ele>
        <time>2016-01-23T12:29:57Z</time>
      </trkpt>
      <trkpt lat="60.453369635054" lon="22.275573657674">
        <ele>6.8</ele>
        <time>2016-01-23T12:29:58Z</time>
      </trkpt>
      <trkpt lat="60.453352619797" lon="22.275559408444">
        <ele>6.8</ele>
        <time>2016-01-23T12:29:59Z</time>
      </trkpt>
      <trkpt lat="60.453333676703" lon="22.275547925241">
        <ele>6.8</ele>
        <time>2016-01-23T12:30:00Z</time>
      </trkpt>
      <trkpt lat="60.453310542659" lon="22.275541219721">
        <ele>6.8</ele>
        <time>2016-01-23T12:30:01Z</time>
      </trkpt>
      <trkpt lat="60.453283301484" lon="22.275519929695">
        <ele>6.8</ele>
        <time>2016-01-23T12:30:02Z</time>
      </trkpt>
      <trkpt lat="60.453256982318" lon="22.275498974945">
        <ele>6.8</ele>
        <time>2016-01-23T12:30:03Z</time>
      </trkpt>
      <trkpt lat="60.453228148582" lon="22.275482714059">
        <ele>6.8</ele>
        <time>2016-01-23T12:30:04Z</time>
      </trkpt>
      <trkpt lat="60.453205014538" lon="22.275472404322">
        <ele>6.8</ele>
        <time>2016-01-23T12:30:05Z</time>
      </trkpt>
      <trkpt lat="60.453169978196" lon="22.275497885298">
        <ele>6.8</ele>
        <time>2016-01-23T12:30:06Z</time>
      </trkpt>
      <trkpt lat="60.453146425057" lon="22.275523953007">
        <ele>6.8</ele>
        <time>2016-01-23T12:30:07Z</time>
      </trkpt>
      <trkpt lat="60.453121363176" lon="22.275544153386">
        <ele>6.8</ele>
        <time>2016-01-23T12:30:08Z</time>
      </trkpt>
      <trkpt lat="60.453096468933" lon="22.275564521403">
        <ele>6.8</ele>
        <time>2016-01-23T12:30:09Z</time>
      </trkpt>
      <trkpt lat="60.453068892482" lon="22.27558740399">
        <ele>6.8</ele>
        <time>2016-01-23T12:30:10Z</time>
      </trkpt>
      <trkpt lat="60.453042070402" lon="22.275610286577">
        <ele>6.4</ele>
        <time>2016-01-23T12:30:11Z</time>
      </trkpt>
      <trkpt lat="60.453017008521" lon="22.275638365942">
        <ele>6</ele>
        <time>2016-01-23T12:30:12Z</time>
      </trkpt>
      <trkpt lat="60.452999657988" lon="22.275655381199">
        <ele>5.6</ele>
        <time>2016-01-23T12:30:13Z</time>
      </trkpt>
      <trkpt lat="60.452985157301" lon="22.275689830808">
        <ele>5.2</ele>
        <time>2016-01-23T12:30:14Z</time>
      </trkpt>
      <trkpt lat="60.452968561139" lon="22.275722604037">
        <ele>4.8</ele>
        <time>2016-01-23T12:30:15Z</time>
      </trkpt>
      <trkpt lat="60.452959424868" lon="22.275741211855">
        <ele>4.8</ele>
        <time>2016-01-23T12:30:16Z</time>
      </trkpt>
      <trkpt lat="60.452953138443" lon="22.275750264307">
        <ele>4.8</ele>
        <time>2016-01-23T12:30:17Z</time>
      </trkpt>
      <trkpt lat="60.452959592506" lon="22.275740038389">
        <ele>5</ele>
        <time>2016-01-23T12:30:18Z</time>
      </trkpt>
      <trkpt lat="60.452952886986" lon="22.275750934859">
        <ele>5.4</ele>
        <time>2016-01-23T12:30:19Z</time>
      </trkpt>
      <trkpt lat="60.452952719348" lon="22.275749929031">
        <ele>5.8</ele>
        <time>2016-01-23T12:30:20Z</time>
      </trkpt>
      <trkpt lat="60.452952467891" lon="22.275750431945">
        <ele>6.2</ele>
        <time>2016-01-23T12:30:21Z</time>
      </trkpt>
      <trkpt lat="60.452952467891" lon="22.275749929031">
        <ele>6.6</ele>
        <time>2016-01-23T12:30:22Z</time>
      </trkpt>
      <trkpt lat="60.452953306081" lon="22.275751353954">
        <ele>6.8</ele>
        <time>2016-01-23T12:30:23Z</time>
      </trkpt>
      <trkpt lat="60.452952719348" lon="22.275751940687">
        <ele>7</ele>
        <time>2016-01-23T12:30:24Z</time>
      </trkpt>
      <trkpt lat="60.4529533899" lon="22.275750348126">
        <ele>7</ele>
        <time>2016-01-23T12:30:25Z</time>
      </trkpt>
      <trkpt lat="60.452954982461" lon="22.275750264307">
        <ele>7</ele>
        <time>2016-01-23T12:30:26Z</time>
      </trkpt>
      <trkpt lat="60.452956323565" lon="22.275751521592">
        <ele>7</ele>
        <time>2016-01-23T12:30:27Z</time>
      </trkpt>
      <trkpt lat="60.452956910298" lon="22.275751521592">
        <ele>7</ele>
        <time>2016-01-23T12:30:28Z</time>
      </trkpt>
      <trkpt lat="60.452956910298" lon="22.275751353954">
        <ele>7</ele>
        <time>2016-01-23T12:30:29Z</time>
      </trkpt>
      <trkpt lat="60.452956323565" lon="22.275751605411">
        <ele>7</ele>
        <time>2016-01-23T12:30:30Z</time>
      </trkpt>
      <trkpt lat="60.452956323565" lon="22.275751353954">
        <ele>7</ele>
        <time>2016-01-23T12:30:31Z</time>
      </trkpt>
      <trkpt lat="60.452956658841" lon="22.275750431945">
        <ele>7</ele>
        <time>2016-01-23T12:30:32Z</time>
      </trkpt>
      <trkpt lat="60.452957077936" lon="22.275750599583">
        <ele>7</ele>
        <time>2016-01-23T12:30:33Z</time>
      </trkpt>
      <trkpt lat="60.452957664669" lon="22.275752024506">
        <ele>7</ele>
        <time>2016-01-23T12:30:34Z</time>
      </trkpt>
      <trkpt lat="60.452959173411" lon="22.275749509936">
        <ele>7</ele>
        <time>2016-01-23T12:30:35Z</time>
      </trkpt>
      <trkpt lat="60.452962107076" lon="22.275748587927">
        <ele>7</ele>
        <time>2016-01-23T12:30:36Z</time>
      </trkpt>
      <trkpt lat="60.452964956922" lon="22.275752611239">
        <ele>7</ele>
        <time>2016-01-23T12:30:37Z</time>
      </trkpt>
      <trkpt lat="60.452967555311" lon="22.275755461085">
        <ele>7</ele>
        <time>2016-01-23T12:30:38Z</time>
      </trkpt>
      <trkpt lat="60.452967471492" lon="22.275758310931">
        <ele>7</ele>
        <time>2016-01-23T12:30:39Z</time>
      </trkpt>
      <trkpt lat="60.452965711293" lon="22.275757724198">
        <ele>7</ele>
        <time>2016-01-23T12:30:40Z</time>
      </trkpt>
      <trkpt lat="60.452965543655" lon="22.275756969827">
        <ele>7</ele>
        <time>2016-01-23T12:30:41Z</time>
      </trkpt>
      <trkpt lat="60.452965459836" lon="22.275758143293">
        <ele>7</ele>
        <time>2016-01-23T12:30:42Z</time>
      </trkpt>
      <trkpt lat="60.452965292198" lon="22.275757724198">
        <ele>7</ele>
        <time>2016-01-23T12:30:43Z</time>
      </trkpt>
      <trkpt lat="60.45296512456" lon="22.275756969827">
        <ele>7</ele>
        <time>2016-01-23T12:30:44Z</time>
      </trkpt>
      <trkpt lat="60.45296512456" lon="22.275756466913">
        <ele>7</ele>
        <time>2016-01-23T12:30:45Z</time>
      </trkpt>
      <trkpt lat="60.452964956922" lon="22.275756466913">
        <ele>7</ele>
        <time>2016-01-23T12:30:46Z</time>
      </trkpt>
      <trkpt lat="60.45296596275" lon="22.27575839475">
        <ele>7</ele>
        <time>2016-01-23T12:30:47Z</time>
      </trkpt>
      <trkpt lat="60.452967555311" lon="22.275760490225">
        <ele>7</ele>
        <time>2016-01-23T12:30:48Z</time>
      </trkpt>
    </trkseg>
  </trk>
</gpx>